<?xml version="1.0" encoding="UTF-8"?>
<gpx version="1.1" creator="https://www.youtrack.es" xsi:schemaLocation="http://www.topografix.com/GPX/1/1 http://www.topografix.com/GPX/1/1/gpx.xsd http://www.garmin.com/xmlschemas/GpxExtensions/v3 http://www.garmin.com/xmlschemas/GpxExtensionsv3.xsd http://www.garmin.com/xmlschemas/TrackPointExtension/v1 http://www.garmin.com/xmlschemas/TrackPointExtensionv1.xsd" xmlns:gpxtpx="http://www.garmin.com/xmlschemas/TrackPointExtension/v1" xmlns:gpxx="http://www.garmin.com/xmlschemas/GpxExtensions/v3" xmlns:xsi="http://www.w3.org/2001/XMLSchema-instance">
  <metadata>
    <link href="https://www.youtrack.es">
      <text>YouTrack.es</text>
    </link>
    <time>2026-05-08T08:34:26Z</time>
  </metadata>
  <trk>
    <src>https://www.youtrack.es</src>
    <link href="https://www.youtrack.es/ruta/4230-lausanne-lavaux-vevey-montreaux-chillon-renens">
      <text>YouTrack.es</text>
    </link>
    <trkseg>
      <trkpt lat="46.5014140" lon="6.6897230">
        <ele>371.9</ele>
        <time>2019-02-24T09:50:58Z</time>
      </trkpt>
      <trkpt lat="46.5014140" lon="6.6897290">
        <ele>371.9</ele>
        <time>2019-02-24T09:50:59Z</time>
      </trkpt>
      <trkpt lat="46.5014140" lon="6.6897320">
        <ele>371.9</ele>
        <time>2019-02-24T09:51:00Z</time>
      </trkpt>
      <trkpt lat="46.5014140" lon="6.6897330">
        <ele>371.9</ele>
        <time>2019-02-24T09:51:01Z</time>
      </trkpt>
      <trkpt lat="46.5014140" lon="6.6897330">
        <ele>371.9</ele>
        <time>2019-02-24T09:51:02Z</time>
      </trkpt>
      <trkpt lat="46.5014140" lon="6.6897320">
        <ele>371.9</ele>
        <time>2019-02-24T09:51:03Z</time>
      </trkpt>
      <trkpt lat="46.5014140" lon="6.6897300">
        <ele>371.9</ele>
        <time>2019-02-24T09:51:04Z</time>
      </trkpt>
      <trkpt lat="46.5014140" lon="6.6897280">
        <ele>371.9</ele>
        <time>2019-02-24T09:51:05Z</time>
      </trkpt>
      <trkpt lat="46.5014140" lon="6.6897250">
        <ele>371.9</ele>
        <time>2019-02-24T09:51:06Z</time>
      </trkpt>
      <trkpt lat="46.5014130" lon="6.6897230">
        <ele>371.9</ele>
        <time>2019-02-24T09:51:07Z</time>
      </trkpt>
      <trkpt lat="46.5014130" lon="6.6897220">
        <ele>371.9</ele>
        <time>2019-02-24T09:51:08Z</time>
      </trkpt>
      <trkpt lat="46.5014130" lon="6.6897220">
        <ele>371.9</ele>
        <time>2019-02-24T09:51:09Z</time>
      </trkpt>
      <trkpt lat="46.5014130" lon="6.6897240">
        <ele>371.9</ele>
        <time>2019-02-24T09:51:10Z</time>
      </trkpt>
      <trkpt lat="46.5014140" lon="6.6897270">
        <ele>371.9</ele>
        <time>2019-02-24T09:51:11Z</time>
      </trkpt>
      <trkpt lat="46.5014140" lon="6.6897330">
        <ele>371.9</ele>
        <time>2019-02-24T09:51:12Z</time>
      </trkpt>
      <trkpt lat="46.5014150" lon="6.6897410">
        <ele>371.9</ele>
        <time>2019-02-24T09:51:13Z</time>
      </trkpt>
      <trkpt lat="46.5014160" lon="6.6897520">
        <ele>371.9</ele>
        <time>2019-02-24T09:51:14Z</time>
      </trkpt>
      <trkpt lat="46.5014170" lon="6.6897670">
        <ele>371.9</ele>
        <time>2019-02-24T09:51:15Z</time>
      </trkpt>
      <trkpt lat="46.5014190" lon="6.6897850">
        <ele>371.9</ele>
        <time>2019-02-24T09:51:16Z</time>
      </trkpt>
      <trkpt lat="46.5014230" lon="6.6898060">
        <ele>371.9</ele>
        <time>2019-02-24T09:51:17Z</time>
      </trkpt>
      <trkpt lat="46.5014290" lon="6.6898270">
        <ele>371.9</ele>
        <time>2019-02-24T09:51:18Z</time>
      </trkpt>
      <trkpt lat="46.5014400" lon="6.6898470">
        <ele>371.9</ele>
        <time>2019-02-24T09:51:19Z</time>
      </trkpt>
      <trkpt lat="46.5014560" lon="6.6898660">
        <ele>372.0</ele>
        <time>2019-02-24T09:51:20Z</time>
      </trkpt>
      <trkpt lat="46.5014760" lon="6.6898800">
        <ele>372.0</ele>
        <time>2019-02-24T09:51:21Z</time>
      </trkpt>
      <trkpt lat="46.5014970" lon="6.6898910">
        <ele>372.0</ele>
        <time>2019-02-24T09:51:22Z</time>
      </trkpt>
      <trkpt lat="46.5015190" lon="6.6898950">
        <ele>372.0</ele>
        <time>2019-02-24T09:51:23Z</time>
      </trkpt>
      <trkpt lat="46.5015390" lon="6.6898930">
        <ele>372.0</ele>
        <time>2019-02-24T09:51:24Z</time>
      </trkpt>
      <trkpt lat="46.5015580" lon="6.6898880">
        <ele>372.1</ele>
        <time>2019-02-24T09:51:25Z</time>
      </trkpt>
      <trkpt lat="46.5015760" lon="6.6898830">
        <ele>372.1</ele>
        <time>2019-02-24T09:51:26Z</time>
      </trkpt>
      <trkpt lat="46.5015930" lon="6.6898840">
        <ele>372.1</ele>
        <time>2019-02-24T09:51:27Z</time>
      </trkpt>
      <trkpt lat="46.5016100" lon="6.6898910">
        <ele>372.2</ele>
        <time>2019-02-24T09:51:28Z</time>
      </trkpt>
      <trkpt lat="46.5016270" lon="6.6899050">
        <ele>372.3</ele>
        <time>2019-02-24T09:51:29Z</time>
      </trkpt>
      <trkpt lat="46.5016440" lon="6.6899210">
        <ele>372.3</ele>
        <time>2019-02-24T09:51:30Z</time>
      </trkpt>
      <trkpt lat="46.5016610" lon="6.6899380">
        <ele>372.3</ele>
        <time>2019-02-24T09:51:31Z</time>
      </trkpt>
      <trkpt lat="46.5016780" lon="6.6899540">
        <ele>372.3</ele>
        <time>2019-02-24T09:51:32Z</time>
      </trkpt>
      <trkpt lat="46.5016950" lon="6.6899680">
        <ele>372.3</ele>
        <time>2019-02-24T09:51:33Z</time>
      </trkpt>
      <trkpt lat="46.5017130" lon="6.6899810">
        <ele>372.3</ele>
        <time>2019-02-24T09:51:34Z</time>
      </trkpt>
      <trkpt lat="46.5017310" lon="6.6899920">
        <ele>372.4</ele>
        <time>2019-02-24T09:51:35Z</time>
      </trkpt>
      <trkpt lat="46.5017490" lon="6.6900040">
        <ele>372.6</ele>
        <time>2019-02-24T09:51:36Z</time>
      </trkpt>
      <trkpt lat="46.5017680" lon="6.6900160">
        <ele>372.7</ele>
        <time>2019-02-24T09:51:37Z</time>
      </trkpt>
      <trkpt lat="46.5017870" lon="6.6900280">
        <ele>372.8</ele>
        <time>2019-02-24T09:51:38Z</time>
      </trkpt>
      <trkpt lat="46.5018050" lon="6.6900420">
        <ele>373.0</ele>
        <time>2019-02-24T09:51:39Z</time>
      </trkpt>
      <trkpt lat="46.5018250" lon="6.6900570">
        <ele>373.1</ele>
        <time>2019-02-24T09:51:40Z</time>
      </trkpt>
      <trkpt lat="46.5018440" lon="6.6900730">
        <ele>373.2</ele>
        <time>2019-02-24T09:51:41Z</time>
      </trkpt>
      <trkpt lat="46.5018630" lon="6.6900900">
        <ele>373.4</ele>
        <time>2019-02-24T09:51:42Z</time>
      </trkpt>
      <trkpt lat="46.5018820" lon="6.6901070">
        <ele>373.5</ele>
        <time>2019-02-24T09:51:43Z</time>
      </trkpt>
      <trkpt lat="46.5019020" lon="6.6901240">
        <ele>373.7</ele>
        <time>2019-02-24T09:51:44Z</time>
      </trkpt>
      <trkpt lat="46.5019220" lon="6.6901410">
        <ele>373.9</ele>
        <time>2019-02-24T09:51:45Z</time>
      </trkpt>
      <trkpt lat="46.5019410" lon="6.6901570">
        <ele>374.0</ele>
        <time>2019-02-24T09:51:46Z</time>
      </trkpt>
      <trkpt lat="46.5019610" lon="6.6901720">
        <ele>374.2</ele>
        <time>2019-02-24T09:51:47Z</time>
      </trkpt>
      <trkpt lat="46.5019800" lon="6.6901850">
        <ele>374.3</ele>
        <time>2019-02-24T09:51:48Z</time>
      </trkpt>
      <trkpt lat="46.5019990" lon="6.6901980">
        <ele>374.5</ele>
        <time>2019-02-24T09:51:49Z</time>
      </trkpt>
      <trkpt lat="46.5020190" lon="6.6902090">
        <ele>374.6</ele>
        <time>2019-02-24T09:51:50Z</time>
      </trkpt>
      <trkpt lat="46.5020380" lon="6.6902190">
        <ele>374.8</ele>
        <time>2019-02-24T09:51:51Z</time>
      </trkpt>
      <trkpt lat="46.5020570" lon="6.6902280">
        <ele>374.9</ele>
        <time>2019-02-24T09:51:52Z</time>
      </trkpt>
      <trkpt lat="46.5020760" lon="6.6902370">
        <ele>375.1</ele>
        <time>2019-02-24T09:51:53Z</time>
      </trkpt>
      <trkpt lat="46.5020950" lon="6.6902460">
        <ele>375.2</ele>
        <time>2019-02-24T09:51:54Z</time>
      </trkpt>
      <trkpt lat="46.5021130" lon="6.6902560">
        <ele>375.3</ele>
        <time>2019-02-24T09:51:55Z</time>
      </trkpt>
      <trkpt lat="46.5021320" lon="6.6902650">
        <ele>375.5</ele>
        <time>2019-02-24T09:51:56Z</time>
      </trkpt>
      <trkpt lat="46.5021500" lon="6.6902750">
        <ele>375.6</ele>
        <time>2019-02-24T09:51:57Z</time>
      </trkpt>
      <trkpt lat="46.5021680" lon="6.6902850">
        <ele>375.7</ele>
        <time>2019-02-24T09:51:58Z</time>
      </trkpt>
      <trkpt lat="46.5021860" lon="6.6902970">
        <ele>375.8</ele>
        <time>2019-02-24T09:51:59Z</time>
      </trkpt>
      <trkpt lat="46.5022120" lon="6.6903170">
        <ele>376.0</ele>
        <time>2019-02-24T09:52:00Z</time>
      </trkpt>
      <trkpt lat="46.5022210" lon="6.6903240">
        <ele>376.1</ele>
        <time>2019-02-24T09:52:01Z</time>
      </trkpt>
      <trkpt lat="46.5022380" lon="6.6903400">
        <ele>376.2</ele>
        <time>2019-02-24T09:52:02Z</time>
      </trkpt>
      <trkpt lat="46.5022540" lon="6.6903580">
        <ele>379.5</ele>
        <time>2019-02-24T09:52:03Z</time>
      </trkpt>
      <trkpt lat="46.5022700" lon="6.6903780">
        <ele>379.8</ele>
        <time>2019-02-24T09:52:04Z</time>
      </trkpt>
      <trkpt lat="46.5022810" lon="6.6904000">
        <ele>380.0</ele>
        <time>2019-02-24T09:52:05Z</time>
      </trkpt>
      <trkpt lat="46.5022830" lon="6.6904240">
        <ele>380.2</ele>
        <time>2019-02-24T09:52:06Z</time>
      </trkpt>
      <trkpt lat="46.5022750" lon="6.6904500">
        <ele>380.4</ele>
        <time>2019-02-24T09:52:07Z</time>
      </trkpt>
      <trkpt lat="46.5022600" lon="6.6904770">
        <ele>380.7</ele>
        <time>2019-02-24T09:52:08Z</time>
      </trkpt>
      <trkpt lat="46.5022450" lon="6.6905060">
        <ele>381.1</ele>
        <time>2019-02-24T09:52:09Z</time>
      </trkpt>
      <trkpt lat="46.5022300" lon="6.6905360">
        <ele>381.4</ele>
        <time>2019-02-24T09:52:10Z</time>
      </trkpt>
      <trkpt lat="46.5022090" lon="6.6905840">
        <ele>381.8</ele>
        <time>2019-02-24T09:52:11Z</time>
      </trkpt>
      <trkpt lat="46.5022010" lon="6.6906010">
        <ele>382.0</ele>
        <time>2019-02-24T09:52:12Z</time>
      </trkpt>
      <trkpt lat="46.5021870" lon="6.6906370">
        <ele>382.3</ele>
        <time>2019-02-24T09:52:13Z</time>
      </trkpt>
      <trkpt lat="46.5021730" lon="6.6906740">
        <ele>382.7</ele>
        <time>2019-02-24T09:52:14Z</time>
      </trkpt>
      <trkpt lat="46.5021600" lon="6.6907120">
        <ele>383.0</ele>
        <time>2019-02-24T09:52:15Z</time>
      </trkpt>
      <trkpt lat="46.5021480" lon="6.6907490">
        <ele>383.4</ele>
        <time>2019-02-24T09:52:16Z</time>
      </trkpt>
      <trkpt lat="46.5021370" lon="6.6907860">
        <ele>383.7</ele>
        <time>2019-02-24T09:52:17Z</time>
      </trkpt>
      <trkpt lat="46.5021270" lon="6.6908220">
        <ele>384.0</ele>
        <time>2019-02-24T09:52:18Z</time>
      </trkpt>
      <trkpt lat="46.5021170" lon="6.6908570">
        <ele>384.3</ele>
        <time>2019-02-24T09:52:19Z</time>
      </trkpt>
      <trkpt lat="46.5021060" lon="6.6908900">
        <ele>384.6</ele>
        <time>2019-02-24T09:52:20Z</time>
      </trkpt>
      <trkpt lat="46.5020940" lon="6.6909220">
        <ele>384.9</ele>
        <time>2019-02-24T09:52:21Z</time>
      </trkpt>
      <trkpt lat="46.5020800" lon="6.6909530">
        <ele>385.2</ele>
        <time>2019-02-24T09:52:22Z</time>
      </trkpt>
      <trkpt lat="46.5020660" lon="6.6909840">
        <ele>385.5</ele>
        <time>2019-02-24T09:52:23Z</time>
      </trkpt>
      <trkpt lat="46.5020520" lon="6.6910140">
        <ele>385.8</ele>
        <time>2019-02-24T09:52:24Z</time>
      </trkpt>
      <trkpt lat="46.5020390" lon="6.6910440">
        <ele>386.1</ele>
        <time>2019-02-24T09:52:25Z</time>
      </trkpt>
      <trkpt lat="46.5020260" lon="6.6910740">
        <ele>386.4</ele>
        <time>2019-02-24T09:52:26Z</time>
      </trkpt>
      <trkpt lat="46.5020160" lon="6.6911050">
        <ele>386.7</ele>
        <time>2019-02-24T09:52:27Z</time>
      </trkpt>
      <trkpt lat="46.5020080" lon="6.6911370">
        <ele>387.0</ele>
        <time>2019-02-24T09:52:28Z</time>
      </trkpt>
      <trkpt lat="46.5020030" lon="6.6911690">
        <ele>387.5</ele>
        <time>2019-02-24T09:52:29Z</time>
      </trkpt>
      <trkpt lat="46.5020000" lon="6.6912030">
        <ele>387.9</ele>
        <time>2019-02-24T09:52:30Z</time>
      </trkpt>
      <trkpt lat="46.5020000" lon="6.6912360">
        <ele>388.3</ele>
        <time>2019-02-24T09:52:31Z</time>
      </trkpt>
      <trkpt lat="46.5020030" lon="6.6912690">
        <ele>388.7</ele>
        <time>2019-02-24T09:52:32Z</time>
      </trkpt>
      <trkpt lat="46.5020070" lon="6.6913020">
        <ele>389.0</ele>
        <time>2019-02-24T09:52:33Z</time>
      </trkpt>
      <trkpt lat="46.5020140" lon="6.6913330">
        <ele>389.3</ele>
        <time>2019-02-24T09:52:34Z</time>
      </trkpt>
      <trkpt lat="46.5020220" lon="6.6913630">
        <ele>389.6</ele>
        <time>2019-02-24T09:52:35Z</time>
      </trkpt>
      <trkpt lat="46.5020320" lon="6.6913910">
        <ele>389.8</ele>
        <time>2019-02-24T09:52:36Z</time>
      </trkpt>
      <trkpt lat="46.5020440" lon="6.6914160">
        <ele>390.1</ele>
        <time>2019-02-24T09:52:37Z</time>
      </trkpt>
      <trkpt lat="46.5020560" lon="6.6914400">
        <ele>390.4</ele>
        <time>2019-02-24T09:52:38Z</time>
      </trkpt>
      <trkpt lat="46.5020690" lon="6.6914620">
        <ele>390.6</ele>
        <time>2019-02-24T09:52:39Z</time>
      </trkpt>
      <trkpt lat="46.5020880" lon="6.6914970">
        <ele>391.1</ele>
        <time>2019-02-24T09:52:40Z</time>
      </trkpt>
      <trkpt lat="46.5020960" lon="6.6915120">
        <ele>391.3</ele>
        <time>2019-02-24T09:52:41Z</time>
      </trkpt>
      <trkpt lat="46.5021030" lon="6.6915260">
        <ele>391.5</ele>
        <time>2019-02-24T09:52:42Z</time>
      </trkpt>
      <trkpt lat="46.5021120" lon="6.6915490">
        <ele>391.8</ele>
        <time>2019-02-24T09:52:43Z</time>
      </trkpt>
      <trkpt lat="46.5021190" lon="6.6915740">
        <ele>392.1</ele>
        <time>2019-02-24T09:52:44Z</time>
      </trkpt>
      <trkpt lat="46.5021230" lon="6.6916000">
        <ele>392.3</ele>
        <time>2019-02-24T09:52:45Z</time>
      </trkpt>
      <trkpt lat="46.5021250" lon="6.6916280">
        <ele>392.6</ele>
        <time>2019-02-24T09:52:46Z</time>
      </trkpt>
      <trkpt lat="46.5021270" lon="6.6916570">
        <ele>392.9</ele>
        <time>2019-02-24T09:52:47Z</time>
      </trkpt>
      <trkpt lat="46.5021300" lon="6.6916840">
        <ele>393.1</ele>
        <time>2019-02-24T09:52:48Z</time>
      </trkpt>
      <trkpt lat="46.5021340" lon="6.6917100">
        <ele>393.4</ele>
        <time>2019-02-24T09:52:49Z</time>
      </trkpt>
      <trkpt lat="46.5021390" lon="6.6917340">
        <ele>393.6</ele>
        <time>2019-02-24T09:52:50Z</time>
      </trkpt>
      <trkpt lat="46.5021450" lon="6.6917580">
        <ele>393.7</ele>
        <time>2019-02-24T09:52:51Z</time>
      </trkpt>
      <trkpt lat="46.5021490" lon="6.6917810">
        <ele>393.9</ele>
        <time>2019-02-24T09:52:52Z</time>
      </trkpt>
      <trkpt lat="46.5021510" lon="6.6918050">
        <ele>394.1</ele>
        <time>2019-02-24T09:52:53Z</time>
      </trkpt>
      <trkpt lat="46.5021520" lon="6.6918290">
        <ele>394.2</ele>
        <time>2019-02-24T09:52:54Z</time>
      </trkpt>
      <trkpt lat="46.5021540" lon="6.6918540">
        <ele>394.4</ele>
        <time>2019-02-24T09:52:55Z</time>
      </trkpt>
      <trkpt lat="46.5021570" lon="6.6918790">
        <ele>394.6</ele>
        <time>2019-02-24T09:52:56Z</time>
      </trkpt>
      <trkpt lat="46.5021620" lon="6.6919050">
        <ele>394.7</ele>
        <time>2019-02-24T09:52:57Z</time>
      </trkpt>
      <trkpt lat="46.5021680" lon="6.6919310">
        <ele>394.9</ele>
        <time>2019-02-24T09:52:58Z</time>
      </trkpt>
      <trkpt lat="46.5021760" lon="6.6919560">
        <ele>395.1</ele>
        <time>2019-02-24T09:52:59Z</time>
      </trkpt>
      <trkpt lat="46.5021850" lon="6.6919810">
        <ele>395.3</ele>
        <time>2019-02-24T09:53:00Z</time>
      </trkpt>
      <trkpt lat="46.5021940" lon="6.6920060">
        <ele>395.5</ele>
        <time>2019-02-24T09:53:01Z</time>
      </trkpt>
      <trkpt lat="46.5022030" lon="6.6920290">
        <ele>395.6</ele>
        <time>2019-02-24T09:53:02Z</time>
      </trkpt>
      <trkpt lat="46.5022120" lon="6.6920530">
        <ele>395.9</ele>
        <time>2019-02-24T09:53:03Z</time>
      </trkpt>
      <trkpt lat="46.5022210" lon="6.6920760">
        <ele>396.2</ele>
        <time>2019-02-24T09:53:04Z</time>
      </trkpt>
      <trkpt lat="46.5022310" lon="6.6920990">
        <ele>396.4</ele>
        <time>2019-02-24T09:53:05Z</time>
      </trkpt>
      <trkpt lat="46.5022400" lon="6.6921220">
        <ele>396.7</ele>
        <time>2019-02-24T09:53:06Z</time>
      </trkpt>
      <trkpt lat="46.5022490" lon="6.6921460">
        <ele>396.9</ele>
        <time>2019-02-24T09:53:07Z</time>
      </trkpt>
      <trkpt lat="46.5022590" lon="6.6921700">
        <ele>397.2</ele>
        <time>2019-02-24T09:53:08Z</time>
      </trkpt>
      <trkpt lat="46.5022680" lon="6.6921950">
        <ele>397.5</ele>
        <time>2019-02-24T09:53:09Z</time>
      </trkpt>
      <trkpt lat="46.5022770" lon="6.6922210">
        <ele>397.8</ele>
        <time>2019-02-24T09:53:10Z</time>
      </trkpt>
      <trkpt lat="46.5022870" lon="6.6922470">
        <ele>398.1</ele>
        <time>2019-02-24T09:53:11Z</time>
      </trkpt>
      <trkpt lat="46.5022960" lon="6.6922730">
        <ele>398.4</ele>
        <time>2019-02-24T09:53:12Z</time>
      </trkpt>
      <trkpt lat="46.5023050" lon="6.6923000">
        <ele>398.8</ele>
        <time>2019-02-24T09:53:13Z</time>
      </trkpt>
      <trkpt lat="46.5023140" lon="6.6923270">
        <ele>399.1</ele>
        <time>2019-02-24T09:53:14Z</time>
      </trkpt>
      <trkpt lat="46.5023230" lon="6.6923540">
        <ele>399.4</ele>
        <time>2019-02-24T09:53:15Z</time>
      </trkpt>
      <trkpt lat="46.5023330" lon="6.6923800">
        <ele>399.7</ele>
        <time>2019-02-24T09:53:16Z</time>
      </trkpt>
      <trkpt lat="46.5023420" lon="6.6924060">
        <ele>399.9</ele>
        <time>2019-02-24T09:53:17Z</time>
      </trkpt>
      <trkpt lat="46.5023510" lon="6.6924310">
        <ele>400.1</ele>
        <time>2019-02-24T09:53:18Z</time>
      </trkpt>
      <trkpt lat="46.5023600" lon="6.6924570">
        <ele>400.4</ele>
        <time>2019-02-24T09:53:19Z</time>
      </trkpt>
      <trkpt lat="46.5023690" lon="6.6924820">
        <ele>400.6</ele>
        <time>2019-02-24T09:53:20Z</time>
      </trkpt>
      <trkpt lat="46.5023780" lon="6.6925090">
        <ele>400.8</ele>
        <time>2019-02-24T09:53:21Z</time>
      </trkpt>
      <trkpt lat="46.5023880" lon="6.6925360">
        <ele>401.0</ele>
        <time>2019-02-24T09:53:22Z</time>
      </trkpt>
      <trkpt lat="46.5023980" lon="6.6925660">
        <ele>401.2</ele>
        <time>2019-02-24T09:53:23Z</time>
      </trkpt>
      <trkpt lat="46.5024080" lon="6.6925980">
        <ele>401.3</ele>
        <time>2019-02-24T09:53:24Z</time>
      </trkpt>
      <trkpt lat="46.5024190" lon="6.6926320">
        <ele>401.5</ele>
        <time>2019-02-24T09:53:25Z</time>
      </trkpt>
      <trkpt lat="46.5024310" lon="6.6926700">
        <ele>401.7</ele>
        <time>2019-02-24T09:53:26Z</time>
      </trkpt>
      <trkpt lat="46.5024430" lon="6.6927110">
        <ele>402.0</ele>
        <time>2019-02-24T09:53:27Z</time>
      </trkpt>
      <trkpt lat="46.5024550" lon="6.6927540">
        <ele>402.2</ele>
        <time>2019-02-24T09:53:28Z</time>
      </trkpt>
      <trkpt lat="46.5024680" lon="6.6928000">
        <ele>402.4</ele>
        <time>2019-02-24T09:53:29Z</time>
      </trkpt>
      <trkpt lat="46.5024900" lon="6.6928830">
        <ele>402.7</ele>
        <time>2019-02-24T09:53:30Z</time>
      </trkpt>
      <trkpt lat="46.5024990" lon="6.6929170">
        <ele>402.9</ele>
        <time>2019-02-24T09:53:31Z</time>
      </trkpt>
      <trkpt lat="46.5025080" lon="6.6929510">
        <ele>403.0</ele>
        <time>2019-02-24T09:53:32Z</time>
      </trkpt>
      <trkpt lat="46.5025210" lon="6.6930040">
        <ele>403.2</ele>
        <time>2019-02-24T09:53:33Z</time>
      </trkpt>
      <trkpt lat="46.5025340" lon="6.6930590">
        <ele>403.5</ele>
        <time>2019-02-24T09:53:34Z</time>
      </trkpt>
      <trkpt lat="46.5025470" lon="6.6931140">
        <ele>403.7</ele>
        <time>2019-02-24T09:53:35Z</time>
      </trkpt>
      <trkpt lat="46.5025580" lon="6.6931700">
        <ele>404.0</ele>
        <time>2019-02-24T09:53:36Z</time>
      </trkpt>
      <trkpt lat="46.5025680" lon="6.6932260">
        <ele>404.3</ele>
        <time>2019-02-24T09:53:37Z</time>
      </trkpt>
      <trkpt lat="46.5025750" lon="6.6932810">
        <ele>404.5</ele>
        <time>2019-02-24T09:53:38Z</time>
      </trkpt>
      <trkpt lat="46.5025800" lon="6.6933280">
        <ele>404.7</ele>
        <time>2019-02-24T09:53:39Z</time>
      </trkpt>
      <trkpt lat="46.5025820" lon="6.6933600">
        <ele>404.8</ele>
        <time>2019-02-24T09:53:40Z</time>
      </trkpt>
      <trkpt lat="46.5025790" lon="6.6933830">
        <ele>404.9</ele>
        <time>2019-02-24T09:53:41Z</time>
      </trkpt>
      <trkpt lat="46.5025700" lon="6.6934020">
        <ele>405.0</ele>
        <time>2019-02-24T09:53:42Z</time>
      </trkpt>
      <trkpt lat="46.5025530" lon="6.6934200">
        <ele>405.1</ele>
        <time>2019-02-24T09:53:43Z</time>
      </trkpt>
      <trkpt lat="46.5025310" lon="6.6934390">
        <ele>403.6</ele>
        <time>2019-02-24T09:53:44Z</time>
      </trkpt>
      <trkpt lat="46.5025040" lon="6.6934640">
        <ele>402.8</ele>
        <time>2019-02-24T09:53:45Z</time>
      </trkpt>
      <trkpt lat="46.5024720" lon="6.6934950">
        <ele>401.9</ele>
        <time>2019-02-24T09:53:46Z</time>
      </trkpt>
      <trkpt lat="46.5024370" lon="6.6935320">
        <ele>401.0</ele>
        <time>2019-02-24T09:53:47Z</time>
      </trkpt>
      <trkpt lat="46.5024020" lon="6.6935750">
        <ele>400.0</ele>
        <time>2019-02-24T09:53:48Z</time>
      </trkpt>
      <trkpt lat="46.5023670" lon="6.6936230">
        <ele>399.1</ele>
        <time>2019-02-24T09:53:49Z</time>
      </trkpt>
      <trkpt lat="46.5023360" lon="6.6936740">
        <ele>398.3</ele>
        <time>2019-02-24T09:53:50Z</time>
      </trkpt>
      <trkpt lat="46.5023070" lon="6.6937290">
        <ele>397.6</ele>
        <time>2019-02-24T09:53:51Z</time>
      </trkpt>
      <trkpt lat="46.5022810" lon="6.6937870">
        <ele>397.0</ele>
        <time>2019-02-24T09:53:52Z</time>
      </trkpt>
      <trkpt lat="46.5022580" lon="6.6938480">
        <ele>396.4</ele>
        <time>2019-02-24T09:53:53Z</time>
      </trkpt>
      <trkpt lat="46.5022380" lon="6.6939110">
        <ele>395.9</ele>
        <time>2019-02-24T09:53:54Z</time>
      </trkpt>
      <trkpt lat="46.5022200" lon="6.6939760">
        <ele>395.4</ele>
        <time>2019-02-24T09:53:55Z</time>
      </trkpt>
      <trkpt lat="46.5022040" lon="6.6940430">
        <ele>395.0</ele>
        <time>2019-02-24T09:53:56Z</time>
      </trkpt>
      <trkpt lat="46.5021910" lon="6.6941110">
        <ele>394.6</ele>
        <time>2019-02-24T09:53:57Z</time>
      </trkpt>
      <trkpt lat="46.5021790" lon="6.6941800">
        <ele>394.2</ele>
        <time>2019-02-24T09:53:58Z</time>
      </trkpt>
      <trkpt lat="46.5021700" lon="6.6942500">
        <ele>393.8</ele>
        <time>2019-02-24T09:53:59Z</time>
      </trkpt>
      <trkpt lat="46.5021610" lon="6.6943210">
        <ele>393.4</ele>
        <time>2019-02-24T09:54:00Z</time>
      </trkpt>
      <trkpt lat="46.5021540" lon="6.6943940">
        <ele>393.0</ele>
        <time>2019-02-24T09:54:01Z</time>
      </trkpt>
      <trkpt lat="46.5021480" lon="6.6944670">
        <ele>392.7</ele>
        <time>2019-02-24T09:54:02Z</time>
      </trkpt>
      <trkpt lat="46.5021420" lon="6.6945410">
        <ele>392.4</ele>
        <time>2019-02-24T09:54:03Z</time>
      </trkpt>
      <trkpt lat="46.5021360" lon="6.6946150">
        <ele>392.1</ele>
        <time>2019-02-24T09:54:04Z</time>
      </trkpt>
      <trkpt lat="46.5021260" lon="6.6947420">
        <ele>391.6</ele>
        <time>2019-02-24T09:54:05Z</time>
      </trkpt>
      <trkpt lat="46.5021210" lon="6.6947930">
        <ele>391.4</ele>
        <time>2019-02-24T09:54:06Z</time>
      </trkpt>
      <trkpt lat="46.5021170" lon="6.6948440">
        <ele>391.3</ele>
        <time>2019-02-24T09:54:07Z</time>
      </trkpt>
      <trkpt lat="46.5021090" lon="6.6949220">
        <ele>391.0</ele>
        <time>2019-02-24T09:54:08Z</time>
      </trkpt>
      <trkpt lat="46.5021010" lon="6.6950010">
        <ele>390.8</ele>
        <time>2019-02-24T09:54:09Z</time>
      </trkpt>
      <trkpt lat="46.5020850" lon="6.6951330">
        <ele>390.4</ele>
        <time>2019-02-24T09:54:10Z</time>
      </trkpt>
      <trkpt lat="46.5020790" lon="6.6951870">
        <ele>390.2</ele>
        <time>2019-02-24T09:54:11Z</time>
      </trkpt>
      <trkpt lat="46.5020720" lon="6.6952400">
        <ele>390.0</ele>
        <time>2019-02-24T09:54:12Z</time>
      </trkpt>
      <trkpt lat="46.5020620" lon="6.6953200">
        <ele>389.8</ele>
        <time>2019-02-24T09:54:13Z</time>
      </trkpt>
      <trkpt lat="46.5020500" lon="6.6954010">
        <ele>389.6</ele>
        <time>2019-02-24T09:54:14Z</time>
      </trkpt>
      <trkpt lat="46.5020380" lon="6.6954810">
        <ele>389.3</ele>
        <time>2019-02-24T09:54:15Z</time>
      </trkpt>
      <trkpt lat="46.5020240" lon="6.6955570">
        <ele>389.1</ele>
        <time>2019-02-24T09:54:16Z</time>
      </trkpt>
      <trkpt lat="46.5020100" lon="6.6956300">
        <ele>388.9</ele>
        <time>2019-02-24T09:54:17Z</time>
      </trkpt>
      <trkpt lat="46.5019940" lon="6.6956970">
        <ele>388.6</ele>
        <time>2019-02-24T09:54:18Z</time>
      </trkpt>
      <trkpt lat="46.5019770" lon="6.6957570">
        <ele>388.5</ele>
        <time>2019-02-24T09:54:19Z</time>
      </trkpt>
      <trkpt lat="46.5019590" lon="6.6958100">
        <ele>388.3</ele>
        <time>2019-02-24T09:54:20Z</time>
      </trkpt>
      <trkpt lat="46.5019400" lon="6.6958560">
        <ele>387.8</ele>
        <time>2019-02-24T09:54:21Z</time>
      </trkpt>
      <trkpt lat="46.5019200" lon="6.6958940">
        <ele>387.3</ele>
        <time>2019-02-24T09:54:22Z</time>
      </trkpt>
      <trkpt lat="46.5019010" lon="6.6959230">
        <ele>386.9</ele>
        <time>2019-02-24T09:54:23Z</time>
      </trkpt>
      <trkpt lat="46.5018830" lon="6.6959460">
        <ele>386.5</ele>
        <time>2019-02-24T09:54:24Z</time>
      </trkpt>
      <trkpt lat="46.5018680" lon="6.6959620">
        <ele>386.2</ele>
        <time>2019-02-24T09:54:25Z</time>
      </trkpt>
      <trkpt lat="46.5018540" lon="6.6959740">
        <ele>385.9</ele>
        <time>2019-02-24T09:54:26Z</time>
      </trkpt>
      <trkpt lat="46.5018510" lon="6.6959750">
        <ele>385.9</ele>
        <time>2019-02-24T09:54:27Z</time>
      </trkpt>
      <trkpt lat="46.5018480" lon="6.6959770">
        <ele>385.8</ele>
        <time>2019-02-24T09:54:28Z</time>
      </trkpt>
      <trkpt lat="46.5018450" lon="6.6959780">
        <ele>385.8</ele>
        <time>2019-02-24T09:54:29Z</time>
      </trkpt>
      <trkpt lat="46.5018420" lon="6.6959800">
        <ele>385.7</ele>
        <time>2019-02-24T09:54:30Z</time>
      </trkpt>
      <trkpt lat="46.5018410" lon="6.6959820">
        <ele>385.7</ele>
        <time>2019-02-24T09:54:31Z</time>
      </trkpt>
      <trkpt lat="46.5018400" lon="6.6959830">
        <ele>385.7</ele>
        <time>2019-02-24T09:54:32Z</time>
      </trkpt>
      <trkpt lat="46.5018390" lon="6.6959850">
        <ele>385.7</ele>
        <time>2019-02-24T09:54:33Z</time>
      </trkpt>
      <trkpt lat="46.5018330" lon="6.6959910">
        <ele>385.5</ele>
        <time>2019-02-24T09:54:34Z</time>
      </trkpt>
      <trkpt lat="46.5018250" lon="6.6959980">
        <ele>385.4</ele>
        <time>2019-02-24T09:54:35Z</time>
      </trkpt>
      <trkpt lat="46.5018160" lon="6.6960060">
        <ele>385.2</ele>
        <time>2019-02-24T09:54:36Z</time>
      </trkpt>
      <trkpt lat="46.5018080" lon="6.6960140">
        <ele>385.1</ele>
        <time>2019-02-24T09:54:37Z</time>
      </trkpt>
      <trkpt lat="46.5018020" lon="6.6960200">
        <ele>385.0</ele>
        <time>2019-02-24T09:54:38Z</time>
      </trkpt>
      <trkpt lat="46.5017980" lon="6.6960240">
        <ele>384.9</ele>
        <time>2019-02-24T09:54:39Z</time>
      </trkpt>
      <trkpt lat="46.5017940" lon="6.6960270">
        <ele>384.8</ele>
        <time>2019-02-24T09:54:40Z</time>
      </trkpt>
      <trkpt lat="46.5017920" lon="6.6960290">
        <ele>384.8</ele>
        <time>2019-02-24T09:54:41Z</time>
      </trkpt>
      <trkpt lat="46.5017920" lon="6.6960300">
        <ele>384.8</ele>
        <time>2019-02-24T09:54:42Z</time>
      </trkpt>
      <trkpt lat="46.5017910" lon="6.6960300">
        <ele>384.7</ele>
        <time>2019-02-24T09:54:43Z</time>
      </trkpt>
      <trkpt lat="46.5017910" lon="6.6960300">
        <ele>384.7</ele>
        <time>2019-02-24T09:54:44Z</time>
      </trkpt>
      <trkpt lat="46.5017920" lon="6.6960300">
        <ele>384.7</ele>
        <time>2019-02-24T09:54:45Z</time>
      </trkpt>
      <trkpt lat="46.5017920" lon="6.6960290">
        <ele>384.7</ele>
        <time>2019-02-24T09:54:46Z</time>
      </trkpt>
      <trkpt lat="46.5017920" lon="6.6960290">
        <ele>384.7</ele>
        <time>2019-02-24T09:54:47Z</time>
      </trkpt>
      <trkpt lat="46.5017920" lon="6.6960290">
        <ele>384.7</ele>
        <time>2019-02-24T09:54:48Z</time>
      </trkpt>
      <trkpt lat="46.5017930" lon="6.6960290">
        <ele>384.7</ele>
        <time>2019-02-24T09:54:49Z</time>
      </trkpt>
      <trkpt lat="46.5017930" lon="6.6960290">
        <ele>384.7</ele>
        <time>2019-02-24T09:54:50Z</time>
      </trkpt>
      <trkpt lat="46.5017930" lon="6.6960290">
        <ele>384.7</ele>
        <time>2019-02-24T09:54:51Z</time>
      </trkpt>
      <trkpt lat="46.5017930" lon="6.6960290">
        <ele>384.7</ele>
        <time>2019-02-24T09:54:52Z</time>
      </trkpt>
      <trkpt lat="46.5017930" lon="6.6960290">
        <ele>384.7</ele>
        <time>2019-02-24T09:54:53Z</time>
      </trkpt>
      <trkpt lat="46.5017930" lon="6.6960290">
        <ele>384.7</ele>
        <time>2019-02-24T09:54:54Z</time>
      </trkpt>
      <trkpt lat="46.5017930" lon="6.6960290">
        <ele>384.7</ele>
        <time>2019-02-24T09:54:55Z</time>
      </trkpt>
      <trkpt lat="46.5017920" lon="6.6960290">
        <ele>384.7</ele>
        <time>2019-02-24T09:54:56Z</time>
      </trkpt>
      <trkpt lat="46.5017920" lon="6.6960290">
        <ele>384.7</ele>
        <time>2019-02-24T09:54:57Z</time>
      </trkpt>
      <trkpt lat="46.5017920" lon="6.6960290">
        <ele>384.7</ele>
        <time>2019-02-24T09:54:58Z</time>
      </trkpt>
      <trkpt lat="46.5017920" lon="6.6960290">
        <ele>384.7</ele>
        <time>2019-02-24T09:54:59Z</time>
      </trkpt>
      <trkpt lat="46.5017920" lon="6.6960290">
        <ele>384.7</ele>
        <time>2019-02-24T09:55:00Z</time>
      </trkpt>
      <trkpt lat="46.5017920" lon="6.6960290">
        <ele>384.7</ele>
        <time>2019-02-24T09:55:01Z</time>
      </trkpt>
      <trkpt lat="46.5017920" lon="6.6960290">
        <ele>384.7</ele>
        <time>2019-02-24T09:55:02Z</time>
      </trkpt>
      <trkpt lat="46.5017920" lon="6.6960300">
        <ele>384.7</ele>
        <time>2019-02-24T09:55:03Z</time>
      </trkpt>
      <trkpt lat="46.5017930" lon="6.6960310">
        <ele>384.7</ele>
        <time>2019-02-24T09:55:04Z</time>
      </trkpt>
      <trkpt lat="46.5017940" lon="6.6960330">
        <ele>384.6</ele>
        <time>2019-02-24T09:55:05Z</time>
      </trkpt>
      <trkpt lat="46.5017970" lon="6.6960360">
        <ele>384.6</ele>
        <time>2019-02-24T09:55:06Z</time>
      </trkpt>
      <trkpt lat="46.5018000" lon="6.6960410">
        <ele>384.5</ele>
        <time>2019-02-24T09:55:07Z</time>
      </trkpt>
      <trkpt lat="46.5018040" lon="6.6960490">
        <ele>384.4</ele>
        <time>2019-02-24T09:55:08Z</time>
      </trkpt>
      <trkpt lat="46.5018100" lon="6.6960590">
        <ele>384.8</ele>
        <time>2019-02-24T09:55:09Z</time>
      </trkpt>
      <trkpt lat="46.5018180" lon="6.6960710">
        <ele>385.0</ele>
        <time>2019-02-24T09:55:10Z</time>
      </trkpt>
      <trkpt lat="46.5018270" lon="6.6960860">
        <ele>385.2</ele>
        <time>2019-02-24T09:55:11Z</time>
      </trkpt>
      <trkpt lat="46.5018370" lon="6.6961040">
        <ele>385.4</ele>
        <time>2019-02-24T09:55:12Z</time>
      </trkpt>
      <trkpt lat="46.5018500" lon="6.6961250">
        <ele>385.8</ele>
        <time>2019-02-24T09:55:13Z</time>
      </trkpt>
      <trkpt lat="46.5018630" lon="6.6961470">
        <ele>386.1</ele>
        <time>2019-02-24T09:55:14Z</time>
      </trkpt>
      <trkpt lat="46.5018780" lon="6.6961720">
        <ele>386.5</ele>
        <time>2019-02-24T09:55:15Z</time>
      </trkpt>
      <trkpt lat="46.5018950" lon="6.6961990">
        <ele>386.9</ele>
        <time>2019-02-24T09:55:16Z</time>
      </trkpt>
      <trkpt lat="46.5019130" lon="6.6962280">
        <ele>387.2</ele>
        <time>2019-02-24T09:55:17Z</time>
      </trkpt>
      <trkpt lat="46.5019320" lon="6.6962580">
        <ele>387.6</ele>
        <time>2019-02-24T09:55:18Z</time>
      </trkpt>
      <trkpt lat="46.5019520" lon="6.6962900">
        <ele>388.0</ele>
        <time>2019-02-24T09:55:19Z</time>
      </trkpt>
      <trkpt lat="46.5019730" lon="6.6963220">
        <ele>388.5</ele>
        <time>2019-02-24T09:55:20Z</time>
      </trkpt>
      <trkpt lat="46.5019930" lon="6.6963550">
        <ele>388.9</ele>
        <time>2019-02-24T09:55:21Z</time>
      </trkpt>
      <trkpt lat="46.5020120" lon="6.6963870">
        <ele>389.3</ele>
        <time>2019-02-24T09:55:22Z</time>
      </trkpt>
      <trkpt lat="46.5020300" lon="6.6964180">
        <ele>389.7</ele>
        <time>2019-02-24T09:55:23Z</time>
      </trkpt>
      <trkpt lat="46.5020460" lon="6.6964470">
        <ele>389.9</ele>
        <time>2019-02-24T09:55:24Z</time>
      </trkpt>
      <trkpt lat="46.5020590" lon="6.6964740">
        <ele>390.2</ele>
        <time>2019-02-24T09:55:25Z</time>
      </trkpt>
      <trkpt lat="46.5020750" lon="6.6965050">
        <ele>390.5</ele>
        <time>2019-02-24T09:55:26Z</time>
      </trkpt>
      <trkpt lat="46.5020800" lon="6.6965120">
        <ele>390.5</ele>
        <time>2019-02-24T09:55:27Z</time>
      </trkpt>
      <trkpt lat="46.5020850" lon="6.6965180">
        <ele>390.6</ele>
        <time>2019-02-24T09:55:28Z</time>
      </trkpt>
      <trkpt lat="46.5020900" lon="6.6965250">
        <ele>390.7</ele>
        <time>2019-02-24T09:55:29Z</time>
      </trkpt>
      <trkpt lat="46.5020950" lon="6.6965310">
        <ele>391.2</ele>
        <time>2019-02-24T09:55:30Z</time>
      </trkpt>
      <trkpt lat="46.5021000" lon="6.6965380">
        <ele>391.3</ele>
        <time>2019-02-24T09:55:31Z</time>
      </trkpt>
      <trkpt lat="46.5021050" lon="6.6965440">
        <ele>391.4</ele>
        <time>2019-02-24T09:55:32Z</time>
      </trkpt>
      <trkpt lat="46.5021100" lon="6.6965510">
        <ele>391.6</ele>
        <time>2019-02-24T09:55:33Z</time>
      </trkpt>
      <trkpt lat="46.5021150" lon="6.6965570">
        <ele>391.7</ele>
        <time>2019-02-24T09:55:34Z</time>
      </trkpt>
      <trkpt lat="46.5021200" lon="6.6965640">
        <ele>391.8</ele>
        <time>2019-02-24T09:55:35Z</time>
      </trkpt>
      <trkpt lat="46.5021230" lon="6.6965630">
        <ele>391.9</ele>
        <time>2019-02-24T09:55:36Z</time>
      </trkpt>
      <trkpt lat="46.5021240" lon="6.6965630">
        <ele>391.9</ele>
        <time>2019-02-24T09:55:37Z</time>
      </trkpt>
      <trkpt lat="46.5021250" lon="6.6965630">
        <ele>391.9</ele>
        <time>2019-02-24T09:55:38Z</time>
      </trkpt>
      <trkpt lat="46.5021250" lon="6.6965630">
        <ele>391.9</ele>
        <time>2019-02-24T09:55:39Z</time>
      </trkpt>
      <trkpt lat="46.5021250" lon="6.6965630">
        <ele>391.9</ele>
        <time>2019-02-24T09:55:40Z</time>
      </trkpt>
      <trkpt lat="46.5021240" lon="6.6965630">
        <ele>392.0</ele>
        <time>2019-02-24T09:55:41Z</time>
      </trkpt>
      <trkpt lat="46.5021230" lon="6.6965630">
        <ele>392.0</ele>
        <time>2019-02-24T09:55:42Z</time>
      </trkpt>
      <trkpt lat="46.5021230" lon="6.6965630">
        <ele>392.0</ele>
        <time>2019-02-24T09:55:43Z</time>
      </trkpt>
      <trkpt lat="46.5021230" lon="6.6965640">
        <ele>392.0</ele>
        <time>2019-02-24T09:55:44Z</time>
      </trkpt>
      <trkpt lat="46.5021230" lon="6.6965640">
        <ele>392.0</ele>
        <time>2019-02-24T09:55:45Z</time>
      </trkpt>
      <trkpt lat="46.5021230" lon="6.6965640">
        <ele>392.0</ele>
        <time>2019-02-24T09:55:46Z</time>
      </trkpt>
      <trkpt lat="46.5021230" lon="6.6965640">
        <ele>392.0</ele>
        <time>2019-02-24T09:55:47Z</time>
      </trkpt>
      <trkpt lat="46.5021230" lon="6.6965640">
        <ele>392.0</ele>
        <time>2019-02-24T09:55:48Z</time>
      </trkpt>
      <trkpt lat="46.5021240" lon="6.6965640">
        <ele>392.0</ele>
        <time>2019-02-24T09:55:49Z</time>
      </trkpt>
      <trkpt lat="46.5021240" lon="6.6965640">
        <ele>392.0</ele>
        <time>2019-02-24T09:55:50Z</time>
      </trkpt>
      <trkpt lat="46.5021240" lon="6.6965640">
        <ele>392.0</ele>
        <time>2019-02-24T09:55:51Z</time>
      </trkpt>
      <trkpt lat="46.5021240" lon="6.6965640">
        <ele>392.0</ele>
        <time>2019-02-24T09:55:52Z</time>
      </trkpt>
      <trkpt lat="46.5021240" lon="6.6965640">
        <ele>392.0</ele>
        <time>2019-02-24T09:55:53Z</time>
      </trkpt>
      <trkpt lat="46.5021240" lon="6.6965640">
        <ele>392.0</ele>
        <time>2019-02-24T09:55:54Z</time>
      </trkpt>
      <trkpt lat="46.5021240" lon="6.6965640">
        <ele>392.0</ele>
        <time>2019-02-24T09:55:55Z</time>
      </trkpt>
      <trkpt lat="46.5021240" lon="6.6965640">
        <ele>392.0</ele>
        <time>2019-02-24T09:55:56Z</time>
      </trkpt>
      <trkpt lat="46.5021240" lon="6.6965640">
        <ele>392.0</ele>
        <time>2019-02-24T09:55:57Z</time>
      </trkpt>
      <trkpt lat="46.5021240" lon="6.6965640">
        <ele>392.0</ele>
        <time>2019-02-24T09:55:58Z</time>
      </trkpt>
      <trkpt lat="46.5021240" lon="6.6965640">
        <ele>392.0</ele>
        <time>2019-02-24T09:55:59Z</time>
      </trkpt>
      <trkpt lat="46.5021240" lon="6.6965630">
        <ele>392.0</ele>
        <time>2019-02-24T09:56:00Z</time>
      </trkpt>
      <trkpt lat="46.5021240" lon="6.6965630">
        <ele>392.0</ele>
        <time>2019-02-24T09:56:01Z</time>
      </trkpt>
      <trkpt lat="46.5021250" lon="6.6965610">
        <ele>392.1</ele>
        <time>2019-02-24T09:56:02Z</time>
      </trkpt>
      <trkpt lat="46.5021270" lon="6.6965590">
        <ele>392.1</ele>
        <time>2019-02-24T09:56:03Z</time>
      </trkpt>
      <trkpt lat="46.5021290" lon="6.6965560">
        <ele>392.2</ele>
        <time>2019-02-24T09:56:04Z</time>
      </trkpt>
      <trkpt lat="46.5021330" lon="6.6965550">
        <ele>392.3</ele>
        <time>2019-02-24T09:56:05Z</time>
      </trkpt>
      <trkpt lat="46.5021380" lon="6.6965550">
        <ele>392.4</ele>
        <time>2019-02-24T09:56:06Z</time>
      </trkpt>
      <trkpt lat="46.5021470" lon="6.6965570">
        <ele>392.6</ele>
        <time>2019-02-24T09:56:07Z</time>
      </trkpt>
      <trkpt lat="46.5021580" lon="6.6965630">
        <ele>392.8</ele>
        <time>2019-02-24T09:56:08Z</time>
      </trkpt>
      <trkpt lat="46.5021700" lon="6.6965710">
        <ele>393.1</ele>
        <time>2019-02-24T09:56:09Z</time>
      </trkpt>
      <trkpt lat="46.5021850" lon="6.6965830">
        <ele>393.5</ele>
        <time>2019-02-24T09:56:10Z</time>
      </trkpt>
      <trkpt lat="46.5022000" lon="6.6965970">
        <ele>393.9</ele>
        <time>2019-02-24T09:56:11Z</time>
      </trkpt>
      <trkpt lat="46.5022170" lon="6.6966140">
        <ele>394.3</ele>
        <time>2019-02-24T09:56:12Z</time>
      </trkpt>
      <trkpt lat="46.5022350" lon="6.6966320">
        <ele>394.7</ele>
        <time>2019-02-24T09:56:13Z</time>
      </trkpt>
      <trkpt lat="46.5022530" lon="6.6966510">
        <ele>395.2</ele>
        <time>2019-02-24T09:56:14Z</time>
      </trkpt>
      <trkpt lat="46.5022820" lon="6.6966770">
        <ele>395.8</ele>
        <time>2019-02-24T09:56:15Z</time>
      </trkpt>
      <trkpt lat="46.5022910" lon="6.6966860">
        <ele>396.0</ele>
        <time>2019-02-24T09:56:16Z</time>
      </trkpt>
      <trkpt lat="46.5023100" lon="6.6967030">
        <ele>396.5</ele>
        <time>2019-02-24T09:56:17Z</time>
      </trkpt>
      <trkpt lat="46.5023290" lon="6.6967210">
        <ele>396.9</ele>
        <time>2019-02-24T09:56:18Z</time>
      </trkpt>
      <trkpt lat="46.5023490" lon="6.6967380">
        <ele>397.2</ele>
        <time>2019-02-24T09:56:19Z</time>
      </trkpt>
      <trkpt lat="46.5023670" lon="6.6967560">
        <ele>397.5</ele>
        <time>2019-02-24T09:56:20Z</time>
      </trkpt>
      <trkpt lat="46.5023860" lon="6.6967750">
        <ele>397.8</ele>
        <time>2019-02-24T09:56:21Z</time>
      </trkpt>
      <trkpt lat="46.5024040" lon="6.6967950">
        <ele>398.1</ele>
        <time>2019-02-24T09:56:22Z</time>
      </trkpt>
      <trkpt lat="46.5024210" lon="6.6968160">
        <ele>398.5</ele>
        <time>2019-02-24T09:56:23Z</time>
      </trkpt>
      <trkpt lat="46.5024370" lon="6.6968380">
        <ele>398.8</ele>
        <time>2019-02-24T09:56:24Z</time>
      </trkpt>
      <trkpt lat="46.5024520" lon="6.6968620">
        <ele>399.1</ele>
        <time>2019-02-24T09:56:25Z</time>
      </trkpt>
      <trkpt lat="46.5024660" lon="6.6968870">
        <ele>399.5</ele>
        <time>2019-02-24T09:56:26Z</time>
      </trkpt>
      <trkpt lat="46.5024800" lon="6.6969130">
        <ele>399.8</ele>
        <time>2019-02-24T09:56:27Z</time>
      </trkpt>
      <trkpt lat="46.5024920" lon="6.6969390">
        <ele>400.2</ele>
        <time>2019-02-24T09:56:28Z</time>
      </trkpt>
      <trkpt lat="46.5025040" lon="6.6969670">
        <ele>400.5</ele>
        <time>2019-02-24T09:56:29Z</time>
      </trkpt>
      <trkpt lat="46.5025140" lon="6.6969950">
        <ele>400.8</ele>
        <time>2019-02-24T09:56:30Z</time>
      </trkpt>
      <trkpt lat="46.5025240" lon="6.6970240">
        <ele>401.1</ele>
        <time>2019-02-24T09:56:31Z</time>
      </trkpt>
      <trkpt lat="46.5025320" lon="6.6970530">
        <ele>401.4</ele>
        <time>2019-02-24T09:56:32Z</time>
      </trkpt>
      <trkpt lat="46.5025400" lon="6.6970830">
        <ele>401.7</ele>
        <time>2019-02-24T09:56:33Z</time>
      </trkpt>
      <trkpt lat="46.5025460" lon="6.6971130">
        <ele>402.1</ele>
        <time>2019-02-24T09:56:34Z</time>
      </trkpt>
      <trkpt lat="46.5025510" lon="6.6971430">
        <ele>402.4</ele>
        <time>2019-02-24T09:56:35Z</time>
      </trkpt>
      <trkpt lat="46.5025550" lon="6.6971740">
        <ele>402.7</ele>
        <time>2019-02-24T09:56:36Z</time>
      </trkpt>
      <trkpt lat="46.5025580" lon="6.6972040">
        <ele>402.9</ele>
        <time>2019-02-24T09:56:37Z</time>
      </trkpt>
      <trkpt lat="46.5025600" lon="6.6972350">
        <ele>403.1</ele>
        <time>2019-02-24T09:56:38Z</time>
      </trkpt>
      <trkpt lat="46.5025600" lon="6.6972660">
        <ele>403.4</ele>
        <time>2019-02-24T09:56:39Z</time>
      </trkpt>
      <trkpt lat="46.5025590" lon="6.6972960">
        <ele>403.6</ele>
        <time>2019-02-24T09:56:40Z</time>
      </trkpt>
      <trkpt lat="46.5025580" lon="6.6973260">
        <ele>403.9</ele>
        <time>2019-02-24T09:56:41Z</time>
      </trkpt>
      <trkpt lat="46.5025550" lon="6.6973560">
        <ele>404.2</ele>
        <time>2019-02-24T09:56:42Z</time>
      </trkpt>
      <trkpt lat="46.5025510" lon="6.6973860">
        <ele>404.5</ele>
        <time>2019-02-24T09:56:43Z</time>
      </trkpt>
      <trkpt lat="46.5025460" lon="6.6974150">
        <ele>404.8</ele>
        <time>2019-02-24T09:56:44Z</time>
      </trkpt>
      <trkpt lat="46.5025400" lon="6.6974440">
        <ele>405.0</ele>
        <time>2019-02-24T09:56:45Z</time>
      </trkpt>
      <trkpt lat="46.5025330" lon="6.6974730">
        <ele>405.3</ele>
        <time>2019-02-24T09:56:46Z</time>
      </trkpt>
      <trkpt lat="46.5025250" lon="6.6975010">
        <ele>405.5</ele>
        <time>2019-02-24T09:56:47Z</time>
      </trkpt>
      <trkpt lat="46.5025170" lon="6.6975290">
        <ele>405.8</ele>
        <time>2019-02-24T09:56:48Z</time>
      </trkpt>
      <trkpt lat="46.5025010" lon="6.6975730">
        <ele>406.2</ele>
        <time>2019-02-24T09:56:49Z</time>
      </trkpt>
      <trkpt lat="46.5024940" lon="6.6975910">
        <ele>406.5</ele>
        <time>2019-02-24T09:56:50Z</time>
      </trkpt>
      <trkpt lat="46.5024870" lon="6.6976080">
        <ele>406.7</ele>
        <time>2019-02-24T09:56:51Z</time>
      </trkpt>
      <trkpt lat="46.5024750" lon="6.6976330">
        <ele>407.0</ele>
        <time>2019-02-24T09:56:52Z</time>
      </trkpt>
      <trkpt lat="46.5024640" lon="6.6976570">
        <ele>407.2</ele>
        <time>2019-02-24T09:56:53Z</time>
      </trkpt>
      <trkpt lat="46.5024510" lon="6.6976810">
        <ele>407.5</ele>
        <time>2019-02-24T09:56:54Z</time>
      </trkpt>
      <trkpt lat="46.5024380" lon="6.6977040">
        <ele>407.7</ele>
        <time>2019-02-24T09:56:55Z</time>
      </trkpt>
      <trkpt lat="46.5024250" lon="6.6977260">
        <ele>407.9</ele>
        <time>2019-02-24T09:56:56Z</time>
      </trkpt>
      <trkpt lat="46.5024110" lon="6.6977470">
        <ele>408.1</ele>
        <time>2019-02-24T09:56:57Z</time>
      </trkpt>
      <trkpt lat="46.5023970" lon="6.6977690">
        <ele>408.5</ele>
        <time>2019-02-24T09:56:58Z</time>
      </trkpt>
      <trkpt lat="46.5023830" lon="6.6977900">
        <ele>408.6</ele>
        <time>2019-02-24T09:56:59Z</time>
      </trkpt>
      <trkpt lat="46.5023680" lon="6.6978100">
        <ele>408.8</ele>
        <time>2019-02-24T09:57:00Z</time>
      </trkpt>
      <trkpt lat="46.5023540" lon="6.6978320">
        <ele>408.9</ele>
        <time>2019-02-24T09:57:01Z</time>
      </trkpt>
      <trkpt lat="46.5023390" lon="6.6978530">
        <ele>409.1</ele>
        <time>2019-02-24T09:57:02Z</time>
      </trkpt>
      <trkpt lat="46.5023250" lon="6.6978750">
        <ele>409.2</ele>
        <time>2019-02-24T09:57:03Z</time>
      </trkpt>
      <trkpt lat="46.5023110" lon="6.6978970">
        <ele>409.3</ele>
        <time>2019-02-24T09:57:04Z</time>
      </trkpt>
      <trkpt lat="46.5022970" lon="6.6979190">
        <ele>409.4</ele>
        <time>2019-02-24T09:57:05Z</time>
      </trkpt>
      <trkpt lat="46.5022820" lon="6.6979420">
        <ele>409.4</ele>
        <time>2019-02-24T09:57:06Z</time>
      </trkpt>
      <trkpt lat="46.5022680" lon="6.6979660">
        <ele>409.5</ele>
        <time>2019-02-24T09:57:07Z</time>
      </trkpt>
      <trkpt lat="46.5022540" lon="6.6979890">
        <ele>409.6</ele>
        <time>2019-02-24T09:57:08Z</time>
      </trkpt>
      <trkpt lat="46.5022400" lon="6.6980130">
        <ele>409.7</ele>
        <time>2019-02-24T09:57:09Z</time>
      </trkpt>
      <trkpt lat="46.5022260" lon="6.6980370">
        <ele>409.8</ele>
        <time>2019-02-24T09:57:10Z</time>
      </trkpt>
      <trkpt lat="46.5022120" lon="6.6980600">
        <ele>409.9</ele>
        <time>2019-02-24T09:57:11Z</time>
      </trkpt>
      <trkpt lat="46.5021970" lon="6.6980850">
        <ele>410.0</ele>
        <time>2019-02-24T09:57:12Z</time>
      </trkpt>
      <trkpt lat="46.5021830" lon="6.6981090">
        <ele>410.2</ele>
        <time>2019-02-24T09:57:13Z</time>
      </trkpt>
      <trkpt lat="46.5021690" lon="6.6981330">
        <ele>410.3</ele>
        <time>2019-02-24T09:57:14Z</time>
      </trkpt>
      <trkpt lat="46.5021550" lon="6.6981570">
        <ele>410.4</ele>
        <time>2019-02-24T09:57:15Z</time>
      </trkpt>
      <trkpt lat="46.5021400" lon="6.6981810">
        <ele>410.5</ele>
        <time>2019-02-24T09:57:16Z</time>
      </trkpt>
      <trkpt lat="46.5021260" lon="6.6982050">
        <ele>410.6</ele>
        <time>2019-02-24T09:57:17Z</time>
      </trkpt>
      <trkpt lat="46.5021110" lon="6.6982290">
        <ele>410.7</ele>
        <time>2019-02-24T09:57:18Z</time>
      </trkpt>
      <trkpt lat="46.5020970" lon="6.6982530">
        <ele>410.8</ele>
        <time>2019-02-24T09:57:19Z</time>
      </trkpt>
      <trkpt lat="46.5020820" lon="6.6982770">
        <ele>410.9</ele>
        <time>2019-02-24T09:57:20Z</time>
      </trkpt>
      <trkpt lat="46.5020670" lon="6.6983010">
        <ele>411.0</ele>
        <time>2019-02-24T09:57:21Z</time>
      </trkpt>
      <trkpt lat="46.5020530" lon="6.6983240">
        <ele>411.2</ele>
        <time>2019-02-24T09:57:22Z</time>
      </trkpt>
      <trkpt lat="46.5020380" lon="6.6983470">
        <ele>411.3</ele>
        <time>2019-02-24T09:57:23Z</time>
      </trkpt>
      <trkpt lat="46.5020230" lon="6.6983700">
        <ele>411.4</ele>
        <time>2019-02-24T09:57:24Z</time>
      </trkpt>
      <trkpt lat="46.5020080" lon="6.6983930">
        <ele>411.5</ele>
        <time>2019-02-24T09:57:25Z</time>
      </trkpt>
      <trkpt lat="46.5019920" lon="6.6984150">
        <ele>411.6</ele>
        <time>2019-02-24T09:57:26Z</time>
      </trkpt>
      <trkpt lat="46.5019770" lon="6.6984370">
        <ele>411.7</ele>
        <time>2019-02-24T09:57:27Z</time>
      </trkpt>
      <trkpt lat="46.5019620" lon="6.6984590">
        <ele>411.8</ele>
        <time>2019-02-24T09:57:28Z</time>
      </trkpt>
      <trkpt lat="46.5019460" lon="6.6984800">
        <ele>411.9</ele>
        <time>2019-02-24T09:57:29Z</time>
      </trkpt>
      <trkpt lat="46.5019310" lon="6.6985020">
        <ele>412.0</ele>
        <time>2019-02-24T09:57:30Z</time>
      </trkpt>
      <trkpt lat="46.5019150" lon="6.6985240">
        <ele>412.0</ele>
        <time>2019-02-24T09:57:31Z</time>
      </trkpt>
      <trkpt lat="46.5019000" lon="6.6985460">
        <ele>412.1</ele>
        <time>2019-02-24T09:57:32Z</time>
      </trkpt>
      <trkpt lat="46.5018850" lon="6.6985680">
        <ele>412.1</ele>
        <time>2019-02-24T09:57:33Z</time>
      </trkpt>
      <trkpt lat="46.5018700" lon="6.6985920">
        <ele>412.1</ele>
        <time>2019-02-24T09:57:34Z</time>
      </trkpt>
      <trkpt lat="46.5018560" lon="6.6986160">
        <ele>412.1</ele>
        <time>2019-02-24T09:57:35Z</time>
      </trkpt>
      <trkpt lat="46.5018420" lon="6.6986400">
        <ele>412.1</ele>
        <time>2019-02-24T09:57:36Z</time>
      </trkpt>
      <trkpt lat="46.5018280" lon="6.6986660">
        <ele>412.0</ele>
        <time>2019-02-24T09:57:37Z</time>
      </trkpt>
      <trkpt lat="46.5018150" lon="6.6986910">
        <ele>412.0</ele>
        <time>2019-02-24T09:57:38Z</time>
      </trkpt>
      <trkpt lat="46.5018010" lon="6.6987170">
        <ele>412.0</ele>
        <time>2019-02-24T09:57:39Z</time>
      </trkpt>
      <trkpt lat="46.5017880" lon="6.6987420">
        <ele>412.1</ele>
        <time>2019-02-24T09:57:40Z</time>
      </trkpt>
      <trkpt lat="46.5017760" lon="6.6987670">
        <ele>412.1</ele>
        <time>2019-02-24T09:57:41Z</time>
      </trkpt>
      <trkpt lat="46.5017630" lon="6.6987920">
        <ele>412.2</ele>
        <time>2019-02-24T09:57:42Z</time>
      </trkpt>
      <trkpt lat="46.5017510" lon="6.6988150">
        <ele>412.2</ele>
        <time>2019-02-24T09:57:43Z</time>
      </trkpt>
      <trkpt lat="46.5017390" lon="6.6988370">
        <ele>412.2</ele>
        <time>2019-02-24T09:57:44Z</time>
      </trkpt>
      <trkpt lat="46.5017270" lon="6.6988580">
        <ele>412.3</ele>
        <time>2019-02-24T09:57:45Z</time>
      </trkpt>
      <trkpt lat="46.5017140" lon="6.6988770">
        <ele>412.3</ele>
        <time>2019-02-24T09:57:46Z</time>
      </trkpt>
      <trkpt lat="46.5017000" lon="6.6988950">
        <ele>412.4</ele>
        <time>2019-02-24T09:57:47Z</time>
      </trkpt>
      <trkpt lat="46.5016860" lon="6.6989110">
        <ele>412.4</ele>
        <time>2019-02-24T09:57:48Z</time>
      </trkpt>
      <trkpt lat="46.5016720" lon="6.6989240">
        <ele>412.4</ele>
        <time>2019-02-24T09:57:49Z</time>
      </trkpt>
      <trkpt lat="46.5016590" lon="6.6989360">
        <ele>412.5</ele>
        <time>2019-02-24T09:57:50Z</time>
      </trkpt>
      <trkpt lat="46.5016490" lon="6.6989440">
        <ele>412.5</ele>
        <time>2019-02-24T09:57:51Z</time>
      </trkpt>
      <trkpt lat="46.5016440" lon="6.6989490">
        <ele>412.5</ele>
        <time>2019-02-24T09:57:52Z</time>
      </trkpt>
      <trkpt lat="46.5016410" lon="6.6989520">
        <ele>412.5</ele>
        <time>2019-02-24T09:57:53Z</time>
      </trkpt>
      <trkpt lat="46.5016410" lon="6.6989530">
        <ele>412.5</ele>
        <time>2019-02-24T09:57:54Z</time>
      </trkpt>
      <trkpt lat="46.5016420" lon="6.6989540">
        <ele>412.5</ele>
        <time>2019-02-24T09:57:55Z</time>
      </trkpt>
      <trkpt lat="46.5016420" lon="6.6989540">
        <ele>412.5</ele>
        <time>2019-02-24T09:57:56Z</time>
      </trkpt>
      <trkpt lat="46.5016420" lon="6.6989540">
        <ele>412.5</ele>
        <time>2019-02-24T09:57:57Z</time>
      </trkpt>
      <trkpt lat="46.5016420" lon="6.6989540">
        <ele>412.5</ele>
        <time>2019-02-24T09:57:58Z</time>
      </trkpt>
      <trkpt lat="46.5016420" lon="6.6989540">
        <ele>412.5</ele>
        <time>2019-02-24T09:57:59Z</time>
      </trkpt>
      <trkpt lat="46.5016420" lon="6.6989540">
        <ele>412.5</ele>
        <time>2019-02-24T09:58:00Z</time>
      </trkpt>
      <trkpt lat="46.5016420" lon="6.6989540">
        <ele>412.5</ele>
        <time>2019-02-24T09:58:01Z</time>
      </trkpt>
      <trkpt lat="46.5016420" lon="6.6989540">
        <ele>412.5</ele>
        <time>2019-02-24T09:58:02Z</time>
      </trkpt>
      <trkpt lat="46.5016420" lon="6.6989540">
        <ele>412.5</ele>
        <time>2019-02-24T09:58:03Z</time>
      </trkpt>
      <trkpt lat="46.5016420" lon="6.6989540">
        <ele>412.5</ele>
        <time>2019-02-24T09:58:04Z</time>
      </trkpt>
      <trkpt lat="46.5016420" lon="6.6989540">
        <ele>412.5</ele>
        <time>2019-02-24T09:58:05Z</time>
      </trkpt>
      <trkpt lat="46.5016420" lon="6.6989540">
        <ele>412.5</ele>
        <time>2019-02-24T09:58:06Z</time>
      </trkpt>
      <trkpt lat="46.5016420" lon="6.6989540">
        <ele>412.5</ele>
        <time>2019-02-24T09:58:07Z</time>
      </trkpt>
      <trkpt lat="46.5016420" lon="6.6989540">
        <ele>412.5</ele>
        <time>2019-02-24T09:58:08Z</time>
      </trkpt>
      <trkpt lat="46.5016420" lon="6.6989540">
        <ele>412.5</ele>
        <time>2019-02-24T09:58:09Z</time>
      </trkpt>
      <trkpt lat="46.5016420" lon="6.6989540">
        <ele>412.5</ele>
        <time>2019-02-24T09:58:10Z</time>
      </trkpt>
      <trkpt lat="46.5016420" lon="6.6989540">
        <ele>412.5</ele>
        <time>2019-02-24T09:58:11Z</time>
      </trkpt>
      <trkpt lat="46.5016420" lon="6.6989540">
        <ele>412.5</ele>
        <time>2019-02-24T09:58:12Z</time>
      </trkpt>
      <trkpt lat="46.5016420" lon="6.6989540">
        <ele>412.5</ele>
        <time>2019-02-24T09:58:13Z</time>
      </trkpt>
      <trkpt lat="46.5016420" lon="6.6989540">
        <ele>412.5</ele>
        <time>2019-02-24T09:58:14Z</time>
      </trkpt>
      <trkpt lat="46.5016420" lon="6.6989540">
        <ele>412.5</ele>
        <time>2019-02-24T09:58:15Z</time>
      </trkpt>
      <trkpt lat="46.5016420" lon="6.6989540">
        <ele>412.5</ele>
        <time>2019-02-24T09:58:16Z</time>
      </trkpt>
      <trkpt lat="46.5016420" lon="6.6989540">
        <ele>412.5</ele>
        <time>2019-02-24T09:58:17Z</time>
      </trkpt>
      <trkpt lat="46.5016420" lon="6.6989540">
        <ele>412.5</ele>
        <time>2019-02-24T09:58:18Z</time>
      </trkpt>
      <trkpt lat="46.5016420" lon="6.6989540">
        <ele>412.5</ele>
        <time>2019-02-24T09:58:19Z</time>
      </trkpt>
      <trkpt lat="46.5016420" lon="6.6989540">
        <ele>412.5</ele>
        <time>2019-02-24T09:58:20Z</time>
      </trkpt>
      <trkpt lat="46.5016420" lon="6.6989540">
        <ele>412.5</ele>
        <time>2019-02-24T09:58:21Z</time>
      </trkpt>
      <trkpt lat="46.5016420" lon="6.6989540">
        <ele>412.5</ele>
        <time>2019-02-24T09:58:22Z</time>
      </trkpt>
      <trkpt lat="46.5016420" lon="6.6989540">
        <ele>412.5</ele>
        <time>2019-02-24T09:58:23Z</time>
      </trkpt>
      <trkpt lat="46.5016420" lon="6.6989540">
        <ele>412.5</ele>
        <time>2019-02-24T09:58:24Z</time>
      </trkpt>
      <trkpt lat="46.5016420" lon="6.6989540">
        <ele>412.5</ele>
        <time>2019-02-24T09:58:25Z</time>
      </trkpt>
      <trkpt lat="46.5016420" lon="6.6989540">
        <ele>412.5</ele>
        <time>2019-02-24T09:58:26Z</time>
      </trkpt>
      <trkpt lat="46.5016420" lon="6.6989540">
        <ele>412.5</ele>
        <time>2019-02-24T09:58:27Z</time>
      </trkpt>
      <trkpt lat="46.5016420" lon="6.6989540">
        <ele>412.5</ele>
        <time>2019-02-24T09:58:28Z</time>
      </trkpt>
      <trkpt lat="46.5016420" lon="6.6989540">
        <ele>412.5</ele>
        <time>2019-02-24T09:58:29Z</time>
      </trkpt>
      <trkpt lat="46.5016420" lon="6.6989540">
        <ele>412.5</ele>
        <time>2019-02-24T09:58:30Z</time>
      </trkpt>
      <trkpt lat="46.5016420" lon="6.6989540">
        <ele>412.5</ele>
        <time>2019-02-24T09:58:31Z</time>
      </trkpt>
      <trkpt lat="46.5016420" lon="6.6989540">
        <ele>412.5</ele>
        <time>2019-02-24T09:58:32Z</time>
      </trkpt>
      <trkpt lat="46.5016420" lon="6.6989540">
        <ele>412.5</ele>
        <time>2019-02-24T09:58:33Z</time>
      </trkpt>
      <trkpt lat="46.5016420" lon="6.6989540">
        <ele>412.5</ele>
        <time>2019-02-24T09:58:34Z</time>
      </trkpt>
      <trkpt lat="46.5016420" lon="6.6989540">
        <ele>412.5</ele>
        <time>2019-02-24T09:58:35Z</time>
      </trkpt>
      <trkpt lat="46.5016420" lon="6.6989540">
        <ele>412.5</ele>
        <time>2019-02-24T09:58:36Z</time>
      </trkpt>
      <trkpt lat="46.5016420" lon="6.6989540">
        <ele>412.5</ele>
        <time>2019-02-24T09:58:37Z</time>
      </trkpt>
      <trkpt lat="46.5016420" lon="6.6989540">
        <ele>412.5</ele>
        <time>2019-02-24T09:58:38Z</time>
      </trkpt>
      <trkpt lat="46.5016420" lon="6.6989540">
        <ele>412.5</ele>
        <time>2019-02-24T09:58:39Z</time>
      </trkpt>
      <trkpt lat="46.5016420" lon="6.6989540">
        <ele>412.5</ele>
        <time>2019-02-24T09:58:40Z</time>
      </trkpt>
      <trkpt lat="46.5016420" lon="6.6989540">
        <ele>412.5</ele>
        <time>2019-02-24T09:58:41Z</time>
      </trkpt>
      <trkpt lat="46.5016420" lon="6.6989540">
        <ele>412.5</ele>
        <time>2019-02-24T09:58:42Z</time>
      </trkpt>
      <trkpt lat="46.5016420" lon="6.6989540">
        <ele>412.5</ele>
        <time>2019-02-24T09:58:43Z</time>
      </trkpt>
      <trkpt lat="46.5016420" lon="6.6989540">
        <ele>412.5</ele>
        <time>2019-02-24T09:58:44Z</time>
      </trkpt>
      <trkpt lat="46.5016420" lon="6.6989540">
        <ele>412.5</ele>
        <time>2019-02-24T09:58:45Z</time>
      </trkpt>
      <trkpt lat="46.5016420" lon="6.6989540">
        <ele>412.5</ele>
        <time>2019-02-24T09:58:46Z</time>
      </trkpt>
      <trkpt lat="46.5016420" lon="6.6989540">
        <ele>412.5</ele>
        <time>2019-02-24T09:58:47Z</time>
      </trkpt>
      <trkpt lat="46.5016420" lon="6.6989540">
        <ele>412.5</ele>
        <time>2019-02-24T09:58:48Z</time>
      </trkpt>
      <trkpt lat="46.5016420" lon="6.6989540">
        <ele>412.5</ele>
        <time>2019-02-24T09:58:49Z</time>
      </trkpt>
      <trkpt lat="46.5016420" lon="6.6989540">
        <ele>412.5</ele>
        <time>2019-02-24T09:58:50Z</time>
      </trkpt>
      <trkpt lat="46.5016420" lon="6.6989540">
        <ele>412.5</ele>
        <time>2019-02-24T09:58:51Z</time>
      </trkpt>
      <trkpt lat="46.5016420" lon="6.6989540">
        <ele>412.5</ele>
        <time>2019-02-24T09:58:52Z</time>
      </trkpt>
      <trkpt lat="46.5016420" lon="6.6989540">
        <ele>412.5</ele>
        <time>2019-02-24T09:58:53Z</time>
      </trkpt>
      <trkpt lat="46.5016420" lon="6.6989540">
        <ele>412.5</ele>
        <time>2019-02-24T09:58:54Z</time>
      </trkpt>
      <trkpt lat="46.5016420" lon="6.6989540">
        <ele>412.5</ele>
        <time>2019-02-24T09:58:55Z</time>
      </trkpt>
      <trkpt lat="46.5016420" lon="6.6989540">
        <ele>412.5</ele>
        <time>2019-02-24T09:58:56Z</time>
      </trkpt>
      <trkpt lat="46.5016420" lon="6.6989540">
        <ele>412.5</ele>
        <time>2019-02-24T09:58:57Z</time>
      </trkpt>
      <trkpt lat="46.5016420" lon="6.6989540">
        <ele>412.5</ele>
        <time>2019-02-24T09:58:58Z</time>
      </trkpt>
      <trkpt lat="46.5016420" lon="6.6989540">
        <ele>412.5</ele>
        <time>2019-02-24T09:58:59Z</time>
      </trkpt>
      <trkpt lat="46.5016420" lon="6.6989540">
        <ele>412.5</ele>
        <time>2019-02-24T09:59:00Z</time>
      </trkpt>
      <trkpt lat="46.5016420" lon="6.6989540">
        <ele>412.5</ele>
        <time>2019-02-24T09:59:01Z</time>
      </trkpt>
      <trkpt lat="46.5016420" lon="6.6989540">
        <ele>412.5</ele>
        <time>2019-02-24T09:59:02Z</time>
      </trkpt>
      <trkpt lat="46.5016420" lon="6.6989540">
        <ele>412.5</ele>
        <time>2019-02-24T09:59:03Z</time>
      </trkpt>
      <trkpt lat="46.5016420" lon="6.6989540">
        <ele>412.5</ele>
        <time>2019-02-24T09:59:04Z</time>
      </trkpt>
      <trkpt lat="46.5016420" lon="6.6989540">
        <ele>412.5</ele>
        <time>2019-02-24T09:59:05Z</time>
      </trkpt>
      <trkpt lat="46.5016420" lon="6.6989540">
        <ele>412.5</ele>
        <time>2019-02-24T09:59:06Z</time>
      </trkpt>
      <trkpt lat="46.5016420" lon="6.6989540">
        <ele>412.5</ele>
        <time>2019-02-24T09:59:07Z</time>
      </trkpt>
      <trkpt lat="46.5016420" lon="6.6989540">
        <ele>412.5</ele>
        <time>2019-02-24T09:59:08Z</time>
      </trkpt>
      <trkpt lat="46.5016420" lon="6.6989540">
        <ele>412.5</ele>
        <time>2019-02-24T09:59:09Z</time>
      </trkpt>
      <trkpt lat="46.5016420" lon="6.6989540">
        <ele>412.5</ele>
        <time>2019-02-24T09:59:10Z</time>
      </trkpt>
      <trkpt lat="46.5016420" lon="6.6989540">
        <ele>412.5</ele>
        <time>2019-02-24T09:59:11Z</time>
      </trkpt>
      <trkpt lat="46.5016420" lon="6.6989530">
        <ele>412.5</ele>
        <time>2019-02-24T09:59:12Z</time>
      </trkpt>
      <trkpt lat="46.5016420" lon="6.6989530">
        <ele>412.5</ele>
        <time>2019-02-24T09:59:13Z</time>
      </trkpt>
      <trkpt lat="46.5016410" lon="6.6989540">
        <ele>412.5</ele>
        <time>2019-02-24T09:59:14Z</time>
      </trkpt>
      <trkpt lat="46.5016400" lon="6.6989560">
        <ele>412.5</ele>
        <time>2019-02-24T09:59:15Z</time>
      </trkpt>
      <trkpt lat="46.5016390" lon="6.6989600">
        <ele>412.5</ele>
        <time>2019-02-24T09:59:16Z</time>
      </trkpt>
      <trkpt lat="46.5016380" lon="6.6989660">
        <ele>412.5</ele>
        <time>2019-02-24T09:59:17Z</time>
      </trkpt>
      <trkpt lat="46.5016360" lon="6.6989740">
        <ele>412.6</ele>
        <time>2019-02-24T09:59:18Z</time>
      </trkpt>
      <trkpt lat="46.5016330" lon="6.6989860">
        <ele>412.6</ele>
        <time>2019-02-24T09:59:19Z</time>
      </trkpt>
      <trkpt lat="46.5016300" lon="6.6990010">
        <ele>412.6</ele>
        <time>2019-02-24T09:59:20Z</time>
      </trkpt>
      <trkpt lat="46.5016260" lon="6.6990190">
        <ele>412.6</ele>
        <time>2019-02-24T09:59:21Z</time>
      </trkpt>
      <trkpt lat="46.5016210" lon="6.6990390">
        <ele>412.6</ele>
        <time>2019-02-24T09:59:22Z</time>
      </trkpt>
      <trkpt lat="46.5016160" lon="6.6990620">
        <ele>412.6</ele>
        <time>2019-02-24T09:59:23Z</time>
      </trkpt>
      <trkpt lat="46.5016090" lon="6.6990860">
        <ele>412.6</ele>
        <time>2019-02-24T09:59:24Z</time>
      </trkpt>
      <trkpt lat="46.5016010" lon="6.6991120">
        <ele>412.6</ele>
        <time>2019-02-24T09:59:25Z</time>
      </trkpt>
      <trkpt lat="46.5015920" lon="6.6991380">
        <ele>412.6</ele>
        <time>2019-02-24T09:59:26Z</time>
      </trkpt>
      <trkpt lat="46.5015820" lon="6.6991650">
        <ele>412.7</ele>
        <time>2019-02-24T09:59:27Z</time>
      </trkpt>
      <trkpt lat="46.5015710" lon="6.6991910">
        <ele>412.7</ele>
        <time>2019-02-24T09:59:28Z</time>
      </trkpt>
      <trkpt lat="46.5015580" lon="6.6992180">
        <ele>412.7</ele>
        <time>2019-02-24T09:59:29Z</time>
      </trkpt>
      <trkpt lat="46.5015440" lon="6.6992450">
        <ele>412.8</ele>
        <time>2019-02-24T09:59:30Z</time>
      </trkpt>
      <trkpt lat="46.5015300" lon="6.6992730">
        <ele>412.8</ele>
        <time>2019-02-24T09:59:31Z</time>
      </trkpt>
      <trkpt lat="46.5015150" lon="6.6993010">
        <ele>412.9</ele>
        <time>2019-02-24T09:59:32Z</time>
      </trkpt>
      <trkpt lat="46.5014990" lon="6.6993290">
        <ele>412.9</ele>
        <time>2019-02-24T09:59:33Z</time>
      </trkpt>
      <trkpt lat="46.5014820" lon="6.6993590">
        <ele>413.0</ele>
        <time>2019-02-24T09:59:34Z</time>
      </trkpt>
      <trkpt lat="46.5014660" lon="6.6993900">
        <ele>413.0</ele>
        <time>2019-02-24T09:59:35Z</time>
      </trkpt>
      <trkpt lat="46.5014490" lon="6.6994220">
        <ele>413.1</ele>
        <time>2019-02-24T09:59:36Z</time>
      </trkpt>
      <trkpt lat="46.5014330" lon="6.6994540">
        <ele>413.1</ele>
        <time>2019-02-24T09:59:37Z</time>
      </trkpt>
      <trkpt lat="46.5014160" lon="6.6994880">
        <ele>413.2</ele>
        <time>2019-02-24T09:59:38Z</time>
      </trkpt>
      <trkpt lat="46.5013990" lon="6.6995230">
        <ele>413.2</ele>
        <time>2019-02-24T09:59:39Z</time>
      </trkpt>
      <trkpt lat="46.5013820" lon="6.6995580">
        <ele>413.3</ele>
        <time>2019-02-24T09:59:40Z</time>
      </trkpt>
      <trkpt lat="46.5013650" lon="6.6995930">
        <ele>413.4</ele>
        <time>2019-02-24T09:59:41Z</time>
      </trkpt>
      <trkpt lat="46.5013480" lon="6.6996290">
        <ele>413.4</ele>
        <time>2019-02-24T09:59:42Z</time>
      </trkpt>
      <trkpt lat="46.5013320" lon="6.6996640">
        <ele>413.4</ele>
        <time>2019-02-24T09:59:43Z</time>
      </trkpt>
      <trkpt lat="46.5013150" lon="6.6997000">
        <ele>413.5</ele>
        <time>2019-02-24T09:59:44Z</time>
      </trkpt>
      <trkpt lat="46.5012980" lon="6.6997350">
        <ele>413.5</ele>
        <time>2019-02-24T09:59:45Z</time>
      </trkpt>
      <trkpt lat="46.5012820" lon="6.6997700">
        <ele>413.5</ele>
        <time>2019-02-24T09:59:46Z</time>
      </trkpt>
      <trkpt lat="46.5012650" lon="6.6998050">
        <ele>413.6</ele>
        <time>2019-02-24T09:59:47Z</time>
      </trkpt>
      <trkpt lat="46.5012480" lon="6.6998400">
        <ele>413.6</ele>
        <time>2019-02-24T09:59:48Z</time>
      </trkpt>
      <trkpt lat="46.5012320" lon="6.6998750">
        <ele>413.6</ele>
        <time>2019-02-24T09:59:49Z</time>
      </trkpt>
      <trkpt lat="46.5012150" lon="6.6999100">
        <ele>413.6</ele>
        <time>2019-02-24T09:59:50Z</time>
      </trkpt>
      <trkpt lat="46.5011970" lon="6.6999440">
        <ele>413.6</ele>
        <time>2019-02-24T09:59:51Z</time>
      </trkpt>
      <trkpt lat="46.5011800" lon="6.6999790">
        <ele>413.6</ele>
        <time>2019-02-24T09:59:52Z</time>
      </trkpt>
      <trkpt lat="46.5011620" lon="6.7000140">
        <ele>413.6</ele>
        <time>2019-02-24T09:59:53Z</time>
      </trkpt>
      <trkpt lat="46.5011440" lon="6.7000490">
        <ele>413.6</ele>
        <time>2019-02-24T09:59:54Z</time>
      </trkpt>
      <trkpt lat="46.5011260" lon="6.7000850">
        <ele>413.9</ele>
        <time>2019-02-24T09:59:55Z</time>
      </trkpt>
      <trkpt lat="46.5011080" lon="6.7001200">
        <ele>414.1</ele>
        <time>2019-02-24T09:59:56Z</time>
      </trkpt>
      <trkpt lat="46.5010900" lon="6.7001560">
        <ele>414.2</ele>
        <time>2019-02-24T09:59:57Z</time>
      </trkpt>
      <trkpt lat="46.5010710" lon="6.7001920">
        <ele>414.4</ele>
        <time>2019-02-24T09:59:58Z</time>
      </trkpt>
      <trkpt lat="46.5010530" lon="6.7002280">
        <ele>414.6</ele>
        <time>2019-02-24T09:59:59Z</time>
      </trkpt>
      <trkpt lat="46.5010350" lon="6.7002640">
        <ele>414.8</ele>
        <time>2019-02-24T10:00:00Z</time>
      </trkpt>
      <trkpt lat="46.5010170" lon="6.7003010">
        <ele>415.0</ele>
        <time>2019-02-24T10:00:01Z</time>
      </trkpt>
      <trkpt lat="46.5009990" lon="6.7003370">
        <ele>415.3</ele>
        <time>2019-02-24T10:00:02Z</time>
      </trkpt>
      <trkpt lat="46.5009810" lon="6.7003720">
        <ele>415.5</ele>
        <time>2019-02-24T10:00:03Z</time>
      </trkpt>
      <trkpt lat="46.5009620" lon="6.7004070">
        <ele>415.8</ele>
        <time>2019-02-24T10:00:04Z</time>
      </trkpt>
      <trkpt lat="46.5009420" lon="6.7004390">
        <ele>416.1</ele>
        <time>2019-02-24T10:00:05Z</time>
      </trkpt>
      <trkpt lat="46.5009210" lon="6.7004700">
        <ele>416.4</ele>
        <time>2019-02-24T10:00:06Z</time>
      </trkpt>
      <trkpt lat="46.5008990" lon="6.7004980">
        <ele>416.7</ele>
        <time>2019-02-24T10:00:07Z</time>
      </trkpt>
      <trkpt lat="46.5008740" lon="6.7005230">
        <ele>416.9</ele>
        <time>2019-02-24T10:00:08Z</time>
      </trkpt>
      <trkpt lat="46.5008480" lon="6.7005440">
        <ele>417.2</ele>
        <time>2019-02-24T10:00:09Z</time>
      </trkpt>
      <trkpt lat="46.5008200" lon="6.7005620">
        <ele>417.5</ele>
        <time>2019-02-24T10:00:10Z</time>
      </trkpt>
      <trkpt lat="46.5007910" lon="6.7005760">
        <ele>417.2</ele>
        <time>2019-02-24T10:00:11Z</time>
      </trkpt>
      <trkpt lat="46.5007610" lon="6.7005870">
        <ele>416.7</ele>
        <time>2019-02-24T10:00:12Z</time>
      </trkpt>
      <trkpt lat="46.5007310" lon="6.7005950">
        <ele>416.3</ele>
        <time>2019-02-24T10:00:13Z</time>
      </trkpt>
      <trkpt lat="46.5007000" lon="6.7006000">
        <ele>416.0</ele>
        <time>2019-02-24T10:00:14Z</time>
      </trkpt>
      <trkpt lat="46.5006690" lon="6.7006010">
        <ele>415.7</ele>
        <time>2019-02-24T10:00:15Z</time>
      </trkpt>
      <trkpt lat="46.5006390" lon="6.7006000">
        <ele>415.4</ele>
        <time>2019-02-24T10:00:16Z</time>
      </trkpt>
      <trkpt lat="46.5006090" lon="6.7005950">
        <ele>415.1</ele>
        <time>2019-02-24T10:00:17Z</time>
      </trkpt>
      <trkpt lat="46.5005810" lon="6.7005900">
        <ele>414.8</ele>
        <time>2019-02-24T10:00:18Z</time>
      </trkpt>
      <trkpt lat="46.5005530" lon="6.7005840">
        <ele>414.5</ele>
        <time>2019-02-24T10:00:19Z</time>
      </trkpt>
      <trkpt lat="46.5005250" lon="6.7005790">
        <ele>414.3</ele>
        <time>2019-02-24T10:00:20Z</time>
      </trkpt>
      <trkpt lat="46.5004980" lon="6.7005760">
        <ele>414.0</ele>
        <time>2019-02-24T10:00:21Z</time>
      </trkpt>
      <trkpt lat="46.5004700" lon="6.7005770">
        <ele>413.7</ele>
        <time>2019-02-24T10:00:22Z</time>
      </trkpt>
      <trkpt lat="46.5004420" lon="6.7005790">
        <ele>413.5</ele>
        <time>2019-02-24T10:00:23Z</time>
      </trkpt>
      <trkpt lat="46.5004140" lon="6.7005850">
        <ele>413.2</ele>
        <time>2019-02-24T10:00:24Z</time>
      </trkpt>
      <trkpt lat="46.5003850" lon="6.7005920">
        <ele>412.9</ele>
        <time>2019-02-24T10:00:25Z</time>
      </trkpt>
      <trkpt lat="46.5003570" lon="6.7006020">
        <ele>412.6</ele>
        <time>2019-02-24T10:00:26Z</time>
      </trkpt>
      <trkpt lat="46.5003290" lon="6.7006140">
        <ele>412.2</ele>
        <time>2019-02-24T10:00:27Z</time>
      </trkpt>
      <trkpt lat="46.5003040" lon="6.7006270">
        <ele>411.9</ele>
        <time>2019-02-24T10:00:28Z</time>
      </trkpt>
      <trkpt lat="46.5002820" lon="6.7006420">
        <ele>411.6</ele>
        <time>2019-02-24T10:00:29Z</time>
      </trkpt>
      <trkpt lat="46.5002620" lon="6.7006580">
        <ele>411.3</ele>
        <time>2019-02-24T10:00:30Z</time>
      </trkpt>
      <trkpt lat="46.5002430" lon="6.7006750">
        <ele>411.0</ele>
        <time>2019-02-24T10:00:31Z</time>
      </trkpt>
      <trkpt lat="46.5002250" lon="6.7006920">
        <ele>410.8</ele>
        <time>2019-02-24T10:00:32Z</time>
      </trkpt>
      <trkpt lat="46.5002050" lon="6.7007100">
        <ele>410.5</ele>
        <time>2019-02-24T10:00:33Z</time>
      </trkpt>
      <trkpt lat="46.5001850" lon="6.7007280">
        <ele>410.8</ele>
        <time>2019-02-24T10:00:34Z</time>
      </trkpt>
      <trkpt lat="46.5001640" lon="6.7007460">
        <ele>411.0</ele>
        <time>2019-02-24T10:00:35Z</time>
      </trkpt>
      <trkpt lat="46.5001430" lon="6.7007660">
        <ele>411.2</ele>
        <time>2019-02-24T10:00:36Z</time>
      </trkpt>
      <trkpt lat="46.5001210" lon="6.7007870">
        <ele>411.4</ele>
        <time>2019-02-24T10:00:37Z</time>
      </trkpt>
      <trkpt lat="46.5000980" lon="6.7008100">
        <ele>411.6</ele>
        <time>2019-02-24T10:00:38Z</time>
      </trkpt>
      <trkpt lat="46.5000750" lon="6.7008340">
        <ele>411.7</ele>
        <time>2019-02-24T10:00:39Z</time>
      </trkpt>
      <trkpt lat="46.5000530" lon="6.7008620">
        <ele>411.9</ele>
        <time>2019-02-24T10:00:40Z</time>
      </trkpt>
      <trkpt lat="46.5000300" lon="6.7008920">
        <ele>412.1</ele>
        <time>2019-02-24T10:00:41Z</time>
      </trkpt>
      <trkpt lat="46.5000060" lon="6.7009230">
        <ele>412.3</ele>
        <time>2019-02-24T10:00:42Z</time>
      </trkpt>
      <trkpt lat="46.4999830" lon="6.7009550">
        <ele>412.5</ele>
        <time>2019-02-24T10:00:43Z</time>
      </trkpt>
      <trkpt lat="46.4999600" lon="6.7009860">
        <ele>412.6</ele>
        <time>2019-02-24T10:00:44Z</time>
      </trkpt>
      <trkpt lat="46.4999370" lon="6.7010150">
        <ele>412.8</ele>
        <time>2019-02-24T10:00:45Z</time>
      </trkpt>
      <trkpt lat="46.4999140" lon="6.7010430">
        <ele>413.0</ele>
        <time>2019-02-24T10:00:46Z</time>
      </trkpt>
      <trkpt lat="46.4998910" lon="6.7010700">
        <ele>413.2</ele>
        <time>2019-02-24T10:00:47Z</time>
      </trkpt>
      <trkpt lat="46.4998680" lon="6.7010980">
        <ele>413.3</ele>
        <time>2019-02-24T10:00:48Z</time>
      </trkpt>
      <trkpt lat="46.4998450" lon="6.7011270">
        <ele>413.5</ele>
        <time>2019-02-24T10:00:49Z</time>
      </trkpt>
      <trkpt lat="46.4998230" lon="6.7011570">
        <ele>413.7</ele>
        <time>2019-02-24T10:00:50Z</time>
      </trkpt>
      <trkpt lat="46.4998010" lon="6.7011880">
        <ele>413.9</ele>
        <time>2019-02-24T10:00:51Z</time>
      </trkpt>
      <trkpt lat="46.4997800" lon="6.7012200">
        <ele>414.1</ele>
        <time>2019-02-24T10:00:52Z</time>
      </trkpt>
      <trkpt lat="46.4997600" lon="6.7012520">
        <ele>414.2</ele>
        <time>2019-02-24T10:00:53Z</time>
      </trkpt>
      <trkpt lat="46.4997400" lon="6.7012850">
        <ele>414.4</ele>
        <time>2019-02-24T10:00:54Z</time>
      </trkpt>
      <trkpt lat="46.4997210" lon="6.7013190">
        <ele>414.6</ele>
        <time>2019-02-24T10:00:55Z</time>
      </trkpt>
      <trkpt lat="46.4997020" lon="6.7013530">
        <ele>414.8</ele>
        <time>2019-02-24T10:00:56Z</time>
      </trkpt>
      <trkpt lat="46.4996850" lon="6.7013860">
        <ele>415.0</ele>
        <time>2019-02-24T10:00:57Z</time>
      </trkpt>
      <trkpt lat="46.4996680" lon="6.7014210">
        <ele>415.2</ele>
        <time>2019-02-24T10:00:58Z</time>
      </trkpt>
      <trkpt lat="46.4996520" lon="6.7014550">
        <ele>415.4</ele>
        <time>2019-02-24T10:00:59Z</time>
      </trkpt>
      <trkpt lat="46.4996370" lon="6.7014890">
        <ele>415.5</ele>
        <time>2019-02-24T10:01:00Z</time>
      </trkpt>
      <trkpt lat="46.4996220" lon="6.7015230">
        <ele>415.7</ele>
        <time>2019-02-24T10:01:01Z</time>
      </trkpt>
      <trkpt lat="46.4996080" lon="6.7015570">
        <ele>415.9</ele>
        <time>2019-02-24T10:01:02Z</time>
      </trkpt>
      <trkpt lat="46.4995940" lon="6.7015910">
        <ele>416.1</ele>
        <time>2019-02-24T10:01:03Z</time>
      </trkpt>
      <trkpt lat="46.4995810" lon="6.7016240">
        <ele>416.2</ele>
        <time>2019-02-24T10:01:04Z</time>
      </trkpt>
      <trkpt lat="46.4995680" lon="6.7016580">
        <ele>416.4</ele>
        <time>2019-02-24T10:01:05Z</time>
      </trkpt>
      <trkpt lat="46.4995550" lon="6.7016910">
        <ele>416.6</ele>
        <time>2019-02-24T10:01:06Z</time>
      </trkpt>
      <trkpt lat="46.4995430" lon="6.7017230">
        <ele>416.7</ele>
        <time>2019-02-24T10:01:07Z</time>
      </trkpt>
      <trkpt lat="46.4995310" lon="6.7017550">
        <ele>416.9</ele>
        <time>2019-02-24T10:01:08Z</time>
      </trkpt>
      <trkpt lat="46.4995200" lon="6.7017870">
        <ele>417.0</ele>
        <time>2019-02-24T10:01:09Z</time>
      </trkpt>
      <trkpt lat="46.4995090" lon="6.7018180">
        <ele>417.2</ele>
        <time>2019-02-24T10:01:10Z</time>
      </trkpt>
      <trkpt lat="46.4994980" lon="6.7018490">
        <ele>417.3</ele>
        <time>2019-02-24T10:01:11Z</time>
      </trkpt>
      <trkpt lat="46.4994870" lon="6.7018790">
        <ele>417.4</ele>
        <time>2019-02-24T10:01:12Z</time>
      </trkpt>
      <trkpt lat="46.4994770" lon="6.7019080">
        <ele>417.6</ele>
        <time>2019-02-24T10:01:13Z</time>
      </trkpt>
      <trkpt lat="46.4994680" lon="6.7019370">
        <ele>417.7</ele>
        <time>2019-02-24T10:01:14Z</time>
      </trkpt>
      <trkpt lat="46.4994590" lon="6.7019650">
        <ele>417.8</ele>
        <time>2019-02-24T10:01:15Z</time>
      </trkpt>
      <trkpt lat="46.4994500" lon="6.7019930">
        <ele>418.0</ele>
        <time>2019-02-24T10:01:16Z</time>
      </trkpt>
      <trkpt lat="46.4994420" lon="6.7020210">
        <ele>418.1</ele>
        <time>2019-02-24T10:01:17Z</time>
      </trkpt>
      <trkpt lat="46.4994340" lon="6.7020480">
        <ele>418.2</ele>
        <time>2019-02-24T10:01:18Z</time>
      </trkpt>
      <trkpt lat="46.4994270" lon="6.7020750">
        <ele>418.3</ele>
        <time>2019-02-24T10:01:19Z</time>
      </trkpt>
      <trkpt lat="46.4994210" lon="6.7021020">
        <ele>418.4</ele>
        <time>2019-02-24T10:01:20Z</time>
      </trkpt>
      <trkpt lat="46.4994160" lon="6.7021280">
        <ele>418.5</ele>
        <time>2019-02-24T10:01:21Z</time>
      </trkpt>
      <trkpt lat="46.4994110" lon="6.7021540">
        <ele>418.6</ele>
        <time>2019-02-24T10:01:22Z</time>
      </trkpt>
      <trkpt lat="46.4994070" lon="6.7021810">
        <ele>418.7</ele>
        <time>2019-02-24T10:01:23Z</time>
      </trkpt>
      <trkpt lat="46.4994050" lon="6.7022070">
        <ele>419.1</ele>
        <time>2019-02-24T10:01:24Z</time>
      </trkpt>
      <trkpt lat="46.4994030" lon="6.7022340">
        <ele>419.3</ele>
        <time>2019-02-24T10:01:25Z</time>
      </trkpt>
      <trkpt lat="46.4994020" lon="6.7022610">
        <ele>419.5</ele>
        <time>2019-02-24T10:01:26Z</time>
      </trkpt>
      <trkpt lat="46.4994020" lon="6.7022870">
        <ele>419.7</ele>
        <time>2019-02-24T10:01:27Z</time>
      </trkpt>
      <trkpt lat="46.4994030" lon="6.7023150">
        <ele>419.9</ele>
        <time>2019-02-24T10:01:28Z</time>
      </trkpt>
      <trkpt lat="46.4994050" lon="6.7023420">
        <ele>420.1</ele>
        <time>2019-02-24T10:01:29Z</time>
      </trkpt>
      <trkpt lat="46.4994080" lon="6.7023700">
        <ele>420.3</ele>
        <time>2019-02-24T10:01:30Z</time>
      </trkpt>
      <trkpt lat="46.4994110" lon="6.7023980">
        <ele>420.5</ele>
        <time>2019-02-24T10:01:31Z</time>
      </trkpt>
      <trkpt lat="46.4994140" lon="6.7024260">
        <ele>420.8</ele>
        <time>2019-02-24T10:01:32Z</time>
      </trkpt>
      <trkpt lat="46.4994180" lon="6.7024540">
        <ele>421.1</ele>
        <time>2019-02-24T10:01:33Z</time>
      </trkpt>
      <trkpt lat="46.4994200" lon="6.7024830">
        <ele>421.5</ele>
        <time>2019-02-24T10:01:34Z</time>
      </trkpt>
      <trkpt lat="46.4994220" lon="6.7025110">
        <ele>421.7</ele>
        <time>2019-02-24T10:01:35Z</time>
      </trkpt>
      <trkpt lat="46.4994220" lon="6.7025400">
        <ele>421.9</ele>
        <time>2019-02-24T10:01:36Z</time>
      </trkpt>
      <trkpt lat="46.4994210" lon="6.7025680">
        <ele>422.1</ele>
        <time>2019-02-24T10:01:37Z</time>
      </trkpt>
      <trkpt lat="46.4994180" lon="6.7025970">
        <ele>422.3</ele>
        <time>2019-02-24T10:01:38Z</time>
      </trkpt>
      <trkpt lat="46.4994130" lon="6.7026240">
        <ele>422.5</ele>
        <time>2019-02-24T10:01:39Z</time>
      </trkpt>
      <trkpt lat="46.4994070" lon="6.7026520">
        <ele>422.6</ele>
        <time>2019-02-24T10:01:40Z</time>
      </trkpt>
      <trkpt lat="46.4993990" lon="6.7026780">
        <ele>422.8</ele>
        <time>2019-02-24T10:01:41Z</time>
      </trkpt>
      <trkpt lat="46.4993900" lon="6.7027040">
        <ele>423.0</ele>
        <time>2019-02-24T10:01:42Z</time>
      </trkpt>
      <trkpt lat="46.4993790" lon="6.7027290">
        <ele>423.2</ele>
        <time>2019-02-24T10:01:43Z</time>
      </trkpt>
      <trkpt lat="46.4993660" lon="6.7027520">
        <ele>423.4</ele>
        <time>2019-02-24T10:01:44Z</time>
      </trkpt>
      <trkpt lat="46.4993520" lon="6.7027740">
        <ele>423.6</ele>
        <time>2019-02-24T10:01:45Z</time>
      </trkpt>
      <trkpt lat="46.4993360" lon="6.7027950">
        <ele>423.9</ele>
        <time>2019-02-24T10:01:46Z</time>
      </trkpt>
      <trkpt lat="46.4993200" lon="6.7028150">
        <ele>424.1</ele>
        <time>2019-02-24T10:01:47Z</time>
      </trkpt>
      <trkpt lat="46.4993030" lon="6.7028340">
        <ele>424.3</ele>
        <time>2019-02-24T10:01:48Z</time>
      </trkpt>
      <trkpt lat="46.4992850" lon="6.7028540">
        <ele>424.6</ele>
        <time>2019-02-24T10:01:49Z</time>
      </trkpt>
      <trkpt lat="46.4992670" lon="6.7028730">
        <ele>424.8</ele>
        <time>2019-02-24T10:01:50Z</time>
      </trkpt>
      <trkpt lat="46.4992500" lon="6.7028930">
        <ele>425.1</ele>
        <time>2019-02-24T10:01:51Z</time>
      </trkpt>
      <trkpt lat="46.4992330" lon="6.7029140">
        <ele>425.5</ele>
        <time>2019-02-24T10:01:52Z</time>
      </trkpt>
      <trkpt lat="46.4992170" lon="6.7029360">
        <ele>425.8</ele>
        <time>2019-02-24T10:01:53Z</time>
      </trkpt>
      <trkpt lat="46.4992020" lon="6.7029590">
        <ele>426.0</ele>
        <time>2019-02-24T10:01:54Z</time>
      </trkpt>
      <trkpt lat="46.4991880" lon="6.7029840">
        <ele>426.2</ele>
        <time>2019-02-24T10:01:55Z</time>
      </trkpt>
      <trkpt lat="46.4991750" lon="6.7030100">
        <ele>426.4</ele>
        <time>2019-02-24T10:01:56Z</time>
      </trkpt>
      <trkpt lat="46.4991630" lon="6.7030380">
        <ele>426.6</ele>
        <time>2019-02-24T10:01:57Z</time>
      </trkpt>
      <trkpt lat="46.4991530" lon="6.7030660">
        <ele>426.7</ele>
        <time>2019-02-24T10:01:58Z</time>
      </trkpt>
      <trkpt lat="46.4991430" lon="6.7030960">
        <ele>426.9</ele>
        <time>2019-02-24T10:01:59Z</time>
      </trkpt>
      <trkpt lat="46.4991340" lon="6.7031270">
        <ele>427.1</ele>
        <time>2019-02-24T10:02:00Z</time>
      </trkpt>
      <trkpt lat="46.4991260" lon="6.7031580">
        <ele>427.3</ele>
        <time>2019-02-24T10:02:01Z</time>
      </trkpt>
      <trkpt lat="46.4991190" lon="6.7031910">
        <ele>427.4</ele>
        <time>2019-02-24T10:02:02Z</time>
      </trkpt>
      <trkpt lat="46.4991130" lon="6.7032240">
        <ele>427.6</ele>
        <time>2019-02-24T10:02:03Z</time>
      </trkpt>
      <trkpt lat="46.4991070" lon="6.7032560">
        <ele>427.8</ele>
        <time>2019-02-24T10:02:04Z</time>
      </trkpt>
      <trkpt lat="46.4991020" lon="6.7032880">
        <ele>428.0</ele>
        <time>2019-02-24T10:02:05Z</time>
      </trkpt>
      <trkpt lat="46.4990960" lon="6.7033180">
        <ele>428.2</ele>
        <time>2019-02-24T10:02:06Z</time>
      </trkpt>
      <trkpt lat="46.4990900" lon="6.7033470">
        <ele>428.4</ele>
        <time>2019-02-24T10:02:07Z</time>
      </trkpt>
      <trkpt lat="46.4990840" lon="6.7033750">
        <ele>428.6</ele>
        <time>2019-02-24T10:02:08Z</time>
      </trkpt>
      <trkpt lat="46.4990760" lon="6.7034030">
        <ele>428.9</ele>
        <time>2019-02-24T10:02:09Z</time>
      </trkpt>
      <trkpt lat="46.4990690" lon="6.7034310">
        <ele>429.1</ele>
        <time>2019-02-24T10:02:10Z</time>
      </trkpt>
      <trkpt lat="46.4990600" lon="6.7034600">
        <ele>429.3</ele>
        <time>2019-02-24T10:02:11Z</time>
      </trkpt>
      <trkpt lat="46.4990510" lon="6.7034880">
        <ele>429.7</ele>
        <time>2019-02-24T10:02:12Z</time>
      </trkpt>
      <trkpt lat="46.4990400" lon="6.7035150">
        <ele>429.9</ele>
        <time>2019-02-24T10:02:13Z</time>
      </trkpt>
      <trkpt lat="46.4990300" lon="6.7035420">
        <ele>430.0</ele>
        <time>2019-02-24T10:02:14Z</time>
      </trkpt>
      <trkpt lat="46.4990180" lon="6.7035690">
        <ele>430.2</ele>
        <time>2019-02-24T10:02:15Z</time>
      </trkpt>
      <trkpt lat="46.4990070" lon="6.7035950">
        <ele>430.4</ele>
        <time>2019-02-24T10:02:16Z</time>
      </trkpt>
      <trkpt lat="46.4989940" lon="6.7036210">
        <ele>430.5</ele>
        <time>2019-02-24T10:02:17Z</time>
      </trkpt>
      <trkpt lat="46.4989820" lon="6.7036470">
        <ele>430.7</ele>
        <time>2019-02-24T10:02:18Z</time>
      </trkpt>
      <trkpt lat="46.4989700" lon="6.7036730">
        <ele>430.9</ele>
        <time>2019-02-24T10:02:19Z</time>
      </trkpt>
      <trkpt lat="46.4989580" lon="6.7036990">
        <ele>431.0</ele>
        <time>2019-02-24T10:02:20Z</time>
      </trkpt>
      <trkpt lat="46.4989460" lon="6.7037250">
        <ele>431.2</ele>
        <time>2019-02-24T10:02:21Z</time>
      </trkpt>
      <trkpt lat="46.4989340" lon="6.7037520">
        <ele>431.3</ele>
        <time>2019-02-24T10:02:22Z</time>
      </trkpt>
      <trkpt lat="46.4989230" lon="6.7037790">
        <ele>431.5</ele>
        <time>2019-02-24T10:02:23Z</time>
      </trkpt>
      <trkpt lat="46.4989120" lon="6.7038070">
        <ele>431.7</ele>
        <time>2019-02-24T10:02:24Z</time>
      </trkpt>
      <trkpt lat="46.4989020" lon="6.7038350">
        <ele>431.8</ele>
        <time>2019-02-24T10:02:25Z</time>
      </trkpt>
      <trkpt lat="46.4988930" lon="6.7038640">
        <ele>432.0</ele>
        <time>2019-02-24T10:02:26Z</time>
      </trkpt>
      <trkpt lat="46.4988840" lon="6.7038940">
        <ele>432.2</ele>
        <time>2019-02-24T10:02:27Z</time>
      </trkpt>
      <trkpt lat="46.4988760" lon="6.7039240">
        <ele>432.3</ele>
        <time>2019-02-24T10:02:28Z</time>
      </trkpt>
      <trkpt lat="46.4988690" lon="6.7039540">
        <ele>432.5</ele>
        <time>2019-02-24T10:02:29Z</time>
      </trkpt>
      <trkpt lat="46.4988620" lon="6.7039850">
        <ele>432.7</ele>
        <time>2019-02-24T10:02:30Z</time>
      </trkpt>
      <trkpt lat="46.4988550" lon="6.7040160">
        <ele>432.8</ele>
        <time>2019-02-24T10:02:31Z</time>
      </trkpt>
      <trkpt lat="46.4988490" lon="6.7040470">
        <ele>433.0</ele>
        <time>2019-02-24T10:02:32Z</time>
      </trkpt>
      <trkpt lat="46.4988430" lon="6.7040780">
        <ele>433.2</ele>
        <time>2019-02-24T10:02:33Z</time>
      </trkpt>
      <trkpt lat="46.4988370" lon="6.7041090">
        <ele>433.3</ele>
        <time>2019-02-24T10:02:34Z</time>
      </trkpt>
      <trkpt lat="46.4988310" lon="6.7041400">
        <ele>433.5</ele>
        <time>2019-02-24T10:02:35Z</time>
      </trkpt>
      <trkpt lat="46.4988250" lon="6.7041710">
        <ele>433.6</ele>
        <time>2019-02-24T10:02:36Z</time>
      </trkpt>
      <trkpt lat="46.4988190" lon="6.7042020">
        <ele>433.8</ele>
        <time>2019-02-24T10:02:37Z</time>
      </trkpt>
      <trkpt lat="46.4988140" lon="6.7042330">
        <ele>433.9</ele>
        <time>2019-02-24T10:02:38Z</time>
      </trkpt>
      <trkpt lat="46.4988080" lon="6.7042640">
        <ele>434.1</ele>
        <time>2019-02-24T10:02:39Z</time>
      </trkpt>
      <trkpt lat="46.4988020" lon="6.7042950">
        <ele>434.2</ele>
        <time>2019-02-24T10:02:40Z</time>
      </trkpt>
      <trkpt lat="46.4987960" lon="6.7043250">
        <ele>434.4</ele>
        <time>2019-02-24T10:02:41Z</time>
      </trkpt>
      <trkpt lat="46.4987900" lon="6.7043550">
        <ele>434.5</ele>
        <time>2019-02-24T10:02:42Z</time>
      </trkpt>
      <trkpt lat="46.4987840" lon="6.7043840">
        <ele>434.7</ele>
        <time>2019-02-24T10:02:43Z</time>
      </trkpt>
      <trkpt lat="46.4987780" lon="6.7044140">
        <ele>434.8</ele>
        <time>2019-02-24T10:02:44Z</time>
      </trkpt>
      <trkpt lat="46.4987710" lon="6.7044430">
        <ele>435.0</ele>
        <time>2019-02-24T10:02:45Z</time>
      </trkpt>
      <trkpt lat="46.4987650" lon="6.7044710">
        <ele>435.1</ele>
        <time>2019-02-24T10:02:46Z</time>
      </trkpt>
      <trkpt lat="46.4987580" lon="6.7044990">
        <ele>435.4</ele>
        <time>2019-02-24T10:02:47Z</time>
      </trkpt>
      <trkpt lat="46.4987500" lon="6.7045270">
        <ele>435.5</ele>
        <time>2019-02-24T10:02:48Z</time>
      </trkpt>
      <trkpt lat="46.4987430" lon="6.7045540">
        <ele>435.6</ele>
        <time>2019-02-24T10:02:49Z</time>
      </trkpt>
      <trkpt lat="46.4987350" lon="6.7045810">
        <ele>435.7</ele>
        <time>2019-02-24T10:02:50Z</time>
      </trkpt>
      <trkpt lat="46.4987260" lon="6.7046070">
        <ele>435.8</ele>
        <time>2019-02-24T10:02:51Z</time>
      </trkpt>
      <trkpt lat="46.4987170" lon="6.7046320">
        <ele>435.8</ele>
        <time>2019-02-24T10:02:52Z</time>
      </trkpt>
      <trkpt lat="46.4987080" lon="6.7046570">
        <ele>435.9</ele>
        <time>2019-02-24T10:02:53Z</time>
      </trkpt>
      <trkpt lat="46.4986990" lon="6.7046820">
        <ele>436.0</ele>
        <time>2019-02-24T10:02:54Z</time>
      </trkpt>
      <trkpt lat="46.4986890" lon="6.7047060">
        <ele>436.1</ele>
        <time>2019-02-24T10:02:55Z</time>
      </trkpt>
      <trkpt lat="46.4986780" lon="6.7047300">
        <ele>436.2</ele>
        <time>2019-02-24T10:02:56Z</time>
      </trkpt>
      <trkpt lat="46.4986670" lon="6.7047530">
        <ele>436.3</ele>
        <time>2019-02-24T10:02:57Z</time>
      </trkpt>
      <trkpt lat="46.4986560" lon="6.7047760">
        <ele>436.4</ele>
        <time>2019-02-24T10:02:58Z</time>
      </trkpt>
      <trkpt lat="46.4986440" lon="6.7047980">
        <ele>436.5</ele>
        <time>2019-02-24T10:02:59Z</time>
      </trkpt>
      <trkpt lat="46.4986320" lon="6.7048200">
        <ele>436.6</ele>
        <time>2019-02-24T10:03:00Z</time>
      </trkpt>
      <trkpt lat="46.4986200" lon="6.7048420">
        <ele>436.7</ele>
        <time>2019-02-24T10:03:01Z</time>
      </trkpt>
      <trkpt lat="46.4986070" lon="6.7048640">
        <ele>436.8</ele>
        <time>2019-02-24T10:03:02Z</time>
      </trkpt>
      <trkpt lat="46.4985940" lon="6.7048850">
        <ele>436.9</ele>
        <time>2019-02-24T10:03:03Z</time>
      </trkpt>
      <trkpt lat="46.4985800" lon="6.7049050">
        <ele>437.0</ele>
        <time>2019-02-24T10:03:04Z</time>
      </trkpt>
      <trkpt lat="46.4985660" lon="6.7049260">
        <ele>437.1</ele>
        <time>2019-02-24T10:03:05Z</time>
      </trkpt>
      <trkpt lat="46.4985510" lon="6.7049460">
        <ele>437.2</ele>
        <time>2019-02-24T10:03:06Z</time>
      </trkpt>
      <trkpt lat="46.4985360" lon="6.7049660">
        <ele>437.2</ele>
        <time>2019-02-24T10:03:07Z</time>
      </trkpt>
      <trkpt lat="46.4985210" lon="6.7049860">
        <ele>437.3</ele>
        <time>2019-02-24T10:03:08Z</time>
      </trkpt>
      <trkpt lat="46.4985050" lon="6.7050050">
        <ele>437.3</ele>
        <time>2019-02-24T10:03:09Z</time>
      </trkpt>
      <trkpt lat="46.4984890" lon="6.7050250">
        <ele>437.4</ele>
        <time>2019-02-24T10:03:10Z</time>
      </trkpt>
      <trkpt lat="46.4984730" lon="6.7050440">
        <ele>437.4</ele>
        <time>2019-02-24T10:03:11Z</time>
      </trkpt>
      <trkpt lat="46.4984560" lon="6.7050620">
        <ele>437.5</ele>
        <time>2019-02-24T10:03:12Z</time>
      </trkpt>
      <trkpt lat="46.4984390" lon="6.7050810">
        <ele>437.5</ele>
        <time>2019-02-24T10:03:13Z</time>
      </trkpt>
      <trkpt lat="46.4984220" lon="6.7050990">
        <ele>437.5</ele>
        <time>2019-02-24T10:03:14Z</time>
      </trkpt>
      <trkpt lat="46.4984050" lon="6.7051170">
        <ele>437.5</ele>
        <time>2019-02-24T10:03:15Z</time>
      </trkpt>
      <trkpt lat="46.4983870" lon="6.7051340">
        <ele>437.5</ele>
        <time>2019-02-24T10:03:16Z</time>
      </trkpt>
      <trkpt lat="46.4983700" lon="6.7051520">
        <ele>437.5</ele>
        <time>2019-02-24T10:03:17Z</time>
      </trkpt>
      <trkpt lat="46.4983520" lon="6.7051690">
        <ele>437.5</ele>
        <time>2019-02-24T10:03:18Z</time>
      </trkpt>
      <trkpt lat="46.4983340" lon="6.7051860">
        <ele>437.5</ele>
        <time>2019-02-24T10:03:19Z</time>
      </trkpt>
      <trkpt lat="46.4983160" lon="6.7052020">
        <ele>437.5</ele>
        <time>2019-02-24T10:03:20Z</time>
      </trkpt>
      <trkpt lat="46.4982980" lon="6.7052190">
        <ele>437.5</ele>
        <time>2019-02-24T10:03:21Z</time>
      </trkpt>
      <trkpt lat="46.4982800" lon="6.7052350">
        <ele>437.5</ele>
        <time>2019-02-24T10:03:22Z</time>
      </trkpt>
      <trkpt lat="46.4982620" lon="6.7052510">
        <ele>437.5</ele>
        <time>2019-02-24T10:03:23Z</time>
      </trkpt>
      <trkpt lat="46.4982440" lon="6.7052660">
        <ele>437.5</ele>
        <time>2019-02-24T10:03:24Z</time>
      </trkpt>
      <trkpt lat="46.4982270" lon="6.7052820">
        <ele>437.5</ele>
        <time>2019-02-24T10:03:25Z</time>
      </trkpt>
      <trkpt lat="46.4982090" lon="6.7052980">
        <ele>437.5</ele>
        <time>2019-02-24T10:03:26Z</time>
      </trkpt>
      <trkpt lat="46.4981910" lon="6.7053140">
        <ele>437.4</ele>
        <time>2019-02-24T10:03:27Z</time>
      </trkpt>
      <trkpt lat="46.4981740" lon="6.7053300">
        <ele>437.4</ele>
        <time>2019-02-24T10:03:28Z</time>
      </trkpt>
      <trkpt lat="46.4981560" lon="6.7053460">
        <ele>437.4</ele>
        <time>2019-02-24T10:03:29Z</time>
      </trkpt>
      <trkpt lat="46.4981390" lon="6.7053630">
        <ele>437.3</ele>
        <time>2019-02-24T10:03:30Z</time>
      </trkpt>
      <trkpt lat="46.4981220" lon="6.7053800">
        <ele>437.3</ele>
        <time>2019-02-24T10:03:31Z</time>
      </trkpt>
      <trkpt lat="46.4981050" lon="6.7053980">
        <ele>437.3</ele>
        <time>2019-02-24T10:03:32Z</time>
      </trkpt>
      <trkpt lat="46.4980880" lon="6.7054160">
        <ele>437.2</ele>
        <time>2019-02-24T10:03:33Z</time>
      </trkpt>
      <trkpt lat="46.4980720" lon="6.7054350">
        <ele>437.2</ele>
        <time>2019-02-24T10:03:34Z</time>
      </trkpt>
      <trkpt lat="46.4980560" lon="6.7054540">
        <ele>437.2</ele>
        <time>2019-02-24T10:03:35Z</time>
      </trkpt>
      <trkpt lat="46.4980400" lon="6.7054750">
        <ele>437.1</ele>
        <time>2019-02-24T10:03:36Z</time>
      </trkpt>
      <trkpt lat="46.4980240" lon="6.7054960">
        <ele>437.1</ele>
        <time>2019-02-24T10:03:37Z</time>
      </trkpt>
      <trkpt lat="46.4980090" lon="6.7055180">
        <ele>437.0</ele>
        <time>2019-02-24T10:03:38Z</time>
      </trkpt>
      <trkpt lat="46.4979940" lon="6.7055410">
        <ele>437.0</ele>
        <time>2019-02-24T10:03:39Z</time>
      </trkpt>
      <trkpt lat="46.4979800" lon="6.7055650">
        <ele>436.9</ele>
        <time>2019-02-24T10:03:40Z</time>
      </trkpt>
      <trkpt lat="46.4979660" lon="6.7055890">
        <ele>436.9</ele>
        <time>2019-02-24T10:03:41Z</time>
      </trkpt>
      <trkpt lat="46.4979540" lon="6.7056150">
        <ele>436.9</ele>
        <time>2019-02-24T10:03:42Z</time>
      </trkpt>
      <trkpt lat="46.4979410" lon="6.7056400">
        <ele>436.8</ele>
        <time>2019-02-24T10:03:43Z</time>
      </trkpt>
      <trkpt lat="46.4979300" lon="6.7056670">
        <ele>436.8</ele>
        <time>2019-02-24T10:03:44Z</time>
      </trkpt>
      <trkpt lat="46.4979200" lon="6.7056940">
        <ele>436.7</ele>
        <time>2019-02-24T10:03:45Z</time>
      </trkpt>
      <trkpt lat="46.4979110" lon="6.7057210">
        <ele>436.7</ele>
        <time>2019-02-24T10:03:46Z</time>
      </trkpt>
      <trkpt lat="46.4979030" lon="6.7057490">
        <ele>436.9</ele>
        <time>2019-02-24T10:03:47Z</time>
      </trkpt>
      <trkpt lat="46.4978960" lon="6.7057770">
        <ele>437.0</ele>
        <time>2019-02-24T10:03:48Z</time>
      </trkpt>
      <trkpt lat="46.4978890" lon="6.7058060">
        <ele>437.2</ele>
        <time>2019-02-24T10:03:49Z</time>
      </trkpt>
      <trkpt lat="46.4978840" lon="6.7058340">
        <ele>437.3</ele>
        <time>2019-02-24T10:03:50Z</time>
      </trkpt>
      <trkpt lat="46.4978790" lon="6.7058630">
        <ele>437.4</ele>
        <time>2019-02-24T10:03:51Z</time>
      </trkpt>
      <trkpt lat="46.4978740" lon="6.7058920">
        <ele>437.6</ele>
        <time>2019-02-24T10:03:52Z</time>
      </trkpt>
      <trkpt lat="46.4978700" lon="6.7059220">
        <ele>437.7</ele>
        <time>2019-02-24T10:03:53Z</time>
      </trkpt>
      <trkpt lat="46.4978660" lon="6.7059510">
        <ele>437.9</ele>
        <time>2019-02-24T10:03:54Z</time>
      </trkpt>
      <trkpt lat="46.4978630" lon="6.7059810">
        <ele>438.1</ele>
        <time>2019-02-24T10:03:55Z</time>
      </trkpt>
      <trkpt lat="46.4978600" lon="6.7060100">
        <ele>438.3</ele>
        <time>2019-02-24T10:03:56Z</time>
      </trkpt>
      <trkpt lat="46.4978580" lon="6.7060400">
        <ele>438.5</ele>
        <time>2019-02-24T10:03:57Z</time>
      </trkpt>
      <trkpt lat="46.4978570" lon="6.7060710">
        <ele>438.7</ele>
        <time>2019-02-24T10:03:58Z</time>
      </trkpt>
      <trkpt lat="46.4978560" lon="6.7061010">
        <ele>438.9</ele>
        <time>2019-02-24T10:03:59Z</time>
      </trkpt>
      <trkpt lat="46.4978570" lon="6.7061330">
        <ele>439.2</ele>
        <time>2019-02-24T10:04:00Z</time>
      </trkpt>
      <trkpt lat="46.4978580" lon="6.7061640">
        <ele>439.5</ele>
        <time>2019-02-24T10:04:01Z</time>
      </trkpt>
      <trkpt lat="46.4978610" lon="6.7061970">
        <ele>439.7</ele>
        <time>2019-02-24T10:04:02Z</time>
      </trkpt>
      <trkpt lat="46.4978650" lon="6.7062290">
        <ele>440.1</ele>
        <time>2019-02-24T10:04:03Z</time>
      </trkpt>
      <trkpt lat="46.4978700" lon="6.7062610">
        <ele>440.4</ele>
        <time>2019-02-24T10:04:04Z</time>
      </trkpt>
      <trkpt lat="46.4978750" lon="6.7062890">
        <ele>440.7</ele>
        <time>2019-02-24T10:04:05Z</time>
      </trkpt>
      <trkpt lat="46.4978790" lon="6.7063130">
        <ele>440.9</ele>
        <time>2019-02-24T10:04:06Z</time>
      </trkpt>
      <trkpt lat="46.4978820" lon="6.7063310">
        <ele>441.2</ele>
        <time>2019-02-24T10:04:07Z</time>
      </trkpt>
      <trkpt lat="46.4978840" lon="6.7063440">
        <ele>441.3</ele>
        <time>2019-02-24T10:04:08Z</time>
      </trkpt>
      <trkpt lat="46.4978850" lon="6.7063520">
        <ele>441.4</ele>
        <time>2019-02-24T10:04:09Z</time>
      </trkpt>
      <trkpt lat="46.4978860" lon="6.7063580">
        <ele>441.5</ele>
        <time>2019-02-24T10:04:10Z</time>
      </trkpt>
      <trkpt lat="46.4978860" lon="6.7063630">
        <ele>441.5</ele>
        <time>2019-02-24T10:04:11Z</time>
      </trkpt>
      <trkpt lat="46.4978860" lon="6.7063660">
        <ele>441.6</ele>
        <time>2019-02-24T10:04:12Z</time>
      </trkpt>
      <trkpt lat="46.4978860" lon="6.7063680">
        <ele>441.6</ele>
        <time>2019-02-24T10:04:13Z</time>
      </trkpt>
      <trkpt lat="46.4978870" lon="6.7063700">
        <ele>441.6</ele>
        <time>2019-02-24T10:04:14Z</time>
      </trkpt>
      <trkpt lat="46.4978870" lon="6.7063710">
        <ele>441.6</ele>
        <time>2019-02-24T10:04:15Z</time>
      </trkpt>
      <trkpt lat="46.4978870" lon="6.7063710">
        <ele>441.6</ele>
        <time>2019-02-24T10:04:16Z</time>
      </trkpt>
      <trkpt lat="46.4978860" lon="6.7063710">
        <ele>441.7</ele>
        <time>2019-02-24T10:04:17Z</time>
      </trkpt>
      <trkpt lat="46.4978860" lon="6.7063710">
        <ele>441.7</ele>
        <time>2019-02-24T10:04:18Z</time>
      </trkpt>
      <trkpt lat="46.4978860" lon="6.7063710">
        <ele>441.7</ele>
        <time>2019-02-24T10:04:19Z</time>
      </trkpt>
      <trkpt lat="46.4978860" lon="6.7063710">
        <ele>441.7</ele>
        <time>2019-02-24T10:04:20Z</time>
      </trkpt>
      <trkpt lat="46.4978860" lon="6.7063710">
        <ele>441.7</ele>
        <time>2019-02-24T10:04:21Z</time>
      </trkpt>
      <trkpt lat="46.4978860" lon="6.7063710">
        <ele>441.7</ele>
        <time>2019-02-24T10:04:22Z</time>
      </trkpt>
      <trkpt lat="46.4978870" lon="6.7063710">
        <ele>441.7</ele>
        <time>2019-02-24T10:04:23Z</time>
      </trkpt>
      <trkpt lat="46.4978870" lon="6.7063710">
        <ele>441.7</ele>
        <time>2019-02-24T10:04:24Z</time>
      </trkpt>
      <trkpt lat="46.4978870" lon="6.7063710">
        <ele>441.7</ele>
        <time>2019-02-24T10:04:25Z</time>
      </trkpt>
      <trkpt lat="46.4978870" lon="6.7063710">
        <ele>441.7</ele>
        <time>2019-02-24T10:04:26Z</time>
      </trkpt>
      <trkpt lat="46.4978870" lon="6.7063710">
        <ele>441.7</ele>
        <time>2019-02-24T10:04:27Z</time>
      </trkpt>
      <trkpt lat="46.4978870" lon="6.7063710">
        <ele>441.7</ele>
        <time>2019-02-24T10:04:28Z</time>
      </trkpt>
      <trkpt lat="46.4978870" lon="6.7063710">
        <ele>441.7</ele>
        <time>2019-02-24T10:04:29Z</time>
      </trkpt>
      <trkpt lat="46.4978870" lon="6.7063710">
        <ele>441.7</ele>
        <time>2019-02-24T10:04:30Z</time>
      </trkpt>
      <trkpt lat="46.4978870" lon="6.7063710">
        <ele>441.7</ele>
        <time>2019-02-24T10:04:31Z</time>
      </trkpt>
      <trkpt lat="46.4978870" lon="6.7063710">
        <ele>441.7</ele>
        <time>2019-02-24T10:04:32Z</time>
      </trkpt>
      <trkpt lat="46.4978860" lon="6.7063710">
        <ele>441.7</ele>
        <time>2019-02-24T10:04:33Z</time>
      </trkpt>
      <trkpt lat="46.4978860" lon="6.7063710">
        <ele>441.7</ele>
        <time>2019-02-24T10:04:34Z</time>
      </trkpt>
      <trkpt lat="46.4978860" lon="6.7063710">
        <ele>441.7</ele>
        <time>2019-02-24T10:04:35Z</time>
      </trkpt>
      <trkpt lat="46.4978870" lon="6.7063710">
        <ele>441.7</ele>
        <time>2019-02-24T10:04:36Z</time>
      </trkpt>
      <trkpt lat="46.4978870" lon="6.7063710">
        <ele>441.7</ele>
        <time>2019-02-24T10:04:37Z</time>
      </trkpt>
      <trkpt lat="46.4978870" lon="6.7063710">
        <ele>441.7</ele>
        <time>2019-02-24T10:04:38Z</time>
      </trkpt>
      <trkpt lat="46.4978870" lon="6.7063710">
        <ele>441.7</ele>
        <time>2019-02-24T10:04:39Z</time>
      </trkpt>
      <trkpt lat="46.4978870" lon="6.7063700">
        <ele>441.7</ele>
        <time>2019-02-24T10:04:40Z</time>
      </trkpt>
      <trkpt lat="46.4978870" lon="6.7063700">
        <ele>441.7</ele>
        <time>2019-02-24T10:04:41Z</time>
      </trkpt>
      <trkpt lat="46.4978870" lon="6.7063700">
        <ele>441.7</ele>
        <time>2019-02-24T10:04:42Z</time>
      </trkpt>
      <trkpt lat="46.4978880" lon="6.7063700">
        <ele>441.7</ele>
        <time>2019-02-24T10:04:43Z</time>
      </trkpt>
      <trkpt lat="46.4978880" lon="6.7063690">
        <ele>441.8</ele>
        <time>2019-02-24T10:04:44Z</time>
      </trkpt>
      <trkpt lat="46.4978880" lon="6.7063690">
        <ele>441.8</ele>
        <time>2019-02-24T10:04:45Z</time>
      </trkpt>
      <trkpt lat="46.4978890" lon="6.7063680">
        <ele>441.8</ele>
        <time>2019-02-24T10:04:46Z</time>
      </trkpt>
      <trkpt lat="46.4978890" lon="6.7063680">
        <ele>441.8</ele>
        <time>2019-02-24T10:04:47Z</time>
      </trkpt>
      <trkpt lat="46.4978890" lon="6.7063680">
        <ele>441.8</ele>
        <time>2019-02-24T10:04:48Z</time>
      </trkpt>
      <trkpt lat="46.4978900" lon="6.7063670">
        <ele>441.8</ele>
        <time>2019-02-24T10:04:49Z</time>
      </trkpt>
      <trkpt lat="46.4978900" lon="6.7063670">
        <ele>441.8</ele>
        <time>2019-02-24T10:04:50Z</time>
      </trkpt>
      <trkpt lat="46.4978910" lon="6.7063660">
        <ele>441.8</ele>
        <time>2019-02-24T10:04:51Z</time>
      </trkpt>
      <trkpt lat="46.4978910" lon="6.7063660">
        <ele>441.8</ele>
        <time>2019-02-24T10:04:52Z</time>
      </trkpt>
      <trkpt lat="46.4978920" lon="6.7063650">
        <ele>441.8</ele>
        <time>2019-02-24T10:04:53Z</time>
      </trkpt>
      <trkpt lat="46.4978920" lon="6.7063650">
        <ele>441.8</ele>
        <time>2019-02-24T10:04:54Z</time>
      </trkpt>
      <trkpt lat="46.4978930" lon="6.7063640">
        <ele>441.9</ele>
        <time>2019-02-24T10:04:55Z</time>
      </trkpt>
      <trkpt lat="46.4978930" lon="6.7063640">
        <ele>441.9</ele>
        <time>2019-02-24T10:04:56Z</time>
      </trkpt>
      <trkpt lat="46.4978940" lon="6.7063630">
        <ele>441.9</ele>
        <time>2019-02-24T10:04:57Z</time>
      </trkpt>
      <trkpt lat="46.4978940" lon="6.7063630">
        <ele>441.9</ele>
        <time>2019-02-24T10:04:58Z</time>
      </trkpt>
      <trkpt lat="46.4978940" lon="6.7063630">
        <ele>441.9</ele>
        <time>2019-02-24T10:04:59Z</time>
      </trkpt>
      <trkpt lat="46.4978950" lon="6.7063620">
        <ele>441.9</ele>
        <time>2019-02-24T10:05:00Z</time>
      </trkpt>
      <trkpt lat="46.4978950" lon="6.7063620">
        <ele>441.9</ele>
        <time>2019-02-24T10:05:01Z</time>
      </trkpt>
      <trkpt lat="46.4978950" lon="6.7063620">
        <ele>441.9</ele>
        <time>2019-02-24T10:05:02Z</time>
      </trkpt>
      <trkpt lat="46.4978960" lon="6.7063610">
        <ele>441.9</ele>
        <time>2019-02-24T10:05:03Z</time>
      </trkpt>
      <trkpt lat="46.4978960" lon="6.7063610">
        <ele>441.9</ele>
        <time>2019-02-24T10:05:04Z</time>
      </trkpt>
      <trkpt lat="46.4978960" lon="6.7063610">
        <ele>441.9</ele>
        <time>2019-02-24T10:05:05Z</time>
      </trkpt>
      <trkpt lat="46.4978960" lon="6.7063610">
        <ele>441.9</ele>
        <time>2019-02-24T10:05:06Z</time>
      </trkpt>
      <trkpt lat="46.4978960" lon="6.7063600">
        <ele>441.9</ele>
        <time>2019-02-24T10:05:07Z</time>
      </trkpt>
      <trkpt lat="46.4978960" lon="6.7063600">
        <ele>441.9</ele>
        <time>2019-02-24T10:05:08Z</time>
      </trkpt>
      <trkpt lat="46.4978960" lon="6.7063600">
        <ele>441.9</ele>
        <time>2019-02-24T10:05:09Z</time>
      </trkpt>
      <trkpt lat="46.4978970" lon="6.7063600">
        <ele>442.0</ele>
        <time>2019-02-24T10:05:10Z</time>
      </trkpt>
      <trkpt lat="46.4978970" lon="6.7063600">
        <ele>442.0</ele>
        <time>2019-02-24T10:05:11Z</time>
      </trkpt>
      <trkpt lat="46.4978970" lon="6.7063600">
        <ele>442.0</ele>
        <time>2019-02-24T10:05:12Z</time>
      </trkpt>
      <trkpt lat="46.4978970" lon="6.7063600">
        <ele>442.0</ele>
        <time>2019-02-24T10:05:13Z</time>
      </trkpt>
      <trkpt lat="46.4978970" lon="6.7063600">
        <ele>442.0</ele>
        <time>2019-02-24T10:05:14Z</time>
      </trkpt>
      <trkpt lat="46.4978970" lon="6.7063600">
        <ele>442.0</ele>
        <time>2019-02-24T10:05:15Z</time>
      </trkpt>
      <trkpt lat="46.4978970" lon="6.7063590">
        <ele>442.0</ele>
        <time>2019-02-24T10:05:16Z</time>
      </trkpt>
      <trkpt lat="46.4978970" lon="6.7063590">
        <ele>442.0</ele>
        <time>2019-02-24T10:05:17Z</time>
      </trkpt>
      <trkpt lat="46.4978970" lon="6.7063590">
        <ele>442.0</ele>
        <time>2019-02-24T10:05:18Z</time>
      </trkpt>
      <trkpt lat="46.4978970" lon="6.7063590">
        <ele>442.0</ele>
        <time>2019-02-24T10:05:19Z</time>
      </trkpt>
      <trkpt lat="46.4978970" lon="6.7063590">
        <ele>442.0</ele>
        <time>2019-02-24T10:05:20Z</time>
      </trkpt>
      <trkpt lat="46.4978970" lon="6.7063590">
        <ele>442.0</ele>
        <time>2019-02-24T10:05:21Z</time>
      </trkpt>
      <trkpt lat="46.4978970" lon="6.7063590">
        <ele>442.0</ele>
        <time>2019-02-24T10:05:22Z</time>
      </trkpt>
      <trkpt lat="46.4978970" lon="6.7063590">
        <ele>442.0</ele>
        <time>2019-02-24T10:05:23Z</time>
      </trkpt>
      <trkpt lat="46.4978970" lon="6.7063590">
        <ele>442.0</ele>
        <time>2019-02-24T10:05:24Z</time>
      </trkpt>
      <trkpt lat="46.4978970" lon="6.7063590">
        <ele>442.0</ele>
        <time>2019-02-24T10:05:25Z</time>
      </trkpt>
      <trkpt lat="46.4978970" lon="6.7063590">
        <ele>442.0</ele>
        <time>2019-02-24T10:05:26Z</time>
      </trkpt>
      <trkpt lat="46.4978970" lon="6.7063590">
        <ele>442.0</ele>
        <time>2019-02-24T10:05:27Z</time>
      </trkpt>
      <trkpt lat="46.4978970" lon="6.7063590">
        <ele>442.0</ele>
        <time>2019-02-24T10:05:28Z</time>
      </trkpt>
      <trkpt lat="46.4978970" lon="6.7063590">
        <ele>442.0</ele>
        <time>2019-02-24T10:05:29Z</time>
      </trkpt>
      <trkpt lat="46.4978970" lon="6.7063590">
        <ele>442.0</ele>
        <time>2019-02-24T10:05:30Z</time>
      </trkpt>
      <trkpt lat="46.4978970" lon="6.7063590">
        <ele>442.0</ele>
        <time>2019-02-24T10:05:31Z</time>
      </trkpt>
      <trkpt lat="46.4978970" lon="6.7063590">
        <ele>442.0</ele>
        <time>2019-02-24T10:05:32Z</time>
      </trkpt>
      <trkpt lat="46.4978970" lon="6.7063590">
        <ele>442.0</ele>
        <time>2019-02-24T10:05:33Z</time>
      </trkpt>
      <trkpt lat="46.4978970" lon="6.7063590">
        <ele>442.0</ele>
        <time>2019-02-24T10:05:34Z</time>
      </trkpt>
      <trkpt lat="46.4978970" lon="6.7063590">
        <ele>442.0</ele>
        <time>2019-02-24T10:05:35Z</time>
      </trkpt>
      <trkpt lat="46.4978970" lon="6.7063590">
        <ele>442.0</ele>
        <time>2019-02-24T10:05:36Z</time>
      </trkpt>
      <trkpt lat="46.4978970" lon="6.7063590">
        <ele>442.0</ele>
        <time>2019-02-24T10:05:37Z</time>
      </trkpt>
      <trkpt lat="46.4978960" lon="6.7063590">
        <ele>442.0</ele>
        <time>2019-02-24T10:05:38Z</time>
      </trkpt>
      <trkpt lat="46.4978960" lon="6.7063580">
        <ele>442.0</ele>
        <time>2019-02-24T10:05:39Z</time>
      </trkpt>
      <trkpt lat="46.4978960" lon="6.7063580">
        <ele>442.0</ele>
        <time>2019-02-24T10:05:40Z</time>
      </trkpt>
      <trkpt lat="46.4978960" lon="6.7063580">
        <ele>442.0</ele>
        <time>2019-02-24T10:05:41Z</time>
      </trkpt>
      <trkpt lat="46.4978960" lon="6.7063580">
        <ele>442.0</ele>
        <time>2019-02-24T10:05:42Z</time>
      </trkpt>
      <trkpt lat="46.4978960" lon="6.7063580">
        <ele>442.0</ele>
        <time>2019-02-24T10:05:43Z</time>
      </trkpt>
      <trkpt lat="46.4978970" lon="6.7063580">
        <ele>442.0</ele>
        <time>2019-02-24T10:05:44Z</time>
      </trkpt>
      <trkpt lat="46.4978990" lon="6.7063580">
        <ele>442.0</ele>
        <time>2019-02-24T10:05:45Z</time>
      </trkpt>
      <trkpt lat="46.4979010" lon="6.7063590">
        <ele>442.1</ele>
        <time>2019-02-24T10:05:46Z</time>
      </trkpt>
      <trkpt lat="46.4979050" lon="6.7063600">
        <ele>442.2</ele>
        <time>2019-02-24T10:05:47Z</time>
      </trkpt>
      <trkpt lat="46.4979080" lon="6.7063610">
        <ele>442.2</ele>
        <time>2019-02-24T10:05:48Z</time>
      </trkpt>
      <trkpt lat="46.4979120" lon="6.7063600">
        <ele>442.3</ele>
        <time>2019-02-24T10:05:49Z</time>
      </trkpt>
      <trkpt lat="46.4979140" lon="6.7063580">
        <ele>442.3</ele>
        <time>2019-02-24T10:05:50Z</time>
      </trkpt>
      <trkpt lat="46.4979150" lon="6.7063540">
        <ele>442.4</ele>
        <time>2019-02-24T10:05:51Z</time>
      </trkpt>
      <trkpt lat="46.4979160" lon="6.7063490">
        <ele>442.4</ele>
        <time>2019-02-24T10:05:52Z</time>
      </trkpt>
      <trkpt lat="46.4979170" lon="6.7063460">
        <ele>442.5</ele>
        <time>2019-02-24T10:05:53Z</time>
      </trkpt>
      <trkpt lat="46.4979180" lon="6.7063470">
        <ele>442.5</ele>
        <time>2019-02-24T10:05:54Z</time>
      </trkpt>
      <trkpt lat="46.4979210" lon="6.7063540">
        <ele>442.6</ele>
        <time>2019-02-24T10:05:55Z</time>
      </trkpt>
      <trkpt lat="46.4979250" lon="6.7063650">
        <ele>442.8</ele>
        <time>2019-02-24T10:05:56Z</time>
      </trkpt>
      <trkpt lat="46.4979300" lon="6.7063820">
        <ele>443.0</ele>
        <time>2019-02-24T10:05:57Z</time>
      </trkpt>
      <trkpt lat="46.4979360" lon="6.7064020">
        <ele>443.2</ele>
        <time>2019-02-24T10:05:58Z</time>
      </trkpt>
      <trkpt lat="46.4979430" lon="6.7064250">
        <ele>443.6</ele>
        <time>2019-02-24T10:05:59Z</time>
      </trkpt>
      <trkpt lat="46.4979520" lon="6.7064510">
        <ele>443.9</ele>
        <time>2019-02-24T10:06:00Z</time>
      </trkpt>
      <trkpt lat="46.4979610" lon="6.7064790">
        <ele>444.3</ele>
        <time>2019-02-24T10:06:01Z</time>
      </trkpt>
      <trkpt lat="46.4979710" lon="6.7065080">
        <ele>444.7</ele>
        <time>2019-02-24T10:06:02Z</time>
      </trkpt>
      <trkpt lat="46.4979830" lon="6.7065370">
        <ele>445.1</ele>
        <time>2019-02-24T10:06:03Z</time>
      </trkpt>
      <trkpt lat="46.4979950" lon="6.7065660">
        <ele>445.5</ele>
        <time>2019-02-24T10:06:04Z</time>
      </trkpt>
      <trkpt lat="46.4980070" lon="6.7065960">
        <ele>445.9</ele>
        <time>2019-02-24T10:06:05Z</time>
      </trkpt>
      <trkpt lat="46.4980210" lon="6.7066260">
        <ele>446.3</ele>
        <time>2019-02-24T10:06:06Z</time>
      </trkpt>
      <trkpt lat="46.4980350" lon="6.7066560">
        <ele>446.8</ele>
        <time>2019-02-24T10:06:07Z</time>
      </trkpt>
      <trkpt lat="46.4980490" lon="6.7066860">
        <ele>447.2</ele>
        <time>2019-02-24T10:06:08Z</time>
      </trkpt>
      <trkpt lat="46.4980640" lon="6.7067160">
        <ele>447.6</ele>
        <time>2019-02-24T10:06:09Z</time>
      </trkpt>
      <trkpt lat="46.4980800" lon="6.7067460">
        <ele>448.1</ele>
        <time>2019-02-24T10:06:10Z</time>
      </trkpt>
      <trkpt lat="46.4980950" lon="6.7067760">
        <ele>448.6</ele>
        <time>2019-02-24T10:06:11Z</time>
      </trkpt>
      <trkpt lat="46.4981110" lon="6.7068060">
        <ele>449.0</ele>
        <time>2019-02-24T10:06:12Z</time>
      </trkpt>
      <trkpt lat="46.4981270" lon="6.7068350">
        <ele>449.5</ele>
        <time>2019-02-24T10:06:13Z</time>
      </trkpt>
      <trkpt lat="46.4981440" lon="6.7068640">
        <ele>450.0</ele>
        <time>2019-02-24T10:06:14Z</time>
      </trkpt>
      <trkpt lat="46.4981610" lon="6.7068920">
        <ele>450.4</ele>
        <time>2019-02-24T10:06:15Z</time>
      </trkpt>
      <trkpt lat="46.4981780" lon="6.7069200">
        <ele>450.9</ele>
        <time>2019-02-24T10:06:16Z</time>
      </trkpt>
      <trkpt lat="46.4981960" lon="6.7069470">
        <ele>451.4</ele>
        <time>2019-02-24T10:06:17Z</time>
      </trkpt>
      <trkpt lat="46.4982140" lon="6.7069730">
        <ele>451.8</ele>
        <time>2019-02-24T10:06:18Z</time>
      </trkpt>
      <trkpt lat="46.4982320" lon="6.7069990">
        <ele>452.3</ele>
        <time>2019-02-24T10:06:19Z</time>
      </trkpt>
      <trkpt lat="46.4982510" lon="6.7070240">
        <ele>452.8</ele>
        <time>2019-02-24T10:06:20Z</time>
      </trkpt>
      <trkpt lat="46.4982700" lon="6.7070480">
        <ele>453.3</ele>
        <time>2019-02-24T10:06:21Z</time>
      </trkpt>
      <trkpt lat="46.4982900" lon="6.7070710">
        <ele>453.8</ele>
        <time>2019-02-24T10:06:22Z</time>
      </trkpt>
      <trkpt lat="46.4983100" lon="6.7070930">
        <ele>454.3</ele>
        <time>2019-02-24T10:06:23Z</time>
      </trkpt>
      <trkpt lat="46.4983300" lon="6.7071150">
        <ele>454.8</ele>
        <time>2019-02-24T10:06:24Z</time>
      </trkpt>
      <trkpt lat="46.4983500" lon="6.7071370">
        <ele>455.4</ele>
        <time>2019-02-24T10:06:25Z</time>
      </trkpt>
      <trkpt lat="46.4983700" lon="6.7071580">
        <ele>455.9</ele>
        <time>2019-02-24T10:06:26Z</time>
      </trkpt>
      <trkpt lat="46.4983900" lon="6.7071790">
        <ele>456.4</ele>
        <time>2019-02-24T10:06:27Z</time>
      </trkpt>
      <trkpt lat="46.4984100" lon="6.7072000">
        <ele>456.9</ele>
        <time>2019-02-24T10:06:28Z</time>
      </trkpt>
      <trkpt lat="46.4984290" lon="6.7072200">
        <ele>457.4</ele>
        <time>2019-02-24T10:06:29Z</time>
      </trkpt>
      <trkpt lat="46.4984480" lon="6.7072410">
        <ele>457.9</ele>
        <time>2019-02-24T10:06:30Z</time>
      </trkpt>
      <trkpt lat="46.4984670" lon="6.7072620">
        <ele>458.4</ele>
        <time>2019-02-24T10:06:31Z</time>
      </trkpt>
      <trkpt lat="46.4984850" lon="6.7072830">
        <ele>458.9</ele>
        <time>2019-02-24T10:06:32Z</time>
      </trkpt>
      <trkpt lat="46.4985030" lon="6.7073050">
        <ele>459.4</ele>
        <time>2019-02-24T10:06:33Z</time>
      </trkpt>
      <trkpt lat="46.4985190" lon="6.7073280">
        <ele>459.9</ele>
        <time>2019-02-24T10:06:34Z</time>
      </trkpt>
      <trkpt lat="46.4985350" lon="6.7073520">
        <ele>460.4</ele>
        <time>2019-02-24T10:06:35Z</time>
      </trkpt>
      <trkpt lat="46.4985510" lon="6.7073770">
        <ele>460.6</ele>
        <time>2019-02-24T10:06:36Z</time>
      </trkpt>
      <trkpt lat="46.4985650" lon="6.7074030">
        <ele>460.8</ele>
        <time>2019-02-24T10:06:37Z</time>
      </trkpt>
      <trkpt lat="46.4985790" lon="6.7074300">
        <ele>461.0</ele>
        <time>2019-02-24T10:06:38Z</time>
      </trkpt>
      <trkpt lat="46.4985920" lon="6.7074580">
        <ele>461.1</ele>
        <time>2019-02-24T10:06:39Z</time>
      </trkpt>
      <trkpt lat="46.4986040" lon="6.7074870">
        <ele>461.3</ele>
        <time>2019-02-24T10:06:40Z</time>
      </trkpt>
      <trkpt lat="46.4986160" lon="6.7075170">
        <ele>461.4</ele>
        <time>2019-02-24T10:06:41Z</time>
      </trkpt>
      <trkpt lat="46.4986270" lon="6.7075470">
        <ele>461.3</ele>
        <time>2019-02-24T10:06:42Z</time>
      </trkpt>
      <trkpt lat="46.4986370" lon="6.7075780">
        <ele>461.2</ele>
        <time>2019-02-24T10:06:43Z</time>
      </trkpt>
      <trkpt lat="46.4986470" lon="6.7076090">
        <ele>461.1</ele>
        <time>2019-02-24T10:06:44Z</time>
      </trkpt>
      <trkpt lat="46.4986570" lon="6.7076410">
        <ele>461.0</ele>
        <time>2019-02-24T10:06:45Z</time>
      </trkpt>
      <trkpt lat="46.4986660" lon="6.7076730">
        <ele>461.0</ele>
        <time>2019-02-24T10:06:46Z</time>
      </trkpt>
      <trkpt lat="46.4986740" lon="6.7077060">
        <ele>461.0</ele>
        <time>2019-02-24T10:06:47Z</time>
      </trkpt>
      <trkpt lat="46.4986830" lon="6.7077380">
        <ele>461.0</ele>
        <time>2019-02-24T10:06:48Z</time>
      </trkpt>
      <trkpt lat="46.4986910" lon="6.7077710">
        <ele>461.0</ele>
        <time>2019-02-24T10:06:49Z</time>
      </trkpt>
      <trkpt lat="46.4986990" lon="6.7078030">
        <ele>461.1</ele>
        <time>2019-02-24T10:06:50Z</time>
      </trkpt>
      <trkpt lat="46.4987070" lon="6.7078360">
        <ele>461.1</ele>
        <time>2019-02-24T10:06:51Z</time>
      </trkpt>
      <trkpt lat="46.4987140" lon="6.7078680">
        <ele>461.0</ele>
        <time>2019-02-24T10:06:52Z</time>
      </trkpt>
      <trkpt lat="46.4987220" lon="6.7079000">
        <ele>460.9</ele>
        <time>2019-02-24T10:06:53Z</time>
      </trkpt>
      <trkpt lat="46.4987290" lon="6.7079320">
        <ele>460.8</ele>
        <time>2019-02-24T10:06:54Z</time>
      </trkpt>
      <trkpt lat="46.4987360" lon="6.7079640">
        <ele>460.8</ele>
        <time>2019-02-24T10:06:55Z</time>
      </trkpt>
      <trkpt lat="46.4987430" lon="6.7079960">
        <ele>460.9</ele>
        <time>2019-02-24T10:06:56Z</time>
      </trkpt>
      <trkpt lat="46.4987490" lon="6.7080280">
        <ele>461.0</ele>
        <time>2019-02-24T10:06:57Z</time>
      </trkpt>
      <trkpt lat="46.4987550" lon="6.7080600">
        <ele>461.0</ele>
        <time>2019-02-24T10:06:58Z</time>
      </trkpt>
      <trkpt lat="46.4987610" lon="6.7080920">
        <ele>461.0</ele>
        <time>2019-02-24T10:06:59Z</time>
      </trkpt>
      <trkpt lat="46.4987660" lon="6.7081250">
        <ele>461.0</ele>
        <time>2019-02-24T10:07:00Z</time>
      </trkpt>
      <trkpt lat="46.4987710" lon="6.7081570">
        <ele>461.0</ele>
        <time>2019-02-24T10:07:01Z</time>
      </trkpt>
      <trkpt lat="46.4987760" lon="6.7081900">
        <ele>461.1</ele>
        <time>2019-02-24T10:07:02Z</time>
      </trkpt>
      <trkpt lat="46.4987800" lon="6.7082230">
        <ele>461.3</ele>
        <time>2019-02-24T10:07:03Z</time>
      </trkpt>
      <trkpt lat="46.4987830" lon="6.7082560">
        <ele>461.4</ele>
        <time>2019-02-24T10:07:04Z</time>
      </trkpt>
      <trkpt lat="46.4987860" lon="6.7082900">
        <ele>461.5</ele>
        <time>2019-02-24T10:07:05Z</time>
      </trkpt>
      <trkpt lat="46.4987890" lon="6.7083240">
        <ele>461.5</ele>
        <time>2019-02-24T10:07:06Z</time>
      </trkpt>
      <trkpt lat="46.4987910" lon="6.7083590">
        <ele>461.5</ele>
        <time>2019-02-24T10:07:07Z</time>
      </trkpt>
      <trkpt lat="46.4987920" lon="6.7083940">
        <ele>461.6</ele>
        <time>2019-02-24T10:07:08Z</time>
      </trkpt>
      <trkpt lat="46.4987920" lon="6.7084290">
        <ele>461.6</ele>
        <time>2019-02-24T10:07:09Z</time>
      </trkpt>
      <trkpt lat="46.4987920" lon="6.7084650">
        <ele>461.7</ele>
        <time>2019-02-24T10:07:10Z</time>
      </trkpt>
      <trkpt lat="46.4987900" lon="6.7085000">
        <ele>461.7</ele>
        <time>2019-02-24T10:07:11Z</time>
      </trkpt>
      <trkpt lat="46.4987880" lon="6.7085360">
        <ele>461.7</ele>
        <time>2019-02-24T10:07:12Z</time>
      </trkpt>
      <trkpt lat="46.4987850" lon="6.7085710">
        <ele>461.8</ele>
        <time>2019-02-24T10:07:13Z</time>
      </trkpt>
      <trkpt lat="46.4987810" lon="6.7086060">
        <ele>461.8</ele>
        <time>2019-02-24T10:07:14Z</time>
      </trkpt>
      <trkpt lat="46.4987760" lon="6.7086400">
        <ele>461.9</ele>
        <time>2019-02-24T10:07:15Z</time>
      </trkpt>
      <trkpt lat="46.4987700" lon="6.7086730">
        <ele>461.9</ele>
        <time>2019-02-24T10:07:16Z</time>
      </trkpt>
      <trkpt lat="46.4987640" lon="6.7087060">
        <ele>462.0</ele>
        <time>2019-02-24T10:07:17Z</time>
      </trkpt>
      <trkpt lat="46.4987570" lon="6.7087380">
        <ele>462.0</ele>
        <time>2019-02-24T10:07:18Z</time>
      </trkpt>
      <trkpt lat="46.4987500" lon="6.7087690">
        <ele>462.0</ele>
        <time>2019-02-24T10:07:19Z</time>
      </trkpt>
      <trkpt lat="46.4987440" lon="6.7087990">
        <ele>462.1</ele>
        <time>2019-02-24T10:07:20Z</time>
      </trkpt>
      <trkpt lat="46.4987400" lon="6.7088290">
        <ele>462.1</ele>
        <time>2019-02-24T10:07:21Z</time>
      </trkpt>
      <trkpt lat="46.4987360" lon="6.7088570">
        <ele>462.1</ele>
        <time>2019-02-24T10:07:22Z</time>
      </trkpt>
      <trkpt lat="46.4987350" lon="6.7088850">
        <ele>462.2</ele>
        <time>2019-02-24T10:07:23Z</time>
      </trkpt>
      <trkpt lat="46.4987360" lon="6.7089120">
        <ele>462.2</ele>
        <time>2019-02-24T10:07:24Z</time>
      </trkpt>
      <trkpt lat="46.4987380" lon="6.7089360">
        <ele>462.2</ele>
        <time>2019-02-24T10:07:25Z</time>
      </trkpt>
      <trkpt lat="46.4987420" lon="6.7089570">
        <ele>462.3</ele>
        <time>2019-02-24T10:07:26Z</time>
      </trkpt>
      <trkpt lat="46.4987440" lon="6.7089730">
        <ele>462.3</ele>
        <time>2019-02-24T10:07:27Z</time>
      </trkpt>
      <trkpt lat="46.4987460" lon="6.7089820">
        <ele>462.3</ele>
        <time>2019-02-24T10:07:28Z</time>
      </trkpt>
      <trkpt lat="46.4987460" lon="6.7089830">
        <ele>462.3</ele>
        <time>2019-02-24T10:07:29Z</time>
      </trkpt>
      <trkpt lat="46.4987460" lon="6.7089830">
        <ele>462.3</ele>
        <time>2019-02-24T10:07:30Z</time>
      </trkpt>
      <trkpt lat="46.4987460" lon="6.7089830">
        <ele>462.3</ele>
        <time>2019-02-24T10:07:31Z</time>
      </trkpt>
      <trkpt lat="46.4987460" lon="6.7089830">
        <ele>462.3</ele>
        <time>2019-02-24T10:07:32Z</time>
      </trkpt>
      <trkpt lat="46.4987450" lon="6.7089840">
        <ele>462.3</ele>
        <time>2019-02-24T10:07:33Z</time>
      </trkpt>
      <trkpt lat="46.4987450" lon="6.7089840">
        <ele>462.3</ele>
        <time>2019-02-24T10:07:34Z</time>
      </trkpt>
      <trkpt lat="46.4987450" lon="6.7089840">
        <ele>462.3</ele>
        <time>2019-02-24T10:07:35Z</time>
      </trkpt>
      <trkpt lat="46.4987450" lon="6.7089840">
        <ele>462.3</ele>
        <time>2019-02-24T10:07:36Z</time>
      </trkpt>
      <trkpt lat="46.4987450" lon="6.7089850">
        <ele>462.3</ele>
        <time>2019-02-24T10:07:37Z</time>
      </trkpt>
      <trkpt lat="46.4987450" lon="6.7089850">
        <ele>462.3</ele>
        <time>2019-02-24T10:07:38Z</time>
      </trkpt>
      <trkpt lat="46.4987450" lon="6.7089850">
        <ele>462.3</ele>
        <time>2019-02-24T10:07:39Z</time>
      </trkpt>
      <trkpt lat="46.4987450" lon="6.7089850">
        <ele>462.3</ele>
        <time>2019-02-24T10:07:40Z</time>
      </trkpt>
      <trkpt lat="46.4987450" lon="6.7089860">
        <ele>462.3</ele>
        <time>2019-02-24T10:07:41Z</time>
      </trkpt>
      <trkpt lat="46.4987450" lon="6.7089860">
        <ele>462.3</ele>
        <time>2019-02-24T10:07:42Z</time>
      </trkpt>
      <trkpt lat="46.4987440" lon="6.7089860">
        <ele>462.3</ele>
        <time>2019-02-24T10:07:43Z</time>
      </trkpt>
      <trkpt lat="46.4987440" lon="6.7089860">
        <ele>462.3</ele>
        <time>2019-02-24T10:07:44Z</time>
      </trkpt>
      <trkpt lat="46.4987440" lon="6.7089870">
        <ele>462.3</ele>
        <time>2019-02-24T10:07:45Z</time>
      </trkpt>
      <trkpt lat="46.4987440" lon="6.7089870">
        <ele>462.3</ele>
        <time>2019-02-24T10:07:46Z</time>
      </trkpt>
      <trkpt lat="46.4987440" lon="6.7089870">
        <ele>462.3</ele>
        <time>2019-02-24T10:07:47Z</time>
      </trkpt>
      <trkpt lat="46.4987440" lon="6.7089870">
        <ele>462.3</ele>
        <time>2019-02-24T10:07:48Z</time>
      </trkpt>
      <trkpt lat="46.4987440" lon="6.7089880">
        <ele>462.3</ele>
        <time>2019-02-24T10:07:49Z</time>
      </trkpt>
      <trkpt lat="46.4987440" lon="6.7089880">
        <ele>462.3</ele>
        <time>2019-02-24T10:07:50Z</time>
      </trkpt>
      <trkpt lat="46.4987440" lon="6.7089880">
        <ele>462.3</ele>
        <time>2019-02-24T10:07:51Z</time>
      </trkpt>
      <trkpt lat="46.4987440" lon="6.7089880">
        <ele>462.3</ele>
        <time>2019-02-24T10:07:52Z</time>
      </trkpt>
      <trkpt lat="46.4987430" lon="6.7089890">
        <ele>462.3</ele>
        <time>2019-02-24T10:07:53Z</time>
      </trkpt>
      <trkpt lat="46.4987430" lon="6.7089890">
        <ele>462.3</ele>
        <time>2019-02-24T10:07:54Z</time>
      </trkpt>
      <trkpt lat="46.4987430" lon="6.7089890">
        <ele>462.3</ele>
        <time>2019-02-24T10:07:55Z</time>
      </trkpt>
      <trkpt lat="46.4987430" lon="6.7089900">
        <ele>462.3</ele>
        <time>2019-02-24T10:07:56Z</time>
      </trkpt>
      <trkpt lat="46.4987430" lon="6.7089900">
        <ele>462.3</ele>
        <time>2019-02-24T10:07:57Z</time>
      </trkpt>
      <trkpt lat="46.4987430" lon="6.7089900">
        <ele>462.3</ele>
        <time>2019-02-24T10:07:58Z</time>
      </trkpt>
      <trkpt lat="46.4987430" lon="6.7089900">
        <ele>462.3</ele>
        <time>2019-02-24T10:07:59Z</time>
      </trkpt>
      <trkpt lat="46.4987430" lon="6.7089910">
        <ele>462.3</ele>
        <time>2019-02-24T10:08:00Z</time>
      </trkpt>
      <trkpt lat="46.4987430" lon="6.7089910">
        <ele>462.3</ele>
        <time>2019-02-24T10:08:01Z</time>
      </trkpt>
      <trkpt lat="46.4987430" lon="6.7089910">
        <ele>462.3</ele>
        <time>2019-02-24T10:08:02Z</time>
      </trkpt>
      <trkpt lat="46.4987420" lon="6.7089910">
        <ele>462.3</ele>
        <time>2019-02-24T10:08:03Z</time>
      </trkpt>
      <trkpt lat="46.4987420" lon="6.7089920">
        <ele>462.3</ele>
        <time>2019-02-24T10:08:04Z</time>
      </trkpt>
      <trkpt lat="46.4987420" lon="6.7089920">
        <ele>462.3</ele>
        <time>2019-02-24T10:08:05Z</time>
      </trkpt>
      <trkpt lat="46.4987420" lon="6.7089920">
        <ele>462.3</ele>
        <time>2019-02-24T10:08:06Z</time>
      </trkpt>
      <trkpt lat="46.4987420" lon="6.7089920">
        <ele>462.3</ele>
        <time>2019-02-24T10:08:07Z</time>
      </trkpt>
      <trkpt lat="46.4987420" lon="6.7089930">
        <ele>462.3</ele>
        <time>2019-02-24T10:08:08Z</time>
      </trkpt>
      <trkpt lat="46.4987420" lon="6.7089930">
        <ele>462.3</ele>
        <time>2019-02-24T10:08:09Z</time>
      </trkpt>
      <trkpt lat="46.4987420" lon="6.7089930">
        <ele>462.3</ele>
        <time>2019-02-24T10:08:10Z</time>
      </trkpt>
      <trkpt lat="46.4987420" lon="6.7089930">
        <ele>462.3</ele>
        <time>2019-02-24T10:08:11Z</time>
      </trkpt>
      <trkpt lat="46.4987420" lon="6.7089940">
        <ele>462.3</ele>
        <time>2019-02-24T10:08:12Z</time>
      </trkpt>
      <trkpt lat="46.4987410" lon="6.7089940">
        <ele>462.3</ele>
        <time>2019-02-24T10:08:13Z</time>
      </trkpt>
      <trkpt lat="46.4987410" lon="6.7089940">
        <ele>462.3</ele>
        <time>2019-02-24T10:08:14Z</time>
      </trkpt>
      <trkpt lat="46.4987410" lon="6.7089940">
        <ele>462.3</ele>
        <time>2019-02-24T10:08:15Z</time>
      </trkpt>
      <trkpt lat="46.4987410" lon="6.7089950">
        <ele>462.3</ele>
        <time>2019-02-24T10:08:16Z</time>
      </trkpt>
      <trkpt lat="46.4987410" lon="6.7089950">
        <ele>462.3</ele>
        <time>2019-02-24T10:08:17Z</time>
      </trkpt>
      <trkpt lat="46.4987410" lon="6.7089950">
        <ele>462.3</ele>
        <time>2019-02-24T10:08:18Z</time>
      </trkpt>
      <trkpt lat="46.4987410" lon="6.7089950">
        <ele>462.3</ele>
        <time>2019-02-24T10:08:19Z</time>
      </trkpt>
      <trkpt lat="46.4987410" lon="6.7089960">
        <ele>462.3</ele>
        <time>2019-02-24T10:08:20Z</time>
      </trkpt>
      <trkpt lat="46.4987410" lon="6.7089960">
        <ele>462.3</ele>
        <time>2019-02-24T10:08:21Z</time>
      </trkpt>
      <trkpt lat="46.4987410" lon="6.7089960">
        <ele>462.3</ele>
        <time>2019-02-24T10:08:22Z</time>
      </trkpt>
      <trkpt lat="46.4987400" lon="6.7089970">
        <ele>462.3</ele>
        <time>2019-02-24T10:08:23Z</time>
      </trkpt>
      <trkpt lat="46.4987400" lon="6.7089970">
        <ele>462.3</ele>
        <time>2019-02-24T10:08:24Z</time>
      </trkpt>
      <trkpt lat="46.4987400" lon="6.7089970">
        <ele>462.3</ele>
        <time>2019-02-24T10:08:25Z</time>
      </trkpt>
      <trkpt lat="46.4987400" lon="6.7089970">
        <ele>462.3</ele>
        <time>2019-02-24T10:08:26Z</time>
      </trkpt>
      <trkpt lat="46.4987400" lon="6.7089980">
        <ele>462.3</ele>
        <time>2019-02-24T10:08:27Z</time>
      </trkpt>
      <trkpt lat="46.4987400" lon="6.7089980">
        <ele>462.3</ele>
        <time>2019-02-24T10:08:28Z</time>
      </trkpt>
      <trkpt lat="46.4987400" lon="6.7089980">
        <ele>462.3</ele>
        <time>2019-02-24T10:08:29Z</time>
      </trkpt>
      <trkpt lat="46.4987400" lon="6.7089980">
        <ele>462.3</ele>
        <time>2019-02-24T10:08:30Z</time>
      </trkpt>
      <trkpt lat="46.4987400" lon="6.7089990">
        <ele>462.3</ele>
        <time>2019-02-24T10:08:31Z</time>
      </trkpt>
      <trkpt lat="46.4987400" lon="6.7089990">
        <ele>462.3</ele>
        <time>2019-02-24T10:08:32Z</time>
      </trkpt>
      <trkpt lat="46.4987390" lon="6.7089990">
        <ele>462.3</ele>
        <time>2019-02-24T10:08:33Z</time>
      </trkpt>
      <trkpt lat="46.4987390" lon="6.7089990">
        <ele>462.3</ele>
        <time>2019-02-24T10:08:34Z</time>
      </trkpt>
      <trkpt lat="46.4987390" lon="6.7090000">
        <ele>462.3</ele>
        <time>2019-02-24T10:08:35Z</time>
      </trkpt>
      <trkpt lat="46.4987390" lon="6.7090000">
        <ele>462.3</ele>
        <time>2019-02-24T10:08:36Z</time>
      </trkpt>
      <trkpt lat="46.4987390" lon="6.7090000">
        <ele>462.3</ele>
        <time>2019-02-24T10:08:37Z</time>
      </trkpt>
      <trkpt lat="46.4987390" lon="6.7090000">
        <ele>462.3</ele>
        <time>2019-02-24T10:08:38Z</time>
      </trkpt>
      <trkpt lat="46.4987390" lon="6.7090010">
        <ele>462.3</ele>
        <time>2019-02-24T10:08:39Z</time>
      </trkpt>
      <trkpt lat="46.4987390" lon="6.7090010">
        <ele>462.3</ele>
        <time>2019-02-24T10:08:40Z</time>
      </trkpt>
      <trkpt lat="46.4987390" lon="6.7090010">
        <ele>462.3</ele>
        <time>2019-02-24T10:08:41Z</time>
      </trkpt>
      <trkpt lat="46.4987390" lon="6.7090010">
        <ele>462.3</ele>
        <time>2019-02-24T10:08:42Z</time>
      </trkpt>
      <trkpt lat="46.4987380" lon="6.7090020">
        <ele>462.3</ele>
        <time>2019-02-24T10:08:43Z</time>
      </trkpt>
      <trkpt lat="46.4987380" lon="6.7090020">
        <ele>462.3</ele>
        <time>2019-02-24T10:08:44Z</time>
      </trkpt>
      <trkpt lat="46.4987380" lon="6.7090020">
        <ele>462.3</ele>
        <time>2019-02-24T10:08:45Z</time>
      </trkpt>
      <trkpt lat="46.4987380" lon="6.7090020">
        <ele>462.3</ele>
        <time>2019-02-24T10:08:46Z</time>
      </trkpt>
      <trkpt lat="46.4987380" lon="6.7090030">
        <ele>462.3</ele>
        <time>2019-02-24T10:08:47Z</time>
      </trkpt>
      <trkpt lat="46.4987380" lon="6.7090030">
        <ele>462.3</ele>
        <time>2019-02-24T10:08:48Z</time>
      </trkpt>
      <trkpt lat="46.4987290" lon="6.7090160">
        <ele>462.3</ele>
        <time>2019-02-24T10:08:49Z</time>
      </trkpt>
      <trkpt lat="46.4987170" lon="6.7090340">
        <ele>462.3</ele>
        <time>2019-02-24T10:08:50Z</time>
      </trkpt>
      <trkpt lat="46.4987040" lon="6.7090550">
        <ele>462.3</ele>
        <time>2019-02-24T10:08:51Z</time>
      </trkpt>
      <trkpt lat="46.4986900" lon="6.7090800">
        <ele>462.3</ele>
        <time>2019-02-24T10:08:52Z</time>
      </trkpt>
      <trkpt lat="46.4986700" lon="6.7091230">
        <ele>462.3</ele>
        <time>2019-02-24T10:08:53Z</time>
      </trkpt>
      <trkpt lat="46.4986630" lon="6.7091380">
        <ele>462.3</ele>
        <time>2019-02-24T10:08:54Z</time>
      </trkpt>
      <trkpt lat="46.4986500" lon="6.7091700">
        <ele>462.3</ele>
        <time>2019-02-24T10:08:55Z</time>
      </trkpt>
      <trkpt lat="46.4986370" lon="6.7092030">
        <ele>462.4</ele>
        <time>2019-02-24T10:08:56Z</time>
      </trkpt>
      <trkpt lat="46.4986250" lon="6.7092390">
        <ele>462.5</ele>
        <time>2019-02-24T10:08:57Z</time>
      </trkpt>
      <trkpt lat="46.4986120" lon="6.7092750">
        <ele>462.5</ele>
        <time>2019-02-24T10:08:58Z</time>
      </trkpt>
      <trkpt lat="46.4986000" lon="6.7093120">
        <ele>462.6</ele>
        <time>2019-02-24T10:08:59Z</time>
      </trkpt>
      <trkpt lat="46.4985880" lon="6.7093500">
        <ele>462.7</ele>
        <time>2019-02-24T10:09:00Z</time>
      </trkpt>
      <trkpt lat="46.4985750" lon="6.7093880">
        <ele>462.8</ele>
        <time>2019-02-24T10:09:01Z</time>
      </trkpt>
      <trkpt lat="46.4985630" lon="6.7094260">
        <ele>462.9</ele>
        <time>2019-02-24T10:09:02Z</time>
      </trkpt>
      <trkpt lat="46.4985500" lon="6.7094650">
        <ele>462.9</ele>
        <time>2019-02-24T10:09:03Z</time>
      </trkpt>
      <trkpt lat="46.4985370" lon="6.7095030">
        <ele>463.0</ele>
        <time>2019-02-24T10:09:04Z</time>
      </trkpt>
      <trkpt lat="46.4985240" lon="6.7095410">
        <ele>463.1</ele>
        <time>2019-02-24T10:09:05Z</time>
      </trkpt>
      <trkpt lat="46.4985100" lon="6.7095790">
        <ele>463.2</ele>
        <time>2019-02-24T10:09:06Z</time>
      </trkpt>
      <trkpt lat="46.4984960" lon="6.7096170">
        <ele>463.3</ele>
        <time>2019-02-24T10:09:07Z</time>
      </trkpt>
      <trkpt lat="46.4984820" lon="6.7096540">
        <ele>463.4</ele>
        <time>2019-02-24T10:09:08Z</time>
      </trkpt>
      <trkpt lat="46.4984670" lon="6.7096910">
        <ele>463.4</ele>
        <time>2019-02-24T10:09:09Z</time>
      </trkpt>
      <trkpt lat="46.4984520" lon="6.7097280">
        <ele>463.5</ele>
        <time>2019-02-24T10:09:10Z</time>
      </trkpt>
      <trkpt lat="46.4984370" lon="6.7097630">
        <ele>463.6</ele>
        <time>2019-02-24T10:09:11Z</time>
      </trkpt>
      <trkpt lat="46.4984210" lon="6.7097990">
        <ele>463.7</ele>
        <time>2019-02-24T10:09:12Z</time>
      </trkpt>
      <trkpt lat="46.4984040" lon="6.7098330">
        <ele>463.7</ele>
        <time>2019-02-24T10:09:13Z</time>
      </trkpt>
      <trkpt lat="46.4983870" lon="6.7098660">
        <ele>463.8</ele>
        <time>2019-02-24T10:09:14Z</time>
      </trkpt>
      <trkpt lat="46.4983690" lon="6.7098990">
        <ele>463.9</ele>
        <time>2019-02-24T10:09:15Z</time>
      </trkpt>
      <trkpt lat="46.4983500" lon="6.7099310">
        <ele>464.0</ele>
        <time>2019-02-24T10:09:16Z</time>
      </trkpt>
      <trkpt lat="46.4983310" lon="6.7099610">
        <ele>464.0</ele>
        <time>2019-02-24T10:09:17Z</time>
      </trkpt>
      <trkpt lat="46.4983110" lon="6.7099910">
        <ele>464.1</ele>
        <time>2019-02-24T10:09:18Z</time>
      </trkpt>
      <trkpt lat="46.4982900" lon="6.7100190">
        <ele>464.2</ele>
        <time>2019-02-24T10:09:19Z</time>
      </trkpt>
      <trkpt lat="46.4982690" lon="6.7100470">
        <ele>464.3</ele>
        <time>2019-02-24T10:09:20Z</time>
      </trkpt>
      <trkpt lat="46.4982470" lon="6.7100740">
        <ele>464.3</ele>
        <time>2019-02-24T10:09:21Z</time>
      </trkpt>
      <trkpt lat="46.4982250" lon="6.7101000">
        <ele>464.4</ele>
        <time>2019-02-24T10:09:22Z</time>
      </trkpt>
      <trkpt lat="46.4982030" lon="6.7101250">
        <ele>464.5</ele>
        <time>2019-02-24T10:09:23Z</time>
      </trkpt>
      <trkpt lat="46.4981800" lon="6.7101500">
        <ele>464.6</ele>
        <time>2019-02-24T10:09:24Z</time>
      </trkpt>
      <trkpt lat="46.4981580" lon="6.7101740">
        <ele>464.7</ele>
        <time>2019-02-24T10:09:25Z</time>
      </trkpt>
      <trkpt lat="46.4981350" lon="6.7101980">
        <ele>464.8</ele>
        <time>2019-02-24T10:09:26Z</time>
      </trkpt>
      <trkpt lat="46.4981120" lon="6.7102220">
        <ele>464.9</ele>
        <time>2019-02-24T10:09:27Z</time>
      </trkpt>
      <trkpt lat="46.4980880" lon="6.7102450">
        <ele>465.0</ele>
        <time>2019-02-24T10:09:28Z</time>
      </trkpt>
      <trkpt lat="46.4980650" lon="6.7102690">
        <ele>465.1</ele>
        <time>2019-02-24T10:09:29Z</time>
      </trkpt>
      <trkpt lat="46.4980420" lon="6.7102920">
        <ele>465.2</ele>
        <time>2019-02-24T10:09:30Z</time>
      </trkpt>
      <trkpt lat="46.4980190" lon="6.7103150">
        <ele>465.3</ele>
        <time>2019-02-24T10:09:31Z</time>
      </trkpt>
      <trkpt lat="46.4979960" lon="6.7103380">
        <ele>465.4</ele>
        <time>2019-02-24T10:09:32Z</time>
      </trkpt>
      <trkpt lat="46.4979730" lon="6.7103610">
        <ele>465.5</ele>
        <time>2019-02-24T10:09:33Z</time>
      </trkpt>
      <trkpt lat="46.4979500" lon="6.7103840">
        <ele>465.6</ele>
        <time>2019-02-24T10:09:34Z</time>
      </trkpt>
      <trkpt lat="46.4979270" lon="6.7104080">
        <ele>465.7</ele>
        <time>2019-02-24T10:09:35Z</time>
      </trkpt>
      <trkpt lat="46.4979050" lon="6.7104310">
        <ele>465.8</ele>
        <time>2019-02-24T10:09:36Z</time>
      </trkpt>
      <trkpt lat="46.4978820" lon="6.7104550">
        <ele>465.9</ele>
        <time>2019-02-24T10:09:37Z</time>
      </trkpt>
      <trkpt lat="46.4978600" lon="6.7104780">
        <ele>466.1</ele>
        <time>2019-02-24T10:09:38Z</time>
      </trkpt>
      <trkpt lat="46.4978380" lon="6.7105020">
        <ele>466.2</ele>
        <time>2019-02-24T10:09:39Z</time>
      </trkpt>
      <trkpt lat="46.4978160" lon="6.7105250">
        <ele>466.3</ele>
        <time>2019-02-24T10:09:40Z</time>
      </trkpt>
      <trkpt lat="46.4977940" lon="6.7105490">
        <ele>466.4</ele>
        <time>2019-02-24T10:09:41Z</time>
      </trkpt>
      <trkpt lat="46.4977720" lon="6.7105730">
        <ele>466.6</ele>
        <time>2019-02-24T10:09:42Z</time>
      </trkpt>
      <trkpt lat="46.4977510" lon="6.7105960">
        <ele>466.7</ele>
        <time>2019-02-24T10:09:43Z</time>
      </trkpt>
      <trkpt lat="46.4977290" lon="6.7106200">
        <ele>466.8</ele>
        <time>2019-02-24T10:09:44Z</time>
      </trkpt>
      <trkpt lat="46.4977080" lon="6.7106440">
        <ele>466.9</ele>
        <time>2019-02-24T10:09:45Z</time>
      </trkpt>
      <trkpt lat="46.4976860" lon="6.7106670">
        <ele>467.0</ele>
        <time>2019-02-24T10:09:46Z</time>
      </trkpt>
      <trkpt lat="46.4976650" lon="6.7106910">
        <ele>467.2</ele>
        <time>2019-02-24T10:09:47Z</time>
      </trkpt>
      <trkpt lat="46.4976440" lon="6.7107140">
        <ele>467.3</ele>
        <time>2019-02-24T10:09:48Z</time>
      </trkpt>
      <trkpt lat="46.4976230" lon="6.7107370">
        <ele>467.4</ele>
        <time>2019-02-24T10:09:49Z</time>
      </trkpt>
      <trkpt lat="46.4976020" lon="6.7107600">
        <ele>467.5</ele>
        <time>2019-02-24T10:09:50Z</time>
      </trkpt>
      <trkpt lat="46.4975810" lon="6.7107840">
        <ele>467.6</ele>
        <time>2019-02-24T10:09:51Z</time>
      </trkpt>
      <trkpt lat="46.4975600" lon="6.7108070">
        <ele>467.8</ele>
        <time>2019-02-24T10:09:52Z</time>
      </trkpt>
      <trkpt lat="46.4975400" lon="6.7108300">
        <ele>467.9</ele>
        <time>2019-02-24T10:09:53Z</time>
      </trkpt>
      <trkpt lat="46.4975190" lon="6.7108530">
        <ele>468.0</ele>
        <time>2019-02-24T10:09:54Z</time>
      </trkpt>
      <trkpt lat="46.4974980" lon="6.7108760">
        <ele>468.2</ele>
        <time>2019-02-24T10:09:55Z</time>
      </trkpt>
      <trkpt lat="46.4974770" lon="6.7108990">
        <ele>468.4</ele>
        <time>2019-02-24T10:09:56Z</time>
      </trkpt>
      <trkpt lat="46.4974560" lon="6.7109220">
        <ele>468.7</ele>
        <time>2019-02-24T10:09:57Z</time>
      </trkpt>
      <trkpt lat="46.4974360" lon="6.7109450">
        <ele>468.9</ele>
        <time>2019-02-24T10:09:58Z</time>
      </trkpt>
      <trkpt lat="46.4974150" lon="6.7109690">
        <ele>469.2</ele>
        <time>2019-02-24T10:09:59Z</time>
      </trkpt>
      <trkpt lat="46.4973940" lon="6.7109920">
        <ele>469.4</ele>
        <time>2019-02-24T10:10:00Z</time>
      </trkpt>
      <trkpt lat="46.4973730" lon="6.7110160">
        <ele>469.5</ele>
        <time>2019-02-24T10:10:01Z</time>
      </trkpt>
      <trkpt lat="46.4973510" lon="6.7110400">
        <ele>469.7</ele>
        <time>2019-02-24T10:10:02Z</time>
      </trkpt>
      <trkpt lat="46.4973300" lon="6.7110640">
        <ele>469.9</ele>
        <time>2019-02-24T10:10:03Z</time>
      </trkpt>
      <trkpt lat="46.4973090" lon="6.7110880">
        <ele>470.1</ele>
        <time>2019-02-24T10:10:04Z</time>
      </trkpt>
      <trkpt lat="46.4972870" lon="6.7111120">
        <ele>470.3</ele>
        <time>2019-02-24T10:10:05Z</time>
      </trkpt>
      <trkpt lat="46.4972660" lon="6.7111370">
        <ele>470.4</ele>
        <time>2019-02-24T10:10:06Z</time>
      </trkpt>
      <trkpt lat="46.4972440" lon="6.7111620">
        <ele>470.6</ele>
        <time>2019-02-24T10:10:07Z</time>
      </trkpt>
      <trkpt lat="46.4972220" lon="6.7111860">
        <ele>470.8</ele>
        <time>2019-02-24T10:10:08Z</time>
      </trkpt>
      <trkpt lat="46.4972000" lon="6.7112110">
        <ele>471.0</ele>
        <time>2019-02-24T10:10:09Z</time>
      </trkpt>
      <trkpt lat="46.4971780" lon="6.7112370">
        <ele>471.2</ele>
        <time>2019-02-24T10:10:10Z</time>
      </trkpt>
      <trkpt lat="46.4971560" lon="6.7112620">
        <ele>471.4</ele>
        <time>2019-02-24T10:10:11Z</time>
      </trkpt>
      <trkpt lat="46.4971350" lon="6.7112870">
        <ele>471.6</ele>
        <time>2019-02-24T10:10:12Z</time>
      </trkpt>
      <trkpt lat="46.4971130" lon="6.7113120">
        <ele>471.8</ele>
        <time>2019-02-24T10:10:13Z</time>
      </trkpt>
      <trkpt lat="46.4970910" lon="6.7113370">
        <ele>472.0</ele>
        <time>2019-02-24T10:10:14Z</time>
      </trkpt>
      <trkpt lat="46.4970690" lon="6.7113620">
        <ele>472.2</ele>
        <time>2019-02-24T10:10:15Z</time>
      </trkpt>
      <trkpt lat="46.4970480" lon="6.7113870">
        <ele>472.4</ele>
        <time>2019-02-24T10:10:16Z</time>
      </trkpt>
      <trkpt lat="46.4970260" lon="6.7114120">
        <ele>472.6</ele>
        <time>2019-02-24T10:10:17Z</time>
      </trkpt>
      <trkpt lat="46.4970050" lon="6.7114370">
        <ele>472.8</ele>
        <time>2019-02-24T10:10:18Z</time>
      </trkpt>
      <trkpt lat="46.4969840" lon="6.7114610">
        <ele>473.4</ele>
        <time>2019-02-24T10:10:19Z</time>
      </trkpt>
      <trkpt lat="46.4969630" lon="6.7114850">
        <ele>473.8</ele>
        <time>2019-02-24T10:10:20Z</time>
      </trkpt>
      <trkpt lat="46.4969420" lon="6.7115090">
        <ele>474.1</ele>
        <time>2019-02-24T10:10:21Z</time>
      </trkpt>
      <trkpt lat="46.4969220" lon="6.7115330">
        <ele>474.5</ele>
        <time>2019-02-24T10:10:22Z</time>
      </trkpt>
      <trkpt lat="46.4969020" lon="6.7115570">
        <ele>475.3</ele>
        <time>2019-02-24T10:10:23Z</time>
      </trkpt>
      <trkpt lat="46.4968810" lon="6.7115800">
        <ele>475.6</ele>
        <time>2019-02-24T10:10:24Z</time>
      </trkpt>
      <trkpt lat="46.4968620" lon="6.7116030">
        <ele>475.8</ele>
        <time>2019-02-24T10:10:25Z</time>
      </trkpt>
      <trkpt lat="46.4968420" lon="6.7116260">
        <ele>476.1</ele>
        <time>2019-02-24T10:10:26Z</time>
      </trkpt>
      <trkpt lat="46.4968230" lon="6.7116490">
        <ele>476.4</ele>
        <time>2019-02-24T10:10:27Z</time>
      </trkpt>
      <trkpt lat="46.4968030" lon="6.7116720">
        <ele>476.6</ele>
        <time>2019-02-24T10:10:28Z</time>
      </trkpt>
      <trkpt lat="46.4967840" lon="6.7116940">
        <ele>476.9</ele>
        <time>2019-02-24T10:10:29Z</time>
      </trkpt>
      <trkpt lat="46.4967650" lon="6.7117160">
        <ele>477.1</ele>
        <time>2019-02-24T10:10:30Z</time>
      </trkpt>
      <trkpt lat="46.4967470" lon="6.7117380">
        <ele>477.4</ele>
        <time>2019-02-24T10:10:31Z</time>
      </trkpt>
      <trkpt lat="46.4967280" lon="6.7117600">
        <ele>477.5</ele>
        <time>2019-02-24T10:10:32Z</time>
      </trkpt>
      <trkpt lat="46.4967090" lon="6.7117820">
        <ele>477.6</ele>
        <time>2019-02-24T10:10:33Z</time>
      </trkpt>
      <trkpt lat="46.4966910" lon="6.7118030">
        <ele>477.7</ele>
        <time>2019-02-24T10:10:34Z</time>
      </trkpt>
      <trkpt lat="46.4966720" lon="6.7118240">
        <ele>477.8</ele>
        <time>2019-02-24T10:10:35Z</time>
      </trkpt>
      <trkpt lat="46.4966530" lon="6.7118450">
        <ele>477.9</ele>
        <time>2019-02-24T10:10:36Z</time>
      </trkpt>
      <trkpt lat="46.4966340" lon="6.7118640">
        <ele>478.0</ele>
        <time>2019-02-24T10:10:37Z</time>
      </trkpt>
      <trkpt lat="46.4966150" lon="6.7118840">
        <ele>478.1</ele>
        <time>2019-02-24T10:10:38Z</time>
      </trkpt>
      <trkpt lat="46.4965950" lon="6.7119030">
        <ele>478.1</ele>
        <time>2019-02-24T10:10:39Z</time>
      </trkpt>
      <trkpt lat="46.4965750" lon="6.7119210">
        <ele>478.2</ele>
        <time>2019-02-24T10:10:40Z</time>
      </trkpt>
      <trkpt lat="46.4965550" lon="6.7119390">
        <ele>478.3</ele>
        <time>2019-02-24T10:10:41Z</time>
      </trkpt>
      <trkpt lat="46.4965340" lon="6.7119550">
        <ele>478.4</ele>
        <time>2019-02-24T10:10:42Z</time>
      </trkpt>
      <trkpt lat="46.4965140" lon="6.7119710">
        <ele>478.4</ele>
        <time>2019-02-24T10:10:43Z</time>
      </trkpt>
      <trkpt lat="46.4964930" lon="6.7119870">
        <ele>478.5</ele>
        <time>2019-02-24T10:10:44Z</time>
      </trkpt>
      <trkpt lat="46.4964720" lon="6.7120010">
        <ele>478.6</ele>
        <time>2019-02-24T10:10:45Z</time>
      </trkpt>
      <trkpt lat="46.4964510" lon="6.7120140">
        <ele>478.7</ele>
        <time>2019-02-24T10:10:46Z</time>
      </trkpt>
      <trkpt lat="46.4964290" lon="6.7120270">
        <ele>478.7</ele>
        <time>2019-02-24T10:10:47Z</time>
      </trkpt>
      <trkpt lat="46.4964080" lon="6.7120380">
        <ele>478.8</ele>
        <time>2019-02-24T10:10:48Z</time>
      </trkpt>
      <trkpt lat="46.4963860" lon="6.7120480">
        <ele>478.9</ele>
        <time>2019-02-24T10:10:49Z</time>
      </trkpt>
      <trkpt lat="46.4963640" lon="6.7120570">
        <ele>478.9</ele>
        <time>2019-02-24T10:10:50Z</time>
      </trkpt>
      <trkpt lat="46.4963420" lon="6.7120650">
        <ele>479.0</ele>
        <time>2019-02-24T10:10:51Z</time>
      </trkpt>
      <trkpt lat="46.4963200" lon="6.7120720">
        <ele>479.1</ele>
        <time>2019-02-24T10:10:52Z</time>
      </trkpt>
      <trkpt lat="46.4962980" lon="6.7120770">
        <ele>479.1</ele>
        <time>2019-02-24T10:10:53Z</time>
      </trkpt>
      <trkpt lat="46.4962750" lon="6.7120810">
        <ele>479.2</ele>
        <time>2019-02-24T10:10:54Z</time>
      </trkpt>
      <trkpt lat="46.4962530" lon="6.7120840">
        <ele>479.2</ele>
        <time>2019-02-24T10:10:55Z</time>
      </trkpt>
      <trkpt lat="46.4962300" lon="6.7120850">
        <ele>479.3</ele>
        <time>2019-02-24T10:10:56Z</time>
      </trkpt>
      <trkpt lat="46.4962080" lon="6.7120860">
        <ele>479.4</ele>
        <time>2019-02-24T10:10:57Z</time>
      </trkpt>
      <trkpt lat="46.4961850" lon="6.7120860">
        <ele>479.4</ele>
        <time>2019-02-24T10:10:58Z</time>
      </trkpt>
      <trkpt lat="46.4961620" lon="6.7120850">
        <ele>479.5</ele>
        <time>2019-02-24T10:10:59Z</time>
      </trkpt>
      <trkpt lat="46.4961390" lon="6.7120830">
        <ele>479.6</ele>
        <time>2019-02-24T10:11:00Z</time>
      </trkpt>
      <trkpt lat="46.4961170" lon="6.7120810">
        <ele>479.7</ele>
        <time>2019-02-24T10:11:01Z</time>
      </trkpt>
      <trkpt lat="46.4960940" lon="6.7120780">
        <ele>479.7</ele>
        <time>2019-02-24T10:11:02Z</time>
      </trkpt>
      <trkpt lat="46.4960710" lon="6.7120750">
        <ele>479.8</ele>
        <time>2019-02-24T10:11:03Z</time>
      </trkpt>
      <trkpt lat="46.4960480" lon="6.7120720">
        <ele>479.9</ele>
        <time>2019-02-24T10:11:04Z</time>
      </trkpt>
      <trkpt lat="46.4960250" lon="6.7120690">
        <ele>479.9</ele>
        <time>2019-02-24T10:11:05Z</time>
      </trkpt>
      <trkpt lat="46.4960020" lon="6.7120660">
        <ele>480.0</ele>
        <time>2019-02-24T10:11:06Z</time>
      </trkpt>
      <trkpt lat="46.4959790" lon="6.7120640">
        <ele>480.1</ele>
        <time>2019-02-24T10:11:07Z</time>
      </trkpt>
      <trkpt lat="46.4959570" lon="6.7120610">
        <ele>480.2</ele>
        <time>2019-02-24T10:11:08Z</time>
      </trkpt>
      <trkpt lat="46.4959340" lon="6.7120590">
        <ele>480.2</ele>
        <time>2019-02-24T10:11:09Z</time>
      </trkpt>
      <trkpt lat="46.4959110" lon="6.7120580">
        <ele>480.3</ele>
        <time>2019-02-24T10:11:10Z</time>
      </trkpt>
      <trkpt lat="46.4958890" lon="6.7120570">
        <ele>480.4</ele>
        <time>2019-02-24T10:11:11Z</time>
      </trkpt>
      <trkpt lat="46.4958660" lon="6.7120570">
        <ele>480.5</ele>
        <time>2019-02-24T10:11:12Z</time>
      </trkpt>
      <trkpt lat="46.4958440" lon="6.7120570">
        <ele>480.5</ele>
        <time>2019-02-24T10:11:13Z</time>
      </trkpt>
      <trkpt lat="46.4958210" lon="6.7120580">
        <ele>480.6</ele>
        <time>2019-02-24T10:11:14Z</time>
      </trkpt>
      <trkpt lat="46.4957990" lon="6.7120600">
        <ele>480.7</ele>
        <time>2019-02-24T10:11:15Z</time>
      </trkpt>
      <trkpt lat="46.4957760" lon="6.7120630">
        <ele>480.7</ele>
        <time>2019-02-24T10:11:16Z</time>
      </trkpt>
      <trkpt lat="46.4957540" lon="6.7120660">
        <ele>480.8</ele>
        <time>2019-02-24T10:11:17Z</time>
      </trkpt>
      <trkpt lat="46.4957310" lon="6.7120700">
        <ele>480.9</ele>
        <time>2019-02-24T10:11:18Z</time>
      </trkpt>
      <trkpt lat="46.4957090" lon="6.7120750">
        <ele>481.0</ele>
        <time>2019-02-24T10:11:19Z</time>
      </trkpt>
      <trkpt lat="46.4956860" lon="6.7120800">
        <ele>481.0</ele>
        <time>2019-02-24T10:11:20Z</time>
      </trkpt>
      <trkpt lat="46.4956630" lon="6.7120870">
        <ele>481.1</ele>
        <time>2019-02-24T10:11:21Z</time>
      </trkpt>
      <trkpt lat="46.4956410" lon="6.7120940">
        <ele>481.2</ele>
        <time>2019-02-24T10:11:22Z</time>
      </trkpt>
      <trkpt lat="46.4956180" lon="6.7121020">
        <ele>481.2</ele>
        <time>2019-02-24T10:11:23Z</time>
      </trkpt>
      <trkpt lat="46.4955950" lon="6.7121110">
        <ele>481.3</ele>
        <time>2019-02-24T10:11:24Z</time>
      </trkpt>
      <trkpt lat="46.4955720" lon="6.7121200">
        <ele>481.4</ele>
        <time>2019-02-24T10:11:25Z</time>
      </trkpt>
      <trkpt lat="46.4955490" lon="6.7121310">
        <ele>481.5</ele>
        <time>2019-02-24T10:11:26Z</time>
      </trkpt>
      <trkpt lat="46.4955270" lon="6.7121440">
        <ele>481.6</ele>
        <time>2019-02-24T10:11:27Z</time>
      </trkpt>
      <trkpt lat="46.4955050" lon="6.7121580">
        <ele>481.7</ele>
        <time>2019-02-24T10:11:28Z</time>
      </trkpt>
      <trkpt lat="46.4954840" lon="6.7121750">
        <ele>481.8</ele>
        <time>2019-02-24T10:11:29Z</time>
      </trkpt>
      <trkpt lat="46.4954640" lon="6.7121950">
        <ele>481.9</ele>
        <time>2019-02-24T10:11:30Z</time>
      </trkpt>
      <trkpt lat="46.4954450" lon="6.7122170">
        <ele>482.0</ele>
        <time>2019-02-24T10:11:31Z</time>
      </trkpt>
      <trkpt lat="46.4954260" lon="6.7122410">
        <ele>482.1</ele>
        <time>2019-02-24T10:11:32Z</time>
      </trkpt>
      <trkpt lat="46.4954080" lon="6.7122660">
        <ele>482.3</ele>
        <time>2019-02-24T10:11:33Z</time>
      </trkpt>
      <trkpt lat="46.4953890" lon="6.7122910">
        <ele>482.4</ele>
        <time>2019-02-24T10:11:34Z</time>
      </trkpt>
      <trkpt lat="46.4953700" lon="6.7123150">
        <ele>482.5</ele>
        <time>2019-02-24T10:11:35Z</time>
      </trkpt>
      <trkpt lat="46.4953510" lon="6.7123390">
        <ele>482.7</ele>
        <time>2019-02-24T10:11:36Z</time>
      </trkpt>
      <trkpt lat="46.4953320" lon="6.7123630">
        <ele>482.8</ele>
        <time>2019-02-24T10:11:37Z</time>
      </trkpt>
      <trkpt lat="46.4953130" lon="6.7123860">
        <ele>482.9</ele>
        <time>2019-02-24T10:11:38Z</time>
      </trkpt>
      <trkpt lat="46.4952950" lon="6.7124090">
        <ele>483.0</ele>
        <time>2019-02-24T10:11:39Z</time>
      </trkpt>
      <trkpt lat="46.4952760" lon="6.7124310">
        <ele>483.1</ele>
        <time>2019-02-24T10:11:40Z</time>
      </trkpt>
      <trkpt lat="46.4952580" lon="6.7124540">
        <ele>483.2</ele>
        <time>2019-02-24T10:11:41Z</time>
      </trkpt>
      <trkpt lat="46.4952400" lon="6.7124780">
        <ele>483.3</ele>
        <time>2019-02-24T10:11:42Z</time>
      </trkpt>
      <trkpt lat="46.4952220" lon="6.7125010">
        <ele>483.4</ele>
        <time>2019-02-24T10:11:43Z</time>
      </trkpt>
      <trkpt lat="46.4952050" lon="6.7125260">
        <ele>483.5</ele>
        <time>2019-02-24T10:11:44Z</time>
      </trkpt>
      <trkpt lat="46.4951880" lon="6.7125510">
        <ele>483.6</ele>
        <time>2019-02-24T10:11:45Z</time>
      </trkpt>
      <trkpt lat="46.4951710" lon="6.7125770">
        <ele>483.7</ele>
        <time>2019-02-24T10:11:46Z</time>
      </trkpt>
      <trkpt lat="46.4951550" lon="6.7126030">
        <ele>483.8</ele>
        <time>2019-02-24T10:11:47Z</time>
      </trkpt>
      <trkpt lat="46.4951400" lon="6.7126310">
        <ele>483.9</ele>
        <time>2019-02-24T10:11:48Z</time>
      </trkpt>
      <trkpt lat="46.4951260" lon="6.7126600">
        <ele>484.0</ele>
        <time>2019-02-24T10:11:49Z</time>
      </trkpt>
      <trkpt lat="46.4951120" lon="6.7126900">
        <ele>484.0</ele>
        <time>2019-02-24T10:11:50Z</time>
      </trkpt>
      <trkpt lat="46.4951000" lon="6.7127210">
        <ele>484.1</ele>
        <time>2019-02-24T10:11:51Z</time>
      </trkpt>
      <trkpt lat="46.4950880" lon="6.7127530">
        <ele>484.2</ele>
        <time>2019-02-24T10:11:52Z</time>
      </trkpt>
      <trkpt lat="46.4950780" lon="6.7127850">
        <ele>484.3</ele>
        <time>2019-02-24T10:11:53Z</time>
      </trkpt>
      <trkpt lat="46.4950690" lon="6.7128180">
        <ele>484.4</ele>
        <time>2019-02-24T10:11:54Z</time>
      </trkpt>
      <trkpt lat="46.4950620" lon="6.7128520">
        <ele>484.5</ele>
        <time>2019-02-24T10:11:55Z</time>
      </trkpt>
      <trkpt lat="46.4950560" lon="6.7128850">
        <ele>484.9</ele>
        <time>2019-02-24T10:11:56Z</time>
      </trkpt>
      <trkpt lat="46.4950520" lon="6.7129190">
        <ele>485.4</ele>
        <time>2019-02-24T10:11:57Z</time>
      </trkpt>
      <trkpt lat="46.4950490" lon="6.7129530">
        <ele>485.8</ele>
        <time>2019-02-24T10:11:58Z</time>
      </trkpt>
      <trkpt lat="46.4950480" lon="6.7129870">
        <ele>486.2</ele>
        <time>2019-02-24T10:11:59Z</time>
      </trkpt>
      <trkpt lat="46.4950480" lon="6.7130210">
        <ele>486.6</ele>
        <time>2019-02-24T10:12:00Z</time>
      </trkpt>
      <trkpt lat="46.4950490" lon="6.7130540">
        <ele>487.0</ele>
        <time>2019-02-24T10:12:01Z</time>
      </trkpt>
      <trkpt lat="46.4950500" lon="6.7130870">
        <ele>487.4</ele>
        <time>2019-02-24T10:12:02Z</time>
      </trkpt>
      <trkpt lat="46.4950520" lon="6.7131200">
        <ele>487.9</ele>
        <time>2019-02-24T10:12:03Z</time>
      </trkpt>
      <trkpt lat="46.4950540" lon="6.7131530">
        <ele>488.3</ele>
        <time>2019-02-24T10:12:04Z</time>
      </trkpt>
      <trkpt lat="46.4950560" lon="6.7131860">
        <ele>488.7</ele>
        <time>2019-02-24T10:12:05Z</time>
      </trkpt>
      <trkpt lat="46.4950580" lon="6.7132180">
        <ele>489.1</ele>
        <time>2019-02-24T10:12:06Z</time>
      </trkpt>
      <trkpt lat="46.4950600" lon="6.7132510">
        <ele>489.5</ele>
        <time>2019-02-24T10:12:07Z</time>
      </trkpt>
      <trkpt lat="46.4950610" lon="6.7132830">
        <ele>490.5</ele>
        <time>2019-02-24T10:12:08Z</time>
      </trkpt>
      <trkpt lat="46.4950630" lon="6.7133150">
        <ele>490.7</ele>
        <time>2019-02-24T10:12:09Z</time>
      </trkpt>
      <trkpt lat="46.4950640" lon="6.7133470">
        <ele>491.0</ele>
        <time>2019-02-24T10:12:10Z</time>
      </trkpt>
      <trkpt lat="46.4950650" lon="6.7133780">
        <ele>491.2</ele>
        <time>2019-02-24T10:12:11Z</time>
      </trkpt>
      <trkpt lat="46.4950660" lon="6.7134100">
        <ele>491.4</ele>
        <time>2019-02-24T10:12:12Z</time>
      </trkpt>
      <trkpt lat="46.4950670" lon="6.7134430">
        <ele>491.7</ele>
        <time>2019-02-24T10:12:13Z</time>
      </trkpt>
      <trkpt lat="46.4950680" lon="6.7134750">
        <ele>491.9</ele>
        <time>2019-02-24T10:12:14Z</time>
      </trkpt>
      <trkpt lat="46.4950690" lon="6.7135070">
        <ele>492.2</ele>
        <time>2019-02-24T10:12:15Z</time>
      </trkpt>
      <trkpt lat="46.4950710" lon="6.7135400">
        <ele>492.4</ele>
        <time>2019-02-24T10:12:16Z</time>
      </trkpt>
      <trkpt lat="46.4950720" lon="6.7135730">
        <ele>492.7</ele>
        <time>2019-02-24T10:12:17Z</time>
      </trkpt>
      <trkpt lat="46.4950730" lon="6.7136060">
        <ele>492.9</ele>
        <time>2019-02-24T10:12:18Z</time>
      </trkpt>
      <trkpt lat="46.4950740" lon="6.7136390">
        <ele>493.1</ele>
        <time>2019-02-24T10:12:19Z</time>
      </trkpt>
      <trkpt lat="46.4950750" lon="6.7136720">
        <ele>493.4</ele>
        <time>2019-02-24T10:12:20Z</time>
      </trkpt>
      <trkpt lat="46.4950770" lon="6.7137060">
        <ele>493.6</ele>
        <time>2019-02-24T10:12:21Z</time>
      </trkpt>
      <trkpt lat="46.4950780" lon="6.7137390">
        <ele>493.9</ele>
        <time>2019-02-24T10:12:22Z</time>
      </trkpt>
      <trkpt lat="46.4950790" lon="6.7137730">
        <ele>494.1</ele>
        <time>2019-02-24T10:12:23Z</time>
      </trkpt>
      <trkpt lat="46.4950810" lon="6.7138060">
        <ele>494.4</ele>
        <time>2019-02-24T10:12:24Z</time>
      </trkpt>
      <trkpt lat="46.4950820" lon="6.7138400">
        <ele>494.6</ele>
        <time>2019-02-24T10:12:25Z</time>
      </trkpt>
      <trkpt lat="46.4950840" lon="6.7138740">
        <ele>494.9</ele>
        <time>2019-02-24T10:12:26Z</time>
      </trkpt>
      <trkpt lat="46.4950850" lon="6.7139080">
        <ele>495.1</ele>
        <time>2019-02-24T10:12:27Z</time>
      </trkpt>
      <trkpt lat="46.4950870" lon="6.7139410">
        <ele>495.3</ele>
        <time>2019-02-24T10:12:28Z</time>
      </trkpt>
      <trkpt lat="46.4950880" lon="6.7139750">
        <ele>495.6</ele>
        <time>2019-02-24T10:12:29Z</time>
      </trkpt>
      <trkpt lat="46.4950900" lon="6.7140090">
        <ele>495.8</ele>
        <time>2019-02-24T10:12:30Z</time>
      </trkpt>
      <trkpt lat="46.4950920" lon="6.7140430">
        <ele>496.0</ele>
        <time>2019-02-24T10:12:31Z</time>
      </trkpt>
      <trkpt lat="46.4950940" lon="6.7140770">
        <ele>496.3</ele>
        <time>2019-02-24T10:12:32Z</time>
      </trkpt>
      <trkpt lat="46.4950960" lon="6.7141110">
        <ele>496.5</ele>
        <time>2019-02-24T10:12:33Z</time>
      </trkpt>
      <trkpt lat="46.4950970" lon="6.7141440">
        <ele>496.7</ele>
        <time>2019-02-24T10:12:34Z</time>
      </trkpt>
      <trkpt lat="46.4950990" lon="6.7141780">
        <ele>497.0</ele>
        <time>2019-02-24T10:12:35Z</time>
      </trkpt>
      <trkpt lat="46.4951010" lon="6.7142120">
        <ele>497.2</ele>
        <time>2019-02-24T10:12:36Z</time>
      </trkpt>
      <trkpt lat="46.4951030" lon="6.7142450">
        <ele>497.4</ele>
        <time>2019-02-24T10:12:37Z</time>
      </trkpt>
      <trkpt lat="46.4951040" lon="6.7142790">
        <ele>497.6</ele>
        <time>2019-02-24T10:12:38Z</time>
      </trkpt>
      <trkpt lat="46.4951060" lon="6.7143120">
        <ele>497.8</ele>
        <time>2019-02-24T10:12:39Z</time>
      </trkpt>
      <trkpt lat="46.4951080" lon="6.7143460">
        <ele>498.1</ele>
        <time>2019-02-24T10:12:40Z</time>
      </trkpt>
      <trkpt lat="46.4951090" lon="6.7143790">
        <ele>498.3</ele>
        <time>2019-02-24T10:12:41Z</time>
      </trkpt>
      <trkpt lat="46.4951100" lon="6.7144120">
        <ele>498.5</ele>
        <time>2019-02-24T10:12:42Z</time>
      </trkpt>
      <trkpt lat="46.4951120" lon="6.7144450">
        <ele>498.7</ele>
        <time>2019-02-24T10:12:43Z</time>
      </trkpt>
      <trkpt lat="46.4951130" lon="6.7144780">
        <ele>498.9</ele>
        <time>2019-02-24T10:12:44Z</time>
      </trkpt>
      <trkpt lat="46.4951130" lon="6.7145110">
        <ele>499.1</ele>
        <time>2019-02-24T10:12:45Z</time>
      </trkpt>
      <trkpt lat="46.4951140" lon="6.7145430">
        <ele>499.2</ele>
        <time>2019-02-24T10:12:46Z</time>
      </trkpt>
      <trkpt lat="46.4951150" lon="6.7145750">
        <ele>499.4</ele>
        <time>2019-02-24T10:12:47Z</time>
      </trkpt>
      <trkpt lat="46.4951150" lon="6.7146070">
        <ele>499.6</ele>
        <time>2019-02-24T10:12:48Z</time>
      </trkpt>
      <trkpt lat="46.4951140" lon="6.7146390">
        <ele>499.8</ele>
        <time>2019-02-24T10:12:49Z</time>
      </trkpt>
      <trkpt lat="46.4951120" lon="6.7146700">
        <ele>499.9</ele>
        <time>2019-02-24T10:12:50Z</time>
      </trkpt>
      <trkpt lat="46.4951080" lon="6.7147010">
        <ele>500.1</ele>
        <time>2019-02-24T10:12:51Z</time>
      </trkpt>
      <trkpt lat="46.4951020" lon="6.7147310">
        <ele>500.0</ele>
        <time>2019-02-24T10:12:52Z</time>
      </trkpt>
      <trkpt lat="46.4950940" lon="6.7147590">
        <ele>499.7</ele>
        <time>2019-02-24T10:12:53Z</time>
      </trkpt>
      <trkpt lat="46.4950830" lon="6.7147870">
        <ele>499.4</ele>
        <time>2019-02-24T10:12:54Z</time>
      </trkpt>
      <trkpt lat="46.4950690" lon="6.7148140">
        <ele>499.1</ele>
        <time>2019-02-24T10:12:55Z</time>
      </trkpt>
      <trkpt lat="46.4950510" lon="6.7148410">
        <ele>498.7</ele>
        <time>2019-02-24T10:12:56Z</time>
      </trkpt>
      <trkpt lat="46.4950260" lon="6.7148680">
        <ele>498.3</ele>
        <time>2019-02-24T10:12:57Z</time>
      </trkpt>
      <trkpt lat="46.4949930" lon="6.7148970">
        <ele>497.9</ele>
        <time>2019-02-24T10:12:58Z</time>
      </trkpt>
      <trkpt lat="46.4949520" lon="6.7149270">
        <ele>497.3</ele>
        <time>2019-02-24T10:12:59Z</time>
      </trkpt>
      <trkpt lat="46.4948790" lon="6.7149810">
        <ele>496.4</ele>
        <time>2019-02-24T10:13:00Z</time>
      </trkpt>
      <trkpt lat="46.4948530" lon="6.7150010">
        <ele>496.1</ele>
        <time>2019-02-24T10:13:01Z</time>
      </trkpt>
      <trkpt lat="46.4948010" lon="6.7150410">
        <ele>495.7</ele>
        <time>2019-02-24T10:13:02Z</time>
      </trkpt>
      <trkpt lat="46.4947510" lon="6.7150900">
        <ele>495.3</ele>
        <time>2019-02-24T10:13:03Z</time>
      </trkpt>
      <trkpt lat="46.4947040" lon="6.7151420">
        <ele>495.1</ele>
        <time>2019-02-24T10:13:04Z</time>
      </trkpt>
      <trkpt lat="46.4946600" lon="6.7151970">
        <ele>494.9</ele>
        <time>2019-02-24T10:13:05Z</time>
      </trkpt>
      <trkpt lat="46.4946200" lon="6.7152510">
        <ele>494.7</ele>
        <time>2019-02-24T10:13:06Z</time>
      </trkpt>
      <trkpt lat="46.4945830" lon="6.7153030">
        <ele>494.4</ele>
        <time>2019-02-24T10:13:07Z</time>
      </trkpt>
      <trkpt lat="46.4945500" lon="6.7153510">
        <ele>494.2</ele>
        <time>2019-02-24T10:13:08Z</time>
      </trkpt>
      <trkpt lat="46.4945210" lon="6.7153920">
        <ele>493.8</ele>
        <time>2019-02-24T10:13:09Z</time>
      </trkpt>
      <trkpt lat="46.4944950" lon="6.7154260">
        <ele>493.6</ele>
        <time>2019-02-24T10:13:10Z</time>
      </trkpt>
      <trkpt lat="46.4944730" lon="6.7154500">
        <ele>493.5</ele>
        <time>2019-02-24T10:13:11Z</time>
      </trkpt>
      <trkpt lat="46.4944530" lon="6.7154700">
        <ele>493.4</ele>
        <time>2019-02-24T10:13:12Z</time>
      </trkpt>
      <trkpt lat="46.4944360" lon="6.7154900">
        <ele>493.2</ele>
        <time>2019-02-24T10:13:13Z</time>
      </trkpt>
      <trkpt lat="46.4944200" lon="6.7155150">
        <ele>493.1</ele>
        <time>2019-02-24T10:13:14Z</time>
      </trkpt>
      <trkpt lat="46.4944040" lon="6.7155490">
        <ele>493.0</ele>
        <time>2019-02-24T10:13:15Z</time>
      </trkpt>
      <trkpt lat="46.4943880" lon="6.7155890">
        <ele>492.7</ele>
        <time>2019-02-24T10:13:16Z</time>
      </trkpt>
      <trkpt lat="46.4943700" lon="6.7156320">
        <ele>492.6</ele>
        <time>2019-02-24T10:13:17Z</time>
      </trkpt>
      <trkpt lat="46.4943510" lon="6.7156740">
        <ele>492.4</ele>
        <time>2019-02-24T10:13:18Z</time>
      </trkpt>
      <trkpt lat="46.4943290" lon="6.7157120">
        <ele>492.3</ele>
        <time>2019-02-24T10:13:19Z</time>
      </trkpt>
      <trkpt lat="46.4943050" lon="6.7157470">
        <ele>492.2</ele>
        <time>2019-02-24T10:13:20Z</time>
      </trkpt>
      <trkpt lat="46.4942800" lon="6.7157800">
        <ele>492.0</ele>
        <time>2019-02-24T10:13:21Z</time>
      </trkpt>
      <trkpt lat="46.4942560" lon="6.7158120">
        <ele>491.9</ele>
        <time>2019-02-24T10:13:22Z</time>
      </trkpt>
      <trkpt lat="46.4942320" lon="6.7158450">
        <ele>491.8</ele>
        <time>2019-02-24T10:13:23Z</time>
      </trkpt>
      <trkpt lat="46.4942080" lon="6.7158750">
        <ele>491.6</ele>
        <time>2019-02-24T10:13:24Z</time>
      </trkpt>
      <trkpt lat="46.4941800" lon="6.7158990">
        <ele>491.4</ele>
        <time>2019-02-24T10:13:25Z</time>
      </trkpt>
      <trkpt lat="46.4941480" lon="6.7159130">
        <ele>491.1</ele>
        <time>2019-02-24T10:13:26Z</time>
      </trkpt>
      <trkpt lat="46.4941090" lon="6.7159130">
        <ele>490.9</ele>
        <time>2019-02-24T10:13:27Z</time>
      </trkpt>
      <trkpt lat="46.4940670" lon="6.7159060">
        <ele>490.6</ele>
        <time>2019-02-24T10:13:28Z</time>
      </trkpt>
      <trkpt lat="46.4940230" lon="6.7158960">
        <ele>490.3</ele>
        <time>2019-02-24T10:13:29Z</time>
      </trkpt>
      <trkpt lat="46.4939810" lon="6.7158890">
        <ele>490.0</ele>
        <time>2019-02-24T10:13:30Z</time>
      </trkpt>
      <trkpt lat="46.4939440" lon="6.7158900">
        <ele>489.6</ele>
        <time>2019-02-24T10:13:31Z</time>
      </trkpt>
      <trkpt lat="46.4939100" lon="6.7158990">
        <ele>489.4</ele>
        <time>2019-02-24T10:13:32Z</time>
      </trkpt>
      <trkpt lat="46.4938800" lon="6.7159140">
        <ele>489.1</ele>
        <time>2019-02-24T10:13:33Z</time>
      </trkpt>
      <trkpt lat="46.4938530" lon="6.7159350">
        <ele>488.8</ele>
        <time>2019-02-24T10:13:34Z</time>
      </trkpt>
      <trkpt lat="46.4938270" lon="6.7159590">
        <ele>488.5</ele>
        <time>2019-02-24T10:13:35Z</time>
      </trkpt>
      <trkpt lat="46.4938030" lon="6.7159880">
        <ele>488.3</ele>
        <time>2019-02-24T10:13:36Z</time>
      </trkpt>
      <trkpt lat="46.4937790" lon="6.7160200">
        <ele>488.1</ele>
        <time>2019-02-24T10:13:37Z</time>
      </trkpt>
      <trkpt lat="46.4937530" lon="6.7160570">
        <ele>487.9</ele>
        <time>2019-02-24T10:13:38Z</time>
      </trkpt>
      <trkpt lat="46.4937260" lon="6.7160970">
        <ele>487.6</ele>
        <time>2019-02-24T10:13:39Z</time>
      </trkpt>
      <trkpt lat="46.4936970" lon="6.7161410">
        <ele>487.2</ele>
        <time>2019-02-24T10:13:40Z</time>
      </trkpt>
      <trkpt lat="46.4936680" lon="6.7161860">
        <ele>486.8</ele>
        <time>2019-02-24T10:13:41Z</time>
      </trkpt>
      <trkpt lat="46.4936380" lon="6.7162300">
        <ele>486.4</ele>
        <time>2019-02-24T10:13:42Z</time>
      </trkpt>
      <trkpt lat="46.4936090" lon="6.7162740">
        <ele>486.3</ele>
        <time>2019-02-24T10:13:43Z</time>
      </trkpt>
      <trkpt lat="46.4935810" lon="6.7163160">
        <ele>486.2</ele>
        <time>2019-02-24T10:13:44Z</time>
      </trkpt>
      <trkpt lat="46.4935570" lon="6.7163580">
        <ele>486.2</ele>
        <time>2019-02-24T10:13:45Z</time>
      </trkpt>
      <trkpt lat="46.4935370" lon="6.7164000">
        <ele>486.2</ele>
        <time>2019-02-24T10:13:46Z</time>
      </trkpt>
      <trkpt lat="46.4935240" lon="6.7164420">
        <ele>486.1</ele>
        <time>2019-02-24T10:13:47Z</time>
      </trkpt>
      <trkpt lat="46.4935180" lon="6.7164860">
        <ele>486.1</ele>
        <time>2019-02-24T10:13:48Z</time>
      </trkpt>
      <trkpt lat="46.4935220" lon="6.7165320">
        <ele>486.7</ele>
        <time>2019-02-24T10:13:49Z</time>
      </trkpt>
      <trkpt lat="46.4935360" lon="6.7165800">
        <ele>487.2</ele>
        <time>2019-02-24T10:13:50Z</time>
      </trkpt>
      <trkpt lat="46.4935610" lon="6.7166300">
        <ele>487.8</ele>
        <time>2019-02-24T10:13:51Z</time>
      </trkpt>
      <trkpt lat="46.4935950" lon="6.7166810">
        <ele>488.5</ele>
        <time>2019-02-24T10:13:52Z</time>
      </trkpt>
      <trkpt lat="46.4936360" lon="6.7167290">
        <ele>489.3</ele>
        <time>2019-02-24T10:13:53Z</time>
      </trkpt>
      <trkpt lat="46.4936790" lon="6.7167680">
        <ele>490.0</ele>
        <time>2019-02-24T10:13:54Z</time>
      </trkpt>
      <trkpt lat="46.4937220" lon="6.7168070">
        <ele>490.7</ele>
        <time>2019-02-24T10:13:55Z</time>
      </trkpt>
      <trkpt lat="46.4937560" lon="6.7168480">
        <ele>491.4</ele>
        <time>2019-02-24T10:13:56Z</time>
      </trkpt>
      <trkpt lat="46.4937760" lon="6.7169030">
        <ele>492.0</ele>
        <time>2019-02-24T10:13:57Z</time>
      </trkpt>
      <trkpt lat="46.4937860" lon="6.7169650">
        <ele>492.0</ele>
        <time>2019-02-24T10:13:58Z</time>
      </trkpt>
      <trkpt lat="46.4937930" lon="6.7170290">
        <ele>491.9</ele>
        <time>2019-02-24T10:13:59Z</time>
      </trkpt>
      <trkpt lat="46.4937980" lon="6.7170910">
        <ele>491.9</ele>
        <time>2019-02-24T10:14:00Z</time>
      </trkpt>
      <trkpt lat="46.4938010" lon="6.7171520">
        <ele>491.9</ele>
        <time>2019-02-24T10:14:01Z</time>
      </trkpt>
      <trkpt lat="46.4938010" lon="6.7172130">
        <ele>491.8</ele>
        <time>2019-02-24T10:14:02Z</time>
      </trkpt>
      <trkpt lat="46.4938000" lon="6.7172740">
        <ele>491.7</ele>
        <time>2019-02-24T10:14:03Z</time>
      </trkpt>
      <trkpt lat="46.4937970" lon="6.7173340">
        <ele>491.6</ele>
        <time>2019-02-24T10:14:04Z</time>
      </trkpt>
      <trkpt lat="46.4937930" lon="6.7173940">
        <ele>491.5</ele>
        <time>2019-02-24T10:14:05Z</time>
      </trkpt>
      <trkpt lat="46.4937870" lon="6.7174540">
        <ele>491.4</ele>
        <time>2019-02-24T10:14:06Z</time>
      </trkpt>
      <trkpt lat="46.4937800" lon="6.7175150">
        <ele>491.3</ele>
        <time>2019-02-24T10:14:07Z</time>
      </trkpt>
      <trkpt lat="46.4937720" lon="6.7175780">
        <ele>491.2</ele>
        <time>2019-02-24T10:14:08Z</time>
      </trkpt>
      <trkpt lat="46.4937650" lon="6.7176470">
        <ele>491.1</ele>
        <time>2019-02-24T10:14:09Z</time>
      </trkpt>
      <trkpt lat="46.4937600" lon="6.7177220">
        <ele>491.0</ele>
        <time>2019-02-24T10:14:10Z</time>
      </trkpt>
      <trkpt lat="46.4937560" lon="6.7178070">
        <ele>490.9</ele>
        <time>2019-02-24T10:14:11Z</time>
      </trkpt>
      <trkpt lat="46.4937540" lon="6.7178990">
        <ele>490.8</ele>
        <time>2019-02-24T10:14:12Z</time>
      </trkpt>
      <trkpt lat="46.4937520" lon="6.7179970">
        <ele>490.6</ele>
        <time>2019-02-24T10:14:13Z</time>
      </trkpt>
      <trkpt lat="46.4937500" lon="6.7181670">
        <ele>490.5</ele>
        <time>2019-02-24T10:14:14Z</time>
      </trkpt>
      <trkpt lat="46.4937480" lon="6.7182350">
        <ele>490.5</ele>
        <time>2019-02-24T10:14:15Z</time>
      </trkpt>
      <trkpt lat="46.4937470" lon="6.7183040">
        <ele>490.5</ele>
        <time>2019-02-24T10:14:16Z</time>
      </trkpt>
      <trkpt lat="46.4937440" lon="6.7184060">
        <ele>490.4</ele>
        <time>2019-02-24T10:14:17Z</time>
      </trkpt>
      <trkpt lat="46.4937400" lon="6.7185070">
        <ele>490.4</ele>
        <time>2019-02-24T10:14:18Z</time>
      </trkpt>
      <trkpt lat="46.4937300" lon="6.7186720">
        <ele>490.2</ele>
        <time>2019-02-24T10:14:19Z</time>
      </trkpt>
      <trkpt lat="46.4937270" lon="6.7187370">
        <ele>490.2</ele>
        <time>2019-02-24T10:14:20Z</time>
      </trkpt>
      <trkpt lat="46.4937230" lon="6.7188020">
        <ele>490.1</ele>
        <time>2019-02-24T10:14:21Z</time>
      </trkpt>
      <trkpt lat="46.4937180" lon="6.7189000">
        <ele>490.1</ele>
        <time>2019-02-24T10:14:22Z</time>
      </trkpt>
      <trkpt lat="46.4937150" lon="6.7189990">
        <ele>490.2</ele>
        <time>2019-02-24T10:14:23Z</time>
      </trkpt>
      <trkpt lat="46.4937150" lon="6.7190970">
        <ele>490.3</ele>
        <time>2019-02-24T10:14:24Z</time>
      </trkpt>
      <trkpt lat="46.4937180" lon="6.7191930">
        <ele>490.5</ele>
        <time>2019-02-24T10:14:25Z</time>
      </trkpt>
      <trkpt lat="46.4937250" lon="6.7192830">
        <ele>490.6</ele>
        <time>2019-02-24T10:14:26Z</time>
      </trkpt>
      <trkpt lat="46.4937380" lon="6.7193680">
        <ele>490.7</ele>
        <time>2019-02-24T10:14:27Z</time>
      </trkpt>
      <trkpt lat="46.4937540" lon="6.7194450">
        <ele>490.9</ele>
        <time>2019-02-24T10:14:28Z</time>
      </trkpt>
      <trkpt lat="46.4937740" lon="6.7195160">
        <ele>491.0</ele>
        <time>2019-02-24T10:14:29Z</time>
      </trkpt>
      <trkpt lat="46.4937940" lon="6.7195800">
        <ele>491.2</ele>
        <time>2019-02-24T10:14:30Z</time>
      </trkpt>
      <trkpt lat="46.4938140" lon="6.7196370">
        <ele>491.3</ele>
        <time>2019-02-24T10:14:31Z</time>
      </trkpt>
      <trkpt lat="46.4938330" lon="6.7196890">
        <ele>491.5</ele>
        <time>2019-02-24T10:14:32Z</time>
      </trkpt>
      <trkpt lat="46.4938510" lon="6.7197360">
        <ele>491.6</ele>
        <time>2019-02-24T10:14:33Z</time>
      </trkpt>
      <trkpt lat="46.4938680" lon="6.7197780">
        <ele>491.7</ele>
        <time>2019-02-24T10:14:34Z</time>
      </trkpt>
      <trkpt lat="46.4938850" lon="6.7198170">
        <ele>491.8</ele>
        <time>2019-02-24T10:14:35Z</time>
      </trkpt>
      <trkpt lat="46.4939000" lon="6.7198530">
        <ele>491.9</ele>
        <time>2019-02-24T10:14:36Z</time>
      </trkpt>
      <trkpt lat="46.4939140" lon="6.7198880">
        <ele>492.0</ele>
        <time>2019-02-24T10:14:37Z</time>
      </trkpt>
      <trkpt lat="46.4939280" lon="6.7199210">
        <ele>492.1</ele>
        <time>2019-02-24T10:14:38Z</time>
      </trkpt>
      <trkpt lat="46.4939400" lon="6.7199540">
        <ele>492.2</ele>
        <time>2019-02-24T10:14:39Z</time>
      </trkpt>
      <trkpt lat="46.4939510" lon="6.7199870">
        <ele>492.2</ele>
        <time>2019-02-24T10:14:40Z</time>
      </trkpt>
      <trkpt lat="46.4939600" lon="6.7200200">
        <ele>492.3</ele>
        <time>2019-02-24T10:14:41Z</time>
      </trkpt>
      <trkpt lat="46.4939680" lon="6.7200530">
        <ele>492.4</ele>
        <time>2019-02-24T10:14:42Z</time>
      </trkpt>
      <trkpt lat="46.4939750" lon="6.7200870">
        <ele>492.5</ele>
        <time>2019-02-24T10:14:43Z</time>
      </trkpt>
      <trkpt lat="46.4939800" lon="6.7201210">
        <ele>492.6</ele>
        <time>2019-02-24T10:14:44Z</time>
      </trkpt>
      <trkpt lat="46.4939840" lon="6.7201550">
        <ele>492.7</ele>
        <time>2019-02-24T10:14:45Z</time>
      </trkpt>
      <trkpt lat="46.4939860" lon="6.7201910">
        <ele>492.8</ele>
        <time>2019-02-24T10:14:46Z</time>
      </trkpt>
      <trkpt lat="46.4939870" lon="6.7202270">
        <ele>492.9</ele>
        <time>2019-02-24T10:14:47Z</time>
      </trkpt>
      <trkpt lat="46.4939860" lon="6.7202650">
        <ele>492.9</ele>
        <time>2019-02-24T10:14:48Z</time>
      </trkpt>
      <trkpt lat="46.4939840" lon="6.7203030">
        <ele>493.0</ele>
        <time>2019-02-24T10:14:49Z</time>
      </trkpt>
      <trkpt lat="46.4939820" lon="6.7203410">
        <ele>493.0</ele>
        <time>2019-02-24T10:14:50Z</time>
      </trkpt>
      <trkpt lat="46.4939800" lon="6.7203800">
        <ele>493.0</ele>
        <time>2019-02-24T10:14:51Z</time>
      </trkpt>
      <trkpt lat="46.4939780" lon="6.7204180">
        <ele>493.0</ele>
        <time>2019-02-24T10:14:52Z</time>
      </trkpt>
      <trkpt lat="46.4939780" lon="6.7204570">
        <ele>493.0</ele>
        <time>2019-02-24T10:14:53Z</time>
      </trkpt>
      <trkpt lat="46.4939790" lon="6.7204940">
        <ele>492.9</ele>
        <time>2019-02-24T10:14:54Z</time>
      </trkpt>
      <trkpt lat="46.4939830" lon="6.7205300">
        <ele>492.9</ele>
        <time>2019-02-24T10:14:55Z</time>
      </trkpt>
      <trkpt lat="46.4939900" lon="6.7205650">
        <ele>492.8</ele>
        <time>2019-02-24T10:14:56Z</time>
      </trkpt>
      <trkpt lat="46.4939990" lon="6.7206000">
        <ele>492.7</ele>
        <time>2019-02-24T10:14:57Z</time>
      </trkpt>
      <trkpt lat="46.4940100" lon="6.7206340">
        <ele>492.6</ele>
        <time>2019-02-24T10:14:58Z</time>
      </trkpt>
      <trkpt lat="46.4940220" lon="6.7206700">
        <ele>492.4</ele>
        <time>2019-02-24T10:14:59Z</time>
      </trkpt>
      <trkpt lat="46.4940340" lon="6.7207070">
        <ele>492.3</ele>
        <time>2019-02-24T10:15:00Z</time>
      </trkpt>
      <trkpt lat="46.4940470" lon="6.7207470">
        <ele>492.2</ele>
        <time>2019-02-24T10:15:01Z</time>
      </trkpt>
      <trkpt lat="46.4940600" lon="6.7207900">
        <ele>491.7</ele>
        <time>2019-02-24T10:15:02Z</time>
      </trkpt>
      <trkpt lat="46.4940710" lon="6.7208370">
        <ele>491.4</ele>
        <time>2019-02-24T10:15:03Z</time>
      </trkpt>
      <trkpt lat="46.4940860" lon="6.7209160">
        <ele>490.9</ele>
        <time>2019-02-24T10:15:04Z</time>
      </trkpt>
      <trkpt lat="46.4940900" lon="6.7209440">
        <ele>490.8</ele>
        <time>2019-02-24T10:15:05Z</time>
      </trkpt>
      <trkpt lat="46.4940980" lon="6.7210050">
        <ele>490.5</ele>
        <time>2019-02-24T10:15:06Z</time>
      </trkpt>
      <trkpt lat="46.4941040" lon="6.7210700">
        <ele>490.1</ele>
        <time>2019-02-24T10:15:07Z</time>
      </trkpt>
      <trkpt lat="46.4941100" lon="6.7211390">
        <ele>489.8</ele>
        <time>2019-02-24T10:15:08Z</time>
      </trkpt>
      <trkpt lat="46.4941160" lon="6.7212640">
        <ele>489.1</ele>
        <time>2019-02-24T10:15:09Z</time>
      </trkpt>
      <trkpt lat="46.4941190" lon="6.7213170">
        <ele>488.9</ele>
        <time>2019-02-24T10:15:10Z</time>
      </trkpt>
      <trkpt lat="46.4941210" lon="6.7213690">
        <ele>488.6</ele>
        <time>2019-02-24T10:15:11Z</time>
      </trkpt>
      <trkpt lat="46.4941240" lon="6.7214530">
        <ele>488.2</ele>
        <time>2019-02-24T10:15:12Z</time>
      </trkpt>
      <trkpt lat="46.4941260" lon="6.7215400">
        <ele>487.8</ele>
        <time>2019-02-24T10:15:13Z</time>
      </trkpt>
      <trkpt lat="46.4941280" lon="6.7216290">
        <ele>487.3</ele>
        <time>2019-02-24T10:15:14Z</time>
      </trkpt>
      <trkpt lat="46.4941300" lon="6.7217200">
        <ele>486.9</ele>
        <time>2019-02-24T10:15:15Z</time>
      </trkpt>
      <trkpt lat="46.4941320" lon="6.7218110">
        <ele>486.4</ele>
        <time>2019-02-24T10:15:16Z</time>
      </trkpt>
      <trkpt lat="46.4941340" lon="6.7219030">
        <ele>485.8</ele>
        <time>2019-02-24T10:15:17Z</time>
      </trkpt>
      <trkpt lat="46.4941360" lon="6.7219940">
        <ele>486.0</ele>
        <time>2019-02-24T10:15:18Z</time>
      </trkpt>
      <trkpt lat="46.4941390" lon="6.7220840">
        <ele>486.2</ele>
        <time>2019-02-24T10:15:19Z</time>
      </trkpt>
      <trkpt lat="46.4941420" lon="6.7221730">
        <ele>486.5</ele>
        <time>2019-02-24T10:15:20Z</time>
      </trkpt>
      <trkpt lat="46.4941450" lon="6.7222600">
        <ele>486.8</ele>
        <time>2019-02-24T10:15:21Z</time>
      </trkpt>
      <trkpt lat="46.4941490" lon="6.7223460">
        <ele>487.1</ele>
        <time>2019-02-24T10:15:22Z</time>
      </trkpt>
      <trkpt lat="46.4941530" lon="6.7224310">
        <ele>487.4</ele>
        <time>2019-02-24T10:15:23Z</time>
      </trkpt>
      <trkpt lat="46.4941570" lon="6.7225140">
        <ele>487.7</ele>
        <time>2019-02-24T10:15:24Z</time>
      </trkpt>
      <trkpt lat="46.4941620" lon="6.7225960">
        <ele>488.0</ele>
        <time>2019-02-24T10:15:25Z</time>
      </trkpt>
      <trkpt lat="46.4941660" lon="6.7226770">
        <ele>488.3</ele>
        <time>2019-02-24T10:15:26Z</time>
      </trkpt>
      <trkpt lat="46.4941700" lon="6.7227560">
        <ele>488.6</ele>
        <time>2019-02-24T10:15:27Z</time>
      </trkpt>
      <trkpt lat="46.4941730" lon="6.7228350">
        <ele>488.8</ele>
        <time>2019-02-24T10:15:28Z</time>
      </trkpt>
      <trkpt lat="46.4941770" lon="6.7229130">
        <ele>489.1</ele>
        <time>2019-02-24T10:15:29Z</time>
      </trkpt>
      <trkpt lat="46.4941800" lon="6.7229910">
        <ele>489.3</ele>
        <time>2019-02-24T10:15:30Z</time>
      </trkpt>
      <trkpt lat="46.4941840" lon="6.7230680">
        <ele>489.5</ele>
        <time>2019-02-24T10:15:31Z</time>
      </trkpt>
      <trkpt lat="46.4941870" lon="6.7231440">
        <ele>489.7</ele>
        <time>2019-02-24T10:15:32Z</time>
      </trkpt>
      <trkpt lat="46.4941910" lon="6.7232200">
        <ele>489.9</ele>
        <time>2019-02-24T10:15:33Z</time>
      </trkpt>
      <trkpt lat="46.4941940" lon="6.7232960">
        <ele>490.1</ele>
        <time>2019-02-24T10:15:34Z</time>
      </trkpt>
      <trkpt lat="46.4941980" lon="6.7233730">
        <ele>490.2</ele>
        <time>2019-02-24T10:15:35Z</time>
      </trkpt>
      <trkpt lat="46.4942030" lon="6.7234490">
        <ele>490.4</ele>
        <time>2019-02-24T10:15:36Z</time>
      </trkpt>
      <trkpt lat="46.4942070" lon="6.7235250">
        <ele>490.5</ele>
        <time>2019-02-24T10:15:37Z</time>
      </trkpt>
      <trkpt lat="46.4942120" lon="6.7236010">
        <ele>490.5</ele>
        <time>2019-02-24T10:15:38Z</time>
      </trkpt>
      <trkpt lat="46.4942170" lon="6.7236760">
        <ele>490.5</ele>
        <time>2019-02-24T10:15:39Z</time>
      </trkpt>
      <trkpt lat="46.4942210" lon="6.7237510">
        <ele>490.5</ele>
        <time>2019-02-24T10:15:40Z</time>
      </trkpt>
      <trkpt lat="46.4942260" lon="6.7238260">
        <ele>490.4</ele>
        <time>2019-02-24T10:15:41Z</time>
      </trkpt>
      <trkpt lat="46.4942300" lon="6.7239000">
        <ele>490.4</ele>
        <time>2019-02-24T10:15:42Z</time>
      </trkpt>
      <trkpt lat="46.4942350" lon="6.7239730">
        <ele>490.4</ele>
        <time>2019-02-24T10:15:43Z</time>
      </trkpt>
      <trkpt lat="46.4942380" lon="6.7240460">
        <ele>490.4</ele>
        <time>2019-02-24T10:15:44Z</time>
      </trkpt>
      <trkpt lat="46.4942420" lon="6.7241170">
        <ele>490.4</ele>
        <time>2019-02-24T10:15:45Z</time>
      </trkpt>
      <trkpt lat="46.4942450" lon="6.7241870">
        <ele>490.3</ele>
        <time>2019-02-24T10:15:46Z</time>
      </trkpt>
      <trkpt lat="46.4942480" lon="6.7242570">
        <ele>490.3</ele>
        <time>2019-02-24T10:15:47Z</time>
      </trkpt>
      <trkpt lat="46.4942510" lon="6.7243260">
        <ele>490.3</ele>
        <time>2019-02-24T10:15:48Z</time>
      </trkpt>
      <trkpt lat="46.4942540" lon="6.7243930">
        <ele>490.3</ele>
        <time>2019-02-24T10:15:49Z</time>
      </trkpt>
      <trkpt lat="46.4942570" lon="6.7244600">
        <ele>490.3</ele>
        <time>2019-02-24T10:15:50Z</time>
      </trkpt>
      <trkpt lat="46.4942600" lon="6.7245260">
        <ele>490.3</ele>
        <time>2019-02-24T10:15:51Z</time>
      </trkpt>
      <trkpt lat="46.4942620" lon="6.7245910">
        <ele>490.3</ele>
        <time>2019-02-24T10:15:52Z</time>
      </trkpt>
      <trkpt lat="46.4942650" lon="6.7246550">
        <ele>490.3</ele>
        <time>2019-02-24T10:15:53Z</time>
      </trkpt>
      <trkpt lat="46.4942680" lon="6.7247180">
        <ele>490.3</ele>
        <time>2019-02-24T10:15:54Z</time>
      </trkpt>
      <trkpt lat="46.4942720" lon="6.7247800">
        <ele>490.4</ele>
        <time>2019-02-24T10:15:55Z</time>
      </trkpt>
      <trkpt lat="46.4942750" lon="6.7248410">
        <ele>490.4</ele>
        <time>2019-02-24T10:15:56Z</time>
      </trkpt>
      <trkpt lat="46.4942790" lon="6.7249010">
        <ele>490.4</ele>
        <time>2019-02-24T10:15:57Z</time>
      </trkpt>
      <trkpt lat="46.4942840" lon="6.7249610">
        <ele>490.4</ele>
        <time>2019-02-24T10:15:58Z</time>
      </trkpt>
      <trkpt lat="46.4942880" lon="6.7250190">
        <ele>490.3</ele>
        <time>2019-02-24T10:15:59Z</time>
      </trkpt>
      <trkpt lat="46.4942940" lon="6.7250760">
        <ele>489.8</ele>
        <time>2019-02-24T10:16:00Z</time>
      </trkpt>
      <trkpt lat="46.4943000" lon="6.7251330">
        <ele>489.4</ele>
        <time>2019-02-24T10:16:01Z</time>
      </trkpt>
      <trkpt lat="46.4943070" lon="6.7251880">
        <ele>489.4</ele>
        <time>2019-02-24T10:16:02Z</time>
      </trkpt>
      <trkpt lat="46.4943160" lon="6.7252420">
        <ele>489.2</ele>
        <time>2019-02-24T10:16:03Z</time>
      </trkpt>
      <trkpt lat="46.4943270" lon="6.7252940">
        <ele>489.2</ele>
        <time>2019-02-24T10:16:04Z</time>
      </trkpt>
      <trkpt lat="46.4943400" lon="6.7253450">
        <ele>489.4</ele>
        <time>2019-02-24T10:16:05Z</time>
      </trkpt>
      <trkpt lat="46.4943560" lon="6.7253940">
        <ele>489.6</ele>
        <time>2019-02-24T10:16:06Z</time>
      </trkpt>
      <trkpt lat="46.4943750" lon="6.7254420">
        <ele>489.9</ele>
        <time>2019-02-24T10:16:07Z</time>
      </trkpt>
      <trkpt lat="46.4943980" lon="6.7254870">
        <ele>490.3</ele>
        <time>2019-02-24T10:16:08Z</time>
      </trkpt>
      <trkpt lat="46.4944220" lon="6.7255320">
        <ele>490.5</ele>
        <time>2019-02-24T10:16:09Z</time>
      </trkpt>
      <trkpt lat="46.4944480" lon="6.7255760">
        <ele>490.9</ele>
        <time>2019-02-24T10:16:10Z</time>
      </trkpt>
      <trkpt lat="46.4944750" lon="6.7256200">
        <ele>491.3</ele>
        <time>2019-02-24T10:16:11Z</time>
      </trkpt>
      <trkpt lat="46.4945020" lon="6.7256650">
        <ele>491.7</ele>
        <time>2019-02-24T10:16:12Z</time>
      </trkpt>
      <trkpt lat="46.4945270" lon="6.7257110">
        <ele>492.0</ele>
        <time>2019-02-24T10:16:13Z</time>
      </trkpt>
      <trkpt lat="46.4945490" lon="6.7257600">
        <ele>492.4</ele>
        <time>2019-02-24T10:16:14Z</time>
      </trkpt>
      <trkpt lat="46.4945690" lon="6.7258110">
        <ele>492.8</ele>
        <time>2019-02-24T10:16:15Z</time>
      </trkpt>
      <trkpt lat="46.4945840" lon="6.7258660">
        <ele>493.2</ele>
        <time>2019-02-24T10:16:16Z</time>
      </trkpt>
      <trkpt lat="46.4945950" lon="6.7259250">
        <ele>493.6</ele>
        <time>2019-02-24T10:16:17Z</time>
      </trkpt>
      <trkpt lat="46.4946020" lon="6.7259870">
        <ele>493.5</ele>
        <time>2019-02-24T10:16:18Z</time>
      </trkpt>
      <trkpt lat="46.4946060" lon="6.7260520">
        <ele>493.2</ele>
        <time>2019-02-24T10:16:19Z</time>
      </trkpt>
      <trkpt lat="46.4946050" lon="6.7261210">
        <ele>492.8</ele>
        <time>2019-02-24T10:16:20Z</time>
      </trkpt>
      <trkpt lat="46.4945990" lon="6.7261910">
        <ele>492.3</ele>
        <time>2019-02-24T10:16:21Z</time>
      </trkpt>
      <trkpt lat="46.4945870" lon="6.7262630">
        <ele>491.8</ele>
        <time>2019-02-24T10:16:22Z</time>
      </trkpt>
      <trkpt lat="46.4945670" lon="6.7263350">
        <ele>491.4</ele>
        <time>2019-02-24T10:16:23Z</time>
      </trkpt>
      <trkpt lat="46.4945230" lon="6.7264390">
        <ele>490.8</ele>
        <time>2019-02-24T10:16:24Z</time>
      </trkpt>
      <trkpt lat="46.4945050" lon="6.7264720">
        <ele>490.6</ele>
        <time>2019-02-24T10:16:25Z</time>
      </trkpt>
      <trkpt lat="46.4944650" lon="6.7265340">
        <ele>490.2</ele>
        <time>2019-02-24T10:16:26Z</time>
      </trkpt>
      <trkpt lat="46.4944190" lon="6.7265910">
        <ele>489.9</ele>
        <time>2019-02-24T10:16:27Z</time>
      </trkpt>
      <trkpt lat="46.4943710" lon="6.7266410">
        <ele>489.6</ele>
        <time>2019-02-24T10:16:28Z</time>
      </trkpt>
      <trkpt lat="46.4942920" lon="6.7267050">
        <ele>489.2</ele>
        <time>2019-02-24T10:16:29Z</time>
      </trkpt>
      <trkpt lat="46.4942650" lon="6.7267250">
        <ele>489.1</ele>
        <time>2019-02-24T10:16:30Z</time>
      </trkpt>
      <trkpt lat="46.4942100" lon="6.7267650">
        <ele>488.7</ele>
        <time>2019-02-24T10:16:31Z</time>
      </trkpt>
      <trkpt lat="46.4941530" lon="6.7268050">
        <ele>488.2</ele>
        <time>2019-02-24T10:16:32Z</time>
      </trkpt>
      <trkpt lat="46.4940960" lon="6.7268460">
        <ele>487.7</ele>
        <time>2019-02-24T10:16:33Z</time>
      </trkpt>
      <trkpt lat="46.4940370" lon="6.7268870">
        <ele>487.1</ele>
        <time>2019-02-24T10:16:34Z</time>
      </trkpt>
      <trkpt lat="46.4939780" lon="6.7269300">
        <ele>486.5</ele>
        <time>2019-02-24T10:16:35Z</time>
      </trkpt>
      <trkpt lat="46.4939190" lon="6.7269750">
        <ele>485.9</ele>
        <time>2019-02-24T10:16:36Z</time>
      </trkpt>
      <trkpt lat="46.4938590" lon="6.7270200">
        <ele>485.2</ele>
        <time>2019-02-24T10:16:37Z</time>
      </trkpt>
      <trkpt lat="46.4937990" lon="6.7270670">
        <ele>484.6</ele>
        <time>2019-02-24T10:16:38Z</time>
      </trkpt>
      <trkpt lat="46.4937380" lon="6.7271130">
        <ele>484.1</ele>
        <time>2019-02-24T10:16:39Z</time>
      </trkpt>
      <trkpt lat="46.4936750" lon="6.7271600">
        <ele>483.5</ele>
        <time>2019-02-24T10:16:40Z</time>
      </trkpt>
      <trkpt lat="46.4936120" lon="6.7272060">
        <ele>482.8</ele>
        <time>2019-02-24T10:16:41Z</time>
      </trkpt>
      <trkpt lat="46.4935490" lon="6.7272530">
        <ele>481.9</ele>
        <time>2019-02-24T10:16:42Z</time>
      </trkpt>
      <trkpt lat="46.4934850" lon="6.7272990">
        <ele>481.1</ele>
        <time>2019-02-24T10:16:43Z</time>
      </trkpt>
      <trkpt lat="46.4934210" lon="6.7273440">
        <ele>480.4</ele>
        <time>2019-02-24T10:16:44Z</time>
      </trkpt>
      <trkpt lat="46.4933580" lon="6.7273890">
        <ele>479.9</ele>
        <time>2019-02-24T10:16:45Z</time>
      </trkpt>
      <trkpt lat="46.4932960" lon="6.7274330">
        <ele>478.9</ele>
        <time>2019-02-24T10:16:46Z</time>
      </trkpt>
      <trkpt lat="46.4932340" lon="6.7274760">
        <ele>478.9</ele>
        <time>2019-02-24T10:16:47Z</time>
      </trkpt>
      <trkpt lat="46.4931740" lon="6.7275180">
        <ele>478.6</ele>
        <time>2019-02-24T10:16:48Z</time>
      </trkpt>
      <trkpt lat="46.4931150" lon="6.7275590">
        <ele>477.7</ele>
        <time>2019-02-24T10:16:49Z</time>
      </trkpt>
      <trkpt lat="46.4930570" lon="6.7276000">
        <ele>476.8</ele>
        <time>2019-02-24T10:16:50Z</time>
      </trkpt>
      <trkpt lat="46.4929990" lon="6.7276400">
        <ele>475.9</ele>
        <time>2019-02-24T10:16:51Z</time>
      </trkpt>
      <trkpt lat="46.4929400" lon="6.7276800">
        <ele>475.0</ele>
        <time>2019-02-24T10:16:52Z</time>
      </trkpt>
      <trkpt lat="46.4928810" lon="6.7277200">
        <ele>474.0</ele>
        <time>2019-02-24T10:16:53Z</time>
      </trkpt>
      <trkpt lat="46.4928210" lon="6.7277610">
        <ele>473.0</ele>
        <time>2019-02-24T10:16:54Z</time>
      </trkpt>
      <trkpt lat="46.4927230" lon="6.7278320">
        <ele>471.7</ele>
        <time>2019-02-24T10:16:55Z</time>
      </trkpt>
      <trkpt lat="46.4926840" lon="6.7278620">
        <ele>471.3</ele>
        <time>2019-02-24T10:16:56Z</time>
      </trkpt>
      <trkpt lat="46.4926450" lon="6.7278920">
        <ele>471.0</ele>
        <time>2019-02-24T10:16:57Z</time>
      </trkpt>
      <trkpt lat="46.4925880" lon="6.7279430">
        <ele>470.5</ele>
        <time>2019-02-24T10:16:58Z</time>
      </trkpt>
      <trkpt lat="46.4925340" lon="6.7280030">
        <ele>469.7</ele>
        <time>2019-02-24T10:16:59Z</time>
      </trkpt>
      <trkpt lat="46.4924570" lon="6.7281300">
        <ele>468.3</ele>
        <time>2019-02-24T10:17:00Z</time>
      </trkpt>
      <trkpt lat="46.4924290" lon="6.7281880">
        <ele>467.8</ele>
        <time>2019-02-24T10:17:01Z</time>
      </trkpt>
      <trkpt lat="46.4924020" lon="6.7282460">
        <ele>467.2</ele>
        <time>2019-02-24T10:17:02Z</time>
      </trkpt>
      <trkpt lat="46.4923740" lon="6.7283450">
        <ele>465.7</ele>
        <time>2019-02-24T10:17:03Z</time>
      </trkpt>
      <trkpt lat="46.4923590" lon="6.7284480">
        <ele>465.8</ele>
        <time>2019-02-24T10:17:04Z</time>
      </trkpt>
      <trkpt lat="46.4923590" lon="6.7285520">
        <ele>465.9</ele>
        <time>2019-02-24T10:17:05Z</time>
      </trkpt>
      <trkpt lat="46.4923700" lon="6.7286590">
        <ele>466.0</ele>
        <time>2019-02-24T10:17:06Z</time>
      </trkpt>
      <trkpt lat="46.4923900" lon="6.7287670">
        <ele>466.1</ele>
        <time>2019-02-24T10:17:07Z</time>
      </trkpt>
      <trkpt lat="46.4924160" lon="6.7288790">
        <ele>466.2</ele>
        <time>2019-02-24T10:17:08Z</time>
      </trkpt>
      <trkpt lat="46.4924440" lon="6.7289940">
        <ele>466.3</ele>
        <time>2019-02-24T10:17:09Z</time>
      </trkpt>
      <trkpt lat="46.4924740" lon="6.7291110">
        <ele>466.4</ele>
        <time>2019-02-24T10:17:10Z</time>
      </trkpt>
      <trkpt lat="46.4925040" lon="6.7292280">
        <ele>466.5</ele>
        <time>2019-02-24T10:17:11Z</time>
      </trkpt>
      <trkpt lat="46.4925340" lon="6.7293440">
        <ele>466.6</ele>
        <time>2019-02-24T10:17:12Z</time>
      </trkpt>
      <trkpt lat="46.4925630" lon="6.7294570">
        <ele>466.7</ele>
        <time>2019-02-24T10:17:13Z</time>
      </trkpt>
      <trkpt lat="46.4925910" lon="6.7295690">
        <ele>465.9</ele>
        <time>2019-02-24T10:17:14Z</time>
      </trkpt>
      <trkpt lat="46.4926190" lon="6.7296790">
        <ele>465.1</ele>
        <time>2019-02-24T10:17:15Z</time>
      </trkpt>
      <trkpt lat="46.4926470" lon="6.7297890">
        <ele>464.5</ele>
        <time>2019-02-24T10:17:16Z</time>
      </trkpt>
      <trkpt lat="46.4926740" lon="6.7298990">
        <ele>463.7</ele>
        <time>2019-02-24T10:17:17Z</time>
      </trkpt>
      <trkpt lat="46.4926990" lon="6.7300100">
        <ele>462.9</ele>
        <time>2019-02-24T10:17:18Z</time>
      </trkpt>
      <trkpt lat="46.4927180" lon="6.7301220">
        <ele>462.3</ele>
        <time>2019-02-24T10:17:19Z</time>
      </trkpt>
      <trkpt lat="46.4927280" lon="6.7302380">
        <ele>461.6</ele>
        <time>2019-02-24T10:17:20Z</time>
      </trkpt>
      <trkpt lat="46.4927280" lon="6.7303560">
        <ele>460.6</ele>
        <time>2019-02-24T10:17:21Z</time>
      </trkpt>
      <trkpt lat="46.4927190" lon="6.7304770">
        <ele>459.6</ele>
        <time>2019-02-24T10:17:22Z</time>
      </trkpt>
      <trkpt lat="46.4927050" lon="6.7306000">
        <ele>459.0</ele>
        <time>2019-02-24T10:17:23Z</time>
      </trkpt>
      <trkpt lat="46.4926890" lon="6.7307230">
        <ele>458.5</ele>
        <time>2019-02-24T10:17:24Z</time>
      </trkpt>
      <trkpt lat="46.4926730" lon="6.7308460">
        <ele>457.8</ele>
        <time>2019-02-24T10:17:25Z</time>
      </trkpt>
      <trkpt lat="46.4926610" lon="6.7309690">
        <ele>457.0</ele>
        <time>2019-02-24T10:17:26Z</time>
      </trkpt>
      <trkpt lat="46.4926540" lon="6.7310910">
        <ele>456.4</ele>
        <time>2019-02-24T10:17:27Z</time>
      </trkpt>
      <trkpt lat="46.4926550" lon="6.7312130">
        <ele>455.9</ele>
        <time>2019-02-24T10:17:28Z</time>
      </trkpt>
      <trkpt lat="46.4926660" lon="6.7313360">
        <ele>454.9</ele>
        <time>2019-02-24T10:17:29Z</time>
      </trkpt>
      <trkpt lat="46.4926850" lon="6.7314570">
        <ele>454.2</ele>
        <time>2019-02-24T10:17:30Z</time>
      </trkpt>
      <trkpt lat="46.4927300" lon="6.7316590">
        <ele>452.7</ele>
        <time>2019-02-24T10:17:31Z</time>
      </trkpt>
      <trkpt lat="46.4927510" lon="6.7317400">
        <ele>451.9</ele>
        <time>2019-02-24T10:17:32Z</time>
      </trkpt>
      <trkpt lat="46.4927710" lon="6.7318200">
        <ele>451.8</ele>
        <time>2019-02-24T10:17:33Z</time>
      </trkpt>
      <trkpt lat="46.4928040" lon="6.7319400">
        <ele>451.5</ele>
        <time>2019-02-24T10:17:34Z</time>
      </trkpt>
      <trkpt lat="46.4928380" lon="6.7320600">
        <ele>451.1</ele>
        <time>2019-02-24T10:17:35Z</time>
      </trkpt>
      <trkpt lat="46.4928950" lon="6.7322620">
        <ele>449.8</ele>
        <time>2019-02-24T10:17:36Z</time>
      </trkpt>
      <trkpt lat="46.4929180" lon="6.7323420">
        <ele>449.3</ele>
        <time>2019-02-24T10:17:37Z</time>
      </trkpt>
      <trkpt lat="46.4929410" lon="6.7324230">
        <ele>448.8</ele>
        <time>2019-02-24T10:17:38Z</time>
      </trkpt>
      <trkpt lat="46.4929740" lon="6.7325430">
        <ele>448.1</ele>
        <time>2019-02-24T10:17:39Z</time>
      </trkpt>
      <trkpt lat="46.4930050" lon="6.7326620">
        <ele>447.4</ele>
        <time>2019-02-24T10:17:40Z</time>
      </trkpt>
      <trkpt lat="46.4930360" lon="6.7327790">
        <ele>446.6</ele>
        <time>2019-02-24T10:17:41Z</time>
      </trkpt>
      <trkpt lat="46.4930670" lon="6.7328940">
        <ele>445.8</ele>
        <time>2019-02-24T10:17:42Z</time>
      </trkpt>
      <trkpt lat="46.4930990" lon="6.7330050">
        <ele>445.0</ele>
        <time>2019-02-24T10:17:43Z</time>
      </trkpt>
      <trkpt lat="46.4931350" lon="6.7331120">
        <ele>444.2</ele>
        <time>2019-02-24T10:17:44Z</time>
      </trkpt>
      <trkpt lat="46.4931750" lon="6.7332140">
        <ele>444.0</ele>
        <time>2019-02-24T10:17:45Z</time>
      </trkpt>
      <trkpt lat="46.4932210" lon="6.7333100">
        <ele>444.1</ele>
        <time>2019-02-24T10:17:46Z</time>
      </trkpt>
      <trkpt lat="46.4932720" lon="6.7333970">
        <ele>444.1</ele>
        <time>2019-02-24T10:17:47Z</time>
      </trkpt>
      <trkpt lat="46.4933280" lon="6.7334720">
        <ele>444.1</ele>
        <time>2019-02-24T10:17:48Z</time>
      </trkpt>
      <trkpt lat="46.4933890" lon="6.7335360">
        <ele>444.1</ele>
        <time>2019-02-24T10:17:49Z</time>
      </trkpt>
      <trkpt lat="46.4934540" lon="6.7335900">
        <ele>444.5</ele>
        <time>2019-02-24T10:17:50Z</time>
      </trkpt>
      <trkpt lat="46.4935180" lon="6.7336380">
        <ele>444.8</ele>
        <time>2019-02-24T10:17:51Z</time>
      </trkpt>
      <trkpt lat="46.4935770" lon="6.7336850">
        <ele>445.1</ele>
        <time>2019-02-24T10:17:52Z</time>
      </trkpt>
      <trkpt lat="46.4936350" lon="6.7337320">
        <ele>445.4</ele>
        <time>2019-02-24T10:17:53Z</time>
      </trkpt>
      <trkpt lat="46.4936830" lon="6.7337900">
        <ele>445.6</ele>
        <time>2019-02-24T10:17:54Z</time>
      </trkpt>
      <trkpt lat="46.4937210" lon="6.7338620">
        <ele>445.5</ele>
        <time>2019-02-24T10:17:55Z</time>
      </trkpt>
      <trkpt lat="46.4937480" lon="6.7339430">
        <ele>445.3</ele>
        <time>2019-02-24T10:17:56Z</time>
      </trkpt>
      <trkpt lat="46.4937640" lon="6.7340230">
        <ele>445.1</ele>
        <time>2019-02-24T10:17:57Z</time>
      </trkpt>
      <trkpt lat="46.4937590" lon="6.7340890">
        <ele>444.9</ele>
        <time>2019-02-24T10:17:58Z</time>
      </trkpt>
      <trkpt lat="46.4936930" lon="6.7341670">
        <ele>444.3</ele>
        <time>2019-02-24T10:17:59Z</time>
      </trkpt>
      <trkpt lat="46.4936620" lon="6.7342000">
        <ele>444.1</ele>
        <time>2019-02-24T10:18:00Z</time>
      </trkpt>
      <trkpt lat="46.4936300" lon="6.7342320">
        <ele>443.0</ele>
        <time>2019-02-24T10:18:01Z</time>
      </trkpt>
      <trkpt lat="46.4935990" lon="6.7342980">
        <ele>443.2</ele>
        <time>2019-02-24T10:18:02Z</time>
      </trkpt>
      <trkpt lat="46.4935900" lon="6.7343680">
        <ele>443.3</ele>
        <time>2019-02-24T10:18:03Z</time>
      </trkpt>
      <trkpt lat="46.4935880" lon="6.7344310">
        <ele>443.2</ele>
        <time>2019-02-24T10:18:04Z</time>
      </trkpt>
      <trkpt lat="46.4935790" lon="6.7344780">
        <ele>443.1</ele>
        <time>2019-02-24T10:18:05Z</time>
      </trkpt>
      <trkpt lat="46.4935620" lon="6.7345120">
        <ele>443.1</ele>
        <time>2019-02-24T10:18:06Z</time>
      </trkpt>
      <trkpt lat="46.4935410" lon="6.7345390">
        <ele>443.0</ele>
        <time>2019-02-24T10:18:07Z</time>
      </trkpt>
      <trkpt lat="46.4935170" lon="6.7345630">
        <ele>442.9</ele>
        <time>2019-02-24T10:18:08Z</time>
      </trkpt>
      <trkpt lat="46.4934950" lon="6.7345880">
        <ele>442.9</ele>
        <time>2019-02-24T10:18:09Z</time>
      </trkpt>
      <trkpt lat="46.4934750" lon="6.7346150">
        <ele>442.8</ele>
        <time>2019-02-24T10:18:10Z</time>
      </trkpt>
      <trkpt lat="46.4934560" lon="6.7346450">
        <ele>442.7</ele>
        <time>2019-02-24T10:18:11Z</time>
      </trkpt>
      <trkpt lat="46.4934390" lon="6.7346760">
        <ele>442.7</ele>
        <time>2019-02-24T10:18:12Z</time>
      </trkpt>
      <trkpt lat="46.4934230" lon="6.7347090">
        <ele>442.6</ele>
        <time>2019-02-24T10:18:13Z</time>
      </trkpt>
      <trkpt lat="46.4934090" lon="6.7347440">
        <ele>442.5</ele>
        <time>2019-02-24T10:18:14Z</time>
      </trkpt>
      <trkpt lat="46.4933970" lon="6.7347800">
        <ele>442.5</ele>
        <time>2019-02-24T10:18:15Z</time>
      </trkpt>
      <trkpt lat="46.4933850" lon="6.7348170">
        <ele>442.4</ele>
        <time>2019-02-24T10:18:16Z</time>
      </trkpt>
      <trkpt lat="46.4933760" lon="6.7348550">
        <ele>442.3</ele>
        <time>2019-02-24T10:18:17Z</time>
      </trkpt>
      <trkpt lat="46.4933670" lon="6.7348930">
        <ele>442.2</ele>
        <time>2019-02-24T10:18:18Z</time>
      </trkpt>
      <trkpt lat="46.4933600" lon="6.7349330">
        <ele>442.3</ele>
        <time>2019-02-24T10:18:19Z</time>
      </trkpt>
      <trkpt lat="46.4933550" lon="6.7349720">
        <ele>442.4</ele>
        <time>2019-02-24T10:18:20Z</time>
      </trkpt>
      <trkpt lat="46.4933500" lon="6.7350120">
        <ele>442.6</ele>
        <time>2019-02-24T10:18:21Z</time>
      </trkpt>
      <trkpt lat="46.4933470" lon="6.7350520">
        <ele>442.7</ele>
        <time>2019-02-24T10:18:22Z</time>
      </trkpt>
      <trkpt lat="46.4933460" lon="6.7350910">
        <ele>442.8</ele>
        <time>2019-02-24T10:18:23Z</time>
      </trkpt>
      <trkpt lat="46.4933450" lon="6.7351300">
        <ele>442.9</ele>
        <time>2019-02-24T10:18:24Z</time>
      </trkpt>
      <trkpt lat="46.4933460" lon="6.7351690">
        <ele>443.0</ele>
        <time>2019-02-24T10:18:25Z</time>
      </trkpt>
      <trkpt lat="46.4933480" lon="6.7352070">
        <ele>443.1</ele>
        <time>2019-02-24T10:18:26Z</time>
      </trkpt>
      <trkpt lat="46.4933500" lon="6.7352450">
        <ele>444.1</ele>
        <time>2019-02-24T10:18:27Z</time>
      </trkpt>
      <trkpt lat="46.4933540" lon="6.7352830">
        <ele>444.4</ele>
        <time>2019-02-24T10:18:28Z</time>
      </trkpt>
      <trkpt lat="46.4933570" lon="6.7353210">
        <ele>444.7</ele>
        <time>2019-02-24T10:18:29Z</time>
      </trkpt>
      <trkpt lat="46.4933620" lon="6.7353590">
        <ele>445.0</ele>
        <time>2019-02-24T10:18:30Z</time>
      </trkpt>
      <trkpt lat="46.4933660" lon="6.7353980">
        <ele>445.2</ele>
        <time>2019-02-24T10:18:31Z</time>
      </trkpt>
      <trkpt lat="46.4933710" lon="6.7354370">
        <ele>445.5</ele>
        <time>2019-02-24T10:18:32Z</time>
      </trkpt>
      <trkpt lat="46.4933750" lon="6.7354780">
        <ele>445.8</ele>
        <time>2019-02-24T10:18:33Z</time>
      </trkpt>
      <trkpt lat="46.4933790" lon="6.7355180">
        <ele>446.1</ele>
        <time>2019-02-24T10:18:34Z</time>
      </trkpt>
      <trkpt lat="46.4933830" lon="6.7355580">
        <ele>446.4</ele>
        <time>2019-02-24T10:18:35Z</time>
      </trkpt>
      <trkpt lat="46.4933860" lon="6.7355970">
        <ele>446.7</ele>
        <time>2019-02-24T10:18:36Z</time>
      </trkpt>
      <trkpt lat="46.4933890" lon="6.7356340">
        <ele>446.9</ele>
        <time>2019-02-24T10:18:37Z</time>
      </trkpt>
      <trkpt lat="46.4933910" lon="6.7356700">
        <ele>447.2</ele>
        <time>2019-02-24T10:18:38Z</time>
      </trkpt>
      <trkpt lat="46.4933920" lon="6.7357050">
        <ele>447.3</ele>
        <time>2019-02-24T10:18:39Z</time>
      </trkpt>
      <trkpt lat="46.4933930" lon="6.7357400">
        <ele>447.5</ele>
        <time>2019-02-24T10:18:40Z</time>
      </trkpt>
      <trkpt lat="46.4933930" lon="6.7357760">
        <ele>447.6</ele>
        <time>2019-02-24T10:18:41Z</time>
      </trkpt>
      <trkpt lat="46.4933920" lon="6.7358120">
        <ele>447.8</ele>
        <time>2019-02-24T10:18:42Z</time>
      </trkpt>
      <trkpt lat="46.4933900" lon="6.7358500">
        <ele>448.0</ele>
        <time>2019-02-24T10:18:43Z</time>
      </trkpt>
      <trkpt lat="46.4933880" lon="6.7358890">
        <ele>448.0</ele>
        <time>2019-02-24T10:18:44Z</time>
      </trkpt>
      <trkpt lat="46.4933840" lon="6.7359290">
        <ele>448.1</ele>
        <time>2019-02-24T10:18:45Z</time>
      </trkpt>
      <trkpt lat="46.4933810" lon="6.7359720">
        <ele>448.2</ele>
        <time>2019-02-24T10:18:46Z</time>
      </trkpt>
      <trkpt lat="46.4933760" lon="6.7360170">
        <ele>448.4</ele>
        <time>2019-02-24T10:18:47Z</time>
      </trkpt>
      <trkpt lat="46.4933710" lon="6.7360640">
        <ele>448.5</ele>
        <time>2019-02-24T10:18:48Z</time>
      </trkpt>
      <trkpt lat="46.4933660" lon="6.7361140">
        <ele>448.6</ele>
        <time>2019-02-24T10:18:49Z</time>
      </trkpt>
      <trkpt lat="46.4933560" lon="6.7362040">
        <ele>448.8</ele>
        <time>2019-02-24T10:18:50Z</time>
      </trkpt>
      <trkpt lat="46.4933520" lon="6.7362420">
        <ele>448.9</ele>
        <time>2019-02-24T10:18:51Z</time>
      </trkpt>
      <trkpt lat="46.4933480" lon="6.7362790">
        <ele>448.8</ele>
        <time>2019-02-24T10:18:52Z</time>
      </trkpt>
      <trkpt lat="46.4933410" lon="6.7363380">
        <ele>448.7</ele>
        <time>2019-02-24T10:18:53Z</time>
      </trkpt>
      <trkpt lat="46.4933350" lon="6.7363980">
        <ele>448.7</ele>
        <time>2019-02-24T10:18:54Z</time>
      </trkpt>
      <trkpt lat="46.4933290" lon="6.7364590">
        <ele>448.6</ele>
        <time>2019-02-24T10:18:55Z</time>
      </trkpt>
      <trkpt lat="46.4933240" lon="6.7365210">
        <ele>448.5</ele>
        <time>2019-02-24T10:18:56Z</time>
      </trkpt>
      <trkpt lat="46.4933190" lon="6.7365840">
        <ele>448.4</ele>
        <time>2019-02-24T10:18:57Z</time>
      </trkpt>
      <trkpt lat="46.4933140" lon="6.7366470">
        <ele>448.4</ele>
        <time>2019-02-24T10:18:58Z</time>
      </trkpt>
      <trkpt lat="46.4933100" lon="6.7367090">
        <ele>448.4</ele>
        <time>2019-02-24T10:18:59Z</time>
      </trkpt>
      <trkpt lat="46.4933060" lon="6.7367720">
        <ele>448.3</ele>
        <time>2019-02-24T10:19:00Z</time>
      </trkpt>
      <trkpt lat="46.4933010" lon="6.7368350">
        <ele>448.3</ele>
        <time>2019-02-24T10:19:01Z</time>
      </trkpt>
      <trkpt lat="46.4932960" lon="6.7368980">
        <ele>448.2</ele>
        <time>2019-02-24T10:19:02Z</time>
      </trkpt>
      <trkpt lat="46.4932910" lon="6.7369600">
        <ele>448.2</ele>
        <time>2019-02-24T10:19:03Z</time>
      </trkpt>
      <trkpt lat="46.4932850" lon="6.7370220">
        <ele>448.1</ele>
        <time>2019-02-24T10:19:04Z</time>
      </trkpt>
      <trkpt lat="46.4932770" lon="6.7370830">
        <ele>448.1</ele>
        <time>2019-02-24T10:19:05Z</time>
      </trkpt>
      <trkpt lat="46.4932690" lon="6.7371430">
        <ele>448.0</ele>
        <time>2019-02-24T10:19:06Z</time>
      </trkpt>
      <trkpt lat="46.4932600" lon="6.7372030">
        <ele>448.0</ele>
        <time>2019-02-24T10:19:07Z</time>
      </trkpt>
      <trkpt lat="46.4932490" lon="6.7372620">
        <ele>447.9</ele>
        <time>2019-02-24T10:19:08Z</time>
      </trkpt>
      <trkpt lat="46.4932370" lon="6.7373190">
        <ele>447.9</ele>
        <time>2019-02-24T10:19:09Z</time>
      </trkpt>
      <trkpt lat="46.4932240" lon="6.7373760">
        <ele>447.8</ele>
        <time>2019-02-24T10:19:10Z</time>
      </trkpt>
      <trkpt lat="46.4932100" lon="6.7374320">
        <ele>447.8</ele>
        <time>2019-02-24T10:19:11Z</time>
      </trkpt>
      <trkpt lat="46.4931950" lon="6.7374870">
        <ele>447.7</ele>
        <time>2019-02-24T10:19:12Z</time>
      </trkpt>
      <trkpt lat="46.4931780" lon="6.7375410">
        <ele>447.7</ele>
        <time>2019-02-24T10:19:13Z</time>
      </trkpt>
      <trkpt lat="46.4931600" lon="6.7375940">
        <ele>447.6</ele>
        <time>2019-02-24T10:19:14Z</time>
      </trkpt>
      <trkpt lat="46.4931410" lon="6.7376470">
        <ele>447.5</ele>
        <time>2019-02-24T10:19:15Z</time>
      </trkpt>
      <trkpt lat="46.4931220" lon="6.7376980">
        <ele>447.5</ele>
        <time>2019-02-24T10:19:16Z</time>
      </trkpt>
      <trkpt lat="46.4931010" lon="6.7377500">
        <ele>447.4</ele>
        <time>2019-02-24T10:19:17Z</time>
      </trkpt>
      <trkpt lat="46.4930810" lon="6.7378010">
        <ele>447.4</ele>
        <time>2019-02-24T10:19:18Z</time>
      </trkpt>
      <trkpt lat="46.4930600" lon="6.7378520">
        <ele>447.3</ele>
        <time>2019-02-24T10:19:19Z</time>
      </trkpt>
      <trkpt lat="46.4930390" lon="6.7379050">
        <ele>447.2</ele>
        <time>2019-02-24T10:19:20Z</time>
      </trkpt>
      <trkpt lat="46.4930180" lon="6.7379570">
        <ele>447.2</ele>
        <time>2019-02-24T10:19:21Z</time>
      </trkpt>
      <trkpt lat="46.4929980" lon="6.7380110">
        <ele>447.2</ele>
        <time>2019-02-24T10:19:22Z</time>
      </trkpt>
      <trkpt lat="46.4929780" lon="6.7380650">
        <ele>447.1</ele>
        <time>2019-02-24T10:19:23Z</time>
      </trkpt>
      <trkpt lat="46.4929590" lon="6.7381200">
        <ele>447.1</ele>
        <time>2019-02-24T10:19:24Z</time>
      </trkpt>
      <trkpt lat="46.4929400" lon="6.7381760">
        <ele>447.1</ele>
        <time>2019-02-24T10:19:25Z</time>
      </trkpt>
      <trkpt lat="46.4929230" lon="6.7382310">
        <ele>447.0</ele>
        <time>2019-02-24T10:19:26Z</time>
      </trkpt>
      <trkpt lat="46.4929050" lon="6.7382860">
        <ele>447.0</ele>
        <time>2019-02-24T10:19:27Z</time>
      </trkpt>
      <trkpt lat="46.4928890" lon="6.7383420">
        <ele>446.9</ele>
        <time>2019-02-24T10:19:28Z</time>
      </trkpt>
      <trkpt lat="46.4928740" lon="6.7383960">
        <ele>446.9</ele>
        <time>2019-02-24T10:19:29Z</time>
      </trkpt>
      <trkpt lat="46.4928590" lon="6.7384500">
        <ele>446.8</ele>
        <time>2019-02-24T10:19:30Z</time>
      </trkpt>
      <trkpt lat="46.4928460" lon="6.7385030">
        <ele>446.8</ele>
        <time>2019-02-24T10:19:31Z</time>
      </trkpt>
      <trkpt lat="46.4928330" lon="6.7385560">
        <ele>446.7</ele>
        <time>2019-02-24T10:19:32Z</time>
      </trkpt>
      <trkpt lat="46.4928220" lon="6.7386080">
        <ele>446.7</ele>
        <time>2019-02-24T10:19:33Z</time>
      </trkpt>
      <trkpt lat="46.4928110" lon="6.7386590">
        <ele>446.6</ele>
        <time>2019-02-24T10:19:34Z</time>
      </trkpt>
      <trkpt lat="46.4928010" lon="6.7387100">
        <ele>446.6</ele>
        <time>2019-02-24T10:19:35Z</time>
      </trkpt>
      <trkpt lat="46.4927920" lon="6.7387600">
        <ele>446.5</ele>
        <time>2019-02-24T10:19:36Z</time>
      </trkpt>
      <trkpt lat="46.4927840" lon="6.7388100">
        <ele>446.5</ele>
        <time>2019-02-24T10:19:37Z</time>
      </trkpt>
      <trkpt lat="46.4927770" lon="6.7388590">
        <ele>446.4</ele>
        <time>2019-02-24T10:19:38Z</time>
      </trkpt>
      <trkpt lat="46.4927710" lon="6.7389070">
        <ele>446.3</ele>
        <time>2019-02-24T10:19:39Z</time>
      </trkpt>
      <trkpt lat="46.4927660" lon="6.7389550">
        <ele>446.3</ele>
        <time>2019-02-24T10:19:40Z</time>
      </trkpt>
      <trkpt lat="46.4927610" lon="6.7390030">
        <ele>446.2</ele>
        <time>2019-02-24T10:19:41Z</time>
      </trkpt>
      <trkpt lat="46.4927570" lon="6.7390500">
        <ele>446.2</ele>
        <time>2019-02-24T10:19:42Z</time>
      </trkpt>
      <trkpt lat="46.4927540" lon="6.7390970">
        <ele>446.2</ele>
        <time>2019-02-24T10:19:43Z</time>
      </trkpt>
      <trkpt lat="46.4927520" lon="6.7391430">
        <ele>446.1</ele>
        <time>2019-02-24T10:19:44Z</time>
      </trkpt>
      <trkpt lat="46.4927510" lon="6.7391880">
        <ele>446.1</ele>
        <time>2019-02-24T10:19:45Z</time>
      </trkpt>
      <trkpt lat="46.4927510" lon="6.7392340">
        <ele>446.1</ele>
        <time>2019-02-24T10:19:46Z</time>
      </trkpt>
      <trkpt lat="46.4927510" lon="6.7392790">
        <ele>446.0</ele>
        <time>2019-02-24T10:19:47Z</time>
      </trkpt>
      <trkpt lat="46.4927520" lon="6.7393230">
        <ele>446.0</ele>
        <time>2019-02-24T10:19:48Z</time>
      </trkpt>
      <trkpt lat="46.4927530" lon="6.7393680">
        <ele>446.3</ele>
        <time>2019-02-24T10:19:49Z</time>
      </trkpt>
      <trkpt lat="46.4927550" lon="6.7394120">
        <ele>446.6</ele>
        <time>2019-02-24T10:19:50Z</time>
      </trkpt>
      <trkpt lat="46.4927580" lon="6.7394570">
        <ele>446.8</ele>
        <time>2019-02-24T10:19:51Z</time>
      </trkpt>
      <trkpt lat="46.4927610" lon="6.7395010">
        <ele>447.0</ele>
        <time>2019-02-24T10:19:52Z</time>
      </trkpt>
      <trkpt lat="46.4927640" lon="6.7395450">
        <ele>447.3</ele>
        <time>2019-02-24T10:19:53Z</time>
      </trkpt>
      <trkpt lat="46.4927670" lon="6.7395900">
        <ele>447.4</ele>
        <time>2019-02-24T10:19:54Z</time>
      </trkpt>
      <trkpt lat="46.4927710" lon="6.7396340">
        <ele>447.6</ele>
        <time>2019-02-24T10:19:55Z</time>
      </trkpt>
      <trkpt lat="46.4927750" lon="6.7396790">
        <ele>447.8</ele>
        <time>2019-02-24T10:19:56Z</time>
      </trkpt>
      <trkpt lat="46.4927790" lon="6.7397240">
        <ele>447.9</ele>
        <time>2019-02-24T10:19:57Z</time>
      </trkpt>
      <trkpt lat="46.4927830" lon="6.7397700">
        <ele>448.1</ele>
        <time>2019-02-24T10:19:58Z</time>
      </trkpt>
      <trkpt lat="46.4927860" lon="6.7398160">
        <ele>448.2</ele>
        <time>2019-02-24T10:19:59Z</time>
      </trkpt>
      <trkpt lat="46.4927900" lon="6.7398620">
        <ele>448.3</ele>
        <time>2019-02-24T10:20:00Z</time>
      </trkpt>
      <trkpt lat="46.4927940" lon="6.7399090">
        <ele>448.4</ele>
        <time>2019-02-24T10:20:01Z</time>
      </trkpt>
      <trkpt lat="46.4927970" lon="6.7399570">
        <ele>448.5</ele>
        <time>2019-02-24T10:20:02Z</time>
      </trkpt>
      <trkpt lat="46.4928000" lon="6.7400050">
        <ele>448.6</ele>
        <time>2019-02-24T10:20:03Z</time>
      </trkpt>
      <trkpt lat="46.4928020" lon="6.7400540">
        <ele>448.7</ele>
        <time>2019-02-24T10:20:04Z</time>
      </trkpt>
      <trkpt lat="46.4928040" lon="6.7401030">
        <ele>448.9</ele>
        <time>2019-02-24T10:20:05Z</time>
      </trkpt>
      <trkpt lat="46.4928050" lon="6.7401520">
        <ele>449.2</ele>
        <time>2019-02-24T10:20:06Z</time>
      </trkpt>
      <trkpt lat="46.4928060" lon="6.7402010">
        <ele>449.5</ele>
        <time>2019-02-24T10:20:07Z</time>
      </trkpt>
      <trkpt lat="46.4928050" lon="6.7402500">
        <ele>449.9</ele>
        <time>2019-02-24T10:20:08Z</time>
      </trkpt>
      <trkpt lat="46.4928030" lon="6.7402990">
        <ele>450.2</ele>
        <time>2019-02-24T10:20:09Z</time>
      </trkpt>
      <trkpt lat="46.4928000" lon="6.7403470">
        <ele>450.5</ele>
        <time>2019-02-24T10:20:10Z</time>
      </trkpt>
      <trkpt lat="46.4927960" lon="6.7403960">
        <ele>450.7</ele>
        <time>2019-02-24T10:20:11Z</time>
      </trkpt>
      <trkpt lat="46.4927910" lon="6.7404440">
        <ele>450.9</ele>
        <time>2019-02-24T10:20:12Z</time>
      </trkpt>
      <trkpt lat="46.4927850" lon="6.7404910">
        <ele>451.2</ele>
        <time>2019-02-24T10:20:13Z</time>
      </trkpt>
      <trkpt lat="46.4927790" lon="6.7405390">
        <ele>451.4</ele>
        <time>2019-02-24T10:20:14Z</time>
      </trkpt>
      <trkpt lat="46.4927710" lon="6.7405860">
        <ele>451.5</ele>
        <time>2019-02-24T10:20:15Z</time>
      </trkpt>
      <trkpt lat="46.4927630" lon="6.7406330">
        <ele>451.7</ele>
        <time>2019-02-24T10:20:16Z</time>
      </trkpt>
      <trkpt lat="46.4927540" lon="6.7406800">
        <ele>451.8</ele>
        <time>2019-02-24T10:20:17Z</time>
      </trkpt>
      <trkpt lat="46.4927450" lon="6.7407260">
        <ele>451.9</ele>
        <time>2019-02-24T10:20:18Z</time>
      </trkpt>
      <trkpt lat="46.4927360" lon="6.7407720">
        <ele>451.9</ele>
        <time>2019-02-24T10:20:19Z</time>
      </trkpt>
      <trkpt lat="46.4927260" lon="6.7408180">
        <ele>452.0</ele>
        <time>2019-02-24T10:20:20Z</time>
      </trkpt>
      <trkpt lat="46.4927160" lon="6.7408640">
        <ele>452.1</ele>
        <time>2019-02-24T10:20:21Z</time>
      </trkpt>
      <trkpt lat="46.4927060" lon="6.7409100">
        <ele>452.3</ele>
        <time>2019-02-24T10:20:22Z</time>
      </trkpt>
      <trkpt lat="46.4926960" lon="6.7409560">
        <ele>452.5</ele>
        <time>2019-02-24T10:20:23Z</time>
      </trkpt>
      <trkpt lat="46.4926860" lon="6.7410020">
        <ele>452.7</ele>
        <time>2019-02-24T10:20:24Z</time>
      </trkpt>
      <trkpt lat="46.4926750" lon="6.7410480">
        <ele>453.0</ele>
        <time>2019-02-24T10:20:25Z</time>
      </trkpt>
      <trkpt lat="46.4926650" lon="6.7410950">
        <ele>453.4</ele>
        <time>2019-02-24T10:20:26Z</time>
      </trkpt>
      <trkpt lat="46.4926550" lon="6.7411420">
        <ele>453.7</ele>
        <time>2019-02-24T10:20:27Z</time>
      </trkpt>
      <trkpt lat="46.4926450" lon="6.7411890">
        <ele>454.0</ele>
        <time>2019-02-24T10:20:28Z</time>
      </trkpt>
      <trkpt lat="46.4926350" lon="6.7412360">
        <ele>454.2</ele>
        <time>2019-02-24T10:20:29Z</time>
      </trkpt>
      <trkpt lat="46.4926250" lon="6.7412830">
        <ele>454.5</ele>
        <time>2019-02-24T10:20:30Z</time>
      </trkpt>
      <trkpt lat="46.4926150" lon="6.7413290">
        <ele>454.7</ele>
        <time>2019-02-24T10:20:31Z</time>
      </trkpt>
      <trkpt lat="46.4926050" lon="6.7413760">
        <ele>454.9</ele>
        <time>2019-02-24T10:20:32Z</time>
      </trkpt>
      <trkpt lat="46.4925950" lon="6.7414210">
        <ele>455.1</ele>
        <time>2019-02-24T10:20:33Z</time>
      </trkpt>
      <trkpt lat="46.4925850" lon="6.7414660">
        <ele>455.2</ele>
        <time>2019-02-24T10:20:34Z</time>
      </trkpt>
      <trkpt lat="46.4925760" lon="6.7415110">
        <ele>455.3</ele>
        <time>2019-02-24T10:20:35Z</time>
      </trkpt>
      <trkpt lat="46.4925670" lon="6.7415550">
        <ele>455.4</ele>
        <time>2019-02-24T10:20:36Z</time>
      </trkpt>
      <trkpt lat="46.4925570" lon="6.7415990">
        <ele>455.5</ele>
        <time>2019-02-24T10:20:37Z</time>
      </trkpt>
      <trkpt lat="46.4925490" lon="6.7416430">
        <ele>455.6</ele>
        <time>2019-02-24T10:20:38Z</time>
      </trkpt>
      <trkpt lat="46.4925400" lon="6.7416870">
        <ele>455.7</ele>
        <time>2019-02-24T10:20:39Z</time>
      </trkpt>
      <trkpt lat="46.4925310" lon="6.7417320">
        <ele>455.9</ele>
        <time>2019-02-24T10:20:40Z</time>
      </trkpt>
      <trkpt lat="46.4925230" lon="6.7417780">
        <ele>456.1</ele>
        <time>2019-02-24T10:20:41Z</time>
      </trkpt>
      <trkpt lat="46.4925160" lon="6.7418240">
        <ele>456.4</ele>
        <time>2019-02-24T10:20:42Z</time>
      </trkpt>
      <trkpt lat="46.4925090" lon="6.7418710">
        <ele>456.6</ele>
        <time>2019-02-24T10:20:43Z</time>
      </trkpt>
      <trkpt lat="46.4925030" lon="6.7419190">
        <ele>456.8</ele>
        <time>2019-02-24T10:20:44Z</time>
      </trkpt>
      <trkpt lat="46.4924980" lon="6.7419670">
        <ele>457.0</ele>
        <time>2019-02-24T10:20:45Z</time>
      </trkpt>
      <trkpt lat="46.4924950" lon="6.7420150">
        <ele>457.2</ele>
        <time>2019-02-24T10:20:46Z</time>
      </trkpt>
      <trkpt lat="46.4924930" lon="6.7420640">
        <ele>457.3</ele>
        <time>2019-02-24T10:20:47Z</time>
      </trkpt>
      <trkpt lat="46.4924930" lon="6.7421130">
        <ele>457.4</ele>
        <time>2019-02-24T10:20:48Z</time>
      </trkpt>
      <trkpt lat="46.4924960" lon="6.7421620">
        <ele>457.5</ele>
        <time>2019-02-24T10:20:49Z</time>
      </trkpt>
      <trkpt lat="46.4925020" lon="6.7422110">
        <ele>457.6</ele>
        <time>2019-02-24T10:20:50Z</time>
      </trkpt>
      <trkpt lat="46.4925090" lon="6.7422600">
        <ele>457.7</ele>
        <time>2019-02-24T10:20:51Z</time>
      </trkpt>
      <trkpt lat="46.4925180" lon="6.7423090">
        <ele>457.8</ele>
        <time>2019-02-24T10:20:52Z</time>
      </trkpt>
      <trkpt lat="46.4925270" lon="6.7423570">
        <ele>457.9</ele>
        <time>2019-02-24T10:20:53Z</time>
      </trkpt>
      <trkpt lat="46.4925370" lon="6.7424060">
        <ele>457.9</ele>
        <time>2019-02-24T10:20:54Z</time>
      </trkpt>
      <trkpt lat="46.4925470" lon="6.7424550">
        <ele>458.0</ele>
        <time>2019-02-24T10:20:55Z</time>
      </trkpt>
      <trkpt lat="46.4925560" lon="6.7425040">
        <ele>458.1</ele>
        <time>2019-02-24T10:20:56Z</time>
      </trkpt>
      <trkpt lat="46.4925630" lon="6.7425520">
        <ele>458.2</ele>
        <time>2019-02-24T10:20:57Z</time>
      </trkpt>
      <trkpt lat="46.4925680" lon="6.7426010">
        <ele>458.3</ele>
        <time>2019-02-24T10:20:58Z</time>
      </trkpt>
      <trkpt lat="46.4925720" lon="6.7426490">
        <ele>458.4</ele>
        <time>2019-02-24T10:20:59Z</time>
      </trkpt>
      <trkpt lat="46.4925730" lon="6.7426970">
        <ele>458.4</ele>
        <time>2019-02-24T10:21:00Z</time>
      </trkpt>
      <trkpt lat="46.4925730" lon="6.7427450">
        <ele>458.5</ele>
        <time>2019-02-24T10:21:01Z</time>
      </trkpt>
      <trkpt lat="46.4925710" lon="6.7427920">
        <ele>458.6</ele>
        <time>2019-02-24T10:21:02Z</time>
      </trkpt>
      <trkpt lat="46.4925680" lon="6.7428390">
        <ele>458.6</ele>
        <time>2019-02-24T10:21:03Z</time>
      </trkpt>
      <trkpt lat="46.4925630" lon="6.7428850">
        <ele>458.7</ele>
        <time>2019-02-24T10:21:04Z</time>
      </trkpt>
      <trkpt lat="46.4925560" lon="6.7429300">
        <ele>458.7</ele>
        <time>2019-02-24T10:21:05Z</time>
      </trkpt>
      <trkpt lat="46.4925480" lon="6.7429740">
        <ele>458.8</ele>
        <time>2019-02-24T10:21:06Z</time>
      </trkpt>
      <trkpt lat="46.4925390" lon="6.7430170">
        <ele>458.8</ele>
        <time>2019-02-24T10:21:07Z</time>
      </trkpt>
      <trkpt lat="46.4925280" lon="6.7430580">
        <ele>458.8</ele>
        <time>2019-02-24T10:21:08Z</time>
      </trkpt>
      <trkpt lat="46.4925150" lon="6.7430960">
        <ele>458.8</ele>
        <time>2019-02-24T10:21:09Z</time>
      </trkpt>
      <trkpt lat="46.4925010" lon="6.7431320">
        <ele>458.8</ele>
        <time>2019-02-24T10:21:10Z</time>
      </trkpt>
      <trkpt lat="46.4924850" lon="6.7431650">
        <ele>458.8</ele>
        <time>2019-02-24T10:21:11Z</time>
      </trkpt>
      <trkpt lat="46.4924680" lon="6.7431950">
        <ele>458.8</ele>
        <time>2019-02-24T10:21:12Z</time>
      </trkpt>
      <trkpt lat="46.4924510" lon="6.7432230">
        <ele>458.8</ele>
        <time>2019-02-24T10:21:13Z</time>
      </trkpt>
      <trkpt lat="46.4924340" lon="6.7432510">
        <ele>458.9</ele>
        <time>2019-02-24T10:21:14Z</time>
      </trkpt>
      <trkpt lat="46.4924180" lon="6.7432780">
        <ele>458.9</ele>
        <time>2019-02-24T10:21:15Z</time>
      </trkpt>
      <trkpt lat="46.4924040" lon="6.7433040">
        <ele>458.9</ele>
        <time>2019-02-24T10:21:16Z</time>
      </trkpt>
      <trkpt lat="46.4923920" lon="6.7433260">
        <ele>458.9</ele>
        <time>2019-02-24T10:21:17Z</time>
      </trkpt>
      <trkpt lat="46.4923830" lon="6.7433420">
        <ele>458.9</ele>
        <time>2019-02-24T10:21:18Z</time>
      </trkpt>
      <trkpt lat="46.4923780" lon="6.7433520">
        <ele>458.9</ele>
        <time>2019-02-24T10:21:19Z</time>
      </trkpt>
      <trkpt lat="46.4923750" lon="6.7433560">
        <ele>458.9</ele>
        <time>2019-02-24T10:21:20Z</time>
      </trkpt>
      <trkpt lat="46.4923750" lon="6.7433570">
        <ele>458.9</ele>
        <time>2019-02-24T10:21:21Z</time>
      </trkpt>
      <trkpt lat="46.4923750" lon="6.7433560">
        <ele>458.9</ele>
        <time>2019-02-24T10:21:22Z</time>
      </trkpt>
      <trkpt lat="46.4923750" lon="6.7433550">
        <ele>458.9</ele>
        <time>2019-02-24T10:21:23Z</time>
      </trkpt>
      <trkpt lat="46.4923760" lon="6.7433550">
        <ele>458.9</ele>
        <time>2019-02-24T10:21:24Z</time>
      </trkpt>
      <trkpt lat="46.4923760" lon="6.7433540">
        <ele>458.9</ele>
        <time>2019-02-24T10:21:25Z</time>
      </trkpt>
      <trkpt lat="46.4923760" lon="6.7433540">
        <ele>458.9</ele>
        <time>2019-02-24T10:21:26Z</time>
      </trkpt>
      <trkpt lat="46.4923760" lon="6.7433540">
        <ele>458.9</ele>
        <time>2019-02-24T10:21:27Z</time>
      </trkpt>
      <trkpt lat="46.4923760" lon="6.7433540">
        <ele>458.9</ele>
        <time>2019-02-24T10:21:28Z</time>
      </trkpt>
      <trkpt lat="46.4923760" lon="6.7433540">
        <ele>458.9</ele>
        <time>2019-02-24T10:21:29Z</time>
      </trkpt>
      <trkpt lat="46.4923760" lon="6.7433540">
        <ele>458.9</ele>
        <time>2019-02-24T10:21:30Z</time>
      </trkpt>
      <trkpt lat="46.4923760" lon="6.7433540">
        <ele>458.9</ele>
        <time>2019-02-24T10:21:31Z</time>
      </trkpt>
      <trkpt lat="46.4923760" lon="6.7433540">
        <ele>458.9</ele>
        <time>2019-02-24T10:21:32Z</time>
      </trkpt>
      <trkpt lat="46.4923760" lon="6.7433540">
        <ele>458.9</ele>
        <time>2019-02-24T10:21:33Z</time>
      </trkpt>
      <trkpt lat="46.4923760" lon="6.7433540">
        <ele>458.9</ele>
        <time>2019-02-24T10:21:34Z</time>
      </trkpt>
      <trkpt lat="46.4923760" lon="6.7433540">
        <ele>458.9</ele>
        <time>2019-02-24T10:21:35Z</time>
      </trkpt>
      <trkpt lat="46.4923760" lon="6.7433540">
        <ele>458.9</ele>
        <time>2019-02-24T10:21:36Z</time>
      </trkpt>
      <trkpt lat="46.4923760" lon="6.7433540">
        <ele>458.9</ele>
        <time>2019-02-24T10:21:37Z</time>
      </trkpt>
      <trkpt lat="46.4923760" lon="6.7433540">
        <ele>458.9</ele>
        <time>2019-02-24T10:21:38Z</time>
      </trkpt>
      <trkpt lat="46.4923760" lon="6.7433540">
        <ele>458.9</ele>
        <time>2019-02-24T10:21:39Z</time>
      </trkpt>
      <trkpt lat="46.4923760" lon="6.7433540">
        <ele>458.9</ele>
        <time>2019-02-24T10:21:40Z</time>
      </trkpt>
      <trkpt lat="46.4923760" lon="6.7433540">
        <ele>458.9</ele>
        <time>2019-02-24T10:21:41Z</time>
      </trkpt>
      <trkpt lat="46.4923760" lon="6.7433540">
        <ele>458.9</ele>
        <time>2019-02-24T10:21:42Z</time>
      </trkpt>
      <trkpt lat="46.4923760" lon="6.7433540">
        <ele>458.9</ele>
        <time>2019-02-24T10:21:43Z</time>
      </trkpt>
      <trkpt lat="46.4923760" lon="6.7433540">
        <ele>458.9</ele>
        <time>2019-02-24T10:21:44Z</time>
      </trkpt>
      <trkpt lat="46.4923760" lon="6.7433540">
        <ele>458.9</ele>
        <time>2019-02-24T10:21:45Z</time>
      </trkpt>
      <trkpt lat="46.4923760" lon="6.7433540">
        <ele>458.9</ele>
        <time>2019-02-24T10:21:46Z</time>
      </trkpt>
      <trkpt lat="46.4923760" lon="6.7433540">
        <ele>458.9</ele>
        <time>2019-02-24T10:21:47Z</time>
      </trkpt>
      <trkpt lat="46.4923760" lon="6.7433540">
        <ele>458.9</ele>
        <time>2019-02-24T10:21:48Z</time>
      </trkpt>
      <trkpt lat="46.4923760" lon="6.7433540">
        <ele>458.9</ele>
        <time>2019-02-24T10:21:49Z</time>
      </trkpt>
      <trkpt lat="46.4923760" lon="6.7433540">
        <ele>458.9</ele>
        <time>2019-02-24T10:21:50Z</time>
      </trkpt>
      <trkpt lat="46.4923760" lon="6.7433540">
        <ele>458.9</ele>
        <time>2019-02-24T10:21:51Z</time>
      </trkpt>
      <trkpt lat="46.4923760" lon="6.7433550">
        <ele>458.9</ele>
        <time>2019-02-24T10:21:52Z</time>
      </trkpt>
      <trkpt lat="46.4923760" lon="6.7433550">
        <ele>458.9</ele>
        <time>2019-02-24T10:21:53Z</time>
      </trkpt>
      <trkpt lat="46.4923760" lon="6.7433550">
        <ele>458.9</ele>
        <time>2019-02-24T10:21:54Z</time>
      </trkpt>
      <trkpt lat="46.4923760" lon="6.7433540">
        <ele>458.9</ele>
        <time>2019-02-24T10:21:55Z</time>
      </trkpt>
      <trkpt lat="46.4923760" lon="6.7433540">
        <ele>458.9</ele>
        <time>2019-02-24T10:21:56Z</time>
      </trkpt>
      <trkpt lat="46.4923760" lon="6.7433540">
        <ele>458.9</ele>
        <time>2019-02-24T10:21:57Z</time>
      </trkpt>
      <trkpt lat="46.4923760" lon="6.7433540">
        <ele>458.9</ele>
        <time>2019-02-24T10:21:58Z</time>
      </trkpt>
      <trkpt lat="46.4923760" lon="6.7433540">
        <ele>458.9</ele>
        <time>2019-02-24T10:21:59Z</time>
      </trkpt>
      <trkpt lat="46.4923760" lon="6.7433540">
        <ele>458.9</ele>
        <time>2019-02-24T10:22:00Z</time>
      </trkpt>
      <trkpt lat="46.4923760" lon="6.7433540">
        <ele>458.9</ele>
        <time>2019-02-24T10:22:01Z</time>
      </trkpt>
      <trkpt lat="46.4923760" lon="6.7433540">
        <ele>458.9</ele>
        <time>2019-02-24T10:22:02Z</time>
      </trkpt>
      <trkpt lat="46.4923760" lon="6.7433540">
        <ele>458.9</ele>
        <time>2019-02-24T10:22:03Z</time>
      </trkpt>
      <trkpt lat="46.4923760" lon="6.7433540">
        <ele>458.9</ele>
        <time>2019-02-24T10:22:04Z</time>
      </trkpt>
      <trkpt lat="46.4923760" lon="6.7433540">
        <ele>458.9</ele>
        <time>2019-02-24T10:22:05Z</time>
      </trkpt>
      <trkpt lat="46.4923760" lon="6.7433540">
        <ele>458.9</ele>
        <time>2019-02-24T10:22:06Z</time>
      </trkpt>
      <trkpt lat="46.4923760" lon="6.7433540">
        <ele>458.9</ele>
        <time>2019-02-24T10:22:07Z</time>
      </trkpt>
      <trkpt lat="46.4923760" lon="6.7433540">
        <ele>458.9</ele>
        <time>2019-02-24T10:22:08Z</time>
      </trkpt>
      <trkpt lat="46.4923760" lon="6.7433540">
        <ele>458.9</ele>
        <time>2019-02-24T10:22:09Z</time>
      </trkpt>
      <trkpt lat="46.4923760" lon="6.7433540">
        <ele>458.9</ele>
        <time>2019-02-24T10:22:10Z</time>
      </trkpt>
      <trkpt lat="46.4923760" lon="6.7433540">
        <ele>458.9</ele>
        <time>2019-02-24T10:22:11Z</time>
      </trkpt>
      <trkpt lat="46.4923760" lon="6.7433540">
        <ele>458.9</ele>
        <time>2019-02-24T10:22:12Z</time>
      </trkpt>
      <trkpt lat="46.4923760" lon="6.7433540">
        <ele>458.9</ele>
        <time>2019-02-24T10:22:13Z</time>
      </trkpt>
      <trkpt lat="46.4923760" lon="6.7433540">
        <ele>458.9</ele>
        <time>2019-02-24T10:22:14Z</time>
      </trkpt>
      <trkpt lat="46.4923760" lon="6.7433540">
        <ele>458.9</ele>
        <time>2019-02-24T10:22:15Z</time>
      </trkpt>
      <trkpt lat="46.4923760" lon="6.7433540">
        <ele>458.9</ele>
        <time>2019-02-24T10:22:16Z</time>
      </trkpt>
      <trkpt lat="46.4923760" lon="6.7433540">
        <ele>458.9</ele>
        <time>2019-02-24T10:22:17Z</time>
      </trkpt>
      <trkpt lat="46.4923760" lon="6.7433540">
        <ele>458.9</ele>
        <time>2019-02-24T10:22:18Z</time>
      </trkpt>
      <trkpt lat="46.4923760" lon="6.7433540">
        <ele>458.9</ele>
        <time>2019-02-24T10:22:19Z</time>
      </trkpt>
      <trkpt lat="46.4923760" lon="6.7433540">
        <ele>458.9</ele>
        <time>2019-02-24T10:22:20Z</time>
      </trkpt>
      <trkpt lat="46.4923760" lon="6.7433540">
        <ele>458.9</ele>
        <time>2019-02-24T10:22:21Z</time>
      </trkpt>
      <trkpt lat="46.4923760" lon="6.7433540">
        <ele>458.9</ele>
        <time>2019-02-24T10:22:22Z</time>
      </trkpt>
      <trkpt lat="46.4923760" lon="6.7433540">
        <ele>458.9</ele>
        <time>2019-02-24T10:22:23Z</time>
      </trkpt>
      <trkpt lat="46.4923760" lon="6.7433540">
        <ele>458.9</ele>
        <time>2019-02-24T10:22:24Z</time>
      </trkpt>
      <trkpt lat="46.4923760" lon="6.7433540">
        <ele>458.9</ele>
        <time>2019-02-24T10:22:25Z</time>
      </trkpt>
      <trkpt lat="46.4923760" lon="6.7433540">
        <ele>458.9</ele>
        <time>2019-02-24T10:22:26Z</time>
      </trkpt>
      <trkpt lat="46.4923760" lon="6.7433540">
        <ele>458.9</ele>
        <time>2019-02-24T10:22:27Z</time>
      </trkpt>
      <trkpt lat="46.4923760" lon="6.7433540">
        <ele>458.9</ele>
        <time>2019-02-24T10:22:28Z</time>
      </trkpt>
      <trkpt lat="46.4923760" lon="6.7433540">
        <ele>458.9</ele>
        <time>2019-02-24T10:22:29Z</time>
      </trkpt>
      <trkpt lat="46.4923760" lon="6.7433540">
        <ele>458.9</ele>
        <time>2019-02-24T10:22:30Z</time>
      </trkpt>
      <trkpt lat="46.4923760" lon="6.7433540">
        <ele>458.9</ele>
        <time>2019-02-24T10:22:31Z</time>
      </trkpt>
      <trkpt lat="46.4923760" lon="6.7433540">
        <ele>458.9</ele>
        <time>2019-02-24T10:22:32Z</time>
      </trkpt>
      <trkpt lat="46.4923760" lon="6.7433540">
        <ele>458.9</ele>
        <time>2019-02-24T10:22:33Z</time>
      </trkpt>
      <trkpt lat="46.4923760" lon="6.7433540">
        <ele>458.9</ele>
        <time>2019-02-24T10:22:34Z</time>
      </trkpt>
      <trkpt lat="46.4923760" lon="6.7433540">
        <ele>458.9</ele>
        <time>2019-02-24T10:22:35Z</time>
      </trkpt>
      <trkpt lat="46.4923760" lon="6.7433540">
        <ele>458.9</ele>
        <time>2019-02-24T10:22:36Z</time>
      </trkpt>
      <trkpt lat="46.4923760" lon="6.7433540">
        <ele>458.9</ele>
        <time>2019-02-24T10:22:37Z</time>
      </trkpt>
      <trkpt lat="46.4923760" lon="6.7433540">
        <ele>458.9</ele>
        <time>2019-02-24T10:22:38Z</time>
      </trkpt>
      <trkpt lat="46.4923760" lon="6.7433540">
        <ele>458.9</ele>
        <time>2019-02-24T10:22:39Z</time>
      </trkpt>
      <trkpt lat="46.4923760" lon="6.7433540">
        <ele>458.9</ele>
        <time>2019-02-24T10:22:40Z</time>
      </trkpt>
      <trkpt lat="46.4923760" lon="6.7433540">
        <ele>458.9</ele>
        <time>2019-02-24T10:22:41Z</time>
      </trkpt>
      <trkpt lat="46.4923760" lon="6.7433540">
        <ele>458.9</ele>
        <time>2019-02-24T10:22:42Z</time>
      </trkpt>
      <trkpt lat="46.4923760" lon="6.7433540">
        <ele>458.9</ele>
        <time>2019-02-24T10:22:43Z</time>
      </trkpt>
      <trkpt lat="46.4923760" lon="6.7433540">
        <ele>458.9</ele>
        <time>2019-02-24T10:22:44Z</time>
      </trkpt>
      <trkpt lat="46.4923760" lon="6.7433540">
        <ele>458.9</ele>
        <time>2019-02-24T10:22:45Z</time>
      </trkpt>
      <trkpt lat="46.4923760" lon="6.7433540">
        <ele>458.9</ele>
        <time>2019-02-24T10:22:46Z</time>
      </trkpt>
      <trkpt lat="46.4923760" lon="6.7433540">
        <ele>458.9</ele>
        <time>2019-02-24T10:22:47Z</time>
      </trkpt>
      <trkpt lat="46.4923760" lon="6.7433540">
        <ele>458.9</ele>
        <time>2019-02-24T10:22:48Z</time>
      </trkpt>
      <trkpt lat="46.4923760" lon="6.7433540">
        <ele>458.9</ele>
        <time>2019-02-24T10:22:49Z</time>
      </trkpt>
      <trkpt lat="46.4923760" lon="6.7433540">
        <ele>458.9</ele>
        <time>2019-02-24T10:22:50Z</time>
      </trkpt>
      <trkpt lat="46.4923760" lon="6.7433540">
        <ele>458.9</ele>
        <time>2019-02-24T10:22:51Z</time>
      </trkpt>
      <trkpt lat="46.4923760" lon="6.7433540">
        <ele>458.9</ele>
        <time>2019-02-24T10:22:52Z</time>
      </trkpt>
      <trkpt lat="46.4923760" lon="6.7433540">
        <ele>458.9</ele>
        <time>2019-02-24T10:22:53Z</time>
      </trkpt>
      <trkpt lat="46.4923760" lon="6.7433540">
        <ele>458.9</ele>
        <time>2019-02-24T10:22:54Z</time>
      </trkpt>
      <trkpt lat="46.4923760" lon="6.7433540">
        <ele>458.9</ele>
        <time>2019-02-24T10:22:55Z</time>
      </trkpt>
      <trkpt lat="46.4923760" lon="6.7433540">
        <ele>458.9</ele>
        <time>2019-02-24T10:22:56Z</time>
      </trkpt>
      <trkpt lat="46.4923760" lon="6.7433540">
        <ele>458.9</ele>
        <time>2019-02-24T10:22:57Z</time>
      </trkpt>
      <trkpt lat="46.4923760" lon="6.7433540">
        <ele>458.9</ele>
        <time>2019-02-24T10:22:58Z</time>
      </trkpt>
      <trkpt lat="46.4923760" lon="6.7433540">
        <ele>458.9</ele>
        <time>2019-02-24T10:22:59Z</time>
      </trkpt>
      <trkpt lat="46.4923760" lon="6.7433540">
        <ele>458.9</ele>
        <time>2019-02-24T10:23:00Z</time>
      </trkpt>
      <trkpt lat="46.4923760" lon="6.7433540">
        <ele>458.9</ele>
        <time>2019-02-24T10:23:01Z</time>
      </trkpt>
      <trkpt lat="46.4923760" lon="6.7433540">
        <ele>458.9</ele>
        <time>2019-02-24T10:23:02Z</time>
      </trkpt>
      <trkpt lat="46.4923760" lon="6.7433540">
        <ele>458.9</ele>
        <time>2019-02-24T10:23:03Z</time>
      </trkpt>
      <trkpt lat="46.4923760" lon="6.7433540">
        <ele>458.9</ele>
        <time>2019-02-24T10:23:04Z</time>
      </trkpt>
      <trkpt lat="46.4923760" lon="6.7433540">
        <ele>458.9</ele>
        <time>2019-02-24T10:23:05Z</time>
      </trkpt>
      <trkpt lat="46.4923760" lon="6.7433540">
        <ele>458.9</ele>
        <time>2019-02-24T10:23:06Z</time>
      </trkpt>
      <trkpt lat="46.4923760" lon="6.7433540">
        <ele>458.9</ele>
        <time>2019-02-24T10:23:07Z</time>
      </trkpt>
      <trkpt lat="46.4923760" lon="6.7433540">
        <ele>458.9</ele>
        <time>2019-02-24T10:23:08Z</time>
      </trkpt>
      <trkpt lat="46.4923760" lon="6.7433540">
        <ele>458.9</ele>
        <time>2019-02-24T10:23:09Z</time>
      </trkpt>
      <trkpt lat="46.4923760" lon="6.7433540">
        <ele>458.9</ele>
        <time>2019-02-24T10:23:10Z</time>
      </trkpt>
      <trkpt lat="46.4923760" lon="6.7433540">
        <ele>458.9</ele>
        <time>2019-02-24T10:23:11Z</time>
      </trkpt>
      <trkpt lat="46.4923760" lon="6.7433540">
        <ele>458.9</ele>
        <time>2019-02-24T10:23:12Z</time>
      </trkpt>
      <trkpt lat="46.4923760" lon="6.7433540">
        <ele>458.9</ele>
        <time>2019-02-24T10:23:13Z</time>
      </trkpt>
      <trkpt lat="46.4923760" lon="6.7433540">
        <ele>458.9</ele>
        <time>2019-02-24T10:23:14Z</time>
      </trkpt>
      <trkpt lat="46.4923760" lon="6.7433540">
        <ele>458.9</ele>
        <time>2019-02-24T10:23:15Z</time>
      </trkpt>
      <trkpt lat="46.4923760" lon="6.7433540">
        <ele>458.9</ele>
        <time>2019-02-24T10:23:16Z</time>
      </trkpt>
      <trkpt lat="46.4923760" lon="6.7433540">
        <ele>458.9</ele>
        <time>2019-02-24T10:23:17Z</time>
      </trkpt>
      <trkpt lat="46.4923760" lon="6.7433540">
        <ele>458.9</ele>
        <time>2019-02-24T10:23:18Z</time>
      </trkpt>
      <trkpt lat="46.4923760" lon="6.7433540">
        <ele>458.9</ele>
        <time>2019-02-24T10:23:19Z</time>
      </trkpt>
      <trkpt lat="46.4923760" lon="6.7433540">
        <ele>458.9</ele>
        <time>2019-02-24T10:23:20Z</time>
      </trkpt>
      <trkpt lat="46.4923760" lon="6.7433540">
        <ele>458.9</ele>
        <time>2019-02-24T10:23:21Z</time>
      </trkpt>
      <trkpt lat="46.4923760" lon="6.7433540">
        <ele>458.9</ele>
        <time>2019-02-24T10:23:22Z</time>
      </trkpt>
      <trkpt lat="46.4923760" lon="6.7433540">
        <ele>458.9</ele>
        <time>2019-02-24T10:23:23Z</time>
      </trkpt>
      <trkpt lat="46.4923760" lon="6.7433540">
        <ele>458.9</ele>
        <time>2019-02-24T10:23:24Z</time>
      </trkpt>
      <trkpt lat="46.4923760" lon="6.7433540">
        <ele>458.9</ele>
        <time>2019-02-24T10:23:25Z</time>
      </trkpt>
      <trkpt lat="46.4923760" lon="6.7433540">
        <ele>458.9</ele>
        <time>2019-02-24T10:23:26Z</time>
      </trkpt>
      <trkpt lat="46.4923760" lon="6.7433540">
        <ele>458.9</ele>
        <time>2019-02-24T10:23:27Z</time>
      </trkpt>
      <trkpt lat="46.4923760" lon="6.7433540">
        <ele>458.9</ele>
        <time>2019-02-24T10:23:28Z</time>
      </trkpt>
      <trkpt lat="46.4923760" lon="6.7433540">
        <ele>458.9</ele>
        <time>2019-02-24T10:23:29Z</time>
      </trkpt>
      <trkpt lat="46.4923760" lon="6.7433540">
        <ele>458.9</ele>
        <time>2019-02-24T10:23:30Z</time>
      </trkpt>
      <trkpt lat="46.4923760" lon="6.7433540">
        <ele>458.9</ele>
        <time>2019-02-24T10:23:31Z</time>
      </trkpt>
      <trkpt lat="46.4923760" lon="6.7433540">
        <ele>458.9</ele>
        <time>2019-02-24T10:23:32Z</time>
      </trkpt>
      <trkpt lat="46.4923760" lon="6.7433540">
        <ele>458.9</ele>
        <time>2019-02-24T10:23:33Z</time>
      </trkpt>
      <trkpt lat="46.4923760" lon="6.7433540">
        <ele>458.9</ele>
        <time>2019-02-24T10:23:34Z</time>
      </trkpt>
      <trkpt lat="46.4923760" lon="6.7433540">
        <ele>458.9</ele>
        <time>2019-02-24T10:23:35Z</time>
      </trkpt>
      <trkpt lat="46.4923760" lon="6.7433540">
        <ele>458.9</ele>
        <time>2019-02-24T10:23:36Z</time>
      </trkpt>
      <trkpt lat="46.4923760" lon="6.7433540">
        <ele>458.9</ele>
        <time>2019-02-24T10:23:37Z</time>
      </trkpt>
      <trkpt lat="46.4923760" lon="6.7433540">
        <ele>458.9</ele>
        <time>2019-02-24T10:23:38Z</time>
      </trkpt>
      <trkpt lat="46.4923760" lon="6.7433540">
        <ele>458.9</ele>
        <time>2019-02-24T10:23:39Z</time>
      </trkpt>
      <trkpt lat="46.4923760" lon="6.7433540">
        <ele>458.9</ele>
        <time>2019-02-24T10:23:40Z</time>
      </trkpt>
      <trkpt lat="46.4923760" lon="6.7433540">
        <ele>458.9</ele>
        <time>2019-02-24T10:23:41Z</time>
      </trkpt>
      <trkpt lat="46.4923760" lon="6.7433540">
        <ele>458.9</ele>
        <time>2019-02-24T10:23:42Z</time>
      </trkpt>
      <trkpt lat="46.4923760" lon="6.7433540">
        <ele>458.9</ele>
        <time>2019-02-24T10:23:43Z</time>
      </trkpt>
      <trkpt lat="46.4923760" lon="6.7433540">
        <ele>458.9</ele>
        <time>2019-02-24T10:23:44Z</time>
      </trkpt>
      <trkpt lat="46.4923760" lon="6.7433540">
        <ele>458.9</ele>
        <time>2019-02-24T10:23:45Z</time>
      </trkpt>
      <trkpt lat="46.4923760" lon="6.7433540">
        <ele>458.9</ele>
        <time>2019-02-24T10:23:46Z</time>
      </trkpt>
      <trkpt lat="46.4923760" lon="6.7433540">
        <ele>458.9</ele>
        <time>2019-02-24T10:23:47Z</time>
      </trkpt>
      <trkpt lat="46.4923760" lon="6.7433540">
        <ele>458.9</ele>
        <time>2019-02-24T10:23:48Z</time>
      </trkpt>
      <trkpt lat="46.4923760" lon="6.7433540">
        <ele>458.9</ele>
        <time>2019-02-24T10:23:49Z</time>
      </trkpt>
      <trkpt lat="46.4923760" lon="6.7433540">
        <ele>458.9</ele>
        <time>2019-02-24T10:23:50Z</time>
      </trkpt>
      <trkpt lat="46.4923760" lon="6.7433540">
        <ele>458.9</ele>
        <time>2019-02-24T10:23:51Z</time>
      </trkpt>
      <trkpt lat="46.4923760" lon="6.7433540">
        <ele>458.9</ele>
        <time>2019-02-24T10:23:52Z</time>
      </trkpt>
      <trkpt lat="46.4923760" lon="6.7433540">
        <ele>458.9</ele>
        <time>2019-02-24T10:23:53Z</time>
      </trkpt>
      <trkpt lat="46.4923760" lon="6.7433540">
        <ele>458.9</ele>
        <time>2019-02-24T10:23:54Z</time>
      </trkpt>
      <trkpt lat="46.4923760" lon="6.7433540">
        <ele>458.9</ele>
        <time>2019-02-24T10:23:55Z</time>
      </trkpt>
      <trkpt lat="46.4923760" lon="6.7433540">
        <ele>458.9</ele>
        <time>2019-02-24T10:23:56Z</time>
      </trkpt>
      <trkpt lat="46.4923760" lon="6.7433540">
        <ele>458.9</ele>
        <time>2019-02-24T10:23:57Z</time>
      </trkpt>
      <trkpt lat="46.4923760" lon="6.7433540">
        <ele>458.9</ele>
        <time>2019-02-24T10:23:58Z</time>
      </trkpt>
      <trkpt lat="46.4923760" lon="6.7433540">
        <ele>458.9</ele>
        <time>2019-02-24T10:23:59Z</time>
      </trkpt>
      <trkpt lat="46.4923760" lon="6.7433540">
        <ele>458.9</ele>
        <time>2019-02-24T10:24:00Z</time>
      </trkpt>
      <trkpt lat="46.4923760" lon="6.7433540">
        <ele>458.9</ele>
        <time>2019-02-24T10:24:01Z</time>
      </trkpt>
      <trkpt lat="46.4923760" lon="6.7433540">
        <ele>458.9</ele>
        <time>2019-02-24T10:24:02Z</time>
      </trkpt>
      <trkpt lat="46.4923760" lon="6.7433540">
        <ele>458.9</ele>
        <time>2019-02-24T10:24:03Z</time>
      </trkpt>
      <trkpt lat="46.4923760" lon="6.7433540">
        <ele>458.9</ele>
        <time>2019-02-24T10:24:04Z</time>
      </trkpt>
      <trkpt lat="46.4923760" lon="6.7433540">
        <ele>458.9</ele>
        <time>2019-02-24T10:24:05Z</time>
      </trkpt>
      <trkpt lat="46.4923760" lon="6.7433540">
        <ele>458.9</ele>
        <time>2019-02-24T10:24:06Z</time>
      </trkpt>
      <trkpt lat="46.4923760" lon="6.7433540">
        <ele>458.9</ele>
        <time>2019-02-24T10:24:07Z</time>
      </trkpt>
      <trkpt lat="46.4923760" lon="6.7433540">
        <ele>458.9</ele>
        <time>2019-02-24T10:24:08Z</time>
      </trkpt>
      <trkpt lat="46.4923760" lon="6.7433540">
        <ele>458.9</ele>
        <time>2019-02-24T10:24:09Z</time>
      </trkpt>
      <trkpt lat="46.4923760" lon="6.7433540">
        <ele>458.9</ele>
        <time>2019-02-24T10:24:10Z</time>
      </trkpt>
      <trkpt lat="46.4923760" lon="6.7433540">
        <ele>458.9</ele>
        <time>2019-02-24T10:24:11Z</time>
      </trkpt>
      <trkpt lat="46.4923760" lon="6.7433540">
        <ele>458.9</ele>
        <time>2019-02-24T10:24:12Z</time>
      </trkpt>
      <trkpt lat="46.4923760" lon="6.7433540">
        <ele>458.9</ele>
        <time>2019-02-24T10:24:13Z</time>
      </trkpt>
      <trkpt lat="46.4923760" lon="6.7433540">
        <ele>458.9</ele>
        <time>2019-02-24T10:24:14Z</time>
      </trkpt>
      <trkpt lat="46.4923760" lon="6.7433540">
        <ele>458.9</ele>
        <time>2019-02-24T10:24:15Z</time>
      </trkpt>
      <trkpt lat="46.4923760" lon="6.7433540">
        <ele>458.9</ele>
        <time>2019-02-24T10:24:16Z</time>
      </trkpt>
      <trkpt lat="46.4923760" lon="6.7433540">
        <ele>458.9</ele>
        <time>2019-02-24T10:24:17Z</time>
      </trkpt>
      <trkpt lat="46.4923760" lon="6.7433540">
        <ele>458.9</ele>
        <time>2019-02-24T10:24:18Z</time>
      </trkpt>
      <trkpt lat="46.4923760" lon="6.7433540">
        <ele>458.9</ele>
        <time>2019-02-24T10:24:19Z</time>
      </trkpt>
      <trkpt lat="46.4923760" lon="6.7433540">
        <ele>458.9</ele>
        <time>2019-02-24T10:24:20Z</time>
      </trkpt>
      <trkpt lat="46.4923760" lon="6.7433540">
        <ele>458.9</ele>
        <time>2019-02-24T10:24:21Z</time>
      </trkpt>
      <trkpt lat="46.4923760" lon="6.7433540">
        <ele>458.9</ele>
        <time>2019-02-24T10:24:22Z</time>
      </trkpt>
      <trkpt lat="46.4923760" lon="6.7433540">
        <ele>458.9</ele>
        <time>2019-02-24T10:24:23Z</time>
      </trkpt>
      <trkpt lat="46.4923760" lon="6.7433540">
        <ele>458.9</ele>
        <time>2019-02-24T10:24:24Z</time>
      </trkpt>
      <trkpt lat="46.4923760" lon="6.7433540">
        <ele>458.9</ele>
        <time>2019-02-24T10:24:25Z</time>
      </trkpt>
      <trkpt lat="46.4923760" lon="6.7433540">
        <ele>458.9</ele>
        <time>2019-02-24T10:24:26Z</time>
      </trkpt>
      <trkpt lat="46.4923760" lon="6.7433540">
        <ele>458.9</ele>
        <time>2019-02-24T10:24:27Z</time>
      </trkpt>
      <trkpt lat="46.4923760" lon="6.7433540">
        <ele>458.9</ele>
        <time>2019-02-24T10:24:28Z</time>
      </trkpt>
      <trkpt lat="46.4923760" lon="6.7433540">
        <ele>458.9</ele>
        <time>2019-02-24T10:24:29Z</time>
      </trkpt>
      <trkpt lat="46.4923760" lon="6.7433540">
        <ele>458.9</ele>
        <time>2019-02-24T10:24:30Z</time>
      </trkpt>
      <trkpt lat="46.4923760" lon="6.7433540">
        <ele>458.9</ele>
        <time>2019-02-24T10:24:31Z</time>
      </trkpt>
      <trkpt lat="46.4923760" lon="6.7433540">
        <ele>458.9</ele>
        <time>2019-02-24T10:24:32Z</time>
      </trkpt>
      <trkpt lat="46.4923760" lon="6.7433540">
        <ele>458.9</ele>
        <time>2019-02-24T10:24:33Z</time>
      </trkpt>
      <trkpt lat="46.4923760" lon="6.7433540">
        <ele>458.9</ele>
        <time>2019-02-24T10:24:34Z</time>
      </trkpt>
      <trkpt lat="46.4923760" lon="6.7433540">
        <ele>458.9</ele>
        <time>2019-02-24T10:24:35Z</time>
      </trkpt>
      <trkpt lat="46.4923760" lon="6.7433540">
        <ele>458.9</ele>
        <time>2019-02-24T10:24:36Z</time>
      </trkpt>
      <trkpt lat="46.4923760" lon="6.7433540">
        <ele>458.9</ele>
        <time>2019-02-24T10:24:37Z</time>
      </trkpt>
      <trkpt lat="46.4923760" lon="6.7433540">
        <ele>458.9</ele>
        <time>2019-02-24T10:24:38Z</time>
      </trkpt>
      <trkpt lat="46.4923760" lon="6.7433550">
        <ele>458.9</ele>
        <time>2019-02-24T10:24:39Z</time>
      </trkpt>
      <trkpt lat="46.4923760" lon="6.7433550">
        <ele>458.9</ele>
        <time>2019-02-24T10:24:40Z</time>
      </trkpt>
      <trkpt lat="46.4923760" lon="6.7433550">
        <ele>458.9</ele>
        <time>2019-02-24T10:24:41Z</time>
      </trkpt>
      <trkpt lat="46.4923740" lon="6.7433580">
        <ele>458.9</ele>
        <time>2019-02-24T10:24:42Z</time>
      </trkpt>
      <trkpt lat="46.4923650" lon="6.7433750">
        <ele>458.9</ele>
        <time>2019-02-24T10:24:43Z</time>
      </trkpt>
      <trkpt lat="46.4923580" lon="6.7433910">
        <ele>458.9</ele>
        <time>2019-02-24T10:24:44Z</time>
      </trkpt>
      <trkpt lat="46.4923540" lon="6.7434020">
        <ele>458.9</ele>
        <time>2019-02-24T10:24:45Z</time>
      </trkpt>
      <trkpt lat="46.4923510" lon="6.7434130">
        <ele>458.9</ele>
        <time>2019-02-24T10:24:46Z</time>
      </trkpt>
      <trkpt lat="46.4923480" lon="6.7434240">
        <ele>458.9</ele>
        <time>2019-02-24T10:24:47Z</time>
      </trkpt>
      <trkpt lat="46.4923420" lon="6.7434390">
        <ele>458.9</ele>
        <time>2019-02-24T10:24:48Z</time>
      </trkpt>
      <trkpt lat="46.4923350" lon="6.7434570">
        <ele>458.9</ele>
        <time>2019-02-24T10:24:49Z</time>
      </trkpt>
      <trkpt lat="46.4923280" lon="6.7434770">
        <ele>458.9</ele>
        <time>2019-02-24T10:24:50Z</time>
      </trkpt>
      <trkpt lat="46.4923210" lon="6.7435010">
        <ele>458.9</ele>
        <time>2019-02-24T10:24:51Z</time>
      </trkpt>
      <trkpt lat="46.4923160" lon="6.7435260">
        <ele>458.9</ele>
        <time>2019-02-24T10:24:52Z</time>
      </trkpt>
      <trkpt lat="46.4923120" lon="6.7435530">
        <ele>458.9</ele>
        <time>2019-02-24T10:24:53Z</time>
      </trkpt>
      <trkpt lat="46.4923100" lon="6.7435830">
        <ele>458.9</ele>
        <time>2019-02-24T10:24:54Z</time>
      </trkpt>
      <trkpt lat="46.4923100" lon="6.7436140">
        <ele>458.9</ele>
        <time>2019-02-24T10:24:55Z</time>
      </trkpt>
      <trkpt lat="46.4923110" lon="6.7436480">
        <ele>458.9</ele>
        <time>2019-02-24T10:24:56Z</time>
      </trkpt>
      <trkpt lat="46.4923130" lon="6.7436850">
        <ele>458.9</ele>
        <time>2019-02-24T10:24:57Z</time>
      </trkpt>
      <trkpt lat="46.4923160" lon="6.7437240">
        <ele>458.9</ele>
        <time>2019-02-24T10:24:58Z</time>
      </trkpt>
      <trkpt lat="46.4923220" lon="6.7437870">
        <ele>458.9</ele>
        <time>2019-02-24T10:24:59Z</time>
      </trkpt>
      <trkpt lat="46.4923240" lon="6.7438100">
        <ele>459.1</ele>
        <time>2019-02-24T10:25:00Z</time>
      </trkpt>
      <trkpt lat="46.4923280" lon="6.7438550">
        <ele>459.4</ele>
        <time>2019-02-24T10:25:01Z</time>
      </trkpt>
      <trkpt lat="46.4923320" lon="6.7439040">
        <ele>459.6</ele>
        <time>2019-02-24T10:25:02Z</time>
      </trkpt>
      <trkpt lat="46.4923360" lon="6.7439560">
        <ele>459.8</ele>
        <time>2019-02-24T10:25:03Z</time>
      </trkpt>
      <trkpt lat="46.4923390" lon="6.7440090">
        <ele>460.0</ele>
        <time>2019-02-24T10:25:04Z</time>
      </trkpt>
      <trkpt lat="46.4923410" lon="6.7440660">
        <ele>460.2</ele>
        <time>2019-02-24T10:25:05Z</time>
      </trkpt>
      <trkpt lat="46.4923410" lon="6.7441240">
        <ele>460.4</ele>
        <time>2019-02-24T10:25:06Z</time>
      </trkpt>
      <trkpt lat="46.4923390" lon="6.7441850">
        <ele>460.5</ele>
        <time>2019-02-24T10:25:07Z</time>
      </trkpt>
      <trkpt lat="46.4923350" lon="6.7442480">
        <ele>460.7</ele>
        <time>2019-02-24T10:25:08Z</time>
      </trkpt>
      <trkpt lat="46.4923340" lon="6.7443120">
        <ele>460.8</ele>
        <time>2019-02-24T10:25:09Z</time>
      </trkpt>
      <trkpt lat="46.4923400" lon="6.7443760">
        <ele>461.0</ele>
        <time>2019-02-24T10:25:10Z</time>
      </trkpt>
      <trkpt lat="46.4923560" lon="6.7444390">
        <ele>461.2</ele>
        <time>2019-02-24T10:25:11Z</time>
      </trkpt>
      <trkpt lat="46.4923870" lon="6.7444990">
        <ele>461.4</ele>
        <time>2019-02-24T10:25:12Z</time>
      </trkpt>
      <trkpt lat="46.4924230" lon="6.7445610">
        <ele>461.5</ele>
        <time>2019-02-24T10:25:13Z</time>
      </trkpt>
      <trkpt lat="46.4924570" lon="6.7446270">
        <ele>461.7</ele>
        <time>2019-02-24T10:25:14Z</time>
      </trkpt>
      <trkpt lat="46.4924840" lon="6.7446940">
        <ele>461.8</ele>
        <time>2019-02-24T10:25:15Z</time>
      </trkpt>
      <trkpt lat="46.4925050" lon="6.7448020">
        <ele>462.0</ele>
        <time>2019-02-24T10:25:16Z</time>
      </trkpt>
      <trkpt lat="46.4925090" lon="6.7448430">
        <ele>462.0</ele>
        <time>2019-02-24T10:25:17Z</time>
      </trkpt>
      <trkpt lat="46.4925120" lon="6.7448840">
        <ele>462.1</ele>
        <time>2019-02-24T10:25:18Z</time>
      </trkpt>
      <trkpt lat="46.4925060" lon="6.7449390">
        <ele>462.2</ele>
        <time>2019-02-24T10:25:19Z</time>
      </trkpt>
      <trkpt lat="46.4924960" lon="6.7449870">
        <ele>462.3</ele>
        <time>2019-02-24T10:25:20Z</time>
      </trkpt>
      <trkpt lat="46.4924810" lon="6.7450300">
        <ele>462.4</ele>
        <time>2019-02-24T10:25:21Z</time>
      </trkpt>
      <trkpt lat="46.4924630" lon="6.7450680">
        <ele>462.5</ele>
        <time>2019-02-24T10:25:22Z</time>
      </trkpt>
      <trkpt lat="46.4924430" lon="6.7451030">
        <ele>462.5</ele>
        <time>2019-02-24T10:25:23Z</time>
      </trkpt>
      <trkpt lat="46.4924220" lon="6.7451350">
        <ele>462.6</ele>
        <time>2019-02-24T10:25:24Z</time>
      </trkpt>
      <trkpt lat="46.4924000" lon="6.7451660">
        <ele>462.6</ele>
        <time>2019-02-24T10:25:25Z</time>
      </trkpt>
      <trkpt lat="46.4923760" lon="6.7451960">
        <ele>462.7</ele>
        <time>2019-02-24T10:25:26Z</time>
      </trkpt>
      <trkpt lat="46.4923520" lon="6.7452250">
        <ele>462.7</ele>
        <time>2019-02-24T10:25:27Z</time>
      </trkpt>
      <trkpt lat="46.4923260" lon="6.7452540">
        <ele>462.8</ele>
        <time>2019-02-24T10:25:28Z</time>
      </trkpt>
      <trkpt lat="46.4922990" lon="6.7452830">
        <ele>463.0</ele>
        <time>2019-02-24T10:25:29Z</time>
      </trkpt>
      <trkpt lat="46.4922700" lon="6.7453130">
        <ele>461.8</ele>
        <time>2019-02-24T10:25:30Z</time>
      </trkpt>
      <trkpt lat="46.4922400" lon="6.7453450">
        <ele>461.1</ele>
        <time>2019-02-24T10:25:31Z</time>
      </trkpt>
      <trkpt lat="46.4922080" lon="6.7453790">
        <ele>460.3</ele>
        <time>2019-02-24T10:25:32Z</time>
      </trkpt>
      <trkpt lat="46.4921750" lon="6.7454160">
        <ele>460.1</ele>
        <time>2019-02-24T10:25:33Z</time>
      </trkpt>
      <trkpt lat="46.4921410" lon="6.7454550">
        <ele>460.0</ele>
        <time>2019-02-24T10:25:34Z</time>
      </trkpt>
      <trkpt lat="46.4921060" lon="6.7454980">
        <ele>459.9</ele>
        <time>2019-02-24T10:25:35Z</time>
      </trkpt>
      <trkpt lat="46.4920720" lon="6.7455440">
        <ele>459.8</ele>
        <time>2019-02-24T10:25:36Z</time>
      </trkpt>
      <trkpt lat="46.4920390" lon="6.7455930">
        <ele>459.6</ele>
        <time>2019-02-24T10:25:37Z</time>
      </trkpt>
      <trkpt lat="46.4920080" lon="6.7456470">
        <ele>459.5</ele>
        <time>2019-02-24T10:25:38Z</time>
      </trkpt>
      <trkpt lat="46.4919790" lon="6.7457050">
        <ele>459.3</ele>
        <time>2019-02-24T10:25:39Z</time>
      </trkpt>
      <trkpt lat="46.4919550" lon="6.7457670">
        <ele>459.1</ele>
        <time>2019-02-24T10:25:40Z</time>
      </trkpt>
      <trkpt lat="46.4919340" lon="6.7458340">
        <ele>458.9</ele>
        <time>2019-02-24T10:25:41Z</time>
      </trkpt>
      <trkpt lat="46.4919160" lon="6.7459050">
        <ele>458.6</ele>
        <time>2019-02-24T10:25:42Z</time>
      </trkpt>
      <trkpt lat="46.4919020" lon="6.7459800">
        <ele>458.4</ele>
        <time>2019-02-24T10:25:43Z</time>
      </trkpt>
      <trkpt lat="46.4918900" lon="6.7460570">
        <ele>458.0</ele>
        <time>2019-02-24T10:25:44Z</time>
      </trkpt>
      <trkpt lat="46.4918790" lon="6.7461370">
        <ele>457.5</ele>
        <time>2019-02-24T10:25:45Z</time>
      </trkpt>
      <trkpt lat="46.4918630" lon="6.7462730">
        <ele>456.7</ele>
        <time>2019-02-24T10:25:46Z</time>
      </trkpt>
      <trkpt lat="46.4918560" lon="6.7463270">
        <ele>456.9</ele>
        <time>2019-02-24T10:25:47Z</time>
      </trkpt>
      <trkpt lat="46.4918500" lon="6.7463820">
        <ele>457.0</ele>
        <time>2019-02-24T10:25:48Z</time>
      </trkpt>
      <trkpt lat="46.4918390" lon="6.7464640">
        <ele>457.2</ele>
        <time>2019-02-24T10:25:49Z</time>
      </trkpt>
      <trkpt lat="46.4918270" lon="6.7465440">
        <ele>457.4</ele>
        <time>2019-02-24T10:25:50Z</time>
      </trkpt>
      <trkpt lat="46.4918060" lon="6.7466770">
        <ele>457.7</ele>
        <time>2019-02-24T10:25:51Z</time>
      </trkpt>
      <trkpt lat="46.4917960" lon="6.7467290">
        <ele>457.9</ele>
        <time>2019-02-24T10:25:52Z</time>
      </trkpt>
      <trkpt lat="46.4917870" lon="6.7467810">
        <ele>457.9</ele>
        <time>2019-02-24T10:25:53Z</time>
      </trkpt>
      <trkpt lat="46.4917730" lon="6.7468580">
        <ele>457.9</ele>
        <time>2019-02-24T10:25:54Z</time>
      </trkpt>
      <trkpt lat="46.4917590" lon="6.7469330">
        <ele>457.9</ele>
        <time>2019-02-24T10:25:55Z</time>
      </trkpt>
      <trkpt lat="46.4917440" lon="6.7470060">
        <ele>458.0</ele>
        <time>2019-02-24T10:25:56Z</time>
      </trkpt>
      <trkpt lat="46.4917290" lon="6.7470770">
        <ele>458.0</ele>
        <time>2019-02-24T10:25:57Z</time>
      </trkpt>
      <trkpt lat="46.4917130" lon="6.7471470">
        <ele>458.1</ele>
        <time>2019-02-24T10:25:58Z</time>
      </trkpt>
      <trkpt lat="46.4916940" lon="6.7472170">
        <ele>458.1</ele>
        <time>2019-02-24T10:25:59Z</time>
      </trkpt>
      <trkpt lat="46.4916710" lon="6.7472860">
        <ele>458.1</ele>
        <time>2019-02-24T10:26:00Z</time>
      </trkpt>
      <trkpt lat="46.4916440" lon="6.7473550">
        <ele>458.2</ele>
        <time>2019-02-24T10:26:01Z</time>
      </trkpt>
      <trkpt lat="46.4916150" lon="6.7474190">
        <ele>457.9</ele>
        <time>2019-02-24T10:26:02Z</time>
      </trkpt>
      <trkpt lat="46.4915880" lon="6.7474750">
        <ele>457.6</ele>
        <time>2019-02-24T10:26:03Z</time>
      </trkpt>
      <trkpt lat="46.4915660" lon="6.7475180">
        <ele>457.4</ele>
        <time>2019-02-24T10:26:04Z</time>
      </trkpt>
      <trkpt lat="46.4915530" lon="6.7475450">
        <ele>457.3</ele>
        <time>2019-02-24T10:26:05Z</time>
      </trkpt>
      <trkpt lat="46.4915440" lon="6.7475620">
        <ele>457.2</ele>
        <time>2019-02-24T10:26:06Z</time>
      </trkpt>
      <trkpt lat="46.4915430" lon="6.7475640">
        <ele>457.2</ele>
        <time>2019-02-24T10:26:07Z</time>
      </trkpt>
      <trkpt lat="46.4915430" lon="6.7475640">
        <ele>457.2</ele>
        <time>2019-02-24T10:26:08Z</time>
      </trkpt>
      <trkpt lat="46.4915430" lon="6.7475640">
        <ele>457.2</ele>
        <time>2019-02-24T10:26:09Z</time>
      </trkpt>
      <trkpt lat="46.4915430" lon="6.7475640">
        <ele>457.2</ele>
        <time>2019-02-24T10:26:10Z</time>
      </trkpt>
      <trkpt lat="46.4915430" lon="6.7475640">
        <ele>457.2</ele>
        <time>2019-02-24T10:26:11Z</time>
      </trkpt>
      <trkpt lat="46.4915430" lon="6.7475640">
        <ele>457.2</ele>
        <time>2019-02-24T10:26:12Z</time>
      </trkpt>
      <trkpt lat="46.4915430" lon="6.7475640">
        <ele>457.2</ele>
        <time>2019-02-24T10:26:13Z</time>
      </trkpt>
      <trkpt lat="46.4915430" lon="6.7475640">
        <ele>457.2</ele>
        <time>2019-02-24T10:26:14Z</time>
      </trkpt>
      <trkpt lat="46.4915430" lon="6.7475640">
        <ele>457.2</ele>
        <time>2019-02-24T10:26:15Z</time>
      </trkpt>
      <trkpt lat="46.4915430" lon="6.7475640">
        <ele>457.2</ele>
        <time>2019-02-24T10:26:16Z</time>
      </trkpt>
      <trkpt lat="46.4915430" lon="6.7475640">
        <ele>457.2</ele>
        <time>2019-02-24T10:26:17Z</time>
      </trkpt>
      <trkpt lat="46.4915430" lon="6.7475640">
        <ele>457.2</ele>
        <time>2019-02-24T10:26:18Z</time>
      </trkpt>
      <trkpt lat="46.4915430" lon="6.7475640">
        <ele>457.2</ele>
        <time>2019-02-24T10:26:19Z</time>
      </trkpt>
      <trkpt lat="46.4915430" lon="6.7475640">
        <ele>457.2</ele>
        <time>2019-02-24T10:26:20Z</time>
      </trkpt>
      <trkpt lat="46.4915430" lon="6.7475640">
        <ele>457.2</ele>
        <time>2019-02-24T10:26:21Z</time>
      </trkpt>
      <trkpt lat="46.4915430" lon="6.7475640">
        <ele>457.2</ele>
        <time>2019-02-24T10:26:22Z</time>
      </trkpt>
      <trkpt lat="46.4915430" lon="6.7475640">
        <ele>457.2</ele>
        <time>2019-02-24T10:26:23Z</time>
      </trkpt>
      <trkpt lat="46.4915430" lon="6.7475640">
        <ele>457.2</ele>
        <time>2019-02-24T10:26:24Z</time>
      </trkpt>
      <trkpt lat="46.4915430" lon="6.7475640">
        <ele>457.2</ele>
        <time>2019-02-24T10:26:25Z</time>
      </trkpt>
      <trkpt lat="46.4915430" lon="6.7475640">
        <ele>457.2</ele>
        <time>2019-02-24T10:26:26Z</time>
      </trkpt>
      <trkpt lat="46.4915430" lon="6.7475640">
        <ele>457.2</ele>
        <time>2019-02-24T10:26:27Z</time>
      </trkpt>
      <trkpt lat="46.4915430" lon="6.7475640">
        <ele>457.2</ele>
        <time>2019-02-24T10:26:28Z</time>
      </trkpt>
      <trkpt lat="46.4915430" lon="6.7475640">
        <ele>457.2</ele>
        <time>2019-02-24T10:26:29Z</time>
      </trkpt>
      <trkpt lat="46.4915430" lon="6.7475640">
        <ele>457.2</ele>
        <time>2019-02-24T10:26:30Z</time>
      </trkpt>
      <trkpt lat="46.4915430" lon="6.7475640">
        <ele>457.2</ele>
        <time>2019-02-24T10:26:31Z</time>
      </trkpt>
      <trkpt lat="46.4915430" lon="6.7475640">
        <ele>457.2</ele>
        <time>2019-02-24T10:26:32Z</time>
      </trkpt>
      <trkpt lat="46.4915430" lon="6.7475640">
        <ele>457.2</ele>
        <time>2019-02-24T10:26:33Z</time>
      </trkpt>
      <trkpt lat="46.4915430" lon="6.7475640">
        <ele>457.2</ele>
        <time>2019-02-24T10:26:34Z</time>
      </trkpt>
      <trkpt lat="46.4915430" lon="6.7475640">
        <ele>457.2</ele>
        <time>2019-02-24T10:26:35Z</time>
      </trkpt>
      <trkpt lat="46.4915430" lon="6.7475640">
        <ele>457.2</ele>
        <time>2019-02-24T10:26:36Z</time>
      </trkpt>
      <trkpt lat="46.4915430" lon="6.7475640">
        <ele>457.2</ele>
        <time>2019-02-24T10:26:37Z</time>
      </trkpt>
      <trkpt lat="46.4915430" lon="6.7475640">
        <ele>457.2</ele>
        <time>2019-02-24T10:26:38Z</time>
      </trkpt>
      <trkpt lat="46.4915430" lon="6.7475640">
        <ele>457.2</ele>
        <time>2019-02-24T10:26:39Z</time>
      </trkpt>
      <trkpt lat="46.4915430" lon="6.7475640">
        <ele>457.2</ele>
        <time>2019-02-24T10:26:40Z</time>
      </trkpt>
      <trkpt lat="46.4915430" lon="6.7475640">
        <ele>457.2</ele>
        <time>2019-02-24T10:26:41Z</time>
      </trkpt>
      <trkpt lat="46.4915430" lon="6.7475640">
        <ele>457.2</ele>
        <time>2019-02-24T10:26:42Z</time>
      </trkpt>
      <trkpt lat="46.4915430" lon="6.7475640">
        <ele>457.2</ele>
        <time>2019-02-24T10:26:43Z</time>
      </trkpt>
      <trkpt lat="46.4915430" lon="6.7475640">
        <ele>457.2</ele>
        <time>2019-02-24T10:26:44Z</time>
      </trkpt>
      <trkpt lat="46.4915430" lon="6.7475640">
        <ele>457.2</ele>
        <time>2019-02-24T10:26:45Z</time>
      </trkpt>
      <trkpt lat="46.4915430" lon="6.7475640">
        <ele>457.2</ele>
        <time>2019-02-24T10:26:46Z</time>
      </trkpt>
      <trkpt lat="46.4915430" lon="6.7475640">
        <ele>457.2</ele>
        <time>2019-02-24T10:26:47Z</time>
      </trkpt>
      <trkpt lat="46.4915430" lon="6.7475640">
        <ele>457.2</ele>
        <time>2019-02-24T10:26:48Z</time>
      </trkpt>
      <trkpt lat="46.4915430" lon="6.7475640">
        <ele>457.2</ele>
        <time>2019-02-24T10:26:49Z</time>
      </trkpt>
      <trkpt lat="46.4915430" lon="6.7475640">
        <ele>457.2</ele>
        <time>2019-02-24T10:26:50Z</time>
      </trkpt>
      <trkpt lat="46.4915430" lon="6.7475640">
        <ele>457.2</ele>
        <time>2019-02-24T10:26:51Z</time>
      </trkpt>
      <trkpt lat="46.4915430" lon="6.7475640">
        <ele>457.2</ele>
        <time>2019-02-24T10:26:52Z</time>
      </trkpt>
      <trkpt lat="46.4915430" lon="6.7475640">
        <ele>457.2</ele>
        <time>2019-02-24T10:26:53Z</time>
      </trkpt>
      <trkpt lat="46.4915430" lon="6.7475640">
        <ele>457.2</ele>
        <time>2019-02-24T10:26:54Z</time>
      </trkpt>
      <trkpt lat="46.4915430" lon="6.7475640">
        <ele>457.2</ele>
        <time>2019-02-24T10:26:55Z</time>
      </trkpt>
      <trkpt lat="46.4915430" lon="6.7475640">
        <ele>457.2</ele>
        <time>2019-02-24T10:26:56Z</time>
      </trkpt>
      <trkpt lat="46.4915430" lon="6.7475640">
        <ele>457.2</ele>
        <time>2019-02-24T10:26:57Z</time>
      </trkpt>
      <trkpt lat="46.4915430" lon="6.7475640">
        <ele>457.2</ele>
        <time>2019-02-24T10:26:58Z</time>
      </trkpt>
      <trkpt lat="46.4915430" lon="6.7475640">
        <ele>457.2</ele>
        <time>2019-02-24T10:26:59Z</time>
      </trkpt>
      <trkpt lat="46.4915430" lon="6.7475640">
        <ele>457.2</ele>
        <time>2019-02-24T10:27:00Z</time>
      </trkpt>
      <trkpt lat="46.4915430" lon="6.7475640">
        <ele>457.2</ele>
        <time>2019-02-24T10:27:01Z</time>
      </trkpt>
      <trkpt lat="46.4915430" lon="6.7475640">
        <ele>457.2</ele>
        <time>2019-02-24T10:27:02Z</time>
      </trkpt>
      <trkpt lat="46.4915430" lon="6.7475640">
        <ele>457.2</ele>
        <time>2019-02-24T10:27:03Z</time>
      </trkpt>
      <trkpt lat="46.4915430" lon="6.7475640">
        <ele>457.2</ele>
        <time>2019-02-24T10:27:04Z</time>
      </trkpt>
      <trkpt lat="46.4915430" lon="6.7475640">
        <ele>457.2</ele>
        <time>2019-02-24T10:27:05Z</time>
      </trkpt>
      <trkpt lat="46.4915430" lon="6.7475640">
        <ele>457.2</ele>
        <time>2019-02-24T10:27:06Z</time>
      </trkpt>
      <trkpt lat="46.4915440" lon="6.7475630">
        <ele>457.2</ele>
        <time>2019-02-24T10:27:07Z</time>
      </trkpt>
      <trkpt lat="46.4915440" lon="6.7475620">
        <ele>457.2</ele>
        <time>2019-02-24T10:27:08Z</time>
      </trkpt>
      <trkpt lat="46.4915440" lon="6.7475610">
        <ele>457.2</ele>
        <time>2019-02-24T10:27:09Z</time>
      </trkpt>
      <trkpt lat="46.4915440" lon="6.7475620">
        <ele>457.2</ele>
        <time>2019-02-24T10:27:10Z</time>
      </trkpt>
      <trkpt lat="46.4915440" lon="6.7475650">
        <ele>457.2</ele>
        <time>2019-02-24T10:27:11Z</time>
      </trkpt>
      <trkpt lat="46.4915420" lon="6.7475740">
        <ele>457.2</ele>
        <time>2019-02-24T10:27:12Z</time>
      </trkpt>
      <trkpt lat="46.4915380" lon="6.7475870">
        <ele>457.1</ele>
        <time>2019-02-24T10:27:13Z</time>
      </trkpt>
      <trkpt lat="46.4915320" lon="6.7476060">
        <ele>457.1</ele>
        <time>2019-02-24T10:27:14Z</time>
      </trkpt>
      <trkpt lat="46.4915240" lon="6.7476290">
        <ele>457.0</ele>
        <time>2019-02-24T10:27:15Z</time>
      </trkpt>
      <trkpt lat="46.4915120" lon="6.7476540">
        <ele>456.9</ele>
        <time>2019-02-24T10:27:16Z</time>
      </trkpt>
      <trkpt lat="46.4914970" lon="6.7476810">
        <ele>456.8</ele>
        <time>2019-02-24T10:27:17Z</time>
      </trkpt>
      <trkpt lat="46.4914800" lon="6.7477100">
        <ele>456.8</ele>
        <time>2019-02-24T10:27:18Z</time>
      </trkpt>
      <trkpt lat="46.4914590" lon="6.7477400">
        <ele>456.7</ele>
        <time>2019-02-24T10:27:19Z</time>
      </trkpt>
      <trkpt lat="46.4914370" lon="6.7477730">
        <ele>456.6</ele>
        <time>2019-02-24T10:27:20Z</time>
      </trkpt>
      <trkpt lat="46.4914120" lon="6.7478080">
        <ele>456.6</ele>
        <time>2019-02-24T10:27:21Z</time>
      </trkpt>
      <trkpt lat="46.4913700" lon="6.7478740">
        <ele>456.5</ele>
        <time>2019-02-24T10:27:22Z</time>
      </trkpt>
      <trkpt lat="46.4913530" lon="6.7479030">
        <ele>456.4</ele>
        <time>2019-02-24T10:27:23Z</time>
      </trkpt>
      <trkpt lat="46.4913360" lon="6.7479310">
        <ele>456.4</ele>
        <time>2019-02-24T10:27:24Z</time>
      </trkpt>
      <trkpt lat="46.4913100" lon="6.7479780">
        <ele>456.4</ele>
        <time>2019-02-24T10:27:25Z</time>
      </trkpt>
      <trkpt lat="46.4912850" lon="6.7480270">
        <ele>456.4</ele>
        <time>2019-02-24T10:27:26Z</time>
      </trkpt>
      <trkpt lat="46.4912420" lon="6.7481070">
        <ele>456.4</ele>
        <time>2019-02-24T10:27:27Z</time>
      </trkpt>
      <trkpt lat="46.4912250" lon="6.7481370">
        <ele>456.4</ele>
        <time>2019-02-24T10:27:28Z</time>
      </trkpt>
      <trkpt lat="46.4912070" lon="6.7481680">
        <ele>456.4</ele>
        <time>2019-02-24T10:27:29Z</time>
      </trkpt>
      <trkpt lat="46.4911790" lon="6.7482090">
        <ele>456.4</ele>
        <time>2019-02-24T10:27:30Z</time>
      </trkpt>
      <trkpt lat="46.4911520" lon="6.7482480">
        <ele>456.5</ele>
        <time>2019-02-24T10:27:31Z</time>
      </trkpt>
      <trkpt lat="46.4911260" lon="6.7482850">
        <ele>456.5</ele>
        <time>2019-02-24T10:27:32Z</time>
      </trkpt>
      <trkpt lat="46.4911000" lon="6.7483200">
        <ele>456.5</ele>
        <time>2019-02-24T10:27:33Z</time>
      </trkpt>
      <trkpt lat="46.4910760" lon="6.7483530">
        <ele>456.5</ele>
        <time>2019-02-24T10:27:34Z</time>
      </trkpt>
      <trkpt lat="46.4910520" lon="6.7483840">
        <ele>456.5</ele>
        <time>2019-02-24T10:27:35Z</time>
      </trkpt>
      <trkpt lat="46.4910280" lon="6.7484130">
        <ele>456.5</ele>
        <time>2019-02-24T10:27:36Z</time>
      </trkpt>
      <trkpt lat="46.4910050" lon="6.7484410">
        <ele>456.5</ele>
        <time>2019-02-24T10:27:37Z</time>
      </trkpt>
      <trkpt lat="46.4909810" lon="6.7484670">
        <ele>456.6</ele>
        <time>2019-02-24T10:27:38Z</time>
      </trkpt>
      <trkpt lat="46.4909560" lon="6.7484910">
        <ele>456.6</ele>
        <time>2019-02-24T10:27:39Z</time>
      </trkpt>
      <trkpt lat="46.4909310" lon="6.7485130">
        <ele>456.6</ele>
        <time>2019-02-24T10:27:40Z</time>
      </trkpt>
      <trkpt lat="46.4909050" lon="6.7485340">
        <ele>456.6</ele>
        <time>2019-02-24T10:27:41Z</time>
      </trkpt>
      <trkpt lat="46.4908770" lon="6.7485530">
        <ele>456.6</ele>
        <time>2019-02-24T10:27:42Z</time>
      </trkpt>
      <trkpt lat="46.4908490" lon="6.7485700">
        <ele>456.6</ele>
        <time>2019-02-24T10:27:43Z</time>
      </trkpt>
      <trkpt lat="46.4908200" lon="6.7485860">
        <ele>456.6</ele>
        <time>2019-02-24T10:27:44Z</time>
      </trkpt>
      <trkpt lat="46.4907900" lon="6.7486010">
        <ele>456.6</ele>
        <time>2019-02-24T10:27:45Z</time>
      </trkpt>
      <trkpt lat="46.4907620" lon="6.7486150">
        <ele>456.6</ele>
        <time>2019-02-24T10:27:46Z</time>
      </trkpt>
      <trkpt lat="46.4907330" lon="6.7486280">
        <ele>456.5</ele>
        <time>2019-02-24T10:27:47Z</time>
      </trkpt>
      <trkpt lat="46.4907060" lon="6.7486400">
        <ele>456.5</ele>
        <time>2019-02-24T10:27:48Z</time>
      </trkpt>
      <trkpt lat="46.4906800" lon="6.7486520">
        <ele>456.4</ele>
        <time>2019-02-24T10:27:49Z</time>
      </trkpt>
      <trkpt lat="46.4906570" lon="6.7486620">
        <ele>456.4</ele>
        <time>2019-02-24T10:27:50Z</time>
      </trkpt>
      <trkpt lat="46.4906330" lon="6.7486720">
        <ele>456.3</ele>
        <time>2019-02-24T10:27:51Z</time>
      </trkpt>
      <trkpt lat="46.4906090" lon="6.7486810">
        <ele>456.3</ele>
        <time>2019-02-24T10:27:52Z</time>
      </trkpt>
      <trkpt lat="46.4905830" lon="6.7486880">
        <ele>456.2</ele>
        <time>2019-02-24T10:27:53Z</time>
      </trkpt>
      <trkpt lat="46.4905540" lon="6.7486940">
        <ele>456.1</ele>
        <time>2019-02-24T10:27:54Z</time>
      </trkpt>
      <trkpt lat="46.4905230" lon="6.7486990">
        <ele>456.1</ele>
        <time>2019-02-24T10:27:55Z</time>
      </trkpt>
      <trkpt lat="46.4904910" lon="6.7487060">
        <ele>456.0</ele>
        <time>2019-02-24T10:27:56Z</time>
      </trkpt>
      <trkpt lat="46.4904600" lon="6.7487170">
        <ele>456.0</ele>
        <time>2019-02-24T10:27:57Z</time>
      </trkpt>
      <trkpt lat="46.4904310" lon="6.7487320">
        <ele>456.0</ele>
        <time>2019-02-24T10:27:58Z</time>
      </trkpt>
      <trkpt lat="46.4904040" lon="6.7487540">
        <ele>456.9</ele>
        <time>2019-02-24T10:27:59Z</time>
      </trkpt>
      <trkpt lat="46.4903780" lon="6.7487800">
        <ele>457.4</ele>
        <time>2019-02-24T10:28:00Z</time>
      </trkpt>
      <trkpt lat="46.4903540" lon="6.7488110">
        <ele>457.8</ele>
        <time>2019-02-24T10:28:01Z</time>
      </trkpt>
      <trkpt lat="46.4903180" lon="6.7488730">
        <ele>458.5</ele>
        <time>2019-02-24T10:28:02Z</time>
      </trkpt>
      <trkpt lat="46.4903050" lon="6.7489000">
        <ele>458.7</ele>
        <time>2019-02-24T10:28:03Z</time>
      </trkpt>
      <trkpt lat="46.4902910" lon="6.7489270">
        <ele>458.8</ele>
        <time>2019-02-24T10:28:04Z</time>
      </trkpt>
      <trkpt lat="46.4902710" lon="6.7489730">
        <ele>459.1</ele>
        <time>2019-02-24T10:28:05Z</time>
      </trkpt>
      <trkpt lat="46.4902530" lon="6.7490220">
        <ele>459.2</ele>
        <time>2019-02-24T10:28:06Z</time>
      </trkpt>
      <trkpt lat="46.4902360" lon="6.7490740">
        <ele>459.3</ele>
        <time>2019-02-24T10:28:07Z</time>
      </trkpt>
      <trkpt lat="46.4902190" lon="6.7491260">
        <ele>459.4</ele>
        <time>2019-02-24T10:28:08Z</time>
      </trkpt>
      <trkpt lat="46.4902030" lon="6.7491810">
        <ele>459.5</ele>
        <time>2019-02-24T10:28:09Z</time>
      </trkpt>
      <trkpt lat="46.4901880" lon="6.7492380">
        <ele>459.6</ele>
        <time>2019-02-24T10:28:10Z</time>
      </trkpt>
      <trkpt lat="46.4901740" lon="6.7492950">
        <ele>459.6</ele>
        <time>2019-02-24T10:28:11Z</time>
      </trkpt>
      <trkpt lat="46.4901540" lon="6.7493830">
        <ele>459.7</ele>
        <time>2019-02-24T10:28:12Z</time>
      </trkpt>
      <trkpt lat="46.4901480" lon="6.7494120">
        <ele>459.8</ele>
        <time>2019-02-24T10:28:13Z</time>
      </trkpt>
      <trkpt lat="46.4901350" lon="6.7494700">
        <ele>459.8</ele>
        <time>2019-02-24T10:28:14Z</time>
      </trkpt>
      <trkpt lat="46.4901230" lon="6.7495270">
        <ele>459.9</ele>
        <time>2019-02-24T10:28:15Z</time>
      </trkpt>
      <trkpt lat="46.4901120" lon="6.7495840">
        <ele>459.9</ele>
        <time>2019-02-24T10:28:16Z</time>
      </trkpt>
      <trkpt lat="46.4901010" lon="6.7496390">
        <ele>460.0</ele>
        <time>2019-02-24T10:28:17Z</time>
      </trkpt>
      <trkpt lat="46.4900900" lon="6.7496920">
        <ele>460.1</ele>
        <time>2019-02-24T10:28:18Z</time>
      </trkpt>
      <trkpt lat="46.4900780" lon="6.7497420">
        <ele>460.2</ele>
        <time>2019-02-24T10:28:19Z</time>
      </trkpt>
      <trkpt lat="46.4900670" lon="6.7497890">
        <ele>460.4</ele>
        <time>2019-02-24T10:28:20Z</time>
      </trkpt>
      <trkpt lat="46.4900540" lon="6.7498330">
        <ele>460.6</ele>
        <time>2019-02-24T10:28:21Z</time>
      </trkpt>
      <trkpt lat="46.4900420" lon="6.7498730">
        <ele>460.9</ele>
        <time>2019-02-24T10:28:22Z</time>
      </trkpt>
      <trkpt lat="46.4900280" lon="6.7499090">
        <ele>461.2</ele>
        <time>2019-02-24T10:28:23Z</time>
      </trkpt>
      <trkpt lat="46.4900140" lon="6.7499430">
        <ele>461.6</ele>
        <time>2019-02-24T10:28:24Z</time>
      </trkpt>
      <trkpt lat="46.4899990" lon="6.7499740">
        <ele>461.9</ele>
        <time>2019-02-24T10:28:25Z</time>
      </trkpt>
      <trkpt lat="46.4899830" lon="6.7500030">
        <ele>462.2</ele>
        <time>2019-02-24T10:28:26Z</time>
      </trkpt>
      <trkpt lat="46.4899670" lon="6.7500300">
        <ele>462.5</ele>
        <time>2019-02-24T10:28:27Z</time>
      </trkpt>
      <trkpt lat="46.4899500" lon="6.7500570">
        <ele>462.9</ele>
        <time>2019-02-24T10:28:28Z</time>
      </trkpt>
      <trkpt lat="46.4899320" lon="6.7500840">
        <ele>463.2</ele>
        <time>2019-02-24T10:28:29Z</time>
      </trkpt>
      <trkpt lat="46.4899140" lon="6.7501100">
        <ele>463.6</ele>
        <time>2019-02-24T10:28:30Z</time>
      </trkpt>
      <trkpt lat="46.4898950" lon="6.7501360">
        <ele>463.4</ele>
        <time>2019-02-24T10:28:31Z</time>
      </trkpt>
      <trkpt lat="46.4898760" lon="6.7501630">
        <ele>463.2</ele>
        <time>2019-02-24T10:28:32Z</time>
      </trkpt>
      <trkpt lat="46.4898570" lon="6.7501890">
        <ele>463.1</ele>
        <time>2019-02-24T10:28:33Z</time>
      </trkpt>
      <trkpt lat="46.4898370" lon="6.7502140">
        <ele>463.0</ele>
        <time>2019-02-24T10:28:34Z</time>
      </trkpt>
      <trkpt lat="46.4898180" lon="6.7502400">
        <ele>462.8</ele>
        <time>2019-02-24T10:28:35Z</time>
      </trkpt>
      <trkpt lat="46.4897980" lon="6.7502650">
        <ele>462.7</ele>
        <time>2019-02-24T10:28:36Z</time>
      </trkpt>
      <trkpt lat="46.4897790" lon="6.7502890">
        <ele>462.6</ele>
        <time>2019-02-24T10:28:37Z</time>
      </trkpt>
      <trkpt lat="46.4897610" lon="6.7503120">
        <ele>462.5</ele>
        <time>2019-02-24T10:28:38Z</time>
      </trkpt>
      <trkpt lat="46.4897420" lon="6.7503350">
        <ele>462.3</ele>
        <time>2019-02-24T10:28:39Z</time>
      </trkpt>
      <trkpt lat="46.4897240" lon="6.7503580">
        <ele>462.2</ele>
        <time>2019-02-24T10:28:40Z</time>
      </trkpt>
      <trkpt lat="46.4897060" lon="6.7503800">
        <ele>462.1</ele>
        <time>2019-02-24T10:28:41Z</time>
      </trkpt>
      <trkpt lat="46.4896890" lon="6.7504030">
        <ele>462.0</ele>
        <time>2019-02-24T10:28:42Z</time>
      </trkpt>
      <trkpt lat="46.4896710" lon="6.7504260">
        <ele>461.9</ele>
        <time>2019-02-24T10:28:43Z</time>
      </trkpt>
      <trkpt lat="46.4896530" lon="6.7504490">
        <ele>462.0</ele>
        <time>2019-02-24T10:28:44Z</time>
      </trkpt>
      <trkpt lat="46.4896350" lon="6.7504730">
        <ele>462.0</ele>
        <time>2019-02-24T10:28:45Z</time>
      </trkpt>
      <trkpt lat="46.4896160" lon="6.7504980">
        <ele>462.0</ele>
        <time>2019-02-24T10:28:46Z</time>
      </trkpt>
      <trkpt lat="46.4895980" lon="6.7505230">
        <ele>462.0</ele>
        <time>2019-02-24T10:28:47Z</time>
      </trkpt>
      <trkpt lat="46.4895790" lon="6.7505500">
        <ele>462.1</ele>
        <time>2019-02-24T10:28:48Z</time>
      </trkpt>
      <trkpt lat="46.4895610" lon="6.7505770">
        <ele>462.1</ele>
        <time>2019-02-24T10:28:49Z</time>
      </trkpt>
      <trkpt lat="46.4895430" lon="6.7506050">
        <ele>462.1</ele>
        <time>2019-02-24T10:28:50Z</time>
      </trkpt>
      <trkpt lat="46.4895250" lon="6.7506340">
        <ele>462.2</ele>
        <time>2019-02-24T10:28:51Z</time>
      </trkpt>
      <trkpt lat="46.4895080" lon="6.7506630">
        <ele>462.3</ele>
        <time>2019-02-24T10:28:52Z</time>
      </trkpt>
      <trkpt lat="46.4894920" lon="6.7506930">
        <ele>462.5</ele>
        <time>2019-02-24T10:28:53Z</time>
      </trkpt>
      <trkpt lat="46.4894760" lon="6.7507240">
        <ele>462.6</ele>
        <time>2019-02-24T10:28:54Z</time>
      </trkpt>
      <trkpt lat="46.4894620" lon="6.7507550">
        <ele>462.8</ele>
        <time>2019-02-24T10:28:55Z</time>
      </trkpt>
      <trkpt lat="46.4894490" lon="6.7507870">
        <ele>463.0</ele>
        <time>2019-02-24T10:28:56Z</time>
      </trkpt>
      <trkpt lat="46.4894360" lon="6.7508200">
        <ele>463.3</ele>
        <time>2019-02-24T10:28:57Z</time>
      </trkpt>
      <trkpt lat="46.4894250" lon="6.7508550">
        <ele>463.5</ele>
        <time>2019-02-24T10:28:58Z</time>
      </trkpt>
      <trkpt lat="46.4894150" lon="6.7508900">
        <ele>463.8</ele>
        <time>2019-02-24T10:28:59Z</time>
      </trkpt>
      <trkpt lat="46.4894070" lon="6.7509260">
        <ele>464.2</ele>
        <time>2019-02-24T10:29:00Z</time>
      </trkpt>
      <trkpt lat="46.4893990" lon="6.7509640">
        <ele>464.6</ele>
        <time>2019-02-24T10:29:01Z</time>
      </trkpt>
      <trkpt lat="46.4893930" lon="6.7510040">
        <ele>465.0</ele>
        <time>2019-02-24T10:29:02Z</time>
      </trkpt>
      <trkpt lat="46.4893880" lon="6.7510440">
        <ele>465.5</ele>
        <time>2019-02-24T10:29:03Z</time>
      </trkpt>
      <trkpt lat="46.4893840" lon="6.7510870">
        <ele>466.0</ele>
        <time>2019-02-24T10:29:04Z</time>
      </trkpt>
      <trkpt lat="46.4893810" lon="6.7511300">
        <ele>466.5</ele>
        <time>2019-02-24T10:29:05Z</time>
      </trkpt>
      <trkpt lat="46.4893790" lon="6.7511750">
        <ele>467.0</ele>
        <time>2019-02-24T10:29:06Z</time>
      </trkpt>
      <trkpt lat="46.4893760" lon="6.7512220">
        <ele>467.5</ele>
        <time>2019-02-24T10:29:07Z</time>
      </trkpt>
      <trkpt lat="46.4893740" lon="6.7512700">
        <ele>468.0</ele>
        <time>2019-02-24T10:29:08Z</time>
      </trkpt>
      <trkpt lat="46.4893690" lon="6.7513540">
        <ele>468.8</ele>
        <time>2019-02-24T10:29:09Z</time>
      </trkpt>
      <trkpt lat="46.4893670" lon="6.7513890">
        <ele>469.1</ele>
        <time>2019-02-24T10:29:10Z</time>
      </trkpt>
      <trkpt lat="46.4893650" lon="6.7514230">
        <ele>469.4</ele>
        <time>2019-02-24T10:29:11Z</time>
      </trkpt>
      <trkpt lat="46.4893600" lon="6.7514750">
        <ele>469.8</ele>
        <time>2019-02-24T10:29:12Z</time>
      </trkpt>
      <trkpt lat="46.4893550" lon="6.7515270">
        <ele>470.2</ele>
        <time>2019-02-24T10:29:13Z</time>
      </trkpt>
      <trkpt lat="46.4893480" lon="6.7515790">
        <ele>470.5</ele>
        <time>2019-02-24T10:29:14Z</time>
      </trkpt>
      <trkpt lat="46.4893400" lon="6.7516290">
        <ele>470.7</ele>
        <time>2019-02-24T10:29:15Z</time>
      </trkpt>
      <trkpt lat="46.4893300" lon="6.7516770">
        <ele>470.9</ele>
        <time>2019-02-24T10:29:16Z</time>
      </trkpt>
      <trkpt lat="46.4893180" lon="6.7517230">
        <ele>471.0</ele>
        <time>2019-02-24T10:29:17Z</time>
      </trkpt>
      <trkpt lat="46.4893040" lon="6.7517660">
        <ele>471.1</ele>
        <time>2019-02-24T10:29:18Z</time>
      </trkpt>
      <trkpt lat="46.4892880" lon="6.7518070">
        <ele>471.2</ele>
        <time>2019-02-24T10:29:19Z</time>
      </trkpt>
      <trkpt lat="46.4892700" lon="6.7518450">
        <ele>471.2</ele>
        <time>2019-02-24T10:29:20Z</time>
      </trkpt>
      <trkpt lat="46.4892500" lon="6.7518800">
        <ele>471.2</ele>
        <time>2019-02-24T10:29:21Z</time>
      </trkpt>
      <trkpt lat="46.4892300" lon="6.7519130">
        <ele>471.2</ele>
        <time>2019-02-24T10:29:22Z</time>
      </trkpt>
      <trkpt lat="46.4892080" lon="6.7519440">
        <ele>471.2</ele>
        <time>2019-02-24T10:29:23Z</time>
      </trkpt>
      <trkpt lat="46.4891850" lon="6.7519730">
        <ele>471.1</ele>
        <time>2019-02-24T10:29:24Z</time>
      </trkpt>
      <trkpt lat="46.4891620" lon="6.7519990">
        <ele>471.0</ele>
        <time>2019-02-24T10:29:25Z</time>
      </trkpt>
      <trkpt lat="46.4891380" lon="6.7520240">
        <ele>470.9</ele>
        <time>2019-02-24T10:29:26Z</time>
      </trkpt>
      <trkpt lat="46.4891140" lon="6.7520470">
        <ele>470.8</ele>
        <time>2019-02-24T10:29:27Z</time>
      </trkpt>
      <trkpt lat="46.4890900" lon="6.7520690">
        <ele>470.6</ele>
        <time>2019-02-24T10:29:28Z</time>
      </trkpt>
      <trkpt lat="46.4890650" lon="6.7520900">
        <ele>470.4</ele>
        <time>2019-02-24T10:29:29Z</time>
      </trkpt>
      <trkpt lat="46.4890400" lon="6.7521100">
        <ele>470.2</ele>
        <time>2019-02-24T10:29:30Z</time>
      </trkpt>
      <trkpt lat="46.4890150" lon="6.7521290">
        <ele>470.0</ele>
        <time>2019-02-24T10:29:31Z</time>
      </trkpt>
      <trkpt lat="46.4889900" lon="6.7521470">
        <ele>469.7</ele>
        <time>2019-02-24T10:29:32Z</time>
      </trkpt>
      <trkpt lat="46.4889640" lon="6.7521650">
        <ele>469.4</ele>
        <time>2019-02-24T10:29:33Z</time>
      </trkpt>
      <trkpt lat="46.4889390" lon="6.7521820">
        <ele>469.2</ele>
        <time>2019-02-24T10:29:34Z</time>
      </trkpt>
      <trkpt lat="46.4889140" lon="6.7522000">
        <ele>468.9</ele>
        <time>2019-02-24T10:29:35Z</time>
      </trkpt>
      <trkpt lat="46.4888890" lon="6.7522180">
        <ele>468.7</ele>
        <time>2019-02-24T10:29:36Z</time>
      </trkpt>
      <trkpt lat="46.4888640" lon="6.7522370">
        <ele>468.4</ele>
        <time>2019-02-24T10:29:37Z</time>
      </trkpt>
      <trkpt lat="46.4888400" lon="6.7522560">
        <ele>468.2</ele>
        <time>2019-02-24T10:29:38Z</time>
      </trkpt>
      <trkpt lat="46.4888150" lon="6.7522760">
        <ele>467.9</ele>
        <time>2019-02-24T10:29:39Z</time>
      </trkpt>
      <trkpt lat="46.4887910" lon="6.7522980">
        <ele>467.7</ele>
        <time>2019-02-24T10:29:40Z</time>
      </trkpt>
      <trkpt lat="46.4887670" lon="6.7523200">
        <ele>467.5</ele>
        <time>2019-02-24T10:29:41Z</time>
      </trkpt>
      <trkpt lat="46.4887440" lon="6.7523450">
        <ele>467.4</ele>
        <time>2019-02-24T10:29:42Z</time>
      </trkpt>
      <trkpt lat="46.4887200" lon="6.7523710">
        <ele>467.4</ele>
        <time>2019-02-24T10:29:43Z</time>
      </trkpt>
      <trkpt lat="46.4886970" lon="6.7523980">
        <ele>467.4</ele>
        <time>2019-02-24T10:29:44Z</time>
      </trkpt>
      <trkpt lat="46.4886740" lon="6.7524270">
        <ele>467.4</ele>
        <time>2019-02-24T10:29:45Z</time>
      </trkpt>
      <trkpt lat="46.4886520" lon="6.7524560">
        <ele>467.5</ele>
        <time>2019-02-24T10:29:46Z</time>
      </trkpt>
      <trkpt lat="46.4886290" lon="6.7524870">
        <ele>467.7</ele>
        <time>2019-02-24T10:29:47Z</time>
      </trkpt>
      <trkpt lat="46.4886070" lon="6.7525190">
        <ele>467.8</ele>
        <time>2019-02-24T10:29:48Z</time>
      </trkpt>
      <trkpt lat="46.4885860" lon="6.7525520">
        <ele>468.1</ele>
        <time>2019-02-24T10:29:49Z</time>
      </trkpt>
      <trkpt lat="46.4885640" lon="6.7525860">
        <ele>468.4</ele>
        <time>2019-02-24T10:29:50Z</time>
      </trkpt>
      <trkpt lat="46.4885430" lon="6.7526210">
        <ele>468.7</ele>
        <time>2019-02-24T10:29:51Z</time>
      </trkpt>
      <trkpt lat="46.4885220" lon="6.7526560">
        <ele>468.9</ele>
        <time>2019-02-24T10:29:52Z</time>
      </trkpt>
      <trkpt lat="46.4885010" lon="6.7526910">
        <ele>469.3</ele>
        <time>2019-02-24T10:29:53Z</time>
      </trkpt>
      <trkpt lat="46.4884810" lon="6.7527270">
        <ele>469.6</ele>
        <time>2019-02-24T10:29:54Z</time>
      </trkpt>
      <trkpt lat="46.4884600" lon="6.7527640">
        <ele>469.8</ele>
        <time>2019-02-24T10:29:55Z</time>
      </trkpt>
      <trkpt lat="46.4884400" lon="6.7528000">
        <ele>470.1</ele>
        <time>2019-02-24T10:29:56Z</time>
      </trkpt>
      <trkpt lat="46.4884200" lon="6.7528370">
        <ele>470.3</ele>
        <time>2019-02-24T10:29:57Z</time>
      </trkpt>
      <trkpt lat="46.4884010" lon="6.7528730">
        <ele>470.5</ele>
        <time>2019-02-24T10:29:58Z</time>
      </trkpt>
      <trkpt lat="46.4883810" lon="6.7529100">
        <ele>470.7</ele>
        <time>2019-02-24T10:29:59Z</time>
      </trkpt>
      <trkpt lat="46.4883620" lon="6.7529460">
        <ele>470.9</ele>
        <time>2019-02-24T10:30:00Z</time>
      </trkpt>
      <trkpt lat="46.4883430" lon="6.7529830">
        <ele>471.1</ele>
        <time>2019-02-24T10:30:01Z</time>
      </trkpt>
      <trkpt lat="46.4883240" lon="6.7530190">
        <ele>471.3</ele>
        <time>2019-02-24T10:30:02Z</time>
      </trkpt>
      <trkpt lat="46.4883050" lon="6.7530550">
        <ele>471.5</ele>
        <time>2019-02-24T10:30:03Z</time>
      </trkpt>
      <trkpt lat="46.4882860" lon="6.7530920">
        <ele>471.8</ele>
        <time>2019-02-24T10:30:04Z</time>
      </trkpt>
      <trkpt lat="46.4882670" lon="6.7531280">
        <ele>472.0</ele>
        <time>2019-02-24T10:30:05Z</time>
      </trkpt>
      <trkpt lat="46.4882490" lon="6.7531640">
        <ele>472.3</ele>
        <time>2019-02-24T10:30:06Z</time>
      </trkpt>
      <trkpt lat="46.4882300" lon="6.7532010">
        <ele>472.7</ele>
        <time>2019-02-24T10:30:07Z</time>
      </trkpt>
      <trkpt lat="46.4882120" lon="6.7532370">
        <ele>473.0</ele>
        <time>2019-02-24T10:30:08Z</time>
      </trkpt>
      <trkpt lat="46.4881930" lon="6.7532730">
        <ele>473.4</ele>
        <time>2019-02-24T10:30:09Z</time>
      </trkpt>
      <trkpt lat="46.4881750" lon="6.7533100">
        <ele>473.8</ele>
        <time>2019-02-24T10:30:10Z</time>
      </trkpt>
      <trkpt lat="46.4881560" lon="6.7533460">
        <ele>474.3</ele>
        <time>2019-02-24T10:30:11Z</time>
      </trkpt>
      <trkpt lat="46.4881380" lon="6.7533830">
        <ele>474.8</ele>
        <time>2019-02-24T10:30:12Z</time>
      </trkpt>
      <trkpt lat="46.4881190" lon="6.7534200">
        <ele>475.3</ele>
        <time>2019-02-24T10:30:13Z</time>
      </trkpt>
      <trkpt lat="46.4881010" lon="6.7534570">
        <ele>475.8</ele>
        <time>2019-02-24T10:30:14Z</time>
      </trkpt>
      <trkpt lat="46.4880820" lon="6.7534940">
        <ele>476.3</ele>
        <time>2019-02-24T10:30:15Z</time>
      </trkpt>
      <trkpt lat="46.4880630" lon="6.7535310">
        <ele>476.8</ele>
        <time>2019-02-24T10:30:16Z</time>
      </trkpt>
      <trkpt lat="46.4880450" lon="6.7535680">
        <ele>477.3</ele>
        <time>2019-02-24T10:30:17Z</time>
      </trkpt>
      <trkpt lat="46.4880260" lon="6.7536050">
        <ele>477.8</ele>
        <time>2019-02-24T10:30:18Z</time>
      </trkpt>
      <trkpt lat="46.4880070" lon="6.7536430">
        <ele>478.4</ele>
        <time>2019-02-24T10:30:19Z</time>
      </trkpt>
      <trkpt lat="46.4879880" lon="6.7536800">
        <ele>478.8</ele>
        <time>2019-02-24T10:30:20Z</time>
      </trkpt>
      <trkpt lat="46.4879690" lon="6.7537170">
        <ele>479.3</ele>
        <time>2019-02-24T10:30:21Z</time>
      </trkpt>
      <trkpt lat="46.4879500" lon="6.7537550">
        <ele>479.7</ele>
        <time>2019-02-24T10:30:22Z</time>
      </trkpt>
      <trkpt lat="46.4879300" lon="6.7537920">
        <ele>480.1</ele>
        <time>2019-02-24T10:30:23Z</time>
      </trkpt>
      <trkpt lat="46.4879110" lon="6.7538290">
        <ele>480.5</ele>
        <time>2019-02-24T10:30:24Z</time>
      </trkpt>
      <trkpt lat="46.4878920" lon="6.7538660">
        <ele>480.8</ele>
        <time>2019-02-24T10:30:25Z</time>
      </trkpt>
      <trkpt lat="46.4878720" lon="6.7539030">
        <ele>481.1</ele>
        <time>2019-02-24T10:30:26Z</time>
      </trkpt>
      <trkpt lat="46.4878530" lon="6.7539400">
        <ele>481.4</ele>
        <time>2019-02-24T10:30:27Z</time>
      </trkpt>
      <trkpt lat="46.4878330" lon="6.7539760">
        <ele>481.8</ele>
        <time>2019-02-24T10:30:28Z</time>
      </trkpt>
      <trkpt lat="46.4878140" lon="6.7540130">
        <ele>482.1</ele>
        <time>2019-02-24T10:30:29Z</time>
      </trkpt>
      <trkpt lat="46.4877940" lon="6.7540490">
        <ele>482.5</ele>
        <time>2019-02-24T10:30:30Z</time>
      </trkpt>
      <trkpt lat="46.4877740" lon="6.7540840">
        <ele>482.9</ele>
        <time>2019-02-24T10:30:31Z</time>
      </trkpt>
      <trkpt lat="46.4877540" lon="6.7541200">
        <ele>483.4</ele>
        <time>2019-02-24T10:30:32Z</time>
      </trkpt>
      <trkpt lat="46.4877340" lon="6.7541550">
        <ele>483.9</ele>
        <time>2019-02-24T10:30:33Z</time>
      </trkpt>
      <trkpt lat="46.4877140" lon="6.7541900">
        <ele>484.3</ele>
        <time>2019-02-24T10:30:34Z</time>
      </trkpt>
      <trkpt lat="46.4876930" lon="6.7542250">
        <ele>484.7</ele>
        <time>2019-02-24T10:30:35Z</time>
      </trkpt>
      <trkpt lat="46.4876720" lon="6.7542590">
        <ele>485.1</ele>
        <time>2019-02-24T10:30:36Z</time>
      </trkpt>
      <trkpt lat="46.4876510" lon="6.7542930">
        <ele>485.5</ele>
        <time>2019-02-24T10:30:37Z</time>
      </trkpt>
      <trkpt lat="46.4876290" lon="6.7543270">
        <ele>486.0</ele>
        <time>2019-02-24T10:30:38Z</time>
      </trkpt>
      <trkpt lat="46.4876070" lon="6.7543600">
        <ele>486.4</ele>
        <time>2019-02-24T10:30:39Z</time>
      </trkpt>
      <trkpt lat="46.4875840" lon="6.7543930">
        <ele>486.7</ele>
        <time>2019-02-24T10:30:40Z</time>
      </trkpt>
      <trkpt lat="46.4875610" lon="6.7544250">
        <ele>487.0</ele>
        <time>2019-02-24T10:30:41Z</time>
      </trkpt>
      <trkpt lat="46.4875370" lon="6.7544570">
        <ele>487.3</ele>
        <time>2019-02-24T10:30:42Z</time>
      </trkpt>
      <trkpt lat="46.4875140" lon="6.7544890">
        <ele>487.5</ele>
        <time>2019-02-24T10:30:43Z</time>
      </trkpt>
      <trkpt lat="46.4874900" lon="6.7545190">
        <ele>487.7</ele>
        <time>2019-02-24T10:30:44Z</time>
      </trkpt>
      <trkpt lat="46.4874660" lon="6.7545500">
        <ele>487.9</ele>
        <time>2019-02-24T10:30:45Z</time>
      </trkpt>
      <trkpt lat="46.4874430" lon="6.7545790">
        <ele>488.0</ele>
        <time>2019-02-24T10:30:46Z</time>
      </trkpt>
      <trkpt lat="46.4874190" lon="6.7546090">
        <ele>488.2</ele>
        <time>2019-02-24T10:30:47Z</time>
      </trkpt>
      <trkpt lat="46.4873950" lon="6.7546370">
        <ele>488.2</ele>
        <time>2019-02-24T10:30:48Z</time>
      </trkpt>
      <trkpt lat="46.4873720" lon="6.7546650">
        <ele>488.3</ele>
        <time>2019-02-24T10:30:49Z</time>
      </trkpt>
      <trkpt lat="46.4873490" lon="6.7546920">
        <ele>488.3</ele>
        <time>2019-02-24T10:30:50Z</time>
      </trkpt>
      <trkpt lat="46.4873250" lon="6.7547200">
        <ele>488.4</ele>
        <time>2019-02-24T10:30:51Z</time>
      </trkpt>
      <trkpt lat="46.4873020" lon="6.7547460">
        <ele>488.4</ele>
        <time>2019-02-24T10:30:52Z</time>
      </trkpt>
      <trkpt lat="46.4872790" lon="6.7547730">
        <ele>488.3</ele>
        <time>2019-02-24T10:30:53Z</time>
      </trkpt>
      <trkpt lat="46.4872560" lon="6.7547990">
        <ele>488.3</ele>
        <time>2019-02-24T10:30:54Z</time>
      </trkpt>
      <trkpt lat="46.4872320" lon="6.7548250">
        <ele>488.2</ele>
        <time>2019-02-24T10:30:55Z</time>
      </trkpt>
      <trkpt lat="46.4872090" lon="6.7548510">
        <ele>488.1</ele>
        <time>2019-02-24T10:30:56Z</time>
      </trkpt>
      <trkpt lat="46.4871860" lon="6.7548780">
        <ele>488.0</ele>
        <time>2019-02-24T10:30:57Z</time>
      </trkpt>
      <trkpt lat="46.4871620" lon="6.7549040">
        <ele>487.9</ele>
        <time>2019-02-24T10:30:58Z</time>
      </trkpt>
      <trkpt lat="46.4871390" lon="6.7549300">
        <ele>487.7</ele>
        <time>2019-02-24T10:30:59Z</time>
      </trkpt>
      <trkpt lat="46.4871150" lon="6.7549570">
        <ele>487.5</ele>
        <time>2019-02-24T10:31:00Z</time>
      </trkpt>
      <trkpt lat="46.4870910" lon="6.7549830">
        <ele>487.3</ele>
        <time>2019-02-24T10:31:01Z</time>
      </trkpt>
      <trkpt lat="46.4870670" lon="6.7550100">
        <ele>487.1</ele>
        <time>2019-02-24T10:31:02Z</time>
      </trkpt>
      <trkpt lat="46.4870430" lon="6.7550380">
        <ele>486.9</ele>
        <time>2019-02-24T10:31:03Z</time>
      </trkpt>
      <trkpt lat="46.4870190" lon="6.7550660">
        <ele>486.7</ele>
        <time>2019-02-24T10:31:04Z</time>
      </trkpt>
      <trkpt lat="46.4869950" lon="6.7550940">
        <ele>486.4</ele>
        <time>2019-02-24T10:31:05Z</time>
      </trkpt>
      <trkpt lat="46.4869710" lon="6.7551230">
        <ele>486.2</ele>
        <time>2019-02-24T10:31:06Z</time>
      </trkpt>
      <trkpt lat="46.4869470" lon="6.7551520">
        <ele>486.0</ele>
        <time>2019-02-24T10:31:07Z</time>
      </trkpt>
      <trkpt lat="46.4869220" lon="6.7551810">
        <ele>485.8</ele>
        <time>2019-02-24T10:31:08Z</time>
      </trkpt>
      <trkpt lat="46.4868980" lon="6.7552110">
        <ele>485.7</ele>
        <time>2019-02-24T10:31:09Z</time>
      </trkpt>
      <trkpt lat="46.4868750" lon="6.7552410">
        <ele>485.6</ele>
        <time>2019-02-24T10:31:10Z</time>
      </trkpt>
      <trkpt lat="46.4868510" lon="6.7552720">
        <ele>485.5</ele>
        <time>2019-02-24T10:31:11Z</time>
      </trkpt>
      <trkpt lat="46.4868280" lon="6.7553020">
        <ele>485.3</ele>
        <time>2019-02-24T10:31:12Z</time>
      </trkpt>
      <trkpt lat="46.4868050" lon="6.7553330">
        <ele>485.2</ele>
        <time>2019-02-24T10:31:13Z</time>
      </trkpt>
      <trkpt lat="46.4867820" lon="6.7553650">
        <ele>485.2</ele>
        <time>2019-02-24T10:31:14Z</time>
      </trkpt>
      <trkpt lat="46.4867590" lon="6.7553960">
        <ele>485.2</ele>
        <time>2019-02-24T10:31:15Z</time>
      </trkpt>
      <trkpt lat="46.4867370" lon="6.7554270">
        <ele>485.2</ele>
        <time>2019-02-24T10:31:16Z</time>
      </trkpt>
      <trkpt lat="46.4867160" lon="6.7554590">
        <ele>485.2</ele>
        <time>2019-02-24T10:31:17Z</time>
      </trkpt>
      <trkpt lat="46.4866940" lon="6.7554900">
        <ele>485.2</ele>
        <time>2019-02-24T10:31:18Z</time>
      </trkpt>
      <trkpt lat="46.4866740" lon="6.7555210">
        <ele>485.3</ele>
        <time>2019-02-24T10:31:19Z</time>
      </trkpt>
      <trkpt lat="46.4866530" lon="6.7555520">
        <ele>485.4</ele>
        <time>2019-02-24T10:31:20Z</time>
      </trkpt>
      <trkpt lat="46.4866330" lon="6.7555820">
        <ele>485.5</ele>
        <time>2019-02-24T10:31:21Z</time>
      </trkpt>
      <trkpt lat="46.4866140" lon="6.7556130">
        <ele>485.6</ele>
        <time>2019-02-24T10:31:22Z</time>
      </trkpt>
      <trkpt lat="46.4865940" lon="6.7556440">
        <ele>485.8</ele>
        <time>2019-02-24T10:31:23Z</time>
      </trkpt>
      <trkpt lat="46.4865750" lon="6.7556740">
        <ele>485.9</ele>
        <time>2019-02-24T10:31:24Z</time>
      </trkpt>
      <trkpt lat="46.4865570" lon="6.7557040">
        <ele>486.0</ele>
        <time>2019-02-24T10:31:25Z</time>
      </trkpt>
      <trkpt lat="46.4865380" lon="6.7557350">
        <ele>486.1</ele>
        <time>2019-02-24T10:31:26Z</time>
      </trkpt>
      <trkpt lat="46.4865200" lon="6.7557650">
        <ele>486.2</ele>
        <time>2019-02-24T10:31:27Z</time>
      </trkpt>
      <trkpt lat="46.4865020" lon="6.7557950">
        <ele>486.3</ele>
        <time>2019-02-24T10:31:28Z</time>
      </trkpt>
      <trkpt lat="46.4864840" lon="6.7558260">
        <ele>486.4</ele>
        <time>2019-02-24T10:31:29Z</time>
      </trkpt>
      <trkpt lat="46.4864670" lon="6.7558560">
        <ele>486.5</ele>
        <time>2019-02-24T10:31:30Z</time>
      </trkpt>
      <trkpt lat="46.4864490" lon="6.7558860">
        <ele>486.6</ele>
        <time>2019-02-24T10:31:31Z</time>
      </trkpt>
      <trkpt lat="46.4864320" lon="6.7559170">
        <ele>486.7</ele>
        <time>2019-02-24T10:31:32Z</time>
      </trkpt>
      <trkpt lat="46.4864140" lon="6.7559470">
        <ele>486.8</ele>
        <time>2019-02-24T10:31:33Z</time>
      </trkpt>
      <trkpt lat="46.4863970" lon="6.7559780">
        <ele>486.9</ele>
        <time>2019-02-24T10:31:34Z</time>
      </trkpt>
      <trkpt lat="46.4863790" lon="6.7560090">
        <ele>487.1</ele>
        <time>2019-02-24T10:31:35Z</time>
      </trkpt>
      <trkpt lat="46.4863620" lon="6.7560400">
        <ele>487.2</ele>
        <time>2019-02-24T10:31:36Z</time>
      </trkpt>
      <trkpt lat="46.4863450" lon="6.7560700">
        <ele>487.3</ele>
        <time>2019-02-24T10:31:37Z</time>
      </trkpt>
      <trkpt lat="46.4863270" lon="6.7561010">
        <ele>487.5</ele>
        <time>2019-02-24T10:31:38Z</time>
      </trkpt>
      <trkpt lat="46.4863100" lon="6.7561330">
        <ele>487.6</ele>
        <time>2019-02-24T10:31:39Z</time>
      </trkpt>
      <trkpt lat="46.4862930" lon="6.7561640">
        <ele>487.7</ele>
        <time>2019-02-24T10:31:40Z</time>
      </trkpt>
      <trkpt lat="46.4862750" lon="6.7561950">
        <ele>487.8</ele>
        <time>2019-02-24T10:31:41Z</time>
      </trkpt>
      <trkpt lat="46.4862580" lon="6.7562260">
        <ele>487.9</ele>
        <time>2019-02-24T10:31:42Z</time>
      </trkpt>
      <trkpt lat="46.4862410" lon="6.7562570">
        <ele>488.1</ele>
        <time>2019-02-24T10:31:43Z</time>
      </trkpt>
      <trkpt lat="46.4862240" lon="6.7562880">
        <ele>488.2</ele>
        <time>2019-02-24T10:31:44Z</time>
      </trkpt>
      <trkpt lat="46.4862070" lon="6.7563190">
        <ele>488.4</ele>
        <time>2019-02-24T10:31:45Z</time>
      </trkpt>
      <trkpt lat="46.4861900" lon="6.7563500">
        <ele>488.5</ele>
        <time>2019-02-24T10:31:46Z</time>
      </trkpt>
      <trkpt lat="46.4861730" lon="6.7563800">
        <ele>488.7</ele>
        <time>2019-02-24T10:31:47Z</time>
      </trkpt>
      <trkpt lat="46.4861570" lon="6.7564110">
        <ele>488.8</ele>
        <time>2019-02-24T10:31:48Z</time>
      </trkpt>
      <trkpt lat="46.4861400" lon="6.7564420">
        <ele>489.0</ele>
        <time>2019-02-24T10:31:49Z</time>
      </trkpt>
      <trkpt lat="46.4861230" lon="6.7564720">
        <ele>489.2</ele>
        <time>2019-02-24T10:31:50Z</time>
      </trkpt>
      <trkpt lat="46.4861070" lon="6.7565020">
        <ele>489.3</ele>
        <time>2019-02-24T10:31:51Z</time>
      </trkpt>
      <trkpt lat="46.4860910" lon="6.7565320">
        <ele>489.5</ele>
        <time>2019-02-24T10:31:52Z</time>
      </trkpt>
      <trkpt lat="46.4860740" lon="6.7565620">
        <ele>489.7</ele>
        <time>2019-02-24T10:31:53Z</time>
      </trkpt>
      <trkpt lat="46.4860580" lon="6.7565920">
        <ele>490.0</ele>
        <time>2019-02-24T10:31:54Z</time>
      </trkpt>
      <trkpt lat="46.4860420" lon="6.7566220">
        <ele>490.2</ele>
        <time>2019-02-24T10:31:55Z</time>
      </trkpt>
      <trkpt lat="46.4860260" lon="6.7566520">
        <ele>490.4</ele>
        <time>2019-02-24T10:31:56Z</time>
      </trkpt>
      <trkpt lat="46.4860100" lon="6.7566810">
        <ele>490.7</ele>
        <time>2019-02-24T10:31:57Z</time>
      </trkpt>
      <trkpt lat="46.4859940" lon="6.7567110">
        <ele>491.0</ele>
        <time>2019-02-24T10:31:58Z</time>
      </trkpt>
      <trkpt lat="46.4859770" lon="6.7567400">
        <ele>491.2</ele>
        <time>2019-02-24T10:31:59Z</time>
      </trkpt>
      <trkpt lat="46.4859610" lon="6.7567700">
        <ele>491.5</ele>
        <time>2019-02-24T10:32:00Z</time>
      </trkpt>
      <trkpt lat="46.4859450" lon="6.7568000">
        <ele>491.8</ele>
        <time>2019-02-24T10:32:01Z</time>
      </trkpt>
      <trkpt lat="46.4859290" lon="6.7568300">
        <ele>492.0</ele>
        <time>2019-02-24T10:32:02Z</time>
      </trkpt>
      <trkpt lat="46.4859120" lon="6.7568590">
        <ele>492.3</ele>
        <time>2019-02-24T10:32:03Z</time>
      </trkpt>
      <trkpt lat="46.4858960" lon="6.7568890">
        <ele>492.6</ele>
        <time>2019-02-24T10:32:04Z</time>
      </trkpt>
      <trkpt lat="46.4858790" lon="6.7569190">
        <ele>492.8</ele>
        <time>2019-02-24T10:32:05Z</time>
      </trkpt>
      <trkpt lat="46.4858620" lon="6.7569490">
        <ele>493.1</ele>
        <time>2019-02-24T10:32:06Z</time>
      </trkpt>
      <trkpt lat="46.4858450" lon="6.7569800">
        <ele>493.3</ele>
        <time>2019-02-24T10:32:07Z</time>
      </trkpt>
      <trkpt lat="46.4858280" lon="6.7570100">
        <ele>493.6</ele>
        <time>2019-02-24T10:32:08Z</time>
      </trkpt>
      <trkpt lat="46.4858110" lon="6.7570410">
        <ele>493.8</ele>
        <time>2019-02-24T10:32:09Z</time>
      </trkpt>
      <trkpt lat="46.4857930" lon="6.7570720">
        <ele>494.1</ele>
        <time>2019-02-24T10:32:10Z</time>
      </trkpt>
      <trkpt lat="46.4857760" lon="6.7571030">
        <ele>494.3</ele>
        <time>2019-02-24T10:32:11Z</time>
      </trkpt>
      <trkpt lat="46.4857580" lon="6.7571330">
        <ele>494.5</ele>
        <time>2019-02-24T10:32:12Z</time>
      </trkpt>
      <trkpt lat="46.4857400" lon="6.7571640">
        <ele>494.8</ele>
        <time>2019-02-24T10:32:13Z</time>
      </trkpt>
      <trkpt lat="46.4857220" lon="6.7571950">
        <ele>495.0</ele>
        <time>2019-02-24T10:32:14Z</time>
      </trkpt>
      <trkpt lat="46.4857040" lon="6.7572260">
        <ele>495.2</ele>
        <time>2019-02-24T10:32:15Z</time>
      </trkpt>
      <trkpt lat="46.4856860" lon="6.7572570">
        <ele>495.5</ele>
        <time>2019-02-24T10:32:16Z</time>
      </trkpt>
      <trkpt lat="46.4856680" lon="6.7572880">
        <ele>495.7</ele>
        <time>2019-02-24T10:32:17Z</time>
      </trkpt>
      <trkpt lat="46.4856500" lon="6.7573190">
        <ele>496.0</ele>
        <time>2019-02-24T10:32:18Z</time>
      </trkpt>
      <trkpt lat="46.4856320" lon="6.7573500">
        <ele>496.3</ele>
        <time>2019-02-24T10:32:19Z</time>
      </trkpt>
      <trkpt lat="46.4856140" lon="6.7573810">
        <ele>496.6</ele>
        <time>2019-02-24T10:32:20Z</time>
      </trkpt>
      <trkpt lat="46.4855970" lon="6.7574110">
        <ele>496.8</ele>
        <time>2019-02-24T10:32:21Z</time>
      </trkpt>
      <trkpt lat="46.4855790" lon="6.7574420">
        <ele>497.1</ele>
        <time>2019-02-24T10:32:22Z</time>
      </trkpt>
      <trkpt lat="46.4855610" lon="6.7574720">
        <ele>497.4</ele>
        <time>2019-02-24T10:32:23Z</time>
      </trkpt>
      <trkpt lat="46.4855430" lon="6.7575020">
        <ele>497.7</ele>
        <time>2019-02-24T10:32:24Z</time>
      </trkpt>
      <trkpt lat="46.4855260" lon="6.7575310">
        <ele>498.0</ele>
        <time>2019-02-24T10:32:25Z</time>
      </trkpt>
      <trkpt lat="46.4855090" lon="6.7575610">
        <ele>498.3</ele>
        <time>2019-02-24T10:32:26Z</time>
      </trkpt>
      <trkpt lat="46.4854910" lon="6.7575900">
        <ele>498.6</ele>
        <time>2019-02-24T10:32:27Z</time>
      </trkpt>
      <trkpt lat="46.4854740" lon="6.7576190">
        <ele>499.0</ele>
        <time>2019-02-24T10:32:28Z</time>
      </trkpt>
      <trkpt lat="46.4854570" lon="6.7576480">
        <ele>499.3</ele>
        <time>2019-02-24T10:32:29Z</time>
      </trkpt>
      <trkpt lat="46.4854400" lon="6.7576770">
        <ele>499.6</ele>
        <time>2019-02-24T10:32:30Z</time>
      </trkpt>
      <trkpt lat="46.4854230" lon="6.7577050">
        <ele>499.9</ele>
        <time>2019-02-24T10:32:31Z</time>
      </trkpt>
      <trkpt lat="46.4854060" lon="6.7577340">
        <ele>500.2</ele>
        <time>2019-02-24T10:32:32Z</time>
      </trkpt>
      <trkpt lat="46.4853890" lon="6.7577620">
        <ele>500.5</ele>
        <time>2019-02-24T10:32:33Z</time>
      </trkpt>
      <trkpt lat="46.4853720" lon="6.7577910">
        <ele>500.8</ele>
        <time>2019-02-24T10:32:34Z</time>
      </trkpt>
      <trkpt lat="46.4853550" lon="6.7578190">
        <ele>501.1</ele>
        <time>2019-02-24T10:32:35Z</time>
      </trkpt>
      <trkpt lat="46.4853380" lon="6.7578470">
        <ele>501.4</ele>
        <time>2019-02-24T10:32:36Z</time>
      </trkpt>
      <trkpt lat="46.4853220" lon="6.7578750">
        <ele>501.7</ele>
        <time>2019-02-24T10:32:37Z</time>
      </trkpt>
      <trkpt lat="46.4853050" lon="6.7579030">
        <ele>502.0</ele>
        <time>2019-02-24T10:32:38Z</time>
      </trkpt>
      <trkpt lat="46.4852880" lon="6.7579310">
        <ele>502.2</ele>
        <time>2019-02-24T10:32:39Z</time>
      </trkpt>
      <trkpt lat="46.4852710" lon="6.7579590">
        <ele>502.5</ele>
        <time>2019-02-24T10:32:40Z</time>
      </trkpt>
      <trkpt lat="46.4852550" lon="6.7579860">
        <ele>502.7</ele>
        <time>2019-02-24T10:32:41Z</time>
      </trkpt>
      <trkpt lat="46.4852380" lon="6.7580140">
        <ele>503.0</ele>
        <time>2019-02-24T10:32:42Z</time>
      </trkpt>
      <trkpt lat="46.4852210" lon="6.7580420">
        <ele>503.2</ele>
        <time>2019-02-24T10:32:43Z</time>
      </trkpt>
      <trkpt lat="46.4852050" lon="6.7580690">
        <ele>503.5</ele>
        <time>2019-02-24T10:32:44Z</time>
      </trkpt>
      <trkpt lat="46.4851880" lon="6.7580970">
        <ele>503.7</ele>
        <time>2019-02-24T10:32:45Z</time>
      </trkpt>
      <trkpt lat="46.4851720" lon="6.7581240">
        <ele>504.0</ele>
        <time>2019-02-24T10:32:46Z</time>
      </trkpt>
      <trkpt lat="46.4851560" lon="6.7581510">
        <ele>504.2</ele>
        <time>2019-02-24T10:32:47Z</time>
      </trkpt>
      <trkpt lat="46.4851390" lon="6.7581780">
        <ele>504.5</ele>
        <time>2019-02-24T10:32:48Z</time>
      </trkpt>
      <trkpt lat="46.4851230" lon="6.7582050">
        <ele>504.8</ele>
        <time>2019-02-24T10:32:49Z</time>
      </trkpt>
      <trkpt lat="46.4851070" lon="6.7582320">
        <ele>505.1</ele>
        <time>2019-02-24T10:32:50Z</time>
      </trkpt>
      <trkpt lat="46.4850910" lon="6.7582590">
        <ele>505.4</ele>
        <time>2019-02-24T10:32:51Z</time>
      </trkpt>
      <trkpt lat="46.4850760" lon="6.7582850">
        <ele>505.7</ele>
        <time>2019-02-24T10:32:52Z</time>
      </trkpt>
      <trkpt lat="46.4850600" lon="6.7583120">
        <ele>506.0</ele>
        <time>2019-02-24T10:32:53Z</time>
      </trkpt>
      <trkpt lat="46.4850450" lon="6.7583380">
        <ele>506.4</ele>
        <time>2019-02-24T10:32:54Z</time>
      </trkpt>
      <trkpt lat="46.4850300" lon="6.7583640">
        <ele>506.7</ele>
        <time>2019-02-24T10:32:55Z</time>
      </trkpt>
      <trkpt lat="46.4850150" lon="6.7583890">
        <ele>507.0</ele>
        <time>2019-02-24T10:32:56Z</time>
      </trkpt>
      <trkpt lat="46.4850000" lon="6.7584150">
        <ele>507.4</ele>
        <time>2019-02-24T10:32:57Z</time>
      </trkpt>
      <trkpt lat="46.4849860" lon="6.7584400">
        <ele>507.7</ele>
        <time>2019-02-24T10:32:58Z</time>
      </trkpt>
      <trkpt lat="46.4849710" lon="6.7584650">
        <ele>508.1</ele>
        <time>2019-02-24T10:32:59Z</time>
      </trkpt>
      <trkpt lat="46.4849570" lon="6.7584900">
        <ele>508.4</ele>
        <time>2019-02-24T10:33:00Z</time>
      </trkpt>
      <trkpt lat="46.4849430" lon="6.7585150">
        <ele>508.7</ele>
        <time>2019-02-24T10:33:01Z</time>
      </trkpt>
      <trkpt lat="46.4849280" lon="6.7585400">
        <ele>509.1</ele>
        <time>2019-02-24T10:33:02Z</time>
      </trkpt>
      <trkpt lat="46.4849140" lon="6.7585640">
        <ele>509.4</ele>
        <time>2019-02-24T10:33:03Z</time>
      </trkpt>
      <trkpt lat="46.4848990" lon="6.7585890">
        <ele>509.8</ele>
        <time>2019-02-24T10:33:04Z</time>
      </trkpt>
      <trkpt lat="46.4848850" lon="6.7586130">
        <ele>510.1</ele>
        <time>2019-02-24T10:33:05Z</time>
      </trkpt>
      <trkpt lat="46.4848700" lon="6.7586380">
        <ele>510.4</ele>
        <time>2019-02-24T10:33:06Z</time>
      </trkpt>
      <trkpt lat="46.4848550" lon="6.7586620">
        <ele>510.8</ele>
        <time>2019-02-24T10:33:07Z</time>
      </trkpt>
      <trkpt lat="46.4848400" lon="6.7586860">
        <ele>511.1</ele>
        <time>2019-02-24T10:33:08Z</time>
      </trkpt>
      <trkpt lat="46.4848240" lon="6.7587110">
        <ele>511.5</ele>
        <time>2019-02-24T10:33:09Z</time>
      </trkpt>
      <trkpt lat="46.4848080" lon="6.7587350">
        <ele>511.8</ele>
        <time>2019-02-24T10:33:10Z</time>
      </trkpt>
      <trkpt lat="46.4847920" lon="6.7587590">
        <ele>512.1</ele>
        <time>2019-02-24T10:33:11Z</time>
      </trkpt>
      <trkpt lat="46.4847760" lon="6.7587830">
        <ele>512.5</ele>
        <time>2019-02-24T10:33:12Z</time>
      </trkpt>
      <trkpt lat="46.4847590" lon="6.7588080">
        <ele>512.8</ele>
        <time>2019-02-24T10:33:13Z</time>
      </trkpt>
      <trkpt lat="46.4847420" lon="6.7588320">
        <ele>513.5</ele>
        <time>2019-02-24T10:33:14Z</time>
      </trkpt>
      <trkpt lat="46.4847240" lon="6.7588560">
        <ele>513.8</ele>
        <time>2019-02-24T10:33:15Z</time>
      </trkpt>
      <trkpt lat="46.4847070" lon="6.7588810">
        <ele>514.0</ele>
        <time>2019-02-24T10:33:16Z</time>
      </trkpt>
      <trkpt lat="46.4846880" lon="6.7589050">
        <ele>514.4</ele>
        <time>2019-02-24T10:33:17Z</time>
      </trkpt>
      <trkpt lat="46.4846700" lon="6.7589290">
        <ele>514.6</ele>
        <time>2019-02-24T10:33:18Z</time>
      </trkpt>
      <trkpt lat="46.4846510" lon="6.7589520">
        <ele>514.8</ele>
        <time>2019-02-24T10:33:19Z</time>
      </trkpt>
      <trkpt lat="46.4846320" lon="6.7589760">
        <ele>515.0</ele>
        <time>2019-02-24T10:33:20Z</time>
      </trkpt>
      <trkpt lat="46.4846130" lon="6.7590000">
        <ele>515.2</ele>
        <time>2019-02-24T10:33:21Z</time>
      </trkpt>
      <trkpt lat="46.4845930" lon="6.7590230">
        <ele>515.3</ele>
        <time>2019-02-24T10:33:22Z</time>
      </trkpt>
      <trkpt lat="46.4845740" lon="6.7590460">
        <ele>515.4</ele>
        <time>2019-02-24T10:33:23Z</time>
      </trkpt>
      <trkpt lat="46.4845540" lon="6.7590690">
        <ele>515.5</ele>
        <time>2019-02-24T10:33:24Z</time>
      </trkpt>
      <trkpt lat="46.4845340" lon="6.7590910">
        <ele>515.6</ele>
        <time>2019-02-24T10:33:25Z</time>
      </trkpt>
      <trkpt lat="46.4845130" lon="6.7591130">
        <ele>515.7</ele>
        <time>2019-02-24T10:33:26Z</time>
      </trkpt>
      <trkpt lat="46.4844930" lon="6.7591350">
        <ele>515.9</ele>
        <time>2019-02-24T10:33:27Z</time>
      </trkpt>
      <trkpt lat="46.4844720" lon="6.7591570">
        <ele>516.0</ele>
        <time>2019-02-24T10:33:28Z</time>
      </trkpt>
      <trkpt lat="46.4844510" lon="6.7591780">
        <ele>516.1</ele>
        <time>2019-02-24T10:33:29Z</time>
      </trkpt>
      <trkpt lat="46.4844300" lon="6.7591990">
        <ele>516.2</ele>
        <time>2019-02-24T10:33:30Z</time>
      </trkpt>
      <trkpt lat="46.4844090" lon="6.7592200">
        <ele>516.3</ele>
        <time>2019-02-24T10:33:31Z</time>
      </trkpt>
      <trkpt lat="46.4843880" lon="6.7592400">
        <ele>516.4</ele>
        <time>2019-02-24T10:33:32Z</time>
      </trkpt>
      <trkpt lat="46.4843670" lon="6.7592610">
        <ele>516.5</ele>
        <time>2019-02-24T10:33:33Z</time>
      </trkpt>
      <trkpt lat="46.4843460" lon="6.7592810">
        <ele>516.6</ele>
        <time>2019-02-24T10:33:34Z</time>
      </trkpt>
      <trkpt lat="46.4843240" lon="6.7593020">
        <ele>516.7</ele>
        <time>2019-02-24T10:33:35Z</time>
      </trkpt>
      <trkpt lat="46.4843030" lon="6.7593230">
        <ele>516.8</ele>
        <time>2019-02-24T10:33:36Z</time>
      </trkpt>
      <trkpt lat="46.4842820" lon="6.7593430">
        <ele>517.0</ele>
        <time>2019-02-24T10:33:37Z</time>
      </trkpt>
      <trkpt lat="46.4842610" lon="6.7593640">
        <ele>517.1</ele>
        <time>2019-02-24T10:33:38Z</time>
      </trkpt>
      <trkpt lat="46.4842400" lon="6.7593850">
        <ele>517.2</ele>
        <time>2019-02-24T10:33:39Z</time>
      </trkpt>
      <trkpt lat="46.4842190" lon="6.7594070">
        <ele>517.3</ele>
        <time>2019-02-24T10:33:40Z</time>
      </trkpt>
      <trkpt lat="46.4841990" lon="6.7594290">
        <ele>517.4</ele>
        <time>2019-02-24T10:33:41Z</time>
      </trkpt>
      <trkpt lat="46.4841780" lon="6.7594510">
        <ele>517.5</ele>
        <time>2019-02-24T10:33:42Z</time>
      </trkpt>
      <trkpt lat="46.4841580" lon="6.7594730">
        <ele>517.6</ele>
        <time>2019-02-24T10:33:43Z</time>
      </trkpt>
      <trkpt lat="46.4841380" lon="6.7594960">
        <ele>517.7</ele>
        <time>2019-02-24T10:33:44Z</time>
      </trkpt>
      <trkpt lat="46.4841180" lon="6.7595200">
        <ele>517.8</ele>
        <time>2019-02-24T10:33:45Z</time>
      </trkpt>
      <trkpt lat="46.4840990" lon="6.7595440">
        <ele>517.9</ele>
        <time>2019-02-24T10:33:46Z</time>
      </trkpt>
      <trkpt lat="46.4840800" lon="6.7595690">
        <ele>518.0</ele>
        <time>2019-02-24T10:33:47Z</time>
      </trkpt>
      <trkpt lat="46.4840610" lon="6.7595930">
        <ele>518.1</ele>
        <time>2019-02-24T10:33:48Z</time>
      </trkpt>
      <trkpt lat="46.4840430" lon="6.7596190">
        <ele>518.2</ele>
        <time>2019-02-24T10:33:49Z</time>
      </trkpt>
      <trkpt lat="46.4840250" lon="6.7596440">
        <ele>518.3</ele>
        <time>2019-02-24T10:33:50Z</time>
      </trkpt>
      <trkpt lat="46.4840070" lon="6.7596710">
        <ele>518.4</ele>
        <time>2019-02-24T10:33:51Z</time>
      </trkpt>
      <trkpt lat="46.4839900" lon="6.7596970">
        <ele>518.5</ele>
        <time>2019-02-24T10:33:52Z</time>
      </trkpt>
      <trkpt lat="46.4839730" lon="6.7597240">
        <ele>518.6</ele>
        <time>2019-02-24T10:33:53Z</time>
      </trkpt>
      <trkpt lat="46.4839570" lon="6.7597510">
        <ele>518.7</ele>
        <time>2019-02-24T10:33:54Z</time>
      </trkpt>
      <trkpt lat="46.4839410" lon="6.7597780">
        <ele>518.8</ele>
        <time>2019-02-24T10:33:55Z</time>
      </trkpt>
      <trkpt lat="46.4839250" lon="6.7598050">
        <ele>518.9</ele>
        <time>2019-02-24T10:33:56Z</time>
      </trkpt>
      <trkpt lat="46.4839090" lon="6.7598330">
        <ele>519.0</ele>
        <time>2019-02-24T10:33:57Z</time>
      </trkpt>
      <trkpt lat="46.4838930" lon="6.7598600">
        <ele>519.1</ele>
        <time>2019-02-24T10:33:58Z</time>
      </trkpt>
      <trkpt lat="46.4838770" lon="6.7598880">
        <ele>519.2</ele>
        <time>2019-02-24T10:33:59Z</time>
      </trkpt>
      <trkpt lat="46.4838610" lon="6.7599150">
        <ele>519.3</ele>
        <time>2019-02-24T10:34:00Z</time>
      </trkpt>
      <trkpt lat="46.4838450" lon="6.7599430">
        <ele>519.4</ele>
        <time>2019-02-24T10:34:01Z</time>
      </trkpt>
      <trkpt lat="46.4838290" lon="6.7599700">
        <ele>519.6</ele>
        <time>2019-02-24T10:34:02Z</time>
      </trkpt>
      <trkpt lat="46.4838120" lon="6.7599970">
        <ele>519.7</ele>
        <time>2019-02-24T10:34:03Z</time>
      </trkpt>
      <trkpt lat="46.4837960" lon="6.7600240">
        <ele>519.8</ele>
        <time>2019-02-24T10:34:04Z</time>
      </trkpt>
      <trkpt lat="46.4837790" lon="6.7600510">
        <ele>519.9</ele>
        <time>2019-02-24T10:34:05Z</time>
      </trkpt>
      <trkpt lat="46.4837630" lon="6.7600780">
        <ele>520.1</ele>
        <time>2019-02-24T10:34:06Z</time>
      </trkpt>
      <trkpt lat="46.4837460" lon="6.7601040">
        <ele>520.2</ele>
        <time>2019-02-24T10:34:07Z</time>
      </trkpt>
      <trkpt lat="46.4837290" lon="6.7601300">
        <ele>520.4</ele>
        <time>2019-02-24T10:34:08Z</time>
      </trkpt>
      <trkpt lat="46.4837110" lon="6.7601560">
        <ele>520.5</ele>
        <time>2019-02-24T10:34:09Z</time>
      </trkpt>
      <trkpt lat="46.4836940" lon="6.7601810">
        <ele>520.6</ele>
        <time>2019-02-24T10:34:10Z</time>
      </trkpt>
      <trkpt lat="46.4836760" lon="6.7602060">
        <ele>520.7</ele>
        <time>2019-02-24T10:34:11Z</time>
      </trkpt>
      <trkpt lat="46.4836590" lon="6.7602300">
        <ele>520.9</ele>
        <time>2019-02-24T10:34:12Z</time>
      </trkpt>
      <trkpt lat="46.4836410" lon="6.7602540">
        <ele>521.0</ele>
        <time>2019-02-24T10:34:13Z</time>
      </trkpt>
      <trkpt lat="46.4836230" lon="6.7602780">
        <ele>521.1</ele>
        <time>2019-02-24T10:34:14Z</time>
      </trkpt>
      <trkpt lat="46.4836050" lon="6.7603010">
        <ele>521.3</ele>
        <time>2019-02-24T10:34:15Z</time>
      </trkpt>
      <trkpt lat="46.4835870" lon="6.7603230">
        <ele>521.5</ele>
        <time>2019-02-24T10:34:16Z</time>
      </trkpt>
      <trkpt lat="46.4835680" lon="6.7603450">
        <ele>521.6</ele>
        <time>2019-02-24T10:34:17Z</time>
      </trkpt>
      <trkpt lat="46.4835490" lon="6.7603660">
        <ele>521.7</ele>
        <time>2019-02-24T10:34:18Z</time>
      </trkpt>
      <trkpt lat="46.4835310" lon="6.7603870">
        <ele>521.8</ele>
        <time>2019-02-24T10:34:19Z</time>
      </trkpt>
      <trkpt lat="46.4835120" lon="6.7604080">
        <ele>521.9</ele>
        <time>2019-02-24T10:34:20Z</time>
      </trkpt>
      <trkpt lat="46.4834930" lon="6.7604280">
        <ele>522.0</ele>
        <time>2019-02-24T10:34:21Z</time>
      </trkpt>
      <trkpt lat="46.4834740" lon="6.7604480">
        <ele>522.1</ele>
        <time>2019-02-24T10:34:22Z</time>
      </trkpt>
      <trkpt lat="46.4834550" lon="6.7604690">
        <ele>522.2</ele>
        <time>2019-02-24T10:34:23Z</time>
      </trkpt>
      <trkpt lat="46.4834360" lon="6.7604890">
        <ele>522.3</ele>
        <time>2019-02-24T10:34:24Z</time>
      </trkpt>
      <trkpt lat="46.4834170" lon="6.7605090">
        <ele>522.4</ele>
        <time>2019-02-24T10:34:25Z</time>
      </trkpt>
      <trkpt lat="46.4833980" lon="6.7605300">
        <ele>522.5</ele>
        <time>2019-02-24T10:34:26Z</time>
      </trkpt>
      <trkpt lat="46.4833790" lon="6.7605510">
        <ele>522.6</ele>
        <time>2019-02-24T10:34:27Z</time>
      </trkpt>
      <trkpt lat="46.4833600" lon="6.7605730">
        <ele>522.7</ele>
        <time>2019-02-24T10:34:28Z</time>
      </trkpt>
      <trkpt lat="46.4833410" lon="6.7605960">
        <ele>522.8</ele>
        <time>2019-02-24T10:34:29Z</time>
      </trkpt>
      <trkpt lat="46.4833220" lon="6.7606190">
        <ele>522.9</ele>
        <time>2019-02-24T10:34:30Z</time>
      </trkpt>
      <trkpt lat="46.4833040" lon="6.7606420">
        <ele>523.0</ele>
        <time>2019-02-24T10:34:31Z</time>
      </trkpt>
      <trkpt lat="46.4832850" lon="6.7606670">
        <ele>523.1</ele>
        <time>2019-02-24T10:34:32Z</time>
      </trkpt>
      <trkpt lat="46.4832670" lon="6.7606930">
        <ele>523.3</ele>
        <time>2019-02-24T10:34:33Z</time>
      </trkpt>
      <trkpt lat="46.4832490" lon="6.7607190">
        <ele>523.4</ele>
        <time>2019-02-24T10:34:34Z</time>
      </trkpt>
      <trkpt lat="46.4832310" lon="6.7607460">
        <ele>523.6</ele>
        <time>2019-02-24T10:34:35Z</time>
      </trkpt>
      <trkpt lat="46.4832130" lon="6.7607740">
        <ele>523.7</ele>
        <time>2019-02-24T10:34:36Z</time>
      </trkpt>
      <trkpt lat="46.4831950" lon="6.7608030">
        <ele>523.9</ele>
        <time>2019-02-24T10:34:37Z</time>
      </trkpt>
      <trkpt lat="46.4831780" lon="6.7608320">
        <ele>524.1</ele>
        <time>2019-02-24T10:34:38Z</time>
      </trkpt>
      <trkpt lat="46.4831610" lon="6.7608610">
        <ele>524.2</ele>
        <time>2019-02-24T10:34:39Z</time>
      </trkpt>
      <trkpt lat="46.4831440" lon="6.7608910">
        <ele>524.4</ele>
        <time>2019-02-24T10:34:40Z</time>
      </trkpt>
      <trkpt lat="46.4831270" lon="6.7609210">
        <ele>524.6</ele>
        <time>2019-02-24T10:34:41Z</time>
      </trkpt>
      <trkpt lat="46.4831110" lon="6.7609510">
        <ele>524.7</ele>
        <time>2019-02-24T10:34:42Z</time>
      </trkpt>
      <trkpt lat="46.4830950" lon="6.7609810">
        <ele>524.9</ele>
        <time>2019-02-24T10:34:43Z</time>
      </trkpt>
      <trkpt lat="46.4830780" lon="6.7610110">
        <ele>525.0</ele>
        <time>2019-02-24T10:34:44Z</time>
      </trkpt>
      <trkpt lat="46.4830620" lon="6.7610410">
        <ele>525.2</ele>
        <time>2019-02-24T10:34:45Z</time>
      </trkpt>
      <trkpt lat="46.4830460" lon="6.7610710">
        <ele>525.3</ele>
        <time>2019-02-24T10:34:46Z</time>
      </trkpt>
      <trkpt lat="46.4830290" lon="6.7611020">
        <ele>525.4</ele>
        <time>2019-02-24T10:34:47Z</time>
      </trkpt>
      <trkpt lat="46.4830130" lon="6.7611320">
        <ele>525.5</ele>
        <time>2019-02-24T10:34:48Z</time>
      </trkpt>
      <trkpt lat="46.4829960" lon="6.7611620">
        <ele>525.6</ele>
        <time>2019-02-24T10:34:49Z</time>
      </trkpt>
      <trkpt lat="46.4829790" lon="6.7611920">
        <ele>525.7</ele>
        <time>2019-02-24T10:34:50Z</time>
      </trkpt>
      <trkpt lat="46.4829620" lon="6.7612230">
        <ele>525.8</ele>
        <time>2019-02-24T10:34:51Z</time>
      </trkpt>
      <trkpt lat="46.4829450" lon="6.7612530">
        <ele>526.0</ele>
        <time>2019-02-24T10:34:52Z</time>
      </trkpt>
      <trkpt lat="46.4829270" lon="6.7612830">
        <ele>526.1</ele>
        <time>2019-02-24T10:34:53Z</time>
      </trkpt>
      <trkpt lat="46.4829100" lon="6.7613140">
        <ele>526.2</ele>
        <time>2019-02-24T10:34:54Z</time>
      </trkpt>
      <trkpt lat="46.4828930" lon="6.7613440">
        <ele>526.3</ele>
        <time>2019-02-24T10:34:55Z</time>
      </trkpt>
      <trkpt lat="46.4828760" lon="6.7613750">
        <ele>526.5</ele>
        <time>2019-02-24T10:34:56Z</time>
      </trkpt>
      <trkpt lat="46.4828580" lon="6.7614060">
        <ele>526.6</ele>
        <time>2019-02-24T10:34:57Z</time>
      </trkpt>
      <trkpt lat="46.4828410" lon="6.7614370">
        <ele>526.8</ele>
        <time>2019-02-24T10:34:58Z</time>
      </trkpt>
      <trkpt lat="46.4828240" lon="6.7614670">
        <ele>526.9</ele>
        <time>2019-02-24T10:34:59Z</time>
      </trkpt>
      <trkpt lat="46.4828070" lon="6.7614980">
        <ele>527.1</ele>
        <time>2019-02-24T10:35:00Z</time>
      </trkpt>
      <trkpt lat="46.4827900" lon="6.7615280">
        <ele>527.2</ele>
        <time>2019-02-24T10:35:01Z</time>
      </trkpt>
      <trkpt lat="46.4827720" lon="6.7615590">
        <ele>527.4</ele>
        <time>2019-02-24T10:35:02Z</time>
      </trkpt>
      <trkpt lat="46.4827550" lon="6.7615880">
        <ele>527.5</ele>
        <time>2019-02-24T10:35:03Z</time>
      </trkpt>
      <trkpt lat="46.4827370" lon="6.7616170">
        <ele>527.7</ele>
        <time>2019-02-24T10:35:04Z</time>
      </trkpt>
      <trkpt lat="46.4827190" lon="6.7616460">
        <ele>527.8</ele>
        <time>2019-02-24T10:35:05Z</time>
      </trkpt>
      <trkpt lat="46.4827010" lon="6.7616730">
        <ele>527.9</ele>
        <time>2019-02-24T10:35:06Z</time>
      </trkpt>
      <trkpt lat="46.4826830" lon="6.7617010">
        <ele>528.0</ele>
        <time>2019-02-24T10:35:07Z</time>
      </trkpt>
      <trkpt lat="46.4826650" lon="6.7617280">
        <ele>528.1</ele>
        <time>2019-02-24T10:35:08Z</time>
      </trkpt>
      <trkpt lat="46.4826460" lon="6.7617540">
        <ele>528.2</ele>
        <time>2019-02-24T10:35:09Z</time>
      </trkpt>
      <trkpt lat="46.4826280" lon="6.7617800">
        <ele>528.3</ele>
        <time>2019-02-24T10:35:10Z</time>
      </trkpt>
      <trkpt lat="46.4826090" lon="6.7618060">
        <ele>528.5</ele>
        <time>2019-02-24T10:35:11Z</time>
      </trkpt>
      <trkpt lat="46.4825910" lon="6.7618320">
        <ele>528.6</ele>
        <time>2019-02-24T10:35:12Z</time>
      </trkpt>
      <trkpt lat="46.4825720" lon="6.7618570">
        <ele>528.7</ele>
        <time>2019-02-24T10:35:13Z</time>
      </trkpt>
      <trkpt lat="46.4825540" lon="6.7618820">
        <ele>528.9</ele>
        <time>2019-02-24T10:35:14Z</time>
      </trkpt>
      <trkpt lat="46.4825350" lon="6.7619080">
        <ele>529.1</ele>
        <time>2019-02-24T10:35:15Z</time>
      </trkpt>
      <trkpt lat="46.4825170" lon="6.7619330">
        <ele>529.2</ele>
        <time>2019-02-24T10:35:16Z</time>
      </trkpt>
      <trkpt lat="46.4824990" lon="6.7619590">
        <ele>529.3</ele>
        <time>2019-02-24T10:35:17Z</time>
      </trkpt>
      <trkpt lat="46.4824810" lon="6.7619850">
        <ele>529.4</ele>
        <time>2019-02-24T10:35:18Z</time>
      </trkpt>
      <trkpt lat="46.4824630" lon="6.7620110">
        <ele>529.5</ele>
        <time>2019-02-24T10:35:19Z</time>
      </trkpt>
      <trkpt lat="46.4824450" lon="6.7620380">
        <ele>529.6</ele>
        <time>2019-02-24T10:35:20Z</time>
      </trkpt>
      <trkpt lat="46.4824280" lon="6.7620650">
        <ele>529.7</ele>
        <time>2019-02-24T10:35:21Z</time>
      </trkpt>
      <trkpt lat="46.4824100" lon="6.7620920">
        <ele>529.8</ele>
        <time>2019-02-24T10:35:22Z</time>
      </trkpt>
      <trkpt lat="46.4823930" lon="6.7621190">
        <ele>529.9</ele>
        <time>2019-02-24T10:35:23Z</time>
      </trkpt>
      <trkpt lat="46.4823770" lon="6.7621480">
        <ele>530.0</ele>
        <time>2019-02-24T10:35:24Z</time>
      </trkpt>
      <trkpt lat="46.4823600" lon="6.7621760">
        <ele>530.2</ele>
        <time>2019-02-24T10:35:25Z</time>
      </trkpt>
      <trkpt lat="46.4823440" lon="6.7622050">
        <ele>530.3</ele>
        <time>2019-02-24T10:35:26Z</time>
      </trkpt>
      <trkpt lat="46.4823280" lon="6.7622340">
        <ele>530.5</ele>
        <time>2019-02-24T10:35:27Z</time>
      </trkpt>
      <trkpt lat="46.4823120" lon="6.7622630">
        <ele>530.6</ele>
        <time>2019-02-24T10:35:28Z</time>
      </trkpt>
      <trkpt lat="46.4822960" lon="6.7622930">
        <ele>530.7</ele>
        <time>2019-02-24T10:35:29Z</time>
      </trkpt>
      <trkpt lat="46.4822810" lon="6.7623230">
        <ele>530.9</ele>
        <time>2019-02-24T10:35:30Z</time>
      </trkpt>
      <trkpt lat="46.4822660" lon="6.7623530">
        <ele>531.0</ele>
        <time>2019-02-24T10:35:31Z</time>
      </trkpt>
      <trkpt lat="46.4822510" lon="6.7623840">
        <ele>531.1</ele>
        <time>2019-02-24T10:35:32Z</time>
      </trkpt>
      <trkpt lat="46.4822360" lon="6.7624150">
        <ele>531.2</ele>
        <time>2019-02-24T10:35:33Z</time>
      </trkpt>
      <trkpt lat="46.4822220" lon="6.7624460">
        <ele>531.3</ele>
        <time>2019-02-24T10:35:34Z</time>
      </trkpt>
      <trkpt lat="46.4822070" lon="6.7624770">
        <ele>531.5</ele>
        <time>2019-02-24T10:35:35Z</time>
      </trkpt>
      <trkpt lat="46.4821930" lon="6.7625090">
        <ele>531.6</ele>
        <time>2019-02-24T10:35:36Z</time>
      </trkpt>
      <trkpt lat="46.4821790" lon="6.7625410">
        <ele>531.8</ele>
        <time>2019-02-24T10:35:37Z</time>
      </trkpt>
      <trkpt lat="46.4821660" lon="6.7625730">
        <ele>532.0</ele>
        <time>2019-02-24T10:35:38Z</time>
      </trkpt>
      <trkpt lat="46.4821520" lon="6.7626040">
        <ele>532.1</ele>
        <time>2019-02-24T10:35:39Z</time>
      </trkpt>
      <trkpt lat="46.4821370" lon="6.7626360">
        <ele>532.3</ele>
        <time>2019-02-24T10:35:40Z</time>
      </trkpt>
      <trkpt lat="46.4821220" lon="6.7626680">
        <ele>532.3</ele>
        <time>2019-02-24T10:35:41Z</time>
      </trkpt>
      <trkpt lat="46.4821070" lon="6.7626990">
        <ele>532.4</ele>
        <time>2019-02-24T10:35:42Z</time>
      </trkpt>
      <trkpt lat="46.4820920" lon="6.7627300">
        <ele>532.4</ele>
        <time>2019-02-24T10:35:43Z</time>
      </trkpt>
      <trkpt lat="46.4820770" lon="6.7627610">
        <ele>532.5</ele>
        <time>2019-02-24T10:35:44Z</time>
      </trkpt>
      <trkpt lat="46.4820620" lon="6.7627920">
        <ele>532.5</ele>
        <time>2019-02-24T10:35:45Z</time>
      </trkpt>
      <trkpt lat="46.4820470" lon="6.7628230">
        <ele>532.6</ele>
        <time>2019-02-24T10:35:46Z</time>
      </trkpt>
      <trkpt lat="46.4820320" lon="6.7628540">
        <ele>532.7</ele>
        <time>2019-02-24T10:35:47Z</time>
      </trkpt>
      <trkpt lat="46.4820170" lon="6.7628860">
        <ele>532.7</ele>
        <time>2019-02-24T10:35:48Z</time>
      </trkpt>
      <trkpt lat="46.4820020" lon="6.7629170">
        <ele>532.8</ele>
        <time>2019-02-24T10:35:49Z</time>
      </trkpt>
      <trkpt lat="46.4819880" lon="6.7629490">
        <ele>532.8</ele>
        <time>2019-02-24T10:35:50Z</time>
      </trkpt>
      <trkpt lat="46.4819730" lon="6.7629800">
        <ele>532.9</ele>
        <time>2019-02-24T10:35:51Z</time>
      </trkpt>
      <trkpt lat="46.4819590" lon="6.7630110">
        <ele>533.0</ele>
        <time>2019-02-24T10:35:52Z</time>
      </trkpt>
      <trkpt lat="46.4819440" lon="6.7630430">
        <ele>533.0</ele>
        <time>2019-02-24T10:35:53Z</time>
      </trkpt>
      <trkpt lat="46.4819300" lon="6.7630740">
        <ele>533.1</ele>
        <time>2019-02-24T10:35:54Z</time>
      </trkpt>
      <trkpt lat="46.4819160" lon="6.7631050">
        <ele>533.1</ele>
        <time>2019-02-24T10:35:55Z</time>
      </trkpt>
      <trkpt lat="46.4819010" lon="6.7631360">
        <ele>533.2</ele>
        <time>2019-02-24T10:35:56Z</time>
      </trkpt>
      <trkpt lat="46.4818870" lon="6.7631670">
        <ele>533.2</ele>
        <time>2019-02-24T10:35:57Z</time>
      </trkpt>
      <trkpt lat="46.4818720" lon="6.7631980">
        <ele>533.3</ele>
        <time>2019-02-24T10:35:58Z</time>
      </trkpt>
      <trkpt lat="46.4818580" lon="6.7632290">
        <ele>533.3</ele>
        <time>2019-02-24T10:35:59Z</time>
      </trkpt>
      <trkpt lat="46.4818430" lon="6.7632600">
        <ele>533.4</ele>
        <time>2019-02-24T10:36:00Z</time>
      </trkpt>
      <trkpt lat="46.4818290" lon="6.7632900">
        <ele>533.4</ele>
        <time>2019-02-24T10:36:01Z</time>
      </trkpt>
      <trkpt lat="46.4818140" lon="6.7633210">
        <ele>533.5</ele>
        <time>2019-02-24T10:36:02Z</time>
      </trkpt>
      <trkpt lat="46.4818000" lon="6.7633510">
        <ele>533.5</ele>
        <time>2019-02-24T10:36:03Z</time>
      </trkpt>
      <trkpt lat="46.4817850" lon="6.7633820">
        <ele>533.5</ele>
        <time>2019-02-24T10:36:04Z</time>
      </trkpt>
      <trkpt lat="46.4817710" lon="6.7634120">
        <ele>533.6</ele>
        <time>2019-02-24T10:36:05Z</time>
      </trkpt>
      <trkpt lat="46.4817560" lon="6.7634420">
        <ele>533.6</ele>
        <time>2019-02-24T10:36:06Z</time>
      </trkpt>
      <trkpt lat="46.4817420" lon="6.7634720">
        <ele>533.6</ele>
        <time>2019-02-24T10:36:07Z</time>
      </trkpt>
      <trkpt lat="46.4817270" lon="6.7635020">
        <ele>533.7</ele>
        <time>2019-02-24T10:36:08Z</time>
      </trkpt>
      <trkpt lat="46.4817120" lon="6.7635320">
        <ele>533.7</ele>
        <time>2019-02-24T10:36:09Z</time>
      </trkpt>
      <trkpt lat="46.4816970" lon="6.7635620">
        <ele>533.7</ele>
        <time>2019-02-24T10:36:10Z</time>
      </trkpt>
      <trkpt lat="46.4816830" lon="6.7635920">
        <ele>533.8</ele>
        <time>2019-02-24T10:36:11Z</time>
      </trkpt>
      <trkpt lat="46.4816680" lon="6.7636210">
        <ele>533.8</ele>
        <time>2019-02-24T10:36:12Z</time>
      </trkpt>
      <trkpt lat="46.4816530" lon="6.7636510">
        <ele>533.9</ele>
        <time>2019-02-24T10:36:13Z</time>
      </trkpt>
      <trkpt lat="46.4816380" lon="6.7636810">
        <ele>533.9</ele>
        <time>2019-02-24T10:36:14Z</time>
      </trkpt>
      <trkpt lat="46.4816240" lon="6.7637100">
        <ele>534.0</ele>
        <time>2019-02-24T10:36:15Z</time>
      </trkpt>
      <trkpt lat="46.4816090" lon="6.7637400">
        <ele>534.0</ele>
        <time>2019-02-24T10:36:16Z</time>
      </trkpt>
      <trkpt lat="46.4815950" lon="6.7637700">
        <ele>534.0</ele>
        <time>2019-02-24T10:36:17Z</time>
      </trkpt>
      <trkpt lat="46.4815800" lon="6.7638000">
        <ele>534.1</ele>
        <time>2019-02-24T10:36:18Z</time>
      </trkpt>
      <trkpt lat="46.4815660" lon="6.7638300">
        <ele>534.1</ele>
        <time>2019-02-24T10:36:19Z</time>
      </trkpt>
      <trkpt lat="46.4815520" lon="6.7638600">
        <ele>534.2</ele>
        <time>2019-02-24T10:36:20Z</time>
      </trkpt>
      <trkpt lat="46.4815380" lon="6.7638910">
        <ele>534.2</ele>
        <time>2019-02-24T10:36:21Z</time>
      </trkpt>
      <trkpt lat="46.4815240" lon="6.7639210">
        <ele>534.3</ele>
        <time>2019-02-24T10:36:22Z</time>
      </trkpt>
      <trkpt lat="46.4815100" lon="6.7639520">
        <ele>534.3</ele>
        <time>2019-02-24T10:36:23Z</time>
      </trkpt>
      <trkpt lat="46.4814960" lon="6.7639830">
        <ele>534.4</ele>
        <time>2019-02-24T10:36:24Z</time>
      </trkpt>
      <trkpt lat="46.4814830" lon="6.7640140">
        <ele>534.4</ele>
        <time>2019-02-24T10:36:25Z</time>
      </trkpt>
      <trkpt lat="46.4814700" lon="6.7640460">
        <ele>534.5</ele>
        <time>2019-02-24T10:36:26Z</time>
      </trkpt>
      <trkpt lat="46.4814570" lon="6.7640780">
        <ele>534.5</ele>
        <time>2019-02-24T10:36:27Z</time>
      </trkpt>
      <trkpt lat="46.4814440" lon="6.7641100">
        <ele>534.6</ele>
        <time>2019-02-24T10:36:28Z</time>
      </trkpt>
      <trkpt lat="46.4814320" lon="6.7641420">
        <ele>534.6</ele>
        <time>2019-02-24T10:36:29Z</time>
      </trkpt>
      <trkpt lat="46.4814190" lon="6.7641750">
        <ele>534.7</ele>
        <time>2019-02-24T10:36:30Z</time>
      </trkpt>
      <trkpt lat="46.4814070" lon="6.7642070">
        <ele>534.7</ele>
        <time>2019-02-24T10:36:31Z</time>
      </trkpt>
      <trkpt lat="46.4813950" lon="6.7642400">
        <ele>534.8</ele>
        <time>2019-02-24T10:36:32Z</time>
      </trkpt>
      <trkpt lat="46.4813830" lon="6.7642730">
        <ele>534.9</ele>
        <time>2019-02-24T10:36:33Z</time>
      </trkpt>
      <trkpt lat="46.4813710" lon="6.7643060">
        <ele>534.9</ele>
        <time>2019-02-24T10:36:34Z</time>
      </trkpt>
      <trkpt lat="46.4813590" lon="6.7643390">
        <ele>535.0</ele>
        <time>2019-02-24T10:36:35Z</time>
      </trkpt>
      <trkpt lat="46.4813470" lon="6.7643720">
        <ele>535.0</ele>
        <time>2019-02-24T10:36:36Z</time>
      </trkpt>
      <trkpt lat="46.4813360" lon="6.7644060">
        <ele>535.1</ele>
        <time>2019-02-24T10:36:37Z</time>
      </trkpt>
      <trkpt lat="46.4813240" lon="6.7644390">
        <ele>535.2</ele>
        <time>2019-02-24T10:36:38Z</time>
      </trkpt>
      <trkpt lat="46.4813120" lon="6.7644720">
        <ele>535.2</ele>
        <time>2019-02-24T10:36:39Z</time>
      </trkpt>
      <trkpt lat="46.4813010" lon="6.7645050">
        <ele>535.3</ele>
        <time>2019-02-24T10:36:40Z</time>
      </trkpt>
      <trkpt lat="46.4812890" lon="6.7645380">
        <ele>535.3</ele>
        <time>2019-02-24T10:36:41Z</time>
      </trkpt>
      <trkpt lat="46.4812780" lon="6.7645710">
        <ele>535.4</ele>
        <time>2019-02-24T10:36:42Z</time>
      </trkpt>
      <trkpt lat="46.4812660" lon="6.7646040">
        <ele>535.4</ele>
        <time>2019-02-24T10:36:43Z</time>
      </trkpt>
      <trkpt lat="46.4812550" lon="6.7646360">
        <ele>535.5</ele>
        <time>2019-02-24T10:36:44Z</time>
      </trkpt>
      <trkpt lat="46.4812430" lon="6.7646690">
        <ele>535.5</ele>
        <time>2019-02-24T10:36:45Z</time>
      </trkpt>
      <trkpt lat="46.4812320" lon="6.7647020">
        <ele>535.6</ele>
        <time>2019-02-24T10:36:46Z</time>
      </trkpt>
      <trkpt lat="46.4812200" lon="6.7647340">
        <ele>535.6</ele>
        <time>2019-02-24T10:36:47Z</time>
      </trkpt>
      <trkpt lat="46.4812090" lon="6.7647670">
        <ele>535.7</ele>
        <time>2019-02-24T10:36:48Z</time>
      </trkpt>
      <trkpt lat="46.4811970" lon="6.7647990">
        <ele>535.7</ele>
        <time>2019-02-24T10:36:49Z</time>
      </trkpt>
      <trkpt lat="46.4811860" lon="6.7648320">
        <ele>535.8</ele>
        <time>2019-02-24T10:36:50Z</time>
      </trkpt>
      <trkpt lat="46.4811740" lon="6.7648640">
        <ele>535.8</ele>
        <time>2019-02-24T10:36:51Z</time>
      </trkpt>
      <trkpt lat="46.4811630" lon="6.7648960">
        <ele>535.9</ele>
        <time>2019-02-24T10:36:52Z</time>
      </trkpt>
      <trkpt lat="46.4811520" lon="6.7649290">
        <ele>535.9</ele>
        <time>2019-02-24T10:36:53Z</time>
      </trkpt>
      <trkpt lat="46.4811400" lon="6.7649610">
        <ele>536.0</ele>
        <time>2019-02-24T10:36:54Z</time>
      </trkpt>
      <trkpt lat="46.4811290" lon="6.7649940">
        <ele>536.2</ele>
        <time>2019-02-24T10:36:55Z</time>
      </trkpt>
      <trkpt lat="46.4811170" lon="6.7650260">
        <ele>536.2</ele>
        <time>2019-02-24T10:36:56Z</time>
      </trkpt>
      <trkpt lat="46.4811060" lon="6.7650590">
        <ele>536.3</ele>
        <time>2019-02-24T10:36:57Z</time>
      </trkpt>
      <trkpt lat="46.4810950" lon="6.7650920">
        <ele>536.4</ele>
        <time>2019-02-24T10:36:58Z</time>
      </trkpt>
      <trkpt lat="46.4810840" lon="6.7651240">
        <ele>536.5</ele>
        <time>2019-02-24T10:36:59Z</time>
      </trkpt>
      <trkpt lat="46.4810720" lon="6.7651570">
        <ele>536.5</ele>
        <time>2019-02-24T10:37:00Z</time>
      </trkpt>
      <trkpt lat="46.4810610" lon="6.7651900">
        <ele>536.6</ele>
        <time>2019-02-24T10:37:01Z</time>
      </trkpt>
      <trkpt lat="46.4810490" lon="6.7652220">
        <ele>536.6</ele>
        <time>2019-02-24T10:37:02Z</time>
      </trkpt>
      <trkpt lat="46.4810380" lon="6.7652550">
        <ele>536.7</ele>
        <time>2019-02-24T10:37:03Z</time>
      </trkpt>
      <trkpt lat="46.4810260" lon="6.7652870">
        <ele>536.7</ele>
        <time>2019-02-24T10:37:04Z</time>
      </trkpt>
      <trkpt lat="46.4810140" lon="6.7653200">
        <ele>536.8</ele>
        <time>2019-02-24T10:37:05Z</time>
      </trkpt>
      <trkpt lat="46.4810020" lon="6.7653520">
        <ele>536.9</ele>
        <time>2019-02-24T10:37:06Z</time>
      </trkpt>
      <trkpt lat="46.4809900" lon="6.7653840">
        <ele>536.9</ele>
        <time>2019-02-24T10:37:07Z</time>
      </trkpt>
      <trkpt lat="46.4809780" lon="6.7654160">
        <ele>537.0</ele>
        <time>2019-02-24T10:37:08Z</time>
      </trkpt>
      <trkpt lat="46.4809650" lon="6.7654470">
        <ele>537.0</ele>
        <time>2019-02-24T10:37:09Z</time>
      </trkpt>
      <trkpt lat="46.4809520" lon="6.7654790">
        <ele>537.1</ele>
        <time>2019-02-24T10:37:10Z</time>
      </trkpt>
      <trkpt lat="46.4809390" lon="6.7655100">
        <ele>537.2</ele>
        <time>2019-02-24T10:37:11Z</time>
      </trkpt>
      <trkpt lat="46.4809250" lon="6.7655410">
        <ele>537.3</ele>
        <time>2019-02-24T10:37:12Z</time>
      </trkpt>
      <trkpt lat="46.4809120" lon="6.7655710">
        <ele>537.4</ele>
        <time>2019-02-24T10:37:13Z</time>
      </trkpt>
      <trkpt lat="46.4808970" lon="6.7656010">
        <ele>537.5</ele>
        <time>2019-02-24T10:37:14Z</time>
      </trkpt>
      <trkpt lat="46.4808830" lon="6.7656310">
        <ele>537.6</ele>
        <time>2019-02-24T10:37:15Z</time>
      </trkpt>
      <trkpt lat="46.4808680" lon="6.7656600">
        <ele>537.6</ele>
        <time>2019-02-24T10:37:16Z</time>
      </trkpt>
      <trkpt lat="46.4808520" lon="6.7656890">
        <ele>537.7</ele>
        <time>2019-02-24T10:37:17Z</time>
      </trkpt>
      <trkpt lat="46.4808360" lon="6.7657170">
        <ele>537.7</ele>
        <time>2019-02-24T10:37:18Z</time>
      </trkpt>
      <trkpt lat="46.4808200" lon="6.7657450">
        <ele>537.8</ele>
        <time>2019-02-24T10:37:19Z</time>
      </trkpt>
      <trkpt lat="46.4808030" lon="6.7657720">
        <ele>537.8</ele>
        <time>2019-02-24T10:37:20Z</time>
      </trkpt>
      <trkpt lat="46.4807860" lon="6.7657980">
        <ele>537.9</ele>
        <time>2019-02-24T10:37:21Z</time>
      </trkpt>
      <trkpt lat="46.4807680" lon="6.7658240">
        <ele>538.0</ele>
        <time>2019-02-24T10:37:22Z</time>
      </trkpt>
      <trkpt lat="46.4807500" lon="6.7658490">
        <ele>538.0</ele>
        <time>2019-02-24T10:37:23Z</time>
      </trkpt>
      <trkpt lat="46.4807320" lon="6.7658740">
        <ele>538.1</ele>
        <time>2019-02-24T10:37:24Z</time>
      </trkpt>
      <trkpt lat="46.4807140" lon="6.7658990">
        <ele>538.2</ele>
        <time>2019-02-24T10:37:25Z</time>
      </trkpt>
      <trkpt lat="46.4806960" lon="6.7659240">
        <ele>538.2</ele>
        <time>2019-02-24T10:37:26Z</time>
      </trkpt>
      <trkpt lat="46.4806790" lon="6.7659500">
        <ele>538.3</ele>
        <time>2019-02-24T10:37:27Z</time>
      </trkpt>
      <trkpt lat="46.4806620" lon="6.7659760">
        <ele>538.4</ele>
        <time>2019-02-24T10:37:28Z</time>
      </trkpt>
      <trkpt lat="46.4806460" lon="6.7660030">
        <ele>538.4</ele>
        <time>2019-02-24T10:37:29Z</time>
      </trkpt>
      <trkpt lat="46.4806310" lon="6.7660320">
        <ele>538.5</ele>
        <time>2019-02-24T10:37:30Z</time>
      </trkpt>
      <trkpt lat="46.4806180" lon="6.7660610">
        <ele>538.5</ele>
        <time>2019-02-24T10:37:31Z</time>
      </trkpt>
      <trkpt lat="46.4806050" lon="6.7660910">
        <ele>538.6</ele>
        <time>2019-02-24T10:37:32Z</time>
      </trkpt>
      <trkpt lat="46.4805930" lon="6.7661220">
        <ele>538.7</ele>
        <time>2019-02-24T10:37:33Z</time>
      </trkpt>
      <trkpt lat="46.4805820" lon="6.7661540">
        <ele>538.8</ele>
        <time>2019-02-24T10:37:34Z</time>
      </trkpt>
      <trkpt lat="46.4805710" lon="6.7661860">
        <ele>538.9</ele>
        <time>2019-02-24T10:37:35Z</time>
      </trkpt>
      <trkpt lat="46.4805620" lon="6.7662190">
        <ele>539.0</ele>
        <time>2019-02-24T10:37:36Z</time>
      </trkpt>
      <trkpt lat="46.4805530" lon="6.7662530">
        <ele>539.0</ele>
        <time>2019-02-24T10:37:37Z</time>
      </trkpt>
      <trkpt lat="46.4805440" lon="6.7662870">
        <ele>539.1</ele>
        <time>2019-02-24T10:37:38Z</time>
      </trkpt>
      <trkpt lat="46.4805360" lon="6.7663210">
        <ele>539.2</ele>
        <time>2019-02-24T10:37:39Z</time>
      </trkpt>
      <trkpt lat="46.4805290" lon="6.7663550">
        <ele>539.2</ele>
        <time>2019-02-24T10:37:40Z</time>
      </trkpt>
      <trkpt lat="46.4805210" lon="6.7663890">
        <ele>539.3</ele>
        <time>2019-02-24T10:37:41Z</time>
      </trkpt>
      <trkpt lat="46.4805130" lon="6.7664230">
        <ele>539.4</ele>
        <time>2019-02-24T10:37:42Z</time>
      </trkpt>
      <trkpt lat="46.4805060" lon="6.7664580">
        <ele>539.5</ele>
        <time>2019-02-24T10:37:43Z</time>
      </trkpt>
      <trkpt lat="46.4804980" lon="6.7664920">
        <ele>539.5</ele>
        <time>2019-02-24T10:37:44Z</time>
      </trkpt>
      <trkpt lat="46.4804900" lon="6.7665270">
        <ele>539.6</ele>
        <time>2019-02-24T10:37:45Z</time>
      </trkpt>
      <trkpt lat="46.4804810" lon="6.7665610">
        <ele>539.7</ele>
        <time>2019-02-24T10:37:46Z</time>
      </trkpt>
      <trkpt lat="46.4804720" lon="6.7665950">
        <ele>539.8</ele>
        <time>2019-02-24T10:37:47Z</time>
      </trkpt>
      <trkpt lat="46.4804620" lon="6.7666280">
        <ele>539.9</ele>
        <time>2019-02-24T10:37:48Z</time>
      </trkpt>
      <trkpt lat="46.4804530" lon="6.7666620">
        <ele>540.0</ele>
        <time>2019-02-24T10:37:49Z</time>
      </trkpt>
      <trkpt lat="46.4804420" lon="6.7666960">
        <ele>540.1</ele>
        <time>2019-02-24T10:37:50Z</time>
      </trkpt>
      <trkpt lat="46.4804320" lon="6.7667290">
        <ele>540.2</ele>
        <time>2019-02-24T10:37:51Z</time>
      </trkpt>
      <trkpt lat="46.4804220" lon="6.7667620">
        <ele>540.3</ele>
        <time>2019-02-24T10:37:52Z</time>
      </trkpt>
      <trkpt lat="46.4804110" lon="6.7667950">
        <ele>540.4</ele>
        <time>2019-02-24T10:37:53Z</time>
      </trkpt>
      <trkpt lat="46.4804000" lon="6.7668280">
        <ele>540.5</ele>
        <time>2019-02-24T10:37:54Z</time>
      </trkpt>
      <trkpt lat="46.4803900" lon="6.7668610">
        <ele>540.6</ele>
        <time>2019-02-24T10:37:55Z</time>
      </trkpt>
      <trkpt lat="46.4803790" lon="6.7668940">
        <ele>540.7</ele>
        <time>2019-02-24T10:37:56Z</time>
      </trkpt>
      <trkpt lat="46.4803680" lon="6.7669270">
        <ele>540.8</ele>
        <time>2019-02-24T10:37:57Z</time>
      </trkpt>
      <trkpt lat="46.4803580" lon="6.7669600">
        <ele>540.9</ele>
        <time>2019-02-24T10:37:58Z</time>
      </trkpt>
      <trkpt lat="46.4803480" lon="6.7669930">
        <ele>540.9</ele>
        <time>2019-02-24T10:37:59Z</time>
      </trkpt>
      <trkpt lat="46.4803380" lon="6.7670260">
        <ele>541.0</ele>
        <time>2019-02-24T10:38:00Z</time>
      </trkpt>
      <trkpt lat="46.4803280" lon="6.7670590">
        <ele>541.1</ele>
        <time>2019-02-24T10:38:01Z</time>
      </trkpt>
      <trkpt lat="46.4803180" lon="6.7670910">
        <ele>541.2</ele>
        <time>2019-02-24T10:38:02Z</time>
      </trkpt>
      <trkpt lat="46.4803090" lon="6.7671240">
        <ele>541.2</ele>
        <time>2019-02-24T10:38:03Z</time>
      </trkpt>
      <trkpt lat="46.4803010" lon="6.7671570">
        <ele>541.3</ele>
        <time>2019-02-24T10:38:04Z</time>
      </trkpt>
      <trkpt lat="46.4802930" lon="6.7671900">
        <ele>541.4</ele>
        <time>2019-02-24T10:38:05Z</time>
      </trkpt>
      <trkpt lat="46.4802850" lon="6.7672220">
        <ele>541.5</ele>
        <time>2019-02-24T10:38:06Z</time>
      </trkpt>
      <trkpt lat="46.4802780" lon="6.7672550">
        <ele>541.5</ele>
        <time>2019-02-24T10:38:07Z</time>
      </trkpt>
      <trkpt lat="46.4802710" lon="6.7672880">
        <ele>541.6</ele>
        <time>2019-02-24T10:38:08Z</time>
      </trkpt>
      <trkpt lat="46.4802650" lon="6.7673210">
        <ele>541.7</ele>
        <time>2019-02-24T10:38:09Z</time>
      </trkpt>
      <trkpt lat="46.4802590" lon="6.7673540">
        <ele>541.8</ele>
        <time>2019-02-24T10:38:10Z</time>
      </trkpt>
      <trkpt lat="46.4802540" lon="6.7673860">
        <ele>541.8</ele>
        <time>2019-02-24T10:38:11Z</time>
      </trkpt>
      <trkpt lat="46.4802500" lon="6.7674190">
        <ele>541.9</ele>
        <time>2019-02-24T10:38:12Z</time>
      </trkpt>
      <trkpt lat="46.4802460" lon="6.7674520">
        <ele>542.0</ele>
        <time>2019-02-24T10:38:13Z</time>
      </trkpt>
      <trkpt lat="46.4802440" lon="6.7674850">
        <ele>542.1</ele>
        <time>2019-02-24T10:38:14Z</time>
      </trkpt>
      <trkpt lat="46.4802420" lon="6.7675180">
        <ele>542.1</ele>
        <time>2019-02-24T10:38:15Z</time>
      </trkpt>
      <trkpt lat="46.4802400" lon="6.7675500">
        <ele>541.4</ele>
        <time>2019-02-24T10:38:16Z</time>
      </trkpt>
      <trkpt lat="46.4802400" lon="6.7675830">
        <ele>540.9</ele>
        <time>2019-02-24T10:38:17Z</time>
      </trkpt>
      <trkpt lat="46.4802400" lon="6.7676160">
        <ele>540.5</ele>
        <time>2019-02-24T10:38:18Z</time>
      </trkpt>
      <trkpt lat="46.4802390" lon="6.7676480">
        <ele>540.0</ele>
        <time>2019-02-24T10:38:19Z</time>
      </trkpt>
      <trkpt lat="46.4802370" lon="6.7676800">
        <ele>539.6</ele>
        <time>2019-02-24T10:38:20Z</time>
      </trkpt>
      <trkpt lat="46.4802300" lon="6.7677100">
        <ele>539.2</ele>
        <time>2019-02-24T10:38:21Z</time>
      </trkpt>
      <trkpt lat="46.4802180" lon="6.7677390">
        <ele>538.8</ele>
        <time>2019-02-24T10:38:22Z</time>
      </trkpt>
      <trkpt lat="46.4802010" lon="6.7677660">
        <ele>538.3</ele>
        <time>2019-02-24T10:38:23Z</time>
      </trkpt>
      <trkpt lat="46.4801780" lon="6.7677920">
        <ele>537.8</ele>
        <time>2019-02-24T10:38:24Z</time>
      </trkpt>
      <trkpt lat="46.4801540" lon="6.7678170">
        <ele>537.3</ele>
        <time>2019-02-24T10:38:25Z</time>
      </trkpt>
      <trkpt lat="46.4801300" lon="6.7678430">
        <ele>536.8</ele>
        <time>2019-02-24T10:38:26Z</time>
      </trkpt>
      <trkpt lat="46.4801070" lon="6.7678690">
        <ele>536.3</ele>
        <time>2019-02-24T10:38:27Z</time>
      </trkpt>
      <trkpt lat="46.4800870" lon="6.7678960">
        <ele>535.8</ele>
        <time>2019-02-24T10:38:28Z</time>
      </trkpt>
      <trkpt lat="46.4800690" lon="6.7679220">
        <ele>535.0</ele>
        <time>2019-02-24T10:38:29Z</time>
      </trkpt>
      <trkpt lat="46.4800530" lon="6.7679460">
        <ele>534.4</ele>
        <time>2019-02-24T10:38:30Z</time>
      </trkpt>
      <trkpt lat="46.4800370" lon="6.7679670">
        <ele>533.8</ele>
        <time>2019-02-24T10:38:31Z</time>
      </trkpt>
      <trkpt lat="46.4800210" lon="6.7679880">
        <ele>533.3</ele>
        <time>2019-02-24T10:38:32Z</time>
      </trkpt>
      <trkpt lat="46.4800050" lon="6.7680080">
        <ele>532.8</ele>
        <time>2019-02-24T10:38:33Z</time>
      </trkpt>
      <trkpt lat="46.4799860" lon="6.7680290">
        <ele>532.3</ele>
        <time>2019-02-24T10:38:34Z</time>
      </trkpt>
      <trkpt lat="46.4799630" lon="6.7680530">
        <ele>531.7</ele>
        <time>2019-02-24T10:38:35Z</time>
      </trkpt>
      <trkpt lat="46.4799390" lon="6.7680780">
        <ele>531.1</ele>
        <time>2019-02-24T10:38:36Z</time>
      </trkpt>
      <trkpt lat="46.4799130" lon="6.7681040">
        <ele>530.2</ele>
        <time>2019-02-24T10:38:37Z</time>
      </trkpt>
      <trkpt lat="46.4798880" lon="6.7681310">
        <ele>529.1</ele>
        <time>2019-02-24T10:38:38Z</time>
      </trkpt>
      <trkpt lat="46.4798640" lon="6.7681570">
        <ele>528.5</ele>
        <time>2019-02-24T10:38:39Z</time>
      </trkpt>
      <trkpt lat="46.4798420" lon="6.7681820">
        <ele>528.0</ele>
        <time>2019-02-24T10:38:40Z</time>
      </trkpt>
      <trkpt lat="46.4798230" lon="6.7682040">
        <ele>527.5</ele>
        <time>2019-02-24T10:38:41Z</time>
      </trkpt>
      <trkpt lat="46.4798060" lon="6.7682240">
        <ele>527.0</ele>
        <time>2019-02-24T10:38:42Z</time>
      </trkpt>
      <trkpt lat="46.4797940" lon="6.7682390">
        <ele>526.7</ele>
        <time>2019-02-24T10:38:43Z</time>
      </trkpt>
      <trkpt lat="46.4797840" lon="6.7682500">
        <ele>526.4</ele>
        <time>2019-02-24T10:38:44Z</time>
      </trkpt>
      <trkpt lat="46.4797780" lon="6.7682580">
        <ele>526.2</ele>
        <time>2019-02-24T10:38:45Z</time>
      </trkpt>
      <trkpt lat="46.4797730" lon="6.7682630">
        <ele>526.1</ele>
        <time>2019-02-24T10:38:46Z</time>
      </trkpt>
      <trkpt lat="46.4797710" lon="6.7682650">
        <ele>526.0</ele>
        <time>2019-02-24T10:38:47Z</time>
      </trkpt>
      <trkpt lat="46.4797700" lon="6.7682670">
        <ele>526.0</ele>
        <time>2019-02-24T10:38:48Z</time>
      </trkpt>
      <trkpt lat="46.4797700" lon="6.7682670">
        <ele>526.0</ele>
        <time>2019-02-24T10:38:49Z</time>
      </trkpt>
      <trkpt lat="46.4797700" lon="6.7682660">
        <ele>526.0</ele>
        <time>2019-02-24T10:38:50Z</time>
      </trkpt>
      <trkpt lat="46.4797700" lon="6.7682660">
        <ele>526.0</ele>
        <time>2019-02-24T10:38:51Z</time>
      </trkpt>
      <trkpt lat="46.4797700" lon="6.7682660">
        <ele>526.0</ele>
        <time>2019-02-24T10:38:52Z</time>
      </trkpt>
      <trkpt lat="46.4797710" lon="6.7682650">
        <ele>525.9</ele>
        <time>2019-02-24T10:38:53Z</time>
      </trkpt>
      <trkpt lat="46.4797710" lon="6.7682650">
        <ele>525.9</ele>
        <time>2019-02-24T10:38:54Z</time>
      </trkpt>
      <trkpt lat="46.4797710" lon="6.7682650">
        <ele>525.9</ele>
        <time>2019-02-24T10:38:55Z</time>
      </trkpt>
      <trkpt lat="46.4797710" lon="6.7682650">
        <ele>525.9</ele>
        <time>2019-02-24T10:38:56Z</time>
      </trkpt>
      <trkpt lat="46.4797710" lon="6.7682650">
        <ele>525.9</ele>
        <time>2019-02-24T10:38:57Z</time>
      </trkpt>
      <trkpt lat="46.4797710" lon="6.7682650">
        <ele>525.9</ele>
        <time>2019-02-24T10:38:58Z</time>
      </trkpt>
      <trkpt lat="46.4797710" lon="6.7682650">
        <ele>525.9</ele>
        <time>2019-02-24T10:38:59Z</time>
      </trkpt>
      <trkpt lat="46.4797710" lon="6.7682650">
        <ele>525.9</ele>
        <time>2019-02-24T10:39:00Z</time>
      </trkpt>
      <trkpt lat="46.4797710" lon="6.7682650">
        <ele>525.9</ele>
        <time>2019-02-24T10:39:01Z</time>
      </trkpt>
      <trkpt lat="46.4797710" lon="6.7682650">
        <ele>525.9</ele>
        <time>2019-02-24T10:39:02Z</time>
      </trkpt>
      <trkpt lat="46.4797710" lon="6.7682650">
        <ele>525.9</ele>
        <time>2019-02-24T10:39:03Z</time>
      </trkpt>
      <trkpt lat="46.4797710" lon="6.7682650">
        <ele>525.9</ele>
        <time>2019-02-24T10:39:04Z</time>
      </trkpt>
      <trkpt lat="46.4797710" lon="6.7682650">
        <ele>525.9</ele>
        <time>2019-02-24T10:39:05Z</time>
      </trkpt>
      <trkpt lat="46.4797710" lon="6.7682650">
        <ele>525.9</ele>
        <time>2019-02-24T10:39:06Z</time>
      </trkpt>
      <trkpt lat="46.4797710" lon="6.7682650">
        <ele>525.9</ele>
        <time>2019-02-24T10:39:07Z</time>
      </trkpt>
      <trkpt lat="46.4797710" lon="6.7682650">
        <ele>525.9</ele>
        <time>2019-02-24T10:39:08Z</time>
      </trkpt>
      <trkpt lat="46.4797710" lon="6.7682650">
        <ele>525.9</ele>
        <time>2019-02-24T10:39:09Z</time>
      </trkpt>
      <trkpt lat="46.4797710" lon="6.7682650">
        <ele>525.9</ele>
        <time>2019-02-24T10:39:10Z</time>
      </trkpt>
      <trkpt lat="46.4797710" lon="6.7682650">
        <ele>525.9</ele>
        <time>2019-02-24T10:39:11Z</time>
      </trkpt>
      <trkpt lat="46.4797710" lon="6.7682650">
        <ele>525.9</ele>
        <time>2019-02-24T10:39:12Z</time>
      </trkpt>
      <trkpt lat="46.4797710" lon="6.7682650">
        <ele>525.9</ele>
        <time>2019-02-24T10:39:13Z</time>
      </trkpt>
      <trkpt lat="46.4797710" lon="6.7682650">
        <ele>525.9</ele>
        <time>2019-02-24T10:39:14Z</time>
      </trkpt>
      <trkpt lat="46.4797710" lon="6.7682650">
        <ele>525.9</ele>
        <time>2019-02-24T10:39:15Z</time>
      </trkpt>
      <trkpt lat="46.4797710" lon="6.7682650">
        <ele>525.9</ele>
        <time>2019-02-24T10:39:16Z</time>
      </trkpt>
      <trkpt lat="46.4797710" lon="6.7682650">
        <ele>525.9</ele>
        <time>2019-02-24T10:39:17Z</time>
      </trkpt>
      <trkpt lat="46.4797710" lon="6.7682650">
        <ele>525.9</ele>
        <time>2019-02-24T10:39:18Z</time>
      </trkpt>
      <trkpt lat="46.4797710" lon="6.7682650">
        <ele>525.9</ele>
        <time>2019-02-24T10:39:19Z</time>
      </trkpt>
      <trkpt lat="46.4797710" lon="6.7682650">
        <ele>525.9</ele>
        <time>2019-02-24T10:39:20Z</time>
      </trkpt>
      <trkpt lat="46.4797710" lon="6.7682650">
        <ele>525.9</ele>
        <time>2019-02-24T10:39:21Z</time>
      </trkpt>
      <trkpt lat="46.4797710" lon="6.7682650">
        <ele>525.9</ele>
        <time>2019-02-24T10:39:22Z</time>
      </trkpt>
      <trkpt lat="46.4797710" lon="6.7682650">
        <ele>525.9</ele>
        <time>2019-02-24T10:39:23Z</time>
      </trkpt>
      <trkpt lat="46.4797710" lon="6.7682650">
        <ele>525.9</ele>
        <time>2019-02-24T10:39:24Z</time>
      </trkpt>
      <trkpt lat="46.4797710" lon="6.7682650">
        <ele>525.9</ele>
        <time>2019-02-24T10:39:25Z</time>
      </trkpt>
      <trkpt lat="46.4797710" lon="6.7682650">
        <ele>525.9</ele>
        <time>2019-02-24T10:39:26Z</time>
      </trkpt>
      <trkpt lat="46.4797710" lon="6.7682650">
        <ele>525.9</ele>
        <time>2019-02-24T10:39:27Z</time>
      </trkpt>
      <trkpt lat="46.4797710" lon="6.7682650">
        <ele>525.9</ele>
        <time>2019-02-24T10:39:28Z</time>
      </trkpt>
      <trkpt lat="46.4797710" lon="6.7682650">
        <ele>525.9</ele>
        <time>2019-02-24T10:39:29Z</time>
      </trkpt>
      <trkpt lat="46.4797710" lon="6.7682650">
        <ele>525.9</ele>
        <time>2019-02-24T10:39:30Z</time>
      </trkpt>
      <trkpt lat="46.4797710" lon="6.7682650">
        <ele>525.9</ele>
        <time>2019-02-24T10:39:31Z</time>
      </trkpt>
      <trkpt lat="46.4797710" lon="6.7682650">
        <ele>525.9</ele>
        <time>2019-02-24T10:39:32Z</time>
      </trkpt>
      <trkpt lat="46.4797710" lon="6.7682650">
        <ele>525.9</ele>
        <time>2019-02-24T10:39:33Z</time>
      </trkpt>
      <trkpt lat="46.4797710" lon="6.7682650">
        <ele>525.9</ele>
        <time>2019-02-24T10:39:34Z</time>
      </trkpt>
      <trkpt lat="46.4797710" lon="6.7682650">
        <ele>525.9</ele>
        <time>2019-02-24T10:39:35Z</time>
      </trkpt>
      <trkpt lat="46.4797710" lon="6.7682650">
        <ele>525.9</ele>
        <time>2019-02-24T10:39:36Z</time>
      </trkpt>
      <trkpt lat="46.4797710" lon="6.7682650">
        <ele>525.9</ele>
        <time>2019-02-24T10:39:37Z</time>
      </trkpt>
      <trkpt lat="46.4797710" lon="6.7682650">
        <ele>525.9</ele>
        <time>2019-02-24T10:39:38Z</time>
      </trkpt>
      <trkpt lat="46.4797710" lon="6.7682650">
        <ele>525.9</ele>
        <time>2019-02-24T10:39:39Z</time>
      </trkpt>
      <trkpt lat="46.4797710" lon="6.7682650">
        <ele>525.9</ele>
        <time>2019-02-24T10:39:40Z</time>
      </trkpt>
      <trkpt lat="46.4797710" lon="6.7682650">
        <ele>525.9</ele>
        <time>2019-02-24T10:39:41Z</time>
      </trkpt>
      <trkpt lat="46.4797710" lon="6.7682650">
        <ele>525.9</ele>
        <time>2019-02-24T10:39:42Z</time>
      </trkpt>
      <trkpt lat="46.4797710" lon="6.7682650">
        <ele>525.9</ele>
        <time>2019-02-24T10:39:43Z</time>
      </trkpt>
      <trkpt lat="46.4797710" lon="6.7682650">
        <ele>525.9</ele>
        <time>2019-02-24T10:39:44Z</time>
      </trkpt>
      <trkpt lat="46.4797710" lon="6.7682650">
        <ele>525.9</ele>
        <time>2019-02-24T10:39:45Z</time>
      </trkpt>
      <trkpt lat="46.4797710" lon="6.7682650">
        <ele>525.9</ele>
        <time>2019-02-24T10:39:46Z</time>
      </trkpt>
      <trkpt lat="46.4797710" lon="6.7682650">
        <ele>525.9</ele>
        <time>2019-02-24T10:39:47Z</time>
      </trkpt>
      <trkpt lat="46.4797710" lon="6.7682650">
        <ele>525.9</ele>
        <time>2019-02-24T10:39:48Z</time>
      </trkpt>
      <trkpt lat="46.4797710" lon="6.7682650">
        <ele>525.9</ele>
        <time>2019-02-24T10:39:49Z</time>
      </trkpt>
      <trkpt lat="46.4797710" lon="6.7682650">
        <ele>525.9</ele>
        <time>2019-02-24T10:39:50Z</time>
      </trkpt>
      <trkpt lat="46.4797710" lon="6.7682650">
        <ele>525.9</ele>
        <time>2019-02-24T10:39:51Z</time>
      </trkpt>
      <trkpt lat="46.4797710" lon="6.7682650">
        <ele>525.9</ele>
        <time>2019-02-24T10:39:52Z</time>
      </trkpt>
      <trkpt lat="46.4797710" lon="6.7682650">
        <ele>525.9</ele>
        <time>2019-02-24T10:39:53Z</time>
      </trkpt>
      <trkpt lat="46.4797710" lon="6.7682650">
        <ele>525.9</ele>
        <time>2019-02-24T10:39:54Z</time>
      </trkpt>
      <trkpt lat="46.4797710" lon="6.7682650">
        <ele>525.9</ele>
        <time>2019-02-24T10:39:55Z</time>
      </trkpt>
      <trkpt lat="46.4797710" lon="6.7682650">
        <ele>525.9</ele>
        <time>2019-02-24T10:39:56Z</time>
      </trkpt>
      <trkpt lat="46.4797710" lon="6.7682650">
        <ele>525.9</ele>
        <time>2019-02-24T10:39:57Z</time>
      </trkpt>
      <trkpt lat="46.4797710" lon="6.7682650">
        <ele>525.9</ele>
        <time>2019-02-24T10:39:58Z</time>
      </trkpt>
      <trkpt lat="46.4797710" lon="6.7682650">
        <ele>525.9</ele>
        <time>2019-02-24T10:39:59Z</time>
      </trkpt>
      <trkpt lat="46.4797710" lon="6.7682650">
        <ele>525.9</ele>
        <time>2019-02-24T10:40:00Z</time>
      </trkpt>
      <trkpt lat="46.4797710" lon="6.7682650">
        <ele>525.9</ele>
        <time>2019-02-24T10:40:01Z</time>
      </trkpt>
      <trkpt lat="46.4797710" lon="6.7682650">
        <ele>525.9</ele>
        <time>2019-02-24T10:40:02Z</time>
      </trkpt>
      <trkpt lat="46.4797710" lon="6.7682650">
        <ele>525.9</ele>
        <time>2019-02-24T10:40:03Z</time>
      </trkpt>
      <trkpt lat="46.4797710" lon="6.7682650">
        <ele>525.9</ele>
        <time>2019-02-24T10:40:04Z</time>
      </trkpt>
      <trkpt lat="46.4797710" lon="6.7682650">
        <ele>525.9</ele>
        <time>2019-02-24T10:40:05Z</time>
      </trkpt>
      <trkpt lat="46.4797710" lon="6.7682650">
        <ele>525.9</ele>
        <time>2019-02-24T10:40:06Z</time>
      </trkpt>
      <trkpt lat="46.4797710" lon="6.7682650">
        <ele>525.9</ele>
        <time>2019-02-24T10:40:07Z</time>
      </trkpt>
      <trkpt lat="46.4797710" lon="6.7682650">
        <ele>525.9</ele>
        <time>2019-02-24T10:40:08Z</time>
      </trkpt>
      <trkpt lat="46.4797710" lon="6.7682650">
        <ele>525.9</ele>
        <time>2019-02-24T10:40:09Z</time>
      </trkpt>
      <trkpt lat="46.4797710" lon="6.7682650">
        <ele>525.9</ele>
        <time>2019-02-24T10:40:10Z</time>
      </trkpt>
      <trkpt lat="46.4797710" lon="6.7682650">
        <ele>525.9</ele>
        <time>2019-02-24T10:40:11Z</time>
      </trkpt>
      <trkpt lat="46.4797710" lon="6.7682650">
        <ele>525.9</ele>
        <time>2019-02-24T10:40:12Z</time>
      </trkpt>
      <trkpt lat="46.4797710" lon="6.7682650">
        <ele>525.9</ele>
        <time>2019-02-24T10:40:13Z</time>
      </trkpt>
      <trkpt lat="46.4797710" lon="6.7682650">
        <ele>525.9</ele>
        <time>2019-02-24T10:40:14Z</time>
      </trkpt>
      <trkpt lat="46.4797710" lon="6.7682650">
        <ele>525.9</ele>
        <time>2019-02-24T10:40:15Z</time>
      </trkpt>
      <trkpt lat="46.4797710" lon="6.7682650">
        <ele>525.9</ele>
        <time>2019-02-24T10:40:16Z</time>
      </trkpt>
      <trkpt lat="46.4797710" lon="6.7682650">
        <ele>525.9</ele>
        <time>2019-02-24T10:40:17Z</time>
      </trkpt>
      <trkpt lat="46.4797710" lon="6.7682650">
        <ele>525.9</ele>
        <time>2019-02-24T10:40:18Z</time>
      </trkpt>
      <trkpt lat="46.4797710" lon="6.7682650">
        <ele>525.9</ele>
        <time>2019-02-24T10:40:19Z</time>
      </trkpt>
      <trkpt lat="46.4797710" lon="6.7682650">
        <ele>525.9</ele>
        <time>2019-02-24T10:40:20Z</time>
      </trkpt>
      <trkpt lat="46.4797710" lon="6.7682650">
        <ele>525.9</ele>
        <time>2019-02-24T10:40:21Z</time>
      </trkpt>
      <trkpt lat="46.4797710" lon="6.7682650">
        <ele>525.9</ele>
        <time>2019-02-24T10:40:22Z</time>
      </trkpt>
      <trkpt lat="46.4797710" lon="6.7682650">
        <ele>525.9</ele>
        <time>2019-02-24T10:40:23Z</time>
      </trkpt>
      <trkpt lat="46.4797710" lon="6.7682660">
        <ele>525.9</ele>
        <time>2019-02-24T10:40:24Z</time>
      </trkpt>
      <trkpt lat="46.4797700" lon="6.7682700">
        <ele>525.9</ele>
        <time>2019-02-24T10:40:25Z</time>
      </trkpt>
      <trkpt lat="46.4797610" lon="6.7682890">
        <ele>525.5</ele>
        <time>2019-02-24T10:40:26Z</time>
      </trkpt>
      <trkpt lat="46.4797560" lon="6.7683110">
        <ele>525.1</ele>
        <time>2019-02-24T10:40:27Z</time>
      </trkpt>
      <trkpt lat="46.4797540" lon="6.7683370">
        <ele>524.7</ele>
        <time>2019-02-24T10:40:28Z</time>
      </trkpt>
      <trkpt lat="46.4797500" lon="6.7683700">
        <ele>524.1</ele>
        <time>2019-02-24T10:40:29Z</time>
      </trkpt>
      <trkpt lat="46.4797410" lon="6.7684100">
        <ele>523.2</ele>
        <time>2019-02-24T10:40:30Z</time>
      </trkpt>
      <trkpt lat="46.4797270" lon="6.7684550">
        <ele>522.3</ele>
        <time>2019-02-24T10:40:31Z</time>
      </trkpt>
      <trkpt lat="46.4797090" lon="6.7685000">
        <ele>521.4</ele>
        <time>2019-02-24T10:40:32Z</time>
      </trkpt>
      <trkpt lat="46.4796900" lon="6.7685440">
        <ele>520.5</ele>
        <time>2019-02-24T10:40:33Z</time>
      </trkpt>
      <trkpt lat="46.4796700" lon="6.7685880">
        <ele>519.4</ele>
        <time>2019-02-24T10:40:34Z</time>
      </trkpt>
      <trkpt lat="46.4796510" lon="6.7686290">
        <ele>518.4</ele>
        <time>2019-02-24T10:40:35Z</time>
      </trkpt>
      <trkpt lat="46.4796320" lon="6.7686690">
        <ele>517.4</ele>
        <time>2019-02-24T10:40:36Z</time>
      </trkpt>
      <trkpt lat="46.4796160" lon="6.7687070">
        <ele>516.6</ele>
        <time>2019-02-24T10:40:37Z</time>
      </trkpt>
      <trkpt lat="46.4796010" lon="6.7687410">
        <ele>515.9</ele>
        <time>2019-02-24T10:40:38Z</time>
      </trkpt>
      <trkpt lat="46.4795870" lon="6.7687730">
        <ele>515.4</ele>
        <time>2019-02-24T10:40:39Z</time>
      </trkpt>
      <trkpt lat="46.4795750" lon="6.7688010">
        <ele>514.9</ele>
        <time>2019-02-24T10:40:40Z</time>
      </trkpt>
      <trkpt lat="46.4795630" lon="6.7688280">
        <ele>514.5</ele>
        <time>2019-02-24T10:40:41Z</time>
      </trkpt>
      <trkpt lat="46.4795510" lon="6.7688550">
        <ele>514.0</ele>
        <time>2019-02-24T10:40:42Z</time>
      </trkpt>
      <trkpt lat="46.4795380" lon="6.7688820">
        <ele>513.6</ele>
        <time>2019-02-24T10:40:43Z</time>
      </trkpt>
      <trkpt lat="46.4795230" lon="6.7689120">
        <ele>513.1</ele>
        <time>2019-02-24T10:40:44Z</time>
      </trkpt>
      <trkpt lat="46.4795100" lon="6.7689410">
        <ele>512.4</ele>
        <time>2019-02-24T10:40:45Z</time>
      </trkpt>
      <trkpt lat="46.4794990" lon="6.7689660">
        <ele>511.8</ele>
        <time>2019-02-24T10:40:46Z</time>
      </trkpt>
      <trkpt lat="46.4794860" lon="6.7689970">
        <ele>511.1</ele>
        <time>2019-02-24T10:40:47Z</time>
      </trkpt>
      <trkpt lat="46.4794670" lon="6.7690410">
        <ele>510.0</ele>
        <time>2019-02-24T10:40:48Z</time>
      </trkpt>
      <trkpt lat="46.4794290" lon="6.7691280">
        <ele>507.7</ele>
        <time>2019-02-24T10:40:49Z</time>
      </trkpt>
      <trkpt lat="46.4794150" lon="6.7691590">
        <ele>507.0</ele>
        <time>2019-02-24T10:40:50Z</time>
      </trkpt>
      <trkpt lat="46.4793850" lon="6.7692230">
        <ele>505.9</ele>
        <time>2019-02-24T10:40:51Z</time>
      </trkpt>
      <trkpt lat="46.4793530" lon="6.7692860">
        <ele>504.7</ele>
        <time>2019-02-24T10:40:52Z</time>
      </trkpt>
      <trkpt lat="46.4793200" lon="6.7693460">
        <ele>503.6</ele>
        <time>2019-02-24T10:40:53Z</time>
      </trkpt>
      <trkpt lat="46.4792620" lon="6.7694420">
        <ele>501.8</ele>
        <time>2019-02-24T10:40:54Z</time>
      </trkpt>
      <trkpt lat="46.4792380" lon="6.7694790">
        <ele>501.1</ele>
        <time>2019-02-24T10:40:55Z</time>
      </trkpt>
      <trkpt lat="46.4792150" lon="6.7695170">
        <ele>500.4</ele>
        <time>2019-02-24T10:40:56Z</time>
      </trkpt>
      <trkpt lat="46.4791800" lon="6.7695720">
        <ele>499.5</ele>
        <time>2019-02-24T10:40:57Z</time>
      </trkpt>
      <trkpt lat="46.4791460" lon="6.7696260">
        <ele>498.6</ele>
        <time>2019-02-24T10:40:58Z</time>
      </trkpt>
      <trkpt lat="46.4790970" lon="6.7697090">
        <ele>497.2</ele>
        <time>2019-02-24T10:40:59Z</time>
      </trkpt>
      <trkpt lat="46.4790810" lon="6.7697360">
        <ele>496.8</ele>
        <time>2019-02-24T10:41:00Z</time>
      </trkpt>
      <trkpt lat="46.4790500" lon="6.7697910">
        <ele>496.0</ele>
        <time>2019-02-24T10:41:01Z</time>
      </trkpt>
      <trkpt lat="46.4790190" lon="6.7698460">
        <ele>495.1</ele>
        <time>2019-02-24T10:41:02Z</time>
      </trkpt>
      <trkpt lat="46.4789890" lon="6.7699000">
        <ele>494.2</ele>
        <time>2019-02-24T10:41:03Z</time>
      </trkpt>
      <trkpt lat="46.4789590" lon="6.7699540">
        <ele>493.4</ele>
        <time>2019-02-24T10:41:04Z</time>
      </trkpt>
      <trkpt lat="46.4789280" lon="6.7700070">
        <ele>492.5</ele>
        <time>2019-02-24T10:41:05Z</time>
      </trkpt>
      <trkpt lat="46.4788950" lon="6.7700600">
        <ele>491.3</ele>
        <time>2019-02-24T10:41:06Z</time>
      </trkpt>
      <trkpt lat="46.4788610" lon="6.7701100">
        <ele>490.9</ele>
        <time>2019-02-24T10:41:07Z</time>
      </trkpt>
      <trkpt lat="46.4788250" lon="6.7701600">
        <ele>490.3</ele>
        <time>2019-02-24T10:41:08Z</time>
      </trkpt>
      <trkpt lat="46.4787880" lon="6.7702080">
        <ele>489.8</ele>
        <time>2019-02-24T10:41:09Z</time>
      </trkpt>
      <trkpt lat="46.4787510" lon="6.7702540">
        <ele>489.2</ele>
        <time>2019-02-24T10:41:10Z</time>
      </trkpt>
      <trkpt lat="46.4787150" lon="6.7702980">
        <ele>488.8</ele>
        <time>2019-02-24T10:41:11Z</time>
      </trkpt>
      <trkpt lat="46.4786820" lon="6.7703410">
        <ele>488.2</ele>
        <time>2019-02-24T10:41:12Z</time>
      </trkpt>
      <trkpt lat="46.4786510" lon="6.7703830">
        <ele>487.7</ele>
        <time>2019-02-24T10:41:13Z</time>
      </trkpt>
      <trkpt lat="46.4786210" lon="6.7704250">
        <ele>487.2</ele>
        <time>2019-02-24T10:41:14Z</time>
      </trkpt>
      <trkpt lat="46.4785910" lon="6.7704670">
        <ele>486.8</ele>
        <time>2019-02-24T10:41:15Z</time>
      </trkpt>
      <trkpt lat="46.4785600" lon="6.7705110">
        <ele>486.3</ele>
        <time>2019-02-24T10:41:16Z</time>
      </trkpt>
      <trkpt lat="46.4785300" lon="6.7705550">
        <ele>485.8</ele>
        <time>2019-02-24T10:41:17Z</time>
      </trkpt>
      <trkpt lat="46.4785020" lon="6.7706000">
        <ele>485.1</ele>
        <time>2019-02-24T10:41:18Z</time>
      </trkpt>
      <trkpt lat="46.4784770" lon="6.7706440">
        <ele>484.4</ele>
        <time>2019-02-24T10:41:19Z</time>
      </trkpt>
      <trkpt lat="46.4784550" lon="6.7706860">
        <ele>483.8</ele>
        <time>2019-02-24T10:41:20Z</time>
      </trkpt>
      <trkpt lat="46.4784380" lon="6.7707250">
        <ele>483.3</ele>
        <time>2019-02-24T10:41:21Z</time>
      </trkpt>
      <trkpt lat="46.4784280" lon="6.7707620">
        <ele>485.3</ele>
        <time>2019-02-24T10:41:22Z</time>
      </trkpt>
      <trkpt lat="46.4784240" lon="6.7707950">
        <ele>485.7</ele>
        <time>2019-02-24T10:41:23Z</time>
      </trkpt>
      <trkpt lat="46.4784290" lon="6.7708240">
        <ele>486.0</ele>
        <time>2019-02-24T10:41:24Z</time>
      </trkpt>
      <trkpt lat="46.4784410" lon="6.7708530">
        <ele>486.4</ele>
        <time>2019-02-24T10:41:25Z</time>
      </trkpt>
      <trkpt lat="46.4784590" lon="6.7708840">
        <ele>486.9</ele>
        <time>2019-02-24T10:41:26Z</time>
      </trkpt>
      <trkpt lat="46.4784830" lon="6.7709220">
        <ele>487.4</ele>
        <time>2019-02-24T10:41:27Z</time>
      </trkpt>
      <trkpt lat="46.4785110" lon="6.7709710">
        <ele>488.2</ele>
        <time>2019-02-24T10:41:28Z</time>
      </trkpt>
      <trkpt lat="46.4785440" lon="6.7710300">
        <ele>489.0</ele>
        <time>2019-02-24T10:41:29Z</time>
      </trkpt>
      <trkpt lat="46.4785810" lon="6.7710980">
        <ele>490.7</ele>
        <time>2019-02-24T10:41:30Z</time>
      </trkpt>
      <trkpt lat="46.4786230" lon="6.7711760">
        <ele>492.3</ele>
        <time>2019-02-24T10:41:31Z</time>
      </trkpt>
      <trkpt lat="46.4786700" lon="6.7712620">
        <ele>493.9</ele>
        <time>2019-02-24T10:41:32Z</time>
      </trkpt>
      <trkpt lat="46.4787190" lon="6.7713510">
        <ele>495.5</ele>
        <time>2019-02-24T10:41:33Z</time>
      </trkpt>
      <trkpt lat="46.4787680" lon="6.7714390">
        <ele>496.9</ele>
        <time>2019-02-24T10:41:34Z</time>
      </trkpt>
      <trkpt lat="46.4788150" lon="6.7715200">
        <ele>498.2</ele>
        <time>2019-02-24T10:41:35Z</time>
      </trkpt>
      <trkpt lat="46.4788560" lon="6.7715910">
        <ele>499.3</ele>
        <time>2019-02-24T10:41:36Z</time>
      </trkpt>
      <trkpt lat="46.4788930" lon="6.7716510">
        <ele>500.5</ele>
        <time>2019-02-24T10:41:37Z</time>
      </trkpt>
      <trkpt lat="46.4789240" lon="6.7717020">
        <ele>501.6</ele>
        <time>2019-02-24T10:41:38Z</time>
      </trkpt>
      <trkpt lat="46.4789510" lon="6.7717460">
        <ele>502.5</ele>
        <time>2019-02-24T10:41:39Z</time>
      </trkpt>
      <trkpt lat="46.4789730" lon="6.7717830">
        <ele>503.2</ele>
        <time>2019-02-24T10:41:40Z</time>
      </trkpt>
      <trkpt lat="46.4789910" lon="6.7718160">
        <ele>503.8</ele>
        <time>2019-02-24T10:41:41Z</time>
      </trkpt>
      <trkpt lat="46.4790070" lon="6.7718460">
        <ele>504.3</ele>
        <time>2019-02-24T10:41:42Z</time>
      </trkpt>
      <trkpt lat="46.4790210" lon="6.7718720">
        <ele>504.7</ele>
        <time>2019-02-24T10:41:43Z</time>
      </trkpt>
      <trkpt lat="46.4790340" lon="6.7718960">
        <ele>505.1</ele>
        <time>2019-02-24T10:41:44Z</time>
      </trkpt>
      <trkpt lat="46.4790470" lon="6.7719190">
        <ele>505.4</ele>
        <time>2019-02-24T10:41:45Z</time>
      </trkpt>
      <trkpt lat="46.4790580" lon="6.7719420">
        <ele>505.8</ele>
        <time>2019-02-24T10:41:46Z</time>
      </trkpt>
      <trkpt lat="46.4790680" lon="6.7719660">
        <ele>506.1</ele>
        <time>2019-02-24T10:41:47Z</time>
      </trkpt>
      <trkpt lat="46.4790760" lon="6.7719920">
        <ele>506.4</ele>
        <time>2019-02-24T10:41:48Z</time>
      </trkpt>
      <trkpt lat="46.4790820" lon="6.7720190">
        <ele>506.8</ele>
        <time>2019-02-24T10:41:49Z</time>
      </trkpt>
      <trkpt lat="46.4790860" lon="6.7720470">
        <ele>507.1</ele>
        <time>2019-02-24T10:41:50Z</time>
      </trkpt>
      <trkpt lat="46.4790890" lon="6.7720760">
        <ele>507.4</ele>
        <time>2019-02-24T10:41:51Z</time>
      </trkpt>
      <trkpt lat="46.4790900" lon="6.7721070">
        <ele>507.8</ele>
        <time>2019-02-24T10:41:52Z</time>
      </trkpt>
      <trkpt lat="46.4790880" lon="6.7721380">
        <ele>508.1</ele>
        <time>2019-02-24T10:41:53Z</time>
      </trkpt>
      <trkpt lat="46.4790850" lon="6.7721690">
        <ele>508.5</ele>
        <time>2019-02-24T10:41:54Z</time>
      </trkpt>
      <trkpt lat="46.4790810" lon="6.7722010">
        <ele>508.8</ele>
        <time>2019-02-24T10:41:55Z</time>
      </trkpt>
      <trkpt lat="46.4790740" lon="6.7722330">
        <ele>509.2</ele>
        <time>2019-02-24T10:41:56Z</time>
      </trkpt>
      <trkpt lat="46.4790660" lon="6.7722660">
        <ele>509.6</ele>
        <time>2019-02-24T10:41:57Z</time>
      </trkpt>
      <trkpt lat="46.4790550" lon="6.7723000">
        <ele>510.0</ele>
        <time>2019-02-24T10:41:58Z</time>
      </trkpt>
      <trkpt lat="46.4790430" lon="6.7723360">
        <ele>510.4</ele>
        <time>2019-02-24T10:41:59Z</time>
      </trkpt>
      <trkpt lat="46.4790290" lon="6.7723750">
        <ele>510.8</ele>
        <time>2019-02-24T10:42:00Z</time>
      </trkpt>
      <trkpt lat="46.4790120" lon="6.7724170">
        <ele>511.3</ele>
        <time>2019-02-24T10:42:01Z</time>
      </trkpt>
      <trkpt lat="46.4789940" lon="6.7724630">
        <ele>511.9</ele>
        <time>2019-02-24T10:42:02Z</time>
      </trkpt>
      <trkpt lat="46.4789730" lon="6.7725140">
        <ele>512.6</ele>
        <time>2019-02-24T10:42:03Z</time>
      </trkpt>
      <trkpt lat="46.4789500" lon="6.7725700">
        <ele>513.4</ele>
        <time>2019-02-24T10:42:04Z</time>
      </trkpt>
      <trkpt lat="46.4789250" lon="6.7726320">
        <ele>514.2</ele>
        <time>2019-02-24T10:42:05Z</time>
      </trkpt>
      <trkpt lat="46.4788990" lon="6.7727000">
        <ele>515.1</ele>
        <time>2019-02-24T10:42:06Z</time>
      </trkpt>
      <trkpt lat="46.4788710" lon="6.7727740">
        <ele>516.1</ele>
        <time>2019-02-24T10:42:07Z</time>
      </trkpt>
      <trkpt lat="46.4788430" lon="6.7728530">
        <ele>517.1</ele>
        <time>2019-02-24T10:42:08Z</time>
      </trkpt>
      <trkpt lat="46.4788140" lon="6.7729360">
        <ele>518.5</ele>
        <time>2019-02-24T10:42:09Z</time>
      </trkpt>
      <trkpt lat="46.4787840" lon="6.7730180">
        <ele>520.0</ele>
        <time>2019-02-24T10:42:10Z</time>
      </trkpt>
      <trkpt lat="46.4787530" lon="6.7730960">
        <ele>520.3</ele>
        <time>2019-02-24T10:42:11Z</time>
      </trkpt>
      <trkpt lat="46.4787210" lon="6.7731690">
        <ele>520.2</ele>
        <time>2019-02-24T10:42:12Z</time>
      </trkpt>
      <trkpt lat="46.4786910" lon="6.7732380">
        <ele>520.1</ele>
        <time>2019-02-24T10:42:13Z</time>
      </trkpt>
      <trkpt lat="46.4786630" lon="6.7733050">
        <ele>520.0</ele>
        <time>2019-02-24T10:42:14Z</time>
      </trkpt>
      <trkpt lat="46.4786420" lon="6.7733730">
        <ele>519.8</ele>
        <time>2019-02-24T10:42:15Z</time>
      </trkpt>
      <trkpt lat="46.4786270" lon="6.7734440">
        <ele>519.8</ele>
        <time>2019-02-24T10:42:16Z</time>
      </trkpt>
      <trkpt lat="46.4786180" lon="6.7735140">
        <ele>519.7</ele>
        <time>2019-02-24T10:42:17Z</time>
      </trkpt>
      <trkpt lat="46.4786140" lon="6.7735830">
        <ele>519.6</ele>
        <time>2019-02-24T10:42:18Z</time>
      </trkpt>
      <trkpt lat="46.4786120" lon="6.7736470">
        <ele>519.6</ele>
        <time>2019-02-24T10:42:19Z</time>
      </trkpt>
      <trkpt lat="46.4786110" lon="6.7737050">
        <ele>519.5</ele>
        <time>2019-02-24T10:42:20Z</time>
      </trkpt>
      <trkpt lat="46.4786110" lon="6.7737560">
        <ele>519.5</ele>
        <time>2019-02-24T10:42:21Z</time>
      </trkpt>
      <trkpt lat="46.4786110" lon="6.7738010">
        <ele>519.4</ele>
        <time>2019-02-24T10:42:22Z</time>
      </trkpt>
      <trkpt lat="46.4786110" lon="6.7738420">
        <ele>519.4</ele>
        <time>2019-02-24T10:42:23Z</time>
      </trkpt>
      <trkpt lat="46.4786110" lon="6.7738790">
        <ele>519.3</ele>
        <time>2019-02-24T10:42:24Z</time>
      </trkpt>
      <trkpt lat="46.4786120" lon="6.7739130">
        <ele>519.3</ele>
        <time>2019-02-24T10:42:25Z</time>
      </trkpt>
      <trkpt lat="46.4786130" lon="6.7739450">
        <ele>519.2</ele>
        <time>2019-02-24T10:42:26Z</time>
      </trkpt>
      <trkpt lat="46.4786130" lon="6.7739760">
        <ele>519.2</ele>
        <time>2019-02-24T10:42:27Z</time>
      </trkpt>
      <trkpt lat="46.4786130" lon="6.7740070">
        <ele>519.2</ele>
        <time>2019-02-24T10:42:28Z</time>
      </trkpt>
      <trkpt lat="46.4786130" lon="6.7740380">
        <ele>519.1</ele>
        <time>2019-02-24T10:42:29Z</time>
      </trkpt>
      <trkpt lat="46.4786130" lon="6.7740690">
        <ele>519.1</ele>
        <time>2019-02-24T10:42:30Z</time>
      </trkpt>
      <trkpt lat="46.4786130" lon="6.7741000">
        <ele>519.1</ele>
        <time>2019-02-24T10:42:31Z</time>
      </trkpt>
      <trkpt lat="46.4786140" lon="6.7741300">
        <ele>519.0</ele>
        <time>2019-02-24T10:42:32Z</time>
      </trkpt>
      <trkpt lat="46.4786140" lon="6.7741610">
        <ele>519.0</ele>
        <time>2019-02-24T10:42:33Z</time>
      </trkpt>
      <trkpt lat="46.4786150" lon="6.7741920">
        <ele>519.0</ele>
        <time>2019-02-24T10:42:34Z</time>
      </trkpt>
      <trkpt lat="46.4786160" lon="6.7742230">
        <ele>518.9</ele>
        <time>2019-02-24T10:42:35Z</time>
      </trkpt>
      <trkpt lat="46.4786180" lon="6.7742550">
        <ele>518.9</ele>
        <time>2019-02-24T10:42:36Z</time>
      </trkpt>
      <trkpt lat="46.4786200" lon="6.7742860">
        <ele>518.8</ele>
        <time>2019-02-24T10:42:37Z</time>
      </trkpt>
      <trkpt lat="46.4786230" lon="6.7743170">
        <ele>518.8</ele>
        <time>2019-02-24T10:42:38Z</time>
      </trkpt>
      <trkpt lat="46.4786250" lon="6.7743480">
        <ele>518.7</ele>
        <time>2019-02-24T10:42:39Z</time>
      </trkpt>
      <trkpt lat="46.4786280" lon="6.7743790">
        <ele>518.7</ele>
        <time>2019-02-24T10:42:40Z</time>
      </trkpt>
      <trkpt lat="46.4786290" lon="6.7744090">
        <ele>518.6</ele>
        <time>2019-02-24T10:42:41Z</time>
      </trkpt>
      <trkpt lat="46.4786310" lon="6.7744390">
        <ele>518.6</ele>
        <time>2019-02-24T10:42:42Z</time>
      </trkpt>
      <trkpt lat="46.4786310" lon="6.7744690">
        <ele>518.5</ele>
        <time>2019-02-24T10:42:43Z</time>
      </trkpt>
      <trkpt lat="46.4786300" lon="6.7744980">
        <ele>518.5</ele>
        <time>2019-02-24T10:42:44Z</time>
      </trkpt>
      <trkpt lat="46.4786280" lon="6.7745260">
        <ele>518.4</ele>
        <time>2019-02-24T10:42:45Z</time>
      </trkpt>
      <trkpt lat="46.4786250" lon="6.7745540">
        <ele>518.4</ele>
        <time>2019-02-24T10:42:46Z</time>
      </trkpt>
      <trkpt lat="46.4786230" lon="6.7745840">
        <ele>518.4</ele>
        <time>2019-02-24T10:42:47Z</time>
      </trkpt>
      <trkpt lat="46.4786200" lon="6.7746150">
        <ele>518.3</ele>
        <time>2019-02-24T10:42:48Z</time>
      </trkpt>
      <trkpt lat="46.4786190" lon="6.7746500">
        <ele>518.3</ele>
        <time>2019-02-24T10:42:49Z</time>
      </trkpt>
      <trkpt lat="46.4786200" lon="6.7746890">
        <ele>518.2</ele>
        <time>2019-02-24T10:42:50Z</time>
      </trkpt>
      <trkpt lat="46.4786290" lon="6.7747680">
        <ele>518.1</ele>
        <time>2019-02-24T10:42:51Z</time>
      </trkpt>
      <trkpt lat="46.4786340" lon="6.7748040">
        <ele>518.1</ele>
        <time>2019-02-24T10:42:52Z</time>
      </trkpt>
      <trkpt lat="46.4786390" lon="6.7748390">
        <ele>518.0</ele>
        <time>2019-02-24T10:42:53Z</time>
      </trkpt>
      <trkpt lat="46.4786510" lon="6.7748980">
        <ele>517.9</ele>
        <time>2019-02-24T10:42:54Z</time>
      </trkpt>
      <trkpt lat="46.4786630" lon="6.7749550">
        <ele>517.9</ele>
        <time>2019-02-24T10:42:55Z</time>
      </trkpt>
      <trkpt lat="46.4786740" lon="6.7750080">
        <ele>517.8</ele>
        <time>2019-02-24T10:42:56Z</time>
      </trkpt>
      <trkpt lat="46.4786830" lon="6.7750510">
        <ele>517.7</ele>
        <time>2019-02-24T10:42:57Z</time>
      </trkpt>
      <trkpt lat="46.4786910" lon="6.7750870">
        <ele>517.6</ele>
        <time>2019-02-24T10:42:58Z</time>
      </trkpt>
      <trkpt lat="46.4786990" lon="6.7751170">
        <ele>517.6</ele>
        <time>2019-02-24T10:42:59Z</time>
      </trkpt>
      <trkpt lat="46.4787110" lon="6.7751420">
        <ele>517.5</ele>
        <time>2019-02-24T10:43:00Z</time>
      </trkpt>
      <trkpt lat="46.4787270" lon="6.7751640">
        <ele>517.5</ele>
        <time>2019-02-24T10:43:01Z</time>
      </trkpt>
      <trkpt lat="46.4787470" lon="6.7751840">
        <ele>517.4</ele>
        <time>2019-02-24T10:43:02Z</time>
      </trkpt>
      <trkpt lat="46.4787690" lon="6.7752030">
        <ele>517.4</ele>
        <time>2019-02-24T10:43:03Z</time>
      </trkpt>
      <trkpt lat="46.4787920" lon="6.7752200">
        <ele>517.3</ele>
        <time>2019-02-24T10:43:04Z</time>
      </trkpt>
      <trkpt lat="46.4788150" lon="6.7752380">
        <ele>517.3</ele>
        <time>2019-02-24T10:43:05Z</time>
      </trkpt>
      <trkpt lat="46.4788380" lon="6.7752550">
        <ele>517.2</ele>
        <time>2019-02-24T10:43:06Z</time>
      </trkpt>
      <trkpt lat="46.4788580" lon="6.7752730">
        <ele>517.2</ele>
        <time>2019-02-24T10:43:07Z</time>
      </trkpt>
      <trkpt lat="46.4788750" lon="6.7752930">
        <ele>517.1</ele>
        <time>2019-02-24T10:43:08Z</time>
      </trkpt>
      <trkpt lat="46.4788880" lon="6.7753150">
        <ele>517.1</ele>
        <time>2019-02-24T10:43:09Z</time>
      </trkpt>
      <trkpt lat="46.4788970" lon="6.7753400">
        <ele>517.1</ele>
        <time>2019-02-24T10:43:10Z</time>
      </trkpt>
      <trkpt lat="46.4789030" lon="6.7753660">
        <ele>517.0</ele>
        <time>2019-02-24T10:43:11Z</time>
      </trkpt>
      <trkpt lat="46.4789070" lon="6.7753940">
        <ele>517.0</ele>
        <time>2019-02-24T10:43:12Z</time>
      </trkpt>
      <trkpt lat="46.4789110" lon="6.7754240">
        <ele>517.0</ele>
        <time>2019-02-24T10:43:13Z</time>
      </trkpt>
      <trkpt lat="46.4789150" lon="6.7754540">
        <ele>516.9</ele>
        <time>2019-02-24T10:43:14Z</time>
      </trkpt>
      <trkpt lat="46.4789200" lon="6.7754840">
        <ele>516.9</ele>
        <time>2019-02-24T10:43:15Z</time>
      </trkpt>
      <trkpt lat="46.4789280" lon="6.7755110">
        <ele>516.8</ele>
        <time>2019-02-24T10:43:16Z</time>
      </trkpt>
      <trkpt lat="46.4789390" lon="6.7755340">
        <ele>516.8</ele>
        <time>2019-02-24T10:43:17Z</time>
      </trkpt>
      <trkpt lat="46.4789540" lon="6.7755550">
        <ele>516.8</ele>
        <time>2019-02-24T10:43:18Z</time>
      </trkpt>
      <trkpt lat="46.4789700" lon="6.7755750">
        <ele>516.8</ele>
        <time>2019-02-24T10:43:19Z</time>
      </trkpt>
      <trkpt lat="46.4789860" lon="6.7755950">
        <ele>516.7</ele>
        <time>2019-02-24T10:43:20Z</time>
      </trkpt>
      <trkpt lat="46.4790020" lon="6.7756180">
        <ele>516.7</ele>
        <time>2019-02-24T10:43:21Z</time>
      </trkpt>
      <trkpt lat="46.4790180" lon="6.7756420">
        <ele>516.6</ele>
        <time>2019-02-24T10:43:22Z</time>
      </trkpt>
      <trkpt lat="46.4790330" lon="6.7756670">
        <ele>516.6</ele>
        <time>2019-02-24T10:43:23Z</time>
      </trkpt>
      <trkpt lat="46.4790480" lon="6.7756930">
        <ele>516.6</ele>
        <time>2019-02-24T10:43:24Z</time>
      </trkpt>
      <trkpt lat="46.4790630" lon="6.7757190">
        <ele>516.5</ele>
        <time>2019-02-24T10:43:25Z</time>
      </trkpt>
      <trkpt lat="46.4790770" lon="6.7757450">
        <ele>516.5</ele>
        <time>2019-02-24T10:43:26Z</time>
      </trkpt>
      <trkpt lat="46.4790910" lon="6.7757710">
        <ele>516.4</ele>
        <time>2019-02-24T10:43:27Z</time>
      </trkpt>
      <trkpt lat="46.4791020" lon="6.7757970">
        <ele>516.4</ele>
        <time>2019-02-24T10:43:28Z</time>
      </trkpt>
      <trkpt lat="46.4791120" lon="6.7758220">
        <ele>516.3</ele>
        <time>2019-02-24T10:43:29Z</time>
      </trkpt>
      <trkpt lat="46.4791190" lon="6.7758480">
        <ele>516.2</ele>
        <time>2019-02-24T10:43:30Z</time>
      </trkpt>
      <trkpt lat="46.4791220" lon="6.7758730">
        <ele>516.1</ele>
        <time>2019-02-24T10:43:31Z</time>
      </trkpt>
      <trkpt lat="46.4791220" lon="6.7758980">
        <ele>516.0</ele>
        <time>2019-02-24T10:43:32Z</time>
      </trkpt>
      <trkpt lat="46.4791180" lon="6.7759220">
        <ele>516.0</ele>
        <time>2019-02-24T10:43:33Z</time>
      </trkpt>
      <trkpt lat="46.4791110" lon="6.7759470">
        <ele>515.9</ele>
        <time>2019-02-24T10:43:34Z</time>
      </trkpt>
      <trkpt lat="46.4791030" lon="6.7759720">
        <ele>515.7</ele>
        <time>2019-02-24T10:43:35Z</time>
      </trkpt>
      <trkpt lat="46.4790950" lon="6.7759970">
        <ele>515.6</ele>
        <time>2019-02-24T10:43:36Z</time>
      </trkpt>
      <trkpt lat="46.4790890" lon="6.7760220">
        <ele>515.5</ele>
        <time>2019-02-24T10:43:37Z</time>
      </trkpt>
      <trkpt lat="46.4790850" lon="6.7760470">
        <ele>515.4</ele>
        <time>2019-02-24T10:43:38Z</time>
      </trkpt>
      <trkpt lat="46.4790800" lon="6.7760720">
        <ele>515.3</ele>
        <time>2019-02-24T10:43:39Z</time>
      </trkpt>
      <trkpt lat="46.4790750" lon="6.7760960">
        <ele>514.8</ele>
        <time>2019-02-24T10:43:40Z</time>
      </trkpt>
      <trkpt lat="46.4790690" lon="6.7761190">
        <ele>514.7</ele>
        <time>2019-02-24T10:43:41Z</time>
      </trkpt>
      <trkpt lat="46.4790610" lon="6.7761400">
        <ele>514.5</ele>
        <time>2019-02-24T10:43:42Z</time>
      </trkpt>
      <trkpt lat="46.4790520" lon="6.7761600">
        <ele>514.4</ele>
        <time>2019-02-24T10:43:43Z</time>
      </trkpt>
      <trkpt lat="46.4790420" lon="6.7761780">
        <ele>514.2</ele>
        <time>2019-02-24T10:43:44Z</time>
      </trkpt>
      <trkpt lat="46.4790310" lon="6.7761940">
        <ele>514.1</ele>
        <time>2019-02-24T10:43:45Z</time>
      </trkpt>
      <trkpt lat="46.4790190" lon="6.7762090">
        <ele>513.9</ele>
        <time>2019-02-24T10:43:46Z</time>
      </trkpt>
      <trkpt lat="46.4790060" lon="6.7762230">
        <ele>513.7</ele>
        <time>2019-02-24T10:43:47Z</time>
      </trkpt>
      <trkpt lat="46.4789920" lon="6.7762340">
        <ele>513.5</ele>
        <time>2019-02-24T10:43:48Z</time>
      </trkpt>
      <trkpt lat="46.4789780" lon="6.7762430">
        <ele>513.3</ele>
        <time>2019-02-24T10:43:49Z</time>
      </trkpt>
      <trkpt lat="46.4789630" lon="6.7762510">
        <ele>513.1</ele>
        <time>2019-02-24T10:43:50Z</time>
      </trkpt>
      <trkpt lat="46.4789480" lon="6.7762570">
        <ele>512.9</ele>
        <time>2019-02-24T10:43:51Z</time>
      </trkpt>
      <trkpt lat="46.4789330" lon="6.7762600">
        <ele>512.7</ele>
        <time>2019-02-24T10:43:52Z</time>
      </trkpt>
      <trkpt lat="46.4789180" lon="6.7762620">
        <ele>512.5</ele>
        <time>2019-02-24T10:43:53Z</time>
      </trkpt>
      <trkpt lat="46.4789030" lon="6.7762620">
        <ele>512.3</ele>
        <time>2019-02-24T10:43:54Z</time>
      </trkpt>
      <trkpt lat="46.4788890" lon="6.7762590">
        <ele>512.1</ele>
        <time>2019-02-24T10:43:55Z</time>
      </trkpt>
      <trkpt lat="46.4788740" lon="6.7762540">
        <ele>511.9</ele>
        <time>2019-02-24T10:43:56Z</time>
      </trkpt>
      <trkpt lat="46.4788600" lon="6.7762470">
        <ele>511.7</ele>
        <time>2019-02-24T10:43:57Z</time>
      </trkpt>
      <trkpt lat="46.4788470" lon="6.7762380">
        <ele>511.5</ele>
        <time>2019-02-24T10:43:58Z</time>
      </trkpt>
      <trkpt lat="46.4788330" lon="6.7762280">
        <ele>511.3</ele>
        <time>2019-02-24T10:43:59Z</time>
      </trkpt>
      <trkpt lat="46.4788190" lon="6.7762180">
        <ele>511.1</ele>
        <time>2019-02-24T10:44:00Z</time>
      </trkpt>
      <trkpt lat="46.4788050" lon="6.7762070">
        <ele>510.8</ele>
        <time>2019-02-24T10:44:01Z</time>
      </trkpt>
      <trkpt lat="46.4787910" lon="6.7761980">
        <ele>510.6</ele>
        <time>2019-02-24T10:44:02Z</time>
      </trkpt>
      <trkpt lat="46.4787750" lon="6.7761900">
        <ele>510.3</ele>
        <time>2019-02-24T10:44:03Z</time>
      </trkpt>
      <trkpt lat="46.4787590" lon="6.7761830">
        <ele>509.9</ele>
        <time>2019-02-24T10:44:04Z</time>
      </trkpt>
      <trkpt lat="46.4787420" lon="6.7761800">
        <ele>509.6</ele>
        <time>2019-02-24T10:44:05Z</time>
      </trkpt>
      <trkpt lat="46.4787230" lon="6.7761790">
        <ele>509.3</ele>
        <time>2019-02-24T10:44:06Z</time>
      </trkpt>
      <trkpt lat="46.4787050" lon="6.7761810">
        <ele>508.9</ele>
        <time>2019-02-24T10:44:07Z</time>
      </trkpt>
      <trkpt lat="46.4786870" lon="6.7761860">
        <ele>508.6</ele>
        <time>2019-02-24T10:44:08Z</time>
      </trkpt>
      <trkpt lat="46.4786690" lon="6.7761940">
        <ele>508.3</ele>
        <time>2019-02-24T10:44:09Z</time>
      </trkpt>
      <trkpt lat="46.4786520" lon="6.7762070">
        <ele>507.9</ele>
        <time>2019-02-24T10:44:10Z</time>
      </trkpt>
      <trkpt lat="46.4786370" lon="6.7762230">
        <ele>507.6</ele>
        <time>2019-02-24T10:44:11Z</time>
      </trkpt>
      <trkpt lat="46.4786240" lon="6.7762440">
        <ele>507.1</ele>
        <time>2019-02-24T10:44:12Z</time>
      </trkpt>
      <trkpt lat="46.4786120" lon="6.7762680">
        <ele>506.5</ele>
        <time>2019-02-24T10:44:13Z</time>
      </trkpt>
      <trkpt lat="46.4786040" lon="6.7762970">
        <ele>505.9</ele>
        <time>2019-02-24T10:44:14Z</time>
      </trkpt>
      <trkpt lat="46.4785970" lon="6.7763280">
        <ele>505.8</ele>
        <time>2019-02-24T10:44:15Z</time>
      </trkpt>
      <trkpt lat="46.4785930" lon="6.7763610">
        <ele>505.8</ele>
        <time>2019-02-24T10:44:16Z</time>
      </trkpt>
      <trkpt lat="46.4785910" lon="6.7763960">
        <ele>505.8</ele>
        <time>2019-02-24T10:44:17Z</time>
      </trkpt>
      <trkpt lat="46.4785910" lon="6.7764310">
        <ele>505.8</ele>
        <time>2019-02-24T10:44:18Z</time>
      </trkpt>
      <trkpt lat="46.4785930" lon="6.7764650">
        <ele>505.8</ele>
        <time>2019-02-24T10:44:19Z</time>
      </trkpt>
      <trkpt lat="46.4785970" lon="6.7764990">
        <ele>505.8</ele>
        <time>2019-02-24T10:44:20Z</time>
      </trkpt>
      <trkpt lat="46.4786030" lon="6.7765320">
        <ele>505.8</ele>
        <time>2019-02-24T10:44:21Z</time>
      </trkpt>
      <trkpt lat="46.4786110" lon="6.7765640">
        <ele>505.9</ele>
        <time>2019-02-24T10:44:22Z</time>
      </trkpt>
      <trkpt lat="46.4786200" lon="6.7765980">
        <ele>505.9</ele>
        <time>2019-02-24T10:44:23Z</time>
      </trkpt>
      <trkpt lat="46.4786300" lon="6.7766360">
        <ele>506.0</ele>
        <time>2019-02-24T10:44:24Z</time>
      </trkpt>
      <trkpt lat="46.4786410" lon="6.7766800">
        <ele>506.1</ele>
        <time>2019-02-24T10:44:25Z</time>
      </trkpt>
      <trkpt lat="46.4786530" lon="6.7767290">
        <ele>506.3</ele>
        <time>2019-02-24T10:44:26Z</time>
      </trkpt>
      <trkpt lat="46.4786650" lon="6.7767840">
        <ele>506.5</ele>
        <time>2019-02-24T10:44:27Z</time>
      </trkpt>
      <trkpt lat="46.4786780" lon="6.7768450">
        <ele>506.7</ele>
        <time>2019-02-24T10:44:28Z</time>
      </trkpt>
      <trkpt lat="46.4786910" lon="6.7769110">
        <ele>507.0</ele>
        <time>2019-02-24T10:44:29Z</time>
      </trkpt>
      <trkpt lat="46.4787050" lon="6.7769820">
        <ele>507.3</ele>
        <time>2019-02-24T10:44:30Z</time>
      </trkpt>
      <trkpt lat="46.4787180" lon="6.7770580">
        <ele>507.7</ele>
        <time>2019-02-24T10:44:31Z</time>
      </trkpt>
      <trkpt lat="46.4787320" lon="6.7771370">
        <ele>508.1</ele>
        <time>2019-02-24T10:44:32Z</time>
      </trkpt>
      <trkpt lat="46.4787450" lon="6.7772200">
        <ele>508.5</ele>
        <time>2019-02-24T10:44:33Z</time>
      </trkpt>
      <trkpt lat="46.4787570" lon="6.7773050">
        <ele>508.9</ele>
        <time>2019-02-24T10:44:34Z</time>
      </trkpt>
      <trkpt lat="46.4787690" lon="6.7773920">
        <ele>509.4</ele>
        <time>2019-02-24T10:44:35Z</time>
      </trkpt>
      <trkpt lat="46.4787790" lon="6.7774800">
        <ele>510.0</ele>
        <time>2019-02-24T10:44:36Z</time>
      </trkpt>
      <trkpt lat="46.4787890" lon="6.7775700">
        <ele>510.7</ele>
        <time>2019-02-24T10:44:37Z</time>
      </trkpt>
      <trkpt lat="46.4787970" lon="6.7776590">
        <ele>511.4</ele>
        <time>2019-02-24T10:44:38Z</time>
      </trkpt>
      <trkpt lat="46.4788040" lon="6.7777490">
        <ele>512.3</ele>
        <time>2019-02-24T10:44:39Z</time>
      </trkpt>
      <trkpt lat="46.4788110" lon="6.7778380">
        <ele>513.1</ele>
        <time>2019-02-24T10:44:40Z</time>
      </trkpt>
      <trkpt lat="46.4788170" lon="6.7779260">
        <ele>514.1</ele>
        <time>2019-02-24T10:44:41Z</time>
      </trkpt>
      <trkpt lat="46.4788220" lon="6.7780130">
        <ele>515.1</ele>
        <time>2019-02-24T10:44:42Z</time>
      </trkpt>
      <trkpt lat="46.4788280" lon="6.7780980">
        <ele>515.7</ele>
        <time>2019-02-24T10:44:43Z</time>
      </trkpt>
      <trkpt lat="46.4788330" lon="6.7781810">
        <ele>516.0</ele>
        <time>2019-02-24T10:44:44Z</time>
      </trkpt>
      <trkpt lat="46.4788380" lon="6.7782620">
        <ele>516.3</ele>
        <time>2019-02-24T10:44:45Z</time>
      </trkpt>
      <trkpt lat="46.4788460" lon="6.7783900">
        <ele>516.8</ele>
        <time>2019-02-24T10:44:46Z</time>
      </trkpt>
      <trkpt lat="46.4788500" lon="6.7784390">
        <ele>517.0</ele>
        <time>2019-02-24T10:44:47Z</time>
      </trkpt>
      <trkpt lat="46.4788530" lon="6.7784890">
        <ele>517.2</ele>
        <time>2019-02-24T10:44:48Z</time>
      </trkpt>
      <trkpt lat="46.4788580" lon="6.7785600">
        <ele>517.5</ele>
        <time>2019-02-24T10:44:49Z</time>
      </trkpt>
      <trkpt lat="46.4788620" lon="6.7786280">
        <ele>517.8</ele>
        <time>2019-02-24T10:44:50Z</time>
      </trkpt>
      <trkpt lat="46.4788700" lon="6.7787360">
        <ele>518.6</ele>
        <time>2019-02-24T10:44:51Z</time>
      </trkpt>
      <trkpt lat="46.4788720" lon="6.7787780">
        <ele>518.9</ele>
        <time>2019-02-24T10:44:52Z</time>
      </trkpt>
      <trkpt lat="46.4788750" lon="6.7788200">
        <ele>519.3</ele>
        <time>2019-02-24T10:44:53Z</time>
      </trkpt>
      <trkpt lat="46.4788790" lon="6.7788800">
        <ele>519.8</ele>
        <time>2019-02-24T10:44:54Z</time>
      </trkpt>
      <trkpt lat="46.4788820" lon="6.7789360">
        <ele>520.3</ele>
        <time>2019-02-24T10:44:55Z</time>
      </trkpt>
      <trkpt lat="46.4788860" lon="6.7789900">
        <ele>520.9</ele>
        <time>2019-02-24T10:44:56Z</time>
      </trkpt>
      <trkpt lat="46.4788890" lon="6.7790410">
        <ele>521.4</ele>
        <time>2019-02-24T10:44:57Z</time>
      </trkpt>
      <trkpt lat="46.4788920" lon="6.7790880">
        <ele>521.9</ele>
        <time>2019-02-24T10:44:58Z</time>
      </trkpt>
      <trkpt lat="46.4788950" lon="6.7791300">
        <ele>522.4</ele>
        <time>2019-02-24T10:44:59Z</time>
      </trkpt>
      <trkpt lat="46.4788980" lon="6.7791680">
        <ele>522.8</ele>
        <time>2019-02-24T10:45:00Z</time>
      </trkpt>
      <trkpt lat="46.4789010" lon="6.7792010">
        <ele>523.2</ele>
        <time>2019-02-24T10:45:01Z</time>
      </trkpt>
      <trkpt lat="46.4789050" lon="6.7792290">
        <ele>523.5</ele>
        <time>2019-02-24T10:45:02Z</time>
      </trkpt>
      <trkpt lat="46.4789110" lon="6.7792630">
        <ele>523.9</ele>
        <time>2019-02-24T10:45:03Z</time>
      </trkpt>
      <trkpt lat="46.4789140" lon="6.7792740">
        <ele>524.1</ele>
        <time>2019-02-24T10:45:04Z</time>
      </trkpt>
      <trkpt lat="46.4789160" lon="6.7792860">
        <ele>524.2</ele>
        <time>2019-02-24T10:45:05Z</time>
      </trkpt>
      <trkpt lat="46.4789190" lon="6.7792970">
        <ele>524.3</ele>
        <time>2019-02-24T10:45:06Z</time>
      </trkpt>
      <trkpt lat="46.4789240" lon="6.7793100">
        <ele>524.5</ele>
        <time>2019-02-24T10:45:07Z</time>
      </trkpt>
      <trkpt lat="46.4789270" lon="6.7793140">
        <ele>524.6</ele>
        <time>2019-02-24T10:45:08Z</time>
      </trkpt>
      <trkpt lat="46.4789300" lon="6.7793190">
        <ele>524.7</ele>
        <time>2019-02-24T10:45:09Z</time>
      </trkpt>
      <trkpt lat="46.4789330" lon="6.7793240">
        <ele>524.7</ele>
        <time>2019-02-24T10:45:10Z</time>
      </trkpt>
      <trkpt lat="46.4789370" lon="6.7793280">
        <ele>524.8</ele>
        <time>2019-02-24T10:45:11Z</time>
      </trkpt>
      <trkpt lat="46.4789400" lon="6.7793330">
        <ele>524.9</ele>
        <time>2019-02-24T10:45:12Z</time>
      </trkpt>
      <trkpt lat="46.4789430" lon="6.7793380">
        <ele>525.0</ele>
        <time>2019-02-24T10:45:13Z</time>
      </trkpt>
      <trkpt lat="46.4789460" lon="6.7793430">
        <ele>525.1</ele>
        <time>2019-02-24T10:45:14Z</time>
      </trkpt>
      <trkpt lat="46.4789490" lon="6.7793470">
        <ele>525.1</ele>
        <time>2019-02-24T10:45:15Z</time>
      </trkpt>
      <trkpt lat="46.4789520" lon="6.7793520">
        <ele>525.2</ele>
        <time>2019-02-24T10:45:16Z</time>
      </trkpt>
      <trkpt lat="46.4789550" lon="6.7793570">
        <ele>525.3</ele>
        <time>2019-02-24T10:45:17Z</time>
      </trkpt>
      <trkpt lat="46.4789580" lon="6.7793610">
        <ele>525.4</ele>
        <time>2019-02-24T10:45:18Z</time>
      </trkpt>
      <trkpt lat="46.4789610" lon="6.7793660">
        <ele>525.4</ele>
        <time>2019-02-24T10:45:19Z</time>
      </trkpt>
      <trkpt lat="46.4789650" lon="6.7793710">
        <ele>525.5</ele>
        <time>2019-02-24T10:45:20Z</time>
      </trkpt>
      <trkpt lat="46.4789680" lon="6.7793750">
        <ele>525.6</ele>
        <time>2019-02-24T10:45:21Z</time>
      </trkpt>
      <trkpt lat="46.4789710" lon="6.7793800">
        <ele>525.6</ele>
        <time>2019-02-24T10:45:22Z</time>
      </trkpt>
      <trkpt lat="46.4789740" lon="6.7793850">
        <ele>525.7</ele>
        <time>2019-02-24T10:45:23Z</time>
      </trkpt>
      <trkpt lat="46.4789770" lon="6.7793890">
        <ele>525.8</ele>
        <time>2019-02-24T10:45:24Z</time>
      </trkpt>
      <trkpt lat="46.4789800" lon="6.7793940">
        <ele>525.9</ele>
        <time>2019-02-24T10:45:25Z</time>
      </trkpt>
      <trkpt lat="46.4789830" lon="6.7793990">
        <ele>525.9</ele>
        <time>2019-02-24T10:45:26Z</time>
      </trkpt>
      <trkpt lat="46.4789860" lon="6.7794040">
        <ele>526.0</ele>
        <time>2019-02-24T10:45:27Z</time>
      </trkpt>
      <trkpt lat="46.4789890" lon="6.7794080">
        <ele>526.1</ele>
        <time>2019-02-24T10:45:28Z</time>
      </trkpt>
      <trkpt lat="46.4789930" lon="6.7794130">
        <ele>526.1</ele>
        <time>2019-02-24T10:45:29Z</time>
      </trkpt>
      <trkpt lat="46.4789960" lon="6.7794180">
        <ele>526.2</ele>
        <time>2019-02-24T10:45:30Z</time>
      </trkpt>
      <trkpt lat="46.4789990" lon="6.7794220">
        <ele>526.3</ele>
        <time>2019-02-24T10:45:31Z</time>
      </trkpt>
      <trkpt lat="46.4790020" lon="6.7794270">
        <ele>526.4</ele>
        <time>2019-02-24T10:45:32Z</time>
      </trkpt>
      <trkpt lat="46.4790050" lon="6.7794320">
        <ele>526.4</ele>
        <time>2019-02-24T10:45:33Z</time>
      </trkpt>
      <trkpt lat="46.4790080" lon="6.7794360">
        <ele>526.5</ele>
        <time>2019-02-24T10:45:34Z</time>
      </trkpt>
      <trkpt lat="46.4790110" lon="6.7794410">
        <ele>526.6</ele>
        <time>2019-02-24T10:45:35Z</time>
      </trkpt>
      <trkpt lat="46.4790140" lon="6.7794460">
        <ele>526.6</ele>
        <time>2019-02-24T10:45:36Z</time>
      </trkpt>
      <trkpt lat="46.4790170" lon="6.7794510">
        <ele>526.7</ele>
        <time>2019-02-24T10:45:37Z</time>
      </trkpt>
      <trkpt lat="46.4790210" lon="6.7794550">
        <ele>526.8</ele>
        <time>2019-02-24T10:45:38Z</time>
      </trkpt>
      <trkpt lat="46.4790240" lon="6.7794600">
        <ele>526.8</ele>
        <time>2019-02-24T10:45:39Z</time>
      </trkpt>
      <trkpt lat="46.4790270" lon="6.7794650">
        <ele>526.9</ele>
        <time>2019-02-24T10:45:40Z</time>
      </trkpt>
      <trkpt lat="46.4790300" lon="6.7794690">
        <ele>526.9</ele>
        <time>2019-02-24T10:45:41Z</time>
      </trkpt>
      <trkpt lat="46.4790330" lon="6.7794740">
        <ele>527.0</ele>
        <time>2019-02-24T10:45:42Z</time>
      </trkpt>
      <trkpt lat="46.4790640" lon="6.7794920">
        <ele>527.3</ele>
        <time>2019-02-24T10:45:43Z</time>
      </trkpt>
      <trkpt lat="46.4790730" lon="6.7794980">
        <ele>527.4</ele>
        <time>2019-02-24T10:45:44Z</time>
      </trkpt>
      <trkpt lat="46.4790830" lon="6.7795030">
        <ele>527.4</ele>
        <time>2019-02-24T10:45:45Z</time>
      </trkpt>
      <trkpt lat="46.4790920" lon="6.7795090">
        <ele>527.5</ele>
        <time>2019-02-24T10:45:46Z</time>
      </trkpt>
      <trkpt lat="46.4791020" lon="6.7795140">
        <ele>527.6</ele>
        <time>2019-02-24T10:45:47Z</time>
      </trkpt>
      <trkpt lat="46.4791110" lon="6.7795200">
        <ele>527.6</ele>
        <time>2019-02-24T10:45:48Z</time>
      </trkpt>
      <trkpt lat="46.4791330" lon="6.7795300">
        <ele>527.7</ele>
        <time>2019-02-24T10:45:49Z</time>
      </trkpt>
      <trkpt lat="46.4791430" lon="6.7795350">
        <ele>527.8</ele>
        <time>2019-02-24T10:45:50Z</time>
      </trkpt>
      <trkpt lat="46.4791530" lon="6.7795400">
        <ele>527.8</ele>
        <time>2019-02-24T10:45:51Z</time>
      </trkpt>
      <trkpt lat="46.4791630" lon="6.7795450">
        <ele>527.9</ele>
        <time>2019-02-24T10:45:52Z</time>
      </trkpt>
      <trkpt lat="46.4791730" lon="6.7795500">
        <ele>527.9</ele>
        <time>2019-02-24T10:45:53Z</time>
      </trkpt>
      <trkpt lat="46.4791850" lon="6.7795560">
        <ele>528.0</ele>
        <time>2019-02-24T10:45:54Z</time>
      </trkpt>
      <trkpt lat="46.4791960" lon="6.7795610">
        <ele>528.0</ele>
        <time>2019-02-24T10:45:55Z</time>
      </trkpt>
      <trkpt lat="46.4792050" lon="6.7795660">
        <ele>528.1</ele>
        <time>2019-02-24T10:45:56Z</time>
      </trkpt>
      <trkpt lat="46.4792130" lon="6.7795700">
        <ele>528.1</ele>
        <time>2019-02-24T10:45:57Z</time>
      </trkpt>
      <trkpt lat="46.4792180" lon="6.7795730">
        <ele>528.1</ele>
        <time>2019-02-24T10:45:58Z</time>
      </trkpt>
      <trkpt lat="46.4792210" lon="6.7795750">
        <ele>528.1</ele>
        <time>2019-02-24T10:45:59Z</time>
      </trkpt>
      <trkpt lat="46.4792230" lon="6.7795760">
        <ele>528.1</ele>
        <time>2019-02-24T10:46:00Z</time>
      </trkpt>
      <trkpt lat="46.4792230" lon="6.7795760">
        <ele>528.1</ele>
        <time>2019-02-24T10:46:01Z</time>
      </trkpt>
      <trkpt lat="46.4792240" lon="6.7795760">
        <ele>528.1</ele>
        <time>2019-02-24T10:46:02Z</time>
      </trkpt>
      <trkpt lat="46.4792370" lon="6.7795770">
        <ele>528.1</ele>
        <time>2019-02-24T10:46:03Z</time>
      </trkpt>
      <trkpt lat="46.4792540" lon="6.7795750">
        <ele>528.2</ele>
        <time>2019-02-24T10:46:04Z</time>
      </trkpt>
      <trkpt lat="46.4792720" lon="6.7795740">
        <ele>528.2</ele>
        <time>2019-02-24T10:46:05Z</time>
      </trkpt>
      <trkpt lat="46.4792890" lon="6.7795760">
        <ele>528.2</ele>
        <time>2019-02-24T10:46:06Z</time>
      </trkpt>
      <trkpt lat="46.4793070" lon="6.7795820">
        <ele>528.2</ele>
        <time>2019-02-24T10:46:07Z</time>
      </trkpt>
      <trkpt lat="46.4793230" lon="6.7795900">
        <ele>528.2</ele>
        <time>2019-02-24T10:46:08Z</time>
      </trkpt>
      <trkpt lat="46.4793370" lon="6.7796000">
        <ele>528.2</ele>
        <time>2019-02-24T10:46:09Z</time>
      </trkpt>
      <trkpt lat="46.4793500" lon="6.7796090">
        <ele>528.1</ele>
        <time>2019-02-24T10:46:10Z</time>
      </trkpt>
      <trkpt lat="46.4793590" lon="6.7796170">
        <ele>528.1</ele>
        <time>2019-02-24T10:46:11Z</time>
      </trkpt>
      <trkpt lat="46.4793670" lon="6.7796220">
        <ele>528.1</ele>
        <time>2019-02-24T10:46:12Z</time>
      </trkpt>
      <trkpt lat="46.4793700" lon="6.7796230">
        <ele>528.1</ele>
        <time>2019-02-24T10:46:13Z</time>
      </trkpt>
      <trkpt lat="46.4793710" lon="6.7796200">
        <ele>528.1</ele>
        <time>2019-02-24T10:46:14Z</time>
      </trkpt>
      <trkpt lat="46.4793700" lon="6.7796160">
        <ele>528.1</ele>
        <time>2019-02-24T10:46:15Z</time>
      </trkpt>
      <trkpt lat="46.4793700" lon="6.7796160">
        <ele>528.1</ele>
        <time>2019-02-24T10:46:16Z</time>
      </trkpt>
      <trkpt lat="46.4793730" lon="6.7796250">
        <ele>528.1</ele>
        <time>2019-02-24T10:46:17Z</time>
      </trkpt>
      <trkpt lat="46.4793820" lon="6.7796440">
        <ele>528.1</ele>
        <time>2019-02-24T10:46:18Z</time>
      </trkpt>
      <trkpt lat="46.4793950" lon="6.7796730">
        <ele>528.1</ele>
        <time>2019-02-24T10:46:19Z</time>
      </trkpt>
      <trkpt lat="46.4794090" lon="6.7797070">
        <ele>528.2</ele>
        <time>2019-02-24T10:46:20Z</time>
      </trkpt>
      <trkpt lat="46.4794240" lon="6.7797440">
        <ele>528.3</ele>
        <time>2019-02-24T10:46:21Z</time>
      </trkpt>
      <trkpt lat="46.4794370" lon="6.7797800">
        <ele>528.4</ele>
        <time>2019-02-24T10:46:22Z</time>
      </trkpt>
      <trkpt lat="46.4794480" lon="6.7798150">
        <ele>528.5</ele>
        <time>2019-02-24T10:46:23Z</time>
      </trkpt>
      <trkpt lat="46.4794560" lon="6.7798480">
        <ele>528.6</ele>
        <time>2019-02-24T10:46:24Z</time>
      </trkpt>
      <trkpt lat="46.4794620" lon="6.7798780">
        <ele>528.7</ele>
        <time>2019-02-24T10:46:25Z</time>
      </trkpt>
      <trkpt lat="46.4794660" lon="6.7799060">
        <ele>528.8</ele>
        <time>2019-02-24T10:46:26Z</time>
      </trkpt>
      <trkpt lat="46.4794690" lon="6.7799320">
        <ele>528.9</ele>
        <time>2019-02-24T10:46:27Z</time>
      </trkpt>
      <trkpt lat="46.4794710" lon="6.7799580">
        <ele>528.9</ele>
        <time>2019-02-24T10:46:28Z</time>
      </trkpt>
      <trkpt lat="46.4794750" lon="6.7799860">
        <ele>529.0</ele>
        <time>2019-02-24T10:46:29Z</time>
      </trkpt>
      <trkpt lat="46.4794810" lon="6.7800170">
        <ele>529.1</ele>
        <time>2019-02-24T10:46:30Z</time>
      </trkpt>
      <trkpt lat="46.4794890" lon="6.7800520">
        <ele>529.2</ele>
        <time>2019-02-24T10:46:31Z</time>
      </trkpt>
      <trkpt lat="46.4794960" lon="6.7800900">
        <ele>529.4</ele>
        <time>2019-02-24T10:46:32Z</time>
      </trkpt>
      <trkpt lat="46.4795040" lon="6.7801320">
        <ele>529.5</ele>
        <time>2019-02-24T10:46:33Z</time>
      </trkpt>
      <trkpt lat="46.4795100" lon="6.7801770">
        <ele>529.5</ele>
        <time>2019-02-24T10:46:34Z</time>
      </trkpt>
      <trkpt lat="46.4795200" lon="6.7802600">
        <ele>529.7</ele>
        <time>2019-02-24T10:46:35Z</time>
      </trkpt>
      <trkpt lat="46.4795240" lon="6.7802950">
        <ele>529.8</ele>
        <time>2019-02-24T10:46:36Z</time>
      </trkpt>
      <trkpt lat="46.4795280" lon="6.7803300">
        <ele>529.8</ele>
        <time>2019-02-24T10:46:37Z</time>
      </trkpt>
      <trkpt lat="46.4795350" lon="6.7803870">
        <ele>529.9</ele>
        <time>2019-02-24T10:46:38Z</time>
      </trkpt>
      <trkpt lat="46.4795440" lon="6.7804450">
        <ele>530.0</ele>
        <time>2019-02-24T10:46:39Z</time>
      </trkpt>
      <trkpt lat="46.4795620" lon="6.7805490">
        <ele>530.2</ele>
        <time>2019-02-24T10:46:40Z</time>
      </trkpt>
      <trkpt lat="46.4795690" lon="6.7805920">
        <ele>530.3</ele>
        <time>2019-02-24T10:46:41Z</time>
      </trkpt>
      <trkpt lat="46.4795770" lon="6.7806350">
        <ele>530.4</ele>
        <time>2019-02-24T10:46:42Z</time>
      </trkpt>
      <trkpt lat="46.4795890" lon="6.7807020">
        <ele>530.6</ele>
        <time>2019-02-24T10:46:43Z</time>
      </trkpt>
      <trkpt lat="46.4796020" lon="6.7807710">
        <ele>530.7</ele>
        <time>2019-02-24T10:46:44Z</time>
      </trkpt>
      <trkpt lat="46.4796150" lon="6.7808420">
        <ele>530.8</ele>
        <time>2019-02-24T10:46:45Z</time>
      </trkpt>
      <trkpt lat="46.4796280" lon="6.7809140">
        <ele>531.0</ele>
        <time>2019-02-24T10:46:46Z</time>
      </trkpt>
      <trkpt lat="46.4796410" lon="6.7809880">
        <ele>531.1</ele>
        <time>2019-02-24T10:46:47Z</time>
      </trkpt>
      <trkpt lat="46.4796540" lon="6.7810610">
        <ele>531.3</ele>
        <time>2019-02-24T10:46:48Z</time>
      </trkpt>
      <trkpt lat="46.4796670" lon="6.7811330">
        <ele>531.4</ele>
        <time>2019-02-24T10:46:49Z</time>
      </trkpt>
      <trkpt lat="46.4796800" lon="6.7812040">
        <ele>531.6</ele>
        <time>2019-02-24T10:46:50Z</time>
      </trkpt>
      <trkpt lat="46.4796920" lon="6.7812720">
        <ele>531.8</ele>
        <time>2019-02-24T10:46:51Z</time>
      </trkpt>
      <trkpt lat="46.4797030" lon="6.7813360">
        <ele>532.0</ele>
        <time>2019-02-24T10:46:52Z</time>
      </trkpt>
      <trkpt lat="46.4797140" lon="6.7813960">
        <ele>532.2</ele>
        <time>2019-02-24T10:46:53Z</time>
      </trkpt>
      <trkpt lat="46.4797240" lon="6.7814510">
        <ele>532.4</ele>
        <time>2019-02-24T10:46:54Z</time>
      </trkpt>
      <trkpt lat="46.4797340" lon="6.7815010">
        <ele>532.5</ele>
        <time>2019-02-24T10:46:55Z</time>
      </trkpt>
      <trkpt lat="46.4797420" lon="6.7815490">
        <ele>532.7</ele>
        <time>2019-02-24T10:46:56Z</time>
      </trkpt>
      <trkpt lat="46.4797500" lon="6.7815930">
        <ele>532.8</ele>
        <time>2019-02-24T10:46:57Z</time>
      </trkpt>
      <trkpt lat="46.4797580" lon="6.7816370">
        <ele>533.0</ele>
        <time>2019-02-24T10:46:58Z</time>
      </trkpt>
      <trkpt lat="46.4797640" lon="6.7816790">
        <ele>533.3</ele>
        <time>2019-02-24T10:46:59Z</time>
      </trkpt>
      <trkpt lat="46.4797700" lon="6.7817230">
        <ele>532.5</ele>
        <time>2019-02-24T10:47:00Z</time>
      </trkpt>
      <trkpt lat="46.4797760" lon="6.7817670">
        <ele>531.8</ele>
        <time>2019-02-24T10:47:01Z</time>
      </trkpt>
      <trkpt lat="46.4797810" lon="6.7818140">
        <ele>531.1</ele>
        <time>2019-02-24T10:47:02Z</time>
      </trkpt>
      <trkpt lat="46.4797850" lon="6.7818640">
        <ele>530.3</ele>
        <time>2019-02-24T10:47:03Z</time>
      </trkpt>
      <trkpt lat="46.4797860" lon="6.7819180">
        <ele>529.6</ele>
        <time>2019-02-24T10:47:04Z</time>
      </trkpt>
      <trkpt lat="46.4797790" lon="6.7819750">
        <ele>528.9</ele>
        <time>2019-02-24T10:47:05Z</time>
      </trkpt>
      <trkpt lat="46.4797610" lon="6.7820350">
        <ele>528.1</ele>
        <time>2019-02-24T10:47:06Z</time>
      </trkpt>
      <trkpt lat="46.4797310" lon="6.7820990">
        <ele>527.4</ele>
        <time>2019-02-24T10:47:07Z</time>
      </trkpt>
      <trkpt lat="46.4796900" lon="6.7821630">
        <ele>526.6</ele>
        <time>2019-02-24T10:47:08Z</time>
      </trkpt>
      <trkpt lat="46.4796430" lon="6.7822280">
        <ele>525.8</ele>
        <time>2019-02-24T10:47:09Z</time>
      </trkpt>
      <trkpt lat="46.4795710" lon="6.7823160">
        <ele>524.7</ele>
        <time>2019-02-24T10:47:10Z</time>
      </trkpt>
      <trkpt lat="46.4795470" lon="6.7823430">
        <ele>524.3</ele>
        <time>2019-02-24T10:47:11Z</time>
      </trkpt>
      <trkpt lat="46.4794990" lon="6.7823970">
        <ele>523.5</ele>
        <time>2019-02-24T10:47:12Z</time>
      </trkpt>
      <trkpt lat="46.4794540" lon="6.7824440">
        <ele>522.8</ele>
        <time>2019-02-24T10:47:13Z</time>
      </trkpt>
      <trkpt lat="46.4794110" lon="6.7824850">
        <ele>522.1</ele>
        <time>2019-02-24T10:47:14Z</time>
      </trkpt>
      <trkpt lat="46.4793700" lon="6.7825220">
        <ele>521.5</ele>
        <time>2019-02-24T10:47:15Z</time>
      </trkpt>
      <trkpt lat="46.4793320" lon="6.7825530">
        <ele>521.0</ele>
        <time>2019-02-24T10:47:16Z</time>
      </trkpt>
      <trkpt lat="46.4792960" lon="6.7825790">
        <ele>520.6</ele>
        <time>2019-02-24T10:47:17Z</time>
      </trkpt>
      <trkpt lat="46.4792630" lon="6.7826010">
        <ele>520.2</ele>
        <time>2019-02-24T10:47:18Z</time>
      </trkpt>
      <trkpt lat="46.4792320" lon="6.7826180">
        <ele>519.9</ele>
        <time>2019-02-24T10:47:19Z</time>
      </trkpt>
      <trkpt lat="46.4792030" lon="6.7826340">
        <ele>519.7</ele>
        <time>2019-02-24T10:47:20Z</time>
      </trkpt>
      <trkpt lat="46.4791740" lon="6.7826520">
        <ele>519.4</ele>
        <time>2019-02-24T10:47:21Z</time>
      </trkpt>
      <trkpt lat="46.4791420" lon="6.7826780">
        <ele>519.1</ele>
        <time>2019-02-24T10:47:22Z</time>
      </trkpt>
      <trkpt lat="46.4791080" lon="6.7827140">
        <ele>518.8</ele>
        <time>2019-02-24T10:47:23Z</time>
      </trkpt>
      <trkpt lat="46.4790710" lon="6.7827570">
        <ele>518.4</ele>
        <time>2019-02-24T10:47:24Z</time>
      </trkpt>
      <trkpt lat="46.4790330" lon="6.7828060">
        <ele>518.0</ele>
        <time>2019-02-24T10:47:25Z</time>
      </trkpt>
      <trkpt lat="46.4789950" lon="6.7828580">
        <ele>517.6</ele>
        <time>2019-02-24T10:47:26Z</time>
      </trkpt>
      <trkpt lat="46.4789570" lon="6.7829100">
        <ele>517.1</ele>
        <time>2019-02-24T10:47:27Z</time>
      </trkpt>
      <trkpt lat="46.4789170" lon="6.7829650">
        <ele>516.5</ele>
        <time>2019-02-24T10:47:28Z</time>
      </trkpt>
      <trkpt lat="46.4788720" lon="6.7830240">
        <ele>515.9</ele>
        <time>2019-02-24T10:47:29Z</time>
      </trkpt>
      <trkpt lat="46.4788180" lon="6.7830890">
        <ele>515.1</ele>
        <time>2019-02-24T10:47:30Z</time>
      </trkpt>
      <trkpt lat="46.4787550" lon="6.7831620">
        <ele>514.2</ele>
        <time>2019-02-24T10:47:31Z</time>
      </trkpt>
      <trkpt lat="46.4786870" lon="6.7832410">
        <ele>513.2</ele>
        <time>2019-02-24T10:47:32Z</time>
      </trkpt>
      <trkpt lat="46.4786170" lon="6.7833220">
        <ele>512.1</ele>
        <time>2019-02-24T10:47:33Z</time>
      </trkpt>
      <trkpt lat="46.4785520" lon="6.7834030">
        <ele>511.1</ele>
        <time>2019-02-24T10:47:34Z</time>
      </trkpt>
      <trkpt lat="46.4784650" lon="6.7835280">
        <ele>509.7</ele>
        <time>2019-02-24T10:47:35Z</time>
      </trkpt>
      <trkpt lat="46.4784340" lon="6.7835760">
        <ele>509.3</ele>
        <time>2019-02-24T10:47:36Z</time>
      </trkpt>
      <trkpt lat="46.4784030" lon="6.7836240">
        <ele>508.9</ele>
        <time>2019-02-24T10:47:37Z</time>
      </trkpt>
      <trkpt lat="46.4783630" lon="6.7836890">
        <ele>508.5</ele>
        <time>2019-02-24T10:47:38Z</time>
      </trkpt>
      <trkpt lat="46.4783240" lon="6.7837490">
        <ele>508.2</ele>
        <time>2019-02-24T10:47:39Z</time>
      </trkpt>
      <trkpt lat="46.4782650" lon="6.7838410">
        <ele>507.9</ele>
        <time>2019-02-24T10:47:40Z</time>
      </trkpt>
      <trkpt lat="46.4782420" lon="6.7838760">
        <ele>507.8</ele>
        <time>2019-02-24T10:47:41Z</time>
      </trkpt>
      <trkpt lat="46.4782200" lon="6.7839110">
        <ele>507.7</ele>
        <time>2019-02-24T10:47:42Z</time>
      </trkpt>
      <trkpt lat="46.4781910" lon="6.7839620">
        <ele>507.6</ele>
        <time>2019-02-24T10:47:43Z</time>
      </trkpt>
      <trkpt lat="46.4781640" lon="6.7840140">
        <ele>507.4</ele>
        <time>2019-02-24T10:47:44Z</time>
      </trkpt>
      <trkpt lat="46.4781410" lon="6.7840700">
        <ele>507.3</ele>
        <time>2019-02-24T10:47:45Z</time>
      </trkpt>
      <trkpt lat="46.4781210" lon="6.7841330">
        <ele>507.1</ele>
        <time>2019-02-24T10:47:46Z</time>
      </trkpt>
      <trkpt lat="46.4781040" lon="6.7842050">
        <ele>506.8</ele>
        <time>2019-02-24T10:47:47Z</time>
      </trkpt>
      <trkpt lat="46.4780900" lon="6.7842880">
        <ele>506.4</ele>
        <time>2019-02-24T10:47:48Z</time>
      </trkpt>
      <trkpt lat="46.4780780" lon="6.7843850">
        <ele>505.9</ele>
        <time>2019-02-24T10:47:49Z</time>
      </trkpt>
      <trkpt lat="46.4780700" lon="6.7844980">
        <ele>505.1</ele>
        <time>2019-02-24T10:47:50Z</time>
      </trkpt>
      <trkpt lat="46.4780640" lon="6.7846280">
        <ele>504.0</ele>
        <time>2019-02-24T10:47:51Z</time>
      </trkpt>
      <trkpt lat="46.4780610" lon="6.7847640">
        <ele>502.5</ele>
        <time>2019-02-24T10:47:52Z</time>
      </trkpt>
      <trkpt lat="46.4780610" lon="6.7848940">
        <ele>500.9</ele>
        <time>2019-02-24T10:47:53Z</time>
      </trkpt>
      <trkpt lat="46.4780620" lon="6.7850220">
        <ele>499.2</ele>
        <time>2019-02-24T10:47:54Z</time>
      </trkpt>
      <trkpt lat="46.4780600" lon="6.7852390">
        <ele>497.7</ele>
        <time>2019-02-24T10:47:55Z</time>
      </trkpt>
      <trkpt lat="46.4780570" lon="6.7853270">
        <ele>497.7</ele>
        <time>2019-02-24T10:47:56Z</time>
      </trkpt>
      <trkpt lat="46.4780550" lon="6.7854150">
        <ele>497.8</ele>
        <time>2019-02-24T10:47:57Z</time>
      </trkpt>
      <trkpt lat="46.4780490" lon="6.7855470">
        <ele>497.8</ele>
        <time>2019-02-24T10:47:58Z</time>
      </trkpt>
      <trkpt lat="46.4780410" lon="6.7856790">
        <ele>497.9</ele>
        <time>2019-02-24T10:47:59Z</time>
      </trkpt>
      <trkpt lat="46.4780310" lon="6.7858080">
        <ele>498.1</ele>
        <time>2019-02-24T10:48:00Z</time>
      </trkpt>
      <trkpt lat="46.4780180" lon="6.7859310">
        <ele>498.4</ele>
        <time>2019-02-24T10:48:01Z</time>
      </trkpt>
      <trkpt lat="46.4780020" lon="6.7860460">
        <ele>498.7</ele>
        <time>2019-02-24T10:48:02Z</time>
      </trkpt>
      <trkpt lat="46.4779840" lon="6.7861500">
        <ele>498.9</ele>
        <time>2019-02-24T10:48:03Z</time>
      </trkpt>
      <trkpt lat="46.4779630" lon="6.7862430">
        <ele>499.3</ele>
        <time>2019-02-24T10:48:04Z</time>
      </trkpt>
      <trkpt lat="46.4779430" lon="6.7863260">
        <ele>499.6</ele>
        <time>2019-02-24T10:48:05Z</time>
      </trkpt>
      <trkpt lat="46.4779240" lon="6.7864010">
        <ele>499.9</ele>
        <time>2019-02-24T10:48:06Z</time>
      </trkpt>
      <trkpt lat="46.4779080" lon="6.7864690">
        <ele>500.2</ele>
        <time>2019-02-24T10:48:07Z</time>
      </trkpt>
      <trkpt lat="46.4778850" lon="6.7865670">
        <ele>500.6</ele>
        <time>2019-02-24T10:48:08Z</time>
      </trkpt>
      <trkpt lat="46.4778780" lon="6.7866030">
        <ele>500.7</ele>
        <time>2019-02-24T10:48:09Z</time>
      </trkpt>
      <trkpt lat="46.4778700" lon="6.7866400">
        <ele>500.8</ele>
        <time>2019-02-24T10:48:10Z</time>
      </trkpt>
      <trkpt lat="46.4778590" lon="6.7866920">
        <ele>500.8</ele>
        <time>2019-02-24T10:48:11Z</time>
      </trkpt>
      <trkpt lat="46.4778490" lon="6.7867430">
        <ele>500.8</ele>
        <time>2019-02-24T10:48:12Z</time>
      </trkpt>
      <trkpt lat="46.4778300" lon="6.7868310">
        <ele>500.6</ele>
        <time>2019-02-24T10:48:13Z</time>
      </trkpt>
      <trkpt lat="46.4778210" lon="6.7868690">
        <ele>500.4</ele>
        <time>2019-02-24T10:48:14Z</time>
      </trkpt>
      <trkpt lat="46.4778130" lon="6.7869060">
        <ele>500.2</ele>
        <time>2019-02-24T10:48:15Z</time>
      </trkpt>
      <trkpt lat="46.4777990" lon="6.7869670">
        <ele>499.9</ele>
        <time>2019-02-24T10:48:16Z</time>
      </trkpt>
      <trkpt lat="46.4777840" lon="6.7870330">
        <ele>499.5</ele>
        <time>2019-02-24T10:48:17Z</time>
      </trkpt>
      <trkpt lat="46.4777680" lon="6.7871030">
        <ele>499.1</ele>
        <time>2019-02-24T10:48:18Z</time>
      </trkpt>
      <trkpt lat="46.4777500" lon="6.7871790">
        <ele>498.8</ele>
        <time>2019-02-24T10:48:19Z</time>
      </trkpt>
      <trkpt lat="46.4777320" lon="6.7872590">
        <ele>498.6</ele>
        <time>2019-02-24T10:48:20Z</time>
      </trkpt>
      <trkpt lat="46.4777140" lon="6.7873460">
        <ele>498.3</ele>
        <time>2019-02-24T10:48:21Z</time>
      </trkpt>
      <trkpt lat="46.4776940" lon="6.7874390">
        <ele>498.0</ele>
        <time>2019-02-24T10:48:22Z</time>
      </trkpt>
      <trkpt lat="46.4776600" lon="6.7876040">
        <ele>497.5</ele>
        <time>2019-02-24T10:48:23Z</time>
      </trkpt>
      <trkpt lat="46.4776460" lon="6.7876710">
        <ele>497.4</ele>
        <time>2019-02-24T10:48:24Z</time>
      </trkpt>
      <trkpt lat="46.4776320" lon="6.7877380">
        <ele>497.3</ele>
        <time>2019-02-24T10:48:25Z</time>
      </trkpt>
      <trkpt lat="46.4776090" lon="6.7878330">
        <ele>497.4</ele>
        <time>2019-02-24T10:48:26Z</time>
      </trkpt>
      <trkpt lat="46.4775840" lon="6.7879200">
        <ele>497.5</ele>
        <time>2019-02-24T10:48:27Z</time>
      </trkpt>
      <trkpt lat="46.4775570" lon="6.7879990">
        <ele>497.7</ele>
        <time>2019-02-24T10:48:28Z</time>
      </trkpt>
      <trkpt lat="46.4775300" lon="6.7880710">
        <ele>497.7</ele>
        <time>2019-02-24T10:48:29Z</time>
      </trkpt>
      <trkpt lat="46.4775030" lon="6.7881360">
        <ele>497.7</ele>
        <time>2019-02-24T10:48:30Z</time>
      </trkpt>
      <trkpt lat="46.4774760" lon="6.7881960">
        <ele>497.7</ele>
        <time>2019-02-24T10:48:31Z</time>
      </trkpt>
      <trkpt lat="46.4774500" lon="6.7882530">
        <ele>497.7</ele>
        <time>2019-02-24T10:48:32Z</time>
      </trkpt>
      <trkpt lat="46.4774270" lon="6.7883110">
        <ele>497.7</ele>
        <time>2019-02-24T10:48:33Z</time>
      </trkpt>
      <trkpt lat="46.4774070" lon="6.7883710">
        <ele>497.6</ele>
        <time>2019-02-24T10:48:34Z</time>
      </trkpt>
      <trkpt lat="46.4773910" lon="6.7884360">
        <ele>497.5</ele>
        <time>2019-02-24T10:48:35Z</time>
      </trkpt>
      <trkpt lat="46.4773780" lon="6.7885050">
        <ele>497.3</ele>
        <time>2019-02-24T10:48:36Z</time>
      </trkpt>
      <trkpt lat="46.4773670" lon="6.7885760">
        <ele>496.9</ele>
        <time>2019-02-24T10:48:37Z</time>
      </trkpt>
      <trkpt lat="46.4773560" lon="6.7886470">
        <ele>496.5</ele>
        <time>2019-02-24T10:48:38Z</time>
      </trkpt>
      <trkpt lat="46.4773440" lon="6.7887180">
        <ele>496.1</ele>
        <time>2019-02-24T10:48:39Z</time>
      </trkpt>
      <trkpt lat="46.4773310" lon="6.7887870">
        <ele>495.6</ele>
        <time>2019-02-24T10:48:40Z</time>
      </trkpt>
      <trkpt lat="46.4773160" lon="6.7888550">
        <ele>495.1</ele>
        <time>2019-02-24T10:48:41Z</time>
      </trkpt>
      <trkpt lat="46.4773000" lon="6.7889220">
        <ele>494.8</ele>
        <time>2019-02-24T10:48:42Z</time>
      </trkpt>
      <trkpt lat="46.4772810" lon="6.7889890">
        <ele>494.4</ele>
        <time>2019-02-24T10:48:43Z</time>
      </trkpt>
      <trkpt lat="46.4772600" lon="6.7890550">
        <ele>494.1</ele>
        <time>2019-02-24T10:48:44Z</time>
      </trkpt>
      <trkpt lat="46.4772370" lon="6.7891210">
        <ele>493.9</ele>
        <time>2019-02-24T10:48:45Z</time>
      </trkpt>
      <trkpt lat="46.4772100" lon="6.7891870">
        <ele>493.7</ele>
        <time>2019-02-24T10:48:46Z</time>
      </trkpt>
      <trkpt lat="46.4771800" lon="6.7892530">
        <ele>493.5</ele>
        <time>2019-02-24T10:48:47Z</time>
      </trkpt>
      <trkpt lat="46.4771470" lon="6.7893190">
        <ele>493.3</ele>
        <time>2019-02-24T10:48:48Z</time>
      </trkpt>
      <trkpt lat="46.4771120" lon="6.7893850">
        <ele>493.0</ele>
        <time>2019-02-24T10:48:49Z</time>
      </trkpt>
      <trkpt lat="46.4770750" lon="6.7894500">
        <ele>492.8</ele>
        <time>2019-02-24T10:48:50Z</time>
      </trkpt>
      <trkpt lat="46.4770360" lon="6.7895150">
        <ele>492.6</ele>
        <time>2019-02-24T10:48:51Z</time>
      </trkpt>
      <trkpt lat="46.4769960" lon="6.7895800">
        <ele>492.3</ele>
        <time>2019-02-24T10:48:52Z</time>
      </trkpt>
      <trkpt lat="46.4769360" lon="6.7896750">
        <ele>491.6</ele>
        <time>2019-02-24T10:48:53Z</time>
      </trkpt>
      <trkpt lat="46.4769160" lon="6.7897060">
        <ele>491.4</ele>
        <time>2019-02-24T10:48:54Z</time>
      </trkpt>
      <trkpt lat="46.4768780" lon="6.7897700">
        <ele>490.9</ele>
        <time>2019-02-24T10:48:55Z</time>
      </trkpt>
      <trkpt lat="46.4768460" lon="6.7898450">
        <ele>490.4</ele>
        <time>2019-02-24T10:48:56Z</time>
      </trkpt>
      <trkpt lat="46.4768270" lon="6.7899400">
        <ele>489.8</ele>
        <time>2019-02-24T10:48:57Z</time>
      </trkpt>
      <trkpt lat="46.4768200" lon="6.7900410">
        <ele>490.3</ele>
        <time>2019-02-24T10:48:58Z</time>
      </trkpt>
      <trkpt lat="46.4768220" lon="6.7901340">
        <ele>491.7</ele>
        <time>2019-02-24T10:48:59Z</time>
      </trkpt>
      <trkpt lat="46.4768270" lon="6.7902110">
        <ele>492.9</ele>
        <time>2019-02-24T10:49:00Z</time>
      </trkpt>
      <trkpt lat="46.4768300" lon="6.7902710">
        <ele>493.8</ele>
        <time>2019-02-24T10:49:01Z</time>
      </trkpt>
      <trkpt lat="46.4768310" lon="6.7903190">
        <ele>494.6</ele>
        <time>2019-02-24T10:49:02Z</time>
      </trkpt>
      <trkpt lat="46.4768320" lon="6.7903630">
        <ele>495.3</ele>
        <time>2019-02-24T10:49:03Z</time>
      </trkpt>
      <trkpt lat="46.4768300" lon="6.7904050">
        <ele>495.9</ele>
        <time>2019-02-24T10:49:04Z</time>
      </trkpt>
      <trkpt lat="46.4768240" lon="6.7904460">
        <ele>494.9</ele>
        <time>2019-02-24T10:49:05Z</time>
      </trkpt>
      <trkpt lat="46.4768120" lon="6.7904870">
        <ele>494.4</ele>
        <time>2019-02-24T10:49:06Z</time>
      </trkpt>
      <trkpt lat="46.4767930" lon="6.7905290">
        <ele>493.8</ele>
        <time>2019-02-24T10:49:07Z</time>
      </trkpt>
      <trkpt lat="46.4767660" lon="6.7905720">
        <ele>493.1</ele>
        <time>2019-02-24T10:49:08Z</time>
      </trkpt>
      <trkpt lat="46.4767320" lon="6.7906150">
        <ele>492.3</ele>
        <time>2019-02-24T10:49:09Z</time>
      </trkpt>
      <trkpt lat="46.4766930" lon="6.7906570">
        <ele>491.5</ele>
        <time>2019-02-24T10:49:10Z</time>
      </trkpt>
      <trkpt lat="46.4766530" lon="6.7906970">
        <ele>490.7</ele>
        <time>2019-02-24T10:49:11Z</time>
      </trkpt>
      <trkpt lat="46.4766120" lon="6.7907340">
        <ele>489.9</ele>
        <time>2019-02-24T10:49:12Z</time>
      </trkpt>
      <trkpt lat="46.4765410" lon="6.7907950">
        <ele>488.3</ele>
        <time>2019-02-24T10:49:13Z</time>
      </trkpt>
      <trkpt lat="46.4765100" lon="6.7908210">
        <ele>487.7</ele>
        <time>2019-02-24T10:49:14Z</time>
      </trkpt>
      <trkpt lat="46.4764800" lon="6.7908460">
        <ele>487.2</ele>
        <time>2019-02-24T10:49:15Z</time>
      </trkpt>
      <trkpt lat="46.4764290" lon="6.7908910">
        <ele>486.3</ele>
        <time>2019-02-24T10:49:16Z</time>
      </trkpt>
      <trkpt lat="46.4763760" lon="6.7909420">
        <ele>485.3</ele>
        <time>2019-02-24T10:49:17Z</time>
      </trkpt>
      <trkpt lat="46.4763010" lon="6.7910340">
        <ele>484.0</ele>
        <time>2019-02-24T10:49:18Z</time>
      </trkpt>
      <trkpt lat="46.4762770" lon="6.7910670">
        <ele>483.6</ele>
        <time>2019-02-24T10:49:19Z</time>
      </trkpt>
      <trkpt lat="46.4762360" lon="6.7911410">
        <ele>482.8</ele>
        <time>2019-02-24T10:49:20Z</time>
      </trkpt>
      <trkpt lat="46.4761990" lon="6.7912210">
        <ele>482.0</ele>
        <time>2019-02-24T10:49:21Z</time>
      </trkpt>
      <trkpt lat="46.4761650" lon="6.7913020">
        <ele>481.1</ele>
        <time>2019-02-24T10:49:22Z</time>
      </trkpt>
      <trkpt lat="46.4761110" lon="6.7914160">
        <ele>479.6</ele>
        <time>2019-02-24T10:49:23Z</time>
      </trkpt>
      <trkpt lat="46.4760920" lon="6.7914510">
        <ele>479.2</ele>
        <time>2019-02-24T10:49:24Z</time>
      </trkpt>
      <trkpt lat="46.4760530" lon="6.7915170">
        <ele>478.4</ele>
        <time>2019-02-24T10:49:25Z</time>
      </trkpt>
      <trkpt lat="46.4760120" lon="6.7915770">
        <ele>477.5</ele>
        <time>2019-02-24T10:49:26Z</time>
      </trkpt>
      <trkpt lat="46.4759730" lon="6.7916320">
        <ele>476.5</ele>
        <time>2019-02-24T10:49:27Z</time>
      </trkpt>
      <trkpt lat="46.4759340" lon="6.7916840">
        <ele>475.5</ele>
        <time>2019-02-24T10:49:28Z</time>
      </trkpt>
      <trkpt lat="46.4758970" lon="6.7917310">
        <ele>474.6</ele>
        <time>2019-02-24T10:49:29Z</time>
      </trkpt>
      <trkpt lat="46.4758610" lon="6.7917750">
        <ele>473.7</ele>
        <time>2019-02-24T10:49:30Z</time>
      </trkpt>
      <trkpt lat="46.4758250" lon="6.7918170">
        <ele>472.8</ele>
        <time>2019-02-24T10:49:31Z</time>
      </trkpt>
      <trkpt lat="46.4757890" lon="6.7918560">
        <ele>471.8</ele>
        <time>2019-02-24T10:49:32Z</time>
      </trkpt>
      <trkpt lat="46.4757540" lon="6.7918930">
        <ele>470.8</ele>
        <time>2019-02-24T10:49:33Z</time>
      </trkpt>
      <trkpt lat="46.4757170" lon="6.7919290">
        <ele>469.9</ele>
        <time>2019-02-24T10:49:34Z</time>
      </trkpt>
      <trkpt lat="46.4756800" lon="6.7919640">
        <ele>469.0</ele>
        <time>2019-02-24T10:49:35Z</time>
      </trkpt>
      <trkpt lat="46.4756410" lon="6.7919990">
        <ele>468.1</ele>
        <time>2019-02-24T10:49:36Z</time>
      </trkpt>
      <trkpt lat="46.4756020" lon="6.7920340">
        <ele>467.3</ele>
        <time>2019-02-24T10:49:37Z</time>
      </trkpt>
      <trkpt lat="46.4755620" lon="6.7920710">
        <ele>466.4</ele>
        <time>2019-02-24T10:49:38Z</time>
      </trkpt>
      <trkpt lat="46.4755230" lon="6.7921110">
        <ele>465.2</ele>
        <time>2019-02-24T10:49:39Z</time>
      </trkpt>
      <trkpt lat="46.4754840" lon="6.7921540">
        <ele>464.2</ele>
        <time>2019-02-24T10:49:40Z</time>
      </trkpt>
      <trkpt lat="46.4754470" lon="6.7921990">
        <ele>463.2</ele>
        <time>2019-02-24T10:49:41Z</time>
      </trkpt>
      <trkpt lat="46.4754100" lon="6.7922430">
        <ele>462.2</ele>
        <time>2019-02-24T10:49:42Z</time>
      </trkpt>
      <trkpt lat="46.4753750" lon="6.7922830">
        <ele>461.2</ele>
        <time>2019-02-24T10:49:43Z</time>
      </trkpt>
      <trkpt lat="46.4753400" lon="6.7923190">
        <ele>460.2</ele>
        <time>2019-02-24T10:49:44Z</time>
      </trkpt>
      <trkpt lat="46.4753050" lon="6.7923520">
        <ele>459.4</ele>
        <time>2019-02-24T10:49:45Z</time>
      </trkpt>
      <trkpt lat="46.4752670" lon="6.7923870">
        <ele>458.5</ele>
        <time>2019-02-24T10:49:46Z</time>
      </trkpt>
      <trkpt lat="46.4752270" lon="6.7924280">
        <ele>457.7</ele>
        <time>2019-02-24T10:49:47Z</time>
      </trkpt>
      <trkpt lat="46.4751840" lon="6.7924780">
        <ele>456.8</ele>
        <time>2019-02-24T10:49:48Z</time>
      </trkpt>
      <trkpt lat="46.4751460" lon="6.7925450">
        <ele>455.8</ele>
        <time>2019-02-24T10:49:49Z</time>
      </trkpt>
      <trkpt lat="46.4751190" lon="6.7926310">
        <ele>454.6</ele>
        <time>2019-02-24T10:49:50Z</time>
      </trkpt>
      <trkpt lat="46.4750990" lon="6.7927220">
        <ele>452.6</ele>
        <time>2019-02-24T10:49:51Z</time>
      </trkpt>
      <trkpt lat="46.4750810" lon="6.7928040">
        <ele>451.4</ele>
        <time>2019-02-24T10:49:52Z</time>
      </trkpt>
      <trkpt lat="46.4750540" lon="6.7929180">
        <ele>449.9</ele>
        <time>2019-02-24T10:49:53Z</time>
      </trkpt>
      <trkpt lat="46.4750430" lon="6.7929590">
        <ele>449.3</ele>
        <time>2019-02-24T10:49:54Z</time>
      </trkpt>
      <trkpt lat="46.4750320" lon="6.7930010">
        <ele>448.8</ele>
        <time>2019-02-24T10:49:55Z</time>
      </trkpt>
      <trkpt lat="46.4750130" lon="6.7930580">
        <ele>448.0</ele>
        <time>2019-02-24T10:49:56Z</time>
      </trkpt>
      <trkpt lat="46.4749940" lon="6.7931140">
        <ele>447.4</ele>
        <time>2019-02-24T10:49:57Z</time>
      </trkpt>
      <trkpt lat="46.4749730" lon="6.7931690">
        <ele>446.8</ele>
        <time>2019-02-24T10:49:58Z</time>
      </trkpt>
      <trkpt lat="46.4749500" lon="6.7932250">
        <ele>446.3</ele>
        <time>2019-02-24T10:49:59Z</time>
      </trkpt>
      <trkpt lat="46.4749270" lon="6.7932810">
        <ele>445.8</ele>
        <time>2019-02-24T10:50:00Z</time>
      </trkpt>
      <trkpt lat="46.4749030" lon="6.7933380">
        <ele>445.4</ele>
        <time>2019-02-24T10:50:01Z</time>
      </trkpt>
      <trkpt lat="46.4748790" lon="6.7933950">
        <ele>445.1</ele>
        <time>2019-02-24T10:50:02Z</time>
      </trkpt>
      <trkpt lat="46.4748560" lon="6.7934520">
        <ele>444.9</ele>
        <time>2019-02-24T10:50:03Z</time>
      </trkpt>
      <trkpt lat="46.4748340" lon="6.7935090">
        <ele>444.7</ele>
        <time>2019-02-24T10:50:04Z</time>
      </trkpt>
      <trkpt lat="46.4748120" lon="6.7935650">
        <ele>444.6</ele>
        <time>2019-02-24T10:50:05Z</time>
      </trkpt>
      <trkpt lat="46.4747910" lon="6.7936210">
        <ele>444.5</ele>
        <time>2019-02-24T10:50:06Z</time>
      </trkpt>
      <trkpt lat="46.4747690" lon="6.7936760">
        <ele>444.4</ele>
        <time>2019-02-24T10:50:07Z</time>
      </trkpt>
      <trkpt lat="46.4747450" lon="6.7937310">
        <ele>444.4</ele>
        <time>2019-02-24T10:50:08Z</time>
      </trkpt>
      <trkpt lat="46.4747210" lon="6.7937850">
        <ele>444.4</ele>
        <time>2019-02-24T10:50:09Z</time>
      </trkpt>
      <trkpt lat="46.4746950" lon="6.7938400">
        <ele>444.4</ele>
        <time>2019-02-24T10:50:10Z</time>
      </trkpt>
      <trkpt lat="46.4746690" lon="6.7938950">
        <ele>444.4</ele>
        <time>2019-02-24T10:50:11Z</time>
      </trkpt>
      <trkpt lat="46.4746430" lon="6.7939520">
        <ele>444.4</ele>
        <time>2019-02-24T10:50:12Z</time>
      </trkpt>
      <trkpt lat="46.4746170" lon="6.7940100">
        <ele>444.4</ele>
        <time>2019-02-24T10:50:13Z</time>
      </trkpt>
      <trkpt lat="46.4745910" lon="6.7940700">
        <ele>444.4</ele>
        <time>2019-02-24T10:50:14Z</time>
      </trkpt>
      <trkpt lat="46.4745660" lon="6.7941320">
        <ele>444.4</ele>
        <time>2019-02-24T10:50:15Z</time>
      </trkpt>
      <trkpt lat="46.4745420" lon="6.7941980">
        <ele>444.4</ele>
        <time>2019-02-24T10:50:16Z</time>
      </trkpt>
      <trkpt lat="46.4745190" lon="6.7942650">
        <ele>444.4</ele>
        <time>2019-02-24T10:50:17Z</time>
      </trkpt>
      <trkpt lat="46.4744980" lon="6.7943360">
        <ele>444.4</ele>
        <time>2019-02-24T10:50:18Z</time>
      </trkpt>
      <trkpt lat="46.4744770" lon="6.7944090">
        <ele>444.5</ele>
        <time>2019-02-24T10:50:19Z</time>
      </trkpt>
      <trkpt lat="46.4744580" lon="6.7944840">
        <ele>444.5</ele>
        <time>2019-02-24T10:50:20Z</time>
      </trkpt>
      <trkpt lat="46.4744410" lon="6.7945610">
        <ele>444.5</ele>
        <time>2019-02-24T10:50:21Z</time>
      </trkpt>
      <trkpt lat="46.4744240" lon="6.7946400">
        <ele>444.5</ele>
        <time>2019-02-24T10:50:22Z</time>
      </trkpt>
      <trkpt lat="46.4744100" lon="6.7947210">
        <ele>444.5</ele>
        <time>2019-02-24T10:50:23Z</time>
      </trkpt>
      <trkpt lat="46.4743960" lon="6.7948040">
        <ele>444.5</ele>
        <time>2019-02-24T10:50:24Z</time>
      </trkpt>
      <trkpt lat="46.4743840" lon="6.7948880">
        <ele>444.4</ele>
        <time>2019-02-24T10:50:25Z</time>
      </trkpt>
      <trkpt lat="46.4743720" lon="6.7949730">
        <ele>444.3</ele>
        <time>2019-02-24T10:50:26Z</time>
      </trkpt>
      <trkpt lat="46.4743600" lon="6.7950580">
        <ele>444.1</ele>
        <time>2019-02-24T10:50:27Z</time>
      </trkpt>
      <trkpt lat="46.4743470" lon="6.7951420">
        <ele>444.0</ele>
        <time>2019-02-24T10:50:28Z</time>
      </trkpt>
      <trkpt lat="46.4743330" lon="6.7952250">
        <ele>443.8</ele>
        <time>2019-02-24T10:50:29Z</time>
      </trkpt>
      <trkpt lat="46.4743170" lon="6.7953060">
        <ele>443.6</ele>
        <time>2019-02-24T10:50:30Z</time>
      </trkpt>
      <trkpt lat="46.4742980" lon="6.7953850">
        <ele>443.4</ele>
        <time>2019-02-24T10:50:31Z</time>
      </trkpt>
      <trkpt lat="46.4742780" lon="6.7954610">
        <ele>443.2</ele>
        <time>2019-02-24T10:50:32Z</time>
      </trkpt>
      <trkpt lat="46.4742640" lon="6.7955350">
        <ele>443.0</ele>
        <time>2019-02-24T10:50:33Z</time>
      </trkpt>
      <trkpt lat="46.4742630" lon="6.7956070">
        <ele>442.8</ele>
        <time>2019-02-24T10:50:34Z</time>
      </trkpt>
      <trkpt lat="46.4742740" lon="6.7956730">
        <ele>442.7</ele>
        <time>2019-02-24T10:50:35Z</time>
      </trkpt>
      <trkpt lat="46.4742910" lon="6.7957300">
        <ele>442.6</ele>
        <time>2019-02-24T10:50:36Z</time>
      </trkpt>
      <trkpt lat="46.4743060" lon="6.7957800">
        <ele>442.5</ele>
        <time>2019-02-24T10:50:37Z</time>
      </trkpt>
      <trkpt lat="46.4743130" lon="6.7958270">
        <ele>442.4</ele>
        <time>2019-02-24T10:50:38Z</time>
      </trkpt>
      <trkpt lat="46.4743100" lon="6.7958710">
        <ele>442.3</ele>
        <time>2019-02-24T10:50:39Z</time>
      </trkpt>
      <trkpt lat="46.4742980" lon="6.7959110">
        <ele>442.3</ele>
        <time>2019-02-24T10:50:40Z</time>
      </trkpt>
      <trkpt lat="46.4742800" lon="6.7959490">
        <ele>442.2</ele>
        <time>2019-02-24T10:50:41Z</time>
      </trkpt>
      <trkpt lat="46.4742570" lon="6.7959880">
        <ele>442.2</ele>
        <time>2019-02-24T10:50:42Z</time>
      </trkpt>
      <trkpt lat="46.4742320" lon="6.7960290">
        <ele>442.1</ele>
        <time>2019-02-24T10:50:43Z</time>
      </trkpt>
      <trkpt lat="46.4742050" lon="6.7960740">
        <ele>442.0</ele>
        <time>2019-02-24T10:50:44Z</time>
      </trkpt>
      <trkpt lat="46.4741790" lon="6.7961250">
        <ele>441.9</ele>
        <time>2019-02-24T10:50:45Z</time>
      </trkpt>
      <trkpt lat="46.4741520" lon="6.7961810">
        <ele>441.8</ele>
        <time>2019-02-24T10:50:46Z</time>
      </trkpt>
      <trkpt lat="46.4741260" lon="6.7962430">
        <ele>441.7</ele>
        <time>2019-02-24T10:50:47Z</time>
      </trkpt>
      <trkpt lat="46.4740840" lon="6.7963610">
        <ele>441.5</ele>
        <time>2019-02-24T10:50:48Z</time>
      </trkpt>
      <trkpt lat="46.4740670" lon="6.7964110">
        <ele>441.4</ele>
        <time>2019-02-24T10:50:49Z</time>
      </trkpt>
      <trkpt lat="46.4740510" lon="6.7964610">
        <ele>441.4</ele>
        <time>2019-02-24T10:50:50Z</time>
      </trkpt>
      <trkpt lat="46.4740270" lon="6.7965410">
        <ele>441.3</ele>
        <time>2019-02-24T10:50:51Z</time>
      </trkpt>
      <trkpt lat="46.4740040" lon="6.7966210">
        <ele>441.2</ele>
        <time>2019-02-24T10:50:52Z</time>
      </trkpt>
      <trkpt lat="46.4739710" lon="6.7967400">
        <ele>441.0</ele>
        <time>2019-02-24T10:50:53Z</time>
      </trkpt>
      <trkpt lat="46.4739600" lon="6.7967790">
        <ele>441.0</ele>
        <time>2019-02-24T10:50:54Z</time>
      </trkpt>
      <trkpt lat="46.4739390" lon="6.7968540">
        <ele>441.0</ele>
        <time>2019-02-24T10:50:55Z</time>
      </trkpt>
      <trkpt lat="46.4739180" lon="6.7969240">
        <ele>440.9</ele>
        <time>2019-02-24T10:50:56Z</time>
      </trkpt>
      <trkpt lat="46.4738980" lon="6.7969910">
        <ele>440.9</ele>
        <time>2019-02-24T10:50:57Z</time>
      </trkpt>
      <trkpt lat="46.4738780" lon="6.7970550">
        <ele>440.8</ele>
        <time>2019-02-24T10:50:58Z</time>
      </trkpt>
      <trkpt lat="46.4738610" lon="6.7971170">
        <ele>440.8</ele>
        <time>2019-02-24T10:50:59Z</time>
      </trkpt>
      <trkpt lat="46.4738440" lon="6.7971790">
        <ele>440.7</ele>
        <time>2019-02-24T10:51:00Z</time>
      </trkpt>
      <trkpt lat="46.4738300" lon="6.7972400">
        <ele>440.6</ele>
        <time>2019-02-24T10:51:01Z</time>
      </trkpt>
      <trkpt lat="46.4738170" lon="6.7973030">
        <ele>440.5</ele>
        <time>2019-02-24T10:51:02Z</time>
      </trkpt>
      <trkpt lat="46.4738070" lon="6.7973670">
        <ele>440.4</ele>
        <time>2019-02-24T10:51:03Z</time>
      </trkpt>
      <trkpt lat="46.4738000" lon="6.7974340">
        <ele>440.2</ele>
        <time>2019-02-24T10:51:04Z</time>
      </trkpt>
      <trkpt lat="46.4737940" lon="6.7975030">
        <ele>440.0</ele>
        <time>2019-02-24T10:51:05Z</time>
      </trkpt>
      <trkpt lat="46.4737900" lon="6.7975740">
        <ele>439.8</ele>
        <time>2019-02-24T10:51:06Z</time>
      </trkpt>
      <trkpt lat="46.4737870" lon="6.7976460">
        <ele>439.5</ele>
        <time>2019-02-24T10:51:07Z</time>
      </trkpt>
      <trkpt lat="46.4737850" lon="6.7977200">
        <ele>439.2</ele>
        <time>2019-02-24T10:51:08Z</time>
      </trkpt>
      <trkpt lat="46.4737820" lon="6.7977930">
        <ele>438.9</ele>
        <time>2019-02-24T10:51:09Z</time>
      </trkpt>
      <trkpt lat="46.4737790" lon="6.7978670">
        <ele>438.5</ele>
        <time>2019-02-24T10:51:10Z</time>
      </trkpt>
      <trkpt lat="46.4737750" lon="6.7979400">
        <ele>438.2</ele>
        <time>2019-02-24T10:51:11Z</time>
      </trkpt>
      <trkpt lat="46.4737700" lon="6.7980110">
        <ele>437.8</ele>
        <time>2019-02-24T10:51:12Z</time>
      </trkpt>
      <trkpt lat="46.4737630" lon="6.7980800">
        <ele>437.4</ele>
        <time>2019-02-24T10:51:13Z</time>
      </trkpt>
      <trkpt lat="46.4737570" lon="6.7981450">
        <ele>437.1</ele>
        <time>2019-02-24T10:51:14Z</time>
      </trkpt>
      <trkpt lat="46.4737500" lon="6.7982050">
        <ele>436.7</ele>
        <time>2019-02-24T10:51:15Z</time>
      </trkpt>
      <trkpt lat="46.4737440" lon="6.7982580">
        <ele>436.4</ele>
        <time>2019-02-24T10:51:16Z</time>
      </trkpt>
      <trkpt lat="46.4737400" lon="6.7983030">
        <ele>436.2</ele>
        <time>2019-02-24T10:51:17Z</time>
      </trkpt>
      <trkpt lat="46.4737370" lon="6.7983410">
        <ele>435.9</ele>
        <time>2019-02-24T10:51:18Z</time>
      </trkpt>
      <trkpt lat="46.4737360" lon="6.7983760">
        <ele>436.3</ele>
        <time>2019-02-24T10:51:19Z</time>
      </trkpt>
      <trkpt lat="46.4737360" lon="6.7984080">
        <ele>436.7</ele>
        <time>2019-02-24T10:51:20Z</time>
      </trkpt>
      <trkpt lat="46.4737370" lon="6.7984390">
        <ele>437.1</ele>
        <time>2019-02-24T10:51:21Z</time>
      </trkpt>
      <trkpt lat="46.4737400" lon="6.7984690">
        <ele>437.4</ele>
        <time>2019-02-24T10:51:22Z</time>
      </trkpt>
      <trkpt lat="46.4737450" lon="6.7984940">
        <ele>438.1</ele>
        <time>2019-02-24T10:51:23Z</time>
      </trkpt>
      <trkpt lat="46.4737600" lon="6.7985190">
        <ele>438.4</ele>
        <time>2019-02-24T10:51:24Z</time>
      </trkpt>
      <trkpt lat="46.4737680" lon="6.7985250">
        <ele>438.5</ele>
        <time>2019-02-24T10:51:25Z</time>
      </trkpt>
      <trkpt lat="46.4737760" lon="6.7985300">
        <ele>438.7</ele>
        <time>2019-02-24T10:51:26Z</time>
      </trkpt>
      <trkpt lat="46.4737840" lon="6.7985360">
        <ele>438.8</ele>
        <time>2019-02-24T10:51:27Z</time>
      </trkpt>
      <trkpt lat="46.4737960" lon="6.7985410">
        <ele>439.0</ele>
        <time>2019-02-24T10:51:28Z</time>
      </trkpt>
      <trkpt lat="46.4738000" lon="6.7985450">
        <ele>439.0</ele>
        <time>2019-02-24T10:51:29Z</time>
      </trkpt>
      <trkpt lat="46.4738050" lon="6.7985490">
        <ele>439.1</ele>
        <time>2019-02-24T10:51:30Z</time>
      </trkpt>
      <trkpt lat="46.4738090" lon="6.7985530">
        <ele>439.2</ele>
        <time>2019-02-24T10:51:31Z</time>
      </trkpt>
      <trkpt lat="46.4738130" lon="6.7985570">
        <ele>439.3</ele>
        <time>2019-02-24T10:51:32Z</time>
      </trkpt>
      <trkpt lat="46.4738170" lon="6.7985610">
        <ele>439.3</ele>
        <time>2019-02-24T10:51:33Z</time>
      </trkpt>
      <trkpt lat="46.4738210" lon="6.7985650">
        <ele>439.4</ele>
        <time>2019-02-24T10:51:34Z</time>
      </trkpt>
      <trkpt lat="46.4738260" lon="6.7985690">
        <ele>439.5</ele>
        <time>2019-02-24T10:51:35Z</time>
      </trkpt>
      <trkpt lat="46.4738300" lon="6.7985730">
        <ele>439.5</ele>
        <time>2019-02-24T10:51:36Z</time>
      </trkpt>
      <trkpt lat="46.4738340" lon="6.7985770">
        <ele>439.6</ele>
        <time>2019-02-24T10:51:37Z</time>
      </trkpt>
      <trkpt lat="46.4738380" lon="6.7985820">
        <ele>439.7</ele>
        <time>2019-02-24T10:51:38Z</time>
      </trkpt>
      <trkpt lat="46.4738420" lon="6.7985860">
        <ele>439.8</ele>
        <time>2019-02-24T10:51:39Z</time>
      </trkpt>
      <trkpt lat="46.4738460" lon="6.7985900">
        <ele>439.8</ele>
        <time>2019-02-24T10:51:40Z</time>
      </trkpt>
      <trkpt lat="46.4738510" lon="6.7985940">
        <ele>439.9</ele>
        <time>2019-02-24T10:51:41Z</time>
      </trkpt>
      <trkpt lat="46.4738550" lon="6.7985980">
        <ele>440.0</ele>
        <time>2019-02-24T10:51:42Z</time>
      </trkpt>
      <trkpt lat="46.4738590" lon="6.7986020">
        <ele>440.0</ele>
        <time>2019-02-24T10:51:43Z</time>
      </trkpt>
      <trkpt lat="46.4738630" lon="6.7986060">
        <ele>440.1</ele>
        <time>2019-02-24T10:51:44Z</time>
      </trkpt>
      <trkpt lat="46.4738670" lon="6.7986100">
        <ele>440.2</ele>
        <time>2019-02-24T10:51:45Z</time>
      </trkpt>
      <trkpt lat="46.4738720" lon="6.7986140">
        <ele>440.3</ele>
        <time>2019-02-24T10:51:46Z</time>
      </trkpt>
      <trkpt lat="46.4738760" lon="6.7986180">
        <ele>440.3</ele>
        <time>2019-02-24T10:51:47Z</time>
      </trkpt>
      <trkpt lat="46.4738800" lon="6.7986220">
        <ele>440.4</ele>
        <time>2019-02-24T10:51:48Z</time>
      </trkpt>
      <trkpt lat="46.4738880" lon="6.7986310">
        <ele>440.5</ele>
        <time>2019-02-24T10:51:49Z</time>
      </trkpt>
      <trkpt lat="46.4738940" lon="6.7986390">
        <ele>440.7</ele>
        <time>2019-02-24T10:51:50Z</time>
      </trkpt>
      <trkpt lat="46.4739010" lon="6.7986480">
        <ele>440.8</ele>
        <time>2019-02-24T10:51:51Z</time>
      </trkpt>
      <trkpt lat="46.4739080" lon="6.7986560">
        <ele>440.9</ele>
        <time>2019-02-24T10:51:52Z</time>
      </trkpt>
      <trkpt lat="46.4739140" lon="6.7986640">
        <ele>441.0</ele>
        <time>2019-02-24T10:51:53Z</time>
      </trkpt>
      <trkpt lat="46.4739210" lon="6.7986720">
        <ele>441.1</ele>
        <time>2019-02-24T10:51:54Z</time>
      </trkpt>
      <trkpt lat="46.4739280" lon="6.7986800">
        <ele>441.3</ele>
        <time>2019-02-24T10:51:55Z</time>
      </trkpt>
      <trkpt lat="46.4739340" lon="6.7986890">
        <ele>441.4</ele>
        <time>2019-02-24T10:51:56Z</time>
      </trkpt>
      <trkpt lat="46.4739410" lon="6.7986970">
        <ele>441.6</ele>
        <time>2019-02-24T10:51:57Z</time>
      </trkpt>
      <trkpt lat="46.4739470" lon="6.7987050">
        <ele>441.9</ele>
        <time>2019-02-24T10:51:58Z</time>
      </trkpt>
      <trkpt lat="46.4739540" lon="6.7987130">
        <ele>442.2</ele>
        <time>2019-02-24T10:51:59Z</time>
      </trkpt>
      <trkpt lat="46.4739610" lon="6.7987220">
        <ele>442.5</ele>
        <time>2019-02-24T10:52:00Z</time>
      </trkpt>
      <trkpt lat="46.4739670" lon="6.7987300">
        <ele>442.7</ele>
        <time>2019-02-24T10:52:01Z</time>
      </trkpt>
      <trkpt lat="46.4739740" lon="6.7987380">
        <ele>443.0</ele>
        <time>2019-02-24T10:52:02Z</time>
      </trkpt>
      <trkpt lat="46.4739930" lon="6.7987670">
        <ele>443.9</ele>
        <time>2019-02-24T10:52:03Z</time>
      </trkpt>
      <trkpt lat="46.4740010" lon="6.7987800">
        <ele>444.3</ele>
        <time>2019-02-24T10:52:04Z</time>
      </trkpt>
      <trkpt lat="46.4740090" lon="6.7987930">
        <ele>444.7</ele>
        <time>2019-02-24T10:52:05Z</time>
      </trkpt>
      <trkpt lat="46.4740170" lon="6.7988060">
        <ele>445.1</ele>
        <time>2019-02-24T10:52:06Z</time>
      </trkpt>
      <trkpt lat="46.4740250" lon="6.7988190">
        <ele>445.4</ele>
        <time>2019-02-24T10:52:07Z</time>
      </trkpt>
      <trkpt lat="46.4740330" lon="6.7988320">
        <ele>445.8</ele>
        <time>2019-02-24T10:52:08Z</time>
      </trkpt>
      <trkpt lat="46.4740400" lon="6.7988430">
        <ele>446.3</ele>
        <time>2019-02-24T10:52:09Z</time>
      </trkpt>
      <trkpt lat="46.4740450" lon="6.7988520">
        <ele>446.6</ele>
        <time>2019-02-24T10:52:10Z</time>
      </trkpt>
      <trkpt lat="46.4740510" lon="6.7988610">
        <ele>446.9</ele>
        <time>2019-02-24T10:52:11Z</time>
      </trkpt>
      <trkpt lat="46.4740570" lon="6.7988710">
        <ele>447.3</ele>
        <time>2019-02-24T10:52:12Z</time>
      </trkpt>
      <trkpt lat="46.4740660" lon="6.7988820">
        <ele>447.7</ele>
        <time>2019-02-24T10:52:13Z</time>
      </trkpt>
      <trkpt lat="46.4740740" lon="6.7988980">
        <ele>448.3</ele>
        <time>2019-02-24T10:52:14Z</time>
      </trkpt>
      <trkpt lat="46.4740810" lon="6.7989210">
        <ele>449.0</ele>
        <time>2019-02-24T10:52:15Z</time>
      </trkpt>
      <trkpt lat="46.4740840" lon="6.7989540">
        <ele>450.0</ele>
        <time>2019-02-24T10:52:16Z</time>
      </trkpt>
      <trkpt lat="46.4740820" lon="6.7989970">
        <ele>451.2</ele>
        <time>2019-02-24T10:52:17Z</time>
      </trkpt>
      <trkpt lat="46.4740760" lon="6.7990470">
        <ele>452.5</ele>
        <time>2019-02-24T10:52:18Z</time>
      </trkpt>
      <trkpt lat="46.4740690" lon="6.7990970">
        <ele>453.9</ele>
        <time>2019-02-24T10:52:19Z</time>
      </trkpt>
      <trkpt lat="46.4740640" lon="6.7991410">
        <ele>455.0</ele>
        <time>2019-02-24T10:52:20Z</time>
      </trkpt>
      <trkpt lat="46.4740630" lon="6.7991730">
        <ele>455.7</ele>
        <time>2019-02-24T10:52:21Z</time>
      </trkpt>
      <trkpt lat="46.4740640" lon="6.7991970">
        <ele>456.3</ele>
        <time>2019-02-24T10:52:22Z</time>
      </trkpt>
      <trkpt lat="46.4740670" lon="6.7992150">
        <ele>456.7</ele>
        <time>2019-02-24T10:52:23Z</time>
      </trkpt>
      <trkpt lat="46.4740720" lon="6.7992310">
        <ele>457.2</ele>
        <time>2019-02-24T10:52:24Z</time>
      </trkpt>
      <trkpt lat="46.4740770" lon="6.7992480">
        <ele>457.6</ele>
        <time>2019-02-24T10:52:25Z</time>
      </trkpt>
      <trkpt lat="46.4740860" lon="6.7992780">
        <ele>458.2</ele>
        <time>2019-02-24T10:52:26Z</time>
      </trkpt>
      <trkpt lat="46.4740890" lon="6.7992910">
        <ele>458.3</ele>
        <time>2019-02-24T10:52:27Z</time>
      </trkpt>
      <trkpt lat="46.4740930" lon="6.7993030">
        <ele>458.5</ele>
        <time>2019-02-24T10:52:28Z</time>
      </trkpt>
      <trkpt lat="46.4740960" lon="6.7993160">
        <ele>458.6</ele>
        <time>2019-02-24T10:52:29Z</time>
      </trkpt>
      <trkpt lat="46.4741000" lon="6.7993290">
        <ele>458.8</ele>
        <time>2019-02-24T10:52:30Z</time>
      </trkpt>
      <trkpt lat="46.4741040" lon="6.7993500">
        <ele>459.1</ele>
        <time>2019-02-24T10:52:31Z</time>
      </trkpt>
      <trkpt lat="46.4741050" lon="6.7993590">
        <ele>459.2</ele>
        <time>2019-02-24T10:52:32Z</time>
      </trkpt>
      <trkpt lat="46.4741060" lon="6.7993690">
        <ele>459.3</ele>
        <time>2019-02-24T10:52:33Z</time>
      </trkpt>
      <trkpt lat="46.4741070" lon="6.7993780">
        <ele>459.4</ele>
        <time>2019-02-24T10:52:34Z</time>
      </trkpt>
      <trkpt lat="46.4741080" lon="6.7993870">
        <ele>459.5</ele>
        <time>2019-02-24T10:52:35Z</time>
      </trkpt>
      <trkpt lat="46.4741100" lon="6.7993960">
        <ele>459.6</ele>
        <time>2019-02-24T10:52:36Z</time>
      </trkpt>
      <trkpt lat="46.4741110" lon="6.7994060">
        <ele>459.7</ele>
        <time>2019-02-24T10:52:37Z</time>
      </trkpt>
      <trkpt lat="46.4741120" lon="6.7994150">
        <ele>459.8</ele>
        <time>2019-02-24T10:52:38Z</time>
      </trkpt>
      <trkpt lat="46.4741130" lon="6.7994240">
        <ele>459.9</ele>
        <time>2019-02-24T10:52:39Z</time>
      </trkpt>
      <trkpt lat="46.4741140" lon="6.7994330">
        <ele>460.0</ele>
        <time>2019-02-24T10:52:40Z</time>
      </trkpt>
      <trkpt lat="46.4741150" lon="6.7994430">
        <ele>460.2</ele>
        <time>2019-02-24T10:52:41Z</time>
      </trkpt>
      <trkpt lat="46.4741160" lon="6.7994520">
        <ele>460.3</ele>
        <time>2019-02-24T10:52:42Z</time>
      </trkpt>
      <trkpt lat="46.4741170" lon="6.7994610">
        <ele>460.4</ele>
        <time>2019-02-24T10:52:43Z</time>
      </trkpt>
      <trkpt lat="46.4741180" lon="6.7994700">
        <ele>460.5</ele>
        <time>2019-02-24T10:52:44Z</time>
      </trkpt>
      <trkpt lat="46.4741190" lon="6.7994800">
        <ele>460.6</ele>
        <time>2019-02-24T10:52:45Z</time>
      </trkpt>
      <trkpt lat="46.4741210" lon="6.7994890">
        <ele>460.7</ele>
        <time>2019-02-24T10:52:46Z</time>
      </trkpt>
      <trkpt lat="46.4741220" lon="6.7994980">
        <ele>460.8</ele>
        <time>2019-02-24T10:52:47Z</time>
      </trkpt>
      <trkpt lat="46.4741230" lon="6.7995070">
        <ele>460.9</ele>
        <time>2019-02-24T10:52:48Z</time>
      </trkpt>
      <trkpt lat="46.4741240" lon="6.7995170">
        <ele>461.0</ele>
        <time>2019-02-24T10:52:49Z</time>
      </trkpt>
      <trkpt lat="46.4741250" lon="6.7995260">
        <ele>461.1</ele>
        <time>2019-02-24T10:52:50Z</time>
      </trkpt>
      <trkpt lat="46.4741260" lon="6.7995350">
        <ele>461.3</ele>
        <time>2019-02-24T10:52:51Z</time>
      </trkpt>
      <trkpt lat="46.4741270" lon="6.7995440">
        <ele>461.4</ele>
        <time>2019-02-24T10:52:52Z</time>
      </trkpt>
      <trkpt lat="46.4741280" lon="6.7995540">
        <ele>461.5</ele>
        <time>2019-02-24T10:52:53Z</time>
      </trkpt>
      <trkpt lat="46.4741290" lon="6.7995630">
        <ele>461.6</ele>
        <time>2019-02-24T10:52:54Z</time>
      </trkpt>
      <trkpt lat="46.4741300" lon="6.7995720">
        <ele>461.7</ele>
        <time>2019-02-24T10:52:55Z</time>
      </trkpt>
      <trkpt lat="46.4741310" lon="6.7995810">
        <ele>461.8</ele>
        <time>2019-02-24T10:52:56Z</time>
      </trkpt>
      <trkpt lat="46.4741330" lon="6.7995910">
        <ele>461.9</ele>
        <time>2019-02-24T10:52:57Z</time>
      </trkpt>
      <trkpt lat="46.4741340" lon="6.7996000">
        <ele>462.0</ele>
        <time>2019-02-24T10:52:58Z</time>
      </trkpt>
      <trkpt lat="46.4741350" lon="6.7996090">
        <ele>462.1</ele>
        <time>2019-02-24T10:52:59Z</time>
      </trkpt>
      <trkpt lat="46.4741360" lon="6.7996180">
        <ele>462.2</ele>
        <time>2019-02-24T10:53:00Z</time>
      </trkpt>
      <trkpt lat="46.4741370" lon="6.7996280">
        <ele>462.4</ele>
        <time>2019-02-24T10:53:01Z</time>
      </trkpt>
      <trkpt lat="46.4741380" lon="6.7996370">
        <ele>462.5</ele>
        <time>2019-02-24T10:53:02Z</time>
      </trkpt>
      <trkpt lat="46.4741420" lon="6.7996610">
        <ele>462.7</ele>
        <time>2019-02-24T10:53:03Z</time>
      </trkpt>
      <trkpt lat="46.4741430" lon="6.7996660">
        <ele>462.8</ele>
        <time>2019-02-24T10:53:04Z</time>
      </trkpt>
      <trkpt lat="46.4741440" lon="6.7996710">
        <ele>462.9</ele>
        <time>2019-02-24T10:53:05Z</time>
      </trkpt>
      <trkpt lat="46.4741450" lon="6.7996770">
        <ele>462.9</ele>
        <time>2019-02-24T10:53:06Z</time>
      </trkpt>
      <trkpt lat="46.4741460" lon="6.7996820">
        <ele>463.0</ele>
        <time>2019-02-24T10:53:07Z</time>
      </trkpt>
      <trkpt lat="46.4741470" lon="6.7996870">
        <ele>463.1</ele>
        <time>2019-02-24T10:53:08Z</time>
      </trkpt>
      <trkpt lat="46.4741480" lon="6.7996920">
        <ele>463.1</ele>
        <time>2019-02-24T10:53:09Z</time>
      </trkpt>
      <trkpt lat="46.4741490" lon="6.7996970">
        <ele>463.2</ele>
        <time>2019-02-24T10:53:10Z</time>
      </trkpt>
      <trkpt lat="46.4741510" lon="6.7997020">
        <ele>463.3</ele>
        <time>2019-02-24T10:53:11Z</time>
      </trkpt>
      <trkpt lat="46.4741520" lon="6.7997080">
        <ele>463.3</ele>
        <time>2019-02-24T10:53:12Z</time>
      </trkpt>
      <trkpt lat="46.4741530" lon="6.7997130">
        <ele>463.4</ele>
        <time>2019-02-24T10:53:13Z</time>
      </trkpt>
      <trkpt lat="46.4741540" lon="6.7997180">
        <ele>463.4</ele>
        <time>2019-02-24T10:53:14Z</time>
      </trkpt>
      <trkpt lat="46.4741550" lon="6.7997230">
        <ele>463.5</ele>
        <time>2019-02-24T10:53:15Z</time>
      </trkpt>
      <trkpt lat="46.4741560" lon="6.7997280">
        <ele>463.6</ele>
        <time>2019-02-24T10:53:16Z</time>
      </trkpt>
      <trkpt lat="46.4741570" lon="6.7997330">
        <ele>463.6</ele>
        <time>2019-02-24T10:53:17Z</time>
      </trkpt>
      <trkpt lat="46.4741580" lon="6.7997380">
        <ele>463.7</ele>
        <time>2019-02-24T10:53:18Z</time>
      </trkpt>
      <trkpt lat="46.4741590" lon="6.7997440">
        <ele>463.8</ele>
        <time>2019-02-24T10:53:19Z</time>
      </trkpt>
      <trkpt lat="46.4741600" lon="6.7997490">
        <ele>463.8</ele>
        <time>2019-02-24T10:53:20Z</time>
      </trkpt>
      <trkpt lat="46.4741610" lon="6.7997540">
        <ele>463.9</ele>
        <time>2019-02-24T10:53:21Z</time>
      </trkpt>
      <trkpt lat="46.4741620" lon="6.7997590">
        <ele>463.9</ele>
        <time>2019-02-24T10:53:22Z</time>
      </trkpt>
      <trkpt lat="46.4741630" lon="6.7997640">
        <ele>464.0</ele>
        <time>2019-02-24T10:53:23Z</time>
      </trkpt>
      <trkpt lat="46.4741640" lon="6.7997690">
        <ele>464.1</ele>
        <time>2019-02-24T10:53:24Z</time>
      </trkpt>
      <trkpt lat="46.4741650" lon="6.7997740">
        <ele>464.1</ele>
        <time>2019-02-24T10:53:25Z</time>
      </trkpt>
      <trkpt lat="46.4741660" lon="6.7997800">
        <ele>464.2</ele>
        <time>2019-02-24T10:53:26Z</time>
      </trkpt>
      <trkpt lat="46.4741680" lon="6.7997850">
        <ele>464.3</ele>
        <time>2019-02-24T10:53:27Z</time>
      </trkpt>
      <trkpt lat="46.4741690" lon="6.7997900">
        <ele>464.3</ele>
        <time>2019-02-24T10:53:28Z</time>
      </trkpt>
      <trkpt lat="46.4741700" lon="6.7997950">
        <ele>464.4</ele>
        <time>2019-02-24T10:53:29Z</time>
      </trkpt>
      <trkpt lat="46.4741710" lon="6.7998000">
        <ele>464.4</ele>
        <time>2019-02-24T10:53:30Z</time>
      </trkpt>
      <trkpt lat="46.4741720" lon="6.7998050">
        <ele>464.5</ele>
        <time>2019-02-24T10:53:31Z</time>
      </trkpt>
      <trkpt lat="46.4741730" lon="6.7998110">
        <ele>464.6</ele>
        <time>2019-02-24T10:53:32Z</time>
      </trkpt>
      <trkpt lat="46.4741740" lon="6.7998160">
        <ele>464.6</ele>
        <time>2019-02-24T10:53:33Z</time>
      </trkpt>
      <trkpt lat="46.4741750" lon="6.7998210">
        <ele>464.7</ele>
        <time>2019-02-24T10:53:34Z</time>
      </trkpt>
      <trkpt lat="46.4741760" lon="6.7998260">
        <ele>464.8</ele>
        <time>2019-02-24T10:53:35Z</time>
      </trkpt>
      <trkpt lat="46.4741810" lon="6.7998510">
        <ele>465.1</ele>
        <time>2019-02-24T10:53:36Z</time>
      </trkpt>
      <trkpt lat="46.4741870" lon="6.7998760">
        <ele>465.4</ele>
        <time>2019-02-24T10:53:37Z</time>
      </trkpt>
      <trkpt lat="46.4741900" lon="6.7998980">
        <ele>465.6</ele>
        <time>2019-02-24T10:53:38Z</time>
      </trkpt>
      <trkpt lat="46.4741930" lon="6.7999220">
        <ele>465.9</ele>
        <time>2019-02-24T10:53:39Z</time>
      </trkpt>
      <trkpt lat="46.4741930" lon="6.7999290">
        <ele>465.7</ele>
        <time>2019-02-24T10:53:40Z</time>
      </trkpt>
      <trkpt lat="46.4741920" lon="6.7999390">
        <ele>465.6</ele>
        <time>2019-02-24T10:53:41Z</time>
      </trkpt>
      <trkpt lat="46.4741910" lon="6.7999460">
        <ele>465.6</ele>
        <time>2019-02-24T10:53:42Z</time>
      </trkpt>
      <trkpt lat="46.4741900" lon="6.7999510">
        <ele>465.5</ele>
        <time>2019-02-24T10:53:43Z</time>
      </trkpt>
      <trkpt lat="46.4741880" lon="6.7999550">
        <ele>465.5</ele>
        <time>2019-02-24T10:53:44Z</time>
      </trkpt>
      <trkpt lat="46.4741870" lon="6.7999570">
        <ele>465.5</ele>
        <time>2019-02-24T10:53:45Z</time>
      </trkpt>
      <trkpt lat="46.4741850" lon="6.7999580">
        <ele>465.5</ele>
        <time>2019-02-24T10:53:46Z</time>
      </trkpt>
      <trkpt lat="46.4741850" lon="6.7999590">
        <ele>465.5</ele>
        <time>2019-02-24T10:53:47Z</time>
      </trkpt>
      <trkpt lat="46.4741840" lon="6.7999600">
        <ele>465.4</ele>
        <time>2019-02-24T10:53:48Z</time>
      </trkpt>
      <trkpt lat="46.4741840" lon="6.7999600">
        <ele>465.4</ele>
        <time>2019-02-24T10:53:49Z</time>
      </trkpt>
      <trkpt lat="46.4741840" lon="6.7999600">
        <ele>465.4</ele>
        <time>2019-02-24T10:53:50Z</time>
      </trkpt>
      <trkpt lat="46.4741840" lon="6.7999600">
        <ele>465.4</ele>
        <time>2019-02-24T10:53:51Z</time>
      </trkpt>
      <trkpt lat="46.4741840" lon="6.7999600">
        <ele>465.4</ele>
        <time>2019-02-24T10:53:52Z</time>
      </trkpt>
      <trkpt lat="46.4741840" lon="6.7999600">
        <ele>465.4</ele>
        <time>2019-02-24T10:53:53Z</time>
      </trkpt>
      <trkpt lat="46.4741840" lon="6.7999600">
        <ele>465.4</ele>
        <time>2019-02-24T10:53:54Z</time>
      </trkpt>
      <trkpt lat="46.4741840" lon="6.7999610">
        <ele>465.4</ele>
        <time>2019-02-24T10:53:55Z</time>
      </trkpt>
      <trkpt lat="46.4741840" lon="6.7999610">
        <ele>465.4</ele>
        <time>2019-02-24T10:53:56Z</time>
      </trkpt>
      <trkpt lat="46.4741830" lon="6.7999620">
        <ele>465.4</ele>
        <time>2019-02-24T10:53:57Z</time>
      </trkpt>
      <trkpt lat="46.4741830" lon="6.7999630">
        <ele>465.4</ele>
        <time>2019-02-24T10:53:58Z</time>
      </trkpt>
      <trkpt lat="46.4741830" lon="6.7999630">
        <ele>465.4</ele>
        <time>2019-02-24T10:53:59Z</time>
      </trkpt>
      <trkpt lat="46.4741830" lon="6.7999630">
        <ele>465.4</ele>
        <time>2019-02-24T10:54:00Z</time>
      </trkpt>
      <trkpt lat="46.4741820" lon="6.7999630">
        <ele>465.4</ele>
        <time>2019-02-24T10:54:01Z</time>
      </trkpt>
      <trkpt lat="46.4741820" lon="6.7999630">
        <ele>465.4</ele>
        <time>2019-02-24T10:54:02Z</time>
      </trkpt>
      <trkpt lat="46.4741820" lon="6.7999650">
        <ele>465.4</ele>
        <time>2019-02-24T10:54:03Z</time>
      </trkpt>
      <trkpt lat="46.4741800" lon="6.7999690">
        <ele>465.4</ele>
        <time>2019-02-24T10:54:04Z</time>
      </trkpt>
      <trkpt lat="46.4741760" lon="6.7999780">
        <ele>465.3</ele>
        <time>2019-02-24T10:54:05Z</time>
      </trkpt>
      <trkpt lat="46.4741700" lon="6.7999910">
        <ele>465.2</ele>
        <time>2019-02-24T10:54:06Z</time>
      </trkpt>
      <trkpt lat="46.4741610" lon="6.8000060">
        <ele>465.0</ele>
        <time>2019-02-24T10:54:07Z</time>
      </trkpt>
      <trkpt lat="46.4741520" lon="6.8000240">
        <ele>464.9</ele>
        <time>2019-02-24T10:54:08Z</time>
      </trkpt>
      <trkpt lat="46.4741440" lon="6.8000430">
        <ele>464.8</ele>
        <time>2019-02-24T10:54:09Z</time>
      </trkpt>
      <trkpt lat="46.4741360" lon="6.8000610">
        <ele>464.6</ele>
        <time>2019-02-24T10:54:10Z</time>
      </trkpt>
      <trkpt lat="46.4741270" lon="6.8000780">
        <ele>464.5</ele>
        <time>2019-02-24T10:54:11Z</time>
      </trkpt>
      <trkpt lat="46.4741180" lon="6.8000930">
        <ele>464.3</ele>
        <time>2019-02-24T10:54:12Z</time>
      </trkpt>
      <trkpt lat="46.4741080" lon="6.8001080">
        <ele>464.2</ele>
        <time>2019-02-24T10:54:13Z</time>
      </trkpt>
      <trkpt lat="46.4740980" lon="6.8001230">
        <ele>464.0</ele>
        <time>2019-02-24T10:54:14Z</time>
      </trkpt>
      <trkpt lat="46.4740880" lon="6.8001380">
        <ele>463.8</ele>
        <time>2019-02-24T10:54:15Z</time>
      </trkpt>
      <trkpt lat="46.4740780" lon="6.8001530">
        <ele>463.7</ele>
        <time>2019-02-24T10:54:16Z</time>
      </trkpt>
      <trkpt lat="46.4740680" lon="6.8001710">
        <ele>463.5</ele>
        <time>2019-02-24T10:54:17Z</time>
      </trkpt>
      <trkpt lat="46.4740580" lon="6.8001900">
        <ele>463.3</ele>
        <time>2019-02-24T10:54:18Z</time>
      </trkpt>
      <trkpt lat="46.4740480" lon="6.8002100">
        <ele>463.2</ele>
        <time>2019-02-24T10:54:19Z</time>
      </trkpt>
      <trkpt lat="46.4740390" lon="6.8002320">
        <ele>463.0</ele>
        <time>2019-02-24T10:54:20Z</time>
      </trkpt>
      <trkpt lat="46.4740300" lon="6.8002550">
        <ele>462.8</ele>
        <time>2019-02-24T10:54:21Z</time>
      </trkpt>
      <trkpt lat="46.4740210" lon="6.8002780">
        <ele>462.7</ele>
        <time>2019-02-24T10:54:22Z</time>
      </trkpt>
      <trkpt lat="46.4740130" lon="6.8003020">
        <ele>462.5</ele>
        <time>2019-02-24T10:54:23Z</time>
      </trkpt>
      <trkpt lat="46.4740060" lon="6.8003260">
        <ele>462.3</ele>
        <time>2019-02-24T10:54:24Z</time>
      </trkpt>
      <trkpt lat="46.4739990" lon="6.8003500">
        <ele>462.1</ele>
        <time>2019-02-24T10:54:25Z</time>
      </trkpt>
      <trkpt lat="46.4739930" lon="6.8003730">
        <ele>461.9</ele>
        <time>2019-02-24T10:54:26Z</time>
      </trkpt>
      <trkpt lat="46.4739880" lon="6.8003950">
        <ele>461.8</ele>
        <time>2019-02-24T10:54:27Z</time>
      </trkpt>
      <trkpt lat="46.4739840" lon="6.8004170">
        <ele>461.6</ele>
        <time>2019-02-24T10:54:28Z</time>
      </trkpt>
      <trkpt lat="46.4739800" lon="6.8004400">
        <ele>461.5</ele>
        <time>2019-02-24T10:54:29Z</time>
      </trkpt>
      <trkpt lat="46.4739770" lon="6.8004620">
        <ele>461.3</ele>
        <time>2019-02-24T10:54:30Z</time>
      </trkpt>
      <trkpt lat="46.4739730" lon="6.8004840">
        <ele>461.2</ele>
        <time>2019-02-24T10:54:31Z</time>
      </trkpt>
      <trkpt lat="46.4739700" lon="6.8005060">
        <ele>461.0</ele>
        <time>2019-02-24T10:54:32Z</time>
      </trkpt>
      <trkpt lat="46.4739670" lon="6.8005290">
        <ele>460.8</ele>
        <time>2019-02-24T10:54:33Z</time>
      </trkpt>
      <trkpt lat="46.4739630" lon="6.8005520">
        <ele>460.5</ele>
        <time>2019-02-24T10:54:34Z</time>
      </trkpt>
      <trkpt lat="46.4739590" lon="6.8005760">
        <ele>460.6</ele>
        <time>2019-02-24T10:54:35Z</time>
      </trkpt>
      <trkpt lat="46.4739550" lon="6.8006000">
        <ele>460.7</ele>
        <time>2019-02-24T10:54:36Z</time>
      </trkpt>
      <trkpt lat="46.4739510" lon="6.8006250">
        <ele>460.8</ele>
        <time>2019-02-24T10:54:37Z</time>
      </trkpt>
      <trkpt lat="46.4739460" lon="6.8006510">
        <ele>460.8</ele>
        <time>2019-02-24T10:54:38Z</time>
      </trkpt>
      <trkpt lat="46.4739420" lon="6.8006770">
        <ele>461.0</ele>
        <time>2019-02-24T10:54:39Z</time>
      </trkpt>
      <trkpt lat="46.4739370" lon="6.8007040">
        <ele>461.1</ele>
        <time>2019-02-24T10:54:40Z</time>
      </trkpt>
      <trkpt lat="46.4739310" lon="6.8007310">
        <ele>461.3</ele>
        <time>2019-02-24T10:54:41Z</time>
      </trkpt>
      <trkpt lat="46.4739260" lon="6.8007590">
        <ele>461.4</ele>
        <time>2019-02-24T10:54:42Z</time>
      </trkpt>
      <trkpt lat="46.4739200" lon="6.8007870">
        <ele>461.6</ele>
        <time>2019-02-24T10:54:43Z</time>
      </trkpt>
      <trkpt lat="46.4739150" lon="6.8008170">
        <ele>461.7</ele>
        <time>2019-02-24T10:54:44Z</time>
      </trkpt>
      <trkpt lat="46.4739090" lon="6.8008470">
        <ele>461.8</ele>
        <time>2019-02-24T10:54:45Z</time>
      </trkpt>
      <trkpt lat="46.4739040" lon="6.8008790">
        <ele>462.0</ele>
        <time>2019-02-24T10:54:46Z</time>
      </trkpt>
      <trkpt lat="46.4738990" lon="6.8009120">
        <ele>462.2</ele>
        <time>2019-02-24T10:54:47Z</time>
      </trkpt>
      <trkpt lat="46.4738940" lon="6.8009460">
        <ele>462.4</ele>
        <time>2019-02-24T10:54:48Z</time>
      </trkpt>
      <trkpt lat="46.4738900" lon="6.8009820">
        <ele>462.6</ele>
        <time>2019-02-24T10:54:49Z</time>
      </trkpt>
      <trkpt lat="46.4738870" lon="6.8010190">
        <ele>462.8</ele>
        <time>2019-02-24T10:54:50Z</time>
      </trkpt>
      <trkpt lat="46.4738840" lon="6.8010570">
        <ele>463.0</ele>
        <time>2019-02-24T10:54:51Z</time>
      </trkpt>
      <trkpt lat="46.4738820" lon="6.8010970">
        <ele>463.2</ele>
        <time>2019-02-24T10:54:52Z</time>
      </trkpt>
      <trkpt lat="46.4738800" lon="6.8011370">
        <ele>463.4</ele>
        <time>2019-02-24T10:54:53Z</time>
      </trkpt>
      <trkpt lat="46.4738790" lon="6.8011770">
        <ele>463.5</ele>
        <time>2019-02-24T10:54:54Z</time>
      </trkpt>
      <trkpt lat="46.4738780" lon="6.8012180">
        <ele>463.7</ele>
        <time>2019-02-24T10:54:55Z</time>
      </trkpt>
      <trkpt lat="46.4738780" lon="6.8012580">
        <ele>463.8</ele>
        <time>2019-02-24T10:54:56Z</time>
      </trkpt>
      <trkpt lat="46.4738780" lon="6.8012980">
        <ele>464.0</ele>
        <time>2019-02-24T10:54:57Z</time>
      </trkpt>
      <trkpt lat="46.4738790" lon="6.8013370">
        <ele>464.1</ele>
        <time>2019-02-24T10:54:58Z</time>
      </trkpt>
      <trkpt lat="46.4738800" lon="6.8013750">
        <ele>464.2</ele>
        <time>2019-02-24T10:54:59Z</time>
      </trkpt>
      <trkpt lat="46.4738810" lon="6.8014130">
        <ele>464.2</ele>
        <time>2019-02-24T10:55:00Z</time>
      </trkpt>
      <trkpt lat="46.4738830" lon="6.8014510">
        <ele>464.3</ele>
        <time>2019-02-24T10:55:01Z</time>
      </trkpt>
      <trkpt lat="46.4738850" lon="6.8014880">
        <ele>464.4</ele>
        <time>2019-02-24T10:55:02Z</time>
      </trkpt>
      <trkpt lat="46.4738880" lon="6.8015260">
        <ele>464.4</ele>
        <time>2019-02-24T10:55:03Z</time>
      </trkpt>
      <trkpt lat="46.4738900" lon="6.8015630">
        <ele>464.5</ele>
        <time>2019-02-24T10:55:04Z</time>
      </trkpt>
      <trkpt lat="46.4738900" lon="6.8016010">
        <ele>464.5</ele>
        <time>2019-02-24T10:55:05Z</time>
      </trkpt>
      <trkpt lat="46.4738880" lon="6.8016400">
        <ele>464.6</ele>
        <time>2019-02-24T10:55:06Z</time>
      </trkpt>
      <trkpt lat="46.4738850" lon="6.8016790">
        <ele>464.7</ele>
        <time>2019-02-24T10:55:07Z</time>
      </trkpt>
      <trkpt lat="46.4738820" lon="6.8017170">
        <ele>464.8</ele>
        <time>2019-02-24T10:55:08Z</time>
      </trkpt>
      <trkpt lat="46.4738780" lon="6.8017550">
        <ele>464.9</ele>
        <time>2019-02-24T10:55:09Z</time>
      </trkpt>
      <trkpt lat="46.4738740" lon="6.8017910">
        <ele>465.0</ele>
        <time>2019-02-24T10:55:10Z</time>
      </trkpt>
      <trkpt lat="46.4738710" lon="6.8018270">
        <ele>465.1</ele>
        <time>2019-02-24T10:55:11Z</time>
      </trkpt>
      <trkpt lat="46.4738680" lon="6.8018630">
        <ele>465.2</ele>
        <time>2019-02-24T10:55:12Z</time>
      </trkpt>
      <trkpt lat="46.4738650" lon="6.8019010">
        <ele>465.3</ele>
        <time>2019-02-24T10:55:13Z</time>
      </trkpt>
      <trkpt lat="46.4738630" lon="6.8019390">
        <ele>465.4</ele>
        <time>2019-02-24T10:55:14Z</time>
      </trkpt>
      <trkpt lat="46.4738620" lon="6.8019790">
        <ele>465.5</ele>
        <time>2019-02-24T10:55:15Z</time>
      </trkpt>
      <trkpt lat="46.4738600" lon="6.8020200">
        <ele>465.7</ele>
        <time>2019-02-24T10:55:16Z</time>
      </trkpt>
      <trkpt lat="46.4738590" lon="6.8020620">
        <ele>465.8</ele>
        <time>2019-02-24T10:55:17Z</time>
      </trkpt>
      <trkpt lat="46.4738580" lon="6.8021050">
        <ele>466.0</ele>
        <time>2019-02-24T10:55:18Z</time>
      </trkpt>
      <trkpt lat="46.4738570" lon="6.8021480">
        <ele>466.1</ele>
        <time>2019-02-24T10:55:19Z</time>
      </trkpt>
      <trkpt lat="46.4738560" lon="6.8021910">
        <ele>466.3</ele>
        <time>2019-02-24T10:55:20Z</time>
      </trkpt>
      <trkpt lat="46.4738540" lon="6.8022340">
        <ele>466.5</ele>
        <time>2019-02-24T10:55:21Z</time>
      </trkpt>
      <trkpt lat="46.4738530" lon="6.8022760">
        <ele>466.7</ele>
        <time>2019-02-24T10:55:22Z</time>
      </trkpt>
      <trkpt lat="46.4738500" lon="6.8023190">
        <ele>466.9</ele>
        <time>2019-02-24T10:55:23Z</time>
      </trkpt>
      <trkpt lat="46.4738480" lon="6.8023600">
        <ele>467.2</ele>
        <time>2019-02-24T10:55:24Z</time>
      </trkpt>
      <trkpt lat="46.4738450" lon="6.8024010">
        <ele>467.4</ele>
        <time>2019-02-24T10:55:25Z</time>
      </trkpt>
      <trkpt lat="46.4738410" lon="6.8024410">
        <ele>467.7</ele>
        <time>2019-02-24T10:55:26Z</time>
      </trkpt>
      <trkpt lat="46.4738370" lon="6.8024790">
        <ele>467.9</ele>
        <time>2019-02-24T10:55:27Z</time>
      </trkpt>
      <trkpt lat="46.4738320" lon="6.8025170">
        <ele>468.6</ele>
        <time>2019-02-24T10:55:28Z</time>
      </trkpt>
      <trkpt lat="46.4738260" lon="6.8025530">
        <ele>468.6</ele>
        <time>2019-02-24T10:55:29Z</time>
      </trkpt>
      <trkpt lat="46.4738200" lon="6.8025870">
        <ele>468.6</ele>
        <time>2019-02-24T10:55:30Z</time>
      </trkpt>
      <trkpt lat="46.4738130" lon="6.8026220">
        <ele>468.6</ele>
        <time>2019-02-24T10:55:31Z</time>
      </trkpt>
      <trkpt lat="46.4738080" lon="6.8026570">
        <ele>468.6</ele>
        <time>2019-02-24T10:55:32Z</time>
      </trkpt>
      <trkpt lat="46.4738050" lon="6.8026940">
        <ele>468.6</ele>
        <time>2019-02-24T10:55:33Z</time>
      </trkpt>
      <trkpt lat="46.4738050" lon="6.8027340">
        <ele>468.6</ele>
        <time>2019-02-24T10:55:34Z</time>
      </trkpt>
      <trkpt lat="46.4738080" lon="6.8027790">
        <ele>468.6</ele>
        <time>2019-02-24T10:55:35Z</time>
      </trkpt>
      <trkpt lat="46.4738120" lon="6.8028280">
        <ele>468.6</ele>
        <time>2019-02-24T10:55:36Z</time>
      </trkpt>
      <trkpt lat="46.4738160" lon="6.8028820">
        <ele>468.6</ele>
        <time>2019-02-24T10:55:37Z</time>
      </trkpt>
      <trkpt lat="46.4738110" lon="6.8029870">
        <ele>468.6</ele>
        <time>2019-02-24T10:55:38Z</time>
      </trkpt>
      <trkpt lat="46.4738050" lon="6.8030330">
        <ele>468.6</ele>
        <time>2019-02-24T10:55:39Z</time>
      </trkpt>
      <trkpt lat="46.4738000" lon="6.8030780">
        <ele>468.6</ele>
        <time>2019-02-24T10:55:40Z</time>
      </trkpt>
      <trkpt lat="46.4737840" lon="6.8031540">
        <ele>468.6</ele>
        <time>2019-02-24T10:55:41Z</time>
      </trkpt>
      <trkpt lat="46.4737640" lon="6.8032350">
        <ele>468.6</ele>
        <time>2019-02-24T10:55:42Z</time>
      </trkpt>
      <trkpt lat="46.4737280" lon="6.8033650">
        <ele>468.6</ele>
        <time>2019-02-24T10:55:43Z</time>
      </trkpt>
      <trkpt lat="46.4737150" lon="6.8034090">
        <ele>468.5</ele>
        <time>2019-02-24T10:55:44Z</time>
      </trkpt>
      <trkpt lat="46.4736870" lon="6.8034990">
        <ele>468.4</ele>
        <time>2019-02-24T10:55:45Z</time>
      </trkpt>
      <trkpt lat="46.4736600" lon="6.8035880">
        <ele>468.2</ele>
        <time>2019-02-24T10:55:46Z</time>
      </trkpt>
      <trkpt lat="46.4736330" lon="6.8036760">
        <ele>468.1</ele>
        <time>2019-02-24T10:55:47Z</time>
      </trkpt>
      <trkpt lat="46.4735900" lon="6.8038110">
        <ele>467.7</ele>
        <time>2019-02-24T10:55:48Z</time>
      </trkpt>
      <trkpt lat="46.4735720" lon="6.8038620">
        <ele>467.6</ele>
        <time>2019-02-24T10:55:49Z</time>
      </trkpt>
      <trkpt lat="46.4735550" lon="6.8039140">
        <ele>467.4</ele>
        <time>2019-02-24T10:55:50Z</time>
      </trkpt>
      <trkpt lat="46.4735280" lon="6.8039840">
        <ele>467.3</ele>
        <time>2019-02-24T10:55:51Z</time>
      </trkpt>
      <trkpt lat="46.4735020" lon="6.8040510">
        <ele>467.1</ele>
        <time>2019-02-24T10:55:52Z</time>
      </trkpt>
      <trkpt lat="46.4734760" lon="6.8041180">
        <ele>466.9</ele>
        <time>2019-02-24T10:55:53Z</time>
      </trkpt>
      <trkpt lat="46.4734520" lon="6.8041900">
        <ele>466.7</ele>
        <time>2019-02-24T10:55:54Z</time>
      </trkpt>
      <trkpt lat="46.4734300" lon="6.8042680">
        <ele>466.5</ele>
        <time>2019-02-24T10:55:55Z</time>
      </trkpt>
      <trkpt lat="46.4734120" lon="6.8043490">
        <ele>466.4</ele>
        <time>2019-02-24T10:55:56Z</time>
      </trkpt>
      <trkpt lat="46.4733960" lon="6.8044300">
        <ele>466.4</ele>
        <time>2019-02-24T10:55:57Z</time>
      </trkpt>
      <trkpt lat="46.4733830" lon="6.8045080">
        <ele>466.3</ele>
        <time>2019-02-24T10:55:58Z</time>
      </trkpt>
      <trkpt lat="46.4733740" lon="6.8045800">
        <ele>466.2</ele>
        <time>2019-02-24T10:55:59Z</time>
      </trkpt>
      <trkpt lat="46.4733650" lon="6.8046480">
        <ele>466.2</ele>
        <time>2019-02-24T10:56:00Z</time>
      </trkpt>
      <trkpt lat="46.4733570" lon="6.8047120">
        <ele>466.1</ele>
        <time>2019-02-24T10:56:01Z</time>
      </trkpt>
      <trkpt lat="46.4733450" lon="6.8047740">
        <ele>466.0</ele>
        <time>2019-02-24T10:56:02Z</time>
      </trkpt>
      <trkpt lat="46.4733300" lon="6.8048370">
        <ele>465.9</ele>
        <time>2019-02-24T10:56:03Z</time>
      </trkpt>
      <trkpt lat="46.4733100" lon="6.8049030">
        <ele>465.7</ele>
        <time>2019-02-24T10:56:04Z</time>
      </trkpt>
      <trkpt lat="46.4732860" lon="6.8049740">
        <ele>465.6</ele>
        <time>2019-02-24T10:56:05Z</time>
      </trkpt>
      <trkpt lat="46.4732580" lon="6.8050530">
        <ele>465.4</ele>
        <time>2019-02-24T10:56:06Z</time>
      </trkpt>
      <trkpt lat="46.4732270" lon="6.8051410">
        <ele>465.3</ele>
        <time>2019-02-24T10:56:07Z</time>
      </trkpt>
      <trkpt lat="46.4731790" lon="6.8052880">
        <ele>464.9</ele>
        <time>2019-02-24T10:56:08Z</time>
      </trkpt>
      <trkpt lat="46.4731630" lon="6.8053390">
        <ele>464.8</ele>
        <time>2019-02-24T10:56:09Z</time>
      </trkpt>
      <trkpt lat="46.4731350" lon="6.8054450">
        <ele>464.5</ele>
        <time>2019-02-24T10:56:10Z</time>
      </trkpt>
      <trkpt lat="46.4731120" lon="6.8055540">
        <ele>464.2</ele>
        <time>2019-02-24T10:56:11Z</time>
      </trkpt>
      <trkpt lat="46.4730940" lon="6.8056620">
        <ele>464.0</ele>
        <time>2019-02-24T10:56:12Z</time>
      </trkpt>
      <trkpt lat="46.4730660" lon="6.8058300">
        <ele>463.5</ele>
        <time>2019-02-24T10:56:13Z</time>
      </trkpt>
      <trkpt lat="46.4730550" lon="6.8058940">
        <ele>463.3</ele>
        <time>2019-02-24T10:56:14Z</time>
      </trkpt>
      <trkpt lat="46.4730440" lon="6.8059570">
        <ele>463.1</ele>
        <time>2019-02-24T10:56:15Z</time>
      </trkpt>
      <trkpt lat="46.4730270" lon="6.8060420">
        <ele>463.0</ele>
        <time>2019-02-24T10:56:16Z</time>
      </trkpt>
      <trkpt lat="46.4730110" lon="6.8061230">
        <ele>462.8</ele>
        <time>2019-02-24T10:56:17Z</time>
      </trkpt>
      <trkpt lat="46.4729990" lon="6.8062030">
        <ele>462.6</ele>
        <time>2019-02-24T10:56:18Z</time>
      </trkpt>
      <trkpt lat="46.4729890" lon="6.8062830">
        <ele>462.5</ele>
        <time>2019-02-24T10:56:19Z</time>
      </trkpt>
      <trkpt lat="46.4729810" lon="6.8063630">
        <ele>462.3</ele>
        <time>2019-02-24T10:56:20Z</time>
      </trkpt>
      <trkpt lat="46.4729700" lon="6.8064430">
        <ele>462.2</ele>
        <time>2019-02-24T10:56:21Z</time>
      </trkpt>
      <trkpt lat="46.4729530" lon="6.8065210">
        <ele>462.1</ele>
        <time>2019-02-24T10:56:22Z</time>
      </trkpt>
      <trkpt lat="46.4729270" lon="6.8065990">
        <ele>462.0</ele>
        <time>2019-02-24T10:56:23Z</time>
      </trkpt>
      <trkpt lat="46.4728960" lon="6.8066810">
        <ele>461.7</ele>
        <time>2019-02-24T10:56:24Z</time>
      </trkpt>
      <trkpt lat="46.4728630" lon="6.8067710">
        <ele>461.4</ele>
        <time>2019-02-24T10:56:25Z</time>
      </trkpt>
      <trkpt lat="46.4728320" lon="6.8068740">
        <ele>461.1</ele>
        <time>2019-02-24T10:56:26Z</time>
      </trkpt>
      <trkpt lat="46.4728050" lon="6.8069950">
        <ele>460.8</ele>
        <time>2019-02-24T10:56:27Z</time>
      </trkpt>
      <trkpt lat="46.4727780" lon="6.8072100">
        <ele>460.1</ele>
        <time>2019-02-24T10:56:28Z</time>
      </trkpt>
      <trkpt lat="46.4727710" lon="6.8072960">
        <ele>459.8</ele>
        <time>2019-02-24T10:56:29Z</time>
      </trkpt>
      <trkpt lat="46.4727640" lon="6.8073820">
        <ele>459.4</ele>
        <time>2019-02-24T10:56:30Z</time>
      </trkpt>
      <trkpt lat="46.4727550" lon="6.8075090">
        <ele>459.0</ele>
        <time>2019-02-24T10:56:31Z</time>
      </trkpt>
      <trkpt lat="46.4727440" lon="6.8076320">
        <ele>458.6</ele>
        <time>2019-02-24T10:56:32Z</time>
      </trkpt>
      <trkpt lat="46.4727270" lon="6.8077510">
        <ele>458.3</ele>
        <time>2019-02-24T10:56:33Z</time>
      </trkpt>
      <trkpt lat="46.4727050" lon="6.8078650">
        <ele>457.9</ele>
        <time>2019-02-24T10:56:34Z</time>
      </trkpt>
      <trkpt lat="46.4726800" lon="6.8079740">
        <ele>457.5</ele>
        <time>2019-02-24T10:56:35Z</time>
      </trkpt>
      <trkpt lat="46.4726540" lon="6.8080820">
        <ele>457.2</ele>
        <time>2019-02-24T10:56:36Z</time>
      </trkpt>
      <trkpt lat="46.4726280" lon="6.8081880">
        <ele>456.9</ele>
        <time>2019-02-24T10:56:37Z</time>
      </trkpt>
      <trkpt lat="46.4726050" lon="6.8082950">
        <ele>456.5</ele>
        <time>2019-02-24T10:56:38Z</time>
      </trkpt>
      <trkpt lat="46.4725840" lon="6.8084030">
        <ele>456.1</ele>
        <time>2019-02-24T10:56:39Z</time>
      </trkpt>
      <trkpt lat="46.4725660" lon="6.8085100">
        <ele>455.9</ele>
        <time>2019-02-24T10:56:40Z</time>
      </trkpt>
      <trkpt lat="46.4725500" lon="6.8086140">
        <ele>455.6</ele>
        <time>2019-02-24T10:56:41Z</time>
      </trkpt>
      <trkpt lat="46.4725340" lon="6.8087100">
        <ele>455.4</ele>
        <time>2019-02-24T10:56:42Z</time>
      </trkpt>
      <trkpt lat="46.4725180" lon="6.8087970">
        <ele>455.1</ele>
        <time>2019-02-24T10:56:43Z</time>
      </trkpt>
      <trkpt lat="46.4725000" lon="6.8088750">
        <ele>454.9</ele>
        <time>2019-02-24T10:56:44Z</time>
      </trkpt>
      <trkpt lat="46.4724790" lon="6.8089460">
        <ele>454.6</ele>
        <time>2019-02-24T10:56:45Z</time>
      </trkpt>
      <trkpt lat="46.4724520" lon="6.8090110">
        <ele>454.4</ele>
        <time>2019-02-24T10:56:46Z</time>
      </trkpt>
      <trkpt lat="46.4724190" lon="6.8090720">
        <ele>454.2</ele>
        <time>2019-02-24T10:56:47Z</time>
      </trkpt>
      <trkpt lat="46.4723810" lon="6.8091330">
        <ele>453.9</ele>
        <time>2019-02-24T10:56:48Z</time>
      </trkpt>
      <trkpt lat="46.4723420" lon="6.8091960">
        <ele>453.6</ele>
        <time>2019-02-24T10:56:49Z</time>
      </trkpt>
      <trkpt lat="46.4723030" lon="6.8092640">
        <ele>453.1</ele>
        <time>2019-02-24T10:56:50Z</time>
      </trkpt>
      <trkpt lat="46.4722680" lon="6.8093390">
        <ele>452.6</ele>
        <time>2019-02-24T10:56:51Z</time>
      </trkpt>
      <trkpt lat="46.4722350" lon="6.8094220">
        <ele>452.1</ele>
        <time>2019-02-24T10:56:52Z</time>
      </trkpt>
      <trkpt lat="46.4722040" lon="6.8095090">
        <ele>451.6</ele>
        <time>2019-02-24T10:56:53Z</time>
      </trkpt>
      <trkpt lat="46.4721760" lon="6.8096010">
        <ele>451.2</ele>
        <time>2019-02-24T10:56:54Z</time>
      </trkpt>
      <trkpt lat="46.4721480" lon="6.8096940">
        <ele>450.6</ele>
        <time>2019-02-24T10:56:55Z</time>
      </trkpt>
      <trkpt lat="46.4721210" lon="6.8097880">
        <ele>450.0</ele>
        <time>2019-02-24T10:56:56Z</time>
      </trkpt>
      <trkpt lat="46.4720940" lon="6.8098820">
        <ele>449.2</ele>
        <time>2019-02-24T10:56:57Z</time>
      </trkpt>
      <trkpt lat="46.4720660" lon="6.8099730">
        <ele>448.5</ele>
        <time>2019-02-24T10:56:58Z</time>
      </trkpt>
      <trkpt lat="46.4720370" lon="6.8100600">
        <ele>448.0</ele>
        <time>2019-02-24T10:56:59Z</time>
      </trkpt>
      <trkpt lat="46.4720070" lon="6.8101480">
        <ele>447.4</ele>
        <time>2019-02-24T10:57:00Z</time>
      </trkpt>
      <trkpt lat="46.4719780" lon="6.8102400">
        <ele>446.7</ele>
        <time>2019-02-24T10:57:01Z</time>
      </trkpt>
      <trkpt lat="46.4719510" lon="6.8103400">
        <ele>445.9</ele>
        <time>2019-02-24T10:57:02Z</time>
      </trkpt>
      <trkpt lat="46.4719250" lon="6.8104500">
        <ele>445.0</ele>
        <time>2019-02-24T10:57:03Z</time>
      </trkpt>
      <trkpt lat="46.4719040" lon="6.8105680">
        <ele>444.4</ele>
        <time>2019-02-24T10:57:04Z</time>
      </trkpt>
      <trkpt lat="46.4718870" lon="6.8106890">
        <ele>443.7</ele>
        <time>2019-02-24T10:57:05Z</time>
      </trkpt>
      <trkpt lat="46.4718780" lon="6.8108100">
        <ele>442.8</ele>
        <time>2019-02-24T10:57:06Z</time>
      </trkpt>
      <trkpt lat="46.4718760" lon="6.8109260">
        <ele>442.0</ele>
        <time>2019-02-24T10:57:07Z</time>
      </trkpt>
      <trkpt lat="46.4718730" lon="6.8110340">
        <ele>441.2</ele>
        <time>2019-02-24T10:57:08Z</time>
      </trkpt>
      <trkpt lat="46.4718600" lon="6.8111330">
        <ele>440.7</ele>
        <time>2019-02-24T10:57:09Z</time>
      </trkpt>
      <trkpt lat="46.4718420" lon="6.8112270">
        <ele>440.3</ele>
        <time>2019-02-24T10:57:10Z</time>
      </trkpt>
      <trkpt lat="46.4718280" lon="6.8113210">
        <ele>439.8</ele>
        <time>2019-02-24T10:57:11Z</time>
      </trkpt>
      <trkpt lat="46.4718170" lon="6.8114150">
        <ele>439.3</ele>
        <time>2019-02-24T10:57:12Z</time>
      </trkpt>
      <trkpt lat="46.4718110" lon="6.8115080">
        <ele>438.8</ele>
        <time>2019-02-24T10:57:13Z</time>
      </trkpt>
      <trkpt lat="46.4718070" lon="6.8116010">
        <ele>438.3</ele>
        <time>2019-02-24T10:57:14Z</time>
      </trkpt>
      <trkpt lat="46.4718020" lon="6.8116950">
        <ele>438.0</ele>
        <time>2019-02-24T10:57:15Z</time>
      </trkpt>
      <trkpt lat="46.4717970" lon="6.8117880">
        <ele>437.7</ele>
        <time>2019-02-24T10:57:16Z</time>
      </trkpt>
      <trkpt lat="46.4717910" lon="6.8118810">
        <ele>437.5</ele>
        <time>2019-02-24T10:57:17Z</time>
      </trkpt>
      <trkpt lat="46.4717860" lon="6.8119730">
        <ele>437.1</ele>
        <time>2019-02-24T10:57:18Z</time>
      </trkpt>
      <trkpt lat="46.4717820" lon="6.8120630">
        <ele>436.8</ele>
        <time>2019-02-24T10:57:19Z</time>
      </trkpt>
      <trkpt lat="46.4717790" lon="6.8121510">
        <ele>436.4</ele>
        <time>2019-02-24T10:57:20Z</time>
      </trkpt>
      <trkpt lat="46.4717770" lon="6.8122360">
        <ele>436.1</ele>
        <time>2019-02-24T10:57:21Z</time>
      </trkpt>
      <trkpt lat="46.4717760" lon="6.8123170">
        <ele>435.8</ele>
        <time>2019-02-24T10:57:22Z</time>
      </trkpt>
      <trkpt lat="46.4717780" lon="6.8123960">
        <ele>435.6</ele>
        <time>2019-02-24T10:57:23Z</time>
      </trkpt>
      <trkpt lat="46.4717820" lon="6.8124720">
        <ele>435.5</ele>
        <time>2019-02-24T10:57:24Z</time>
      </trkpt>
      <trkpt lat="46.4717850" lon="6.8125480">
        <ele>435.3</ele>
        <time>2019-02-24T10:57:25Z</time>
      </trkpt>
      <trkpt lat="46.4717890" lon="6.8126260">
        <ele>435.1</ele>
        <time>2019-02-24T10:57:26Z</time>
      </trkpt>
      <trkpt lat="46.4717930" lon="6.8127060">
        <ele>434.9</ele>
        <time>2019-02-24T10:57:27Z</time>
      </trkpt>
      <trkpt lat="46.4717960" lon="6.8127890">
        <ele>434.7</ele>
        <time>2019-02-24T10:57:28Z</time>
      </trkpt>
      <trkpt lat="46.4718000" lon="6.8128720">
        <ele>434.6</ele>
        <time>2019-02-24T10:57:29Z</time>
      </trkpt>
      <trkpt lat="46.4718050" lon="6.8129530">
        <ele>434.4</ele>
        <time>2019-02-24T10:57:30Z</time>
      </trkpt>
      <trkpt lat="46.4718120" lon="6.8130310">
        <ele>434.3</ele>
        <time>2019-02-24T10:57:31Z</time>
      </trkpt>
      <trkpt lat="46.4718200" lon="6.8131060">
        <ele>434.1</ele>
        <time>2019-02-24T10:57:32Z</time>
      </trkpt>
      <trkpt lat="46.4718290" lon="6.8131790">
        <ele>434.0</ele>
        <time>2019-02-24T10:57:33Z</time>
      </trkpt>
      <trkpt lat="46.4718390" lon="6.8132480">
        <ele>433.9</ele>
        <time>2019-02-24T10:57:34Z</time>
      </trkpt>
      <trkpt lat="46.4718500" lon="6.8133150">
        <ele>433.9</ele>
        <time>2019-02-24T10:57:35Z</time>
      </trkpt>
      <trkpt lat="46.4718610" lon="6.8133800">
        <ele>433.8</ele>
        <time>2019-02-24T10:57:36Z</time>
      </trkpt>
      <trkpt lat="46.4718710" lon="6.8134410">
        <ele>433.6</ele>
        <time>2019-02-24T10:57:37Z</time>
      </trkpt>
      <trkpt lat="46.4718820" lon="6.8135010">
        <ele>433.5</ele>
        <time>2019-02-24T10:57:38Z</time>
      </trkpt>
      <trkpt lat="46.4718920" lon="6.8135580">
        <ele>433.3</ele>
        <time>2019-02-24T10:57:39Z</time>
      </trkpt>
      <trkpt lat="46.4719010" lon="6.8136140">
        <ele>433.2</ele>
        <time>2019-02-24T10:57:40Z</time>
      </trkpt>
      <trkpt lat="46.4719100" lon="6.8136680">
        <ele>433.1</ele>
        <time>2019-02-24T10:57:41Z</time>
      </trkpt>
      <trkpt lat="46.4719180" lon="6.8137210">
        <ele>433.1</ele>
        <time>2019-02-24T10:57:42Z</time>
      </trkpt>
      <trkpt lat="46.4719270" lon="6.8137740">
        <ele>433.0</ele>
        <time>2019-02-24T10:57:43Z</time>
      </trkpt>
      <trkpt lat="46.4719350" lon="6.8138270">
        <ele>432.9</ele>
        <time>2019-02-24T10:57:44Z</time>
      </trkpt>
      <trkpt lat="46.4719430" lon="6.8138810">
        <ele>432.8</ele>
        <time>2019-02-24T10:57:45Z</time>
      </trkpt>
      <trkpt lat="46.4719510" lon="6.8139350">
        <ele>432.8</ele>
        <time>2019-02-24T10:57:46Z</time>
      </trkpt>
      <trkpt lat="46.4719590" lon="6.8139910">
        <ele>432.8</ele>
        <time>2019-02-24T10:57:47Z</time>
      </trkpt>
      <trkpt lat="46.4719670" lon="6.8140490">
        <ele>432.8</ele>
        <time>2019-02-24T10:57:48Z</time>
      </trkpt>
      <trkpt lat="46.4719760" lon="6.8141080">
        <ele>432.8</ele>
        <time>2019-02-24T10:57:49Z</time>
      </trkpt>
      <trkpt lat="46.4719850" lon="6.8141690">
        <ele>432.8</ele>
        <time>2019-02-24T10:57:50Z</time>
      </trkpt>
      <trkpt lat="46.4719940" lon="6.8142320">
        <ele>432.8</ele>
        <time>2019-02-24T10:57:51Z</time>
      </trkpt>
      <trkpt lat="46.4720020" lon="6.8142960">
        <ele>432.8</ele>
        <time>2019-02-24T10:57:52Z</time>
      </trkpt>
      <trkpt lat="46.4720160" lon="6.8143950">
        <ele>432.8</ele>
        <time>2019-02-24T10:57:53Z</time>
      </trkpt>
      <trkpt lat="46.4720200" lon="6.8144280">
        <ele>432.8</ele>
        <time>2019-02-24T10:57:54Z</time>
      </trkpt>
      <trkpt lat="46.4720290" lon="6.8144960">
        <ele>432.7</ele>
        <time>2019-02-24T10:57:55Z</time>
      </trkpt>
      <trkpt lat="46.4720380" lon="6.8145640">
        <ele>432.7</ele>
        <time>2019-02-24T10:57:56Z</time>
      </trkpt>
      <trkpt lat="46.4720470" lon="6.8146340">
        <ele>432.7</ele>
        <time>2019-02-24T10:57:57Z</time>
      </trkpt>
      <trkpt lat="46.4720570" lon="6.8147040">
        <ele>432.6</ele>
        <time>2019-02-24T10:57:58Z</time>
      </trkpt>
      <trkpt lat="46.4720680" lon="6.8147740">
        <ele>432.5</ele>
        <time>2019-02-24T10:57:59Z</time>
      </trkpt>
      <trkpt lat="46.4720810" lon="6.8148460">
        <ele>432.3</ele>
        <time>2019-02-24T10:58:00Z</time>
      </trkpt>
      <trkpt lat="46.4720950" lon="6.8149180">
        <ele>432.1</ele>
        <time>2019-02-24T10:58:01Z</time>
      </trkpt>
      <trkpt lat="46.4721120" lon="6.8149900">
        <ele>431.9</ele>
        <time>2019-02-24T10:58:02Z</time>
      </trkpt>
      <trkpt lat="46.4721420" lon="6.8150980">
        <ele>431.4</ele>
        <time>2019-02-24T10:58:03Z</time>
      </trkpt>
      <trkpt lat="46.4721530" lon="6.8151350">
        <ele>431.2</ele>
        <time>2019-02-24T10:58:04Z</time>
      </trkpt>
      <trkpt lat="46.4721730" lon="6.8152070">
        <ele>430.7</ele>
        <time>2019-02-24T10:58:05Z</time>
      </trkpt>
      <trkpt lat="46.4721850" lon="6.8152760">
        <ele>430.3</ele>
        <time>2019-02-24T10:58:06Z</time>
      </trkpt>
      <trkpt lat="46.4721850" lon="6.8153410">
        <ele>429.9</ele>
        <time>2019-02-24T10:58:07Z</time>
      </trkpt>
      <trkpt lat="46.4721690" lon="6.8154010">
        <ele>429.4</ele>
        <time>2019-02-24T10:58:08Z</time>
      </trkpt>
      <trkpt lat="46.4721410" lon="6.8154560">
        <ele>428.9</ele>
        <time>2019-02-24T10:58:09Z</time>
      </trkpt>
      <trkpt lat="46.4721040" lon="6.8155040">
        <ele>428.5</ele>
        <time>2019-02-24T10:58:10Z</time>
      </trkpt>
      <trkpt lat="46.4720640" lon="6.8155450">
        <ele>428.1</ele>
        <time>2019-02-24T10:58:11Z</time>
      </trkpt>
      <trkpt lat="46.4720250" lon="6.8155800">
        <ele>427.6</ele>
        <time>2019-02-24T10:58:12Z</time>
      </trkpt>
      <trkpt lat="46.4719890" lon="6.8156100">
        <ele>427.1</ele>
        <time>2019-02-24T10:58:13Z</time>
      </trkpt>
      <trkpt lat="46.4719610" lon="6.8156400">
        <ele>426.7</ele>
        <time>2019-02-24T10:58:14Z</time>
      </trkpt>
      <trkpt lat="46.4719320" lon="6.8156700">
        <ele>426.2</ele>
        <time>2019-02-24T10:58:15Z</time>
      </trkpt>
      <trkpt lat="46.4719130" lon="6.8157040">
        <ele>426.4</ele>
        <time>2019-02-24T10:58:16Z</time>
      </trkpt>
      <trkpt lat="46.4719010" lon="6.8157410">
        <ele>426.7</ele>
        <time>2019-02-24T10:58:17Z</time>
      </trkpt>
      <trkpt lat="46.4718940" lon="6.8157790">
        <ele>426.9</ele>
        <time>2019-02-24T10:58:18Z</time>
      </trkpt>
      <trkpt lat="46.4718920" lon="6.8158130">
        <ele>427.1</ele>
        <time>2019-02-24T10:58:19Z</time>
      </trkpt>
      <trkpt lat="46.4718930" lon="6.8158440">
        <ele>427.3</ele>
        <time>2019-02-24T10:58:20Z</time>
      </trkpt>
      <trkpt lat="46.4718980" lon="6.8158710">
        <ele>427.4</ele>
        <time>2019-02-24T10:58:21Z</time>
      </trkpt>
      <trkpt lat="46.4719050" lon="6.8158950">
        <ele>427.6</ele>
        <time>2019-02-24T10:58:22Z</time>
      </trkpt>
      <trkpt lat="46.4719130" lon="6.8159170">
        <ele>427.7</ele>
        <time>2019-02-24T10:58:23Z</time>
      </trkpt>
      <trkpt lat="46.4719230" lon="6.8159380">
        <ele>427.9</ele>
        <time>2019-02-24T10:58:24Z</time>
      </trkpt>
      <trkpt lat="46.4719340" lon="6.8159580">
        <ele>428.0</ele>
        <time>2019-02-24T10:58:25Z</time>
      </trkpt>
      <trkpt lat="46.4719460" lon="6.8159790">
        <ele>428.2</ele>
        <time>2019-02-24T10:58:26Z</time>
      </trkpt>
      <trkpt lat="46.4719570" lon="6.8160010">
        <ele>428.3</ele>
        <time>2019-02-24T10:58:27Z</time>
      </trkpt>
      <trkpt lat="46.4719680" lon="6.8160250">
        <ele>428.5</ele>
        <time>2019-02-24T10:58:28Z</time>
      </trkpt>
      <trkpt lat="46.4719780" lon="6.8160500">
        <ele>428.7</ele>
        <time>2019-02-24T10:58:29Z</time>
      </trkpt>
      <trkpt lat="46.4719930" lon="6.8160960">
        <ele>429.0</ele>
        <time>2019-02-24T10:58:30Z</time>
      </trkpt>
      <trkpt lat="46.4719990" lon="6.8161150">
        <ele>429.1</ele>
        <time>2019-02-24T10:58:31Z</time>
      </trkpt>
      <trkpt lat="46.4720050" lon="6.8161340">
        <ele>429.2</ele>
        <time>2019-02-24T10:58:32Z</time>
      </trkpt>
      <trkpt lat="46.4720120" lon="6.8161630">
        <ele>429.4</ele>
        <time>2019-02-24T10:58:33Z</time>
      </trkpt>
      <trkpt lat="46.4720200" lon="6.8161930">
        <ele>429.6</ele>
        <time>2019-02-24T10:58:34Z</time>
      </trkpt>
      <trkpt lat="46.4720260" lon="6.8162230">
        <ele>429.8</ele>
        <time>2019-02-24T10:58:35Z</time>
      </trkpt>
      <trkpt lat="46.4720330" lon="6.8162530">
        <ele>429.7</ele>
        <time>2019-02-24T10:58:36Z</time>
      </trkpt>
      <trkpt lat="46.4720380" lon="6.8162830">
        <ele>429.7</ele>
        <time>2019-02-24T10:58:37Z</time>
      </trkpt>
      <trkpt lat="46.4720430" lon="6.8163120">
        <ele>429.7</ele>
        <time>2019-02-24T10:58:38Z</time>
      </trkpt>
      <trkpt lat="46.4720480" lon="6.8163420">
        <ele>429.7</ele>
        <time>2019-02-24T10:58:39Z</time>
      </trkpt>
      <trkpt lat="46.4720520" lon="6.8163710">
        <ele>429.7</ele>
        <time>2019-02-24T10:58:40Z</time>
      </trkpt>
      <trkpt lat="46.4720550" lon="6.8164000">
        <ele>429.7</ele>
        <time>2019-02-24T10:58:41Z</time>
      </trkpt>
      <trkpt lat="46.4720580" lon="6.8164280">
        <ele>429.7</ele>
        <time>2019-02-24T10:58:42Z</time>
      </trkpt>
      <trkpt lat="46.4720600" lon="6.8164570">
        <ele>429.7</ele>
        <time>2019-02-24T10:58:43Z</time>
      </trkpt>
      <trkpt lat="46.4720610" lon="6.8164850">
        <ele>429.7</ele>
        <time>2019-02-24T10:58:44Z</time>
      </trkpt>
      <trkpt lat="46.4720620" lon="6.8165130">
        <ele>429.6</ele>
        <time>2019-02-24T10:58:45Z</time>
      </trkpt>
      <trkpt lat="46.4720620" lon="6.8165410">
        <ele>429.6</ele>
        <time>2019-02-24T10:58:46Z</time>
      </trkpt>
      <trkpt lat="46.4720610" lon="6.8165690">
        <ele>429.6</ele>
        <time>2019-02-24T10:58:47Z</time>
      </trkpt>
      <trkpt lat="46.4720600" lon="6.8165960">
        <ele>429.6</ele>
        <time>2019-02-24T10:58:48Z</time>
      </trkpt>
      <trkpt lat="46.4720580" lon="6.8166230">
        <ele>429.6</ele>
        <time>2019-02-24T10:58:49Z</time>
      </trkpt>
      <trkpt lat="46.4720550" lon="6.8166500">
        <ele>429.6</ele>
        <time>2019-02-24T10:58:50Z</time>
      </trkpt>
      <trkpt lat="46.4720520" lon="6.8166770">
        <ele>429.4</ele>
        <time>2019-02-24T10:58:51Z</time>
      </trkpt>
      <trkpt lat="46.4720490" lon="6.8167030">
        <ele>429.3</ele>
        <time>2019-02-24T10:58:52Z</time>
      </trkpt>
      <trkpt lat="46.4720450" lon="6.8167300">
        <ele>429.2</ele>
        <time>2019-02-24T10:58:53Z</time>
      </trkpt>
      <trkpt lat="46.4720410" lon="6.8167560">
        <ele>429.1</ele>
        <time>2019-02-24T10:58:54Z</time>
      </trkpt>
      <trkpt lat="46.4720360" lon="6.8167810">
        <ele>429.0</ele>
        <time>2019-02-24T10:58:55Z</time>
      </trkpt>
      <trkpt lat="46.4720310" lon="6.8168070">
        <ele>428.9</ele>
        <time>2019-02-24T10:58:56Z</time>
      </trkpt>
      <trkpt lat="46.4720260" lon="6.8168320">
        <ele>428.8</ele>
        <time>2019-02-24T10:58:57Z</time>
      </trkpt>
      <trkpt lat="46.4720200" lon="6.8168570">
        <ele>428.7</ele>
        <time>2019-02-24T10:58:58Z</time>
      </trkpt>
      <trkpt lat="46.4720140" lon="6.8168820">
        <ele>428.7</ele>
        <time>2019-02-24T10:58:59Z</time>
      </trkpt>
      <trkpt lat="46.4720080" lon="6.8169060">
        <ele>428.6</ele>
        <time>2019-02-24T10:59:00Z</time>
      </trkpt>
      <trkpt lat="46.4720020" lon="6.8169300">
        <ele>428.5</ele>
        <time>2019-02-24T10:59:01Z</time>
      </trkpt>
      <trkpt lat="46.4719950" lon="6.8169550">
        <ele>428.4</ele>
        <time>2019-02-24T10:59:02Z</time>
      </trkpt>
      <trkpt lat="46.4719890" lon="6.8169790">
        <ele>428.4</ele>
        <time>2019-02-24T10:59:03Z</time>
      </trkpt>
      <trkpt lat="46.4719820" lon="6.8170030">
        <ele>428.3</ele>
        <time>2019-02-24T10:59:04Z</time>
      </trkpt>
      <trkpt lat="46.4719760" lon="6.8170280">
        <ele>428.2</ele>
        <time>2019-02-24T10:59:05Z</time>
      </trkpt>
      <trkpt lat="46.4719690" lon="6.8170520">
        <ele>428.1</ele>
        <time>2019-02-24T10:59:06Z</time>
      </trkpt>
      <trkpt lat="46.4719630" lon="6.8170780">
        <ele>428.1</ele>
        <time>2019-02-24T10:59:07Z</time>
      </trkpt>
      <trkpt lat="46.4719570" lon="6.8171040">
        <ele>428.0</ele>
        <time>2019-02-24T10:59:08Z</time>
      </trkpt>
      <trkpt lat="46.4719520" lon="6.8171300">
        <ele>427.9</ele>
        <time>2019-02-24T10:59:09Z</time>
      </trkpt>
      <trkpt lat="46.4719470" lon="6.8171570">
        <ele>427.9</ele>
        <time>2019-02-24T10:59:10Z</time>
      </trkpt>
      <trkpt lat="46.4719420" lon="6.8171860">
        <ele>427.8</ele>
        <time>2019-02-24T10:59:11Z</time>
      </trkpt>
      <trkpt lat="46.4719380" lon="6.8172150">
        <ele>427.7</ele>
        <time>2019-02-24T10:59:12Z</time>
      </trkpt>
      <trkpt lat="46.4719340" lon="6.8172450">
        <ele>427.7</ele>
        <time>2019-02-24T10:59:13Z</time>
      </trkpt>
      <trkpt lat="46.4719310" lon="6.8172760">
        <ele>427.6</ele>
        <time>2019-02-24T10:59:14Z</time>
      </trkpt>
      <trkpt lat="46.4719280" lon="6.8173080">
        <ele>427.5</ele>
        <time>2019-02-24T10:59:15Z</time>
      </trkpt>
      <trkpt lat="46.4719270" lon="6.8173420">
        <ele>427.4</ele>
        <time>2019-02-24T10:59:16Z</time>
      </trkpt>
      <trkpt lat="46.4719260" lon="6.8173770">
        <ele>427.3</ele>
        <time>2019-02-24T10:59:17Z</time>
      </trkpt>
      <trkpt lat="46.4719260" lon="6.8174130">
        <ele>427.3</ele>
        <time>2019-02-24T10:59:18Z</time>
      </trkpt>
      <trkpt lat="46.4719270" lon="6.8174490">
        <ele>427.2</ele>
        <time>2019-02-24T10:59:19Z</time>
      </trkpt>
      <trkpt lat="46.4719280" lon="6.8174860">
        <ele>427.1</ele>
        <time>2019-02-24T10:59:20Z</time>
      </trkpt>
      <trkpt lat="46.4719310" lon="6.8175230">
        <ele>427.3</ele>
        <time>2019-02-24T10:59:21Z</time>
      </trkpt>
      <trkpt lat="46.4719340" lon="6.8175590">
        <ele>427.4</ele>
        <time>2019-02-24T10:59:22Z</time>
      </trkpt>
      <trkpt lat="46.4719380" lon="6.8175950">
        <ele>427.5</ele>
        <time>2019-02-24T10:59:23Z</time>
      </trkpt>
      <trkpt lat="46.4719430" lon="6.8176300">
        <ele>427.6</ele>
        <time>2019-02-24T10:59:24Z</time>
      </trkpt>
      <trkpt lat="46.4719480" lon="6.8176650">
        <ele>427.7</ele>
        <time>2019-02-24T10:59:25Z</time>
      </trkpt>
      <trkpt lat="46.4719530" lon="6.8176990">
        <ele>427.8</ele>
        <time>2019-02-24T10:59:26Z</time>
      </trkpt>
      <trkpt lat="46.4719560" lon="6.8177320">
        <ele>427.9</ele>
        <time>2019-02-24T10:59:27Z</time>
      </trkpt>
      <trkpt lat="46.4719570" lon="6.8177640">
        <ele>428.0</ele>
        <time>2019-02-24T10:59:28Z</time>
      </trkpt>
      <trkpt lat="46.4719570" lon="6.8177970">
        <ele>428.1</ele>
        <time>2019-02-24T10:59:29Z</time>
      </trkpt>
      <trkpt lat="46.4719550" lon="6.8178290">
        <ele>428.1</ele>
        <time>2019-02-24T10:59:30Z</time>
      </trkpt>
      <trkpt lat="46.4719540" lon="6.8178620">
        <ele>428.2</ele>
        <time>2019-02-24T10:59:31Z</time>
      </trkpt>
      <trkpt lat="46.4719520" lon="6.8178950">
        <ele>428.3</ele>
        <time>2019-02-24T10:59:32Z</time>
      </trkpt>
      <trkpt lat="46.4719510" lon="6.8179280">
        <ele>428.4</ele>
        <time>2019-02-24T10:59:33Z</time>
      </trkpt>
      <trkpt lat="46.4719500" lon="6.8179620">
        <ele>428.5</ele>
        <time>2019-02-24T10:59:34Z</time>
      </trkpt>
      <trkpt lat="46.4719490" lon="6.8179950">
        <ele>428.6</ele>
        <time>2019-02-24T10:59:35Z</time>
      </trkpt>
      <trkpt lat="46.4719480" lon="6.8180290">
        <ele>428.7</ele>
        <time>2019-02-24T10:59:36Z</time>
      </trkpt>
      <trkpt lat="46.4719470" lon="6.8180630">
        <ele>428.8</ele>
        <time>2019-02-24T10:59:37Z</time>
      </trkpt>
      <trkpt lat="46.4719460" lon="6.8180960">
        <ele>428.9</ele>
        <time>2019-02-24T10:59:38Z</time>
      </trkpt>
      <trkpt lat="46.4719460" lon="6.8181290">
        <ele>429.0</ele>
        <time>2019-02-24T10:59:39Z</time>
      </trkpt>
      <trkpt lat="46.4719460" lon="6.8181610">
        <ele>429.1</ele>
        <time>2019-02-24T10:59:40Z</time>
      </trkpt>
      <trkpt lat="46.4719470" lon="6.8181940">
        <ele>429.2</ele>
        <time>2019-02-24T10:59:41Z</time>
      </trkpt>
      <trkpt lat="46.4719490" lon="6.8182270">
        <ele>429.3</ele>
        <time>2019-02-24T10:59:42Z</time>
      </trkpt>
      <trkpt lat="46.4719500" lon="6.8182610">
        <ele>429.4</ele>
        <time>2019-02-24T10:59:43Z</time>
      </trkpt>
      <trkpt lat="46.4719520" lon="6.8182970">
        <ele>429.5</ele>
        <time>2019-02-24T10:59:44Z</time>
      </trkpt>
      <trkpt lat="46.4719540" lon="6.8183340">
        <ele>429.7</ele>
        <time>2019-02-24T10:59:45Z</time>
      </trkpt>
      <trkpt lat="46.4719560" lon="6.8183720">
        <ele>429.8</ele>
        <time>2019-02-24T10:59:46Z</time>
      </trkpt>
      <trkpt lat="46.4719570" lon="6.8184100">
        <ele>430.0</ele>
        <time>2019-02-24T10:59:47Z</time>
      </trkpt>
      <trkpt lat="46.4719590" lon="6.8184480">
        <ele>430.1</ele>
        <time>2019-02-24T10:59:48Z</time>
      </trkpt>
      <trkpt lat="46.4719610" lon="6.8184860">
        <ele>430.2</ele>
        <time>2019-02-24T10:59:49Z</time>
      </trkpt>
      <trkpt lat="46.4719640" lon="6.8185230">
        <ele>430.4</ele>
        <time>2019-02-24T10:59:50Z</time>
      </trkpt>
      <trkpt lat="46.4719660" lon="6.8185600">
        <ele>430.6</ele>
        <time>2019-02-24T10:59:51Z</time>
      </trkpt>
      <trkpt lat="46.4719680" lon="6.8185980">
        <ele>430.8</ele>
        <time>2019-02-24T10:59:52Z</time>
      </trkpt>
      <trkpt lat="46.4719700" lon="6.8186350">
        <ele>430.9</ele>
        <time>2019-02-24T10:59:53Z</time>
      </trkpt>
      <trkpt lat="46.4719730" lon="6.8186720">
        <ele>431.1</ele>
        <time>2019-02-24T10:59:54Z</time>
      </trkpt>
      <trkpt lat="46.4719760" lon="6.8187080">
        <ele>431.3</ele>
        <time>2019-02-24T10:59:55Z</time>
      </trkpt>
      <trkpt lat="46.4719780" lon="6.8187450">
        <ele>431.5</ele>
        <time>2019-02-24T10:59:56Z</time>
      </trkpt>
      <trkpt lat="46.4719810" lon="6.8187820">
        <ele>431.7</ele>
        <time>2019-02-24T10:59:57Z</time>
      </trkpt>
      <trkpt lat="46.4719840" lon="6.8188190">
        <ele>431.9</ele>
        <time>2019-02-24T10:59:58Z</time>
      </trkpt>
      <trkpt lat="46.4719870" lon="6.8188550">
        <ele>432.1</ele>
        <time>2019-02-24T10:59:59Z</time>
      </trkpt>
      <trkpt lat="46.4719900" lon="6.8188920">
        <ele>432.3</ele>
        <time>2019-02-24T11:00:00Z</time>
      </trkpt>
      <trkpt lat="46.4719930" lon="6.8189280">
        <ele>432.5</ele>
        <time>2019-02-24T11:00:01Z</time>
      </trkpt>
      <trkpt lat="46.4719960" lon="6.8189650">
        <ele>432.7</ele>
        <time>2019-02-24T11:00:02Z</time>
      </trkpt>
      <trkpt lat="46.4720000" lon="6.8190020">
        <ele>432.9</ele>
        <time>2019-02-24T11:00:03Z</time>
      </trkpt>
      <trkpt lat="46.4720030" lon="6.8190390">
        <ele>433.1</ele>
        <time>2019-02-24T11:00:04Z</time>
      </trkpt>
      <trkpt lat="46.4720070" lon="6.8190750">
        <ele>433.4</ele>
        <time>2019-02-24T11:00:05Z</time>
      </trkpt>
      <trkpt lat="46.4720100" lon="6.8191120">
        <ele>433.6</ele>
        <time>2019-02-24T11:00:06Z</time>
      </trkpt>
      <trkpt lat="46.4720140" lon="6.8191490">
        <ele>433.8</ele>
        <time>2019-02-24T11:00:07Z</time>
      </trkpt>
      <trkpt lat="46.4720180" lon="6.8191860">
        <ele>434.1</ele>
        <time>2019-02-24T11:00:08Z</time>
      </trkpt>
      <trkpt lat="46.4720220" lon="6.8192230">
        <ele>434.3</ele>
        <time>2019-02-24T11:00:09Z</time>
      </trkpt>
      <trkpt lat="46.4720260" lon="6.8192590">
        <ele>434.5</ele>
        <time>2019-02-24T11:00:10Z</time>
      </trkpt>
      <trkpt lat="46.4720300" lon="6.8192960">
        <ele>434.8</ele>
        <time>2019-02-24T11:00:11Z</time>
      </trkpt>
      <trkpt lat="46.4720340" lon="6.8193320">
        <ele>435.0</ele>
        <time>2019-02-24T11:00:12Z</time>
      </trkpt>
      <trkpt lat="46.4720390" lon="6.8193670">
        <ele>435.2</ele>
        <time>2019-02-24T11:00:13Z</time>
      </trkpt>
      <trkpt lat="46.4720430" lon="6.8194020">
        <ele>435.4</ele>
        <time>2019-02-24T11:00:14Z</time>
      </trkpt>
      <trkpt lat="46.4720480" lon="6.8194370">
        <ele>435.6</ele>
        <time>2019-02-24T11:00:15Z</time>
      </trkpt>
      <trkpt lat="46.4720530" lon="6.8194710">
        <ele>435.8</ele>
        <time>2019-02-24T11:00:16Z</time>
      </trkpt>
      <trkpt lat="46.4720590" lon="6.8195040">
        <ele>436.0</ele>
        <time>2019-02-24T11:00:17Z</time>
      </trkpt>
      <trkpt lat="46.4720640" lon="6.8195370">
        <ele>436.2</ele>
        <time>2019-02-24T11:00:18Z</time>
      </trkpt>
      <trkpt lat="46.4720700" lon="6.8195690">
        <ele>436.3</ele>
        <time>2019-02-24T11:00:19Z</time>
      </trkpt>
      <trkpt lat="46.4720760" lon="6.8196000">
        <ele>436.5</ele>
        <time>2019-02-24T11:00:20Z</time>
      </trkpt>
      <trkpt lat="46.4720820" lon="6.8196300">
        <ele>436.7</ele>
        <time>2019-02-24T11:00:21Z</time>
      </trkpt>
      <trkpt lat="46.4720890" lon="6.8196610">
        <ele>437.1</ele>
        <time>2019-02-24T11:00:22Z</time>
      </trkpt>
      <trkpt lat="46.4720970" lon="6.8196930">
        <ele>437.3</ele>
        <time>2019-02-24T11:00:23Z</time>
      </trkpt>
      <trkpt lat="46.4721060" lon="6.8197270">
        <ele>437.7</ele>
        <time>2019-02-24T11:00:24Z</time>
      </trkpt>
      <trkpt lat="46.4721170" lon="6.8197640">
        <ele>438.0</ele>
        <time>2019-02-24T11:00:25Z</time>
      </trkpt>
      <trkpt lat="46.4721280" lon="6.8198040">
        <ele>438.3</ele>
        <time>2019-02-24T11:00:26Z</time>
      </trkpt>
      <trkpt lat="46.4721380" lon="6.8198450">
        <ele>438.6</ele>
        <time>2019-02-24T11:00:27Z</time>
      </trkpt>
      <trkpt lat="46.4721460" lon="6.8198870">
        <ele>438.9</ele>
        <time>2019-02-24T11:00:28Z</time>
      </trkpt>
      <trkpt lat="46.4721500" lon="6.8199290">
        <ele>439.2</ele>
        <time>2019-02-24T11:00:29Z</time>
      </trkpt>
      <trkpt lat="46.4721510" lon="6.8199700">
        <ele>439.4</ele>
        <time>2019-02-24T11:00:30Z</time>
      </trkpt>
      <trkpt lat="46.4721520" lon="6.8200110">
        <ele>439.7</ele>
        <time>2019-02-24T11:00:31Z</time>
      </trkpt>
      <trkpt lat="46.4721520" lon="6.8200510">
        <ele>439.9</ele>
        <time>2019-02-24T11:00:32Z</time>
      </trkpt>
      <trkpt lat="46.4721550" lon="6.8200900">
        <ele>440.1</ele>
        <time>2019-02-24T11:00:33Z</time>
      </trkpt>
      <trkpt lat="46.4721590" lon="6.8201280">
        <ele>440.3</ele>
        <time>2019-02-24T11:00:34Z</time>
      </trkpt>
      <trkpt lat="46.4721640" lon="6.8201640">
        <ele>440.4</ele>
        <time>2019-02-24T11:00:35Z</time>
      </trkpt>
      <trkpt lat="46.4721700" lon="6.8202000">
        <ele>440.6</ele>
        <time>2019-02-24T11:00:36Z</time>
      </trkpt>
      <trkpt lat="46.4721760" lon="6.8202340">
        <ele>440.7</ele>
        <time>2019-02-24T11:00:37Z</time>
      </trkpt>
      <trkpt lat="46.4721810" lon="6.8202670">
        <ele>440.9</ele>
        <time>2019-02-24T11:00:38Z</time>
      </trkpt>
      <trkpt lat="46.4721870" lon="6.8202980">
        <ele>441.0</ele>
        <time>2019-02-24T11:00:39Z</time>
      </trkpt>
      <trkpt lat="46.4721920" lon="6.8203290">
        <ele>441.1</ele>
        <time>2019-02-24T11:00:40Z</time>
      </trkpt>
      <trkpt lat="46.4721980" lon="6.8203600">
        <ele>441.3</ele>
        <time>2019-02-24T11:00:41Z</time>
      </trkpt>
      <trkpt lat="46.4722020" lon="6.8203900">
        <ele>441.4</ele>
        <time>2019-02-24T11:00:42Z</time>
      </trkpt>
      <trkpt lat="46.4722070" lon="6.8204200">
        <ele>441.5</ele>
        <time>2019-02-24T11:00:43Z</time>
      </trkpt>
      <trkpt lat="46.4722100" lon="6.8204500">
        <ele>441.6</ele>
        <time>2019-02-24T11:00:44Z</time>
      </trkpt>
      <trkpt lat="46.4722140" lon="6.8204800">
        <ele>441.8</ele>
        <time>2019-02-24T11:00:45Z</time>
      </trkpt>
      <trkpt lat="46.4722160" lon="6.8205100">
        <ele>441.9</ele>
        <time>2019-02-24T11:00:46Z</time>
      </trkpt>
      <trkpt lat="46.4722190" lon="6.8205410">
        <ele>442.0</ele>
        <time>2019-02-24T11:00:47Z</time>
      </trkpt>
      <trkpt lat="46.4722210" lon="6.8205710">
        <ele>442.2</ele>
        <time>2019-02-24T11:00:48Z</time>
      </trkpt>
      <trkpt lat="46.4722220" lon="6.8206010">
        <ele>442.3</ele>
        <time>2019-02-24T11:00:49Z</time>
      </trkpt>
      <trkpt lat="46.4722240" lon="6.8206320">
        <ele>442.4</ele>
        <time>2019-02-24T11:00:50Z</time>
      </trkpt>
      <trkpt lat="46.4722250" lon="6.8206620">
        <ele>442.6</ele>
        <time>2019-02-24T11:00:51Z</time>
      </trkpt>
      <trkpt lat="46.4722260" lon="6.8206920">
        <ele>442.7</ele>
        <time>2019-02-24T11:00:52Z</time>
      </trkpt>
      <trkpt lat="46.4722280" lon="6.8207220">
        <ele>442.9</ele>
        <time>2019-02-24T11:00:53Z</time>
      </trkpt>
      <trkpt lat="46.4722290" lon="6.8207520">
        <ele>443.0</ele>
        <time>2019-02-24T11:00:54Z</time>
      </trkpt>
      <trkpt lat="46.4722310" lon="6.8207820">
        <ele>443.2</ele>
        <time>2019-02-24T11:00:55Z</time>
      </trkpt>
      <trkpt lat="46.4722320" lon="6.8208120">
        <ele>443.3</ele>
        <time>2019-02-24T11:00:56Z</time>
      </trkpt>
      <trkpt lat="46.4722330" lon="6.8208420">
        <ele>443.5</ele>
        <time>2019-02-24T11:00:57Z</time>
      </trkpt>
      <trkpt lat="46.4722330" lon="6.8208730">
        <ele>443.7</ele>
        <time>2019-02-24T11:00:58Z</time>
      </trkpt>
      <trkpt lat="46.4722330" lon="6.8209040">
        <ele>443.7</ele>
        <time>2019-02-24T11:00:59Z</time>
      </trkpt>
      <trkpt lat="46.4722320" lon="6.8209360">
        <ele>443.7</ele>
        <time>2019-02-24T11:01:00Z</time>
      </trkpt>
      <trkpt lat="46.4722300" lon="6.8209690">
        <ele>443.7</ele>
        <time>2019-02-24T11:01:01Z</time>
      </trkpt>
      <trkpt lat="46.4722280" lon="6.8210020">
        <ele>443.7</ele>
        <time>2019-02-24T11:01:02Z</time>
      </trkpt>
      <trkpt lat="46.4722250" lon="6.8210360">
        <ele>443.7</ele>
        <time>2019-02-24T11:01:03Z</time>
      </trkpt>
      <trkpt lat="46.4722220" lon="6.8210700">
        <ele>443.7</ele>
        <time>2019-02-24T11:01:04Z</time>
      </trkpt>
      <trkpt lat="46.4722180" lon="6.8211040">
        <ele>443.7</ele>
        <time>2019-02-24T11:01:05Z</time>
      </trkpt>
      <trkpt lat="46.4722140" lon="6.8211380">
        <ele>443.7</ele>
        <time>2019-02-24T11:01:06Z</time>
      </trkpt>
      <trkpt lat="46.4722110" lon="6.8211730">
        <ele>443.7</ele>
        <time>2019-02-24T11:01:07Z</time>
      </trkpt>
      <trkpt lat="46.4722070" lon="6.8212070">
        <ele>443.7</ele>
        <time>2019-02-24T11:01:08Z</time>
      </trkpt>
      <trkpt lat="46.4722030" lon="6.8212410">
        <ele>443.7</ele>
        <time>2019-02-24T11:01:09Z</time>
      </trkpt>
      <trkpt lat="46.4722000" lon="6.8212740">
        <ele>443.7</ele>
        <time>2019-02-24T11:01:10Z</time>
      </trkpt>
      <trkpt lat="46.4721960" lon="6.8213080">
        <ele>443.7</ele>
        <time>2019-02-24T11:01:11Z</time>
      </trkpt>
      <trkpt lat="46.4721930" lon="6.8213420">
        <ele>443.6</ele>
        <time>2019-02-24T11:01:12Z</time>
      </trkpt>
      <trkpt lat="46.4721910" lon="6.8213770">
        <ele>443.6</ele>
        <time>2019-02-24T11:01:13Z</time>
      </trkpt>
      <trkpt lat="46.4721880" lon="6.8214120">
        <ele>443.6</ele>
        <time>2019-02-24T11:01:14Z</time>
      </trkpt>
      <trkpt lat="46.4721860" lon="6.8214480">
        <ele>443.6</ele>
        <time>2019-02-24T11:01:15Z</time>
      </trkpt>
      <trkpt lat="46.4721840" lon="6.8214850">
        <ele>443.6</ele>
        <time>2019-02-24T11:01:16Z</time>
      </trkpt>
      <trkpt lat="46.4721830" lon="6.8215230">
        <ele>443.6</ele>
        <time>2019-02-24T11:01:17Z</time>
      </trkpt>
      <trkpt lat="46.4721820" lon="6.8215630">
        <ele>443.5</ele>
        <time>2019-02-24T11:01:18Z</time>
      </trkpt>
      <trkpt lat="46.4721810" lon="6.8216040">
        <ele>443.5</ele>
        <time>2019-02-24T11:01:19Z</time>
      </trkpt>
      <trkpt lat="46.4721800" lon="6.8216460">
        <ele>443.5</ele>
        <time>2019-02-24T11:01:20Z</time>
      </trkpt>
      <trkpt lat="46.4721790" lon="6.8216900">
        <ele>443.5</ele>
        <time>2019-02-24T11:01:21Z</time>
      </trkpt>
      <trkpt lat="46.4721780" lon="6.8217350">
        <ele>443.4</ele>
        <time>2019-02-24T11:01:22Z</time>
      </trkpt>
      <trkpt lat="46.4721760" lon="6.8217820">
        <ele>443.4</ele>
        <time>2019-02-24T11:01:23Z</time>
      </trkpt>
      <trkpt lat="46.4721720" lon="6.8218650">
        <ele>443.4</ele>
        <time>2019-02-24T11:01:24Z</time>
      </trkpt>
      <trkpt lat="46.4721700" lon="6.8218990">
        <ele>443.6</ele>
        <time>2019-02-24T11:01:25Z</time>
      </trkpt>
      <trkpt lat="46.4721680" lon="6.8219330">
        <ele>443.7</ele>
        <time>2019-02-24T11:01:26Z</time>
      </trkpt>
      <trkpt lat="46.4721640" lon="6.8219860">
        <ele>444.0</ele>
        <time>2019-02-24T11:01:27Z</time>
      </trkpt>
      <trkpt lat="46.4721600" lon="6.8220410">
        <ele>444.2</ele>
        <time>2019-02-24T11:01:28Z</time>
      </trkpt>
      <trkpt lat="46.4721550" lon="6.8220970">
        <ele>444.4</ele>
        <time>2019-02-24T11:01:29Z</time>
      </trkpt>
      <trkpt lat="46.4721500" lon="6.8221530">
        <ele>444.6</ele>
        <time>2019-02-24T11:01:30Z</time>
      </trkpt>
      <trkpt lat="46.4721450" lon="6.8222110">
        <ele>444.7</ele>
        <time>2019-02-24T11:01:31Z</time>
      </trkpt>
      <trkpt lat="46.4721400" lon="6.8222690">
        <ele>444.8</ele>
        <time>2019-02-24T11:01:32Z</time>
      </trkpt>
      <trkpt lat="46.4721350" lon="6.8223270">
        <ele>444.9</ele>
        <time>2019-02-24T11:01:33Z</time>
      </trkpt>
      <trkpt lat="46.4721300" lon="6.8223860">
        <ele>444.9</ele>
        <time>2019-02-24T11:01:34Z</time>
      </trkpt>
      <trkpt lat="46.4721250" lon="6.8224450">
        <ele>444.9</ele>
        <time>2019-02-24T11:01:35Z</time>
      </trkpt>
      <trkpt lat="46.4721190" lon="6.8225040">
        <ele>444.9</ele>
        <time>2019-02-24T11:01:36Z</time>
      </trkpt>
      <trkpt lat="46.4721140" lon="6.8225630">
        <ele>444.9</ele>
        <time>2019-02-24T11:01:37Z</time>
      </trkpt>
      <trkpt lat="46.4721080" lon="6.8226220">
        <ele>444.8</ele>
        <time>2019-02-24T11:01:38Z</time>
      </trkpt>
      <trkpt lat="46.4721010" lon="6.8226810">
        <ele>444.8</ele>
        <time>2019-02-24T11:01:39Z</time>
      </trkpt>
      <trkpt lat="46.4720940" lon="6.8227400">
        <ele>444.7</ele>
        <time>2019-02-24T11:01:40Z</time>
      </trkpt>
      <trkpt lat="46.4720860" lon="6.8227980">
        <ele>444.6</ele>
        <time>2019-02-24T11:01:41Z</time>
      </trkpt>
      <trkpt lat="46.4720790" lon="6.8228560">
        <ele>444.5</ele>
        <time>2019-02-24T11:01:42Z</time>
      </trkpt>
      <trkpt lat="46.4720730" lon="6.8229150">
        <ele>444.4</ele>
        <time>2019-02-24T11:01:43Z</time>
      </trkpt>
      <trkpt lat="46.4720680" lon="6.8229760">
        <ele>444.3</ele>
        <time>2019-02-24T11:01:44Z</time>
      </trkpt>
      <trkpt lat="46.4720650" lon="6.8230370">
        <ele>444.2</ele>
        <time>2019-02-24T11:01:45Z</time>
      </trkpt>
      <trkpt lat="46.4720630" lon="6.8231000">
        <ele>444.1</ele>
        <time>2019-02-24T11:01:46Z</time>
      </trkpt>
      <trkpt lat="46.4720590" lon="6.8231640">
        <ele>444.0</ele>
        <time>2019-02-24T11:01:47Z</time>
      </trkpt>
      <trkpt lat="46.4720530" lon="6.8232280">
        <ele>443.9</ele>
        <time>2019-02-24T11:01:48Z</time>
      </trkpt>
      <trkpt lat="46.4720410" lon="6.8232930">
        <ele>443.8</ele>
        <time>2019-02-24T11:01:49Z</time>
      </trkpt>
      <trkpt lat="46.4720270" lon="6.8233590">
        <ele>443.7</ele>
        <time>2019-02-24T11:01:50Z</time>
      </trkpt>
      <trkpt lat="46.4720090" lon="6.8234260">
        <ele>443.3</ele>
        <time>2019-02-24T11:01:51Z</time>
      </trkpt>
      <trkpt lat="46.4719910" lon="6.8234970">
        <ele>443.0</ele>
        <time>2019-02-24T11:01:52Z</time>
      </trkpt>
      <trkpt lat="46.4719730" lon="6.8235690">
        <ele>442.7</ele>
        <time>2019-02-24T11:01:53Z</time>
      </trkpt>
      <trkpt lat="46.4719490" lon="6.8236820">
        <ele>442.2</ele>
        <time>2019-02-24T11:01:54Z</time>
      </trkpt>
      <trkpt lat="46.4719410" lon="6.8237200">
        <ele>442.1</ele>
        <time>2019-02-24T11:01:55Z</time>
      </trkpt>
      <trkpt lat="46.4719300" lon="6.8237960">
        <ele>441.7</ele>
        <time>2019-02-24T11:01:56Z</time>
      </trkpt>
      <trkpt lat="46.4719220" lon="6.8238710">
        <ele>441.9</ele>
        <time>2019-02-24T11:01:57Z</time>
      </trkpt>
      <trkpt lat="46.4719180" lon="6.8239440">
        <ele>442.1</ele>
        <time>2019-02-24T11:01:58Z</time>
      </trkpt>
      <trkpt lat="46.4719170" lon="6.8240170">
        <ele>442.3</ele>
        <time>2019-02-24T11:01:59Z</time>
      </trkpt>
      <trkpt lat="46.4719180" lon="6.8240880">
        <ele>442.5</ele>
        <time>2019-02-24T11:02:00Z</time>
      </trkpt>
      <trkpt lat="46.4719210" lon="6.8241580">
        <ele>442.6</ele>
        <time>2019-02-24T11:02:01Z</time>
      </trkpt>
      <trkpt lat="46.4719240" lon="6.8242280">
        <ele>442.7</ele>
        <time>2019-02-24T11:02:02Z</time>
      </trkpt>
      <trkpt lat="46.4719280" lon="6.8242960">
        <ele>442.8</ele>
        <time>2019-02-24T11:02:03Z</time>
      </trkpt>
      <trkpt lat="46.4719310" lon="6.8243640">
        <ele>442.9</ele>
        <time>2019-02-24T11:02:04Z</time>
      </trkpt>
      <trkpt lat="46.4719320" lon="6.8244320">
        <ele>442.9</ele>
        <time>2019-02-24T11:02:05Z</time>
      </trkpt>
      <trkpt lat="46.4719310" lon="6.8245000">
        <ele>443.0</ele>
        <time>2019-02-24T11:02:06Z</time>
      </trkpt>
      <trkpt lat="46.4719290" lon="6.8245680">
        <ele>443.1</ele>
        <time>2019-02-24T11:02:07Z</time>
      </trkpt>
      <trkpt lat="46.4719250" lon="6.8246350">
        <ele>443.2</ele>
        <time>2019-02-24T11:02:08Z</time>
      </trkpt>
      <trkpt lat="46.4719190" lon="6.8247020">
        <ele>443.4</ele>
        <time>2019-02-24T11:02:09Z</time>
      </trkpt>
      <trkpt lat="46.4719130" lon="6.8247680">
        <ele>443.5</ele>
        <time>2019-02-24T11:02:10Z</time>
      </trkpt>
      <trkpt lat="46.4719050" lon="6.8248330">
        <ele>443.7</ele>
        <time>2019-02-24T11:02:11Z</time>
      </trkpt>
      <trkpt lat="46.4718980" lon="6.8248970">
        <ele>443.9</ele>
        <time>2019-02-24T11:02:12Z</time>
      </trkpt>
      <trkpt lat="46.4718910" lon="6.8249590">
        <ele>444.0</ele>
        <time>2019-02-24T11:02:13Z</time>
      </trkpt>
      <trkpt lat="46.4718840" lon="6.8250190">
        <ele>444.2</ele>
        <time>2019-02-24T11:02:14Z</time>
      </trkpt>
      <trkpt lat="46.4718770" lon="6.8250770">
        <ele>444.3</ele>
        <time>2019-02-24T11:02:15Z</time>
      </trkpt>
      <trkpt lat="46.4718700" lon="6.8251330">
        <ele>444.5</ele>
        <time>2019-02-24T11:02:16Z</time>
      </trkpt>
      <trkpt lat="46.4718640" lon="6.8251880">
        <ele>444.4</ele>
        <time>2019-02-24T11:02:17Z</time>
      </trkpt>
      <trkpt lat="46.4718580" lon="6.8252420">
        <ele>444.4</ele>
        <time>2019-02-24T11:02:18Z</time>
      </trkpt>
      <trkpt lat="46.4718520" lon="6.8252950">
        <ele>444.4</ele>
        <time>2019-02-24T11:02:19Z</time>
      </trkpt>
      <trkpt lat="46.4718460" lon="6.8253460">
        <ele>444.4</ele>
        <time>2019-02-24T11:02:20Z</time>
      </trkpt>
      <trkpt lat="46.4718400" lon="6.8253970">
        <ele>444.4</ele>
        <time>2019-02-24T11:02:21Z</time>
      </trkpt>
      <trkpt lat="46.4718330" lon="6.8254470">
        <ele>444.3</ele>
        <time>2019-02-24T11:02:22Z</time>
      </trkpt>
      <trkpt lat="46.4718270" lon="6.8254960">
        <ele>444.3</ele>
        <time>2019-02-24T11:02:23Z</time>
      </trkpt>
      <trkpt lat="46.4718210" lon="6.8255450">
        <ele>444.3</ele>
        <time>2019-02-24T11:02:24Z</time>
      </trkpt>
      <trkpt lat="46.4718140" lon="6.8255940">
        <ele>444.2</ele>
        <time>2019-02-24T11:02:25Z</time>
      </trkpt>
      <trkpt lat="46.4718070" lon="6.8256430">
        <ele>444.1</ele>
        <time>2019-02-24T11:02:26Z</time>
      </trkpt>
      <trkpt lat="46.4718000" lon="6.8256930">
        <ele>444.0</ele>
        <time>2019-02-24T11:02:27Z</time>
      </trkpt>
      <trkpt lat="46.4717920" lon="6.8257430">
        <ele>443.9</ele>
        <time>2019-02-24T11:02:28Z</time>
      </trkpt>
      <trkpt lat="46.4717830" lon="6.8257940">
        <ele>443.7</ele>
        <time>2019-02-24T11:02:29Z</time>
      </trkpt>
      <trkpt lat="46.4717740" lon="6.8258460">
        <ele>443.5</ele>
        <time>2019-02-24T11:02:30Z</time>
      </trkpt>
      <trkpt lat="46.4717650" lon="6.8258980">
        <ele>443.3</ele>
        <time>2019-02-24T11:02:31Z</time>
      </trkpt>
      <trkpt lat="46.4717550" lon="6.8259520">
        <ele>443.1</ele>
        <time>2019-02-24T11:02:32Z</time>
      </trkpt>
      <trkpt lat="46.4717430" lon="6.8260060">
        <ele>442.9</ele>
        <time>2019-02-24T11:02:33Z</time>
      </trkpt>
      <trkpt lat="46.4717320" lon="6.8260610">
        <ele>442.8</ele>
        <time>2019-02-24T11:02:34Z</time>
      </trkpt>
      <trkpt lat="46.4717190" lon="6.8261160">
        <ele>442.7</ele>
        <time>2019-02-24T11:02:35Z</time>
      </trkpt>
      <trkpt lat="46.4717050" lon="6.8261720">
        <ele>442.6</ele>
        <time>2019-02-24T11:02:36Z</time>
      </trkpt>
      <trkpt lat="46.4716910" lon="6.8262290">
        <ele>442.5</ele>
        <time>2019-02-24T11:02:37Z</time>
      </trkpt>
      <trkpt lat="46.4716750" lon="6.8262850">
        <ele>442.5</ele>
        <time>2019-02-24T11:02:38Z</time>
      </trkpt>
      <trkpt lat="46.4716600" lon="6.8263410">
        <ele>442.3</ele>
        <time>2019-02-24T11:02:39Z</time>
      </trkpt>
      <trkpt lat="46.4716470" lon="6.8263940">
        <ele>442.1</ele>
        <time>2019-02-24T11:02:40Z</time>
      </trkpt>
      <trkpt lat="46.4716380" lon="6.8264460">
        <ele>442.0</ele>
        <time>2019-02-24T11:02:41Z</time>
      </trkpt>
      <trkpt lat="46.4716320" lon="6.8264930">
        <ele>441.9</ele>
        <time>2019-02-24T11:02:42Z</time>
      </trkpt>
      <trkpt lat="46.4716290" lon="6.8265390">
        <ele>441.8</ele>
        <time>2019-02-24T11:02:43Z</time>
      </trkpt>
      <trkpt lat="46.4716260" lon="6.8265840">
        <ele>441.7</ele>
        <time>2019-02-24T11:02:44Z</time>
      </trkpt>
      <trkpt lat="46.4716200" lon="6.8266300">
        <ele>441.6</ele>
        <time>2019-02-24T11:02:45Z</time>
      </trkpt>
      <trkpt lat="46.4716090" lon="6.8266780">
        <ele>441.5</ele>
        <time>2019-02-24T11:02:46Z</time>
      </trkpt>
      <trkpt lat="46.4715950" lon="6.8267290">
        <ele>441.3</ele>
        <time>2019-02-24T11:02:47Z</time>
      </trkpt>
      <trkpt lat="46.4715780" lon="6.8267820">
        <ele>441.2</ele>
        <time>2019-02-24T11:02:48Z</time>
      </trkpt>
      <trkpt lat="46.4715590" lon="6.8268370">
        <ele>441.0</ele>
        <time>2019-02-24T11:02:49Z</time>
      </trkpt>
      <trkpt lat="46.4715390" lon="6.8268950">
        <ele>440.8</ele>
        <time>2019-02-24T11:02:50Z</time>
      </trkpt>
      <trkpt lat="46.4715190" lon="6.8269550">
        <ele>440.5</ele>
        <time>2019-02-24T11:02:51Z</time>
      </trkpt>
      <trkpt lat="46.4715010" lon="6.8270180">
        <ele>440.4</ele>
        <time>2019-02-24T11:02:52Z</time>
      </trkpt>
      <trkpt lat="46.4714840" lon="6.8270830">
        <ele>440.3</ele>
        <time>2019-02-24T11:02:53Z</time>
      </trkpt>
      <trkpt lat="46.4714640" lon="6.8271980">
        <ele>440.0</ele>
        <time>2019-02-24T11:02:54Z</time>
      </trkpt>
      <trkpt lat="46.4714560" lon="6.8272460">
        <ele>440.0</ele>
        <time>2019-02-24T11:02:55Z</time>
      </trkpt>
      <trkpt lat="46.4714490" lon="6.8272930">
        <ele>439.9</ele>
        <time>2019-02-24T11:02:56Z</time>
      </trkpt>
      <trkpt lat="46.4714380" lon="6.8273670">
        <ele>439.8</ele>
        <time>2019-02-24T11:02:57Z</time>
      </trkpt>
      <trkpt lat="46.4714260" lon="6.8274440">
        <ele>439.7</ele>
        <time>2019-02-24T11:02:58Z</time>
      </trkpt>
      <trkpt lat="46.4714130" lon="6.8275220">
        <ele>439.7</ele>
        <time>2019-02-24T11:02:59Z</time>
      </trkpt>
      <trkpt lat="46.4714000" lon="6.8276020">
        <ele>439.7</ele>
        <time>2019-02-24T11:03:00Z</time>
      </trkpt>
      <trkpt lat="46.4713890" lon="6.8276840">
        <ele>439.8</ele>
        <time>2019-02-24T11:03:01Z</time>
      </trkpt>
      <trkpt lat="46.4713790" lon="6.8277660">
        <ele>439.8</ele>
        <time>2019-02-24T11:03:02Z</time>
      </trkpt>
      <trkpt lat="46.4713730" lon="6.8278490">
        <ele>439.9</ele>
        <time>2019-02-24T11:03:03Z</time>
      </trkpt>
      <trkpt lat="46.4713690" lon="6.8279310">
        <ele>440.2</ele>
        <time>2019-02-24T11:03:04Z</time>
      </trkpt>
      <trkpt lat="46.4713670" lon="6.8280100">
        <ele>440.2</ele>
        <time>2019-02-24T11:03:05Z</time>
      </trkpt>
      <trkpt lat="46.4713680" lon="6.8280860">
        <ele>440.2</ele>
        <time>2019-02-24T11:03:06Z</time>
      </trkpt>
      <trkpt lat="46.4713710" lon="6.8281580">
        <ele>440.2</ele>
        <time>2019-02-24T11:03:07Z</time>
      </trkpt>
      <trkpt lat="46.4713740" lon="6.8282260">
        <ele>440.2</ele>
        <time>2019-02-24T11:03:08Z</time>
      </trkpt>
      <trkpt lat="46.4713780" lon="6.8282890">
        <ele>440.3</ele>
        <time>2019-02-24T11:03:09Z</time>
      </trkpt>
      <trkpt lat="46.4713800" lon="6.8283490">
        <ele>440.3</ele>
        <time>2019-02-24T11:03:10Z</time>
      </trkpt>
      <trkpt lat="46.4713820" lon="6.8284040">
        <ele>440.4</ele>
        <time>2019-02-24T11:03:11Z</time>
      </trkpt>
      <trkpt lat="46.4713830" lon="6.8284560">
        <ele>440.5</ele>
        <time>2019-02-24T11:03:12Z</time>
      </trkpt>
      <trkpt lat="46.4713840" lon="6.8285050">
        <ele>440.6</ele>
        <time>2019-02-24T11:03:13Z</time>
      </trkpt>
      <trkpt lat="46.4713850" lon="6.8285520">
        <ele>440.7</ele>
        <time>2019-02-24T11:03:14Z</time>
      </trkpt>
      <trkpt lat="46.4713870" lon="6.8285960">
        <ele>440.8</ele>
        <time>2019-02-24T11:03:15Z</time>
      </trkpt>
      <trkpt lat="46.4713890" lon="6.8286390">
        <ele>440.9</ele>
        <time>2019-02-24T11:03:16Z</time>
      </trkpt>
      <trkpt lat="46.4713930" lon="6.8286800">
        <ele>440.9</ele>
        <time>2019-02-24T11:03:17Z</time>
      </trkpt>
      <trkpt lat="46.4713990" lon="6.8287210">
        <ele>441.0</ele>
        <time>2019-02-24T11:03:18Z</time>
      </trkpt>
      <trkpt lat="46.4714060" lon="6.8287610">
        <ele>441.0</ele>
        <time>2019-02-24T11:03:19Z</time>
      </trkpt>
      <trkpt lat="46.4714140" lon="6.8288010">
        <ele>441.1</ele>
        <time>2019-02-24T11:03:20Z</time>
      </trkpt>
      <trkpt lat="46.4714240" lon="6.8288400">
        <ele>441.1</ele>
        <time>2019-02-24T11:03:21Z</time>
      </trkpt>
      <trkpt lat="46.4714350" lon="6.8288790">
        <ele>441.2</ele>
        <time>2019-02-24T11:03:22Z</time>
      </trkpt>
      <trkpt lat="46.4714470" lon="6.8289180">
        <ele>441.2</ele>
        <time>2019-02-24T11:03:23Z</time>
      </trkpt>
      <trkpt lat="46.4714600" lon="6.8289570">
        <ele>441.2</ele>
        <time>2019-02-24T11:03:24Z</time>
      </trkpt>
      <trkpt lat="46.4714740" lon="6.8289970">
        <ele>441.3</ele>
        <time>2019-02-24T11:03:25Z</time>
      </trkpt>
      <trkpt lat="46.4714890" lon="6.8290360">
        <ele>441.4</ele>
        <time>2019-02-24T11:03:26Z</time>
      </trkpt>
      <trkpt lat="46.4715050" lon="6.8290760">
        <ele>441.4</ele>
        <time>2019-02-24T11:03:27Z</time>
      </trkpt>
      <trkpt lat="46.4715220" lon="6.8291160">
        <ele>441.5</ele>
        <time>2019-02-24T11:03:28Z</time>
      </trkpt>
      <trkpt lat="46.4715390" lon="6.8291570">
        <ele>441.6</ele>
        <time>2019-02-24T11:03:29Z</time>
      </trkpt>
      <trkpt lat="46.4715560" lon="6.8291990">
        <ele>441.7</ele>
        <time>2019-02-24T11:03:30Z</time>
      </trkpt>
      <trkpt lat="46.4715740" lon="6.8292410">
        <ele>441.9</ele>
        <time>2019-02-24T11:03:31Z</time>
      </trkpt>
      <trkpt lat="46.4715930" lon="6.8292840">
        <ele>442.0</ele>
        <time>2019-02-24T11:03:32Z</time>
      </trkpt>
      <trkpt lat="46.4716110" lon="6.8293290">
        <ele>442.1</ele>
        <time>2019-02-24T11:03:33Z</time>
      </trkpt>
      <trkpt lat="46.4716300" lon="6.8293740">
        <ele>442.2</ele>
        <time>2019-02-24T11:03:34Z</time>
      </trkpt>
      <trkpt lat="46.4716490" lon="6.8294210">
        <ele>442.4</ele>
        <time>2019-02-24T11:03:35Z</time>
      </trkpt>
      <trkpt lat="46.4716680" lon="6.8294680">
        <ele>442.5</ele>
        <time>2019-02-24T11:03:36Z</time>
      </trkpt>
      <trkpt lat="46.4716870" lon="6.8295170">
        <ele>442.6</ele>
        <time>2019-02-24T11:03:37Z</time>
      </trkpt>
      <trkpt lat="46.4717060" lon="6.8295660">
        <ele>442.7</ele>
        <time>2019-02-24T11:03:38Z</time>
      </trkpt>
      <trkpt lat="46.4717250" lon="6.8296150">
        <ele>442.8</ele>
        <time>2019-02-24T11:03:39Z</time>
      </trkpt>
      <trkpt lat="46.4717440" lon="6.8296650">
        <ele>442.8</ele>
        <time>2019-02-24T11:03:40Z</time>
      </trkpt>
      <trkpt lat="46.4717640" lon="6.8297150">
        <ele>442.7</ele>
        <time>2019-02-24T11:03:41Z</time>
      </trkpt>
      <trkpt lat="46.4717830" lon="6.8297660">
        <ele>442.7</ele>
        <time>2019-02-24T11:03:42Z</time>
      </trkpt>
      <trkpt lat="46.4718020" lon="6.8298170">
        <ele>442.6</ele>
        <time>2019-02-24T11:03:43Z</time>
      </trkpt>
      <trkpt lat="46.4718210" lon="6.8298690">
        <ele>442.5</ele>
        <time>2019-02-24T11:03:44Z</time>
      </trkpt>
      <trkpt lat="46.4718390" lon="6.8299230">
        <ele>442.4</ele>
        <time>2019-02-24T11:03:45Z</time>
      </trkpt>
      <trkpt lat="46.4718560" lon="6.8299790">
        <ele>442.3</ele>
        <time>2019-02-24T11:03:46Z</time>
      </trkpt>
      <trkpt lat="46.4718720" lon="6.8300380">
        <ele>442.2</ele>
        <time>2019-02-24T11:03:47Z</time>
      </trkpt>
      <trkpt lat="46.4718880" lon="6.8300990">
        <ele>442.2</ele>
        <time>2019-02-24T11:03:48Z</time>
      </trkpt>
      <trkpt lat="46.4719080" lon="6.8301990">
        <ele>442.1</ele>
        <time>2019-02-24T11:03:49Z</time>
      </trkpt>
      <trkpt lat="46.4719140" lon="6.8302340">
        <ele>442.1</ele>
        <time>2019-02-24T11:03:50Z</time>
      </trkpt>
      <trkpt lat="46.4719240" lon="6.8303060">
        <ele>442.1</ele>
        <time>2019-02-24T11:03:51Z</time>
      </trkpt>
      <trkpt lat="46.4719330" lon="6.8303810">
        <ele>442.1</ele>
        <time>2019-02-24T11:03:52Z</time>
      </trkpt>
      <trkpt lat="46.4719390" lon="6.8304580">
        <ele>442.1</ele>
        <time>2019-02-24T11:03:53Z</time>
      </trkpt>
      <trkpt lat="46.4719450" lon="6.8305750">
        <ele>442.1</ele>
        <time>2019-02-24T11:03:54Z</time>
      </trkpt>
      <trkpt lat="46.4719460" lon="6.8306140">
        <ele>442.1</ele>
        <time>2019-02-24T11:03:55Z</time>
      </trkpt>
      <trkpt lat="46.4719450" lon="6.8306920">
        <ele>442.1</ele>
        <time>2019-02-24T11:03:56Z</time>
      </trkpt>
      <trkpt lat="46.4719420" lon="6.8307680">
        <ele>441.6</ele>
        <time>2019-02-24T11:03:57Z</time>
      </trkpt>
      <trkpt lat="46.4719360" lon="6.8308430">
        <ele>441.1</ele>
        <time>2019-02-24T11:03:58Z</time>
      </trkpt>
      <trkpt lat="46.4719270" lon="6.8309150">
        <ele>440.6</ele>
        <time>2019-02-24T11:03:59Z</time>
      </trkpt>
      <trkpt lat="46.4719160" lon="6.8309830">
        <ele>440.2</ele>
        <time>2019-02-24T11:04:00Z</time>
      </trkpt>
      <trkpt lat="46.4719020" lon="6.8310470">
        <ele>439.8</ele>
        <time>2019-02-24T11:04:01Z</time>
      </trkpt>
      <trkpt lat="46.4718850" lon="6.8311050">
        <ele>439.3</ele>
        <time>2019-02-24T11:04:02Z</time>
      </trkpt>
      <trkpt lat="46.4718690" lon="6.8311610">
        <ele>438.6</ele>
        <time>2019-02-24T11:04:03Z</time>
      </trkpt>
      <trkpt lat="46.4718550" lon="6.8312160">
        <ele>438.6</ele>
        <time>2019-02-24T11:04:04Z</time>
      </trkpt>
      <trkpt lat="46.4718490" lon="6.8312720">
        <ele>438.6</ele>
        <time>2019-02-24T11:04:05Z</time>
      </trkpt>
      <trkpt lat="46.4718420" lon="6.8313280">
        <ele>438.6</ele>
        <time>2019-02-24T11:04:06Z</time>
      </trkpt>
      <trkpt lat="46.4718430" lon="6.8313880">
        <ele>438.8</ele>
        <time>2019-02-24T11:04:07Z</time>
      </trkpt>
      <trkpt lat="46.4718480" lon="6.8314480">
        <ele>438.9</ele>
        <time>2019-02-24T11:04:08Z</time>
      </trkpt>
      <trkpt lat="46.4718540" lon="6.8315080">
        <ele>439.1</ele>
        <time>2019-02-24T11:04:09Z</time>
      </trkpt>
      <trkpt lat="46.4718610" lon="6.8315660">
        <ele>439.3</ele>
        <time>2019-02-24T11:04:10Z</time>
      </trkpt>
      <trkpt lat="46.4718670" lon="6.8316590">
        <ele>439.6</ele>
        <time>2019-02-24T11:04:11Z</time>
      </trkpt>
      <trkpt lat="46.4718680" lon="6.8316960">
        <ele>439.7</ele>
        <time>2019-02-24T11:04:12Z</time>
      </trkpt>
      <trkpt lat="46.4718700" lon="6.8317320">
        <ele>439.8</ele>
        <time>2019-02-24T11:04:13Z</time>
      </trkpt>
      <trkpt lat="46.4718720" lon="6.8317860">
        <ele>440.0</ele>
        <time>2019-02-24T11:04:14Z</time>
      </trkpt>
      <trkpt lat="46.4718730" lon="6.8318410">
        <ele>440.1</ele>
        <time>2019-02-24T11:04:15Z</time>
      </trkpt>
      <trkpt lat="46.4718740" lon="6.8319330">
        <ele>440.4</ele>
        <time>2019-02-24T11:04:16Z</time>
      </trkpt>
      <trkpt lat="46.4718750" lon="6.8319710">
        <ele>440.5</ele>
        <time>2019-02-24T11:04:17Z</time>
      </trkpt>
      <trkpt lat="46.4718750" lon="6.8320080">
        <ele>440.7</ele>
        <time>2019-02-24T11:04:18Z</time>
      </trkpt>
      <trkpt lat="46.4718760" lon="6.8320640">
        <ele>440.8</ele>
        <time>2019-02-24T11:04:19Z</time>
      </trkpt>
      <trkpt lat="46.4718770" lon="6.8321200">
        <ele>440.9</ele>
        <time>2019-02-24T11:04:20Z</time>
      </trkpt>
      <trkpt lat="46.4718770" lon="6.8321760">
        <ele>441.0</ele>
        <time>2019-02-24T11:04:21Z</time>
      </trkpt>
      <trkpt lat="46.4718780" lon="6.8322320">
        <ele>441.1</ele>
        <time>2019-02-24T11:04:22Z</time>
      </trkpt>
      <trkpt lat="46.4718780" lon="6.8322870">
        <ele>441.2</ele>
        <time>2019-02-24T11:04:23Z</time>
      </trkpt>
      <trkpt lat="46.4718780" lon="6.8323420">
        <ele>441.4</ele>
        <time>2019-02-24T11:04:24Z</time>
      </trkpt>
      <trkpt lat="46.4718790" lon="6.8323970">
        <ele>441.5</ele>
        <time>2019-02-24T11:04:25Z</time>
      </trkpt>
      <trkpt lat="46.4718790" lon="6.8324520">
        <ele>441.6</ele>
        <time>2019-02-24T11:04:26Z</time>
      </trkpt>
      <trkpt lat="46.4718800" lon="6.8325060">
        <ele>441.8</ele>
        <time>2019-02-24T11:04:27Z</time>
      </trkpt>
      <trkpt lat="46.4718800" lon="6.8325600">
        <ele>441.9</ele>
        <time>2019-02-24T11:04:28Z</time>
      </trkpt>
      <trkpt lat="46.4718800" lon="6.8326130">
        <ele>442.0</ele>
        <time>2019-02-24T11:04:29Z</time>
      </trkpt>
      <trkpt lat="46.4718800" lon="6.8326660">
        <ele>442.2</ele>
        <time>2019-02-24T11:04:30Z</time>
      </trkpt>
      <trkpt lat="46.4718800" lon="6.8327180">
        <ele>442.4</ele>
        <time>2019-02-24T11:04:31Z</time>
      </trkpt>
      <trkpt lat="46.4718800" lon="6.8327700">
        <ele>442.5</ele>
        <time>2019-02-24T11:04:32Z</time>
      </trkpt>
      <trkpt lat="46.4718800" lon="6.8328210">
        <ele>442.6</ele>
        <time>2019-02-24T11:04:33Z</time>
      </trkpt>
      <trkpt lat="46.4718800" lon="6.8328720">
        <ele>442.6</ele>
        <time>2019-02-24T11:04:34Z</time>
      </trkpt>
      <trkpt lat="46.4718800" lon="6.8329220">
        <ele>442.7</ele>
        <time>2019-02-24T11:04:35Z</time>
      </trkpt>
      <trkpt lat="46.4718800" lon="6.8329710">
        <ele>442.8</ele>
        <time>2019-02-24T11:04:36Z</time>
      </trkpt>
      <trkpt lat="46.4718790" lon="6.8330200">
        <ele>442.9</ele>
        <time>2019-02-24T11:04:37Z</time>
      </trkpt>
      <trkpt lat="46.4718790" lon="6.8330680">
        <ele>443.0</ele>
        <time>2019-02-24T11:04:38Z</time>
      </trkpt>
      <trkpt lat="46.4718780" lon="6.8331160">
        <ele>443.1</ele>
        <time>2019-02-24T11:04:39Z</time>
      </trkpt>
      <trkpt lat="46.4718770" lon="6.8331630">
        <ele>443.1</ele>
        <time>2019-02-24T11:04:40Z</time>
      </trkpt>
      <trkpt lat="46.4718770" lon="6.8332090">
        <ele>443.2</ele>
        <time>2019-02-24T11:04:41Z</time>
      </trkpt>
      <trkpt lat="46.4718770" lon="6.8332540">
        <ele>443.3</ele>
        <time>2019-02-24T11:04:42Z</time>
      </trkpt>
      <trkpt lat="46.4718770" lon="6.8332990">
        <ele>443.4</ele>
        <time>2019-02-24T11:04:43Z</time>
      </trkpt>
      <trkpt lat="46.4718770" lon="6.8333440">
        <ele>443.5</ele>
        <time>2019-02-24T11:04:44Z</time>
      </trkpt>
      <trkpt lat="46.4718790" lon="6.8333870">
        <ele>443.6</ele>
        <time>2019-02-24T11:04:45Z</time>
      </trkpt>
      <trkpt lat="46.4718800" lon="6.8334300">
        <ele>443.8</ele>
        <time>2019-02-24T11:04:46Z</time>
      </trkpt>
      <trkpt lat="46.4718830" lon="6.8334730">
        <ele>443.9</ele>
        <time>2019-02-24T11:04:47Z</time>
      </trkpt>
      <trkpt lat="46.4718860" lon="6.8335150">
        <ele>444.5</ele>
        <time>2019-02-24T11:04:48Z</time>
      </trkpt>
      <trkpt lat="46.4718890" lon="6.8335560">
        <ele>444.9</ele>
        <time>2019-02-24T11:04:49Z</time>
      </trkpt>
      <trkpt lat="46.4718910" lon="6.8335970">
        <ele>445.3</ele>
        <time>2019-02-24T11:04:50Z</time>
      </trkpt>
      <trkpt lat="46.4718930" lon="6.8336390">
        <ele>445.7</ele>
        <time>2019-02-24T11:04:51Z</time>
      </trkpt>
      <trkpt lat="46.4718940" lon="6.8336800">
        <ele>446.5</ele>
        <time>2019-02-24T11:04:52Z</time>
      </trkpt>
      <trkpt lat="46.4718920" lon="6.8337210">
        <ele>446.5</ele>
        <time>2019-02-24T11:04:53Z</time>
      </trkpt>
      <trkpt lat="46.4718890" lon="6.8337620">
        <ele>446.5</ele>
        <time>2019-02-24T11:04:54Z</time>
      </trkpt>
      <trkpt lat="46.4718830" lon="6.8338030">
        <ele>446.5</ele>
        <time>2019-02-24T11:04:55Z</time>
      </trkpt>
      <trkpt lat="46.4718730" lon="6.8338470">
        <ele>446.5</ele>
        <time>2019-02-24T11:04:56Z</time>
      </trkpt>
      <trkpt lat="46.4718580" lon="6.8338930">
        <ele>446.4</ele>
        <time>2019-02-24T11:04:57Z</time>
      </trkpt>
      <trkpt lat="46.4718370" lon="6.8339430">
        <ele>446.4</ele>
        <time>2019-02-24T11:04:58Z</time>
      </trkpt>
      <trkpt lat="46.4718090" lon="6.8339990">
        <ele>445.9</ele>
        <time>2019-02-24T11:04:59Z</time>
      </trkpt>
      <trkpt lat="46.4717760" lon="6.8340590">
        <ele>445.6</ele>
        <time>2019-02-24T11:05:00Z</time>
      </trkpt>
      <trkpt lat="46.4717170" lon="6.8341630">
        <ele>444.9</ele>
        <time>2019-02-24T11:05:01Z</time>
      </trkpt>
      <trkpt lat="46.4716940" lon="6.8342050">
        <ele>444.7</ele>
        <time>2019-02-24T11:05:02Z</time>
      </trkpt>
      <trkpt lat="46.4716700" lon="6.8342470">
        <ele>444.9</ele>
        <time>2019-02-24T11:05:03Z</time>
      </trkpt>
      <trkpt lat="46.4716390" lon="6.8343100">
        <ele>444.2</ele>
        <time>2019-02-24T11:05:04Z</time>
      </trkpt>
      <trkpt lat="46.4716100" lon="6.8343740">
        <ele>443.4</ele>
        <time>2019-02-24T11:05:05Z</time>
      </trkpt>
      <trkpt lat="46.4715730" lon="6.8344770">
        <ele>442.2</ele>
        <time>2019-02-24T11:05:06Z</time>
      </trkpt>
      <trkpt lat="46.4715620" lon="6.8345120">
        <ele>441.8</ele>
        <time>2019-02-24T11:05:07Z</time>
      </trkpt>
      <trkpt lat="46.4715420" lon="6.8345850">
        <ele>441.0</ele>
        <time>2019-02-24T11:05:08Z</time>
      </trkpt>
      <trkpt lat="46.4715220" lon="6.8346620">
        <ele>440.4</ele>
        <time>2019-02-24T11:05:09Z</time>
      </trkpt>
      <trkpt lat="46.4714990" lon="6.8347400">
        <ele>439.8</ele>
        <time>2019-02-24T11:05:10Z</time>
      </trkpt>
      <trkpt lat="46.4714730" lon="6.8348190">
        <ele>439.3</ele>
        <time>2019-02-24T11:05:11Z</time>
      </trkpt>
      <trkpt lat="46.4714420" lon="6.8349000">
        <ele>438.9</ele>
        <time>2019-02-24T11:05:12Z</time>
      </trkpt>
      <trkpt lat="46.4714070" lon="6.8349810">
        <ele>438.5</ele>
        <time>2019-02-24T11:05:13Z</time>
      </trkpt>
      <trkpt lat="46.4713680" lon="6.8350620">
        <ele>438.0</ele>
        <time>2019-02-24T11:05:14Z</time>
      </trkpt>
      <trkpt lat="46.4713250" lon="6.8351420">
        <ele>437.3</ele>
        <time>2019-02-24T11:05:15Z</time>
      </trkpt>
      <trkpt lat="46.4712520" lon="6.8352620">
        <ele>435.9</ele>
        <time>2019-02-24T11:05:16Z</time>
      </trkpt>
      <trkpt lat="46.4712270" lon="6.8353010">
        <ele>435.3</ele>
        <time>2019-02-24T11:05:17Z</time>
      </trkpt>
      <trkpt lat="46.4711720" lon="6.8353790">
        <ele>434.0</ele>
        <time>2019-02-24T11:05:18Z</time>
      </trkpt>
      <trkpt lat="46.4711140" lon="6.8354540">
        <ele>432.6</ele>
        <time>2019-02-24T11:05:19Z</time>
      </trkpt>
      <trkpt lat="46.4710570" lon="6.8355300">
        <ele>431.2</ele>
        <time>2019-02-24T11:05:20Z</time>
      </trkpt>
      <trkpt lat="46.4710060" lon="6.8356090">
        <ele>430.3</ele>
        <time>2019-02-24T11:05:21Z</time>
      </trkpt>
      <trkpt lat="46.4709630" lon="6.8356910">
        <ele>429.4</ele>
        <time>2019-02-24T11:05:22Z</time>
      </trkpt>
      <trkpt lat="46.4709330" lon="6.8357790">
        <ele>428.0</ele>
        <time>2019-02-24T11:05:23Z</time>
      </trkpt>
      <trkpt lat="46.4709140" lon="6.8358720">
        <ele>427.5</ele>
        <time>2019-02-24T11:05:24Z</time>
      </trkpt>
      <trkpt lat="46.4709040" lon="6.8359670">
        <ele>427.0</ele>
        <time>2019-02-24T11:05:25Z</time>
      </trkpt>
      <trkpt lat="46.4709000" lon="6.8360630">
        <ele>426.1</ele>
        <time>2019-02-24T11:05:26Z</time>
      </trkpt>
      <trkpt lat="46.4709000" lon="6.8361590">
        <ele>425.8</ele>
        <time>2019-02-24T11:05:27Z</time>
      </trkpt>
      <trkpt lat="46.4709020" lon="6.8362530">
        <ele>425.3</ele>
        <time>2019-02-24T11:05:28Z</time>
      </trkpt>
      <trkpt lat="46.4709050" lon="6.8363470">
        <ele>425.2</ele>
        <time>2019-02-24T11:05:29Z</time>
      </trkpt>
      <trkpt lat="46.4709080" lon="6.8364400">
        <ele>425.1</ele>
        <time>2019-02-24T11:05:30Z</time>
      </trkpt>
      <trkpt lat="46.4709090" lon="6.8365320">
        <ele>425.1</ele>
        <time>2019-02-24T11:05:31Z</time>
      </trkpt>
      <trkpt lat="46.4709090" lon="6.8366240">
        <ele>425.0</ele>
        <time>2019-02-24T11:05:32Z</time>
      </trkpt>
      <trkpt lat="46.4709090" lon="6.8367160">
        <ele>425.0</ele>
        <time>2019-02-24T11:05:33Z</time>
      </trkpt>
      <trkpt lat="46.4709100" lon="6.8368070">
        <ele>425.0</ele>
        <time>2019-02-24T11:05:34Z</time>
      </trkpt>
      <trkpt lat="46.4709110" lon="6.8368990">
        <ele>424.9</ele>
        <time>2019-02-24T11:05:35Z</time>
      </trkpt>
      <trkpt lat="46.4709130" lon="6.8369900">
        <ele>424.9</ele>
        <time>2019-02-24T11:05:36Z</time>
      </trkpt>
      <trkpt lat="46.4709160" lon="6.8370810">
        <ele>424.8</ele>
        <time>2019-02-24T11:05:37Z</time>
      </trkpt>
      <trkpt lat="46.4709190" lon="6.8371720">
        <ele>424.7</ele>
        <time>2019-02-24T11:05:38Z</time>
      </trkpt>
      <trkpt lat="46.4709230" lon="6.8372640">
        <ele>424.5</ele>
        <time>2019-02-24T11:05:39Z</time>
      </trkpt>
      <trkpt lat="46.4709270" lon="6.8373550">
        <ele>424.2</ele>
        <time>2019-02-24T11:05:40Z</time>
      </trkpt>
      <trkpt lat="46.4709320" lon="6.8374460">
        <ele>423.8</ele>
        <time>2019-02-24T11:05:41Z</time>
      </trkpt>
      <trkpt lat="46.4709370" lon="6.8375380">
        <ele>423.4</ele>
        <time>2019-02-24T11:05:42Z</time>
      </trkpt>
      <trkpt lat="46.4709420" lon="6.8376300">
        <ele>423.1</ele>
        <time>2019-02-24T11:05:43Z</time>
      </trkpt>
      <trkpt lat="46.4709460" lon="6.8377220">
        <ele>422.7</ele>
        <time>2019-02-24T11:05:44Z</time>
      </trkpt>
      <trkpt lat="46.4709510" lon="6.8378150">
        <ele>422.3</ele>
        <time>2019-02-24T11:05:45Z</time>
      </trkpt>
      <trkpt lat="46.4709540" lon="6.8379090">
        <ele>421.9</ele>
        <time>2019-02-24T11:05:46Z</time>
      </trkpt>
      <trkpt lat="46.4709550" lon="6.8380050">
        <ele>421.5</ele>
        <time>2019-02-24T11:05:47Z</time>
      </trkpt>
      <trkpt lat="46.4709450" lon="6.8381640">
        <ele>420.8</ele>
        <time>2019-02-24T11:05:48Z</time>
      </trkpt>
      <trkpt lat="46.4709360" lon="6.8382280">
        <ele>420.6</ele>
        <time>2019-02-24T11:05:49Z</time>
      </trkpt>
      <trkpt lat="46.4709280" lon="6.8382910">
        <ele>420.4</ele>
        <time>2019-02-24T11:05:50Z</time>
      </trkpt>
      <trkpt lat="46.4709020" lon="6.8383820">
        <ele>420.0</ele>
        <time>2019-02-24T11:05:51Z</time>
      </trkpt>
      <trkpt lat="46.4708690" lon="6.8384740">
        <ele>419.7</ele>
        <time>2019-02-24T11:05:52Z</time>
      </trkpt>
      <trkpt lat="46.4708210" lon="6.8386340">
        <ele>419.3</ele>
        <time>2019-02-24T11:05:53Z</time>
      </trkpt>
      <trkpt lat="46.4708050" lon="6.8387010">
        <ele>419.1</ele>
        <time>2019-02-24T11:05:54Z</time>
      </trkpt>
      <trkpt lat="46.4707890" lon="6.8387680">
        <ele>419.0</ele>
        <time>2019-02-24T11:05:55Z</time>
      </trkpt>
      <trkpt lat="46.4707800" lon="6.8388750">
        <ele>418.9</ele>
        <time>2019-02-24T11:05:56Z</time>
      </trkpt>
      <trkpt lat="46.4707800" lon="6.8389830">
        <ele>418.8</ele>
        <time>2019-02-24T11:05:57Z</time>
      </trkpt>
      <trkpt lat="46.4708010" lon="6.8391400">
        <ele>418.7</ele>
        <time>2019-02-24T11:05:58Z</time>
      </trkpt>
      <trkpt lat="46.4708100" lon="6.8391910">
        <ele>418.7</ele>
        <time>2019-02-24T11:05:59Z</time>
      </trkpt>
      <trkpt lat="46.4708370" lon="6.8392890">
        <ele>418.7</ele>
        <time>2019-02-24T11:06:00Z</time>
      </trkpt>
      <trkpt lat="46.4708680" lon="6.8393820">
        <ele>418.7</ele>
        <time>2019-02-24T11:06:01Z</time>
      </trkpt>
      <trkpt lat="46.4709010" lon="6.8394730">
        <ele>418.6</ele>
        <time>2019-02-24T11:06:02Z</time>
      </trkpt>
      <trkpt lat="46.4709330" lon="6.8395600">
        <ele>418.5</ele>
        <time>2019-02-24T11:06:03Z</time>
      </trkpt>
      <trkpt lat="46.4709650" lon="6.8396440">
        <ele>418.3</ele>
        <time>2019-02-24T11:06:04Z</time>
      </trkpt>
      <trkpt lat="46.4709960" lon="6.8397260">
        <ele>418.3</ele>
        <time>2019-02-24T11:06:05Z</time>
      </trkpt>
      <trkpt lat="46.4710270" lon="6.8398040">
        <ele>418.4</ele>
        <time>2019-02-24T11:06:06Z</time>
      </trkpt>
      <trkpt lat="46.4710590" lon="6.8398800">
        <ele>418.6</ele>
        <time>2019-02-24T11:06:07Z</time>
      </trkpt>
      <trkpt lat="46.4710870" lon="6.8399510">
        <ele>418.8</ele>
        <time>2019-02-24T11:06:08Z</time>
      </trkpt>
      <trkpt lat="46.4711120" lon="6.8400150">
        <ele>419.0</ele>
        <time>2019-02-24T11:06:09Z</time>
      </trkpt>
      <trkpt lat="46.4711290" lon="6.8400690">
        <ele>419.1</ele>
        <time>2019-02-24T11:06:10Z</time>
      </trkpt>
      <trkpt lat="46.4711380" lon="6.8401130">
        <ele>419.3</ele>
        <time>2019-02-24T11:06:11Z</time>
      </trkpt>
      <trkpt lat="46.4711400" lon="6.8401450">
        <ele>419.3</ele>
        <time>2019-02-24T11:06:12Z</time>
      </trkpt>
      <trkpt lat="46.4711370" lon="6.8401660">
        <ele>419.3</ele>
        <time>2019-02-24T11:06:13Z</time>
      </trkpt>
      <trkpt lat="46.4711330" lon="6.8401880">
        <ele>419.4</ele>
        <time>2019-02-24T11:06:14Z</time>
      </trkpt>
      <trkpt lat="46.4711330" lon="6.8401890">
        <ele>419.4</ele>
        <time>2019-02-24T11:06:15Z</time>
      </trkpt>
      <trkpt lat="46.4711320" lon="6.8401910">
        <ele>419.4</ele>
        <time>2019-02-24T11:06:16Z</time>
      </trkpt>
      <trkpt lat="46.4711310" lon="6.8401920">
        <ele>419.4</ele>
        <time>2019-02-24T11:06:17Z</time>
      </trkpt>
      <trkpt lat="46.4711300" lon="6.8401940">
        <ele>419.4</ele>
        <time>2019-02-24T11:06:18Z</time>
      </trkpt>
      <trkpt lat="46.4711300" lon="6.8401950">
        <ele>419.4</ele>
        <time>2019-02-24T11:06:19Z</time>
      </trkpt>
      <trkpt lat="46.4711290" lon="6.8401970">
        <ele>419.4</ele>
        <time>2019-02-24T11:06:20Z</time>
      </trkpt>
      <trkpt lat="46.4711280" lon="6.8401980">
        <ele>419.4</ele>
        <time>2019-02-24T11:06:21Z</time>
      </trkpt>
      <trkpt lat="46.4711270" lon="6.8402000">
        <ele>419.4</ele>
        <time>2019-02-24T11:06:22Z</time>
      </trkpt>
      <trkpt lat="46.4711270" lon="6.8402020">
        <ele>419.4</ele>
        <time>2019-02-24T11:06:23Z</time>
      </trkpt>
      <trkpt lat="46.4711260" lon="6.8402030">
        <ele>419.4</ele>
        <time>2019-02-24T11:06:24Z</time>
      </trkpt>
      <trkpt lat="46.4711250" lon="6.8402050">
        <ele>419.4</ele>
        <time>2019-02-24T11:06:25Z</time>
      </trkpt>
      <trkpt lat="46.4711240" lon="6.8402060">
        <ele>419.4</ele>
        <time>2019-02-24T11:06:26Z</time>
      </trkpt>
      <trkpt lat="46.4711240" lon="6.8402080">
        <ele>419.4</ele>
        <time>2019-02-24T11:06:27Z</time>
      </trkpt>
      <trkpt lat="46.4711230" lon="6.8402090">
        <ele>419.4</ele>
        <time>2019-02-24T11:06:28Z</time>
      </trkpt>
      <trkpt lat="46.4711220" lon="6.8402110">
        <ele>419.4</ele>
        <time>2019-02-24T11:06:29Z</time>
      </trkpt>
      <trkpt lat="46.4711210" lon="6.8402120">
        <ele>419.4</ele>
        <time>2019-02-24T11:06:30Z</time>
      </trkpt>
      <trkpt lat="46.4711210" lon="6.8402140">
        <ele>419.4</ele>
        <time>2019-02-24T11:06:31Z</time>
      </trkpt>
      <trkpt lat="46.4711200" lon="6.8402160">
        <ele>419.4</ele>
        <time>2019-02-24T11:06:32Z</time>
      </trkpt>
      <trkpt lat="46.4711190" lon="6.8402170">
        <ele>419.4</ele>
        <time>2019-02-24T11:06:33Z</time>
      </trkpt>
      <trkpt lat="46.4711180" lon="6.8402190">
        <ele>419.4</ele>
        <time>2019-02-24T11:06:34Z</time>
      </trkpt>
      <trkpt lat="46.4711180" lon="6.8402200">
        <ele>419.4</ele>
        <time>2019-02-24T11:06:35Z</time>
      </trkpt>
      <trkpt lat="46.4711170" lon="6.8402220">
        <ele>419.4</ele>
        <time>2019-02-24T11:06:36Z</time>
      </trkpt>
      <trkpt lat="46.4711160" lon="6.8402230">
        <ele>419.4</ele>
        <time>2019-02-24T11:06:37Z</time>
      </trkpt>
      <trkpt lat="46.4711150" lon="6.8402250">
        <ele>419.4</ele>
        <time>2019-02-24T11:06:38Z</time>
      </trkpt>
      <trkpt lat="46.4711150" lon="6.8402260">
        <ele>419.4</ele>
        <time>2019-02-24T11:06:39Z</time>
      </trkpt>
      <trkpt lat="46.4711140" lon="6.8402280">
        <ele>419.4</ele>
        <time>2019-02-24T11:06:40Z</time>
      </trkpt>
      <trkpt lat="46.4711080" lon="6.8402420">
        <ele>419.4</ele>
        <time>2019-02-24T11:06:41Z</time>
      </trkpt>
      <trkpt lat="46.4711010" lon="6.8402840">
        <ele>419.5</ele>
        <time>2019-02-24T11:06:42Z</time>
      </trkpt>
      <trkpt lat="46.4710990" lon="6.8403350">
        <ele>419.6</ele>
        <time>2019-02-24T11:06:43Z</time>
      </trkpt>
      <trkpt lat="46.4711070" lon="6.8403830">
        <ele>419.7</ele>
        <time>2019-02-24T11:06:44Z</time>
      </trkpt>
      <trkpt lat="46.4711230" lon="6.8404260">
        <ele>419.8</ele>
        <time>2019-02-24T11:06:45Z</time>
      </trkpt>
      <trkpt lat="46.4711410" lon="6.8404670">
        <ele>420.0</ele>
        <time>2019-02-24T11:06:46Z</time>
      </trkpt>
      <trkpt lat="46.4711560" lon="6.8405080">
        <ele>420.1</ele>
        <time>2019-02-24T11:06:47Z</time>
      </trkpt>
      <trkpt lat="46.4711640" lon="6.8405500">
        <ele>419.9</ele>
        <time>2019-02-24T11:06:48Z</time>
      </trkpt>
      <trkpt lat="46.4711650" lon="6.8405930">
        <ele>419.7</ele>
        <time>2019-02-24T11:06:49Z</time>
      </trkpt>
      <trkpt lat="46.4711610" lon="6.8406390">
        <ele>419.6</ele>
        <time>2019-02-24T11:06:50Z</time>
      </trkpt>
      <trkpt lat="46.4711530" lon="6.8406850">
        <ele>419.4</ele>
        <time>2019-02-24T11:06:51Z</time>
      </trkpt>
      <trkpt lat="46.4711400" lon="6.8407320">
        <ele>419.3</ele>
        <time>2019-02-24T11:06:52Z</time>
      </trkpt>
      <trkpt lat="46.4711250" lon="6.8407810">
        <ele>419.2</ele>
        <time>2019-02-24T11:06:53Z</time>
      </trkpt>
      <trkpt lat="46.4711090" lon="6.8408300">
        <ele>419.1</ele>
        <time>2019-02-24T11:06:54Z</time>
      </trkpt>
      <trkpt lat="46.4710830" lon="6.8409060">
        <ele>418.9</ele>
        <time>2019-02-24T11:06:55Z</time>
      </trkpt>
      <trkpt lat="46.4710740" lon="6.8409310">
        <ele>418.8</ele>
        <time>2019-02-24T11:06:56Z</time>
      </trkpt>
      <trkpt lat="46.4710570" lon="6.8409800">
        <ele>418.7</ele>
        <time>2019-02-24T11:06:57Z</time>
      </trkpt>
      <trkpt lat="46.4710400" lon="6.8410280">
        <ele>418.6</ele>
        <time>2019-02-24T11:06:58Z</time>
      </trkpt>
      <trkpt lat="46.4710220" lon="6.8410740">
        <ele>418.5</ele>
        <time>2019-02-24T11:06:59Z</time>
      </trkpt>
      <trkpt lat="46.4710020" lon="6.8411160">
        <ele>418.3</ele>
        <time>2019-02-24T11:07:00Z</time>
      </trkpt>
      <trkpt lat="46.4709810" lon="6.8411520">
        <ele>418.2</ele>
        <time>2019-02-24T11:07:01Z</time>
      </trkpt>
      <trkpt lat="46.4709580" lon="6.8411830">
        <ele>418.1</ele>
        <time>2019-02-24T11:07:02Z</time>
      </trkpt>
      <trkpt lat="46.4709330" lon="6.8412070">
        <ele>418.0</ele>
        <time>2019-02-24T11:07:03Z</time>
      </trkpt>
      <trkpt lat="46.4709050" lon="6.8412240">
        <ele>418.0</ele>
        <time>2019-02-24T11:07:04Z</time>
      </trkpt>
      <trkpt lat="46.4708740" lon="6.8412330">
        <ele>417.9</ele>
        <time>2019-02-24T11:07:05Z</time>
      </trkpt>
      <trkpt lat="46.4708430" lon="6.8412380">
        <ele>417.8</ele>
        <time>2019-02-24T11:07:06Z</time>
      </trkpt>
      <trkpt lat="46.4708100" lon="6.8412390">
        <ele>417.7</ele>
        <time>2019-02-24T11:07:07Z</time>
      </trkpt>
      <trkpt lat="46.4707770" lon="6.8412390">
        <ele>417.6</ele>
        <time>2019-02-24T11:07:08Z</time>
      </trkpt>
      <trkpt lat="46.4707450" lon="6.8412380">
        <ele>417.5</ele>
        <time>2019-02-24T11:07:09Z</time>
      </trkpt>
      <trkpt lat="46.4707140" lon="6.8412380">
        <ele>417.4</ele>
        <time>2019-02-24T11:07:10Z</time>
      </trkpt>
      <trkpt lat="46.4706850" lon="6.8412400">
        <ele>417.4</ele>
        <time>2019-02-24T11:07:11Z</time>
      </trkpt>
      <trkpt lat="46.4706580" lon="6.8412460">
        <ele>417.3</ele>
        <time>2019-02-24T11:07:12Z</time>
      </trkpt>
      <trkpt lat="46.4706330" lon="6.8412560">
        <ele>417.2</ele>
        <time>2019-02-24T11:07:13Z</time>
      </trkpt>
      <trkpt lat="46.4706110" lon="6.8412690">
        <ele>417.1</ele>
        <time>2019-02-24T11:07:14Z</time>
      </trkpt>
      <trkpt lat="46.4705890" lon="6.8412850">
        <ele>417.1</ele>
        <time>2019-02-24T11:07:15Z</time>
      </trkpt>
      <trkpt lat="46.4705690" lon="6.8413040">
        <ele>417.1</ele>
        <time>2019-02-24T11:07:16Z</time>
      </trkpt>
      <trkpt lat="46.4705500" lon="6.8413240">
        <ele>417.2</ele>
        <time>2019-02-24T11:07:17Z</time>
      </trkpt>
      <trkpt lat="46.4705320" lon="6.8413460">
        <ele>417.4</ele>
        <time>2019-02-24T11:07:18Z</time>
      </trkpt>
      <trkpt lat="46.4705130" lon="6.8413690">
        <ele>417.5</ele>
        <time>2019-02-24T11:07:19Z</time>
      </trkpt>
      <trkpt lat="46.4704950" lon="6.8413930">
        <ele>417.7</ele>
        <time>2019-02-24T11:07:20Z</time>
      </trkpt>
      <trkpt lat="46.4704770" lon="6.8414170">
        <ele>417.8</ele>
        <time>2019-02-24T11:07:21Z</time>
      </trkpt>
      <trkpt lat="46.4704580" lon="6.8414430">
        <ele>418.0</ele>
        <time>2019-02-24T11:07:22Z</time>
      </trkpt>
      <trkpt lat="46.4704400" lon="6.8414680">
        <ele>418.1</ele>
        <time>2019-02-24T11:07:23Z</time>
      </trkpt>
      <trkpt lat="46.4704230" lon="6.8414950">
        <ele>418.5</ele>
        <time>2019-02-24T11:07:24Z</time>
      </trkpt>
      <trkpt lat="46.4704060" lon="6.8415220">
        <ele>418.6</ele>
        <time>2019-02-24T11:07:25Z</time>
      </trkpt>
      <trkpt lat="46.4703900" lon="6.8415490">
        <ele>418.7</ele>
        <time>2019-02-24T11:07:26Z</time>
      </trkpt>
      <trkpt lat="46.4703750" lon="6.8415770">
        <ele>418.8</ele>
        <time>2019-02-24T11:07:27Z</time>
      </trkpt>
      <trkpt lat="46.4703600" lon="6.8416050">
        <ele>418.9</ele>
        <time>2019-02-24T11:07:28Z</time>
      </trkpt>
      <trkpt lat="46.4703470" lon="6.8416330">
        <ele>419.1</ele>
        <time>2019-02-24T11:07:29Z</time>
      </trkpt>
      <trkpt lat="46.4703340" lon="6.8416620">
        <ele>419.2</ele>
        <time>2019-02-24T11:07:30Z</time>
      </trkpt>
      <trkpt lat="46.4703210" lon="6.8416910">
        <ele>419.3</ele>
        <time>2019-02-24T11:07:31Z</time>
      </trkpt>
      <trkpt lat="46.4703090" lon="6.8417210">
        <ele>419.4</ele>
        <time>2019-02-24T11:07:32Z</time>
      </trkpt>
      <trkpt lat="46.4702970" lon="6.8417510">
        <ele>419.5</ele>
        <time>2019-02-24T11:07:33Z</time>
      </trkpt>
      <trkpt lat="46.4702850" lon="6.8417810">
        <ele>419.6</ele>
        <time>2019-02-24T11:07:34Z</time>
      </trkpt>
      <trkpt lat="46.4702730" lon="6.8418120">
        <ele>419.8</ele>
        <time>2019-02-24T11:07:35Z</time>
      </trkpt>
      <trkpt lat="46.4702600" lon="6.8418430">
        <ele>419.9</ele>
        <time>2019-02-24T11:07:36Z</time>
      </trkpt>
      <trkpt lat="46.4702460" lon="6.8418710">
        <ele>420.0</ele>
        <time>2019-02-24T11:07:37Z</time>
      </trkpt>
      <trkpt lat="46.4702290" lon="6.8418930">
        <ele>420.1</ele>
        <time>2019-02-24T11:07:38Z</time>
      </trkpt>
      <trkpt lat="46.4702090" lon="6.8419070">
        <ele>420.2</ele>
        <time>2019-02-24T11:07:39Z</time>
      </trkpt>
      <trkpt lat="46.4701850" lon="6.8419100">
        <ele>420.3</ele>
        <time>2019-02-24T11:07:40Z</time>
      </trkpt>
      <trkpt lat="46.4701590" lon="6.8419020">
        <ele>420.3</ele>
        <time>2019-02-24T11:07:41Z</time>
      </trkpt>
      <trkpt lat="46.4701340" lon="6.8418860">
        <ele>420.2</ele>
        <time>2019-02-24T11:07:42Z</time>
      </trkpt>
      <trkpt lat="46.4701130" lon="6.8418620">
        <ele>420.1</ele>
        <time>2019-02-24T11:07:43Z</time>
      </trkpt>
      <trkpt lat="46.4700980" lon="6.8418320">
        <ele>420.1</ele>
        <time>2019-02-24T11:07:44Z</time>
      </trkpt>
      <trkpt lat="46.4700820" lon="6.8417810">
        <ele>420.0</ele>
        <time>2019-02-24T11:07:45Z</time>
      </trkpt>
      <trkpt lat="46.4700760" lon="6.8417640">
        <ele>420.0</ele>
        <time>2019-02-24T11:07:46Z</time>
      </trkpt>
      <trkpt lat="46.4700620" lon="6.8417320">
        <ele>419.9</ele>
        <time>2019-02-24T11:07:47Z</time>
      </trkpt>
      <trkpt lat="46.4700410" lon="6.8417030">
        <ele>419.8</ele>
        <time>2019-02-24T11:07:48Z</time>
      </trkpt>
      <trkpt lat="46.4700150" lon="6.8416800">
        <ele>419.8</ele>
        <time>2019-02-24T11:07:49Z</time>
      </trkpt>
      <trkpt lat="46.4699850" lon="6.8416630">
        <ele>419.7</ele>
        <time>2019-02-24T11:07:50Z</time>
      </trkpt>
      <trkpt lat="46.4699530" lon="6.8416530">
        <ele>419.6</ele>
        <time>2019-02-24T11:07:51Z</time>
      </trkpt>
      <trkpt lat="46.4699190" lon="6.8416500">
        <ele>419.6</ele>
        <time>2019-02-24T11:07:52Z</time>
      </trkpt>
      <trkpt lat="46.4698840" lon="6.8416540">
        <ele>419.3</ele>
        <time>2019-02-24T11:07:53Z</time>
      </trkpt>
      <trkpt lat="46.4698480" lon="6.8416640">
        <ele>419.0</ele>
        <time>2019-02-24T11:07:54Z</time>
      </trkpt>
      <trkpt lat="46.4698100" lon="6.8416790">
        <ele>418.8</ele>
        <time>2019-02-24T11:07:55Z</time>
      </trkpt>
      <trkpt lat="46.4697700" lon="6.8416970">
        <ele>418.5</ele>
        <time>2019-02-24T11:07:56Z</time>
      </trkpt>
      <trkpt lat="46.4697290" lon="6.8417190">
        <ele>418.3</ele>
        <time>2019-02-24T11:07:57Z</time>
      </trkpt>
      <trkpt lat="46.4696850" lon="6.8417420">
        <ele>418.1</ele>
        <time>2019-02-24T11:07:58Z</time>
      </trkpt>
      <trkpt lat="46.4696390" lon="6.8417660">
        <ele>417.7</ele>
        <time>2019-02-24T11:07:59Z</time>
      </trkpt>
      <trkpt lat="46.4695910" lon="6.8417900">
        <ele>417.4</ele>
        <time>2019-02-24T11:08:00Z</time>
      </trkpt>
      <trkpt lat="46.4695410" lon="6.8418160">
        <ele>417.0</ele>
        <time>2019-02-24T11:08:01Z</time>
      </trkpt>
      <trkpt lat="46.4694900" lon="6.8418430">
        <ele>416.6</ele>
        <time>2019-02-24T11:08:02Z</time>
      </trkpt>
      <trkpt lat="46.4694370" lon="6.8418740">
        <ele>416.1</ele>
        <time>2019-02-24T11:08:03Z</time>
      </trkpt>
      <trkpt lat="46.4693850" lon="6.8419090">
        <ele>415.7</ele>
        <time>2019-02-24T11:08:04Z</time>
      </trkpt>
      <trkpt lat="46.4692990" lon="6.8419820">
        <ele>415.0</ele>
        <time>2019-02-24T11:08:05Z</time>
      </trkpt>
      <trkpt lat="46.4692650" lon="6.8420160">
        <ele>414.6</ele>
        <time>2019-02-24T11:08:06Z</time>
      </trkpt>
      <trkpt lat="46.4692310" lon="6.8420490">
        <ele>413.9</ele>
        <time>2019-02-24T11:08:07Z</time>
      </trkpt>
      <trkpt lat="46.4691830" lon="6.8421110">
        <ele>413.3</ele>
        <time>2019-02-24T11:08:08Z</time>
      </trkpt>
      <trkpt lat="46.4691170" lon="6.8422210">
        <ele>412.3</ele>
        <time>2019-02-24T11:08:09Z</time>
      </trkpt>
      <trkpt lat="46.4690960" lon="6.8422610">
        <ele>411.9</ele>
        <time>2019-02-24T11:08:10Z</time>
      </trkpt>
      <trkpt lat="46.4690540" lon="6.8423410">
        <ele>411.2</ele>
        <time>2019-02-24T11:08:11Z</time>
      </trkpt>
      <trkpt lat="46.4690160" lon="6.8424290">
        <ele>409.8</ele>
        <time>2019-02-24T11:08:12Z</time>
      </trkpt>
      <trkpt lat="46.4689810" lon="6.8425230">
        <ele>409.7</ele>
        <time>2019-02-24T11:08:13Z</time>
      </trkpt>
      <trkpt lat="46.4689490" lon="6.8426200">
        <ele>409.5</ele>
        <time>2019-02-24T11:08:14Z</time>
      </trkpt>
      <trkpt lat="46.4689210" lon="6.8427200">
        <ele>409.4</ele>
        <time>2019-02-24T11:08:15Z</time>
      </trkpt>
      <trkpt lat="46.4688960" lon="6.8428230">
        <ele>409.2</ele>
        <time>2019-02-24T11:08:16Z</time>
      </trkpt>
      <trkpt lat="46.4688760" lon="6.8429270">
        <ele>409.1</ele>
        <time>2019-02-24T11:08:17Z</time>
      </trkpt>
      <trkpt lat="46.4688580" lon="6.8430320">
        <ele>409.0</ele>
        <time>2019-02-24T11:08:18Z</time>
      </trkpt>
      <trkpt lat="46.4688450" lon="6.8431370">
        <ele>408.9</ele>
        <time>2019-02-24T11:08:19Z</time>
      </trkpt>
      <trkpt lat="46.4688340" lon="6.8432430">
        <ele>408.8</ele>
        <time>2019-02-24T11:08:20Z</time>
      </trkpt>
      <trkpt lat="46.4688270" lon="6.8433460">
        <ele>408.7</ele>
        <time>2019-02-24T11:08:21Z</time>
      </trkpt>
      <trkpt lat="46.4688230" lon="6.8434490">
        <ele>408.6</ele>
        <time>2019-02-24T11:08:22Z</time>
      </trkpt>
      <trkpt lat="46.4688230" lon="6.8435480">
        <ele>408.5</ele>
        <time>2019-02-24T11:08:23Z</time>
      </trkpt>
      <trkpt lat="46.4688250" lon="6.8436450">
        <ele>408.5</ele>
        <time>2019-02-24T11:08:24Z</time>
      </trkpt>
      <trkpt lat="46.4688290" lon="6.8437380">
        <ele>408.5</ele>
        <time>2019-02-24T11:08:25Z</time>
      </trkpt>
      <trkpt lat="46.4688330" lon="6.8438290">
        <ele>408.6</ele>
        <time>2019-02-24T11:08:26Z</time>
      </trkpt>
      <trkpt lat="46.4688350" lon="6.8439180">
        <ele>408.6</ele>
        <time>2019-02-24T11:08:27Z</time>
      </trkpt>
      <trkpt lat="46.4688340" lon="6.8440040">
        <ele>408.7</ele>
        <time>2019-02-24T11:08:28Z</time>
      </trkpt>
      <trkpt lat="46.4688290" lon="6.8440880">
        <ele>408.8</ele>
        <time>2019-02-24T11:08:29Z</time>
      </trkpt>
      <trkpt lat="46.4688190" lon="6.8441650">
        <ele>408.3</ele>
        <time>2019-02-24T11:08:30Z</time>
      </trkpt>
      <trkpt lat="46.4688050" lon="6.8442300">
        <ele>407.9</ele>
        <time>2019-02-24T11:08:31Z</time>
      </trkpt>
      <trkpt lat="46.4687880" lon="6.8442790">
        <ele>407.1</ele>
        <time>2019-02-24T11:08:32Z</time>
      </trkpt>
      <trkpt lat="46.4687680" lon="6.8443080">
        <ele>406.9</ele>
        <time>2019-02-24T11:08:33Z</time>
      </trkpt>
      <trkpt lat="46.4687470" lon="6.8443210">
        <ele>406.6</ele>
        <time>2019-02-24T11:08:34Z</time>
      </trkpt>
      <trkpt lat="46.4687270" lon="6.8443240">
        <ele>406.4</ele>
        <time>2019-02-24T11:08:35Z</time>
      </trkpt>
      <trkpt lat="46.4687120" lon="6.8443210">
        <ele>406.3</ele>
        <time>2019-02-24T11:08:36Z</time>
      </trkpt>
      <trkpt lat="46.4687030" lon="6.8443190">
        <ele>406.2</ele>
        <time>2019-02-24T11:08:37Z</time>
      </trkpt>
      <trkpt lat="46.4686980" lon="6.8443170">
        <ele>406.2</ele>
        <time>2019-02-24T11:08:38Z</time>
      </trkpt>
      <trkpt lat="46.4686970" lon="6.8443150">
        <ele>406.2</ele>
        <time>2019-02-24T11:08:39Z</time>
      </trkpt>
      <trkpt lat="46.4686970" lon="6.8443140">
        <ele>406.1</ele>
        <time>2019-02-24T11:08:40Z</time>
      </trkpt>
      <trkpt lat="46.4686980" lon="6.8443130">
        <ele>406.1</ele>
        <time>2019-02-24T11:08:41Z</time>
      </trkpt>
      <trkpt lat="46.4686980" lon="6.8443120">
        <ele>406.1</ele>
        <time>2019-02-24T11:08:42Z</time>
      </trkpt>
      <trkpt lat="46.4686980" lon="6.8443120">
        <ele>406.1</ele>
        <time>2019-02-24T11:08:43Z</time>
      </trkpt>
      <trkpt lat="46.4686990" lon="6.8443110">
        <ele>406.1</ele>
        <time>2019-02-24T11:08:44Z</time>
      </trkpt>
      <trkpt lat="46.4686990" lon="6.8443110">
        <ele>406.1</ele>
        <time>2019-02-24T11:08:45Z</time>
      </trkpt>
      <trkpt lat="46.4686990" lon="6.8443110">
        <ele>406.1</ele>
        <time>2019-02-24T11:08:46Z</time>
      </trkpt>
      <trkpt lat="46.4686990" lon="6.8443110">
        <ele>406.1</ele>
        <time>2019-02-24T11:08:47Z</time>
      </trkpt>
      <trkpt lat="46.4686990" lon="6.8443110">
        <ele>406.1</ele>
        <time>2019-02-24T11:08:48Z</time>
      </trkpt>
      <trkpt lat="46.4686990" lon="6.8443120">
        <ele>406.1</ele>
        <time>2019-02-24T11:08:49Z</time>
      </trkpt>
      <trkpt lat="46.4686990" lon="6.8443120">
        <ele>406.1</ele>
        <time>2019-02-24T11:08:50Z</time>
      </trkpt>
      <trkpt lat="46.4686990" lon="6.8443120">
        <ele>406.1</ele>
        <time>2019-02-24T11:08:51Z</time>
      </trkpt>
      <trkpt lat="46.4686990" lon="6.8443120">
        <ele>406.1</ele>
        <time>2019-02-24T11:08:52Z</time>
      </trkpt>
      <trkpt lat="46.4686990" lon="6.8443120">
        <ele>406.1</ele>
        <time>2019-02-24T11:08:53Z</time>
      </trkpt>
      <trkpt lat="46.4686990" lon="6.8443120">
        <ele>406.1</ele>
        <time>2019-02-24T11:08:54Z</time>
      </trkpt>
      <trkpt lat="46.4686990" lon="6.8443120">
        <ele>406.1</ele>
        <time>2019-02-24T11:08:55Z</time>
      </trkpt>
      <trkpt lat="46.4686990" lon="6.8443120">
        <ele>406.1</ele>
        <time>2019-02-24T11:08:56Z</time>
      </trkpt>
      <trkpt lat="46.4686980" lon="6.8443110">
        <ele>406.1</ele>
        <time>2019-02-24T11:08:57Z</time>
      </trkpt>
      <trkpt lat="46.4686900" lon="6.8443080">
        <ele>406.0</ele>
        <time>2019-02-24T11:08:58Z</time>
      </trkpt>
      <trkpt lat="46.4686710" lon="6.8443060">
        <ele>405.5</ele>
        <time>2019-02-24T11:08:59Z</time>
      </trkpt>
      <trkpt lat="46.4686500" lon="6.8443250">
        <ele>405.4</ele>
        <time>2019-02-24T11:09:00Z</time>
      </trkpt>
      <trkpt lat="46.4686400" lon="6.8443550">
        <ele>405.2</ele>
        <time>2019-02-24T11:09:01Z</time>
      </trkpt>
      <trkpt lat="46.4686390" lon="6.8443890">
        <ele>405.1</ele>
        <time>2019-02-24T11:09:02Z</time>
      </trkpt>
      <trkpt lat="46.4686430" lon="6.8444280">
        <ele>404.9</ele>
        <time>2019-02-24T11:09:03Z</time>
      </trkpt>
      <trkpt lat="46.4686450" lon="6.8445030">
        <ele>404.6</ele>
        <time>2019-02-24T11:09:04Z</time>
      </trkpt>
      <trkpt lat="46.4686420" lon="6.8445360">
        <ele>404.5</ele>
        <time>2019-02-24T11:09:05Z</time>
      </trkpt>
      <trkpt lat="46.4686400" lon="6.8445700">
        <ele>404.4</ele>
        <time>2019-02-24T11:09:06Z</time>
      </trkpt>
      <trkpt lat="46.4686370" lon="6.8446030">
        <ele>404.2</ele>
        <time>2019-02-24T11:09:07Z</time>
      </trkpt>
      <trkpt lat="46.4686280" lon="6.8446490">
        <ele>403.8</ele>
        <time>2019-02-24T11:09:08Z</time>
      </trkpt>
      <trkpt lat="46.4686170" lon="6.8446960">
        <ele>403.6</ele>
        <time>2019-02-24T11:09:09Z</time>
      </trkpt>
      <trkpt lat="46.4686040" lon="6.8447430">
        <ele>403.3</ele>
        <time>2019-02-24T11:09:10Z</time>
      </trkpt>
      <trkpt lat="46.4685900" lon="6.8447900">
        <ele>403.1</ele>
        <time>2019-02-24T11:09:11Z</time>
      </trkpt>
      <trkpt lat="46.4685740" lon="6.8448360">
        <ele>402.8</ele>
        <time>2019-02-24T11:09:12Z</time>
      </trkpt>
      <trkpt lat="46.4685580" lon="6.8448820">
        <ele>402.5</ele>
        <time>2019-02-24T11:09:13Z</time>
      </trkpt>
      <trkpt lat="46.4685410" lon="6.8449270">
        <ele>402.3</ele>
        <time>2019-02-24T11:09:14Z</time>
      </trkpt>
      <trkpt lat="46.4685230" lon="6.8449710">
        <ele>402.0</ele>
        <time>2019-02-24T11:09:15Z</time>
      </trkpt>
      <trkpt lat="46.4685050" lon="6.8450160">
        <ele>401.7</ele>
        <time>2019-02-24T11:09:16Z</time>
      </trkpt>
      <trkpt lat="46.4684880" lon="6.8450600">
        <ele>401.5</ele>
        <time>2019-02-24T11:09:17Z</time>
      </trkpt>
      <trkpt lat="46.4684720" lon="6.8451040">
        <ele>401.2</ele>
        <time>2019-02-24T11:09:18Z</time>
      </trkpt>
      <trkpt lat="46.4684560" lon="6.8451490">
        <ele>400.9</ele>
        <time>2019-02-24T11:09:19Z</time>
      </trkpt>
      <trkpt lat="46.4684430" lon="6.8451950">
        <ele>400.6</ele>
        <time>2019-02-24T11:09:20Z</time>
      </trkpt>
      <trkpt lat="46.4684310" lon="6.8452410">
        <ele>400.6</ele>
        <time>2019-02-24T11:09:21Z</time>
      </trkpt>
      <trkpt lat="46.4684180" lon="6.8452850">
        <ele>400.6</ele>
        <time>2019-02-24T11:09:22Z</time>
      </trkpt>
      <trkpt lat="46.4684030" lon="6.8453250">
        <ele>400.5</ele>
        <time>2019-02-24T11:09:23Z</time>
      </trkpt>
      <trkpt lat="46.4683820" lon="6.8453590">
        <ele>400.5</ele>
        <time>2019-02-24T11:09:24Z</time>
      </trkpt>
      <trkpt lat="46.4683540" lon="6.8453840">
        <ele>400.5</ele>
        <time>2019-02-24T11:09:25Z</time>
      </trkpt>
      <trkpt lat="46.4683200" lon="6.8453980">
        <ele>399.6</ele>
        <time>2019-02-24T11:09:26Z</time>
      </trkpt>
      <trkpt lat="46.4682540" lon="6.8453880">
        <ele>399.2</ele>
        <time>2019-02-24T11:09:27Z</time>
      </trkpt>
      <trkpt lat="46.4682260" lon="6.8453760">
        <ele>399.0</ele>
        <time>2019-02-24T11:09:28Z</time>
      </trkpt>
      <trkpt lat="46.4681990" lon="6.8453630">
        <ele>398.9</ele>
        <time>2019-02-24T11:09:29Z</time>
      </trkpt>
      <trkpt lat="46.4681560" lon="6.8453330">
        <ele>398.7</ele>
        <time>2019-02-24T11:09:30Z</time>
      </trkpt>
      <trkpt lat="46.4681110" lon="6.8453080">
        <ele>398.5</ele>
        <time>2019-02-24T11:09:31Z</time>
      </trkpt>
      <trkpt lat="46.4680420" lon="6.8452720">
        <ele>398.3</ele>
        <time>2019-02-24T11:09:32Z</time>
      </trkpt>
      <trkpt lat="46.4680180" lon="6.8452590">
        <ele>398.2</ele>
        <time>2019-02-24T11:09:33Z</time>
      </trkpt>
      <trkpt lat="46.4679710" lon="6.8452310">
        <ele>398.0</ele>
        <time>2019-02-24T11:09:34Z</time>
      </trkpt>
      <trkpt lat="46.4679230" lon="6.8452020">
        <ele>397.8</ele>
        <time>2019-02-24T11:09:35Z</time>
      </trkpt>
      <trkpt lat="46.4678730" lon="6.8451720">
        <ele>397.7</ele>
        <time>2019-02-24T11:09:36Z</time>
      </trkpt>
      <trkpt lat="46.4678220" lon="6.8451440">
        <ele>397.5</ele>
        <time>2019-02-24T11:09:37Z</time>
      </trkpt>
      <trkpt lat="46.4677690" lon="6.8451160">
        <ele>397.3</ele>
        <time>2019-02-24T11:09:38Z</time>
      </trkpt>
      <trkpt lat="46.4677150" lon="6.8450890">
        <ele>397.1</ele>
        <time>2019-02-24T11:09:39Z</time>
      </trkpt>
      <trkpt lat="46.4676600" lon="6.8450630">
        <ele>396.9</ele>
        <time>2019-02-24T11:09:40Z</time>
      </trkpt>
      <trkpt lat="46.4676050" lon="6.8450370">
        <ele>396.7</ele>
        <time>2019-02-24T11:09:41Z</time>
      </trkpt>
      <trkpt lat="46.4675480" lon="6.8450120">
        <ele>396.5</ele>
        <time>2019-02-24T11:09:42Z</time>
      </trkpt>
      <trkpt lat="46.4674920" lon="6.8449880">
        <ele>396.3</ele>
        <time>2019-02-24T11:09:43Z</time>
      </trkpt>
      <trkpt lat="46.4674350" lon="6.8449640">
        <ele>396.2</ele>
        <time>2019-02-24T11:09:44Z</time>
      </trkpt>
      <trkpt lat="46.4673780" lon="6.8449410">
        <ele>396.0</ele>
        <time>2019-02-24T11:09:45Z</time>
      </trkpt>
      <trkpt lat="46.4673220" lon="6.8449170">
        <ele>395.9</ele>
        <time>2019-02-24T11:09:46Z</time>
      </trkpt>
      <trkpt lat="46.4672670" lon="6.8448930">
        <ele>395.8</ele>
        <time>2019-02-24T11:09:47Z</time>
      </trkpt>
      <trkpt lat="46.4672130" lon="6.8448680">
        <ele>395.6</ele>
        <time>2019-02-24T11:09:48Z</time>
      </trkpt>
      <trkpt lat="46.4671600" lon="6.8448420">
        <ele>395.5</ele>
        <time>2019-02-24T11:09:49Z</time>
      </trkpt>
      <trkpt lat="46.4671090" lon="6.8448150">
        <ele>395.4</ele>
        <time>2019-02-24T11:09:50Z</time>
      </trkpt>
      <trkpt lat="46.4670590" lon="6.8447850">
        <ele>395.3</ele>
        <time>2019-02-24T11:09:51Z</time>
      </trkpt>
      <trkpt lat="46.4670120" lon="6.8447520">
        <ele>395.2</ele>
        <time>2019-02-24T11:09:52Z</time>
      </trkpt>
      <trkpt lat="46.4669680" lon="6.8447180">
        <ele>395.1</ele>
        <time>2019-02-24T11:09:53Z</time>
      </trkpt>
      <trkpt lat="46.4669270" lon="6.8446830">
        <ele>395.0</ele>
        <time>2019-02-24T11:09:54Z</time>
      </trkpt>
      <trkpt lat="46.4668900" lon="6.8446510">
        <ele>394.9</ele>
        <time>2019-02-24T11:09:55Z</time>
      </trkpt>
      <trkpt lat="46.4668570" lon="6.8446240">
        <ele>394.9</ele>
        <time>2019-02-24T11:09:56Z</time>
      </trkpt>
      <trkpt lat="46.4668300" lon="6.8446050">
        <ele>394.8</ele>
        <time>2019-02-24T11:09:57Z</time>
      </trkpt>
      <trkpt lat="46.4668070" lon="6.8445970">
        <ele>394.8</ele>
        <time>2019-02-24T11:09:58Z</time>
      </trkpt>
      <trkpt lat="46.4667850" lon="6.8445990">
        <ele>394.8</ele>
        <time>2019-02-24T11:09:59Z</time>
      </trkpt>
      <trkpt lat="46.4667630" lon="6.8446140">
        <ele>394.8</ele>
        <time>2019-02-24T11:10:00Z</time>
      </trkpt>
      <trkpt lat="46.4667380" lon="6.8446420">
        <ele>394.6</ele>
        <time>2019-02-24T11:10:01Z</time>
      </trkpt>
      <trkpt lat="46.4666940" lon="6.8447130">
        <ele>394.5</ele>
        <time>2019-02-24T11:10:02Z</time>
      </trkpt>
      <trkpt lat="46.4666770" lon="6.8447440">
        <ele>394.4</ele>
        <time>2019-02-24T11:10:03Z</time>
      </trkpt>
      <trkpt lat="46.4666590" lon="6.8447760">
        <ele>394.4</ele>
        <time>2019-02-24T11:10:04Z</time>
      </trkpt>
      <trkpt lat="46.4666340" lon="6.8448270">
        <ele>394.3</ele>
        <time>2019-02-24T11:10:05Z</time>
      </trkpt>
      <trkpt lat="46.4666100" lon="6.8448780">
        <ele>394.3</ele>
        <time>2019-02-24T11:10:06Z</time>
      </trkpt>
      <trkpt lat="46.4665880" lon="6.8449310">
        <ele>394.2</ele>
        <time>2019-02-24T11:10:07Z</time>
      </trkpt>
      <trkpt lat="46.4665520" lon="6.8450270">
        <ele>394.1</ele>
        <time>2019-02-24T11:10:08Z</time>
      </trkpt>
      <trkpt lat="46.4665370" lon="6.8450670">
        <ele>394.1</ele>
        <time>2019-02-24T11:10:09Z</time>
      </trkpt>
      <trkpt lat="46.4665230" lon="6.8451070">
        <ele>394.0</ele>
        <time>2019-02-24T11:10:10Z</time>
      </trkpt>
      <trkpt lat="46.4665000" lon="6.8451650">
        <ele>394.0</ele>
        <time>2019-02-24T11:10:11Z</time>
      </trkpt>
      <trkpt lat="46.4664750" lon="6.8452180">
        <ele>394.1</ele>
        <time>2019-02-24T11:10:12Z</time>
      </trkpt>
      <trkpt lat="46.4664520" lon="6.8452560">
        <ele>394.0</ele>
        <time>2019-02-24T11:10:13Z</time>
      </trkpt>
      <trkpt lat="46.4664290" lon="6.8452930">
        <ele>394.5</ele>
        <time>2019-02-24T11:10:14Z</time>
      </trkpt>
      <trkpt lat="46.4664170" lon="6.8453080">
        <ele>394.5</ele>
        <time>2019-02-24T11:10:15Z</time>
      </trkpt>
      <trkpt lat="46.4664110" lon="6.8453140">
        <ele>394.5</ele>
        <time>2019-02-24T11:10:16Z</time>
      </trkpt>
      <trkpt lat="46.4664080" lon="6.8453170">
        <ele>394.5</ele>
        <time>2019-02-24T11:10:17Z</time>
      </trkpt>
      <trkpt lat="46.4664050" lon="6.8453190">
        <ele>394.5</ele>
        <time>2019-02-24T11:10:18Z</time>
      </trkpt>
      <trkpt lat="46.4664030" lon="6.8453210">
        <ele>394.5</ele>
        <time>2019-02-24T11:10:19Z</time>
      </trkpt>
      <trkpt lat="46.4664020" lon="6.8453220">
        <ele>394.6</ele>
        <time>2019-02-24T11:10:20Z</time>
      </trkpt>
      <trkpt lat="46.4664010" lon="6.8453220">
        <ele>394.6</ele>
        <time>2019-02-24T11:10:21Z</time>
      </trkpt>
      <trkpt lat="46.4664010" lon="6.8453220">
        <ele>394.6</ele>
        <time>2019-02-24T11:10:22Z</time>
      </trkpt>
      <trkpt lat="46.4664010" lon="6.8453220">
        <ele>394.6</ele>
        <time>2019-02-24T11:10:23Z</time>
      </trkpt>
      <trkpt lat="46.4664010" lon="6.8453220">
        <ele>394.7</ele>
        <time>2019-02-24T11:10:24Z</time>
      </trkpt>
      <trkpt lat="46.4664010" lon="6.8453220">
        <ele>394.7</ele>
        <time>2019-02-24T11:10:25Z</time>
      </trkpt>
      <trkpt lat="46.4664010" lon="6.8453220">
        <ele>394.7</ele>
        <time>2019-02-24T11:10:26Z</time>
      </trkpt>
      <trkpt lat="46.4664010" lon="6.8453220">
        <ele>394.7</ele>
        <time>2019-02-24T11:10:27Z</time>
      </trkpt>
      <trkpt lat="46.4664020" lon="6.8453220">
        <ele>394.7</ele>
        <time>2019-02-24T11:10:28Z</time>
      </trkpt>
      <trkpt lat="46.4664020" lon="6.8453220">
        <ele>394.8</ele>
        <time>2019-02-24T11:10:29Z</time>
      </trkpt>
      <trkpt lat="46.4664020" lon="6.8453220">
        <ele>394.8</ele>
        <time>2019-02-24T11:10:30Z</time>
      </trkpt>
      <trkpt lat="46.4664020" lon="6.8453220">
        <ele>394.8</ele>
        <time>2019-02-24T11:10:31Z</time>
      </trkpt>
      <trkpt lat="46.4664010" lon="6.8453220">
        <ele>394.8</ele>
        <time>2019-02-24T11:10:32Z</time>
      </trkpt>
      <trkpt lat="46.4664010" lon="6.8453220">
        <ele>394.8</ele>
        <time>2019-02-24T11:10:33Z</time>
      </trkpt>
      <trkpt lat="46.4664010" lon="6.8453220">
        <ele>394.9</ele>
        <time>2019-02-24T11:10:34Z</time>
      </trkpt>
      <trkpt lat="46.4664010" lon="6.8453220">
        <ele>394.9</ele>
        <time>2019-02-24T11:10:35Z</time>
      </trkpt>
      <trkpt lat="46.4664010" lon="6.8453220">
        <ele>394.9</ele>
        <time>2019-02-24T11:10:36Z</time>
      </trkpt>
      <trkpt lat="46.4664010" lon="6.8453220">
        <ele>394.9</ele>
        <time>2019-02-24T11:10:37Z</time>
      </trkpt>
      <trkpt lat="46.4664010" lon="6.8453220">
        <ele>394.9</ele>
        <time>2019-02-24T11:10:38Z</time>
      </trkpt>
      <trkpt lat="46.4664010" lon="6.8453220">
        <ele>395.0</ele>
        <time>2019-02-24T11:10:39Z</time>
      </trkpt>
      <trkpt lat="46.4664010" lon="6.8453220">
        <ele>395.0</ele>
        <time>2019-02-24T11:10:40Z</time>
      </trkpt>
      <trkpt lat="46.4664010" lon="6.8453220">
        <ele>395.0</ele>
        <time>2019-02-24T11:10:41Z</time>
      </trkpt>
      <trkpt lat="46.4664010" lon="6.8453220">
        <ele>395.0</ele>
        <time>2019-02-24T11:10:42Z</time>
      </trkpt>
      <trkpt lat="46.4664010" lon="6.8453220">
        <ele>395.0</ele>
        <time>2019-02-24T11:10:43Z</time>
      </trkpt>
      <trkpt lat="46.4664010" lon="6.8453220">
        <ele>395.1</ele>
        <time>2019-02-24T11:10:44Z</time>
      </trkpt>
      <trkpt lat="46.4664010" lon="6.8453220">
        <ele>395.1</ele>
        <time>2019-02-24T11:10:45Z</time>
      </trkpt>
      <trkpt lat="46.4664010" lon="6.8453220">
        <ele>395.1</ele>
        <time>2019-02-24T11:10:46Z</time>
      </trkpt>
      <trkpt lat="46.4664010" lon="6.8453220">
        <ele>395.1</ele>
        <time>2019-02-24T11:10:47Z</time>
      </trkpt>
      <trkpt lat="46.4664010" lon="6.8453220">
        <ele>395.2</ele>
        <time>2019-02-24T11:10:48Z</time>
      </trkpt>
      <trkpt lat="46.4664010" lon="6.8453220">
        <ele>395.2</ele>
        <time>2019-02-24T11:10:49Z</time>
      </trkpt>
      <trkpt lat="46.4664010" lon="6.8453220">
        <ele>395.2</ele>
        <time>2019-02-24T11:10:50Z</time>
      </trkpt>
      <trkpt lat="46.4664010" lon="6.8453220">
        <ele>395.2</ele>
        <time>2019-02-24T11:10:51Z</time>
      </trkpt>
      <trkpt lat="46.4664010" lon="6.8453220">
        <ele>395.2</ele>
        <time>2019-02-24T11:10:52Z</time>
      </trkpt>
      <trkpt lat="46.4664010" lon="6.8453220">
        <ele>395.3</ele>
        <time>2019-02-24T11:10:53Z</time>
      </trkpt>
      <trkpt lat="46.4664010" lon="6.8453220">
        <ele>395.3</ele>
        <time>2019-02-24T11:10:54Z</time>
      </trkpt>
      <trkpt lat="46.4664010" lon="6.8453220">
        <ele>395.3</ele>
        <time>2019-02-24T11:10:55Z</time>
      </trkpt>
      <trkpt lat="46.4664010" lon="6.8453220">
        <ele>395.3</ele>
        <time>2019-02-24T11:10:56Z</time>
      </trkpt>
      <trkpt lat="46.4664010" lon="6.8453220">
        <ele>395.3</ele>
        <time>2019-02-24T11:10:57Z</time>
      </trkpt>
      <trkpt lat="46.4664010" lon="6.8453220">
        <ele>395.4</ele>
        <time>2019-02-24T11:10:58Z</time>
      </trkpt>
      <trkpt lat="46.4664010" lon="6.8453220">
        <ele>395.4</ele>
        <time>2019-02-24T11:10:59Z</time>
      </trkpt>
      <trkpt lat="46.4664010" lon="6.8453220">
        <ele>395.4</ele>
        <time>2019-02-24T11:11:00Z</time>
      </trkpt>
      <trkpt lat="46.4664010" lon="6.8453220">
        <ele>395.4</ele>
        <time>2019-02-24T11:11:01Z</time>
      </trkpt>
      <trkpt lat="46.4664010" lon="6.8453220">
        <ele>395.4</ele>
        <time>2019-02-24T11:11:02Z</time>
      </trkpt>
      <trkpt lat="46.4664010" lon="6.8453220">
        <ele>395.5</ele>
        <time>2019-02-24T11:11:03Z</time>
      </trkpt>
      <trkpt lat="46.4664010" lon="6.8453220">
        <ele>395.5</ele>
        <time>2019-02-24T11:11:04Z</time>
      </trkpt>
      <trkpt lat="46.4664010" lon="6.8453220">
        <ele>395.5</ele>
        <time>2019-02-24T11:11:05Z</time>
      </trkpt>
      <trkpt lat="46.4664010" lon="6.8453220">
        <ele>395.5</ele>
        <time>2019-02-24T11:11:06Z</time>
      </trkpt>
      <trkpt lat="46.4664010" lon="6.8453220">
        <ele>395.6</ele>
        <time>2019-02-24T11:11:07Z</time>
      </trkpt>
      <trkpt lat="46.4664010" lon="6.8453220">
        <ele>395.6</ele>
        <time>2019-02-24T11:11:08Z</time>
      </trkpt>
      <trkpt lat="46.4664010" lon="6.8453220">
        <ele>395.6</ele>
        <time>2019-02-24T11:11:09Z</time>
      </trkpt>
      <trkpt lat="46.4664010" lon="6.8453220">
        <ele>395.6</ele>
        <time>2019-02-24T11:11:10Z</time>
      </trkpt>
      <trkpt lat="46.4664010" lon="6.8453220">
        <ele>395.6</ele>
        <time>2019-02-24T11:11:11Z</time>
      </trkpt>
      <trkpt lat="46.4664010" lon="6.8453220">
        <ele>395.7</ele>
        <time>2019-02-24T11:11:12Z</time>
      </trkpt>
      <trkpt lat="46.4664010" lon="6.8453220">
        <ele>395.7</ele>
        <time>2019-02-24T11:11:13Z</time>
      </trkpt>
      <trkpt lat="46.4664010" lon="6.8453220">
        <ele>395.7</ele>
        <time>2019-02-24T11:11:14Z</time>
      </trkpt>
      <trkpt lat="46.4664010" lon="6.8453220">
        <ele>395.7</ele>
        <time>2019-02-24T11:11:15Z</time>
      </trkpt>
      <trkpt lat="46.4664010" lon="6.8453220">
        <ele>395.7</ele>
        <time>2019-02-24T11:11:16Z</time>
      </trkpt>
      <trkpt lat="46.4664010" lon="6.8453220">
        <ele>395.7</ele>
        <time>2019-02-24T11:11:17Z</time>
      </trkpt>
      <trkpt lat="46.4664010" lon="6.8453220">
        <ele>395.7</ele>
        <time>2019-02-24T11:11:18Z</time>
      </trkpt>
      <trkpt lat="46.4664010" lon="6.8453220">
        <ele>395.7</ele>
        <time>2019-02-24T11:11:19Z</time>
      </trkpt>
      <trkpt lat="46.4664010" lon="6.8453220">
        <ele>395.7</ele>
        <time>2019-02-24T11:11:20Z</time>
      </trkpt>
      <trkpt lat="46.4664010" lon="6.8453220">
        <ele>395.7</ele>
        <time>2019-02-24T11:11:21Z</time>
      </trkpt>
      <trkpt lat="46.4664010" lon="6.8453220">
        <ele>395.7</ele>
        <time>2019-02-24T11:11:22Z</time>
      </trkpt>
      <trkpt lat="46.4664010" lon="6.8453220">
        <ele>395.7</ele>
        <time>2019-02-24T11:11:23Z</time>
      </trkpt>
      <trkpt lat="46.4664010" lon="6.8453220">
        <ele>395.7</ele>
        <time>2019-02-24T11:11:24Z</time>
      </trkpt>
      <trkpt lat="46.4664010" lon="6.8453210">
        <ele>395.7</ele>
        <time>2019-02-24T11:11:25Z</time>
      </trkpt>
      <trkpt lat="46.4663950" lon="6.8452960">
        <ele>395.6</ele>
        <time>2019-02-24T11:11:26Z</time>
      </trkpt>
      <trkpt lat="46.4663710" lon="6.8451970">
        <ele>395.3</ele>
        <time>2019-02-24T11:11:27Z</time>
      </trkpt>
      <trkpt lat="46.4663630" lon="6.8451830">
        <ele>395.3</ele>
        <time>2019-02-24T11:11:28Z</time>
      </trkpt>
      <trkpt lat="46.4663620" lon="6.8451840">
        <ele>395.3</ele>
        <time>2019-02-24T11:11:29Z</time>
      </trkpt>
      <trkpt lat="46.4663620" lon="6.8451820">
        <ele>395.3</ele>
        <time>2019-02-24T11:11:30Z</time>
      </trkpt>
      <trkpt lat="46.4663610" lon="6.8451810">
        <ele>395.3</ele>
        <time>2019-02-24T11:11:31Z</time>
      </trkpt>
      <trkpt lat="46.4663610" lon="6.8451790">
        <ele>395.3</ele>
        <time>2019-02-24T11:11:32Z</time>
      </trkpt>
      <trkpt lat="46.4663600" lon="6.8451790">
        <ele>395.3</ele>
        <time>2019-02-24T11:11:33Z</time>
      </trkpt>
      <trkpt lat="46.4663600" lon="6.8451780">
        <ele>395.3</ele>
        <time>2019-02-24T11:11:34Z</time>
      </trkpt>
      <trkpt lat="46.4663600" lon="6.8451780">
        <ele>395.3</ele>
        <time>2019-02-24T11:11:35Z</time>
      </trkpt>
      <trkpt lat="46.4663600" lon="6.8451780">
        <ele>395.3</ele>
        <time>2019-02-24T11:11:36Z</time>
      </trkpt>
      <trkpt lat="46.4663600" lon="6.8451780">
        <ele>395.3</ele>
        <time>2019-02-24T11:11:37Z</time>
      </trkpt>
      <trkpt lat="46.4663600" lon="6.8451780">
        <ele>395.3</ele>
        <time>2019-02-24T11:11:38Z</time>
      </trkpt>
      <trkpt lat="46.4663600" lon="6.8451780">
        <ele>395.3</ele>
        <time>2019-02-24T11:11:39Z</time>
      </trkpt>
      <trkpt lat="46.4663600" lon="6.8451780">
        <ele>395.3</ele>
        <time>2019-02-24T11:11:40Z</time>
      </trkpt>
      <trkpt lat="46.4663600" lon="6.8451780">
        <ele>395.3</ele>
        <time>2019-02-24T11:11:41Z</time>
      </trkpt>
      <trkpt lat="46.4663600" lon="6.8451780">
        <ele>395.3</ele>
        <time>2019-02-24T11:11:42Z</time>
      </trkpt>
      <trkpt lat="46.4663600" lon="6.8451780">
        <ele>395.3</ele>
        <time>2019-02-24T11:11:43Z</time>
      </trkpt>
      <trkpt lat="46.4663600" lon="6.8451780">
        <ele>395.3</ele>
        <time>2019-02-24T11:11:44Z</time>
      </trkpt>
      <trkpt lat="46.4663600" lon="6.8451780">
        <ele>395.3</ele>
        <time>2019-02-24T11:11:45Z</time>
      </trkpt>
      <trkpt lat="46.4663600" lon="6.8451780">
        <ele>395.3</ele>
        <time>2019-02-24T11:11:46Z</time>
      </trkpt>
      <trkpt lat="46.4663600" lon="6.8451780">
        <ele>395.3</ele>
        <time>2019-02-24T11:11:47Z</time>
      </trkpt>
      <trkpt lat="46.4663600" lon="6.8451780">
        <ele>395.3</ele>
        <time>2019-02-24T11:11:48Z</time>
      </trkpt>
      <trkpt lat="46.4663600" lon="6.8451780">
        <ele>395.3</ele>
        <time>2019-02-24T11:11:49Z</time>
      </trkpt>
      <trkpt lat="46.4663600" lon="6.8451780">
        <ele>395.3</ele>
        <time>2019-02-24T11:11:50Z</time>
      </trkpt>
      <trkpt lat="46.4663600" lon="6.8451780">
        <ele>395.3</ele>
        <time>2019-02-24T11:11:51Z</time>
      </trkpt>
      <trkpt lat="46.4663600" lon="6.8451780">
        <ele>395.3</ele>
        <time>2019-02-24T11:11:52Z</time>
      </trkpt>
      <trkpt lat="46.4663600" lon="6.8451780">
        <ele>395.3</ele>
        <time>2019-02-24T11:11:53Z</time>
      </trkpt>
      <trkpt lat="46.4663600" lon="6.8451780">
        <ele>395.3</ele>
        <time>2019-02-24T11:11:54Z</time>
      </trkpt>
      <trkpt lat="46.4663600" lon="6.8451780">
        <ele>395.3</ele>
        <time>2019-02-24T11:11:55Z</time>
      </trkpt>
      <trkpt lat="46.4663600" lon="6.8451780">
        <ele>395.3</ele>
        <time>2019-02-24T11:11:56Z</time>
      </trkpt>
      <trkpt lat="46.4663600" lon="6.8451780">
        <ele>395.3</ele>
        <time>2019-02-24T11:11:57Z</time>
      </trkpt>
      <trkpt lat="46.4663600" lon="6.8451780">
        <ele>395.3</ele>
        <time>2019-02-24T11:11:58Z</time>
      </trkpt>
      <trkpt lat="46.4663600" lon="6.8451780">
        <ele>395.3</ele>
        <time>2019-02-24T11:11:59Z</time>
      </trkpt>
      <trkpt lat="46.4663600" lon="6.8451780">
        <ele>395.3</ele>
        <time>2019-02-24T11:12:00Z</time>
      </trkpt>
      <trkpt lat="46.4663600" lon="6.8451780">
        <ele>395.3</ele>
        <time>2019-02-24T11:12:01Z</time>
      </trkpt>
      <trkpt lat="46.4663600" lon="6.8451780">
        <ele>395.3</ele>
        <time>2019-02-24T11:12:02Z</time>
      </trkpt>
      <trkpt lat="46.4663600" lon="6.8451780">
        <ele>395.3</ele>
        <time>2019-02-24T11:12:03Z</time>
      </trkpt>
      <trkpt lat="46.4663600" lon="6.8451780">
        <ele>395.3</ele>
        <time>2019-02-24T11:12:04Z</time>
      </trkpt>
      <trkpt lat="46.4663600" lon="6.8451780">
        <ele>395.3</ele>
        <time>2019-02-24T11:12:05Z</time>
      </trkpt>
      <trkpt lat="46.4663600" lon="6.8451780">
        <ele>395.3</ele>
        <time>2019-02-24T11:12:06Z</time>
      </trkpt>
      <trkpt lat="46.4663600" lon="6.8451780">
        <ele>395.3</ele>
        <time>2019-02-24T11:12:07Z</time>
      </trkpt>
      <trkpt lat="46.4663600" lon="6.8451780">
        <ele>395.3</ele>
        <time>2019-02-24T11:12:08Z</time>
      </trkpt>
      <trkpt lat="46.4663600" lon="6.8451780">
        <ele>395.3</ele>
        <time>2019-02-24T11:12:09Z</time>
      </trkpt>
      <trkpt lat="46.4663600" lon="6.8451780">
        <ele>395.3</ele>
        <time>2019-02-24T11:12:10Z</time>
      </trkpt>
      <trkpt lat="46.4663600" lon="6.8451780">
        <ele>395.3</ele>
        <time>2019-02-24T11:12:11Z</time>
      </trkpt>
      <trkpt lat="46.4663600" lon="6.8451780">
        <ele>395.3</ele>
        <time>2019-02-24T11:12:12Z</time>
      </trkpt>
      <trkpt lat="46.4663600" lon="6.8451780">
        <ele>395.3</ele>
        <time>2019-02-24T11:12:13Z</time>
      </trkpt>
      <trkpt lat="46.4663600" lon="6.8451780">
        <ele>395.3</ele>
        <time>2019-02-24T11:12:14Z</time>
      </trkpt>
      <trkpt lat="46.4663600" lon="6.8451780">
        <ele>395.3</ele>
        <time>2019-02-24T11:12:15Z</time>
      </trkpt>
      <trkpt lat="46.4663600" lon="6.8451780">
        <ele>395.3</ele>
        <time>2019-02-24T11:12:16Z</time>
      </trkpt>
      <trkpt lat="46.4663600" lon="6.8451780">
        <ele>395.3</ele>
        <time>2019-02-24T11:12:17Z</time>
      </trkpt>
      <trkpt lat="46.4663600" lon="6.8451780">
        <ele>395.3</ele>
        <time>2019-02-24T11:12:18Z</time>
      </trkpt>
      <trkpt lat="46.4663600" lon="6.8451780">
        <ele>395.3</ele>
        <time>2019-02-24T11:12:19Z</time>
      </trkpt>
      <trkpt lat="46.4663600" lon="6.8451780">
        <ele>395.3</ele>
        <time>2019-02-24T11:12:20Z</time>
      </trkpt>
      <trkpt lat="46.4663600" lon="6.8451780">
        <ele>395.3</ele>
        <time>2019-02-24T11:12:21Z</time>
      </trkpt>
      <trkpt lat="46.4663600" lon="6.8451780">
        <ele>395.3</ele>
        <time>2019-02-24T11:12:22Z</time>
      </trkpt>
      <trkpt lat="46.4663600" lon="6.8451780">
        <ele>395.3</ele>
        <time>2019-02-24T11:12:23Z</time>
      </trkpt>
      <trkpt lat="46.4663600" lon="6.8451780">
        <ele>395.3</ele>
        <time>2019-02-24T11:12:24Z</time>
      </trkpt>
      <trkpt lat="46.4663600" lon="6.8451780">
        <ele>395.3</ele>
        <time>2019-02-24T11:12:25Z</time>
      </trkpt>
      <trkpt lat="46.4663600" lon="6.8451780">
        <ele>395.3</ele>
        <time>2019-02-24T11:12:26Z</time>
      </trkpt>
      <trkpt lat="46.4663600" lon="6.8451780">
        <ele>395.3</ele>
        <time>2019-02-24T11:12:27Z</time>
      </trkpt>
      <trkpt lat="46.4663600" lon="6.8451780">
        <ele>395.3</ele>
        <time>2019-02-24T11:12:28Z</time>
      </trkpt>
      <trkpt lat="46.4663600" lon="6.8451780">
        <ele>395.3</ele>
        <time>2019-02-24T11:12:29Z</time>
      </trkpt>
      <trkpt lat="46.4663600" lon="6.8451780">
        <ele>395.3</ele>
        <time>2019-02-24T11:12:30Z</time>
      </trkpt>
      <trkpt lat="46.4663600" lon="6.8451780">
        <ele>395.3</ele>
        <time>2019-02-24T11:12:31Z</time>
      </trkpt>
      <trkpt lat="46.4663600" lon="6.8451780">
        <ele>395.3</ele>
        <time>2019-02-24T11:12:32Z</time>
      </trkpt>
      <trkpt lat="46.4663600" lon="6.8451790">
        <ele>395.3</ele>
        <time>2019-02-24T11:12:33Z</time>
      </trkpt>
      <trkpt lat="46.4663600" lon="6.8451790">
        <ele>395.3</ele>
        <time>2019-02-24T11:12:34Z</time>
      </trkpt>
      <trkpt lat="46.4663590" lon="6.8451790">
        <ele>395.3</ele>
        <time>2019-02-24T11:12:35Z</time>
      </trkpt>
      <trkpt lat="46.4663570" lon="6.8451830">
        <ele>395.3</ele>
        <time>2019-02-24T11:12:36Z</time>
      </trkpt>
      <trkpt lat="46.4663580" lon="6.8452010">
        <ele>395.2</ele>
        <time>2019-02-24T11:12:37Z</time>
      </trkpt>
      <trkpt lat="46.4663560" lon="6.8452200">
        <ele>395.2</ele>
        <time>2019-02-24T11:12:38Z</time>
      </trkpt>
      <trkpt lat="46.4663460" lon="6.8452390">
        <ele>395.1</ele>
        <time>2019-02-24T11:12:39Z</time>
      </trkpt>
      <trkpt lat="46.4663260" lon="6.8452590">
        <ele>395.0</ele>
        <time>2019-02-24T11:12:40Z</time>
      </trkpt>
      <trkpt lat="46.4663010" lon="6.8452730">
        <ele>394.9</ele>
        <time>2019-02-24T11:12:41Z</time>
      </trkpt>
      <trkpt lat="46.4662760" lon="6.8452740">
        <ele>394.8</ele>
        <time>2019-02-24T11:12:42Z</time>
      </trkpt>
      <trkpt lat="46.4662520" lon="6.8452640">
        <ele>394.7</ele>
        <time>2019-02-24T11:12:43Z</time>
      </trkpt>
      <trkpt lat="46.4662270" lon="6.8452460">
        <ele>394.6</ele>
        <time>2019-02-24T11:12:44Z</time>
      </trkpt>
      <trkpt lat="46.4662020" lon="6.8452230">
        <ele>394.5</ele>
        <time>2019-02-24T11:12:45Z</time>
      </trkpt>
      <trkpt lat="46.4661550" lon="6.8451770">
        <ele>394.3</ele>
        <time>2019-02-24T11:12:46Z</time>
      </trkpt>
      <trkpt lat="46.4661330" lon="6.8451570">
        <ele>394.3</ele>
        <time>2019-02-24T11:12:47Z</time>
      </trkpt>
      <trkpt lat="46.4661120" lon="6.8451380">
        <ele>394.2</ele>
        <time>2019-02-24T11:12:48Z</time>
      </trkpt>
      <trkpt lat="46.4660900" lon="6.8451180">
        <ele>394.1</ele>
        <time>2019-02-24T11:12:49Z</time>
      </trkpt>
      <trkpt lat="46.4660610" lon="6.8450900">
        <ele>394.0</ele>
        <time>2019-02-24T11:12:50Z</time>
      </trkpt>
      <trkpt lat="46.4660310" lon="6.8450600">
        <ele>393.9</ele>
        <time>2019-02-24T11:12:51Z</time>
      </trkpt>
      <trkpt lat="46.4660020" lon="6.8450280">
        <ele>393.8</ele>
        <time>2019-02-24T11:12:52Z</time>
      </trkpt>
      <trkpt lat="46.4659730" lon="6.8449960">
        <ele>393.7</ele>
        <time>2019-02-24T11:12:53Z</time>
      </trkpt>
      <trkpt lat="46.4659430" lon="6.8449630">
        <ele>393.6</ele>
        <time>2019-02-24T11:12:54Z</time>
      </trkpt>
      <trkpt lat="46.4659140" lon="6.8449310">
        <ele>393.5</ele>
        <time>2019-02-24T11:12:55Z</time>
      </trkpt>
      <trkpt lat="46.4658840" lon="6.8448990">
        <ele>393.4</ele>
        <time>2019-02-24T11:12:56Z</time>
      </trkpt>
      <trkpt lat="46.4658540" lon="6.8448680">
        <ele>393.3</ele>
        <time>2019-02-24T11:12:57Z</time>
      </trkpt>
      <trkpt lat="46.4658240" lon="6.8448380">
        <ele>393.1</ele>
        <time>2019-02-24T11:12:58Z</time>
      </trkpt>
      <trkpt lat="46.4657920" lon="6.8448110">
        <ele>393.0</ele>
        <time>2019-02-24T11:12:59Z</time>
      </trkpt>
      <trkpt lat="46.4657600" lon="6.8447850">
        <ele>392.9</ele>
        <time>2019-02-24T11:13:00Z</time>
      </trkpt>
      <trkpt lat="46.4657260" lon="6.8447580">
        <ele>392.7</ele>
        <time>2019-02-24T11:13:01Z</time>
      </trkpt>
      <trkpt lat="46.4656890" lon="6.8447300">
        <ele>392.6</ele>
        <time>2019-02-24T11:13:02Z</time>
      </trkpt>
      <trkpt lat="46.4656510" lon="6.8447000">
        <ele>392.5</ele>
        <time>2019-02-24T11:13:03Z</time>
      </trkpt>
      <trkpt lat="46.4656100" lon="6.8446670">
        <ele>392.3</ele>
        <time>2019-02-24T11:13:04Z</time>
      </trkpt>
      <trkpt lat="46.4655680" lon="6.8446340">
        <ele>392.2</ele>
        <time>2019-02-24T11:13:05Z</time>
      </trkpt>
      <trkpt lat="46.4655270" lon="6.8446020">
        <ele>392.1</ele>
        <time>2019-02-24T11:13:06Z</time>
      </trkpt>
      <trkpt lat="46.4654860" lon="6.8445720">
        <ele>392.0</ele>
        <time>2019-02-24T11:13:07Z</time>
      </trkpt>
      <trkpt lat="46.4654450" lon="6.8445430">
        <ele>391.8</ele>
        <time>2019-02-24T11:13:08Z</time>
      </trkpt>
      <trkpt lat="46.4654050" lon="6.8445150">
        <ele>391.7</ele>
        <time>2019-02-24T11:13:09Z</time>
      </trkpt>
      <trkpt lat="46.4653650" lon="6.8444870">
        <ele>391.6</ele>
        <time>2019-02-24T11:13:10Z</time>
      </trkpt>
      <trkpt lat="46.4653250" lon="6.8444590">
        <ele>391.5</ele>
        <time>2019-02-24T11:13:11Z</time>
      </trkpt>
      <trkpt lat="46.4652570" lon="6.8444110">
        <ele>391.2</ele>
        <time>2019-02-24T11:13:12Z</time>
      </trkpt>
      <trkpt lat="46.4652300" lon="6.8443900">
        <ele>391.1</ele>
        <time>2019-02-24T11:13:13Z</time>
      </trkpt>
      <trkpt lat="46.4652020" lon="6.8443700">
        <ele>391.0</ele>
        <time>2019-02-24T11:13:14Z</time>
      </trkpt>
      <trkpt lat="46.4651600" lon="6.8443370">
        <ele>390.9</ele>
        <time>2019-02-24T11:13:15Z</time>
      </trkpt>
      <trkpt lat="46.4651170" lon="6.8443020">
        <ele>390.8</ele>
        <time>2019-02-24T11:13:16Z</time>
      </trkpt>
      <trkpt lat="46.4650450" lon="6.8442400">
        <ele>390.6</ele>
        <time>2019-02-24T11:13:17Z</time>
      </trkpt>
      <trkpt lat="46.4650160" lon="6.8442150">
        <ele>390.5</ele>
        <time>2019-02-24T11:13:18Z</time>
      </trkpt>
      <trkpt lat="46.4649870" lon="6.8441890">
        <ele>390.4</ele>
        <time>2019-02-24T11:13:19Z</time>
      </trkpt>
      <trkpt lat="46.4649440" lon="6.8441490">
        <ele>390.3</ele>
        <time>2019-02-24T11:13:20Z</time>
      </trkpt>
      <trkpt lat="46.4649020" lon="6.8441090">
        <ele>390.2</ele>
        <time>2019-02-24T11:13:21Z</time>
      </trkpt>
      <trkpt lat="46.4648610" lon="6.8440680">
        <ele>390.0</ele>
        <time>2019-02-24T11:13:22Z</time>
      </trkpt>
      <trkpt lat="46.4648200" lon="6.8440270">
        <ele>389.7</ele>
        <time>2019-02-24T11:13:23Z</time>
      </trkpt>
      <trkpt lat="46.4647800" lon="6.8439860">
        <ele>389.6</ele>
        <time>2019-02-24T11:13:24Z</time>
      </trkpt>
      <trkpt lat="46.4647410" lon="6.8439460">
        <ele>389.4</ele>
        <time>2019-02-24T11:13:25Z</time>
      </trkpt>
      <trkpt lat="46.4647020" lon="6.8439050">
        <ele>389.3</ele>
        <time>2019-02-24T11:13:26Z</time>
      </trkpt>
      <trkpt lat="46.4646630" lon="6.8438650">
        <ele>389.1</ele>
        <time>2019-02-24T11:13:27Z</time>
      </trkpt>
      <trkpt lat="46.4646250" lon="6.8438260">
        <ele>389.0</ele>
        <time>2019-02-24T11:13:28Z</time>
      </trkpt>
      <trkpt lat="46.4645850" lon="6.8437870">
        <ele>388.8</ele>
        <time>2019-02-24T11:13:29Z</time>
      </trkpt>
      <trkpt lat="46.4645460" lon="6.8437490">
        <ele>388.7</ele>
        <time>2019-02-24T11:13:30Z</time>
      </trkpt>
      <trkpt lat="46.4645050" lon="6.8437130">
        <ele>388.5</ele>
        <time>2019-02-24T11:13:31Z</time>
      </trkpt>
      <trkpt lat="46.4644640" lon="6.8436770">
        <ele>388.4</ele>
        <time>2019-02-24T11:13:32Z</time>
      </trkpt>
      <trkpt lat="46.4644210" lon="6.8436420">
        <ele>388.2</ele>
        <time>2019-02-24T11:13:33Z</time>
      </trkpt>
      <trkpt lat="46.4643780" lon="6.8436080">
        <ele>388.0</ele>
        <time>2019-02-24T11:13:34Z</time>
      </trkpt>
      <trkpt lat="46.4643340" lon="6.8435740">
        <ele>387.8</ele>
        <time>2019-02-24T11:13:35Z</time>
      </trkpt>
      <trkpt lat="46.4642890" lon="6.8435410">
        <ele>387.7</ele>
        <time>2019-02-24T11:13:36Z</time>
      </trkpt>
      <trkpt lat="46.4642430" lon="6.8435080">
        <ele>387.6</ele>
        <time>2019-02-24T11:13:37Z</time>
      </trkpt>
      <trkpt lat="46.4641960" lon="6.8434750">
        <ele>387.5</ele>
        <time>2019-02-24T11:13:38Z</time>
      </trkpt>
      <trkpt lat="46.4641480" lon="6.8434420">
        <ele>387.4</ele>
        <time>2019-02-24T11:13:39Z</time>
      </trkpt>
      <trkpt lat="46.4641000" lon="6.8434090">
        <ele>387.3</ele>
        <time>2019-02-24T11:13:40Z</time>
      </trkpt>
      <trkpt lat="46.4640510" lon="6.8433760">
        <ele>387.2</ele>
        <time>2019-02-24T11:13:41Z</time>
      </trkpt>
      <trkpt lat="46.4640030" lon="6.8433430">
        <ele>387.2</ele>
        <time>2019-02-24T11:13:42Z</time>
      </trkpt>
      <trkpt lat="46.4639550" lon="6.8433100">
        <ele>387.1</ele>
        <time>2019-02-24T11:13:43Z</time>
      </trkpt>
      <trkpt lat="46.4639070" lon="6.8432780">
        <ele>387.1</ele>
        <time>2019-02-24T11:13:44Z</time>
      </trkpt>
      <trkpt lat="46.4638620" lon="6.8432460">
        <ele>387.0</ele>
        <time>2019-02-24T11:13:45Z</time>
      </trkpt>
      <trkpt lat="46.4638170" lon="6.8432150">
        <ele>387.0</ele>
        <time>2019-02-24T11:13:46Z</time>
      </trkpt>
      <trkpt lat="46.4637760" lon="6.8431840">
        <ele>387.0</ele>
        <time>2019-02-24T11:13:47Z</time>
      </trkpt>
      <trkpt lat="46.4637300" lon="6.8431350">
        <ele>387.0</ele>
        <time>2019-02-24T11:13:48Z</time>
      </trkpt>
      <trkpt lat="46.4637180" lon="6.8431180">
        <ele>387.0</ele>
        <time>2019-02-24T11:13:49Z</time>
      </trkpt>
      <trkpt lat="46.4636530" lon="6.8430300">
        <ele>386.9</ele>
        <time>2019-02-24T11:13:50Z</time>
      </trkpt>
      <trkpt lat="46.4636120" lon="6.8429780">
        <ele>386.8</ele>
        <time>2019-02-24T11:13:51Z</time>
      </trkpt>
      <trkpt lat="46.4635710" lon="6.8429250">
        <ele>386.8</ele>
        <time>2019-02-24T11:13:52Z</time>
      </trkpt>
      <trkpt lat="46.4635300" lon="6.8428720">
        <ele>386.7</ele>
        <time>2019-02-24T11:13:53Z</time>
      </trkpt>
      <trkpt lat="46.4634890" lon="6.8428190">
        <ele>386.5</ele>
        <time>2019-02-24T11:13:54Z</time>
      </trkpt>
      <trkpt lat="46.4634480" lon="6.8427670">
        <ele>386.4</ele>
        <time>2019-02-24T11:13:55Z</time>
      </trkpt>
      <trkpt lat="46.4634070" lon="6.8427140">
        <ele>386.3</ele>
        <time>2019-02-24T11:13:56Z</time>
      </trkpt>
      <trkpt lat="46.4633540" lon="6.8426360">
        <ele>386.2</ele>
        <time>2019-02-24T11:13:57Z</time>
      </trkpt>
      <trkpt lat="46.4633340" lon="6.8425660">
        <ele>386.1</ele>
        <time>2019-02-24T11:13:58Z</time>
      </trkpt>
      <trkpt lat="46.4633130" lon="6.8425190">
        <ele>386.1</ele>
        <time>2019-02-24T11:13:59Z</time>
      </trkpt>
      <trkpt lat="46.4632890" lon="6.8424880">
        <ele>386.1</ele>
        <time>2019-02-24T11:14:00Z</time>
      </trkpt>
      <trkpt lat="46.4632660" lon="6.8424620">
        <ele>386.1</ele>
        <time>2019-02-24T11:14:01Z</time>
      </trkpt>
      <trkpt lat="46.4632430" lon="6.8424370">
        <ele>386.0</ele>
        <time>2019-02-24T11:14:02Z</time>
      </trkpt>
      <trkpt lat="46.4632210" lon="6.8424130">
        <ele>386.0</ele>
        <time>2019-02-24T11:14:03Z</time>
      </trkpt>
      <trkpt lat="46.4632000" lon="6.8423900">
        <ele>386.0</ele>
        <time>2019-02-24T11:14:04Z</time>
      </trkpt>
      <trkpt lat="46.4631790" lon="6.8423670">
        <ele>386.0</ele>
        <time>2019-02-24T11:14:05Z</time>
      </trkpt>
      <trkpt lat="46.4631570" lon="6.8423440">
        <ele>386.0</ele>
        <time>2019-02-24T11:14:06Z</time>
      </trkpt>
      <trkpt lat="46.4631340" lon="6.8423210">
        <ele>386.0</ele>
        <time>2019-02-24T11:14:07Z</time>
      </trkpt>
      <trkpt lat="46.4631090" lon="6.8422980">
        <ele>386.0</ele>
        <time>2019-02-24T11:14:08Z</time>
      </trkpt>
      <trkpt lat="46.4630850" lon="6.8422750">
        <ele>386.0</ele>
        <time>2019-02-24T11:14:09Z</time>
      </trkpt>
      <trkpt lat="46.4630600" lon="6.8422520">
        <ele>386.0</ele>
        <time>2019-02-24T11:14:10Z</time>
      </trkpt>
      <trkpt lat="46.4630360" lon="6.8422290">
        <ele>386.0</ele>
        <time>2019-02-24T11:14:11Z</time>
      </trkpt>
      <trkpt lat="46.4630140" lon="6.8422070">
        <ele>386.0</ele>
        <time>2019-02-24T11:14:12Z</time>
      </trkpt>
      <trkpt lat="46.4629940" lon="6.8421870">
        <ele>386.0</ele>
        <time>2019-02-24T11:14:13Z</time>
      </trkpt>
      <trkpt lat="46.4629760" lon="6.8421700">
        <ele>386.1</ele>
        <time>2019-02-24T11:14:14Z</time>
      </trkpt>
      <trkpt lat="46.4629610" lon="6.8421590">
        <ele>386.1</ele>
        <time>2019-02-24T11:14:15Z</time>
      </trkpt>
      <trkpt lat="46.4629490" lon="6.8421510">
        <ele>386.1</ele>
        <time>2019-02-24T11:14:16Z</time>
      </trkpt>
      <trkpt lat="46.4629400" lon="6.8421460">
        <ele>386.1</ele>
        <time>2019-02-24T11:14:17Z</time>
      </trkpt>
      <trkpt lat="46.4629350" lon="6.8421450">
        <ele>386.1</ele>
        <time>2019-02-24T11:14:18Z</time>
      </trkpt>
      <trkpt lat="46.4629350" lon="6.8421450">
        <ele>386.1</ele>
        <time>2019-02-24T11:14:19Z</time>
      </trkpt>
      <trkpt lat="46.4629360" lon="6.8421450">
        <ele>386.1</ele>
        <time>2019-02-24T11:14:20Z</time>
      </trkpt>
      <trkpt lat="46.4629370" lon="6.8421460">
        <ele>386.1</ele>
        <time>2019-02-24T11:14:21Z</time>
      </trkpt>
      <trkpt lat="46.4629370" lon="6.8421470">
        <ele>386.1</ele>
        <time>2019-02-24T11:14:22Z</time>
      </trkpt>
      <trkpt lat="46.4629320" lon="6.8421450">
        <ele>386.1</ele>
        <time>2019-02-24T11:14:23Z</time>
      </trkpt>
      <trkpt lat="46.4629250" lon="6.8421430">
        <ele>386.2</ele>
        <time>2019-02-24T11:14:24Z</time>
      </trkpt>
      <trkpt lat="46.4629170" lon="6.8421390">
        <ele>386.2</ele>
        <time>2019-02-24T11:14:25Z</time>
      </trkpt>
      <trkpt lat="46.4629090" lon="6.8421360">
        <ele>386.2</ele>
        <time>2019-02-24T11:14:26Z</time>
      </trkpt>
      <trkpt lat="46.4629030" lon="6.8421340">
        <ele>386.2</ele>
        <time>2019-02-24T11:14:27Z</time>
      </trkpt>
      <trkpt lat="46.4628990" lon="6.8421330">
        <ele>386.2</ele>
        <time>2019-02-24T11:14:28Z</time>
      </trkpt>
      <trkpt lat="46.4628960" lon="6.8421310">
        <ele>386.2</ele>
        <time>2019-02-24T11:14:29Z</time>
      </trkpt>
      <trkpt lat="46.4628940" lon="6.8421310">
        <ele>386.2</ele>
        <time>2019-02-24T11:14:30Z</time>
      </trkpt>
      <trkpt lat="46.4628940" lon="6.8421310">
        <ele>386.2</ele>
        <time>2019-02-24T11:14:31Z</time>
      </trkpt>
      <trkpt lat="46.4628940" lon="6.8421310">
        <ele>386.2</ele>
        <time>2019-02-24T11:14:32Z</time>
      </trkpt>
      <trkpt lat="46.4628940" lon="6.8421310">
        <ele>386.2</ele>
        <time>2019-02-24T11:14:33Z</time>
      </trkpt>
      <trkpt lat="46.4628940" lon="6.8421310">
        <ele>386.2</ele>
        <time>2019-02-24T11:14:34Z</time>
      </trkpt>
      <trkpt lat="46.4628950" lon="6.8421310">
        <ele>386.2</ele>
        <time>2019-02-24T11:14:35Z</time>
      </trkpt>
      <trkpt lat="46.4628950" lon="6.8421310">
        <ele>386.2</ele>
        <time>2019-02-24T11:14:36Z</time>
      </trkpt>
      <trkpt lat="46.4628950" lon="6.8421310">
        <ele>386.2</ele>
        <time>2019-02-24T11:14:37Z</time>
      </trkpt>
      <trkpt lat="46.4628950" lon="6.8421310">
        <ele>386.2</ele>
        <time>2019-02-24T11:14:38Z</time>
      </trkpt>
      <trkpt lat="46.4628950" lon="6.8421310">
        <ele>386.2</ele>
        <time>2019-02-24T11:14:39Z</time>
      </trkpt>
      <trkpt lat="46.4628950" lon="6.8421310">
        <ele>386.2</ele>
        <time>2019-02-24T11:14:40Z</time>
      </trkpt>
      <trkpt lat="46.4628950" lon="6.8421310">
        <ele>386.2</ele>
        <time>2019-02-24T11:14:41Z</time>
      </trkpt>
      <trkpt lat="46.4628950" lon="6.8421310">
        <ele>386.2</ele>
        <time>2019-02-24T11:14:42Z</time>
      </trkpt>
      <trkpt lat="46.4628940" lon="6.8421290">
        <ele>386.2</ele>
        <time>2019-02-24T11:14:43Z</time>
      </trkpt>
      <trkpt lat="46.4628910" lon="6.8421170">
        <ele>386.2</ele>
        <time>2019-02-24T11:14:44Z</time>
      </trkpt>
      <trkpt lat="46.4628820" lon="6.8420870">
        <ele>386.2</ele>
        <time>2019-02-24T11:14:45Z</time>
      </trkpt>
      <trkpt lat="46.4628680" lon="6.8420490">
        <ele>386.4</ele>
        <time>2019-02-24T11:14:46Z</time>
      </trkpt>
      <trkpt lat="46.4628470" lon="6.8420130">
        <ele>386.4</ele>
        <time>2019-02-24T11:14:47Z</time>
      </trkpt>
      <trkpt lat="46.4627980" lon="6.8419710">
        <ele>386.6</ele>
        <time>2019-02-24T11:14:48Z</time>
      </trkpt>
      <trkpt lat="46.4627770" lon="6.8419580">
        <ele>386.6</ele>
        <time>2019-02-24T11:14:49Z</time>
      </trkpt>
      <trkpt lat="46.4627550" lon="6.8419460">
        <ele>386.6</ele>
        <time>2019-02-24T11:14:50Z</time>
      </trkpt>
      <trkpt lat="46.4627180" lon="6.8419410">
        <ele>386.6</ele>
        <time>2019-02-24T11:14:51Z</time>
      </trkpt>
      <trkpt lat="46.4626800" lon="6.8419450">
        <ele>386.6</ele>
        <time>2019-02-24T11:14:52Z</time>
      </trkpt>
      <trkpt lat="46.4626150" lon="6.8419700">
        <ele>386.7</ele>
        <time>2019-02-24T11:14:53Z</time>
      </trkpt>
      <trkpt lat="46.4625900" lon="6.8419840">
        <ele>386.8</ele>
        <time>2019-02-24T11:14:54Z</time>
      </trkpt>
      <trkpt lat="46.4625640" lon="6.8419980">
        <ele>386.8</ele>
        <time>2019-02-24T11:14:55Z</time>
      </trkpt>
      <trkpt lat="46.4625270" lon="6.8420270">
        <ele>386.8</ele>
        <time>2019-02-24T11:14:56Z</time>
      </trkpt>
      <trkpt lat="46.4624760" lon="6.8420790">
        <ele>386.9</ele>
        <time>2019-02-24T11:14:57Z</time>
      </trkpt>
      <trkpt lat="46.4624600" lon="6.8420980">
        <ele>386.9</ele>
        <time>2019-02-24T11:14:58Z</time>
      </trkpt>
      <trkpt lat="46.4624270" lon="6.8421370">
        <ele>387.0</ele>
        <time>2019-02-24T11:14:59Z</time>
      </trkpt>
      <trkpt lat="46.4623960" lon="6.8421810">
        <ele>387.0</ele>
        <time>2019-02-24T11:15:00Z</time>
      </trkpt>
      <trkpt lat="46.4623660" lon="6.8422250">
        <ele>387.1</ele>
        <time>2019-02-24T11:15:01Z</time>
      </trkpt>
      <trkpt lat="46.4623340" lon="6.8422650">
        <ele>387.2</ele>
        <time>2019-02-24T11:15:02Z</time>
      </trkpt>
      <trkpt lat="46.4623010" lon="6.8422970">
        <ele>387.2</ele>
        <time>2019-02-24T11:15:03Z</time>
      </trkpt>
      <trkpt lat="46.4622650" lon="6.8423160">
        <ele>387.4</ele>
        <time>2019-02-24T11:15:04Z</time>
      </trkpt>
      <trkpt lat="46.4622270" lon="6.8423250">
        <ele>387.6</ele>
        <time>2019-02-24T11:15:05Z</time>
      </trkpt>
      <trkpt lat="46.4621880" lon="6.8423250">
        <ele>387.7</ele>
        <time>2019-02-24T11:15:06Z</time>
      </trkpt>
      <trkpt lat="46.4621490" lon="6.8423200">
        <ele>387.8</ele>
        <time>2019-02-24T11:15:07Z</time>
      </trkpt>
      <trkpt lat="46.4621110" lon="6.8423100">
        <ele>388.0</ele>
        <time>2019-02-24T11:15:08Z</time>
      </trkpt>
      <trkpt lat="46.4620750" lon="6.8422960">
        <ele>388.1</ele>
        <time>2019-02-24T11:15:09Z</time>
      </trkpt>
      <trkpt lat="46.4620440" lon="6.8422800">
        <ele>388.2</ele>
        <time>2019-02-24T11:15:10Z</time>
      </trkpt>
      <trkpt lat="46.4620200" lon="6.8422610">
        <ele>388.3</ele>
        <time>2019-02-24T11:15:11Z</time>
      </trkpt>
      <trkpt lat="46.4620050" lon="6.8422400">
        <ele>388.4</ele>
        <time>2019-02-24T11:15:12Z</time>
      </trkpt>
      <trkpt lat="46.4619960" lon="6.8422190">
        <ele>388.4</ele>
        <time>2019-02-24T11:15:13Z</time>
      </trkpt>
      <trkpt lat="46.4619940" lon="6.8421990">
        <ele>388.5</ele>
        <time>2019-02-24T11:15:14Z</time>
      </trkpt>
      <trkpt lat="46.4619950" lon="6.8421810">
        <ele>388.5</ele>
        <time>2019-02-24T11:15:15Z</time>
      </trkpt>
      <trkpt lat="46.4619990" lon="6.8421670">
        <ele>388.5</ele>
        <time>2019-02-24T11:15:16Z</time>
      </trkpt>
      <trkpt lat="46.4620030" lon="6.8421540">
        <ele>388.5</ele>
        <time>2019-02-24T11:15:17Z</time>
      </trkpt>
      <trkpt lat="46.4620040" lon="6.8421370">
        <ele>388.5</ele>
        <time>2019-02-24T11:15:18Z</time>
      </trkpt>
      <trkpt lat="46.4620000" lon="6.8421120">
        <ele>388.5</ele>
        <time>2019-02-24T11:15:19Z</time>
      </trkpt>
      <trkpt lat="46.4619890" lon="6.8420770">
        <ele>388.6</ele>
        <time>2019-02-24T11:15:20Z</time>
      </trkpt>
      <trkpt lat="46.4619710" lon="6.8420350">
        <ele>388.7</ele>
        <time>2019-02-24T11:15:21Z</time>
      </trkpt>
      <trkpt lat="46.4619480" lon="6.8419900">
        <ele>388.4</ele>
        <time>2019-02-24T11:15:22Z</time>
      </trkpt>
      <trkpt lat="46.4619210" lon="6.8419450">
        <ele>388.1</ele>
        <time>2019-02-24T11:15:23Z</time>
      </trkpt>
      <trkpt lat="46.4618900" lon="6.8419040">
        <ele>387.9</ele>
        <time>2019-02-24T11:15:24Z</time>
      </trkpt>
      <trkpt lat="46.4618370" lon="6.8418370">
        <ele>387.4</ele>
        <time>2019-02-24T11:15:25Z</time>
      </trkpt>
      <trkpt lat="46.4618170" lon="6.8418090">
        <ele>387.3</ele>
        <time>2019-02-24T11:15:26Z</time>
      </trkpt>
      <trkpt lat="46.4617960" lon="6.8417810">
        <ele>387.2</ele>
        <time>2019-02-24T11:15:27Z</time>
      </trkpt>
      <trkpt lat="46.4617680" lon="6.8417320">
        <ele>387.0</ele>
        <time>2019-02-24T11:15:28Z</time>
      </trkpt>
      <trkpt lat="46.4617440" lon="6.8416800">
        <ele>386.8</ele>
        <time>2019-02-24T11:15:29Z</time>
      </trkpt>
      <trkpt lat="46.4617210" lon="6.8416250">
        <ele>386.6</ele>
        <time>2019-02-24T11:15:30Z</time>
      </trkpt>
      <trkpt lat="46.4616990" lon="6.8415710">
        <ele>386.4</ele>
        <time>2019-02-24T11:15:31Z</time>
      </trkpt>
      <trkpt lat="46.4616770" lon="6.8415200">
        <ele>386.2</ele>
        <time>2019-02-24T11:15:32Z</time>
      </trkpt>
      <trkpt lat="46.4616540" lon="6.8414700">
        <ele>386.0</ele>
        <time>2019-02-24T11:15:33Z</time>
      </trkpt>
      <trkpt lat="46.4616280" lon="6.8414220">
        <ele>385.9</ele>
        <time>2019-02-24T11:15:34Z</time>
      </trkpt>
      <trkpt lat="46.4615970" lon="6.8413740">
        <ele>385.8</ele>
        <time>2019-02-24T11:15:35Z</time>
      </trkpt>
      <trkpt lat="46.4615600" lon="6.8413250">
        <ele>385.6</ele>
        <time>2019-02-24T11:15:36Z</time>
      </trkpt>
      <trkpt lat="46.4615200" lon="6.8412750">
        <ele>385.4</ele>
        <time>2019-02-24T11:15:37Z</time>
      </trkpt>
      <trkpt lat="46.4614780" lon="6.8412230">
        <ele>385.2</ele>
        <time>2019-02-24T11:15:38Z</time>
      </trkpt>
      <trkpt lat="46.4614390" lon="6.8411690">
        <ele>385.1</ele>
        <time>2019-02-24T11:15:39Z</time>
      </trkpt>
      <trkpt lat="46.4614030" lon="6.8411140">
        <ele>384.9</ele>
        <time>2019-02-24T11:15:40Z</time>
      </trkpt>
      <trkpt lat="46.4613730" lon="6.8410630">
        <ele>384.7</ele>
        <time>2019-02-24T11:15:41Z</time>
      </trkpt>
      <trkpt lat="46.4613500" lon="6.8410220">
        <ele>384.6</ele>
        <time>2019-02-24T11:15:42Z</time>
      </trkpt>
      <trkpt lat="46.4613320" lon="6.8409890">
        <ele>384.5</ele>
        <time>2019-02-24T11:15:43Z</time>
      </trkpt>
      <trkpt lat="46.4613200" lon="6.8409610">
        <ele>384.4</ele>
        <time>2019-02-24T11:15:44Z</time>
      </trkpt>
      <trkpt lat="46.4613110" lon="6.8409370">
        <ele>384.3</ele>
        <time>2019-02-24T11:15:45Z</time>
      </trkpt>
      <trkpt lat="46.4613030" lon="6.8409200">
        <ele>384.3</ele>
        <time>2019-02-24T11:15:46Z</time>
      </trkpt>
      <trkpt lat="46.4612930" lon="6.8409090">
        <ele>384.3</ele>
        <time>2019-02-24T11:15:47Z</time>
      </trkpt>
      <trkpt lat="46.4612810" lon="6.8409050">
        <ele>384.2</ele>
        <time>2019-02-24T11:15:48Z</time>
      </trkpt>
      <trkpt lat="46.4612670" lon="6.8409080">
        <ele>384.2</ele>
        <time>2019-02-24T11:15:49Z</time>
      </trkpt>
      <trkpt lat="46.4612520" lon="6.8409170">
        <ele>384.1</ele>
        <time>2019-02-24T11:15:50Z</time>
      </trkpt>
      <trkpt lat="46.4612390" lon="6.8409310">
        <ele>384.1</ele>
        <time>2019-02-24T11:15:51Z</time>
      </trkpt>
      <trkpt lat="46.4612180" lon="6.8409600">
        <ele>384.0</ele>
        <time>2019-02-24T11:15:52Z</time>
      </trkpt>
      <trkpt lat="46.4612100" lon="6.8409750">
        <ele>383.9</ele>
        <time>2019-02-24T11:15:53Z</time>
      </trkpt>
      <trkpt lat="46.4612030" lon="6.8409900">
        <ele>383.9</ele>
        <time>2019-02-24T11:15:54Z</time>
      </trkpt>
      <trkpt lat="46.4611950" lon="6.8410040">
        <ele>383.9</ele>
        <time>2019-02-24T11:15:55Z</time>
      </trkpt>
      <trkpt lat="46.4611880" lon="6.8410190">
        <ele>383.9</ele>
        <time>2019-02-24T11:15:56Z</time>
      </trkpt>
      <trkpt lat="46.4611800" lon="6.8410340">
        <ele>384.0</ele>
        <time>2019-02-24T11:15:57Z</time>
      </trkpt>
      <trkpt lat="46.4611720" lon="6.8410500">
        <ele>384.0</ele>
        <time>2019-02-24T11:15:58Z</time>
      </trkpt>
      <trkpt lat="46.4611640" lon="6.8410660">
        <ele>384.0</ele>
        <time>2019-02-24T11:15:59Z</time>
      </trkpt>
      <trkpt lat="46.4611560" lon="6.8410830">
        <ele>384.0</ele>
        <time>2019-02-24T11:16:00Z</time>
      </trkpt>
      <trkpt lat="46.4611470" lon="6.8411010">
        <ele>384.0</ele>
        <time>2019-02-24T11:16:01Z</time>
      </trkpt>
      <trkpt lat="46.4611370" lon="6.8411200">
        <ele>384.1</ele>
        <time>2019-02-24T11:16:02Z</time>
      </trkpt>
      <trkpt lat="46.4611260" lon="6.8411400">
        <ele>384.1</ele>
        <time>2019-02-24T11:16:03Z</time>
      </trkpt>
      <trkpt lat="46.4611130" lon="6.8411620">
        <ele>384.1</ele>
        <time>2019-02-24T11:16:04Z</time>
      </trkpt>
      <trkpt lat="46.4610980" lon="6.8411860">
        <ele>384.1</ele>
        <time>2019-02-24T11:16:05Z</time>
      </trkpt>
      <trkpt lat="46.4610820" lon="6.8412120">
        <ele>384.2</ele>
        <time>2019-02-24T11:16:06Z</time>
      </trkpt>
      <trkpt lat="46.4610640" lon="6.8412390">
        <ele>384.2</ele>
        <time>2019-02-24T11:16:07Z</time>
      </trkpt>
      <trkpt lat="46.4610450" lon="6.8412690">
        <ele>384.3</ele>
        <time>2019-02-24T11:16:08Z</time>
      </trkpt>
      <trkpt lat="46.4610130" lon="6.8413180">
        <ele>384.3</ele>
        <time>2019-02-24T11:16:09Z</time>
      </trkpt>
      <trkpt lat="46.4610010" lon="6.8413350">
        <ele>384.4</ele>
        <time>2019-02-24T11:16:10Z</time>
      </trkpt>
      <trkpt lat="46.4609780" lon="6.8413690">
        <ele>384.4</ele>
        <time>2019-02-24T11:16:11Z</time>
      </trkpt>
      <trkpt lat="46.4609530" lon="6.8414060">
        <ele>384.5</ele>
        <time>2019-02-24T11:16:12Z</time>
      </trkpt>
      <trkpt lat="46.4609290" lon="6.8414440">
        <ele>384.6</ele>
        <time>2019-02-24T11:16:13Z</time>
      </trkpt>
      <trkpt lat="46.4609070" lon="6.8414850">
        <ele>384.7</ele>
        <time>2019-02-24T11:16:14Z</time>
      </trkpt>
      <trkpt lat="46.4608900" lon="6.8415270">
        <ele>384.9</ele>
        <time>2019-02-24T11:16:15Z</time>
      </trkpt>
      <trkpt lat="46.4608760" lon="6.8415710">
        <ele>385.0</ele>
        <time>2019-02-24T11:16:16Z</time>
      </trkpt>
      <trkpt lat="46.4608640" lon="6.8416150">
        <ele>385.1</ele>
        <time>2019-02-24T11:16:17Z</time>
      </trkpt>
      <trkpt lat="46.4608500" lon="6.8416580">
        <ele>385.2</ele>
        <time>2019-02-24T11:16:18Z</time>
      </trkpt>
      <trkpt lat="46.4608360" lon="6.8416990">
        <ele>385.4</ele>
        <time>2019-02-24T11:16:19Z</time>
      </trkpt>
      <trkpt lat="46.4608230" lon="6.8417380">
        <ele>385.5</ele>
        <time>2019-02-24T11:16:20Z</time>
      </trkpt>
      <trkpt lat="46.4608120" lon="6.8417730">
        <ele>385.5</ele>
        <time>2019-02-24T11:16:21Z</time>
      </trkpt>
      <trkpt lat="46.4608000" lon="6.8418010">
        <ele>385.6</ele>
        <time>2019-02-24T11:16:22Z</time>
      </trkpt>
      <trkpt lat="46.4607860" lon="6.8418220">
        <ele>385.7</ele>
        <time>2019-02-24T11:16:23Z</time>
      </trkpt>
      <trkpt lat="46.4607690" lon="6.8418340">
        <ele>385.8</ele>
        <time>2019-02-24T11:16:24Z</time>
      </trkpt>
      <trkpt lat="46.4607500" lon="6.8418390">
        <ele>385.9</ele>
        <time>2019-02-24T11:16:25Z</time>
      </trkpt>
      <trkpt lat="46.4607290" lon="6.8418420">
        <ele>385.7</ele>
        <time>2019-02-24T11:16:26Z</time>
      </trkpt>
      <trkpt lat="46.4607070" lon="6.8418460">
        <ele>385.5</ele>
        <time>2019-02-24T11:16:27Z</time>
      </trkpt>
      <trkpt lat="46.4606840" lon="6.8418530">
        <ele>385.4</ele>
        <time>2019-02-24T11:16:28Z</time>
      </trkpt>
      <trkpt lat="46.4606610" lon="6.8418620">
        <ele>385.2</ele>
        <time>2019-02-24T11:16:29Z</time>
      </trkpt>
      <trkpt lat="46.4606390" lon="6.8418720">
        <ele>385.1</ele>
        <time>2019-02-24T11:16:30Z</time>
      </trkpt>
      <trkpt lat="46.4606180" lon="6.8418810">
        <ele>384.9</ele>
        <time>2019-02-24T11:16:31Z</time>
      </trkpt>
      <trkpt lat="46.4605990" lon="6.8418880">
        <ele>384.8</ele>
        <time>2019-02-24T11:16:32Z</time>
      </trkpt>
      <trkpt lat="46.4605790" lon="6.8418910">
        <ele>384.7</ele>
        <time>2019-02-24T11:16:33Z</time>
      </trkpt>
      <trkpt lat="46.4605580" lon="6.8418910">
        <ele>384.6</ele>
        <time>2019-02-24T11:16:34Z</time>
      </trkpt>
      <trkpt lat="46.4605340" lon="6.8418880">
        <ele>384.4</ele>
        <time>2019-02-24T11:16:35Z</time>
      </trkpt>
      <trkpt lat="46.4605060" lon="6.8418810">
        <ele>384.2</ele>
        <time>2019-02-24T11:16:36Z</time>
      </trkpt>
      <trkpt lat="46.4604760" lon="6.8418760">
        <ele>384.0</ele>
        <time>2019-02-24T11:16:37Z</time>
      </trkpt>
      <trkpt lat="46.4604470" lon="6.8418750">
        <ele>383.8</ele>
        <time>2019-02-24T11:16:38Z</time>
      </trkpt>
      <trkpt lat="46.4604210" lon="6.8418830">
        <ele>383.7</ele>
        <time>2019-02-24T11:16:39Z</time>
      </trkpt>
      <trkpt lat="46.4604010" lon="6.8419050">
        <ele>383.5</ele>
        <time>2019-02-24T11:16:40Z</time>
      </trkpt>
      <trkpt lat="46.4603860" lon="6.8419360">
        <ele>382.3</ele>
        <time>2019-02-24T11:16:41Z</time>
      </trkpt>
      <trkpt lat="46.4603770" lon="6.8419730">
        <ele>382.4</ele>
        <time>2019-02-24T11:16:42Z</time>
      </trkpt>
      <trkpt lat="46.4603740" lon="6.8420110">
        <ele>382.5</ele>
        <time>2019-02-24T11:16:43Z</time>
      </trkpt>
      <trkpt lat="46.4603750" lon="6.8420490">
        <ele>382.5</ele>
        <time>2019-02-24T11:16:44Z</time>
      </trkpt>
      <trkpt lat="46.4603740" lon="6.8420850">
        <ele>382.6</ele>
        <time>2019-02-24T11:16:45Z</time>
      </trkpt>
      <trkpt lat="46.4603680" lon="6.8421250">
        <ele>382.7</ele>
        <time>2019-02-24T11:16:46Z</time>
      </trkpt>
      <trkpt lat="46.4603620" lon="6.8421670">
        <ele>382.7</ele>
        <time>2019-02-24T11:16:47Z</time>
      </trkpt>
      <trkpt lat="46.4603600" lon="6.8422120">
        <ele>383.8</ele>
        <time>2019-02-24T11:16:48Z</time>
      </trkpt>
      <trkpt lat="46.4603630" lon="6.8422590">
        <ele>383.9</ele>
        <time>2019-02-24T11:16:49Z</time>
      </trkpt>
      <trkpt lat="46.4603650" lon="6.8423260">
        <ele>383.9</ele>
        <time>2019-02-24T11:16:50Z</time>
      </trkpt>
      <trkpt lat="46.4603650" lon="6.8423470">
        <ele>384.0</ele>
        <time>2019-02-24T11:16:51Z</time>
      </trkpt>
      <trkpt lat="46.4603590" lon="6.8423840">
        <ele>384.0</ele>
        <time>2019-02-24T11:16:52Z</time>
      </trkpt>
      <trkpt lat="46.4603480" lon="6.8424180">
        <ele>384.1</ele>
        <time>2019-02-24T11:16:53Z</time>
      </trkpt>
      <trkpt lat="46.4603340" lon="6.8424500">
        <ele>384.2</ele>
        <time>2019-02-24T11:16:54Z</time>
      </trkpt>
      <trkpt lat="46.4603180" lon="6.8424810">
        <ele>384.3</ele>
        <time>2019-02-24T11:16:55Z</time>
      </trkpt>
      <trkpt lat="46.4603010" lon="6.8425140">
        <ele>384.4</ele>
        <time>2019-02-24T11:16:56Z</time>
      </trkpt>
      <trkpt lat="46.4602860" lon="6.8425480">
        <ele>384.5</ele>
        <time>2019-02-24T11:16:57Z</time>
      </trkpt>
      <trkpt lat="46.4602710" lon="6.8425840">
        <ele>384.6</ele>
        <time>2019-02-24T11:16:58Z</time>
      </trkpt>
      <trkpt lat="46.4602600" lon="6.8426220">
        <ele>384.7</ele>
        <time>2019-02-24T11:16:59Z</time>
      </trkpt>
      <trkpt lat="46.4602510" lon="6.8426620">
        <ele>385.0</ele>
        <time>2019-02-24T11:17:00Z</time>
      </trkpt>
      <trkpt lat="46.4602440" lon="6.8427040">
        <ele>385.2</ele>
        <time>2019-02-24T11:17:01Z</time>
      </trkpt>
      <trkpt lat="46.4602390" lon="6.8427450">
        <ele>385.4</ele>
        <time>2019-02-24T11:17:02Z</time>
      </trkpt>
      <trkpt lat="46.4602350" lon="6.8427840">
        <ele>385.8</ele>
        <time>2019-02-24T11:17:03Z</time>
      </trkpt>
      <trkpt lat="46.4602310" lon="6.8428200">
        <ele>385.8</ele>
        <time>2019-02-24T11:17:04Z</time>
      </trkpt>
      <trkpt lat="46.4602250" lon="6.8428520">
        <ele>385.9</ele>
        <time>2019-02-24T11:17:05Z</time>
      </trkpt>
      <trkpt lat="46.4602190" lon="6.8428810">
        <ele>386.0</ele>
        <time>2019-02-24T11:17:06Z</time>
      </trkpt>
      <trkpt lat="46.4602140" lon="6.8429070">
        <ele>386.0</ele>
        <time>2019-02-24T11:17:07Z</time>
      </trkpt>
      <trkpt lat="46.4602100" lon="6.8429330">
        <ele>386.1</ele>
        <time>2019-02-24T11:17:08Z</time>
      </trkpt>
      <trkpt lat="46.4602070" lon="6.8429600">
        <ele>386.1</ele>
        <time>2019-02-24T11:17:09Z</time>
      </trkpt>
      <trkpt lat="46.4602060" lon="6.8429880">
        <ele>386.2</ele>
        <time>2019-02-24T11:17:10Z</time>
      </trkpt>
      <trkpt lat="46.4602060" lon="6.8430200">
        <ele>386.2</ele>
        <time>2019-02-24T11:17:11Z</time>
      </trkpt>
      <trkpt lat="46.4602050" lon="6.8430550">
        <ele>386.2</ele>
        <time>2019-02-24T11:17:12Z</time>
      </trkpt>
      <trkpt lat="46.4602050" lon="6.8430960">
        <ele>386.2</ele>
        <time>2019-02-24T11:17:13Z</time>
      </trkpt>
      <trkpt lat="46.4602030" lon="6.8431410">
        <ele>386.2</ele>
        <time>2019-02-24T11:17:14Z</time>
      </trkpt>
      <trkpt lat="46.4602010" lon="6.8431870">
        <ele>386.3</ele>
        <time>2019-02-24T11:17:15Z</time>
      </trkpt>
      <trkpt lat="46.4601980" lon="6.8432330">
        <ele>386.3</ele>
        <time>2019-02-24T11:17:16Z</time>
      </trkpt>
      <trkpt lat="46.4601940" lon="6.8432770">
        <ele>386.3</ele>
        <time>2019-02-24T11:17:17Z</time>
      </trkpt>
      <trkpt lat="46.4601880" lon="6.8433210">
        <ele>386.3</ele>
        <time>2019-02-24T11:17:18Z</time>
      </trkpt>
      <trkpt lat="46.4601810" lon="6.8433630">
        <ele>386.3</ele>
        <time>2019-02-24T11:17:19Z</time>
      </trkpt>
      <trkpt lat="46.4601700" lon="6.8434060">
        <ele>386.3</ele>
        <time>2019-02-24T11:17:20Z</time>
      </trkpt>
      <trkpt lat="46.4601570" lon="6.8434490">
        <ele>386.4</ele>
        <time>2019-02-24T11:17:21Z</time>
      </trkpt>
      <trkpt lat="46.4601420" lon="6.8434920">
        <ele>386.4</ele>
        <time>2019-02-24T11:17:22Z</time>
      </trkpt>
      <trkpt lat="46.4601270" lon="6.8435320">
        <ele>386.4</ele>
        <time>2019-02-24T11:17:23Z</time>
      </trkpt>
      <trkpt lat="46.4601150" lon="6.8435690">
        <ele>386.4</ele>
        <time>2019-02-24T11:17:24Z</time>
      </trkpt>
      <trkpt lat="46.4601070" lon="6.8436010">
        <ele>386.4</ele>
        <time>2019-02-24T11:17:25Z</time>
      </trkpt>
      <trkpt lat="46.4601020" lon="6.8436290">
        <ele>386.4</ele>
        <time>2019-02-24T11:17:26Z</time>
      </trkpt>
      <trkpt lat="46.4600960" lon="6.8436560">
        <ele>386.4</ele>
        <time>2019-02-24T11:17:27Z</time>
      </trkpt>
      <trkpt lat="46.4600890" lon="6.8436820">
        <ele>386.4</ele>
        <time>2019-02-24T11:17:28Z</time>
      </trkpt>
      <trkpt lat="46.4600790" lon="6.8437110">
        <ele>386.4</ele>
        <time>2019-02-24T11:17:29Z</time>
      </trkpt>
      <trkpt lat="46.4600650" lon="6.8437400">
        <ele>386.5</ele>
        <time>2019-02-24T11:17:30Z</time>
      </trkpt>
      <trkpt lat="46.4600490" lon="6.8437690">
        <ele>386.5</ele>
        <time>2019-02-24T11:17:31Z</time>
      </trkpt>
      <trkpt lat="46.4600300" lon="6.8437970">
        <ele>386.5</ele>
        <time>2019-02-24T11:17:32Z</time>
      </trkpt>
      <trkpt lat="46.4600110" lon="6.8438250">
        <ele>386.4</ele>
        <time>2019-02-24T11:17:33Z</time>
      </trkpt>
      <trkpt lat="46.4599900" lon="6.8438530">
        <ele>386.3</ele>
        <time>2019-02-24T11:17:34Z</time>
      </trkpt>
      <trkpt lat="46.4599660" lon="6.8438820">
        <ele>386.3</ele>
        <time>2019-02-24T11:17:35Z</time>
      </trkpt>
      <trkpt lat="46.4599410" lon="6.8439160">
        <ele>386.3</ele>
        <time>2019-02-24T11:17:36Z</time>
      </trkpt>
      <trkpt lat="46.4598920" lon="6.8439830">
        <ele>386.2</ele>
        <time>2019-02-24T11:17:37Z</time>
      </trkpt>
      <trkpt lat="46.4598720" lon="6.8440110">
        <ele>386.1</ele>
        <time>2019-02-24T11:17:38Z</time>
      </trkpt>
      <trkpt lat="46.4598520" lon="6.8440400">
        <ele>386.1</ele>
        <time>2019-02-24T11:17:39Z</time>
      </trkpt>
      <trkpt lat="46.4598230" lon="6.8440830">
        <ele>386.0</ele>
        <time>2019-02-24T11:17:40Z</time>
      </trkpt>
      <trkpt lat="46.4597950" lon="6.8441230">
        <ele>386.0</ele>
        <time>2019-02-24T11:17:41Z</time>
      </trkpt>
      <trkpt lat="46.4597700" lon="6.8441600">
        <ele>386.0</ele>
        <time>2019-02-24T11:17:42Z</time>
      </trkpt>
      <trkpt lat="46.4597470" lon="6.8441950">
        <ele>385.9</ele>
        <time>2019-02-24T11:17:43Z</time>
      </trkpt>
      <trkpt lat="46.4597260" lon="6.8442290">
        <ele>385.9</ele>
        <time>2019-02-24T11:17:44Z</time>
      </trkpt>
      <trkpt lat="46.4597080" lon="6.8442610">
        <ele>385.8</ele>
        <time>2019-02-24T11:17:45Z</time>
      </trkpt>
      <trkpt lat="46.4596910" lon="6.8442910">
        <ele>385.8</ele>
        <time>2019-02-24T11:17:46Z</time>
      </trkpt>
      <trkpt lat="46.4596770" lon="6.8443210">
        <ele>385.7</ele>
        <time>2019-02-24T11:17:47Z</time>
      </trkpt>
      <trkpt lat="46.4596660" lon="6.8443500">
        <ele>385.7</ele>
        <time>2019-02-24T11:17:48Z</time>
      </trkpt>
      <trkpt lat="46.4596560" lon="6.8443800">
        <ele>385.6</ele>
        <time>2019-02-24T11:17:49Z</time>
      </trkpt>
      <trkpt lat="46.4596490" lon="6.8444100">
        <ele>385.6</ele>
        <time>2019-02-24T11:17:50Z</time>
      </trkpt>
      <trkpt lat="46.4596410" lon="6.8444430">
        <ele>385.5</ele>
        <time>2019-02-24T11:17:51Z</time>
      </trkpt>
      <trkpt lat="46.4596340" lon="6.8444790">
        <ele>385.5</ele>
        <time>2019-02-24T11:17:52Z</time>
      </trkpt>
      <trkpt lat="46.4596260" lon="6.8445190">
        <ele>385.4</ele>
        <time>2019-02-24T11:17:53Z</time>
      </trkpt>
      <trkpt lat="46.4596150" lon="6.8445630">
        <ele>385.3</ele>
        <time>2019-02-24T11:17:54Z</time>
      </trkpt>
      <trkpt lat="46.4596030" lon="6.8446070">
        <ele>385.3</ele>
        <time>2019-02-24T11:17:55Z</time>
      </trkpt>
      <trkpt lat="46.4595880" lon="6.8446510">
        <ele>385.2</ele>
        <time>2019-02-24T11:17:56Z</time>
      </trkpt>
      <trkpt lat="46.4595710" lon="6.8446930">
        <ele>385.1</ele>
        <time>2019-02-24T11:17:57Z</time>
      </trkpt>
      <trkpt lat="46.4595360" lon="6.8447570">
        <ele>385.0</ele>
        <time>2019-02-24T11:17:58Z</time>
      </trkpt>
      <trkpt lat="46.4595220" lon="6.8447800">
        <ele>384.9</ele>
        <time>2019-02-24T11:17:59Z</time>
      </trkpt>
      <trkpt lat="46.4595080" lon="6.8448040">
        <ele>384.9</ele>
        <time>2019-02-24T11:18:00Z</time>
      </trkpt>
      <trkpt lat="46.4594870" lon="6.8448350">
        <ele>384.8</ele>
        <time>2019-02-24T11:18:01Z</time>
      </trkpt>
      <trkpt lat="46.4594680" lon="6.8448630">
        <ele>384.8</ele>
        <time>2019-02-24T11:18:02Z</time>
      </trkpt>
      <trkpt lat="46.4594500" lon="6.8448890">
        <ele>384.5</ele>
        <time>2019-02-24T11:18:03Z</time>
      </trkpt>
      <trkpt lat="46.4594330" lon="6.8449110">
        <ele>384.5</ele>
        <time>2019-02-24T11:18:04Z</time>
      </trkpt>
      <trkpt lat="46.4594180" lon="6.8449310">
        <ele>384.5</ele>
        <time>2019-02-24T11:18:05Z</time>
      </trkpt>
      <trkpt lat="46.4594030" lon="6.8449470">
        <ele>384.5</ele>
        <time>2019-02-24T11:18:06Z</time>
      </trkpt>
      <trkpt lat="46.4593890" lon="6.8449570">
        <ele>384.5</ele>
        <time>2019-02-24T11:18:07Z</time>
      </trkpt>
      <trkpt lat="46.4593740" lon="6.8449590">
        <ele>384.5</ele>
        <time>2019-02-24T11:18:08Z</time>
      </trkpt>
      <trkpt lat="46.4593570" lon="6.8449510">
        <ele>384.2</ele>
        <time>2019-02-24T11:18:09Z</time>
      </trkpt>
      <trkpt lat="46.4593380" lon="6.8449370">
        <ele>384.1</ele>
        <time>2019-02-24T11:18:10Z</time>
      </trkpt>
      <trkpt lat="46.4593180" lon="6.8449180">
        <ele>384.1</ele>
        <time>2019-02-24T11:18:11Z</time>
      </trkpt>
      <trkpt lat="46.4592960" lon="6.8448960">
        <ele>384.0</ele>
        <time>2019-02-24T11:18:12Z</time>
      </trkpt>
      <trkpt lat="46.4592710" lon="6.8448750">
        <ele>383.9</ele>
        <time>2019-02-24T11:18:13Z</time>
      </trkpt>
      <trkpt lat="46.4592450" lon="6.8448540">
        <ele>383.9</ele>
        <time>2019-02-24T11:18:14Z</time>
      </trkpt>
      <trkpt lat="46.4592180" lon="6.8448330">
        <ele>383.7</ele>
        <time>2019-02-24T11:18:15Z</time>
      </trkpt>
      <trkpt lat="46.4591900" lon="6.8448120">
        <ele>383.6</ele>
        <time>2019-02-24T11:18:16Z</time>
      </trkpt>
      <trkpt lat="46.4591620" lon="6.8447910">
        <ele>383.5</ele>
        <time>2019-02-24T11:18:17Z</time>
      </trkpt>
      <trkpt lat="46.4591340" lon="6.8447700">
        <ele>383.4</ele>
        <time>2019-02-24T11:18:18Z</time>
      </trkpt>
      <trkpt lat="46.4591060" lon="6.8447500">
        <ele>383.2</ele>
        <time>2019-02-24T11:18:19Z</time>
      </trkpt>
      <trkpt lat="46.4590800" lon="6.8447290">
        <ele>383.1</ele>
        <time>2019-02-24T11:18:20Z</time>
      </trkpt>
      <trkpt lat="46.4590540" lon="6.8447080">
        <ele>383.0</ele>
        <time>2019-02-24T11:18:21Z</time>
      </trkpt>
      <trkpt lat="46.4590310" lon="6.8446890">
        <ele>382.9</ele>
        <time>2019-02-24T11:18:22Z</time>
      </trkpt>
      <trkpt lat="46.4590110" lon="6.8446710">
        <ele>382.8</ele>
        <time>2019-02-24T11:18:23Z</time>
      </trkpt>
      <trkpt lat="46.4589940" lon="6.8446550">
        <ele>382.7</ele>
        <time>2019-02-24T11:18:24Z</time>
      </trkpt>
      <trkpt lat="46.4589800" lon="6.8446420">
        <ele>382.6</ele>
        <time>2019-02-24T11:18:25Z</time>
      </trkpt>
      <trkpt lat="46.4589700" lon="6.8446290">
        <ele>382.6</ele>
        <time>2019-02-24T11:18:26Z</time>
      </trkpt>
      <trkpt lat="46.4589630" lon="6.8446120">
        <ele>382.5</ele>
        <time>2019-02-24T11:18:27Z</time>
      </trkpt>
      <trkpt lat="46.4589570" lon="6.8445860">
        <ele>382.5</ele>
        <time>2019-02-24T11:18:28Z</time>
      </trkpt>
      <trkpt lat="46.4589530" lon="6.8445500">
        <ele>382.4</ele>
        <time>2019-02-24T11:18:29Z</time>
      </trkpt>
      <trkpt lat="46.4589490" lon="6.8445070">
        <ele>382.2</ele>
        <time>2019-02-24T11:18:30Z</time>
      </trkpt>
      <trkpt lat="46.4589440" lon="6.8444610">
        <ele>382.2</ele>
        <time>2019-02-24T11:18:31Z</time>
      </trkpt>
      <trkpt lat="46.4589360" lon="6.8444150">
        <ele>382.1</ele>
        <time>2019-02-24T11:18:32Z</time>
      </trkpt>
      <trkpt lat="46.4589240" lon="6.8443750">
        <ele>382.1</ele>
        <time>2019-02-24T11:18:33Z</time>
      </trkpt>
      <trkpt lat="46.4589080" lon="6.8443400">
        <ele>382.1</ele>
        <time>2019-02-24T11:18:34Z</time>
      </trkpt>
      <trkpt lat="46.4588880" lon="6.8443110">
        <ele>381.8</ele>
        <time>2019-02-24T11:18:35Z</time>
      </trkpt>
      <trkpt lat="46.4588640" lon="6.8442860">
        <ele>381.3</ele>
        <time>2019-02-24T11:18:36Z</time>
      </trkpt>
      <trkpt lat="46.4588360" lon="6.8442650">
        <ele>380.8</ele>
        <time>2019-02-24T11:18:37Z</time>
      </trkpt>
      <trkpt lat="46.4588040" lon="6.8442500">
        <ele>380.3</ele>
        <time>2019-02-24T11:18:38Z</time>
      </trkpt>
      <trkpt lat="46.4587700" lon="6.8442390">
        <ele>379.8</ele>
        <time>2019-02-24T11:18:39Z</time>
      </trkpt>
      <trkpt lat="46.4587340" lon="6.8442330">
        <ele>379.2</ele>
        <time>2019-02-24T11:18:40Z</time>
      </trkpt>
      <trkpt lat="46.4586970" lon="6.8442320">
        <ele>378.6</ele>
        <time>2019-02-24T11:18:41Z</time>
      </trkpt>
      <trkpt lat="46.4586340" lon="6.8442360">
        <ele>377.6</ele>
        <time>2019-02-24T11:18:42Z</time>
      </trkpt>
      <trkpt lat="46.4586090" lon="6.8442380">
        <ele>377.2</ele>
        <time>2019-02-24T11:18:43Z</time>
      </trkpt>
      <trkpt lat="46.4585840" lon="6.8442400">
        <ele>376.8</ele>
        <time>2019-02-24T11:18:44Z</time>
      </trkpt>
      <trkpt lat="46.4585480" lon="6.8442400">
        <ele>376.3</ele>
        <time>2019-02-24T11:18:45Z</time>
      </trkpt>
      <trkpt lat="46.4585140" lon="6.8442390">
        <ele>375.8</ele>
        <time>2019-02-24T11:18:46Z</time>
      </trkpt>
      <trkpt lat="46.4584810" lon="6.8442390">
        <ele>375.3</ele>
        <time>2019-02-24T11:18:47Z</time>
      </trkpt>
      <trkpt lat="46.4584500" lon="6.8442400">
        <ele>374.5</ele>
        <time>2019-02-24T11:18:48Z</time>
      </trkpt>
      <trkpt lat="46.4584220" lon="6.8442460">
        <ele>374.7</ele>
        <time>2019-02-24T11:18:49Z</time>
      </trkpt>
      <trkpt lat="46.4583990" lon="6.8442610">
        <ele>375.0</ele>
        <time>2019-02-24T11:18:50Z</time>
      </trkpt>
      <trkpt lat="46.4583760" lon="6.8442750">
        <ele>375.2</ele>
        <time>2019-02-24T11:18:51Z</time>
      </trkpt>
      <trkpt lat="46.4583590" lon="6.8443020">
        <ele>373.4</ele>
        <time>2019-02-24T11:18:52Z</time>
      </trkpt>
      <trkpt lat="46.4583460" lon="6.8443380">
        <ele>373.3</ele>
        <time>2019-02-24T11:18:53Z</time>
      </trkpt>
      <trkpt lat="46.4583360" lon="6.8443820">
        <ele>373.1</ele>
        <time>2019-02-24T11:18:54Z</time>
      </trkpt>
      <trkpt lat="46.4583270" lon="6.8444310">
        <ele>372.9</ele>
        <time>2019-02-24T11:18:55Z</time>
      </trkpt>
      <trkpt lat="46.4583170" lon="6.8444820">
        <ele>372.7</ele>
        <time>2019-02-24T11:18:56Z</time>
      </trkpt>
      <trkpt lat="46.4583050" lon="6.8445320">
        <ele>372.5</ele>
        <time>2019-02-24T11:18:57Z</time>
      </trkpt>
      <trkpt lat="46.4582910" lon="6.8445830">
        <ele>372.3</ele>
        <time>2019-02-24T11:18:58Z</time>
      </trkpt>
      <trkpt lat="46.4582770" lon="6.8446340">
        <ele>372.0</ele>
        <time>2019-02-24T11:18:59Z</time>
      </trkpt>
      <trkpt lat="46.4582630" lon="6.8446880">
        <ele>371.8</ele>
        <time>2019-02-24T11:19:00Z</time>
      </trkpt>
      <trkpt lat="46.4582500" lon="6.8447450">
        <ele>371.6</ele>
        <time>2019-02-24T11:19:01Z</time>
      </trkpt>
      <trkpt lat="46.4582380" lon="6.8448030">
        <ele>371.3</ele>
        <time>2019-02-24T11:19:02Z</time>
      </trkpt>
      <trkpt lat="46.4582280" lon="6.8448640">
        <ele>371.1</ele>
        <time>2019-02-24T11:19:03Z</time>
      </trkpt>
      <trkpt lat="46.4582180" lon="6.8449260">
        <ele>371.1</ele>
        <time>2019-02-24T11:19:04Z</time>
      </trkpt>
      <trkpt lat="46.4582100" lon="6.8449890">
        <ele>371.1</ele>
        <time>2019-02-24T11:19:05Z</time>
      </trkpt>
      <trkpt lat="46.4582010" lon="6.8450520">
        <ele>371.1</ele>
        <time>2019-02-24T11:19:06Z</time>
      </trkpt>
      <trkpt lat="46.4581930" lon="6.8451150">
        <ele>371.1</ele>
        <time>2019-02-24T11:19:07Z</time>
      </trkpt>
      <trkpt lat="46.4581850" lon="6.8451770">
        <ele>371.1</ele>
        <time>2019-02-24T11:19:08Z</time>
      </trkpt>
      <trkpt lat="46.4581780" lon="6.8452370">
        <ele>371.1</ele>
        <time>2019-02-24T11:19:09Z</time>
      </trkpt>
      <trkpt lat="46.4581700" lon="6.8452970">
        <ele>371.2</ele>
        <time>2019-02-24T11:19:10Z</time>
      </trkpt>
      <trkpt lat="46.4581620" lon="6.8453540">
        <ele>371.3</ele>
        <time>2019-02-24T11:19:11Z</time>
      </trkpt>
      <trkpt lat="46.4581540" lon="6.8454110">
        <ele>371.4</ele>
        <time>2019-02-24T11:19:12Z</time>
      </trkpt>
      <trkpt lat="46.4581470" lon="6.8454660">
        <ele>371.6</ele>
        <time>2019-02-24T11:19:13Z</time>
      </trkpt>
      <trkpt lat="46.4581400" lon="6.8455200">
        <ele>371.7</ele>
        <time>2019-02-24T11:19:14Z</time>
      </trkpt>
      <trkpt lat="46.4581320" lon="6.8455730">
        <ele>372.0</ele>
        <time>2019-02-24T11:19:15Z</time>
      </trkpt>
      <trkpt lat="46.4581250" lon="6.8456250">
        <ele>372.2</ele>
        <time>2019-02-24T11:19:16Z</time>
      </trkpt>
      <trkpt lat="46.4581190" lon="6.8456750">
        <ele>372.4</ele>
        <time>2019-02-24T11:19:17Z</time>
      </trkpt>
      <trkpt lat="46.4581120" lon="6.8457240">
        <ele>372.6</ele>
        <time>2019-02-24T11:19:18Z</time>
      </trkpt>
      <trkpt lat="46.4581060" lon="6.8457730">
        <ele>372.6</ele>
        <time>2019-02-24T11:19:19Z</time>
      </trkpt>
      <trkpt lat="46.4581000" lon="6.8458200">
        <ele>372.5</ele>
        <time>2019-02-24T11:19:20Z</time>
      </trkpt>
      <trkpt lat="46.4580940" lon="6.8458670">
        <ele>372.5</ele>
        <time>2019-02-24T11:19:21Z</time>
      </trkpt>
      <trkpt lat="46.4580880" lon="6.8459120">
        <ele>372.5</ele>
        <time>2019-02-24T11:19:22Z</time>
      </trkpt>
      <trkpt lat="46.4580820" lon="6.8459560">
        <ele>372.4</ele>
        <time>2019-02-24T11:19:23Z</time>
      </trkpt>
      <trkpt lat="46.4580760" lon="6.8460000">
        <ele>372.4</ele>
        <time>2019-02-24T11:19:24Z</time>
      </trkpt>
      <trkpt lat="46.4580700" lon="6.8460430">
        <ele>372.4</ele>
        <time>2019-02-24T11:19:25Z</time>
      </trkpt>
      <trkpt lat="46.4580630" lon="6.8460840">
        <ele>372.4</ele>
        <time>2019-02-24T11:19:26Z</time>
      </trkpt>
      <trkpt lat="46.4580570" lon="6.8461250">
        <ele>372.3</ele>
        <time>2019-02-24T11:19:27Z</time>
      </trkpt>
      <trkpt lat="46.4580500" lon="6.8461640">
        <ele>372.3</ele>
        <time>2019-02-24T11:19:28Z</time>
      </trkpt>
      <trkpt lat="46.4580430" lon="6.8462010">
        <ele>372.3</ele>
        <time>2019-02-24T11:19:29Z</time>
      </trkpt>
      <trkpt lat="46.4580360" lon="6.8462350">
        <ele>372.3</ele>
        <time>2019-02-24T11:19:30Z</time>
      </trkpt>
      <trkpt lat="46.4580280" lon="6.8462650">
        <ele>372.2</ele>
        <time>2019-02-24T11:19:31Z</time>
      </trkpt>
      <trkpt lat="46.4580180" lon="6.8462860">
        <ele>372.2</ele>
        <time>2019-02-24T11:19:32Z</time>
      </trkpt>
      <trkpt lat="46.4580050" lon="6.8462980">
        <ele>371.7</ele>
        <time>2019-02-24T11:19:33Z</time>
      </trkpt>
      <trkpt lat="46.4579870" lon="6.8462980">
        <ele>371.5</ele>
        <time>2019-02-24T11:19:34Z</time>
      </trkpt>
      <trkpt lat="46.4579680" lon="6.8462890">
        <ele>371.3</ele>
        <time>2019-02-24T11:19:35Z</time>
      </trkpt>
      <trkpt lat="46.4579480" lon="6.8462740">
        <ele>371.2</ele>
        <time>2019-02-24T11:19:36Z</time>
      </trkpt>
      <trkpt lat="46.4579310" lon="6.8462570">
        <ele>371.0</ele>
        <time>2019-02-24T11:19:37Z</time>
      </trkpt>
      <trkpt lat="46.4579170" lon="6.8462410">
        <ele>371.0</ele>
        <time>2019-02-24T11:19:38Z</time>
      </trkpt>
      <trkpt lat="46.4579070" lon="6.8462250">
        <ele>371.1</ele>
        <time>2019-02-24T11:19:39Z</time>
      </trkpt>
      <trkpt lat="46.4579000" lon="6.8462120">
        <ele>371.1</ele>
        <time>2019-02-24T11:19:40Z</time>
      </trkpt>
      <trkpt lat="46.4578940" lon="6.8462010">
        <ele>371.1</ele>
        <time>2019-02-24T11:19:41Z</time>
      </trkpt>
      <trkpt lat="46.4578900" lon="6.8461930">
        <ele>371.1</ele>
        <time>2019-02-24T11:19:42Z</time>
      </trkpt>
      <trkpt lat="46.4578870" lon="6.8461870">
        <ele>371.1</ele>
        <time>2019-02-24T11:19:43Z</time>
      </trkpt>
      <trkpt lat="46.4578860" lon="6.8461820">
        <ele>371.1</ele>
        <time>2019-02-24T11:19:44Z</time>
      </trkpt>
      <trkpt lat="46.4578850" lon="6.8461800">
        <ele>371.1</ele>
        <time>2019-02-24T11:19:45Z</time>
      </trkpt>
      <trkpt lat="46.4578840" lon="6.8461790">
        <ele>371.1</ele>
        <time>2019-02-24T11:19:46Z</time>
      </trkpt>
      <trkpt lat="46.4578840" lon="6.8461780">
        <ele>371.1</ele>
        <time>2019-02-24T11:19:47Z</time>
      </trkpt>
      <trkpt lat="46.4578840" lon="6.8461780">
        <ele>371.1</ele>
        <time>2019-02-24T11:19:48Z</time>
      </trkpt>
      <trkpt lat="46.4578850" lon="6.8461790">
        <ele>371.1</ele>
        <time>2019-02-24T11:19:49Z</time>
      </trkpt>
      <trkpt lat="46.4578850" lon="6.8461790">
        <ele>371.1</ele>
        <time>2019-02-24T11:19:50Z</time>
      </trkpt>
      <trkpt lat="46.4578850" lon="6.8461790">
        <ele>371.1</ele>
        <time>2019-02-24T11:19:51Z</time>
      </trkpt>
      <trkpt lat="46.4578850" lon="6.8461800">
        <ele>371.1</ele>
        <time>2019-02-24T11:19:52Z</time>
      </trkpt>
      <trkpt lat="46.4578850" lon="6.8461800">
        <ele>371.1</ele>
        <time>2019-02-24T11:19:53Z</time>
      </trkpt>
      <trkpt lat="46.4578850" lon="6.8461800">
        <ele>371.1</ele>
        <time>2019-02-24T11:19:54Z</time>
      </trkpt>
      <trkpt lat="46.4578850" lon="6.8461800">
        <ele>371.1</ele>
        <time>2019-02-24T11:19:55Z</time>
      </trkpt>
      <trkpt lat="46.4578850" lon="6.8461800">
        <ele>371.1</ele>
        <time>2019-02-24T11:19:56Z</time>
      </trkpt>
      <trkpt lat="46.4578850" lon="6.8461800">
        <ele>371.1</ele>
        <time>2019-02-24T11:19:57Z</time>
      </trkpt>
      <trkpt lat="46.4578850" lon="6.8461800">
        <ele>371.1</ele>
        <time>2019-02-24T11:19:58Z</time>
      </trkpt>
      <trkpt lat="46.4578850" lon="6.8461790">
        <ele>371.1</ele>
        <time>2019-02-24T11:19:59Z</time>
      </trkpt>
      <trkpt lat="46.4578850" lon="6.8461790">
        <ele>371.1</ele>
        <time>2019-02-24T11:20:00Z</time>
      </trkpt>
      <trkpt lat="46.4578850" lon="6.8461790">
        <ele>371.1</ele>
        <time>2019-02-24T11:20:01Z</time>
      </trkpt>
      <trkpt lat="46.4578850" lon="6.8461790">
        <ele>371.1</ele>
        <time>2019-02-24T11:20:02Z</time>
      </trkpt>
      <trkpt lat="46.4578850" lon="6.8461790">
        <ele>371.1</ele>
        <time>2019-02-24T11:20:03Z</time>
      </trkpt>
      <trkpt lat="46.4578850" lon="6.8461790">
        <ele>371.1</ele>
        <time>2019-02-24T11:20:04Z</time>
      </trkpt>
      <trkpt lat="46.4578850" lon="6.8461790">
        <ele>371.1</ele>
        <time>2019-02-24T11:20:05Z</time>
      </trkpt>
      <trkpt lat="46.4578850" lon="6.8461790">
        <ele>371.1</ele>
        <time>2019-02-24T11:20:06Z</time>
      </trkpt>
      <trkpt lat="46.4578850" lon="6.8461790">
        <ele>371.1</ele>
        <time>2019-02-24T11:20:07Z</time>
      </trkpt>
      <trkpt lat="46.4578850" lon="6.8461800">
        <ele>371.1</ele>
        <time>2019-02-24T11:20:08Z</time>
      </trkpt>
      <trkpt lat="46.4578850" lon="6.8461800">
        <ele>371.1</ele>
        <time>2019-02-24T11:20:09Z</time>
      </trkpt>
      <trkpt lat="46.4578850" lon="6.8461800">
        <ele>371.1</ele>
        <time>2019-02-24T11:20:10Z</time>
      </trkpt>
      <trkpt lat="46.4578850" lon="6.8461800">
        <ele>371.1</ele>
        <time>2019-02-24T11:20:11Z</time>
      </trkpt>
      <trkpt lat="46.4578850" lon="6.8461800">
        <ele>371.1</ele>
        <time>2019-02-24T11:20:12Z</time>
      </trkpt>
      <trkpt lat="46.4578850" lon="6.8461800">
        <ele>371.1</ele>
        <time>2019-02-24T11:20:13Z</time>
      </trkpt>
      <trkpt lat="46.4578850" lon="6.8461800">
        <ele>371.1</ele>
        <time>2019-02-24T11:20:14Z</time>
      </trkpt>
      <trkpt lat="46.4578850" lon="6.8461800">
        <ele>371.1</ele>
        <time>2019-02-24T11:20:15Z</time>
      </trkpt>
      <trkpt lat="46.4578850" lon="6.8461800">
        <ele>371.1</ele>
        <time>2019-02-24T11:20:16Z</time>
      </trkpt>
      <trkpt lat="46.4578850" lon="6.8461800">
        <ele>371.1</ele>
        <time>2019-02-24T11:20:17Z</time>
      </trkpt>
      <trkpt lat="46.4578850" lon="6.8461800">
        <ele>371.1</ele>
        <time>2019-02-24T11:20:18Z</time>
      </trkpt>
      <trkpt lat="46.4578850" lon="6.8461800">
        <ele>371.1</ele>
        <time>2019-02-24T11:20:19Z</time>
      </trkpt>
      <trkpt lat="46.4578850" lon="6.8461800">
        <ele>371.1</ele>
        <time>2019-02-24T11:20:20Z</time>
      </trkpt>
      <trkpt lat="46.4578850" lon="6.8461800">
        <ele>371.1</ele>
        <time>2019-02-24T11:20:21Z</time>
      </trkpt>
      <trkpt lat="46.4578850" lon="6.8461800">
        <ele>371.1</ele>
        <time>2019-02-24T11:20:22Z</time>
      </trkpt>
      <trkpt lat="46.4578850" lon="6.8461800">
        <ele>371.1</ele>
        <time>2019-02-24T11:20:23Z</time>
      </trkpt>
      <trkpt lat="46.4578850" lon="6.8461800">
        <ele>371.1</ele>
        <time>2019-02-24T11:20:24Z</time>
      </trkpt>
      <trkpt lat="46.4578850" lon="6.8461800">
        <ele>371.1</ele>
        <time>2019-02-24T11:20:25Z</time>
      </trkpt>
      <trkpt lat="46.4578850" lon="6.8461800">
        <ele>371.1</ele>
        <time>2019-02-24T11:20:26Z</time>
      </trkpt>
      <trkpt lat="46.4578850" lon="6.8461790">
        <ele>371.1</ele>
        <time>2019-02-24T11:20:27Z</time>
      </trkpt>
      <trkpt lat="46.4578850" lon="6.8461790">
        <ele>371.1</ele>
        <time>2019-02-24T11:20:28Z</time>
      </trkpt>
      <trkpt lat="46.4578850" lon="6.8461790">
        <ele>371.1</ele>
        <time>2019-02-24T11:20:29Z</time>
      </trkpt>
      <trkpt lat="46.4578850" lon="6.8461790">
        <ele>371.1</ele>
        <time>2019-02-24T11:20:30Z</time>
      </trkpt>
      <trkpt lat="46.4578850" lon="6.8461790">
        <ele>371.1</ele>
        <time>2019-02-24T11:20:31Z</time>
      </trkpt>
      <trkpt lat="46.4578850" lon="6.8461790">
        <ele>371.1</ele>
        <time>2019-02-24T11:20:32Z</time>
      </trkpt>
      <trkpt lat="46.4578850" lon="6.8461790">
        <ele>371.1</ele>
        <time>2019-02-24T11:20:33Z</time>
      </trkpt>
      <trkpt lat="46.4578850" lon="6.8461790">
        <ele>371.1</ele>
        <time>2019-02-24T11:20:34Z</time>
      </trkpt>
      <trkpt lat="46.4578850" lon="6.8461790">
        <ele>371.1</ele>
        <time>2019-02-24T11:20:35Z</time>
      </trkpt>
      <trkpt lat="46.4578850" lon="6.8461800">
        <ele>371.1</ele>
        <time>2019-02-24T11:20:36Z</time>
      </trkpt>
      <trkpt lat="46.4578850" lon="6.8461800">
        <ele>371.1</ele>
        <time>2019-02-24T11:20:37Z</time>
      </trkpt>
      <trkpt lat="46.4578850" lon="6.8461800">
        <ele>371.1</ele>
        <time>2019-02-24T11:20:38Z</time>
      </trkpt>
      <trkpt lat="46.4578850" lon="6.8461800">
        <ele>371.1</ele>
        <time>2019-02-24T11:20:39Z</time>
      </trkpt>
      <trkpt lat="46.4578850" lon="6.8461800">
        <ele>371.1</ele>
        <time>2019-02-24T11:20:40Z</time>
      </trkpt>
      <trkpt lat="46.4578850" lon="6.8461800">
        <ele>371.1</ele>
        <time>2019-02-24T11:20:41Z</time>
      </trkpt>
      <trkpt lat="46.4578860" lon="6.8461800">
        <ele>371.1</ele>
        <time>2019-02-24T11:20:42Z</time>
      </trkpt>
      <trkpt lat="46.4578860" lon="6.8461820">
        <ele>371.1</ele>
        <time>2019-02-24T11:20:43Z</time>
      </trkpt>
      <trkpt lat="46.4578870" lon="6.8461870">
        <ele>371.1</ele>
        <time>2019-02-24T11:20:44Z</time>
      </trkpt>
      <trkpt lat="46.4578890" lon="6.8461970">
        <ele>371.1</ele>
        <time>2019-02-24T11:20:45Z</time>
      </trkpt>
      <trkpt lat="46.4578900" lon="6.8462130">
        <ele>371.2</ele>
        <time>2019-02-24T11:20:46Z</time>
      </trkpt>
      <trkpt lat="46.4578940" lon="6.8462390">
        <ele>371.2</ele>
        <time>2019-02-24T11:20:47Z</time>
      </trkpt>
      <trkpt lat="46.4578990" lon="6.8462730">
        <ele>371.2</ele>
        <time>2019-02-24T11:20:48Z</time>
      </trkpt>
      <trkpt lat="46.4579050" lon="6.8463130">
        <ele>371.2</ele>
        <time>2019-02-24T11:20:49Z</time>
      </trkpt>
      <trkpt lat="46.4579090" lon="6.8463560">
        <ele>371.3</ele>
        <time>2019-02-24T11:20:50Z</time>
      </trkpt>
      <trkpt lat="46.4579130" lon="6.8464010">
        <ele>371.3</ele>
        <time>2019-02-24T11:20:51Z</time>
      </trkpt>
      <trkpt lat="46.4579170" lon="6.8464450">
        <ele>371.4</ele>
        <time>2019-02-24T11:20:52Z</time>
      </trkpt>
      <trkpt lat="46.4579210" lon="6.8464870">
        <ele>371.4</ele>
        <time>2019-02-24T11:20:53Z</time>
      </trkpt>
      <trkpt lat="46.4579260" lon="6.8465270">
        <ele>371.5</ele>
        <time>2019-02-24T11:20:54Z</time>
      </trkpt>
      <trkpt lat="46.4579320" lon="6.8465640">
        <ele>371.5</ele>
        <time>2019-02-24T11:20:55Z</time>
      </trkpt>
      <trkpt lat="46.4579370" lon="6.8465990">
        <ele>371.5</ele>
        <time>2019-02-24T11:20:56Z</time>
      </trkpt>
      <trkpt lat="46.4579460" lon="6.8466490">
        <ele>371.6</ele>
        <time>2019-02-24T11:20:57Z</time>
      </trkpt>
      <trkpt lat="46.4579480" lon="6.8466660">
        <ele>371.6</ele>
        <time>2019-02-24T11:20:58Z</time>
      </trkpt>
      <trkpt lat="46.4579520" lon="6.8467000">
        <ele>371.6</ele>
        <time>2019-02-24T11:20:59Z</time>
      </trkpt>
      <trkpt lat="46.4579550" lon="6.8467350">
        <ele>371.7</ele>
        <time>2019-02-24T11:21:00Z</time>
      </trkpt>
      <trkpt lat="46.4579560" lon="6.8467720">
        <ele>371.7</ele>
        <time>2019-02-24T11:21:01Z</time>
      </trkpt>
      <trkpt lat="46.4579550" lon="6.8468100">
        <ele>371.7</ele>
        <time>2019-02-24T11:21:02Z</time>
      </trkpt>
      <trkpt lat="46.4579530" lon="6.8468510">
        <ele>372.7</ele>
        <time>2019-02-24T11:21:03Z</time>
      </trkpt>
      <trkpt lat="46.4579490" lon="6.8468930">
        <ele>372.8</ele>
        <time>2019-02-24T11:21:04Z</time>
      </trkpt>
      <trkpt lat="46.4579450" lon="6.8469370">
        <ele>372.9</ele>
        <time>2019-02-24T11:21:05Z</time>
      </trkpt>
      <trkpt lat="46.4579390" lon="6.8469820">
        <ele>373.0</ele>
        <time>2019-02-24T11:21:06Z</time>
      </trkpt>
      <trkpt lat="46.4579330" lon="6.8470280">
        <ele>373.1</ele>
        <time>2019-02-24T11:21:07Z</time>
      </trkpt>
      <trkpt lat="46.4579270" lon="6.8470750">
        <ele>373.2</ele>
        <time>2019-02-24T11:21:08Z</time>
      </trkpt>
      <trkpt lat="46.4579220" lon="6.8471210">
        <ele>373.2</ele>
        <time>2019-02-24T11:21:09Z</time>
      </trkpt>
      <trkpt lat="46.4579160" lon="6.8471680">
        <ele>373.3</ele>
        <time>2019-02-24T11:21:10Z</time>
      </trkpt>
      <trkpt lat="46.4579110" lon="6.8472150">
        <ele>373.3</ele>
        <time>2019-02-24T11:21:11Z</time>
      </trkpt>
      <trkpt lat="46.4579060" lon="6.8472620">
        <ele>373.3</ele>
        <time>2019-02-24T11:21:12Z</time>
      </trkpt>
      <trkpt lat="46.4579020" lon="6.8473090">
        <ele>373.4</ele>
        <time>2019-02-24T11:21:13Z</time>
      </trkpt>
      <trkpt lat="46.4578970" lon="6.8473570">
        <ele>373.4</ele>
        <time>2019-02-24T11:21:14Z</time>
      </trkpt>
      <trkpt lat="46.4578920" lon="6.8474050">
        <ele>373.4</ele>
        <time>2019-02-24T11:21:15Z</time>
      </trkpt>
      <trkpt lat="46.4578870" lon="6.8474540">
        <ele>373.4</ele>
        <time>2019-02-24T11:21:16Z</time>
      </trkpt>
      <trkpt lat="46.4578780" lon="6.8475380">
        <ele>373.5</ele>
        <time>2019-02-24T11:21:17Z</time>
      </trkpt>
      <trkpt lat="46.4578740" lon="6.8475720">
        <ele>373.5</ele>
        <time>2019-02-24T11:21:18Z</time>
      </trkpt>
      <trkpt lat="46.4578700" lon="6.8476060">
        <ele>373.5</ele>
        <time>2019-02-24T11:21:19Z</time>
      </trkpt>
      <trkpt lat="46.4578630" lon="6.8476590">
        <ele>373.5</ele>
        <time>2019-02-24T11:21:20Z</time>
      </trkpt>
      <trkpt lat="46.4578560" lon="6.8477120">
        <ele>373.5</ele>
        <time>2019-02-24T11:21:21Z</time>
      </trkpt>
      <trkpt lat="46.4578430" lon="6.8478020">
        <ele>373.6</ele>
        <time>2019-02-24T11:21:22Z</time>
      </trkpt>
      <trkpt lat="46.4578370" lon="6.8478380">
        <ele>373.6</ele>
        <time>2019-02-24T11:21:23Z</time>
      </trkpt>
      <trkpt lat="46.4578320" lon="6.8478750">
        <ele>373.6</ele>
        <time>2019-02-24T11:21:24Z</time>
      </trkpt>
      <trkpt lat="46.4578240" lon="6.8479310">
        <ele>373.7</ele>
        <time>2019-02-24T11:21:25Z</time>
      </trkpt>
      <trkpt lat="46.4578150" lon="6.8479870">
        <ele>373.7</ele>
        <time>2019-02-24T11:21:26Z</time>
      </trkpt>
      <trkpt lat="46.4578070" lon="6.8480440">
        <ele>373.8</ele>
        <time>2019-02-24T11:21:27Z</time>
      </trkpt>
      <trkpt lat="46.4577980" lon="6.8481010">
        <ele>373.9</ele>
        <time>2019-02-24T11:21:28Z</time>
      </trkpt>
      <trkpt lat="46.4577890" lon="6.8481590">
        <ele>373.9</ele>
        <time>2019-02-24T11:21:29Z</time>
      </trkpt>
      <trkpt lat="46.4577800" lon="6.8482170">
        <ele>374.0</ele>
        <time>2019-02-24T11:21:30Z</time>
      </trkpt>
      <trkpt lat="46.4577710" lon="6.8482760">
        <ele>374.1</ele>
        <time>2019-02-24T11:21:31Z</time>
      </trkpt>
      <trkpt lat="46.4577620" lon="6.8483340">
        <ele>374.1</ele>
        <time>2019-02-24T11:21:32Z</time>
      </trkpt>
      <trkpt lat="46.4577530" lon="6.8483930">
        <ele>374.2</ele>
        <time>2019-02-24T11:21:33Z</time>
      </trkpt>
      <trkpt lat="46.4577450" lon="6.8484530">
        <ele>374.3</ele>
        <time>2019-02-24T11:21:34Z</time>
      </trkpt>
      <trkpt lat="46.4577360" lon="6.8485120">
        <ele>374.4</ele>
        <time>2019-02-24T11:21:35Z</time>
      </trkpt>
      <trkpt lat="46.4577270" lon="6.8485720">
        <ele>374.4</ele>
        <time>2019-02-24T11:21:36Z</time>
      </trkpt>
      <trkpt lat="46.4577190" lon="6.8486320">
        <ele>374.5</ele>
        <time>2019-02-24T11:21:37Z</time>
      </trkpt>
      <trkpt lat="46.4577100" lon="6.8486920">
        <ele>374.6</ele>
        <time>2019-02-24T11:21:38Z</time>
      </trkpt>
      <trkpt lat="46.4577020" lon="6.8487520">
        <ele>374.7</ele>
        <time>2019-02-24T11:21:39Z</time>
      </trkpt>
      <trkpt lat="46.4576940" lon="6.8488120">
        <ele>374.9</ele>
        <time>2019-02-24T11:21:40Z</time>
      </trkpt>
      <trkpt lat="46.4576850" lon="6.8488720">
        <ele>375.0</ele>
        <time>2019-02-24T11:21:41Z</time>
      </trkpt>
      <trkpt lat="46.4576770" lon="6.8489320">
        <ele>375.2</ele>
        <time>2019-02-24T11:21:42Z</time>
      </trkpt>
      <trkpt lat="46.4576680" lon="6.8489920">
        <ele>375.4</ele>
        <time>2019-02-24T11:21:43Z</time>
      </trkpt>
      <trkpt lat="46.4576590" lon="6.8490510">
        <ele>375.6</ele>
        <time>2019-02-24T11:21:44Z</time>
      </trkpt>
      <trkpt lat="46.4576500" lon="6.8491110">
        <ele>375.8</ele>
        <time>2019-02-24T11:21:45Z</time>
      </trkpt>
      <trkpt lat="46.4576410" lon="6.8491700">
        <ele>376.1</ele>
        <time>2019-02-24T11:21:46Z</time>
      </trkpt>
      <trkpt lat="46.4576320" lon="6.8492300">
        <ele>376.3</ele>
        <time>2019-02-24T11:21:47Z</time>
      </trkpt>
      <trkpt lat="46.4576220" lon="6.8492890">
        <ele>376.6</ele>
        <time>2019-02-24T11:21:48Z</time>
      </trkpt>
      <trkpt lat="46.4576120" lon="6.8493470">
        <ele>376.8</ele>
        <time>2019-02-24T11:21:49Z</time>
      </trkpt>
      <trkpt lat="46.4576020" lon="6.8494060">
        <ele>377.0</ele>
        <time>2019-02-24T11:21:50Z</time>
      </trkpt>
      <trkpt lat="46.4575910" lon="6.8494640">
        <ele>377.0</ele>
        <time>2019-02-24T11:21:51Z</time>
      </trkpt>
      <trkpt lat="46.4575800" lon="6.8495210">
        <ele>376.9</ele>
        <time>2019-02-24T11:21:52Z</time>
      </trkpt>
      <trkpt lat="46.4575700" lon="6.8495790">
        <ele>376.9</ele>
        <time>2019-02-24T11:21:53Z</time>
      </trkpt>
      <trkpt lat="46.4575590" lon="6.8496360">
        <ele>376.8</ele>
        <time>2019-02-24T11:21:54Z</time>
      </trkpt>
      <trkpt lat="46.4575480" lon="6.8496940">
        <ele>376.7</ele>
        <time>2019-02-24T11:21:55Z</time>
      </trkpt>
      <trkpt lat="46.4575380" lon="6.8497510">
        <ele>376.6</ele>
        <time>2019-02-24T11:21:56Z</time>
      </trkpt>
      <trkpt lat="46.4575280" lon="6.8498080">
        <ele>376.5</ele>
        <time>2019-02-24T11:21:57Z</time>
      </trkpt>
      <trkpt lat="46.4575190" lon="6.8498650">
        <ele>376.4</ele>
        <time>2019-02-24T11:21:58Z</time>
      </trkpt>
      <trkpt lat="46.4575100" lon="6.8499230">
        <ele>376.3</ele>
        <time>2019-02-24T11:21:59Z</time>
      </trkpt>
      <trkpt lat="46.4575020" lon="6.8499800">
        <ele>376.2</ele>
        <time>2019-02-24T11:22:00Z</time>
      </trkpt>
      <trkpt lat="46.4574940" lon="6.8500380">
        <ele>376.0</ele>
        <time>2019-02-24T11:22:01Z</time>
      </trkpt>
      <trkpt lat="46.4574870" lon="6.8500960">
        <ele>375.8</ele>
        <time>2019-02-24T11:22:02Z</time>
      </trkpt>
      <trkpt lat="46.4574800" lon="6.8501540">
        <ele>375.5</ele>
        <time>2019-02-24T11:22:03Z</time>
      </trkpt>
      <trkpt lat="46.4574720" lon="6.8502120">
        <ele>375.5</ele>
        <time>2019-02-24T11:22:04Z</time>
      </trkpt>
      <trkpt lat="46.4574650" lon="6.8502710">
        <ele>375.5</ele>
        <time>2019-02-24T11:22:05Z</time>
      </trkpt>
      <trkpt lat="46.4574570" lon="6.8503300">
        <ele>375.5</ele>
        <time>2019-02-24T11:22:06Z</time>
      </trkpt>
      <trkpt lat="46.4574490" lon="6.8503890">
        <ele>375.5</ele>
        <time>2019-02-24T11:22:07Z</time>
      </trkpt>
      <trkpt lat="46.4574400" lon="6.8504480">
        <ele>375.5</ele>
        <time>2019-02-24T11:22:08Z</time>
      </trkpt>
      <trkpt lat="46.4574310" lon="6.8505080">
        <ele>375.5</ele>
        <time>2019-02-24T11:22:09Z</time>
      </trkpt>
      <trkpt lat="46.4574220" lon="6.8505670">
        <ele>375.5</ele>
        <time>2019-02-24T11:22:10Z</time>
      </trkpt>
      <trkpt lat="46.4574120" lon="6.8506260">
        <ele>375.4</ele>
        <time>2019-02-24T11:22:11Z</time>
      </trkpt>
      <trkpt lat="46.4574020" lon="6.8506850">
        <ele>375.4</ele>
        <time>2019-02-24T11:22:12Z</time>
      </trkpt>
      <trkpt lat="46.4573920" lon="6.8507440">
        <ele>375.4</ele>
        <time>2019-02-24T11:22:13Z</time>
      </trkpt>
      <trkpt lat="46.4573820" lon="6.8508020">
        <ele>375.3</ele>
        <time>2019-02-24T11:22:14Z</time>
      </trkpt>
      <trkpt lat="46.4573720" lon="6.8508590">
        <ele>375.3</ele>
        <time>2019-02-24T11:22:15Z</time>
      </trkpt>
      <trkpt lat="46.4573620" lon="6.8509160">
        <ele>375.3</ele>
        <time>2019-02-24T11:22:16Z</time>
      </trkpt>
      <trkpt lat="46.4573520" lon="6.8509720">
        <ele>375.2</ele>
        <time>2019-02-24T11:22:17Z</time>
      </trkpt>
      <trkpt lat="46.4573420" lon="6.8510280">
        <ele>375.2</ele>
        <time>2019-02-24T11:22:18Z</time>
      </trkpt>
      <trkpt lat="46.4573330" lon="6.8510840">
        <ele>375.1</ele>
        <time>2019-02-24T11:22:19Z</time>
      </trkpt>
      <trkpt lat="46.4573240" lon="6.8511400">
        <ele>375.1</ele>
        <time>2019-02-24T11:22:20Z</time>
      </trkpt>
      <trkpt lat="46.4573150" lon="6.8511970">
        <ele>375.0</ele>
        <time>2019-02-24T11:22:21Z</time>
      </trkpt>
      <trkpt lat="46.4573070" lon="6.8512530">
        <ele>375.0</ele>
        <time>2019-02-24T11:22:22Z</time>
      </trkpt>
      <trkpt lat="46.4573000" lon="6.8513100">
        <ele>375.0</ele>
        <time>2019-02-24T11:22:23Z</time>
      </trkpt>
      <trkpt lat="46.4572930" lon="6.8513680">
        <ele>374.9</ele>
        <time>2019-02-24T11:22:24Z</time>
      </trkpt>
      <trkpt lat="46.4572850" lon="6.8514240">
        <ele>374.9</ele>
        <time>2019-02-24T11:22:25Z</time>
      </trkpt>
      <trkpt lat="46.4572780" lon="6.8514800">
        <ele>374.8</ele>
        <time>2019-02-24T11:22:26Z</time>
      </trkpt>
      <trkpt lat="46.4572690" lon="6.8515350">
        <ele>374.8</ele>
        <time>2019-02-24T11:22:27Z</time>
      </trkpt>
      <trkpt lat="46.4572580" lon="6.8515890">
        <ele>374.8</ele>
        <time>2019-02-24T11:22:28Z</time>
      </trkpt>
      <trkpt lat="46.4572460" lon="6.8516400">
        <ele>374.8</ele>
        <time>2019-02-24T11:22:29Z</time>
      </trkpt>
      <trkpt lat="46.4572320" lon="6.8516890">
        <ele>374.9</ele>
        <time>2019-02-24T11:22:30Z</time>
      </trkpt>
      <trkpt lat="46.4572140" lon="6.8517360">
        <ele>374.9</ele>
        <time>2019-02-24T11:22:31Z</time>
      </trkpt>
      <trkpt lat="46.4571960" lon="6.8517810">
        <ele>375.0</ele>
        <time>2019-02-24T11:22:32Z</time>
      </trkpt>
      <trkpt lat="46.4571760" lon="6.8518250">
        <ele>374.9</ele>
        <time>2019-02-24T11:22:33Z</time>
      </trkpt>
      <trkpt lat="46.4571550" lon="6.8518680">
        <ele>374.9</ele>
        <time>2019-02-24T11:22:34Z</time>
      </trkpt>
      <trkpt lat="46.4571360" lon="6.8519130">
        <ele>374.9</ele>
        <time>2019-02-24T11:22:35Z</time>
      </trkpt>
      <trkpt lat="46.4571160" lon="6.8519570">
        <ele>374.5</ele>
        <time>2019-02-24T11:22:36Z</time>
      </trkpt>
      <trkpt lat="46.4570960" lon="6.8520000">
        <ele>374.5</ele>
        <time>2019-02-24T11:22:37Z</time>
      </trkpt>
      <trkpt lat="46.4570750" lon="6.8520410">
        <ele>374.5</ele>
        <time>2019-02-24T11:22:38Z</time>
      </trkpt>
      <trkpt lat="46.4570520" lon="6.8520790">
        <ele>374.5</ele>
        <time>2019-02-24T11:22:39Z</time>
      </trkpt>
      <trkpt lat="46.4570280" lon="6.8521130">
        <ele>374.5</ele>
        <time>2019-02-24T11:22:40Z</time>
      </trkpt>
      <trkpt lat="46.4570020" lon="6.8521440">
        <ele>374.5</ele>
        <time>2019-02-24T11:22:41Z</time>
      </trkpt>
      <trkpt lat="46.4569730" lon="6.8521710">
        <ele>374.5</ele>
        <time>2019-02-24T11:22:42Z</time>
      </trkpt>
      <trkpt lat="46.4569430" lon="6.8521960">
        <ele>374.5</ele>
        <time>2019-02-24T11:22:43Z</time>
      </trkpt>
      <trkpt lat="46.4569120" lon="6.8522200">
        <ele>374.5</ele>
        <time>2019-02-24T11:22:44Z</time>
      </trkpt>
      <trkpt lat="46.4568830" lon="6.8522460">
        <ele>374.5</ele>
        <time>2019-02-24T11:22:45Z</time>
      </trkpt>
      <trkpt lat="46.4568580" lon="6.8522780">
        <ele>374.5</ele>
        <time>2019-02-24T11:22:46Z</time>
      </trkpt>
      <trkpt lat="46.4568380" lon="6.8523160">
        <ele>374.5</ele>
        <time>2019-02-24T11:22:47Z</time>
      </trkpt>
      <trkpt lat="46.4568210" lon="6.8523590">
        <ele>374.5</ele>
        <time>2019-02-24T11:22:48Z</time>
      </trkpt>
      <trkpt lat="46.4568040" lon="6.8524000">
        <ele>374.5</ele>
        <time>2019-02-24T11:22:49Z</time>
      </trkpt>
      <trkpt lat="46.4567850" lon="6.8524370">
        <ele>374.5</ele>
        <time>2019-02-24T11:22:50Z</time>
      </trkpt>
      <trkpt lat="46.4567620" lon="6.8524650">
        <ele>374.5</ele>
        <time>2019-02-24T11:22:51Z</time>
      </trkpt>
      <trkpt lat="46.4567340" lon="6.8524860">
        <ele>374.5</ele>
        <time>2019-02-24T11:22:52Z</time>
      </trkpt>
      <trkpt lat="46.4567020" lon="6.8525040">
        <ele>374.5</ele>
        <time>2019-02-24T11:22:53Z</time>
      </trkpt>
      <trkpt lat="46.4566670" lon="6.8525200">
        <ele>374.5</ele>
        <time>2019-02-24T11:22:54Z</time>
      </trkpt>
      <trkpt lat="46.4566300" lon="6.8525370">
        <ele>374.5</ele>
        <time>2019-02-24T11:22:55Z</time>
      </trkpt>
      <trkpt lat="46.4565900" lon="6.8525550">
        <ele>374.5</ele>
        <time>2019-02-24T11:22:56Z</time>
      </trkpt>
      <trkpt lat="46.4565280" lon="6.8525840">
        <ele>374.5</ele>
        <time>2019-02-24T11:22:57Z</time>
      </trkpt>
      <trkpt lat="46.4565060" lon="6.8525940">
        <ele>374.5</ele>
        <time>2019-02-24T11:22:58Z</time>
      </trkpt>
      <trkpt lat="46.4564610" lon="6.8526150">
        <ele>374.5</ele>
        <time>2019-02-24T11:22:59Z</time>
      </trkpt>
      <trkpt lat="46.4564160" lon="6.8526370">
        <ele>374.6</ele>
        <time>2019-02-24T11:23:00Z</time>
      </trkpt>
      <trkpt lat="46.4563710" lon="6.8526590">
        <ele>374.6</ele>
        <time>2019-02-24T11:23:01Z</time>
      </trkpt>
      <trkpt lat="46.4563020" lon="6.8526930">
        <ele>374.7</ele>
        <time>2019-02-24T11:23:02Z</time>
      </trkpt>
      <trkpt lat="46.4562790" lon="6.8527040">
        <ele>374.8</ele>
        <time>2019-02-24T11:23:03Z</time>
      </trkpt>
      <trkpt lat="46.4562330" lon="6.8527270">
        <ele>374.9</ele>
        <time>2019-02-24T11:23:04Z</time>
      </trkpt>
      <trkpt lat="46.4561880" lon="6.8527500">
        <ele>375.0</ele>
        <time>2019-02-24T11:23:05Z</time>
      </trkpt>
      <trkpt lat="46.4561430" lon="6.8527740">
        <ele>375.1</ele>
        <time>2019-02-24T11:23:06Z</time>
      </trkpt>
      <trkpt lat="46.4560990" lon="6.8527970">
        <ele>375.3</ele>
        <time>2019-02-24T11:23:07Z</time>
      </trkpt>
      <trkpt lat="46.4560550" lon="6.8528200">
        <ele>375.5</ele>
        <time>2019-02-24T11:23:08Z</time>
      </trkpt>
      <trkpt lat="46.4560120" lon="6.8528420">
        <ele>375.6</ele>
        <time>2019-02-24T11:23:09Z</time>
      </trkpt>
      <trkpt lat="46.4559700" lon="6.8528640">
        <ele>375.7</ele>
        <time>2019-02-24T11:23:10Z</time>
      </trkpt>
      <trkpt lat="46.4559280" lon="6.8528860">
        <ele>375.8</ele>
        <time>2019-02-24T11:23:11Z</time>
      </trkpt>
      <trkpt lat="46.4558870" lon="6.8529080">
        <ele>375.9</ele>
        <time>2019-02-24T11:23:12Z</time>
      </trkpt>
      <trkpt lat="46.4558470" lon="6.8529290">
        <ele>376.0</ele>
        <time>2019-02-24T11:23:13Z</time>
      </trkpt>
      <trkpt lat="46.4558070" lon="6.8529490">
        <ele>375.9</ele>
        <time>2019-02-24T11:23:14Z</time>
      </trkpt>
      <trkpt lat="46.4557400" lon="6.8529820">
        <ele>375.9</ele>
        <time>2019-02-24T11:23:15Z</time>
      </trkpt>
      <trkpt lat="46.4557140" lon="6.8529950">
        <ele>375.9</ele>
        <time>2019-02-24T11:23:16Z</time>
      </trkpt>
      <trkpt lat="46.4556870" lon="6.8530080">
        <ele>375.9</ele>
        <time>2019-02-24T11:23:17Z</time>
      </trkpt>
      <trkpt lat="46.4556460" lon="6.8530270">
        <ele>375.8</ele>
        <time>2019-02-24T11:23:18Z</time>
      </trkpt>
      <trkpt lat="46.4556050" lon="6.8530460">
        <ele>375.8</ele>
        <time>2019-02-24T11:23:19Z</time>
      </trkpt>
      <trkpt lat="46.4555630" lon="6.8530640">
        <ele>375.8</ele>
        <time>2019-02-24T11:23:20Z</time>
      </trkpt>
      <trkpt lat="46.4555210" lon="6.8530820">
        <ele>375.8</ele>
        <time>2019-02-24T11:23:21Z</time>
      </trkpt>
      <trkpt lat="46.4554780" lon="6.8531000">
        <ele>375.8</ele>
        <time>2019-02-24T11:23:22Z</time>
      </trkpt>
      <trkpt lat="46.4554340" lon="6.8531180">
        <ele>375.7</ele>
        <time>2019-02-24T11:23:23Z</time>
      </trkpt>
      <trkpt lat="46.4553900" lon="6.8531360">
        <ele>375.7</ele>
        <time>2019-02-24T11:23:24Z</time>
      </trkpt>
      <trkpt lat="46.4553460" lon="6.8531550">
        <ele>375.7</ele>
        <time>2019-02-24T11:23:25Z</time>
      </trkpt>
      <trkpt lat="46.4553020" lon="6.8531740">
        <ele>375.7</ele>
        <time>2019-02-24T11:23:26Z</time>
      </trkpt>
      <trkpt lat="46.4552570" lon="6.8531930">
        <ele>375.6</ele>
        <time>2019-02-24T11:23:27Z</time>
      </trkpt>
      <trkpt lat="46.4552120" lon="6.8532130">
        <ele>375.6</ele>
        <time>2019-02-24T11:23:28Z</time>
      </trkpt>
      <trkpt lat="46.4551670" lon="6.8532330">
        <ele>375.6</ele>
        <time>2019-02-24T11:23:29Z</time>
      </trkpt>
      <trkpt lat="46.4551220" lon="6.8532540">
        <ele>375.5</ele>
        <time>2019-02-24T11:23:30Z</time>
      </trkpt>
      <trkpt lat="46.4550770" lon="6.8532750">
        <ele>375.5</ele>
        <time>2019-02-24T11:23:31Z</time>
      </trkpt>
      <trkpt lat="46.4550320" lon="6.8532960">
        <ele>375.4</ele>
        <time>2019-02-24T11:23:32Z</time>
      </trkpt>
      <trkpt lat="46.4549870" lon="6.8533170">
        <ele>375.4</ele>
        <time>2019-02-24T11:23:33Z</time>
      </trkpt>
      <trkpt lat="46.4549420" lon="6.8533380">
        <ele>375.4</ele>
        <time>2019-02-24T11:23:34Z</time>
      </trkpt>
      <trkpt lat="46.4548970" lon="6.8533590">
        <ele>375.4</ele>
        <time>2019-02-24T11:23:35Z</time>
      </trkpt>
      <trkpt lat="46.4548530" lon="6.8533800">
        <ele>375.3</ele>
        <time>2019-02-24T11:23:36Z</time>
      </trkpt>
      <trkpt lat="46.4548090" lon="6.8534020">
        <ele>375.3</ele>
        <time>2019-02-24T11:23:37Z</time>
      </trkpt>
      <trkpt lat="46.4547650" lon="6.8534220">
        <ele>375.3</ele>
        <time>2019-02-24T11:23:38Z</time>
      </trkpt>
      <trkpt lat="46.4547210" lon="6.8534430">
        <ele>375.3</ele>
        <time>2019-02-24T11:23:39Z</time>
      </trkpt>
      <trkpt lat="46.4546780" lon="6.8534630">
        <ele>375.3</ele>
        <time>2019-02-24T11:23:40Z</time>
      </trkpt>
      <trkpt lat="46.4546350" lon="6.8534830">
        <ele>375.3</ele>
        <time>2019-02-24T11:23:41Z</time>
      </trkpt>
      <trkpt lat="46.4545920" lon="6.8535030">
        <ele>375.3</ele>
        <time>2019-02-24T11:23:42Z</time>
      </trkpt>
      <trkpt lat="46.4545500" lon="6.8535220">
        <ele>375.3</ele>
        <time>2019-02-24T11:23:43Z</time>
      </trkpt>
      <trkpt lat="46.4545090" lon="6.8535410">
        <ele>375.4</ele>
        <time>2019-02-24T11:23:44Z</time>
      </trkpt>
      <trkpt lat="46.4544680" lon="6.8535590">
        <ele>375.4</ele>
        <time>2019-02-24T11:23:45Z</time>
      </trkpt>
      <trkpt lat="46.4544280" lon="6.8535770">
        <ele>375.5</ele>
        <time>2019-02-24T11:23:46Z</time>
      </trkpt>
      <trkpt lat="46.4543870" lon="6.8535940">
        <ele>375.5</ele>
        <time>2019-02-24T11:23:47Z</time>
      </trkpt>
      <trkpt lat="46.4543470" lon="6.8536120">
        <ele>375.6</ele>
        <time>2019-02-24T11:23:48Z</time>
      </trkpt>
      <trkpt lat="46.4543060" lon="6.8536300">
        <ele>375.6</ele>
        <time>2019-02-24T11:23:49Z</time>
      </trkpt>
      <trkpt lat="46.4542660" lon="6.8536480">
        <ele>375.7</ele>
        <time>2019-02-24T11:23:50Z</time>
      </trkpt>
      <trkpt lat="46.4542250" lon="6.8536660">
        <ele>375.8</ele>
        <time>2019-02-24T11:23:51Z</time>
      </trkpt>
      <trkpt lat="46.4541840" lon="6.8536850">
        <ele>375.8</ele>
        <time>2019-02-24T11:23:52Z</time>
      </trkpt>
      <trkpt lat="46.4541420" lon="6.8537040">
        <ele>375.9</ele>
        <time>2019-02-24T11:23:53Z</time>
      </trkpt>
      <trkpt lat="46.4541000" lon="6.8537240">
        <ele>376.0</ele>
        <time>2019-02-24T11:23:54Z</time>
      </trkpt>
      <trkpt lat="46.4540570" lon="6.8537440">
        <ele>376.1</ele>
        <time>2019-02-24T11:23:55Z</time>
      </trkpt>
      <trkpt lat="46.4540150" lon="6.8537640">
        <ele>376.2</ele>
        <time>2019-02-24T11:23:56Z</time>
      </trkpt>
      <trkpt lat="46.4539730" lon="6.8537850">
        <ele>376.3</ele>
        <time>2019-02-24T11:23:57Z</time>
      </trkpt>
      <trkpt lat="46.4539300" lon="6.8538050">
        <ele>376.4</ele>
        <time>2019-02-24T11:23:58Z</time>
      </trkpt>
      <trkpt lat="46.4538880" lon="6.8538260">
        <ele>376.6</ele>
        <time>2019-02-24T11:23:59Z</time>
      </trkpt>
      <trkpt lat="46.4538460" lon="6.8538460">
        <ele>376.8</ele>
        <time>2019-02-24T11:24:00Z</time>
      </trkpt>
      <trkpt lat="46.4538040" lon="6.8538670">
        <ele>376.9</ele>
        <time>2019-02-24T11:24:01Z</time>
      </trkpt>
      <trkpt lat="46.4537620" lon="6.8538870">
        <ele>377.1</ele>
        <time>2019-02-24T11:24:02Z</time>
      </trkpt>
      <trkpt lat="46.4537200" lon="6.8539080">
        <ele>377.2</ele>
        <time>2019-02-24T11:24:03Z</time>
      </trkpt>
      <trkpt lat="46.4536790" lon="6.8539290">
        <ele>377.3</ele>
        <time>2019-02-24T11:24:04Z</time>
      </trkpt>
      <trkpt lat="46.4536370" lon="6.8539490">
        <ele>377.5</ele>
        <time>2019-02-24T11:24:05Z</time>
      </trkpt>
      <trkpt lat="46.4535960" lon="6.8539700">
        <ele>377.6</ele>
        <time>2019-02-24T11:24:06Z</time>
      </trkpt>
      <trkpt lat="46.4535540" lon="6.8539910">
        <ele>377.7</ele>
        <time>2019-02-24T11:24:07Z</time>
      </trkpt>
      <trkpt lat="46.4535130" lon="6.8540120">
        <ele>377.8</ele>
        <time>2019-02-24T11:24:08Z</time>
      </trkpt>
      <trkpt lat="46.4534720" lon="6.8540330">
        <ele>377.9</ele>
        <time>2019-02-24T11:24:09Z</time>
      </trkpt>
      <trkpt lat="46.4534310" lon="6.8540540">
        <ele>378.1</ele>
        <time>2019-02-24T11:24:10Z</time>
      </trkpt>
      <trkpt lat="46.4533900" lon="6.8540750">
        <ele>377.7</ele>
        <time>2019-02-24T11:24:11Z</time>
      </trkpt>
      <trkpt lat="46.4533490" lon="6.8540960">
        <ele>377.3</ele>
        <time>2019-02-24T11:24:12Z</time>
      </trkpt>
      <trkpt lat="46.4533080" lon="6.8541180">
        <ele>376.9</ele>
        <time>2019-02-24T11:24:13Z</time>
      </trkpt>
      <trkpt lat="46.4532670" lon="6.8541400">
        <ele>376.4</ele>
        <time>2019-02-24T11:24:14Z</time>
      </trkpt>
      <trkpt lat="46.4532260" lon="6.8541620">
        <ele>375.9</ele>
        <time>2019-02-24T11:24:15Z</time>
      </trkpt>
      <trkpt lat="46.4531850" lon="6.8541840">
        <ele>375.4</ele>
        <time>2019-02-24T11:24:16Z</time>
      </trkpt>
      <trkpt lat="46.4531460" lon="6.8542100">
        <ele>374.8</ele>
        <time>2019-02-24T11:24:17Z</time>
      </trkpt>
      <trkpt lat="46.4531090" lon="6.8542390">
        <ele>374.3</ele>
        <time>2019-02-24T11:24:18Z</time>
      </trkpt>
      <trkpt lat="46.4530770" lon="6.8542760">
        <ele>373.8</ele>
        <time>2019-02-24T11:24:19Z</time>
      </trkpt>
      <trkpt lat="46.4530490" lon="6.8543220">
        <ele>373.3</ele>
        <time>2019-02-24T11:24:20Z</time>
      </trkpt>
      <trkpt lat="46.4530280" lon="6.8543730">
        <ele>372.8</ele>
        <time>2019-02-24T11:24:21Z</time>
      </trkpt>
      <trkpt lat="46.4530110" lon="6.8544260">
        <ele>372.3</ele>
        <time>2019-02-24T11:24:22Z</time>
      </trkpt>
      <trkpt lat="46.4530000" lon="6.8544790">
        <ele>371.9</ele>
        <time>2019-02-24T11:24:23Z</time>
      </trkpt>
      <trkpt lat="46.4529940" lon="6.8545270">
        <ele>371.5</ele>
        <time>2019-02-24T11:24:24Z</time>
      </trkpt>
      <trkpt lat="46.4529930" lon="6.8545720">
        <ele>371.7</ele>
        <time>2019-02-24T11:24:25Z</time>
      </trkpt>
      <trkpt lat="46.4529980" lon="6.8546120">
        <ele>371.9</ele>
        <time>2019-02-24T11:24:26Z</time>
      </trkpt>
      <trkpt lat="46.4530020" lon="6.8546530">
        <ele>372.1</ele>
        <time>2019-02-24T11:24:27Z</time>
      </trkpt>
      <trkpt lat="46.4530100" lon="6.8546900">
        <ele>372.4</ele>
        <time>2019-02-24T11:24:28Z</time>
      </trkpt>
      <trkpt lat="46.4530190" lon="6.8547270">
        <ele>372.6</ele>
        <time>2019-02-24T11:24:29Z</time>
      </trkpt>
      <trkpt lat="46.4530300" lon="6.8547630">
        <ele>372.8</ele>
        <time>2019-02-24T11:24:30Z</time>
      </trkpt>
      <trkpt lat="46.4530400" lon="6.8548000">
        <ele>373.1</ele>
        <time>2019-02-24T11:24:31Z</time>
      </trkpt>
      <trkpt lat="46.4530500" lon="6.8548380">
        <ele>373.3</ele>
        <time>2019-02-24T11:24:32Z</time>
      </trkpt>
      <trkpt lat="46.4530600" lon="6.8548770">
        <ele>373.6</ele>
        <time>2019-02-24T11:24:33Z</time>
      </trkpt>
      <trkpt lat="46.4530710" lon="6.8549150">
        <ele>373.9</ele>
        <time>2019-02-24T11:24:34Z</time>
      </trkpt>
      <trkpt lat="46.4530840" lon="6.8549520">
        <ele>374.2</ele>
        <time>2019-02-24T11:24:35Z</time>
      </trkpt>
      <trkpt lat="46.4530980" lon="6.8549880">
        <ele>374.6</ele>
        <time>2019-02-24T11:24:36Z</time>
      </trkpt>
      <trkpt lat="46.4531150" lon="6.8550220">
        <ele>374.9</ele>
        <time>2019-02-24T11:24:37Z</time>
      </trkpt>
      <trkpt lat="46.4531310" lon="6.8550560">
        <ele>375.3</ele>
        <time>2019-02-24T11:24:38Z</time>
      </trkpt>
      <trkpt lat="46.4531480" lon="6.8550900">
        <ele>375.7</ele>
        <time>2019-02-24T11:24:39Z</time>
      </trkpt>
      <trkpt lat="46.4531630" lon="6.8551240">
        <ele>376.1</ele>
        <time>2019-02-24T11:24:40Z</time>
      </trkpt>
      <trkpt lat="46.4531770" lon="6.8551580">
        <ele>376.6</ele>
        <time>2019-02-24T11:24:41Z</time>
      </trkpt>
      <trkpt lat="46.4531910" lon="6.8551900">
        <ele>377.0</ele>
        <time>2019-02-24T11:24:42Z</time>
      </trkpt>
      <trkpt lat="46.4532040" lon="6.8552190">
        <ele>377.3</ele>
        <time>2019-02-24T11:24:43Z</time>
      </trkpt>
      <trkpt lat="46.4532170" lon="6.8552440">
        <ele>377.7</ele>
        <time>2019-02-24T11:24:44Z</time>
      </trkpt>
      <trkpt lat="46.4532290" lon="6.8552690">
        <ele>378.7</ele>
        <time>2019-02-24T11:24:45Z</time>
      </trkpt>
      <trkpt lat="46.4532380" lon="6.8552960">
        <ele>378.6</ele>
        <time>2019-02-24T11:24:46Z</time>
      </trkpt>
      <trkpt lat="46.4532400" lon="6.8553260">
        <ele>378.6</ele>
        <time>2019-02-24T11:24:47Z</time>
      </trkpt>
      <trkpt lat="46.4532320" lon="6.8553610">
        <ele>378.6</ele>
        <time>2019-02-24T11:24:48Z</time>
      </trkpt>
      <trkpt lat="46.4532150" lon="6.8553990">
        <ele>378.6</ele>
        <time>2019-02-24T11:24:49Z</time>
      </trkpt>
      <trkpt lat="46.4531940" lon="6.8554370">
        <ele>378.6</ele>
        <time>2019-02-24T11:24:50Z</time>
      </trkpt>
      <trkpt lat="46.4531700" lon="6.8554720">
        <ele>378.6</ele>
        <time>2019-02-24T11:24:51Z</time>
      </trkpt>
      <trkpt lat="46.4531460" lon="6.8555040">
        <ele>378.5</ele>
        <time>2019-02-24T11:24:52Z</time>
      </trkpt>
      <trkpt lat="46.4531230" lon="6.8555330">
        <ele>378.5</ele>
        <time>2019-02-24T11:24:53Z</time>
      </trkpt>
      <trkpt lat="46.4531010" lon="6.8555620">
        <ele>378.5</ele>
        <time>2019-02-24T11:24:54Z</time>
      </trkpt>
      <trkpt lat="46.4530800" lon="6.8555910">
        <ele>378.5</ele>
        <time>2019-02-24T11:24:55Z</time>
      </trkpt>
      <trkpt lat="46.4530600" lon="6.8556230">
        <ele>378.4</ele>
        <time>2019-02-24T11:24:56Z</time>
      </trkpt>
      <trkpt lat="46.4530400" lon="6.8556560">
        <ele>378.4</ele>
        <time>2019-02-24T11:24:57Z</time>
      </trkpt>
      <trkpt lat="46.4530120" lon="6.8557050">
        <ele>378.3</ele>
        <time>2019-02-24T11:24:58Z</time>
      </trkpt>
      <trkpt lat="46.4530030" lon="6.8557200">
        <ele>378.2</ele>
        <time>2019-02-24T11:24:59Z</time>
      </trkpt>
      <trkpt lat="46.4529850" lon="6.8557500">
        <ele>378.2</ele>
        <time>2019-02-24T11:25:00Z</time>
      </trkpt>
      <trkpt lat="46.4529680" lon="6.8557770">
        <ele>378.1</ele>
        <time>2019-02-24T11:25:01Z</time>
      </trkpt>
      <trkpt lat="46.4529510" lon="6.8558030">
        <ele>378.1</ele>
        <time>2019-02-24T11:25:02Z</time>
      </trkpt>
      <trkpt lat="46.4529330" lon="6.8558290">
        <ele>378.0</ele>
        <time>2019-02-24T11:25:03Z</time>
      </trkpt>
      <trkpt lat="46.4529140" lon="6.8558550">
        <ele>378.0</ele>
        <time>2019-02-24T11:25:04Z</time>
      </trkpt>
      <trkpt lat="46.4528930" lon="6.8558820">
        <ele>377.9</ele>
        <time>2019-02-24T11:25:05Z</time>
      </trkpt>
      <trkpt lat="46.4528720" lon="6.8559090">
        <ele>377.8</ele>
        <time>2019-02-24T11:25:06Z</time>
      </trkpt>
      <trkpt lat="46.4528490" lon="6.8559380">
        <ele>377.8</ele>
        <time>2019-02-24T11:25:07Z</time>
      </trkpt>
      <trkpt lat="46.4528250" lon="6.8559670">
        <ele>377.7</ele>
        <time>2019-02-24T11:25:08Z</time>
      </trkpt>
      <trkpt lat="46.4528000" lon="6.8559960">
        <ele>377.6</ele>
        <time>2019-02-24T11:25:09Z</time>
      </trkpt>
      <trkpt lat="46.4527750" lon="6.8560270">
        <ele>377.5</ele>
        <time>2019-02-24T11:25:10Z</time>
      </trkpt>
      <trkpt lat="46.4527490" lon="6.8560570">
        <ele>377.4</ele>
        <time>2019-02-24T11:25:11Z</time>
      </trkpt>
      <trkpt lat="46.4527230" lon="6.8560890">
        <ele>377.3</ele>
        <time>2019-02-24T11:25:12Z</time>
      </trkpt>
      <trkpt lat="46.4526970" lon="6.8561210">
        <ele>377.2</ele>
        <time>2019-02-24T11:25:13Z</time>
      </trkpt>
      <trkpt lat="46.4526710" lon="6.8561530">
        <ele>377.1</ele>
        <time>2019-02-24T11:25:14Z</time>
      </trkpt>
      <trkpt lat="46.4526450" lon="6.8561860">
        <ele>377.0</ele>
        <time>2019-02-24T11:25:15Z</time>
      </trkpt>
      <trkpt lat="46.4526190" lon="6.8562190">
        <ele>376.9</ele>
        <time>2019-02-24T11:25:16Z</time>
      </trkpt>
      <trkpt lat="46.4525940" lon="6.8562530">
        <ele>376.9</ele>
        <time>2019-02-24T11:25:17Z</time>
      </trkpt>
      <trkpt lat="46.4525530" lon="6.8563100">
        <ele>376.8</ele>
        <time>2019-02-24T11:25:18Z</time>
      </trkpt>
      <trkpt lat="46.4525380" lon="6.8563340">
        <ele>376.8</ele>
        <time>2019-02-24T11:25:19Z</time>
      </trkpt>
      <trkpt lat="46.4525220" lon="6.8563570">
        <ele>376.7</ele>
        <time>2019-02-24T11:25:20Z</time>
      </trkpt>
      <trkpt lat="46.4524990" lon="6.8563920">
        <ele>376.7</ele>
        <time>2019-02-24T11:25:21Z</time>
      </trkpt>
      <trkpt lat="46.4524770" lon="6.8564280">
        <ele>376.7</ele>
        <time>2019-02-24T11:25:22Z</time>
      </trkpt>
      <trkpt lat="46.4524420" lon="6.8564880">
        <ele>376.6</ele>
        <time>2019-02-24T11:25:23Z</time>
      </trkpt>
      <trkpt lat="46.4524280" lon="6.8565130">
        <ele>376.6</ele>
        <time>2019-02-24T11:25:24Z</time>
      </trkpt>
      <trkpt lat="46.4524140" lon="6.8565370">
        <ele>376.6</ele>
        <time>2019-02-24T11:25:25Z</time>
      </trkpt>
      <trkpt lat="46.4523920" lon="6.8565740">
        <ele>376.6</ele>
        <time>2019-02-24T11:25:26Z</time>
      </trkpt>
      <trkpt lat="46.4523680" lon="6.8566100">
        <ele>376.5</ele>
        <time>2019-02-24T11:25:27Z</time>
      </trkpt>
      <trkpt lat="46.4523290" lon="6.8566630">
        <ele>376.5</ele>
        <time>2019-02-24T11:25:28Z</time>
      </trkpt>
      <trkpt lat="46.4523160" lon="6.8566800">
        <ele>376.5</ele>
        <time>2019-02-24T11:25:29Z</time>
      </trkpt>
      <trkpt lat="46.4522940" lon="6.8567140">
        <ele>378.3</ele>
        <time>2019-02-24T11:25:30Z</time>
      </trkpt>
      <trkpt lat="46.4522810" lon="6.8567480">
        <ele>378.8</ele>
        <time>2019-02-24T11:25:31Z</time>
      </trkpt>
      <trkpt lat="46.4522770" lon="6.8567820">
        <ele>379.3</ele>
        <time>2019-02-24T11:25:32Z</time>
      </trkpt>
      <trkpt lat="46.4522840" lon="6.8568150">
        <ele>379.6</ele>
        <time>2019-02-24T11:25:33Z</time>
      </trkpt>
      <trkpt lat="46.4522980" lon="6.8568470">
        <ele>379.9</ele>
        <time>2019-02-24T11:25:34Z</time>
      </trkpt>
      <trkpt lat="46.4523190" lon="6.8568770">
        <ele>380.3</ele>
        <time>2019-02-24T11:25:35Z</time>
      </trkpt>
      <trkpt lat="46.4523450" lon="6.8569050">
        <ele>380.7</ele>
        <time>2019-02-24T11:25:36Z</time>
      </trkpt>
      <trkpt lat="46.4523730" lon="6.8569300">
        <ele>381.1</ele>
        <time>2019-02-24T11:25:37Z</time>
      </trkpt>
      <trkpt lat="46.4524030" lon="6.8569520">
        <ele>381.6</ele>
        <time>2019-02-24T11:25:38Z</time>
      </trkpt>
      <trkpt lat="46.4524310" lon="6.8569730">
        <ele>382.0</ele>
        <time>2019-02-24T11:25:39Z</time>
      </trkpt>
      <trkpt lat="46.4524570" lon="6.8569920">
        <ele>382.3</ele>
        <time>2019-02-24T11:25:40Z</time>
      </trkpt>
      <trkpt lat="46.4524790" lon="6.8570090">
        <ele>382.6</ele>
        <time>2019-02-24T11:25:41Z</time>
      </trkpt>
      <trkpt lat="46.4524970" lon="6.8570260">
        <ele>382.9</ele>
        <time>2019-02-24T11:25:42Z</time>
      </trkpt>
      <trkpt lat="46.4525120" lon="6.8570430">
        <ele>383.1</ele>
        <time>2019-02-24T11:25:43Z</time>
      </trkpt>
      <trkpt lat="46.4525260" lon="6.8570600">
        <ele>383.3</ele>
        <time>2019-02-24T11:25:44Z</time>
      </trkpt>
      <trkpt lat="46.4525380" lon="6.8570790">
        <ele>383.6</ele>
        <time>2019-02-24T11:25:45Z</time>
      </trkpt>
      <trkpt lat="46.4525510" lon="6.8571000">
        <ele>383.8</ele>
        <time>2019-02-24T11:25:46Z</time>
      </trkpt>
      <trkpt lat="46.4525630" lon="6.8571220">
        <ele>384.0</ele>
        <time>2019-02-24T11:25:47Z</time>
      </trkpt>
      <trkpt lat="46.4525770" lon="6.8571450">
        <ele>384.3</ele>
        <time>2019-02-24T11:25:48Z</time>
      </trkpt>
      <trkpt lat="46.4525910" lon="6.8571690">
        <ele>384.6</ele>
        <time>2019-02-24T11:25:49Z</time>
      </trkpt>
      <trkpt lat="46.4526050" lon="6.8571920">
        <ele>384.9</ele>
        <time>2019-02-24T11:25:50Z</time>
      </trkpt>
      <trkpt lat="46.4526170" lon="6.8572140">
        <ele>385.1</ele>
        <time>2019-02-24T11:25:51Z</time>
      </trkpt>
      <trkpt lat="46.4526270" lon="6.8572340">
        <ele>385.4</ele>
        <time>2019-02-24T11:25:52Z</time>
      </trkpt>
      <trkpt lat="46.4526330" lon="6.8572520">
        <ele>385.6</ele>
        <time>2019-02-24T11:25:53Z</time>
      </trkpt>
      <trkpt lat="46.4526350" lon="6.8572660">
        <ele>385.7</ele>
        <time>2019-02-24T11:25:54Z</time>
      </trkpt>
      <trkpt lat="46.4526330" lon="6.8572800">
        <ele>385.8</ele>
        <time>2019-02-24T11:25:55Z</time>
      </trkpt>
      <trkpt lat="46.4526290" lon="6.8572930">
        <ele>386.0</ele>
        <time>2019-02-24T11:25:56Z</time>
      </trkpt>
      <trkpt lat="46.4526220" lon="6.8573070">
        <ele>386.4</ele>
        <time>2019-02-24T11:25:57Z</time>
      </trkpt>
      <trkpt lat="46.4526130" lon="6.8573220">
        <ele>386.4</ele>
        <time>2019-02-24T11:25:58Z</time>
      </trkpt>
      <trkpt lat="46.4526030" lon="6.8573390">
        <ele>386.4</ele>
        <time>2019-02-24T11:25:59Z</time>
      </trkpt>
      <trkpt lat="46.4525900" lon="6.8573600">
        <ele>386.4</ele>
        <time>2019-02-24T11:26:00Z</time>
      </trkpt>
      <trkpt lat="46.4525770" lon="6.8573850">
        <ele>386.4</ele>
        <time>2019-02-24T11:26:01Z</time>
      </trkpt>
      <trkpt lat="46.4525630" lon="6.8574130">
        <ele>386.4</ele>
        <time>2019-02-24T11:26:02Z</time>
      </trkpt>
      <trkpt lat="46.4525470" lon="6.8574450">
        <ele>386.4</ele>
        <time>2019-02-24T11:26:03Z</time>
      </trkpt>
      <trkpt lat="46.4525300" lon="6.8574790">
        <ele>386.4</ele>
        <time>2019-02-24T11:26:04Z</time>
      </trkpt>
      <trkpt lat="46.4525110" lon="6.8575160">
        <ele>386.4</ele>
        <time>2019-02-24T11:26:05Z</time>
      </trkpt>
      <trkpt lat="46.4524910" lon="6.8575540">
        <ele>386.4</ele>
        <time>2019-02-24T11:26:06Z</time>
      </trkpt>
      <trkpt lat="46.4524700" lon="6.8575930">
        <ele>386.4</ele>
        <time>2019-02-24T11:26:07Z</time>
      </trkpt>
      <trkpt lat="46.4524470" lon="6.8576320">
        <ele>386.4</ele>
        <time>2019-02-24T11:26:08Z</time>
      </trkpt>
      <trkpt lat="46.4524220" lon="6.8576710">
        <ele>386.5</ele>
        <time>2019-02-24T11:26:09Z</time>
      </trkpt>
      <trkpt lat="46.4523950" lon="6.8577100">
        <ele>386.5</ele>
        <time>2019-02-24T11:26:10Z</time>
      </trkpt>
      <trkpt lat="46.4523670" lon="6.8577490">
        <ele>386.5</ele>
        <time>2019-02-24T11:26:11Z</time>
      </trkpt>
      <trkpt lat="46.4523380" lon="6.8577870">
        <ele>386.5</ele>
        <time>2019-02-24T11:26:12Z</time>
      </trkpt>
      <trkpt lat="46.4523080" lon="6.8578250">
        <ele>386.6</ele>
        <time>2019-02-24T11:26:13Z</time>
      </trkpt>
      <trkpt lat="46.4522770" lon="6.8578630">
        <ele>386.6</ele>
        <time>2019-02-24T11:26:14Z</time>
      </trkpt>
      <trkpt lat="46.4522450" lon="6.8579000">
        <ele>386.7</ele>
        <time>2019-02-24T11:26:15Z</time>
      </trkpt>
      <trkpt lat="46.4522130" lon="6.8579360">
        <ele>386.7</ele>
        <time>2019-02-24T11:26:16Z</time>
      </trkpt>
      <trkpt lat="46.4521800" lon="6.8579720">
        <ele>386.8</ele>
        <time>2019-02-24T11:26:17Z</time>
      </trkpt>
      <trkpt lat="46.4521470" lon="6.8580080">
        <ele>386.8</ele>
        <time>2019-02-24T11:26:18Z</time>
      </trkpt>
      <trkpt lat="46.4521140" lon="6.8580420">
        <ele>386.9</ele>
        <time>2019-02-24T11:26:19Z</time>
      </trkpt>
      <trkpt lat="46.4520820" lon="6.8580760">
        <ele>386.9</ele>
        <time>2019-02-24T11:26:20Z</time>
      </trkpt>
      <trkpt lat="46.4520500" lon="6.8581090">
        <ele>387.0</ele>
        <time>2019-02-24T11:26:21Z</time>
      </trkpt>
      <trkpt lat="46.4520180" lon="6.8581410">
        <ele>387.0</ele>
        <time>2019-02-24T11:26:22Z</time>
      </trkpt>
      <trkpt lat="46.4519870" lon="6.8581720">
        <ele>387.1</ele>
        <time>2019-02-24T11:26:23Z</time>
      </trkpt>
      <trkpt lat="46.4519570" lon="6.8582020">
        <ele>387.1</ele>
        <time>2019-02-24T11:26:24Z</time>
      </trkpt>
      <trkpt lat="46.4519280" lon="6.8582310">
        <ele>387.2</ele>
        <time>2019-02-24T11:26:25Z</time>
      </trkpt>
      <trkpt lat="46.4518990" lon="6.8582600">
        <ele>387.3</ele>
        <time>2019-02-24T11:26:26Z</time>
      </trkpt>
      <trkpt lat="46.4518700" lon="6.8582880">
        <ele>387.4</ele>
        <time>2019-02-24T11:26:27Z</time>
      </trkpt>
      <trkpt lat="46.4518200" lon="6.8583360">
        <ele>387.5</ele>
        <time>2019-02-24T11:26:28Z</time>
      </trkpt>
      <trkpt lat="46.4518000" lon="6.8583560">
        <ele>387.6</ele>
        <time>2019-02-24T11:26:29Z</time>
      </trkpt>
      <trkpt lat="46.4517790" lon="6.8583750">
        <ele>387.7</ele>
        <time>2019-02-24T11:26:30Z</time>
      </trkpt>
      <trkpt lat="46.4517470" lon="6.8584040">
        <ele>387.8</ele>
        <time>2019-02-24T11:26:31Z</time>
      </trkpt>
      <trkpt lat="46.4517150" lon="6.8584330">
        <ele>387.8</ele>
        <time>2019-02-24T11:26:32Z</time>
      </trkpt>
      <trkpt lat="46.4516830" lon="6.8584610">
        <ele>387.9</ele>
        <time>2019-02-24T11:26:33Z</time>
      </trkpt>
      <trkpt lat="46.4516520" lon="6.8584880">
        <ele>388.0</ele>
        <time>2019-02-24T11:26:34Z</time>
      </trkpt>
      <trkpt lat="46.4516210" lon="6.8585140">
        <ele>388.1</ele>
        <time>2019-02-24T11:26:35Z</time>
      </trkpt>
      <trkpt lat="46.4515900" lon="6.8585390">
        <ele>388.2</ele>
        <time>2019-02-24T11:26:36Z</time>
      </trkpt>
      <trkpt lat="46.4515590" lon="6.8585640">
        <ele>388.3</ele>
        <time>2019-02-24T11:26:37Z</time>
      </trkpt>
      <trkpt lat="46.4515280" lon="6.8585890">
        <ele>388.5</ele>
        <time>2019-02-24T11:26:38Z</time>
      </trkpt>
      <trkpt lat="46.4514970" lon="6.8586130">
        <ele>388.7</ele>
        <time>2019-02-24T11:26:39Z</time>
      </trkpt>
      <trkpt lat="46.4514660" lon="6.8586360">
        <ele>388.8</ele>
        <time>2019-02-24T11:26:40Z</time>
      </trkpt>
      <trkpt lat="46.4514340" lon="6.8586600">
        <ele>389.0</ele>
        <time>2019-02-24T11:26:41Z</time>
      </trkpt>
      <trkpt lat="46.4514020" lon="6.8586840">
        <ele>389.1</ele>
        <time>2019-02-24T11:26:42Z</time>
      </trkpt>
      <trkpt lat="46.4513700" lon="6.8587070">
        <ele>389.2</ele>
        <time>2019-02-24T11:26:43Z</time>
      </trkpt>
      <trkpt lat="46.4513370" lon="6.8587300">
        <ele>389.3</ele>
        <time>2019-02-24T11:26:44Z</time>
      </trkpt>
      <trkpt lat="46.4513040" lon="6.8587540">
        <ele>389.4</ele>
        <time>2019-02-24T11:26:45Z</time>
      </trkpt>
      <trkpt lat="46.4512700" lon="6.8587770">
        <ele>389.4</ele>
        <time>2019-02-24T11:26:46Z</time>
      </trkpt>
      <trkpt lat="46.4512360" lon="6.8588000">
        <ele>389.4</ele>
        <time>2019-02-24T11:26:47Z</time>
      </trkpt>
      <trkpt lat="46.4512020" lon="6.8588230">
        <ele>389.4</ele>
        <time>2019-02-24T11:26:48Z</time>
      </trkpt>
      <trkpt lat="46.4511670" lon="6.8588460">
        <ele>389.4</ele>
        <time>2019-02-24T11:26:49Z</time>
      </trkpt>
      <trkpt lat="46.4511320" lon="6.8588700">
        <ele>389.3</ele>
        <time>2019-02-24T11:26:50Z</time>
      </trkpt>
      <trkpt lat="46.4510960" lon="6.8588930">
        <ele>389.3</ele>
        <time>2019-02-24T11:26:51Z</time>
      </trkpt>
      <trkpt lat="46.4510600" lon="6.8589170">
        <ele>389.3</ele>
        <time>2019-02-24T11:26:52Z</time>
      </trkpt>
      <trkpt lat="46.4510230" lon="6.8589400">
        <ele>389.3</ele>
        <time>2019-02-24T11:26:53Z</time>
      </trkpt>
      <trkpt lat="46.4509860" lon="6.8589640">
        <ele>389.3</ele>
        <time>2019-02-24T11:26:54Z</time>
      </trkpt>
      <trkpt lat="46.4509490" lon="6.8589880">
        <ele>389.3</ele>
        <time>2019-02-24T11:26:55Z</time>
      </trkpt>
      <trkpt lat="46.4509110" lon="6.8590120">
        <ele>389.2</ele>
        <time>2019-02-24T11:26:56Z</time>
      </trkpt>
      <trkpt lat="46.4508720" lon="6.8590370">
        <ele>389.2</ele>
        <time>2019-02-24T11:26:57Z</time>
      </trkpt>
      <trkpt lat="46.4508330" lon="6.8590610">
        <ele>389.2</ele>
        <time>2019-02-24T11:26:58Z</time>
      </trkpt>
      <trkpt lat="46.4507940" lon="6.8590860">
        <ele>389.2</ele>
        <time>2019-02-24T11:26:59Z</time>
      </trkpt>
      <trkpt lat="46.4507540" lon="6.8591110">
        <ele>389.2</ele>
        <time>2019-02-24T11:27:00Z</time>
      </trkpt>
      <trkpt lat="46.4507140" lon="6.8591360">
        <ele>389.2</ele>
        <time>2019-02-24T11:27:01Z</time>
      </trkpt>
      <trkpt lat="46.4506740" lon="6.8591610">
        <ele>389.2</ele>
        <time>2019-02-24T11:27:02Z</time>
      </trkpt>
      <trkpt lat="46.4506330" lon="6.8591860">
        <ele>389.2</ele>
        <time>2019-02-24T11:27:03Z</time>
      </trkpt>
      <trkpt lat="46.4505920" lon="6.8592120">
        <ele>389.2</ele>
        <time>2019-02-24T11:27:04Z</time>
      </trkpt>
      <trkpt lat="46.4505510" lon="6.8592370">
        <ele>389.2</ele>
        <time>2019-02-24T11:27:05Z</time>
      </trkpt>
      <trkpt lat="46.4505100" lon="6.8592620">
        <ele>389.2</ele>
        <time>2019-02-24T11:27:06Z</time>
      </trkpt>
      <trkpt lat="46.4504690" lon="6.8592880">
        <ele>389.2</ele>
        <time>2019-02-24T11:27:07Z</time>
      </trkpt>
      <trkpt lat="46.4504290" lon="6.8593140">
        <ele>389.1</ele>
        <time>2019-02-24T11:27:08Z</time>
      </trkpt>
      <trkpt lat="46.4503880" lon="6.8593410">
        <ele>389.1</ele>
        <time>2019-02-24T11:27:09Z</time>
      </trkpt>
      <trkpt lat="46.4503470" lon="6.8593700">
        <ele>389.1</ele>
        <time>2019-02-24T11:27:10Z</time>
      </trkpt>
      <trkpt lat="46.4503070" lon="6.8593990">
        <ele>389.1</ele>
        <time>2019-02-24T11:27:11Z</time>
      </trkpt>
      <trkpt lat="46.4502670" lon="6.8594300">
        <ele>389.0</ele>
        <time>2019-02-24T11:27:12Z</time>
      </trkpt>
      <trkpt lat="46.4502280" lon="6.8594620">
        <ele>389.0</ele>
        <time>2019-02-24T11:27:13Z</time>
      </trkpt>
      <trkpt lat="46.4501890" lon="6.8594970">
        <ele>388.9</ele>
        <time>2019-02-24T11:27:14Z</time>
      </trkpt>
      <trkpt lat="46.4501510" lon="6.8595320">
        <ele>388.9</ele>
        <time>2019-02-24T11:27:15Z</time>
      </trkpt>
      <trkpt lat="46.4501130" lon="6.8595700">
        <ele>388.9</ele>
        <time>2019-02-24T11:27:16Z</time>
      </trkpt>
      <trkpt lat="46.4500760" lon="6.8596090">
        <ele>388.8</ele>
        <time>2019-02-24T11:27:17Z</time>
      </trkpt>
      <trkpt lat="46.4500390" lon="6.8596500">
        <ele>388.8</ele>
        <time>2019-02-24T11:27:18Z</time>
      </trkpt>
      <trkpt lat="46.4500030" lon="6.8596920">
        <ele>388.7</ele>
        <time>2019-02-24T11:27:19Z</time>
      </trkpt>
      <trkpt lat="46.4499670" lon="6.8597360">
        <ele>388.7</ele>
        <time>2019-02-24T11:27:20Z</time>
      </trkpt>
      <trkpt lat="46.4499320" lon="6.8597820">
        <ele>388.6</ele>
        <time>2019-02-24T11:27:21Z</time>
      </trkpt>
      <trkpt lat="46.4498980" lon="6.8598290">
        <ele>388.6</ele>
        <time>2019-02-24T11:27:22Z</time>
      </trkpt>
      <trkpt lat="46.4498640" lon="6.8598770">
        <ele>388.5</ele>
        <time>2019-02-24T11:27:23Z</time>
      </trkpt>
      <trkpt lat="46.4498300" lon="6.8599280">
        <ele>388.5</ele>
        <time>2019-02-24T11:27:24Z</time>
      </trkpt>
      <trkpt lat="46.4497980" lon="6.8599800">
        <ele>388.4</ele>
        <time>2019-02-24T11:27:25Z</time>
      </trkpt>
      <trkpt lat="46.4497660" lon="6.8600330">
        <ele>388.3</ele>
        <time>2019-02-24T11:27:26Z</time>
      </trkpt>
      <trkpt lat="46.4497350" lon="6.8600880">
        <ele>388.3</ele>
        <time>2019-02-24T11:27:27Z</time>
      </trkpt>
      <trkpt lat="46.4497040" lon="6.8601440">
        <ele>388.2</ele>
        <time>2019-02-24T11:27:28Z</time>
      </trkpt>
      <trkpt lat="46.4496740" lon="6.8602020">
        <ele>388.1</ele>
        <time>2019-02-24T11:27:29Z</time>
      </trkpt>
      <trkpt lat="46.4496450" lon="6.8602620">
        <ele>388.2</ele>
        <time>2019-02-24T11:27:30Z</time>
      </trkpt>
      <trkpt lat="46.4496160" lon="6.8603230">
        <ele>388.2</ele>
        <time>2019-02-24T11:27:31Z</time>
      </trkpt>
      <trkpt lat="46.4495890" lon="6.8603850">
        <ele>388.2</ele>
        <time>2019-02-24T11:27:32Z</time>
      </trkpt>
      <trkpt lat="46.4495620" lon="6.8604490">
        <ele>388.2</ele>
        <time>2019-02-24T11:27:33Z</time>
      </trkpt>
      <trkpt lat="46.4495350" lon="6.8605140">
        <ele>388.2</ele>
        <time>2019-02-24T11:27:34Z</time>
      </trkpt>
      <trkpt lat="46.4495100" lon="6.8605810">
        <ele>388.3</ele>
        <time>2019-02-24T11:27:35Z</time>
      </trkpt>
      <trkpt lat="46.4494850" lon="6.8606480">
        <ele>388.4</ele>
        <time>2019-02-24T11:27:36Z</time>
      </trkpt>
      <trkpt lat="46.4494610" lon="6.8607170">
        <ele>388.5</ele>
        <time>2019-02-24T11:27:37Z</time>
      </trkpt>
      <trkpt lat="46.4494380" lon="6.8607870">
        <ele>388.5</ele>
        <time>2019-02-24T11:27:38Z</time>
      </trkpt>
      <trkpt lat="46.4494160" lon="6.8608590">
        <ele>388.4</ele>
        <time>2019-02-24T11:27:39Z</time>
      </trkpt>
      <trkpt lat="46.4493950" lon="6.8609310">
        <ele>388.5</ele>
        <time>2019-02-24T11:27:40Z</time>
      </trkpt>
      <trkpt lat="46.4493750" lon="6.8610050">
        <ele>388.5</ele>
        <time>2019-02-24T11:27:41Z</time>
      </trkpt>
      <trkpt lat="46.4493550" lon="6.8610800">
        <ele>388.5</ele>
        <time>2019-02-24T11:27:42Z</time>
      </trkpt>
      <trkpt lat="46.4493360" lon="6.8611560">
        <ele>388.5</ele>
        <time>2019-02-24T11:27:43Z</time>
      </trkpt>
      <trkpt lat="46.4493190" lon="6.8612330">
        <ele>388.5</ele>
        <time>2019-02-24T11:27:44Z</time>
      </trkpt>
      <trkpt lat="46.4493020" lon="6.8613100">
        <ele>388.5</ele>
        <time>2019-02-24T11:27:45Z</time>
      </trkpt>
      <trkpt lat="46.4492870" lon="6.8613890">
        <ele>388.5</ele>
        <time>2019-02-24T11:27:46Z</time>
      </trkpt>
      <trkpt lat="46.4492720" lon="6.8614690">
        <ele>388.5</ele>
        <time>2019-02-24T11:27:47Z</time>
      </trkpt>
      <trkpt lat="46.4492580" lon="6.8615490">
        <ele>388.1</ele>
        <time>2019-02-24T11:27:48Z</time>
      </trkpt>
      <trkpt lat="46.4492460" lon="6.8616310">
        <ele>387.9</ele>
        <time>2019-02-24T11:27:49Z</time>
      </trkpt>
      <trkpt lat="46.4492350" lon="6.8617130">
        <ele>387.7</ele>
        <time>2019-02-24T11:27:50Z</time>
      </trkpt>
      <trkpt lat="46.4492250" lon="6.8617950">
        <ele>387.6</ele>
        <time>2019-02-24T11:27:51Z</time>
      </trkpt>
      <trkpt lat="46.4492160" lon="6.8618790">
        <ele>387.9</ele>
        <time>2019-02-24T11:27:52Z</time>
      </trkpt>
      <trkpt lat="46.4492090" lon="6.8619630">
        <ele>388.1</ele>
        <time>2019-02-24T11:27:53Z</time>
      </trkpt>
      <trkpt lat="46.4492030" lon="6.8620480">
        <ele>388.3</ele>
        <time>2019-02-24T11:27:54Z</time>
      </trkpt>
      <trkpt lat="46.4491980" lon="6.8621330">
        <ele>388.6</ele>
        <time>2019-02-24T11:27:55Z</time>
      </trkpt>
      <trkpt lat="46.4491940" lon="6.8622190">
        <ele>388.8</ele>
        <time>2019-02-24T11:27:56Z</time>
      </trkpt>
      <trkpt lat="46.4491910" lon="6.8623060">
        <ele>389.0</ele>
        <time>2019-02-24T11:27:57Z</time>
      </trkpt>
      <trkpt lat="46.4491880" lon="6.8623930">
        <ele>389.1</ele>
        <time>2019-02-24T11:27:58Z</time>
      </trkpt>
      <trkpt lat="46.4491860" lon="6.8624820">
        <ele>389.4</ele>
        <time>2019-02-24T11:27:59Z</time>
      </trkpt>
      <trkpt lat="46.4491840" lon="6.8625720">
        <ele>389.6</ele>
        <time>2019-02-24T11:28:00Z</time>
      </trkpt>
      <trkpt lat="46.4491830" lon="6.8626630">
        <ele>389.9</ele>
        <time>2019-02-24T11:28:01Z</time>
      </trkpt>
      <trkpt lat="46.4491810" lon="6.8627550">
        <ele>390.1</ele>
        <time>2019-02-24T11:28:02Z</time>
      </trkpt>
      <trkpt lat="46.4491780" lon="6.8628480">
        <ele>390.3</ele>
        <time>2019-02-24T11:28:03Z</time>
      </trkpt>
      <trkpt lat="46.4491760" lon="6.8629420">
        <ele>390.5</ele>
        <time>2019-02-24T11:28:04Z</time>
      </trkpt>
      <trkpt lat="46.4491740" lon="6.8630360">
        <ele>390.6</ele>
        <time>2019-02-24T11:28:05Z</time>
      </trkpt>
      <trkpt lat="46.4491710" lon="6.8631310">
        <ele>390.6</ele>
        <time>2019-02-24T11:28:06Z</time>
      </trkpt>
      <trkpt lat="46.4491690" lon="6.8632260">
        <ele>390.6</ele>
        <time>2019-02-24T11:28:07Z</time>
      </trkpt>
      <trkpt lat="46.4491660" lon="6.8633210">
        <ele>390.5</ele>
        <time>2019-02-24T11:28:08Z</time>
      </trkpt>
      <trkpt lat="46.4491630" lon="6.8634160">
        <ele>390.3</ele>
        <time>2019-02-24T11:28:09Z</time>
      </trkpt>
      <trkpt lat="46.4491600" lon="6.8635100">
        <ele>390.2</ele>
        <time>2019-02-24T11:28:10Z</time>
      </trkpt>
      <trkpt lat="46.4491570" lon="6.8636040">
        <ele>390.0</ele>
        <time>2019-02-24T11:28:11Z</time>
      </trkpt>
      <trkpt lat="46.4491540" lon="6.8636980">
        <ele>389.8</ele>
        <time>2019-02-24T11:28:12Z</time>
      </trkpt>
      <trkpt lat="46.4491510" lon="6.8637910">
        <ele>389.7</ele>
        <time>2019-02-24T11:28:13Z</time>
      </trkpt>
      <trkpt lat="46.4491480" lon="6.8638840">
        <ele>389.7</ele>
        <time>2019-02-24T11:28:14Z</time>
      </trkpt>
      <trkpt lat="46.4491450" lon="6.8639770">
        <ele>389.8</ele>
        <time>2019-02-24T11:28:15Z</time>
      </trkpt>
      <trkpt lat="46.4491410" lon="6.8640710">
        <ele>390.0</ele>
        <time>2019-02-24T11:28:16Z</time>
      </trkpt>
      <trkpt lat="46.4491370" lon="6.8641640">
        <ele>390.6</ele>
        <time>2019-02-24T11:28:17Z</time>
      </trkpt>
      <trkpt lat="46.4491330" lon="6.8642570">
        <ele>390.0</ele>
        <time>2019-02-24T11:28:18Z</time>
      </trkpt>
      <trkpt lat="46.4491290" lon="6.8643510">
        <ele>389.5</ele>
        <time>2019-02-24T11:28:19Z</time>
      </trkpt>
      <trkpt lat="46.4491250" lon="6.8644450">
        <ele>389.0</ele>
        <time>2019-02-24T11:28:20Z</time>
      </trkpt>
      <trkpt lat="46.4491200" lon="6.8645390">
        <ele>388.5</ele>
        <time>2019-02-24T11:28:21Z</time>
      </trkpt>
      <trkpt lat="46.4491160" lon="6.8646340">
        <ele>387.9</ele>
        <time>2019-02-24T11:28:22Z</time>
      </trkpt>
      <trkpt lat="46.4491110" lon="6.8647290">
        <ele>387.4</ele>
        <time>2019-02-24T11:28:23Z</time>
      </trkpt>
      <trkpt lat="46.4491060" lon="6.8648240">
        <ele>386.9</ele>
        <time>2019-02-24T11:28:24Z</time>
      </trkpt>
      <trkpt lat="46.4491010" lon="6.8649200">
        <ele>386.4</ele>
        <time>2019-02-24T11:28:25Z</time>
      </trkpt>
      <trkpt lat="46.4490960" lon="6.8650160">
        <ele>385.9</ele>
        <time>2019-02-24T11:28:26Z</time>
      </trkpt>
      <trkpt lat="46.4490910" lon="6.8651120">
        <ele>385.4</ele>
        <time>2019-02-24T11:28:27Z</time>
      </trkpt>
      <trkpt lat="46.4490860" lon="6.8652090">
        <ele>384.9</ele>
        <time>2019-02-24T11:28:28Z</time>
      </trkpt>
      <trkpt lat="46.4490800" lon="6.8653040">
        <ele>384.4</ele>
        <time>2019-02-24T11:28:29Z</time>
      </trkpt>
      <trkpt lat="46.4490750" lon="6.8654000">
        <ele>384.2</ele>
        <time>2019-02-24T11:28:30Z</time>
      </trkpt>
      <trkpt lat="46.4490690" lon="6.8654940">
        <ele>384.1</ele>
        <time>2019-02-24T11:28:31Z</time>
      </trkpt>
      <trkpt lat="46.4490640" lon="6.8655870">
        <ele>383.9</ele>
        <time>2019-02-24T11:28:32Z</time>
      </trkpt>
      <trkpt lat="46.4490580" lon="6.8656790">
        <ele>383.8</ele>
        <time>2019-02-24T11:28:33Z</time>
      </trkpt>
      <trkpt lat="46.4490530" lon="6.8657700">
        <ele>383.7</ele>
        <time>2019-02-24T11:28:34Z</time>
      </trkpt>
      <trkpt lat="46.4490470" lon="6.8658590">
        <ele>383.6</ele>
        <time>2019-02-24T11:28:35Z</time>
      </trkpt>
      <trkpt lat="46.4490420" lon="6.8659460">
        <ele>383.5</ele>
        <time>2019-02-24T11:28:36Z</time>
      </trkpt>
      <trkpt lat="46.4490360" lon="6.8660320">
        <ele>383.5</ele>
        <time>2019-02-24T11:28:37Z</time>
      </trkpt>
      <trkpt lat="46.4490300" lon="6.8661170">
        <ele>383.4</ele>
        <time>2019-02-24T11:28:38Z</time>
      </trkpt>
      <trkpt lat="46.4490250" lon="6.8662000">
        <ele>383.4</ele>
        <time>2019-02-24T11:28:39Z</time>
      </trkpt>
      <trkpt lat="46.4490190" lon="6.8662820">
        <ele>383.3</ele>
        <time>2019-02-24T11:28:40Z</time>
      </trkpt>
      <trkpt lat="46.4490130" lon="6.8663640">
        <ele>383.3</ele>
        <time>2019-02-24T11:28:41Z</time>
      </trkpt>
      <trkpt lat="46.4490070" lon="6.8664440">
        <ele>383.3</ele>
        <time>2019-02-24T11:28:42Z</time>
      </trkpt>
      <trkpt lat="46.4490000" lon="6.8665230">
        <ele>383.2</ele>
        <time>2019-02-24T11:28:43Z</time>
      </trkpt>
      <trkpt lat="46.4489940" lon="6.8666010">
        <ele>383.2</ele>
        <time>2019-02-24T11:28:44Z</time>
      </trkpt>
      <trkpt lat="46.4489880" lon="6.8666780">
        <ele>383.2</ele>
        <time>2019-02-24T11:28:45Z</time>
      </trkpt>
      <trkpt lat="46.4489820" lon="6.8667550">
        <ele>383.1</ele>
        <time>2019-02-24T11:28:46Z</time>
      </trkpt>
      <trkpt lat="46.4489760" lon="6.8668300">
        <ele>383.1</ele>
        <time>2019-02-24T11:28:47Z</time>
      </trkpt>
      <trkpt lat="46.4489710" lon="6.8669040">
        <ele>383.1</ele>
        <time>2019-02-24T11:28:48Z</time>
      </trkpt>
      <trkpt lat="46.4489660" lon="6.8669770">
        <ele>383.2</ele>
        <time>2019-02-24T11:28:49Z</time>
      </trkpt>
      <trkpt lat="46.4489610" lon="6.8670480">
        <ele>383.2</ele>
        <time>2019-02-24T11:28:50Z</time>
      </trkpt>
      <trkpt lat="46.4489560" lon="6.8671190">
        <ele>383.3</ele>
        <time>2019-02-24T11:28:51Z</time>
      </trkpt>
      <trkpt lat="46.4489510" lon="6.8671900">
        <ele>383.4</ele>
        <time>2019-02-24T11:28:52Z</time>
      </trkpt>
      <trkpt lat="46.4489460" lon="6.8672600">
        <ele>382.9</ele>
        <time>2019-02-24T11:28:53Z</time>
      </trkpt>
      <trkpt lat="46.4489400" lon="6.8673300">
        <ele>382.9</ele>
        <time>2019-02-24T11:28:54Z</time>
      </trkpt>
      <trkpt lat="46.4489340" lon="6.8674000">
        <ele>382.9</ele>
        <time>2019-02-24T11:28:55Z</time>
      </trkpt>
      <trkpt lat="46.4489280" lon="6.8674710">
        <ele>382.8</ele>
        <time>2019-02-24T11:28:56Z</time>
      </trkpt>
      <trkpt lat="46.4489200" lon="6.8675430">
        <ele>382.7</ele>
        <time>2019-02-24T11:28:57Z</time>
      </trkpt>
      <trkpt lat="46.4489120" lon="6.8676160">
        <ele>382.6</ele>
        <time>2019-02-24T11:28:58Z</time>
      </trkpt>
      <trkpt lat="46.4489030" lon="6.8676900">
        <ele>382.5</ele>
        <time>2019-02-24T11:28:59Z</time>
      </trkpt>
      <trkpt lat="46.4488960" lon="6.8677600">
        <ele>382.5</ele>
        <time>2019-02-24T11:29:00Z</time>
      </trkpt>
      <trkpt lat="46.4488900" lon="6.8678170">
        <ele>382.4</ele>
        <time>2019-02-24T11:29:01Z</time>
      </trkpt>
      <trkpt lat="46.4488870" lon="6.8678560">
        <ele>382.4</ele>
        <time>2019-02-24T11:29:02Z</time>
      </trkpt>
      <trkpt lat="46.4488860" lon="6.8678620">
        <ele>382.3</ele>
        <time>2019-02-24T11:29:03Z</time>
      </trkpt>
      <trkpt lat="46.4488860" lon="6.8678640">
        <ele>382.3</ele>
        <time>2019-02-24T11:29:04Z</time>
      </trkpt>
      <trkpt lat="46.4488860" lon="6.8678610">
        <ele>382.3</ele>
        <time>2019-02-24T11:29:05Z</time>
      </trkpt>
      <trkpt lat="46.4488860" lon="6.8678610">
        <ele>382.3</ele>
        <time>2019-02-24T11:29:06Z</time>
      </trkpt>
      <trkpt lat="46.4488860" lon="6.8678640">
        <ele>382.3</ele>
        <time>2019-02-24T11:29:07Z</time>
      </trkpt>
      <trkpt lat="46.4488850" lon="6.8678660">
        <ele>382.3</ele>
        <time>2019-02-24T11:29:08Z</time>
      </trkpt>
      <trkpt lat="46.4488850" lon="6.8678670">
        <ele>382.3</ele>
        <time>2019-02-24T11:29:09Z</time>
      </trkpt>
      <trkpt lat="46.4488850" lon="6.8678650">
        <ele>382.3</ele>
        <time>2019-02-24T11:29:10Z</time>
      </trkpt>
      <trkpt lat="46.4488840" lon="6.8678640">
        <ele>382.3</ele>
        <time>2019-02-24T11:29:11Z</time>
      </trkpt>
      <trkpt lat="46.4488830" lon="6.8678660">
        <ele>382.3</ele>
        <time>2019-02-24T11:29:12Z</time>
      </trkpt>
      <trkpt lat="46.4488830" lon="6.8678760">
        <ele>382.3</ele>
        <time>2019-02-24T11:29:13Z</time>
      </trkpt>
      <trkpt lat="46.4488820" lon="6.8678950">
        <ele>382.3</ele>
        <time>2019-02-24T11:29:14Z</time>
      </trkpt>
      <trkpt lat="46.4488780" lon="6.8679220">
        <ele>382.3</ele>
        <time>2019-02-24T11:29:15Z</time>
      </trkpt>
      <trkpt lat="46.4488690" lon="6.8679550">
        <ele>382.2</ele>
        <time>2019-02-24T11:29:16Z</time>
      </trkpt>
      <trkpt lat="46.4488590" lon="6.8679950">
        <ele>382.2</ele>
        <time>2019-02-24T11:29:17Z</time>
      </trkpt>
      <trkpt lat="46.4488510" lon="6.8680400">
        <ele>382.1</ele>
        <time>2019-02-24T11:29:18Z</time>
      </trkpt>
      <trkpt lat="46.4488440" lon="6.8680920">
        <ele>382.0</ele>
        <time>2019-02-24T11:29:19Z</time>
      </trkpt>
      <trkpt lat="46.4488390" lon="6.8681470">
        <ele>382.0</ele>
        <time>2019-02-24T11:29:20Z</time>
      </trkpt>
      <trkpt lat="46.4488340" lon="6.8682060">
        <ele>381.8</ele>
        <time>2019-02-24T11:29:21Z</time>
      </trkpt>
      <trkpt lat="46.4488250" lon="6.8683090">
        <ele>381.7</ele>
        <time>2019-02-24T11:29:22Z</time>
      </trkpt>
      <trkpt lat="46.4488220" lon="6.8683520">
        <ele>381.6</ele>
        <time>2019-02-24T11:29:23Z</time>
      </trkpt>
      <trkpt lat="46.4488180" lon="6.8683940">
        <ele>381.5</ele>
        <time>2019-02-24T11:29:24Z</time>
      </trkpt>
      <trkpt lat="46.4488120" lon="6.8684600">
        <ele>381.4</ele>
        <time>2019-02-24T11:29:25Z</time>
      </trkpt>
      <trkpt lat="46.4488060" lon="6.8685270">
        <ele>381.3</ele>
        <time>2019-02-24T11:29:26Z</time>
      </trkpt>
      <trkpt lat="46.4487970" lon="6.8686300">
        <ele>381.3</ele>
        <time>2019-02-24T11:29:27Z</time>
      </trkpt>
      <trkpt lat="46.4487940" lon="6.8686640">
        <ele>381.2</ele>
        <time>2019-02-24T11:29:28Z</time>
      </trkpt>
      <trkpt lat="46.4487880" lon="6.8687330">
        <ele>381.2</ele>
        <time>2019-02-24T11:29:29Z</time>
      </trkpt>
      <trkpt lat="46.4487830" lon="6.8688020">
        <ele>381.2</ele>
        <time>2019-02-24T11:29:30Z</time>
      </trkpt>
      <trkpt lat="46.4487770" lon="6.8688710">
        <ele>381.2</ele>
        <time>2019-02-24T11:29:31Z</time>
      </trkpt>
      <trkpt lat="46.4487720" lon="6.8689400">
        <ele>381.2</ele>
        <time>2019-02-24T11:29:32Z</time>
      </trkpt>
      <trkpt lat="46.4487670" lon="6.8690080">
        <ele>381.3</ele>
        <time>2019-02-24T11:29:33Z</time>
      </trkpt>
      <trkpt lat="46.4487620" lon="6.8690760">
        <ele>381.3</ele>
        <time>2019-02-24T11:29:34Z</time>
      </trkpt>
      <trkpt lat="46.4487570" lon="6.8691430">
        <ele>381.3</ele>
        <time>2019-02-24T11:29:35Z</time>
      </trkpt>
      <trkpt lat="46.4487520" lon="6.8692080">
        <ele>381.4</ele>
        <time>2019-02-24T11:29:36Z</time>
      </trkpt>
      <trkpt lat="46.4487470" lon="6.8692730">
        <ele>381.4</ele>
        <time>2019-02-24T11:29:37Z</time>
      </trkpt>
      <trkpt lat="46.4487430" lon="6.8693350">
        <ele>381.4</ele>
        <time>2019-02-24T11:29:38Z</time>
      </trkpt>
      <trkpt lat="46.4487390" lon="6.8693970">
        <ele>381.5</ele>
        <time>2019-02-24T11:29:39Z</time>
      </trkpt>
      <trkpt lat="46.4487340" lon="6.8694580">
        <ele>381.5</ele>
        <time>2019-02-24T11:29:40Z</time>
      </trkpt>
      <trkpt lat="46.4487290" lon="6.8695200">
        <ele>381.5</ele>
        <time>2019-02-24T11:29:41Z</time>
      </trkpt>
      <trkpt lat="46.4487240" lon="6.8695810">
        <ele>381.5</ele>
        <time>2019-02-24T11:29:42Z</time>
      </trkpt>
      <trkpt lat="46.4487180" lon="6.8696430">
        <ele>381.5</ele>
        <time>2019-02-24T11:29:43Z</time>
      </trkpt>
      <trkpt lat="46.4487120" lon="6.8697050">
        <ele>381.5</ele>
        <time>2019-02-24T11:29:44Z</time>
      </trkpt>
      <trkpt lat="46.4487060" lon="6.8697670">
        <ele>381.5</ele>
        <time>2019-02-24T11:29:45Z</time>
      </trkpt>
      <trkpt lat="46.4487010" lon="6.8698290">
        <ele>381.5</ele>
        <time>2019-02-24T11:29:46Z</time>
      </trkpt>
      <trkpt lat="46.4486950" lon="6.8698920">
        <ele>381.5</ele>
        <time>2019-02-24T11:29:47Z</time>
      </trkpt>
      <trkpt lat="46.4486900" lon="6.8699540">
        <ele>381.5</ele>
        <time>2019-02-24T11:29:48Z</time>
      </trkpt>
      <trkpt lat="46.4486850" lon="6.8700170">
        <ele>381.5</ele>
        <time>2019-02-24T11:29:49Z</time>
      </trkpt>
      <trkpt lat="46.4486800" lon="6.8700800">
        <ele>381.5</ele>
        <time>2019-02-24T11:29:50Z</time>
      </trkpt>
      <trkpt lat="46.4486750" lon="6.8701440">
        <ele>381.5</ele>
        <time>2019-02-24T11:29:51Z</time>
      </trkpt>
      <trkpt lat="46.4486700" lon="6.8702090">
        <ele>381.5</ele>
        <time>2019-02-24T11:29:52Z</time>
      </trkpt>
      <trkpt lat="46.4486650" lon="6.8702740">
        <ele>381.5</ele>
        <time>2019-02-24T11:29:53Z</time>
      </trkpt>
      <trkpt lat="46.4486590" lon="6.8703420">
        <ele>381.5</ele>
        <time>2019-02-24T11:29:54Z</time>
      </trkpt>
      <trkpt lat="46.4486540" lon="6.8704100">
        <ele>381.5</ele>
        <time>2019-02-24T11:29:55Z</time>
      </trkpt>
      <trkpt lat="46.4486490" lon="6.8704790">
        <ele>381.5</ele>
        <time>2019-02-24T11:29:56Z</time>
      </trkpt>
      <trkpt lat="46.4486430" lon="6.8705500">
        <ele>381.5</ele>
        <time>2019-02-24T11:29:57Z</time>
      </trkpt>
      <trkpt lat="46.4486380" lon="6.8706210">
        <ele>381.4</ele>
        <time>2019-02-24T11:29:58Z</time>
      </trkpt>
      <trkpt lat="46.4486320" lon="6.8706940">
        <ele>381.4</ele>
        <time>2019-02-24T11:29:59Z</time>
      </trkpt>
      <trkpt lat="46.4486270" lon="6.8707680">
        <ele>381.4</ele>
        <time>2019-02-24T11:30:00Z</time>
      </trkpt>
      <trkpt lat="46.4486210" lon="6.8708420">
        <ele>381.3</ele>
        <time>2019-02-24T11:30:01Z</time>
      </trkpt>
      <trkpt lat="46.4486150" lon="6.8709180">
        <ele>381.3</ele>
        <time>2019-02-24T11:30:02Z</time>
      </trkpt>
      <trkpt lat="46.4486100" lon="6.8709940">
        <ele>381.1</ele>
        <time>2019-02-24T11:30:03Z</time>
      </trkpt>
      <trkpt lat="46.4486040" lon="6.8710710">
        <ele>381.0</ele>
        <time>2019-02-24T11:30:04Z</time>
      </trkpt>
      <trkpt lat="46.4485980" lon="6.8711490">
        <ele>380.9</ele>
        <time>2019-02-24T11:30:05Z</time>
      </trkpt>
      <trkpt lat="46.4485920" lon="6.8712280">
        <ele>380.8</ele>
        <time>2019-02-24T11:30:06Z</time>
      </trkpt>
      <trkpt lat="46.4485860" lon="6.8713070">
        <ele>380.7</ele>
        <time>2019-02-24T11:30:07Z</time>
      </trkpt>
      <trkpt lat="46.4485800" lon="6.8713880">
        <ele>380.6</ele>
        <time>2019-02-24T11:30:08Z</time>
      </trkpt>
      <trkpt lat="46.4485750" lon="6.8714680">
        <ele>380.5</ele>
        <time>2019-02-24T11:30:09Z</time>
      </trkpt>
      <trkpt lat="46.4485690" lon="6.8715490">
        <ele>380.4</ele>
        <time>2019-02-24T11:30:10Z</time>
      </trkpt>
      <trkpt lat="46.4485630" lon="6.8716310">
        <ele>380.4</ele>
        <time>2019-02-24T11:30:11Z</time>
      </trkpt>
      <trkpt lat="46.4485570" lon="6.8717140">
        <ele>380.3</ele>
        <time>2019-02-24T11:30:12Z</time>
      </trkpt>
      <trkpt lat="46.4485520" lon="6.8717960">
        <ele>380.2</ele>
        <time>2019-02-24T11:30:13Z</time>
      </trkpt>
      <trkpt lat="46.4485460" lon="6.8718790">
        <ele>380.1</ele>
        <time>2019-02-24T11:30:14Z</time>
      </trkpt>
      <trkpt lat="46.4485410" lon="6.8719630">
        <ele>380.1</ele>
        <time>2019-02-24T11:30:15Z</time>
      </trkpt>
      <trkpt lat="46.4485370" lon="6.8720460">
        <ele>380.0</ele>
        <time>2019-02-24T11:30:16Z</time>
      </trkpt>
      <trkpt lat="46.4485320" lon="6.8721300">
        <ele>380.0</ele>
        <time>2019-02-24T11:30:17Z</time>
      </trkpt>
      <trkpt lat="46.4485280" lon="6.8722140">
        <ele>379.9</ele>
        <time>2019-02-24T11:30:18Z</time>
      </trkpt>
      <trkpt lat="46.4485230" lon="6.8722980">
        <ele>379.9</ele>
        <time>2019-02-24T11:30:19Z</time>
      </trkpt>
      <trkpt lat="46.4485180" lon="6.8723820">
        <ele>379.8</ele>
        <time>2019-02-24T11:30:20Z</time>
      </trkpt>
      <trkpt lat="46.4485120" lon="6.8724660">
        <ele>379.8</ele>
        <time>2019-02-24T11:30:21Z</time>
      </trkpt>
      <trkpt lat="46.4485050" lon="6.8725500">
        <ele>379.7</ele>
        <time>2019-02-24T11:30:22Z</time>
      </trkpt>
      <trkpt lat="46.4484980" lon="6.8726340">
        <ele>379.6</ele>
        <time>2019-02-24T11:30:23Z</time>
      </trkpt>
      <trkpt lat="46.4484890" lon="6.8727170">
        <ele>379.6</ele>
        <time>2019-02-24T11:30:24Z</time>
      </trkpt>
      <trkpt lat="46.4484780" lon="6.8727990">
        <ele>379.5</ele>
        <time>2019-02-24T11:30:25Z</time>
      </trkpt>
      <trkpt lat="46.4484650" lon="6.8728800">
        <ele>379.6</ele>
        <time>2019-02-24T11:30:26Z</time>
      </trkpt>
      <trkpt lat="46.4484500" lon="6.8729580">
        <ele>379.6</ele>
        <time>2019-02-24T11:30:27Z</time>
      </trkpt>
      <trkpt lat="46.4484310" lon="6.8730340">
        <ele>379.7</ele>
        <time>2019-02-24T11:30:28Z</time>
      </trkpt>
      <trkpt lat="46.4484110" lon="6.8731080">
        <ele>379.8</ele>
        <time>2019-02-24T11:30:29Z</time>
      </trkpt>
      <trkpt lat="46.4483880" lon="6.8731790">
        <ele>379.8</ele>
        <time>2019-02-24T11:30:30Z</time>
      </trkpt>
      <trkpt lat="46.4483630" lon="6.8732480">
        <ele>379.9</ele>
        <time>2019-02-24T11:30:31Z</time>
      </trkpt>
      <trkpt lat="46.4483360" lon="6.8733140">
        <ele>379.9</ele>
        <time>2019-02-24T11:30:32Z</time>
      </trkpt>
      <trkpt lat="46.4483070" lon="6.8733780">
        <ele>380.0</ele>
        <time>2019-02-24T11:30:33Z</time>
      </trkpt>
      <trkpt lat="46.4482770" lon="6.8734390">
        <ele>380.0</ele>
        <time>2019-02-24T11:30:34Z</time>
      </trkpt>
      <trkpt lat="46.4482460" lon="6.8734970">
        <ele>380.1</ele>
        <time>2019-02-24T11:30:35Z</time>
      </trkpt>
      <trkpt lat="46.4482140" lon="6.8735520">
        <ele>380.1</ele>
        <time>2019-02-24T11:30:36Z</time>
      </trkpt>
      <trkpt lat="46.4481800" lon="6.8736050">
        <ele>380.2</ele>
        <time>2019-02-24T11:30:37Z</time>
      </trkpt>
      <trkpt lat="46.4481460" lon="6.8736550">
        <ele>380.3</ele>
        <time>2019-02-24T11:30:38Z</time>
      </trkpt>
      <trkpt lat="46.4481110" lon="6.8737020">
        <ele>380.4</ele>
        <time>2019-02-24T11:30:39Z</time>
      </trkpt>
      <trkpt lat="46.4480760" lon="6.8737480">
        <ele>380.7</ele>
        <time>2019-02-24T11:30:40Z</time>
      </trkpt>
      <trkpt lat="46.4480400" lon="6.8737910">
        <ele>380.9</ele>
        <time>2019-02-24T11:30:41Z</time>
      </trkpt>
      <trkpt lat="46.4480040" lon="6.8738310">
        <ele>381.1</ele>
        <time>2019-02-24T11:30:42Z</time>
      </trkpt>
      <trkpt lat="46.4479680" lon="6.8738700">
        <ele>381.3</ele>
        <time>2019-02-24T11:30:43Z</time>
      </trkpt>
      <trkpt lat="46.4479320" lon="6.8739060">
        <ele>381.5</ele>
        <time>2019-02-24T11:30:44Z</time>
      </trkpt>
      <trkpt lat="46.4478960" lon="6.8739420">
        <ele>381.7</ele>
        <time>2019-02-24T11:30:45Z</time>
      </trkpt>
      <trkpt lat="46.4478610" lon="6.8739770">
        <ele>381.8</ele>
        <time>2019-02-24T11:30:46Z</time>
      </trkpt>
      <trkpt lat="46.4478260" lon="6.8740100">
        <ele>381.9</ele>
        <time>2019-02-24T11:30:47Z</time>
      </trkpt>
      <trkpt lat="46.4477910" lon="6.8740430">
        <ele>382.0</ele>
        <time>2019-02-24T11:30:48Z</time>
      </trkpt>
      <trkpt lat="46.4477570" lon="6.8740750">
        <ele>382.1</ele>
        <time>2019-02-24T11:30:49Z</time>
      </trkpt>
      <trkpt lat="46.4477240" lon="6.8741070">
        <ele>382.2</ele>
        <time>2019-02-24T11:30:50Z</time>
      </trkpt>
      <trkpt lat="46.4476920" lon="6.8741400">
        <ele>382.2</ele>
        <time>2019-02-24T11:30:51Z</time>
      </trkpt>
      <trkpt lat="46.4476610" lon="6.8741730">
        <ele>382.2</ele>
        <time>2019-02-24T11:30:52Z</time>
      </trkpt>
      <trkpt lat="46.4476310" lon="6.8742070">
        <ele>382.3</ele>
        <time>2019-02-24T11:30:53Z</time>
      </trkpt>
      <trkpt lat="46.4476020" lon="6.8742420">
        <ele>382.3</ele>
        <time>2019-02-24T11:30:54Z</time>
      </trkpt>
      <trkpt lat="46.4475730" lon="6.8742770">
        <ele>382.4</ele>
        <time>2019-02-24T11:30:55Z</time>
      </trkpt>
      <trkpt lat="46.4475450" lon="6.8743140">
        <ele>382.4</ele>
        <time>2019-02-24T11:30:56Z</time>
      </trkpt>
      <trkpt lat="46.4474990" lon="6.8743780">
        <ele>382.5</ele>
        <time>2019-02-24T11:30:57Z</time>
      </trkpt>
      <trkpt lat="46.4474810" lon="6.8744050">
        <ele>382.5</ele>
        <time>2019-02-24T11:30:58Z</time>
      </trkpt>
      <trkpt lat="46.4474630" lon="6.8744310">
        <ele>382.5</ele>
        <time>2019-02-24T11:30:59Z</time>
      </trkpt>
      <trkpt lat="46.4474360" lon="6.8744730">
        <ele>382.6</ele>
        <time>2019-02-24T11:31:00Z</time>
      </trkpt>
      <trkpt lat="46.4474100" lon="6.8745160">
        <ele>382.7</ele>
        <time>2019-02-24T11:31:01Z</time>
      </trkpt>
      <trkpt lat="46.4473670" lon="6.8745920">
        <ele>382.8</ele>
        <time>2019-02-24T11:31:02Z</time>
      </trkpt>
      <trkpt lat="46.4473510" lon="6.8746230">
        <ele>382.9</ele>
        <time>2019-02-24T11:31:03Z</time>
      </trkpt>
      <trkpt lat="46.4473340" lon="6.8746540">
        <ele>383.0</ele>
        <time>2019-02-24T11:31:04Z</time>
      </trkpt>
      <trkpt lat="46.4473090" lon="6.8747020">
        <ele>383.1</ele>
        <time>2019-02-24T11:31:05Z</time>
      </trkpt>
      <trkpt lat="46.4472850" lon="6.8747520">
        <ele>383.1</ele>
        <time>2019-02-24T11:31:06Z</time>
      </trkpt>
      <trkpt lat="46.4472620" lon="6.8748020">
        <ele>383.2</ele>
        <time>2019-02-24T11:31:07Z</time>
      </trkpt>
      <trkpt lat="46.4472390" lon="6.8748530">
        <ele>383.2</ele>
        <time>2019-02-24T11:31:08Z</time>
      </trkpt>
      <trkpt lat="46.4472170" lon="6.8749060">
        <ele>383.3</ele>
        <time>2019-02-24T11:31:09Z</time>
      </trkpt>
      <trkpt lat="46.4471960" lon="6.8749590">
        <ele>383.3</ele>
        <time>2019-02-24T11:31:10Z</time>
      </trkpt>
      <trkpt lat="46.4471750" lon="6.8750130">
        <ele>383.3</ele>
        <time>2019-02-24T11:31:11Z</time>
      </trkpt>
      <trkpt lat="46.4471540" lon="6.8750680">
        <ele>383.3</ele>
        <time>2019-02-24T11:31:12Z</time>
      </trkpt>
      <trkpt lat="46.4471350" lon="6.8751230">
        <ele>383.3</ele>
        <time>2019-02-24T11:31:13Z</time>
      </trkpt>
      <trkpt lat="46.4471160" lon="6.8751790">
        <ele>383.3</ele>
        <time>2019-02-24T11:31:14Z</time>
      </trkpt>
      <trkpt lat="46.4470980" lon="6.8752360">
        <ele>383.3</ele>
        <time>2019-02-24T11:31:15Z</time>
      </trkpt>
      <trkpt lat="46.4470810" lon="6.8752940">
        <ele>383.3</ele>
        <time>2019-02-24T11:31:16Z</time>
      </trkpt>
      <trkpt lat="46.4470650" lon="6.8753520">
        <ele>383.3</ele>
        <time>2019-02-24T11:31:17Z</time>
      </trkpt>
      <trkpt lat="46.4470490" lon="6.8754120">
        <ele>383.3</ele>
        <time>2019-02-24T11:31:18Z</time>
      </trkpt>
      <trkpt lat="46.4470340" lon="6.8754740">
        <ele>383.3</ele>
        <time>2019-02-24T11:31:19Z</time>
      </trkpt>
      <trkpt lat="46.4470190" lon="6.8755370">
        <ele>383.3</ele>
        <time>2019-02-24T11:31:20Z</time>
      </trkpt>
      <trkpt lat="46.4470050" lon="6.8756020">
        <ele>383.3</ele>
        <time>2019-02-24T11:31:21Z</time>
      </trkpt>
      <trkpt lat="46.4469920" lon="6.8756690">
        <ele>383.3</ele>
        <time>2019-02-24T11:31:22Z</time>
      </trkpt>
      <trkpt lat="46.4469790" lon="6.8757390">
        <ele>383.3</ele>
        <time>2019-02-24T11:31:23Z</time>
      </trkpt>
      <trkpt lat="46.4469660" lon="6.8758100">
        <ele>383.3</ele>
        <time>2019-02-24T11:31:24Z</time>
      </trkpt>
      <trkpt lat="46.4469520" lon="6.8758810">
        <ele>383.3</ele>
        <time>2019-02-24T11:31:25Z</time>
      </trkpt>
      <trkpt lat="46.4469350" lon="6.8759510">
        <ele>383.3</ele>
        <time>2019-02-24T11:31:26Z</time>
      </trkpt>
      <trkpt lat="46.4469160" lon="6.8760200">
        <ele>383.3</ele>
        <time>2019-02-24T11:31:27Z</time>
      </trkpt>
      <trkpt lat="46.4468950" lon="6.8760880">
        <ele>383.3</ele>
        <time>2019-02-24T11:31:28Z</time>
      </trkpt>
      <trkpt lat="46.4468720" lon="6.8761540">
        <ele>383.3</ele>
        <time>2019-02-24T11:31:29Z</time>
      </trkpt>
      <trkpt lat="46.4468480" lon="6.8762190">
        <ele>383.3</ele>
        <time>2019-02-24T11:31:30Z</time>
      </trkpt>
      <trkpt lat="46.4468230" lon="6.8762840">
        <ele>383.3</ele>
        <time>2019-02-24T11:31:31Z</time>
      </trkpt>
      <trkpt lat="46.4467980" lon="6.8763490">
        <ele>383.3</ele>
        <time>2019-02-24T11:31:32Z</time>
      </trkpt>
      <trkpt lat="46.4467730" lon="6.8764130">
        <ele>383.3</ele>
        <time>2019-02-24T11:31:33Z</time>
      </trkpt>
      <trkpt lat="46.4467480" lon="6.8764770">
        <ele>383.3</ele>
        <time>2019-02-24T11:31:34Z</time>
      </trkpt>
      <trkpt lat="46.4467220" lon="6.8765410">
        <ele>383.3</ele>
        <time>2019-02-24T11:31:35Z</time>
      </trkpt>
      <trkpt lat="46.4466960" lon="6.8766060">
        <ele>383.2</ele>
        <time>2019-02-24T11:31:36Z</time>
      </trkpt>
      <trkpt lat="46.4466700" lon="6.8766710">
        <ele>383.1</ele>
        <time>2019-02-24T11:31:37Z</time>
      </trkpt>
      <trkpt lat="46.4466440" lon="6.8767360">
        <ele>383.0</ele>
        <time>2019-02-24T11:31:38Z</time>
      </trkpt>
      <trkpt lat="46.4466180" lon="6.8768020">
        <ele>382.9</ele>
        <time>2019-02-24T11:31:39Z</time>
      </trkpt>
      <trkpt lat="46.4465910" lon="6.8768690">
        <ele>382.8</ele>
        <time>2019-02-24T11:31:40Z</time>
      </trkpt>
      <trkpt lat="46.4465650" lon="6.8769360">
        <ele>382.7</ele>
        <time>2019-02-24T11:31:41Z</time>
      </trkpt>
      <trkpt lat="46.4465390" lon="6.8770040">
        <ele>382.6</ele>
        <time>2019-02-24T11:31:42Z</time>
      </trkpt>
      <trkpt lat="46.4465130" lon="6.8770720">
        <ele>382.5</ele>
        <time>2019-02-24T11:31:43Z</time>
      </trkpt>
      <trkpt lat="46.4464870" lon="6.8771410">
        <ele>382.5</ele>
        <time>2019-02-24T11:31:44Z</time>
      </trkpt>
      <trkpt lat="46.4464610" lon="6.8772100">
        <ele>382.4</ele>
        <time>2019-02-24T11:31:45Z</time>
      </trkpt>
      <trkpt lat="46.4464350" lon="6.8772800">
        <ele>382.4</ele>
        <time>2019-02-24T11:31:46Z</time>
      </trkpt>
      <trkpt lat="46.4464090" lon="6.8773500">
        <ele>382.4</ele>
        <time>2019-02-24T11:31:47Z</time>
      </trkpt>
      <trkpt lat="46.4463840" lon="6.8774190">
        <ele>382.4</ele>
        <time>2019-02-24T11:31:48Z</time>
      </trkpt>
      <trkpt lat="46.4463580" lon="6.8774890">
        <ele>382.4</ele>
        <time>2019-02-24T11:31:49Z</time>
      </trkpt>
      <trkpt lat="46.4463330" lon="6.8775580">
        <ele>382.4</ele>
        <time>2019-02-24T11:31:50Z</time>
      </trkpt>
      <trkpt lat="46.4463090" lon="6.8776260">
        <ele>382.4</ele>
        <time>2019-02-24T11:31:51Z</time>
      </trkpt>
      <trkpt lat="46.4462850" lon="6.8776920">
        <ele>382.4</ele>
        <time>2019-02-24T11:31:52Z</time>
      </trkpt>
      <trkpt lat="46.4462610" lon="6.8777570">
        <ele>382.3</ele>
        <time>2019-02-24T11:31:53Z</time>
      </trkpt>
      <trkpt lat="46.4462380" lon="6.8778200">
        <ele>382.2</ele>
        <time>2019-02-24T11:31:54Z</time>
      </trkpt>
      <trkpt lat="46.4462160" lon="6.8778800">
        <ele>382.1</ele>
        <time>2019-02-24T11:31:55Z</time>
      </trkpt>
      <trkpt lat="46.4461950" lon="6.8779360">
        <ele>382.0</ele>
        <time>2019-02-24T11:31:56Z</time>
      </trkpt>
      <trkpt lat="46.4461780" lon="6.8779850">
        <ele>381.9</ele>
        <time>2019-02-24T11:31:57Z</time>
      </trkpt>
      <trkpt lat="46.4461640" lon="6.8780250">
        <ele>381.9</ele>
        <time>2019-02-24T11:31:58Z</time>
      </trkpt>
      <trkpt lat="46.4461550" lon="6.8780540">
        <ele>381.8</ele>
        <time>2019-02-24T11:31:59Z</time>
      </trkpt>
      <trkpt lat="46.4461490" lon="6.8780740">
        <ele>381.8</ele>
        <time>2019-02-24T11:32:00Z</time>
      </trkpt>
      <trkpt lat="46.4461470" lon="6.8780900">
        <ele>381.8</ele>
        <time>2019-02-24T11:32:01Z</time>
      </trkpt>
      <trkpt lat="46.4461460" lon="6.8780920">
        <ele>381.8</ele>
        <time>2019-02-24T11:32:02Z</time>
      </trkpt>
      <trkpt lat="46.4461450" lon="6.8780960">
        <ele>381.8</ele>
        <time>2019-02-24T11:32:03Z</time>
      </trkpt>
      <trkpt lat="46.4461450" lon="6.8780960">
        <ele>381.8</ele>
        <time>2019-02-24T11:32:04Z</time>
      </trkpt>
      <trkpt lat="46.4461450" lon="6.8780950">
        <ele>381.8</ele>
        <time>2019-02-24T11:32:05Z</time>
      </trkpt>
      <trkpt lat="46.4461450" lon="6.8780950">
        <ele>381.8</ele>
        <time>2019-02-24T11:32:06Z</time>
      </trkpt>
      <trkpt lat="46.4461450" lon="6.8780950">
        <ele>381.8</ele>
        <time>2019-02-24T11:32:07Z</time>
      </trkpt>
      <trkpt lat="46.4461450" lon="6.8780960">
        <ele>381.8</ele>
        <time>2019-02-24T11:32:08Z</time>
      </trkpt>
      <trkpt lat="46.4461450" lon="6.8780970">
        <ele>381.8</ele>
        <time>2019-02-24T11:32:09Z</time>
      </trkpt>
      <trkpt lat="46.4461450" lon="6.8780960">
        <ele>381.8</ele>
        <time>2019-02-24T11:32:10Z</time>
      </trkpt>
      <trkpt lat="46.4461450" lon="6.8780960">
        <ele>381.8</ele>
        <time>2019-02-24T11:32:11Z</time>
      </trkpt>
      <trkpt lat="46.4461460" lon="6.8780940">
        <ele>381.8</ele>
        <time>2019-02-24T11:32:12Z</time>
      </trkpt>
      <trkpt lat="46.4461460" lon="6.8780940">
        <ele>381.8</ele>
        <time>2019-02-24T11:32:13Z</time>
      </trkpt>
      <trkpt lat="46.4461450" lon="6.8780980">
        <ele>381.8</ele>
        <time>2019-02-24T11:32:14Z</time>
      </trkpt>
      <trkpt lat="46.4461420" lon="6.8781090">
        <ele>381.7</ele>
        <time>2019-02-24T11:32:15Z</time>
      </trkpt>
      <trkpt lat="46.4461370" lon="6.8781300">
        <ele>381.7</ele>
        <time>2019-02-24T11:32:16Z</time>
      </trkpt>
      <trkpt lat="46.4461300" lon="6.8781580">
        <ele>381.6</ele>
        <time>2019-02-24T11:32:17Z</time>
      </trkpt>
      <trkpt lat="46.4461210" lon="6.8781930">
        <ele>381.5</ele>
        <time>2019-02-24T11:32:18Z</time>
      </trkpt>
      <trkpt lat="46.4461100" lon="6.8782320">
        <ele>381.3</ele>
        <time>2019-02-24T11:32:19Z</time>
      </trkpt>
      <trkpt lat="46.4460980" lon="6.8782750">
        <ele>381.2</ele>
        <time>2019-02-24T11:32:20Z</time>
      </trkpt>
      <trkpt lat="46.4460850" lon="6.8783200">
        <ele>381.0</ele>
        <time>2019-02-24T11:32:21Z</time>
      </trkpt>
      <trkpt lat="46.4460690" lon="6.8783670">
        <ele>380.8</ele>
        <time>2019-02-24T11:32:22Z</time>
      </trkpt>
      <trkpt lat="46.4460520" lon="6.8784160">
        <ele>380.7</ele>
        <time>2019-02-24T11:32:23Z</time>
      </trkpt>
      <trkpt lat="46.4460170" lon="6.8784990">
        <ele>380.3</ele>
        <time>2019-02-24T11:32:24Z</time>
      </trkpt>
      <trkpt lat="46.4460020" lon="6.8785330">
        <ele>380.2</ele>
        <time>2019-02-24T11:32:25Z</time>
      </trkpt>
      <trkpt lat="46.4459860" lon="6.8785660">
        <ele>379.9</ele>
        <time>2019-02-24T11:32:26Z</time>
      </trkpt>
      <trkpt lat="46.4459600" lon="6.8786140">
        <ele>379.6</ele>
        <time>2019-02-24T11:32:27Z</time>
      </trkpt>
      <trkpt lat="46.4459320" lon="6.8786590">
        <ele>379.4</ele>
        <time>2019-02-24T11:32:28Z</time>
      </trkpt>
      <trkpt lat="46.4458790" lon="6.8787280">
        <ele>379.0</ele>
        <time>2019-02-24T11:32:29Z</time>
      </trkpt>
      <trkpt lat="46.4458580" lon="6.8787530">
        <ele>379.0</ele>
        <time>2019-02-24T11:32:30Z</time>
      </trkpt>
      <trkpt lat="46.4458360" lon="6.8787790">
        <ele>378.9</ele>
        <time>2019-02-24T11:32:31Z</time>
      </trkpt>
      <trkpt lat="46.4458000" lon="6.8788130">
        <ele>378.8</ele>
        <time>2019-02-24T11:32:32Z</time>
      </trkpt>
      <trkpt lat="46.4457640" lon="6.8788430">
        <ele>378.8</ele>
        <time>2019-02-24T11:32:33Z</time>
      </trkpt>
      <trkpt lat="46.4457270" lon="6.8788690">
        <ele>378.8</ele>
        <time>2019-02-24T11:32:34Z</time>
      </trkpt>
      <trkpt lat="46.4456880" lon="6.8788920">
        <ele>378.8</ele>
        <time>2019-02-24T11:32:35Z</time>
      </trkpt>
      <trkpt lat="46.4456490" lon="6.8789110">
        <ele>378.9</ele>
        <time>2019-02-24T11:32:36Z</time>
      </trkpt>
      <trkpt lat="46.4456100" lon="6.8789270">
        <ele>378.9</ele>
        <time>2019-02-24T11:32:37Z</time>
      </trkpt>
      <trkpt lat="46.4455700" lon="6.8789420">
        <ele>378.9</ele>
        <time>2019-02-24T11:32:38Z</time>
      </trkpt>
      <trkpt lat="46.4455300" lon="6.8789560">
        <ele>378.9</ele>
        <time>2019-02-24T11:32:39Z</time>
      </trkpt>
      <trkpt lat="46.4454900" lon="6.8789720">
        <ele>378.9</ele>
        <time>2019-02-24T11:32:40Z</time>
      </trkpt>
      <trkpt lat="46.4454490" lon="6.8789890">
        <ele>378.9</ele>
        <time>2019-02-24T11:32:41Z</time>
      </trkpt>
      <trkpt lat="46.4454080" lon="6.8790070">
        <ele>379.0</ele>
        <time>2019-02-24T11:32:42Z</time>
      </trkpt>
      <trkpt lat="46.4453670" lon="6.8790240">
        <ele>379.0</ele>
        <time>2019-02-24T11:32:43Z</time>
      </trkpt>
      <trkpt lat="46.4453250" lon="6.8790410">
        <ele>379.0</ele>
        <time>2019-02-24T11:32:44Z</time>
      </trkpt>
      <trkpt lat="46.4452810" lon="6.8790580">
        <ele>379.0</ele>
        <time>2019-02-24T11:32:45Z</time>
      </trkpt>
      <trkpt lat="46.4452370" lon="6.8790740">
        <ele>379.0</ele>
        <time>2019-02-24T11:32:46Z</time>
      </trkpt>
      <trkpt lat="46.4451930" lon="6.8790900">
        <ele>379.1</ele>
        <time>2019-02-24T11:32:47Z</time>
      </trkpt>
      <trkpt lat="46.4451480" lon="6.8791050">
        <ele>379.1</ele>
        <time>2019-02-24T11:32:48Z</time>
      </trkpt>
      <trkpt lat="46.4451040" lon="6.8791210">
        <ele>379.1</ele>
        <time>2019-02-24T11:32:49Z</time>
      </trkpt>
      <trkpt lat="46.4450590" lon="6.8791360">
        <ele>379.1</ele>
        <time>2019-02-24T11:32:50Z</time>
      </trkpt>
      <trkpt lat="46.4450140" lon="6.8791520">
        <ele>379.2</ele>
        <time>2019-02-24T11:32:51Z</time>
      </trkpt>
      <trkpt lat="46.4449690" lon="6.8791670">
        <ele>379.2</ele>
        <time>2019-02-24T11:32:52Z</time>
      </trkpt>
      <trkpt lat="46.4449250" lon="6.8791830">
        <ele>379.3</ele>
        <time>2019-02-24T11:32:53Z</time>
      </trkpt>
      <trkpt lat="46.4448810" lon="6.8791990">
        <ele>379.4</ele>
        <time>2019-02-24T11:32:54Z</time>
      </trkpt>
      <trkpt lat="46.4448380" lon="6.8792150">
        <ele>379.4</ele>
        <time>2019-02-24T11:32:55Z</time>
      </trkpt>
      <trkpt lat="46.4447940" lon="6.8792310">
        <ele>379.5</ele>
        <time>2019-02-24T11:32:56Z</time>
      </trkpt>
      <trkpt lat="46.4447220" lon="6.8792580">
        <ele>379.7</ele>
        <time>2019-02-24T11:32:57Z</time>
      </trkpt>
      <trkpt lat="46.4446940" lon="6.8792680">
        <ele>379.8</ele>
        <time>2019-02-24T11:32:58Z</time>
      </trkpt>
      <trkpt lat="46.4446650" lon="6.8792790">
        <ele>380.0</ele>
        <time>2019-02-24T11:32:59Z</time>
      </trkpt>
      <trkpt lat="46.4446220" lon="6.8792960">
        <ele>380.1</ele>
        <time>2019-02-24T11:33:00Z</time>
      </trkpt>
      <trkpt lat="46.4445790" lon="6.8793120">
        <ele>380.3</ele>
        <time>2019-02-24T11:33:01Z</time>
      </trkpt>
      <trkpt lat="46.4445060" lon="6.8793360">
        <ele>380.6</ele>
        <time>2019-02-24T11:33:02Z</time>
      </trkpt>
      <trkpt lat="46.4444760" lon="6.8793460">
        <ele>380.7</ele>
        <time>2019-02-24T11:33:03Z</time>
      </trkpt>
      <trkpt lat="46.4444460" lon="6.8793550">
        <ele>380.8</ele>
        <time>2019-02-24T11:33:04Z</time>
      </trkpt>
      <trkpt lat="46.4443990" lon="6.8793670">
        <ele>381.0</ele>
        <time>2019-02-24T11:33:05Z</time>
      </trkpt>
      <trkpt lat="46.4443530" lon="6.8793800">
        <ele>381.1</ele>
        <time>2019-02-24T11:33:06Z</time>
      </trkpt>
      <trkpt lat="46.4443090" lon="6.8793930">
        <ele>381.2</ele>
        <time>2019-02-24T11:33:07Z</time>
      </trkpt>
      <trkpt lat="46.4442660" lon="6.8794080">
        <ele>381.4</ele>
        <time>2019-02-24T11:33:08Z</time>
      </trkpt>
      <trkpt lat="46.4442240" lon="6.8794230">
        <ele>381.5</ele>
        <time>2019-02-24T11:33:09Z</time>
      </trkpt>
      <trkpt lat="46.4441830" lon="6.8794390">
        <ele>381.7</ele>
        <time>2019-02-24T11:33:10Z</time>
      </trkpt>
      <trkpt lat="46.4441420" lon="6.8794540">
        <ele>381.8</ele>
        <time>2019-02-24T11:33:11Z</time>
      </trkpt>
      <trkpt lat="46.4441010" lon="6.8794690">
        <ele>382.0</ele>
        <time>2019-02-24T11:33:12Z</time>
      </trkpt>
      <trkpt lat="46.4440600" lon="6.8794830">
        <ele>382.1</ele>
        <time>2019-02-24T11:33:13Z</time>
      </trkpt>
      <trkpt lat="46.4440190" lon="6.8794970">
        <ele>382.2</ele>
        <time>2019-02-24T11:33:14Z</time>
      </trkpt>
      <trkpt lat="46.4439780" lon="6.8795110">
        <ele>382.4</ele>
        <time>2019-02-24T11:33:15Z</time>
      </trkpt>
      <trkpt lat="46.4439380" lon="6.8795270">
        <ele>382.4</ele>
        <time>2019-02-24T11:33:16Z</time>
      </trkpt>
      <trkpt lat="46.4438970" lon="6.8795430">
        <ele>382.5</ele>
        <time>2019-02-24T11:33:17Z</time>
      </trkpt>
      <trkpt lat="46.4438550" lon="6.8795580">
        <ele>382.6</ele>
        <time>2019-02-24T11:33:18Z</time>
      </trkpt>
      <trkpt lat="46.4438130" lon="6.8795730">
        <ele>382.7</ele>
        <time>2019-02-24T11:33:19Z</time>
      </trkpt>
      <trkpt lat="46.4437690" lon="6.8795870">
        <ele>382.8</ele>
        <time>2019-02-24T11:33:20Z</time>
      </trkpt>
      <trkpt lat="46.4437240" lon="6.8796010">
        <ele>383.0</ele>
        <time>2019-02-24T11:33:21Z</time>
      </trkpt>
      <trkpt lat="46.4436790" lon="6.8796140">
        <ele>383.1</ele>
        <time>2019-02-24T11:33:22Z</time>
      </trkpt>
      <trkpt lat="46.4436340" lon="6.8796280">
        <ele>383.3</ele>
        <time>2019-02-24T11:33:23Z</time>
      </trkpt>
      <trkpt lat="46.4435900" lon="6.8796430">
        <ele>383.5</ele>
        <time>2019-02-24T11:33:24Z</time>
      </trkpt>
      <trkpt lat="46.4435470" lon="6.8796590">
        <ele>383.7</ele>
        <time>2019-02-24T11:33:25Z</time>
      </trkpt>
      <trkpt lat="46.4435050" lon="6.8796770">
        <ele>383.9</ele>
        <time>2019-02-24T11:33:26Z</time>
      </trkpt>
      <trkpt lat="46.4434630" lon="6.8796960">
        <ele>384.1</ele>
        <time>2019-02-24T11:33:27Z</time>
      </trkpt>
      <trkpt lat="46.4434220" lon="6.8797160">
        <ele>384.3</ele>
        <time>2019-02-24T11:33:28Z</time>
      </trkpt>
      <trkpt lat="46.4433820" lon="6.8797380">
        <ele>384.1</ele>
        <time>2019-02-24T11:33:29Z</time>
      </trkpt>
      <trkpt lat="46.4433420" lon="6.8797610">
        <ele>384.0</ele>
        <time>2019-02-24T11:33:30Z</time>
      </trkpt>
      <trkpt lat="46.4433010" lon="6.8797850">
        <ele>383.8</ele>
        <time>2019-02-24T11:33:31Z</time>
      </trkpt>
      <trkpt lat="46.4432610" lon="6.8798120">
        <ele>383.6</ele>
        <time>2019-02-24T11:33:32Z</time>
      </trkpt>
      <trkpt lat="46.4432210" lon="6.8798390">
        <ele>383.4</ele>
        <time>2019-02-24T11:33:33Z</time>
      </trkpt>
      <trkpt lat="46.4431810" lon="6.8798680">
        <ele>383.3</ele>
        <time>2019-02-24T11:33:34Z</time>
      </trkpt>
      <trkpt lat="46.4431410" lon="6.8798990">
        <ele>383.0</ele>
        <time>2019-02-24T11:33:35Z</time>
      </trkpt>
      <trkpt lat="46.4431020" lon="6.8799310">
        <ele>382.8</ele>
        <time>2019-02-24T11:33:36Z</time>
      </trkpt>
      <trkpt lat="46.4430620" lon="6.8799650">
        <ele>382.4</ele>
        <time>2019-02-24T11:33:37Z</time>
      </trkpt>
      <trkpt lat="46.4430230" lon="6.8800010">
        <ele>382.1</ele>
        <time>2019-02-24T11:33:38Z</time>
      </trkpt>
      <trkpt lat="46.4429850" lon="6.8800380">
        <ele>381.8</ele>
        <time>2019-02-24T11:33:39Z</time>
      </trkpt>
      <trkpt lat="46.4429460" lon="6.8800770">
        <ele>381.4</ele>
        <time>2019-02-24T11:33:40Z</time>
      </trkpt>
      <trkpt lat="46.4429080" lon="6.8801180">
        <ele>381.1</ele>
        <time>2019-02-24T11:33:41Z</time>
      </trkpt>
      <trkpt lat="46.4428710" lon="6.8801610">
        <ele>380.6</ele>
        <time>2019-02-24T11:33:42Z</time>
      </trkpt>
      <trkpt lat="46.4428350" lon="6.8802050">
        <ele>380.2</ele>
        <time>2019-02-24T11:33:43Z</time>
      </trkpt>
      <trkpt lat="46.4427990" lon="6.8802510">
        <ele>379.8</ele>
        <time>2019-02-24T11:33:44Z</time>
      </trkpt>
      <trkpt lat="46.4427650" lon="6.8802990">
        <ele>379.5</ele>
        <time>2019-02-24T11:33:45Z</time>
      </trkpt>
      <trkpt lat="46.4427320" lon="6.8803490">
        <ele>379.3</ele>
        <time>2019-02-24T11:33:46Z</time>
      </trkpt>
      <trkpt lat="46.4426990" lon="6.8804010">
        <ele>379.0</ele>
        <time>2019-02-24T11:33:47Z</time>
      </trkpt>
      <trkpt lat="46.4426680" lon="6.8804540">
        <ele>378.8</ele>
        <time>2019-02-24T11:33:48Z</time>
      </trkpt>
      <trkpt lat="46.4426390" lon="6.8805090">
        <ele>378.8</ele>
        <time>2019-02-24T11:33:49Z</time>
      </trkpt>
      <trkpt lat="46.4426100" lon="6.8805660">
        <ele>378.8</ele>
        <time>2019-02-24T11:33:50Z</time>
      </trkpt>
      <trkpt lat="46.4425810" lon="6.8806230">
        <ele>378.7</ele>
        <time>2019-02-24T11:33:51Z</time>
      </trkpt>
      <trkpt lat="46.4425540" lon="6.8806810">
        <ele>378.5</ele>
        <time>2019-02-24T11:33:52Z</time>
      </trkpt>
      <trkpt lat="46.4425260" lon="6.8807400">
        <ele>378.4</ele>
        <time>2019-02-24T11:33:53Z</time>
      </trkpt>
      <trkpt lat="46.4424990" lon="6.8808000">
        <ele>378.2</ele>
        <time>2019-02-24T11:33:54Z</time>
      </trkpt>
      <trkpt lat="46.4424710" lon="6.8808600">
        <ele>378.0</ele>
        <time>2019-02-24T11:33:55Z</time>
      </trkpt>
      <trkpt lat="46.4424430" lon="6.8809190">
        <ele>377.8</ele>
        <time>2019-02-24T11:33:56Z</time>
      </trkpt>
      <trkpt lat="46.4424150" lon="6.8809790">
        <ele>377.7</ele>
        <time>2019-02-24T11:33:57Z</time>
      </trkpt>
      <trkpt lat="46.4423860" lon="6.8810390">
        <ele>377.5</ele>
        <time>2019-02-24T11:33:58Z</time>
      </trkpt>
      <trkpt lat="46.4423570" lon="6.8810990">
        <ele>377.7</ele>
        <time>2019-02-24T11:33:59Z</time>
      </trkpt>
      <trkpt lat="46.4423280" lon="6.8811590">
        <ele>377.9</ele>
        <time>2019-02-24T11:34:00Z</time>
      </trkpt>
      <trkpt lat="46.4422990" lon="6.8812190">
        <ele>378.0</ele>
        <time>2019-02-24T11:34:01Z</time>
      </trkpt>
      <trkpt lat="46.4422700" lon="6.8812790">
        <ele>378.2</ele>
        <time>2019-02-24T11:34:02Z</time>
      </trkpt>
      <trkpt lat="46.4422410" lon="6.8813400">
        <ele>378.4</ele>
        <time>2019-02-24T11:34:03Z</time>
      </trkpt>
      <trkpt lat="46.4422120" lon="6.8814000">
        <ele>378.5</ele>
        <time>2019-02-24T11:34:04Z</time>
      </trkpt>
      <trkpt lat="46.4421830" lon="6.8814610">
        <ele>378.6</ele>
        <time>2019-02-24T11:34:05Z</time>
      </trkpt>
      <trkpt lat="46.4421540" lon="6.8815230">
        <ele>378.6</ele>
        <time>2019-02-24T11:34:06Z</time>
      </trkpt>
      <trkpt lat="46.4421250" lon="6.8815840">
        <ele>378.5</ele>
        <time>2019-02-24T11:34:07Z</time>
      </trkpt>
      <trkpt lat="46.4420960" lon="6.8816470">
        <ele>378.5</ele>
        <time>2019-02-24T11:34:08Z</time>
      </trkpt>
      <trkpt lat="46.4420680" lon="6.8817090">
        <ele>378.5</ele>
        <time>2019-02-24T11:34:09Z</time>
      </trkpt>
      <trkpt lat="46.4420400" lon="6.8817720">
        <ele>378.4</ele>
        <time>2019-02-24T11:34:10Z</time>
      </trkpt>
      <trkpt lat="46.4420120" lon="6.8818360">
        <ele>378.4</ele>
        <time>2019-02-24T11:34:11Z</time>
      </trkpt>
      <trkpt lat="46.4419860" lon="6.8819000">
        <ele>378.3</ele>
        <time>2019-02-24T11:34:12Z</time>
      </trkpt>
      <trkpt lat="46.4419600" lon="6.8819650">
        <ele>378.2</ele>
        <time>2019-02-24T11:34:13Z</time>
      </trkpt>
      <trkpt lat="46.4419360" lon="6.8820330">
        <ele>378.2</ele>
        <time>2019-02-24T11:34:14Z</time>
      </trkpt>
      <trkpt lat="46.4419150" lon="6.8821030">
        <ele>378.1</ele>
        <time>2019-02-24T11:34:15Z</time>
      </trkpt>
      <trkpt lat="46.4418980" lon="6.8821760">
        <ele>378.0</ele>
        <time>2019-02-24T11:34:16Z</time>
      </trkpt>
      <trkpt lat="46.4418850" lon="6.8822530">
        <ele>377.9</ele>
        <time>2019-02-24T11:34:17Z</time>
      </trkpt>
      <trkpt lat="46.4418760" lon="6.8823330">
        <ele>377.7</ele>
        <time>2019-02-24T11:34:18Z</time>
      </trkpt>
      <trkpt lat="46.4418700" lon="6.8824170">
        <ele>377.6</ele>
        <time>2019-02-24T11:34:19Z</time>
      </trkpt>
      <trkpt lat="46.4418670" lon="6.8825020">
        <ele>377.5</ele>
        <time>2019-02-24T11:34:20Z</time>
      </trkpt>
      <trkpt lat="46.4418670" lon="6.8825880">
        <ele>377.3</ele>
        <time>2019-02-24T11:34:21Z</time>
      </trkpt>
      <trkpt lat="46.4418700" lon="6.8826760">
        <ele>377.2</ele>
        <time>2019-02-24T11:34:22Z</time>
      </trkpt>
      <trkpt lat="46.4418740" lon="6.8827660">
        <ele>377.3</ele>
        <time>2019-02-24T11:34:23Z</time>
      </trkpt>
      <trkpt lat="46.4418790" lon="6.8828560">
        <ele>377.4</ele>
        <time>2019-02-24T11:34:24Z</time>
      </trkpt>
      <trkpt lat="46.4418860" lon="6.8829470">
        <ele>377.3</ele>
        <time>2019-02-24T11:34:25Z</time>
      </trkpt>
      <trkpt lat="46.4418930" lon="6.8830390">
        <ele>376.7</ele>
        <time>2019-02-24T11:34:26Z</time>
      </trkpt>
      <trkpt lat="46.4419010" lon="6.8831320">
        <ele>376.2</ele>
        <time>2019-02-24T11:34:27Z</time>
      </trkpt>
      <trkpt lat="46.4419090" lon="6.8832250">
        <ele>375.8</ele>
        <time>2019-02-24T11:34:28Z</time>
      </trkpt>
      <trkpt lat="46.4419160" lon="6.8833180">
        <ele>375.4</ele>
        <time>2019-02-24T11:34:29Z</time>
      </trkpt>
      <trkpt lat="46.4419240" lon="6.8834120">
        <ele>375.1</ele>
        <time>2019-02-24T11:34:30Z</time>
      </trkpt>
      <trkpt lat="46.4419330" lon="6.8835050">
        <ele>374.8</ele>
        <time>2019-02-24T11:34:31Z</time>
      </trkpt>
      <trkpt lat="46.4419450" lon="6.8835970">
        <ele>374.6</ele>
        <time>2019-02-24T11:34:32Z</time>
      </trkpt>
      <trkpt lat="46.4419590" lon="6.8836880">
        <ele>375.0</ele>
        <time>2019-02-24T11:34:33Z</time>
      </trkpt>
      <trkpt lat="46.4419770" lon="6.8837760">
        <ele>375.5</ele>
        <time>2019-02-24T11:34:34Z</time>
      </trkpt>
      <trkpt lat="46.4419990" lon="6.8838630">
        <ele>376.0</ele>
        <time>2019-02-24T11:34:35Z</time>
      </trkpt>
      <trkpt lat="46.4420270" lon="6.8839460">
        <ele>376.5</ele>
        <time>2019-02-24T11:34:36Z</time>
      </trkpt>
      <trkpt lat="46.4420610" lon="6.8840260">
        <ele>377.0</ele>
        <time>2019-02-24T11:34:37Z</time>
      </trkpt>
      <trkpt lat="46.4421000" lon="6.8841040">
        <ele>377.7</ele>
        <time>2019-02-24T11:34:38Z</time>
      </trkpt>
      <trkpt lat="46.4421430" lon="6.8841780">
        <ele>377.9</ele>
        <time>2019-02-24T11:34:39Z</time>
      </trkpt>
      <trkpt lat="46.4421900" lon="6.8842500">
        <ele>378.0</ele>
        <time>2019-02-24T11:34:40Z</time>
      </trkpt>
      <trkpt lat="46.4422380" lon="6.8843200">
        <ele>378.2</ele>
        <time>2019-02-24T11:34:41Z</time>
      </trkpt>
      <trkpt lat="46.4422870" lon="6.8843910">
        <ele>378.3</ele>
        <time>2019-02-24T11:34:42Z</time>
      </trkpt>
      <trkpt lat="46.4423350" lon="6.8844640">
        <ele>378.4</ele>
        <time>2019-02-24T11:34:43Z</time>
      </trkpt>
      <trkpt lat="46.4423780" lon="6.8845420">
        <ele>378.6</ele>
        <time>2019-02-24T11:34:44Z</time>
      </trkpt>
      <trkpt lat="46.4424170" lon="6.8846270">
        <ele>378.8</ele>
        <time>2019-02-24T11:34:45Z</time>
      </trkpt>
      <trkpt lat="46.4424500" lon="6.8847170">
        <ele>379.0</ele>
        <time>2019-02-24T11:34:46Z</time>
      </trkpt>
      <trkpt lat="46.4424780" lon="6.8848120">
        <ele>379.2</ele>
        <time>2019-02-24T11:34:47Z</time>
      </trkpt>
      <trkpt lat="46.4425010" lon="6.8849100">
        <ele>379.4</ele>
        <time>2019-02-24T11:34:48Z</time>
      </trkpt>
      <trkpt lat="46.4425200" lon="6.8850100">
        <ele>379.6</ele>
        <time>2019-02-24T11:34:49Z</time>
      </trkpt>
      <trkpt lat="46.4425340" lon="6.8851110">
        <ele>379.8</ele>
        <time>2019-02-24T11:34:50Z</time>
      </trkpt>
      <trkpt lat="46.4425430" lon="6.8852100">
        <ele>379.6</ele>
        <time>2019-02-24T11:34:51Z</time>
      </trkpt>
      <trkpt lat="46.4425490" lon="6.8853080">
        <ele>379.5</ele>
        <time>2019-02-24T11:34:52Z</time>
      </trkpt>
      <trkpt lat="46.4425500" lon="6.8854610">
        <ele>379.2</ele>
        <time>2019-02-24T11:34:53Z</time>
      </trkpt>
      <trkpt lat="46.4425480" lon="6.8855210">
        <ele>379.2</ele>
        <time>2019-02-24T11:34:54Z</time>
      </trkpt>
      <trkpt lat="46.4425470" lon="6.8855800">
        <ele>379.0</ele>
        <time>2019-02-24T11:34:55Z</time>
      </trkpt>
      <trkpt lat="46.4425430" lon="6.8856640">
        <ele>379.0</ele>
        <time>2019-02-24T11:34:56Z</time>
      </trkpt>
      <trkpt lat="46.4425390" lon="6.8857440">
        <ele>378.9</ele>
        <time>2019-02-24T11:34:57Z</time>
      </trkpt>
      <trkpt lat="46.4425310" lon="6.8858700">
        <ele>378.8</ele>
        <time>2019-02-24T11:34:58Z</time>
      </trkpt>
      <trkpt lat="46.4425280" lon="6.8859200">
        <ele>378.8</ele>
        <time>2019-02-24T11:34:59Z</time>
      </trkpt>
      <trkpt lat="46.4425250" lon="6.8859690">
        <ele>378.7</ele>
        <time>2019-02-24T11:35:00Z</time>
      </trkpt>
      <trkpt lat="46.4425210" lon="6.8860420">
        <ele>378.7</ele>
        <time>2019-02-24T11:35:01Z</time>
      </trkpt>
      <trkpt lat="46.4425160" lon="6.8861140">
        <ele>378.7</ele>
        <time>2019-02-24T11:35:02Z</time>
      </trkpt>
      <trkpt lat="46.4425110" lon="6.8861850">
        <ele>378.6</ele>
        <time>2019-02-24T11:35:03Z</time>
      </trkpt>
      <trkpt lat="46.4425060" lon="6.8862550">
        <ele>378.6</ele>
        <time>2019-02-24T11:35:04Z</time>
      </trkpt>
      <trkpt lat="46.4425000" lon="6.8863240">
        <ele>378.6</ele>
        <time>2019-02-24T11:35:05Z</time>
      </trkpt>
      <trkpt lat="46.4424940" lon="6.8863920">
        <ele>378.5</ele>
        <time>2019-02-24T11:35:06Z</time>
      </trkpt>
      <trkpt lat="46.4424860" lon="6.8864590">
        <ele>378.5</ele>
        <time>2019-02-24T11:35:07Z</time>
      </trkpt>
      <trkpt lat="46.4424780" lon="6.8865260">
        <ele>378.5</ele>
        <time>2019-02-24T11:35:08Z</time>
      </trkpt>
      <trkpt lat="46.4424680" lon="6.8865910">
        <ele>378.5</ele>
        <time>2019-02-24T11:35:09Z</time>
      </trkpt>
      <trkpt lat="46.4424570" lon="6.8866560">
        <ele>378.4</ele>
        <time>2019-02-24T11:35:10Z</time>
      </trkpt>
      <trkpt lat="46.4424450" lon="6.8867190">
        <ele>378.4</ele>
        <time>2019-02-24T11:35:11Z</time>
      </trkpt>
      <trkpt lat="46.4424320" lon="6.8867800">
        <ele>378.5</ele>
        <time>2019-02-24T11:35:12Z</time>
      </trkpt>
      <trkpt lat="46.4424190" lon="6.8868400">
        <ele>378.5</ele>
        <time>2019-02-24T11:35:13Z</time>
      </trkpt>
      <trkpt lat="46.4424050" lon="6.8868980">
        <ele>378.5</ele>
        <time>2019-02-24T11:35:14Z</time>
      </trkpt>
      <trkpt lat="46.4423900" lon="6.8869540">
        <ele>378.5</ele>
        <time>2019-02-24T11:35:15Z</time>
      </trkpt>
      <trkpt lat="46.4423750" lon="6.8870080">
        <ele>378.5</ele>
        <time>2019-02-24T11:35:16Z</time>
      </trkpt>
      <trkpt lat="46.4423600" lon="6.8870590">
        <ele>378.6</ele>
        <time>2019-02-24T11:35:17Z</time>
      </trkpt>
      <trkpt lat="46.4423450" lon="6.8871080">
        <ele>378.7</ele>
        <time>2019-02-24T11:35:18Z</time>
      </trkpt>
      <trkpt lat="46.4423290" lon="6.8871550">
        <ele>378.8</ele>
        <time>2019-02-24T11:35:19Z</time>
      </trkpt>
      <trkpt lat="46.4423140" lon="6.8872010">
        <ele>378.9</ele>
        <time>2019-02-24T11:35:20Z</time>
      </trkpt>
      <trkpt lat="46.4422980" lon="6.8872460">
        <ele>379.1</ele>
        <time>2019-02-24T11:35:21Z</time>
      </trkpt>
      <trkpt lat="46.4422820" lon="6.8872900">
        <ele>379.2</ele>
        <time>2019-02-24T11:35:22Z</time>
      </trkpt>
      <trkpt lat="46.4422660" lon="6.8873340">
        <ele>379.3</ele>
        <time>2019-02-24T11:35:23Z</time>
      </trkpt>
      <trkpt lat="46.4422500" lon="6.8873780">
        <ele>379.5</ele>
        <time>2019-02-24T11:35:24Z</time>
      </trkpt>
      <trkpt lat="46.4422340" lon="6.8874210">
        <ele>379.6</ele>
        <time>2019-02-24T11:35:25Z</time>
      </trkpt>
      <trkpt lat="46.4422190" lon="6.8874660">
        <ele>379.7</ele>
        <time>2019-02-24T11:35:26Z</time>
      </trkpt>
      <trkpt lat="46.4422030" lon="6.8875100">
        <ele>379.9</ele>
        <time>2019-02-24T11:35:27Z</time>
      </trkpt>
      <trkpt lat="46.4421870" lon="6.8875550">
        <ele>380.0</ele>
        <time>2019-02-24T11:35:28Z</time>
      </trkpt>
      <trkpt lat="46.4421700" lon="6.8876000">
        <ele>380.1</ele>
        <time>2019-02-24T11:35:29Z</time>
      </trkpt>
      <trkpt lat="46.4421540" lon="6.8876460">
        <ele>380.3</ele>
        <time>2019-02-24T11:35:30Z</time>
      </trkpt>
      <trkpt lat="46.4421370" lon="6.8876910">
        <ele>380.4</ele>
        <time>2019-02-24T11:35:31Z</time>
      </trkpt>
      <trkpt lat="46.4421210" lon="6.8877370">
        <ele>380.6</ele>
        <time>2019-02-24T11:35:32Z</time>
      </trkpt>
      <trkpt lat="46.4421040" lon="6.8877840">
        <ele>380.7</ele>
        <time>2019-02-24T11:35:33Z</time>
      </trkpt>
      <trkpt lat="46.4420860" lon="6.8878300">
        <ele>380.9</ele>
        <time>2019-02-24T11:35:34Z</time>
      </trkpt>
      <trkpt lat="46.4420690" lon="6.8878770">
        <ele>381.1</ele>
        <time>2019-02-24T11:35:35Z</time>
      </trkpt>
      <trkpt lat="46.4420510" lon="6.8879240">
        <ele>381.2</ele>
        <time>2019-02-24T11:35:36Z</time>
      </trkpt>
      <trkpt lat="46.4420330" lon="6.8879710">
        <ele>381.4</ele>
        <time>2019-02-24T11:35:37Z</time>
      </trkpt>
      <trkpt lat="46.4420150" lon="6.8880180">
        <ele>381.6</ele>
        <time>2019-02-24T11:35:38Z</time>
      </trkpt>
      <trkpt lat="46.4419970" lon="6.8880650">
        <ele>381.8</ele>
        <time>2019-02-24T11:35:39Z</time>
      </trkpt>
      <trkpt lat="46.4419790" lon="6.8881130">
        <ele>381.9</ele>
        <time>2019-02-24T11:35:40Z</time>
      </trkpt>
      <trkpt lat="46.4419610" lon="6.8881600">
        <ele>382.0</ele>
        <time>2019-02-24T11:35:41Z</time>
      </trkpt>
      <trkpt lat="46.4419420" lon="6.8882070">
        <ele>382.2</ele>
        <time>2019-02-24T11:35:42Z</time>
      </trkpt>
      <trkpt lat="46.4419240" lon="6.8882540">
        <ele>382.3</ele>
        <time>2019-02-24T11:35:43Z</time>
      </trkpt>
      <trkpt lat="46.4419060" lon="6.8883000">
        <ele>382.4</ele>
        <time>2019-02-24T11:35:44Z</time>
      </trkpt>
      <trkpt lat="46.4418870" lon="6.8883470">
        <ele>382.5</ele>
        <time>2019-02-24T11:35:45Z</time>
      </trkpt>
      <trkpt lat="46.4418690" lon="6.8883930">
        <ele>382.6</ele>
        <time>2019-02-24T11:35:46Z</time>
      </trkpt>
      <trkpt lat="46.4418510" lon="6.8884390">
        <ele>382.7</ele>
        <time>2019-02-24T11:35:47Z</time>
      </trkpt>
      <trkpt lat="46.4418330" lon="6.8884840">
        <ele>382.8</ele>
        <time>2019-02-24T11:35:48Z</time>
      </trkpt>
      <trkpt lat="46.4418160" lon="6.8885290">
        <ele>383.0</ele>
        <time>2019-02-24T11:35:49Z</time>
      </trkpt>
      <trkpt lat="46.4417980" lon="6.8885740">
        <ele>383.1</ele>
        <time>2019-02-24T11:35:50Z</time>
      </trkpt>
      <trkpt lat="46.4417810" lon="6.8886180">
        <ele>383.2</ele>
        <time>2019-02-24T11:35:51Z</time>
      </trkpt>
      <trkpt lat="46.4417640" lon="6.8886620">
        <ele>383.4</ele>
        <time>2019-02-24T11:35:52Z</time>
      </trkpt>
      <trkpt lat="46.4417460" lon="6.8887060">
        <ele>383.5</ele>
        <time>2019-02-24T11:35:53Z</time>
      </trkpt>
      <trkpt lat="46.4417290" lon="6.8887490">
        <ele>383.7</ele>
        <time>2019-02-24T11:35:54Z</time>
      </trkpt>
      <trkpt lat="46.4417130" lon="6.8887920">
        <ele>383.8</ele>
        <time>2019-02-24T11:35:55Z</time>
      </trkpt>
      <trkpt lat="46.4416960" lon="6.8888350">
        <ele>383.9</ele>
        <time>2019-02-24T11:35:56Z</time>
      </trkpt>
      <trkpt lat="46.4416790" lon="6.8888780">
        <ele>384.1</ele>
        <time>2019-02-24T11:35:57Z</time>
      </trkpt>
      <trkpt lat="46.4416630" lon="6.8889200">
        <ele>384.2</ele>
        <time>2019-02-24T11:35:58Z</time>
      </trkpt>
      <trkpt lat="46.4416470" lon="6.8889620">
        <ele>384.2</ele>
        <time>2019-02-24T11:35:59Z</time>
      </trkpt>
      <trkpt lat="46.4416300" lon="6.8890040">
        <ele>384.3</ele>
        <time>2019-02-24T11:36:00Z</time>
      </trkpt>
      <trkpt lat="46.4416140" lon="6.8890460">
        <ele>384.4</ele>
        <time>2019-02-24T11:36:01Z</time>
      </trkpt>
      <trkpt lat="46.4415980" lon="6.8890880">
        <ele>384.5</ele>
        <time>2019-02-24T11:36:02Z</time>
      </trkpt>
      <trkpt lat="46.4415820" lon="6.8891290">
        <ele>384.5</ele>
        <time>2019-02-24T11:36:03Z</time>
      </trkpt>
      <trkpt lat="46.4415660" lon="6.8891710">
        <ele>384.6</ele>
        <time>2019-02-24T11:36:04Z</time>
      </trkpt>
      <trkpt lat="46.4415500" lon="6.8892120">
        <ele>384.7</ele>
        <time>2019-02-24T11:36:05Z</time>
      </trkpt>
      <trkpt lat="46.4415350" lon="6.8892540">
        <ele>384.7</ele>
        <time>2019-02-24T11:36:06Z</time>
      </trkpt>
      <trkpt lat="46.4415190" lon="6.8892950">
        <ele>384.8</ele>
        <time>2019-02-24T11:36:07Z</time>
      </trkpt>
      <trkpt lat="46.4415040" lon="6.8893350">
        <ele>385.0</ele>
        <time>2019-02-24T11:36:08Z</time>
      </trkpt>
      <trkpt lat="46.4414890" lon="6.8893750">
        <ele>385.1</ele>
        <time>2019-02-24T11:36:09Z</time>
      </trkpt>
      <trkpt lat="46.4414740" lon="6.8894150">
        <ele>385.2</ele>
        <time>2019-02-24T11:36:10Z</time>
      </trkpt>
      <trkpt lat="46.4414590" lon="6.8894540">
        <ele>385.3</ele>
        <time>2019-02-24T11:36:11Z</time>
      </trkpt>
      <trkpt lat="46.4414450" lon="6.8894920">
        <ele>385.5</ele>
        <time>2019-02-24T11:36:12Z</time>
      </trkpt>
      <trkpt lat="46.4414310" lon="6.8895290">
        <ele>385.6</ele>
        <time>2019-02-24T11:36:13Z</time>
      </trkpt>
      <trkpt lat="46.4414180" lon="6.8895650">
        <ele>385.8</ele>
        <time>2019-02-24T11:36:14Z</time>
      </trkpt>
      <trkpt lat="46.4414040" lon="6.8896000">
        <ele>385.9</ele>
        <time>2019-02-24T11:36:15Z</time>
      </trkpt>
      <trkpt lat="46.4413910" lon="6.8896350">
        <ele>386.1</ele>
        <time>2019-02-24T11:36:16Z</time>
      </trkpt>
      <trkpt lat="46.4413780" lon="6.8896700">
        <ele>386.2</ele>
        <time>2019-02-24T11:36:17Z</time>
      </trkpt>
      <trkpt lat="46.4413640" lon="6.8897030">
        <ele>386.2</ele>
        <time>2019-02-24T11:36:18Z</time>
      </trkpt>
      <trkpt lat="46.4413510" lon="6.8897370">
        <ele>386.3</ele>
        <time>2019-02-24T11:36:19Z</time>
      </trkpt>
      <trkpt lat="46.4413370" lon="6.8897700">
        <ele>386.3</ele>
        <time>2019-02-24T11:36:20Z</time>
      </trkpt>
      <trkpt lat="46.4413230" lon="6.8898030">
        <ele>386.3</ele>
        <time>2019-02-24T11:36:21Z</time>
      </trkpt>
      <trkpt lat="46.4413080" lon="6.8898360">
        <ele>386.4</ele>
        <time>2019-02-24T11:36:22Z</time>
      </trkpt>
      <trkpt lat="46.4412930" lon="6.8898700">
        <ele>386.4</ele>
        <time>2019-02-24T11:36:23Z</time>
      </trkpt>
      <trkpt lat="46.4412780" lon="6.8899050">
        <ele>386.4</ele>
        <time>2019-02-24T11:36:24Z</time>
      </trkpt>
      <trkpt lat="46.4412620" lon="6.8899420">
        <ele>386.3</ele>
        <time>2019-02-24T11:36:25Z</time>
      </trkpt>
      <trkpt lat="46.4412450" lon="6.8899810">
        <ele>386.2</ele>
        <time>2019-02-24T11:36:26Z</time>
      </trkpt>
      <trkpt lat="46.4412270" lon="6.8900230">
        <ele>386.2</ele>
        <time>2019-02-24T11:36:27Z</time>
      </trkpt>
      <trkpt lat="46.4412080" lon="6.8900680">
        <ele>386.1</ele>
        <time>2019-02-24T11:36:28Z</time>
      </trkpt>
      <trkpt lat="46.4411890" lon="6.8901170">
        <ele>386.0</ele>
        <time>2019-02-24T11:36:29Z</time>
      </trkpt>
      <trkpt lat="46.4411680" lon="6.8901700">
        <ele>385.9</ele>
        <time>2019-02-24T11:36:30Z</time>
      </trkpt>
      <trkpt lat="46.4411470" lon="6.8902260">
        <ele>385.8</ele>
        <time>2019-02-24T11:36:31Z</time>
      </trkpt>
      <trkpt lat="46.4411260" lon="6.8902830">
        <ele>385.7</ele>
        <time>2019-02-24T11:36:32Z</time>
      </trkpt>
      <trkpt lat="46.4410910" lon="6.8903780">
        <ele>385.6</ele>
        <time>2019-02-24T11:36:33Z</time>
      </trkpt>
      <trkpt lat="46.4410780" lon="6.8904140">
        <ele>385.6</ele>
        <time>2019-02-24T11:36:34Z</time>
      </trkpt>
      <trkpt lat="46.4410640" lon="6.8904510">
        <ele>385.5</ele>
        <time>2019-02-24T11:36:35Z</time>
      </trkpt>
      <trkpt lat="46.4410460" lon="6.8905000">
        <ele>385.5</ele>
        <time>2019-02-24T11:36:36Z</time>
      </trkpt>
      <trkpt lat="46.4410300" lon="6.8905450">
        <ele>385.4</ele>
        <time>2019-02-24T11:36:37Z</time>
      </trkpt>
      <trkpt lat="46.4410150" lon="6.8905830">
        <ele>385.4</ele>
        <time>2019-02-24T11:36:38Z</time>
      </trkpt>
      <trkpt lat="46.4410030" lon="6.8906160">
        <ele>385.2</ele>
        <time>2019-02-24T11:36:39Z</time>
      </trkpt>
      <trkpt lat="46.4409910" lon="6.8906450">
        <ele>385.2</ele>
        <time>2019-02-24T11:36:40Z</time>
      </trkpt>
      <trkpt lat="46.4409810" lon="6.8906710">
        <ele>385.1</ele>
        <time>2019-02-24T11:36:41Z</time>
      </trkpt>
      <trkpt lat="46.4409720" lon="6.8906970">
        <ele>385.1</ele>
        <time>2019-02-24T11:36:42Z</time>
      </trkpt>
      <trkpt lat="46.4409620" lon="6.8907210">
        <ele>385.1</ele>
        <time>2019-02-24T11:36:43Z</time>
      </trkpt>
      <trkpt lat="46.4409520" lon="6.8907450">
        <ele>385.0</ele>
        <time>2019-02-24T11:36:44Z</time>
      </trkpt>
      <trkpt lat="46.4409400" lon="6.8907680">
        <ele>385.0</ele>
        <time>2019-02-24T11:36:45Z</time>
      </trkpt>
      <trkpt lat="46.4409260" lon="6.8907910">
        <ele>384.9</ele>
        <time>2019-02-24T11:36:46Z</time>
      </trkpt>
      <trkpt lat="46.4409090" lon="6.8908110">
        <ele>384.9</ele>
        <time>2019-02-24T11:36:47Z</time>
      </trkpt>
      <trkpt lat="46.4408890" lon="6.8908230">
        <ele>384.8</ele>
        <time>2019-02-24T11:36:48Z</time>
      </trkpt>
      <trkpt lat="46.4408660" lon="6.8908250">
        <ele>384.1</ele>
        <time>2019-02-24T11:36:49Z</time>
      </trkpt>
      <trkpt lat="46.4408390" lon="6.8908140">
        <ele>383.9</ele>
        <time>2019-02-24T11:36:50Z</time>
      </trkpt>
      <trkpt lat="46.4408080" lon="6.8907930">
        <ele>383.6</ele>
        <time>2019-02-24T11:36:51Z</time>
      </trkpt>
      <trkpt lat="46.4407570" lon="6.8907440">
        <ele>383.2</ele>
        <time>2019-02-24T11:36:52Z</time>
      </trkpt>
      <trkpt lat="46.4407380" lon="6.8907260">
        <ele>383.0</ele>
        <time>2019-02-24T11:36:53Z</time>
      </trkpt>
      <trkpt lat="46.4406990" lon="6.8906850">
        <ele>382.6</ele>
        <time>2019-02-24T11:36:54Z</time>
      </trkpt>
      <trkpt lat="46.4406580" lon="6.8906420">
        <ele>382.3</ele>
        <time>2019-02-24T11:36:55Z</time>
      </trkpt>
      <trkpt lat="46.4406150" lon="6.8905970">
        <ele>380.8</ele>
        <time>2019-02-24T11:36:56Z</time>
      </trkpt>
      <trkpt lat="46.4405710" lon="6.8905510">
        <ele>380.2</ele>
        <time>2019-02-24T11:36:57Z</time>
      </trkpt>
      <trkpt lat="46.4405240" lon="6.8905050">
        <ele>379.6</ele>
        <time>2019-02-24T11:36:58Z</time>
      </trkpt>
      <trkpt lat="46.4404770" lon="6.8904590">
        <ele>379.0</ele>
        <time>2019-02-24T11:36:59Z</time>
      </trkpt>
      <trkpt lat="46.4404280" lon="6.8904150">
        <ele>378.5</ele>
        <time>2019-02-24T11:37:00Z</time>
      </trkpt>
      <trkpt lat="46.4403780" lon="6.8903740">
        <ele>378.0</ele>
        <time>2019-02-24T11:37:01Z</time>
      </trkpt>
      <trkpt lat="46.4403280" lon="6.8903340">
        <ele>377.6</ele>
        <time>2019-02-24T11:37:02Z</time>
      </trkpt>
      <trkpt lat="46.4402780" lon="6.8902960">
        <ele>377.3</ele>
        <time>2019-02-24T11:37:03Z</time>
      </trkpt>
      <trkpt lat="46.4402270" lon="6.8902560">
        <ele>377.1</ele>
        <time>2019-02-24T11:37:04Z</time>
      </trkpt>
      <trkpt lat="46.4401780" lon="6.8902110">
        <ele>376.9</ele>
        <time>2019-02-24T11:37:05Z</time>
      </trkpt>
      <trkpt lat="46.4401300" lon="6.8901620">
        <ele>375.8</ele>
        <time>2019-02-24T11:37:06Z</time>
      </trkpt>
      <trkpt lat="46.4400830" lon="6.8901120">
        <ele>375.3</ele>
        <time>2019-02-24T11:37:07Z</time>
      </trkpt>
      <trkpt lat="46.4400360" lon="6.8900700">
        <ele>374.8</ele>
        <time>2019-02-24T11:37:08Z</time>
      </trkpt>
      <trkpt lat="46.4399890" lon="6.8900430">
        <ele>374.4</ele>
        <time>2019-02-24T11:37:09Z</time>
      </trkpt>
      <trkpt lat="46.4399420" lon="6.8900350">
        <ele>373.9</ele>
        <time>2019-02-24T11:37:10Z</time>
      </trkpt>
      <trkpt lat="46.4398980" lon="6.8900460">
        <ele>373.5</ele>
        <time>2019-02-24T11:37:11Z</time>
      </trkpt>
      <trkpt lat="46.4398570" lon="6.8900740">
        <ele>373.2</ele>
        <time>2019-02-24T11:37:12Z</time>
      </trkpt>
      <trkpt lat="46.4398220" lon="6.8901110">
        <ele>373.0</ele>
        <time>2019-02-24T11:37:13Z</time>
      </trkpt>
      <trkpt lat="46.4397930" lon="6.8901520">
        <ele>372.8</ele>
        <time>2019-02-24T11:37:14Z</time>
      </trkpt>
      <trkpt lat="46.4397700" lon="6.8901920">
        <ele>372.6</ele>
        <time>2019-02-24T11:37:15Z</time>
      </trkpt>
      <trkpt lat="46.4397520" lon="6.8902320">
        <ele>372.6</ele>
        <time>2019-02-24T11:37:16Z</time>
      </trkpt>
      <trkpt lat="46.4397360" lon="6.8902860">
        <ele>372.5</ele>
        <time>2019-02-24T11:37:17Z</time>
      </trkpt>
      <trkpt lat="46.4397320" lon="6.8903050">
        <ele>372.5</ele>
        <time>2019-02-24T11:37:18Z</time>
      </trkpt>
      <trkpt lat="46.4397280" lon="6.8903240">
        <ele>372.5</ele>
        <time>2019-02-24T11:37:19Z</time>
      </trkpt>
      <trkpt lat="46.4397250" lon="6.8903520">
        <ele>372.5</ele>
        <time>2019-02-24T11:37:20Z</time>
      </trkpt>
      <trkpt lat="46.4397220" lon="6.8903830">
        <ele>372.4</ele>
        <time>2019-02-24T11:37:21Z</time>
      </trkpt>
      <trkpt lat="46.4397180" lon="6.8904200">
        <ele>372.4</ele>
        <time>2019-02-24T11:37:22Z</time>
      </trkpt>
      <trkpt lat="46.4397130" lon="6.8904620">
        <ele>372.4</ele>
        <time>2019-02-24T11:37:23Z</time>
      </trkpt>
      <trkpt lat="46.4397070" lon="6.8905070">
        <ele>372.3</ele>
        <time>2019-02-24T11:37:24Z</time>
      </trkpt>
      <trkpt lat="46.4397000" lon="6.8905540">
        <ele>372.3</ele>
        <time>2019-02-24T11:37:25Z</time>
      </trkpt>
      <trkpt lat="46.4396920" lon="6.8906020">
        <ele>372.2</ele>
        <time>2019-02-24T11:37:26Z</time>
      </trkpt>
      <trkpt lat="46.4396840" lon="6.8906510">
        <ele>372.2</ele>
        <time>2019-02-24T11:37:27Z</time>
      </trkpt>
      <trkpt lat="46.4396750" lon="6.8906990">
        <ele>372.2</ele>
        <time>2019-02-24T11:37:28Z</time>
      </trkpt>
      <trkpt lat="46.4396660" lon="6.8907470">
        <ele>372.1</ele>
        <time>2019-02-24T11:37:29Z</time>
      </trkpt>
      <trkpt lat="46.4396570" lon="6.8907950">
        <ele>372.1</ele>
        <time>2019-02-24T11:37:30Z</time>
      </trkpt>
      <trkpt lat="46.4396480" lon="6.8908420">
        <ele>372.0</ele>
        <time>2019-02-24T11:37:31Z</time>
      </trkpt>
      <trkpt lat="46.4396390" lon="6.8908880">
        <ele>372.0</ele>
        <time>2019-02-24T11:37:32Z</time>
      </trkpt>
      <trkpt lat="46.4396300" lon="6.8909330">
        <ele>371.9</ele>
        <time>2019-02-24T11:37:33Z</time>
      </trkpt>
      <trkpt lat="46.4396220" lon="6.8909770">
        <ele>371.9</ele>
        <time>2019-02-24T11:37:34Z</time>
      </trkpt>
      <trkpt lat="46.4396140" lon="6.8910190">
        <ele>371.9</ele>
        <time>2019-02-24T11:37:35Z</time>
      </trkpt>
      <trkpt lat="46.4396070" lon="6.8910600">
        <ele>371.8</ele>
        <time>2019-02-24T11:37:36Z</time>
      </trkpt>
      <trkpt lat="46.4396000" lon="6.8911010">
        <ele>371.8</ele>
        <time>2019-02-24T11:37:37Z</time>
      </trkpt>
      <trkpt lat="46.4395930" lon="6.8911410">
        <ele>371.7</ele>
        <time>2019-02-24T11:37:38Z</time>
      </trkpt>
      <trkpt lat="46.4395870" lon="6.8911810">
        <ele>371.7</ele>
        <time>2019-02-24T11:37:39Z</time>
      </trkpt>
      <trkpt lat="46.4395800" lon="6.8912210">
        <ele>371.7</ele>
        <time>2019-02-24T11:37:40Z</time>
      </trkpt>
      <trkpt lat="46.4395740" lon="6.8912620">
        <ele>371.6</ele>
        <time>2019-02-24T11:37:41Z</time>
      </trkpt>
      <trkpt lat="46.4395680" lon="6.8913020">
        <ele>371.6</ele>
        <time>2019-02-24T11:37:42Z</time>
      </trkpt>
      <trkpt lat="46.4395620" lon="6.8913430">
        <ele>371.6</ele>
        <time>2019-02-24T11:37:43Z</time>
      </trkpt>
      <trkpt lat="46.4395550" lon="6.8913840">
        <ele>371.5</ele>
        <time>2019-02-24T11:37:44Z</time>
      </trkpt>
      <trkpt lat="46.4395480" lon="6.8914250">
        <ele>371.5</ele>
        <time>2019-02-24T11:37:45Z</time>
      </trkpt>
      <trkpt lat="46.4395400" lon="6.8914650">
        <ele>371.4</ele>
        <time>2019-02-24T11:37:46Z</time>
      </trkpt>
      <trkpt lat="46.4395320" lon="6.8915050">
        <ele>371.4</ele>
        <time>2019-02-24T11:37:47Z</time>
      </trkpt>
      <trkpt lat="46.4395220" lon="6.8915430">
        <ele>371.4</ele>
        <time>2019-02-24T11:37:48Z</time>
      </trkpt>
      <trkpt lat="46.4395110" lon="6.8915810">
        <ele>371.4</ele>
        <time>2019-02-24T11:37:49Z</time>
      </trkpt>
      <trkpt lat="46.4394990" lon="6.8916170">
        <ele>371.3</ele>
        <time>2019-02-24T11:37:50Z</time>
      </trkpt>
      <trkpt lat="46.4394870" lon="6.8916510">
        <ele>371.3</ele>
        <time>2019-02-24T11:37:51Z</time>
      </trkpt>
      <trkpt lat="46.4394770" lon="6.8916840">
        <ele>371.3</ele>
        <time>2019-02-24T11:37:52Z</time>
      </trkpt>
      <trkpt lat="46.4394700" lon="6.8917160">
        <ele>371.3</ele>
        <time>2019-02-24T11:37:53Z</time>
      </trkpt>
      <trkpt lat="46.4394660" lon="6.8917460">
        <ele>371.3</ele>
        <time>2019-02-24T11:37:54Z</time>
      </trkpt>
      <trkpt lat="46.4394660" lon="6.8917740">
        <ele>371.3</ele>
        <time>2019-02-24T11:37:55Z</time>
      </trkpt>
      <trkpt lat="46.4394660" lon="6.8918000">
        <ele>371.3</ele>
        <time>2019-02-24T11:37:56Z</time>
      </trkpt>
      <trkpt lat="46.4394650" lon="6.8918210">
        <ele>371.3</ele>
        <time>2019-02-24T11:37:57Z</time>
      </trkpt>
      <trkpt lat="46.4394610" lon="6.8918390">
        <ele>371.2</ele>
        <time>2019-02-24T11:37:58Z</time>
      </trkpt>
      <trkpt lat="46.4394560" lon="6.8918550">
        <ele>371.2</ele>
        <time>2019-02-24T11:37:59Z</time>
      </trkpt>
      <trkpt lat="46.4394490" lon="6.8918700">
        <ele>371.2</ele>
        <time>2019-02-24T11:38:00Z</time>
      </trkpt>
      <trkpt lat="46.4394430" lon="6.8918870">
        <ele>371.2</ele>
        <time>2019-02-24T11:38:01Z</time>
      </trkpt>
      <trkpt lat="46.4394370" lon="6.8919090">
        <ele>371.2</ele>
        <time>2019-02-24T11:38:02Z</time>
      </trkpt>
      <trkpt lat="46.4394320" lon="6.8919340">
        <ele>371.2</ele>
        <time>2019-02-24T11:38:03Z</time>
      </trkpt>
      <trkpt lat="46.4394260" lon="6.8919630">
        <ele>371.2</ele>
        <time>2019-02-24T11:38:04Z</time>
      </trkpt>
      <trkpt lat="46.4394190" lon="6.8919960">
        <ele>371.2</ele>
        <time>2019-02-24T11:38:05Z</time>
      </trkpt>
      <trkpt lat="46.4394110" lon="6.8920330">
        <ele>371.2</ele>
        <time>2019-02-24T11:38:06Z</time>
      </trkpt>
      <trkpt lat="46.4394010" lon="6.8920740">
        <ele>371.2</ele>
        <time>2019-02-24T11:38:07Z</time>
      </trkpt>
      <trkpt lat="46.4393910" lon="6.8921180">
        <ele>371.2</ele>
        <time>2019-02-24T11:38:08Z</time>
      </trkpt>
      <trkpt lat="46.4393790" lon="6.8921640">
        <ele>371.2</ele>
        <time>2019-02-24T11:38:09Z</time>
      </trkpt>
      <trkpt lat="46.4393600" lon="6.8922470">
        <ele>371.2</ele>
        <time>2019-02-24T11:38:10Z</time>
      </trkpt>
      <trkpt lat="46.4393530" lon="6.8922810">
        <ele>371.2</ele>
        <time>2019-02-24T11:38:11Z</time>
      </trkpt>
      <trkpt lat="46.4393450" lon="6.8923150">
        <ele>371.2</ele>
        <time>2019-02-24T11:38:12Z</time>
      </trkpt>
      <trkpt lat="46.4393340" lon="6.8923670">
        <ele>371.1</ele>
        <time>2019-02-24T11:38:13Z</time>
      </trkpt>
      <trkpt lat="46.4393240" lon="6.8924200">
        <ele>371.1</ele>
        <time>2019-02-24T11:38:14Z</time>
      </trkpt>
      <trkpt lat="46.4393120" lon="6.8925090">
        <ele>371.1</ele>
        <time>2019-02-24T11:38:15Z</time>
      </trkpt>
      <trkpt lat="46.4393070" lon="6.8925450">
        <ele>371.1</ele>
        <time>2019-02-24T11:38:16Z</time>
      </trkpt>
      <trkpt lat="46.4393030" lon="6.8925810">
        <ele>371.1</ele>
        <time>2019-02-24T11:38:17Z</time>
      </trkpt>
      <trkpt lat="46.4392990" lon="6.8926350">
        <ele>371.1</ele>
        <time>2019-02-24T11:38:18Z</time>
      </trkpt>
      <trkpt lat="46.4392980" lon="6.8926900">
        <ele>371.1</ele>
        <time>2019-02-24T11:38:19Z</time>
      </trkpt>
      <trkpt lat="46.4392980" lon="6.8927450">
        <ele>371.1</ele>
        <time>2019-02-24T11:38:20Z</time>
      </trkpt>
      <trkpt lat="46.4393020" lon="6.8928010">
        <ele>371.1</ele>
        <time>2019-02-24T11:38:21Z</time>
      </trkpt>
      <trkpt lat="46.4393070" lon="6.8928580">
        <ele>371.1</ele>
        <time>2019-02-24T11:38:22Z</time>
      </trkpt>
      <trkpt lat="46.4393160" lon="6.8929140">
        <ele>371.0</ele>
        <time>2019-02-24T11:38:23Z</time>
      </trkpt>
      <trkpt lat="46.4393260" lon="6.8929710">
        <ele>371.1</ele>
        <time>2019-02-24T11:38:24Z</time>
      </trkpt>
      <trkpt lat="46.4393370" lon="6.8930270">
        <ele>371.2</ele>
        <time>2019-02-24T11:38:25Z</time>
      </trkpt>
      <trkpt lat="46.4393490" lon="6.8930820">
        <ele>371.3</ele>
        <time>2019-02-24T11:38:26Z</time>
      </trkpt>
      <trkpt lat="46.4393610" lon="6.8931370">
        <ele>371.4</ele>
        <time>2019-02-24T11:38:27Z</time>
      </trkpt>
      <trkpt lat="46.4393730" lon="6.8931900">
        <ele>371.4</ele>
        <time>2019-02-24T11:38:28Z</time>
      </trkpt>
      <trkpt lat="46.4393840" lon="6.8932420">
        <ele>371.5</ele>
        <time>2019-02-24T11:38:29Z</time>
      </trkpt>
      <trkpt lat="46.4393950" lon="6.8932920">
        <ele>371.6</ele>
        <time>2019-02-24T11:38:30Z</time>
      </trkpt>
      <trkpt lat="46.4394040" lon="6.8933400">
        <ele>371.6</ele>
        <time>2019-02-24T11:38:31Z</time>
      </trkpt>
      <trkpt lat="46.4394130" lon="6.8933860">
        <ele>371.6</ele>
        <time>2019-02-24T11:38:32Z</time>
      </trkpt>
      <trkpt lat="46.4394220" lon="6.8934290">
        <ele>371.6</ele>
        <time>2019-02-24T11:38:33Z</time>
      </trkpt>
      <trkpt lat="46.4394320" lon="6.8934700">
        <ele>371.6</ele>
        <time>2019-02-24T11:38:34Z</time>
      </trkpt>
      <trkpt lat="46.4394420" lon="6.8935090">
        <ele>371.5</ele>
        <time>2019-02-24T11:38:35Z</time>
      </trkpt>
      <trkpt lat="46.4394530" lon="6.8935470">
        <ele>371.5</ele>
        <time>2019-02-24T11:38:36Z</time>
      </trkpt>
      <trkpt lat="46.4394630" lon="6.8935850">
        <ele>371.4</ele>
        <time>2019-02-24T11:38:37Z</time>
      </trkpt>
      <trkpt lat="46.4394740" lon="6.8936240">
        <ele>371.4</ele>
        <time>2019-02-24T11:38:38Z</time>
      </trkpt>
      <trkpt lat="46.4394840" lon="6.8936660">
        <ele>371.4</ele>
        <time>2019-02-24T11:38:39Z</time>
      </trkpt>
      <trkpt lat="46.4394930" lon="6.8937110">
        <ele>371.3</ele>
        <time>2019-02-24T11:38:40Z</time>
      </trkpt>
      <trkpt lat="46.4395020" lon="6.8937580">
        <ele>371.3</ele>
        <time>2019-02-24T11:38:41Z</time>
      </trkpt>
      <trkpt lat="46.4395120" lon="6.8938070">
        <ele>371.3</ele>
        <time>2019-02-24T11:38:42Z</time>
      </trkpt>
      <trkpt lat="46.4395210" lon="6.8938590">
        <ele>371.3</ele>
        <time>2019-02-24T11:38:43Z</time>
      </trkpt>
      <trkpt lat="46.4395300" lon="6.8939120">
        <ele>371.3</ele>
        <time>2019-02-24T11:38:44Z</time>
      </trkpt>
      <trkpt lat="46.4395450" lon="6.8939950">
        <ele>371.4</ele>
        <time>2019-02-24T11:38:45Z</time>
      </trkpt>
      <trkpt lat="46.4395500" lon="6.8940230">
        <ele>371.4</ele>
        <time>2019-02-24T11:38:46Z</time>
      </trkpt>
      <trkpt lat="46.4395610" lon="6.8940800">
        <ele>371.4</ele>
        <time>2019-02-24T11:38:47Z</time>
      </trkpt>
      <trkpt lat="46.4395720" lon="6.8941380">
        <ele>371.4</ele>
        <time>2019-02-24T11:38:48Z</time>
      </trkpt>
      <trkpt lat="46.4395840" lon="6.8941960">
        <ele>371.5</ele>
        <time>2019-02-24T11:38:49Z</time>
      </trkpt>
      <trkpt lat="46.4395960" lon="6.8942540">
        <ele>371.5</ele>
        <time>2019-02-24T11:38:50Z</time>
      </trkpt>
      <trkpt lat="46.4396080" lon="6.8943120">
        <ele>371.5</ele>
        <time>2019-02-24T11:38:51Z</time>
      </trkpt>
      <trkpt lat="46.4396210" lon="6.8943700">
        <ele>371.5</ele>
        <time>2019-02-24T11:38:52Z</time>
      </trkpt>
      <trkpt lat="46.4396330" lon="6.8944270">
        <ele>371.6</ele>
        <time>2019-02-24T11:38:53Z</time>
      </trkpt>
      <trkpt lat="46.4396450" lon="6.8944820">
        <ele>371.6</ele>
        <time>2019-02-24T11:38:54Z</time>
      </trkpt>
      <trkpt lat="46.4396560" lon="6.8945360">
        <ele>371.6</ele>
        <time>2019-02-24T11:38:55Z</time>
      </trkpt>
      <trkpt lat="46.4396670" lon="6.8945880">
        <ele>371.6</ele>
        <time>2019-02-24T11:38:56Z</time>
      </trkpt>
      <trkpt lat="46.4396780" lon="6.8946380">
        <ele>371.6</ele>
        <time>2019-02-24T11:38:57Z</time>
      </trkpt>
      <trkpt lat="46.4396880" lon="6.8946850">
        <ele>371.6</ele>
        <time>2019-02-24T11:38:58Z</time>
      </trkpt>
      <trkpt lat="46.4396970" lon="6.8947300">
        <ele>371.6</ele>
        <time>2019-02-24T11:38:59Z</time>
      </trkpt>
      <trkpt lat="46.4397050" lon="6.8947710">
        <ele>371.6</ele>
        <time>2019-02-24T11:39:00Z</time>
      </trkpt>
      <trkpt lat="46.4397120" lon="6.8948090">
        <ele>371.6</ele>
        <time>2019-02-24T11:39:01Z</time>
      </trkpt>
      <trkpt lat="46.4397180" lon="6.8948430">
        <ele>371.6</ele>
        <time>2019-02-24T11:39:02Z</time>
      </trkpt>
      <trkpt lat="46.4397220" lon="6.8948730">
        <ele>371.6</ele>
        <time>2019-02-24T11:39:03Z</time>
      </trkpt>
      <trkpt lat="46.4397260" lon="6.8949020">
        <ele>371.6</ele>
        <time>2019-02-24T11:39:04Z</time>
      </trkpt>
      <trkpt lat="46.4397280" lon="6.8949320">
        <ele>371.6</ele>
        <time>2019-02-24T11:39:05Z</time>
      </trkpt>
      <trkpt lat="46.4397290" lon="6.8949660">
        <ele>371.6</ele>
        <time>2019-02-24T11:39:06Z</time>
      </trkpt>
      <trkpt lat="46.4397290" lon="6.8950050">
        <ele>371.6</ele>
        <time>2019-02-24T11:39:07Z</time>
      </trkpt>
      <trkpt lat="46.4397300" lon="6.8950500">
        <ele>371.6</ele>
        <time>2019-02-24T11:39:08Z</time>
      </trkpt>
      <trkpt lat="46.4397300" lon="6.8950970">
        <ele>371.6</ele>
        <time>2019-02-24T11:39:09Z</time>
      </trkpt>
      <trkpt lat="46.4397300" lon="6.8951460">
        <ele>371.7</ele>
        <time>2019-02-24T11:39:10Z</time>
      </trkpt>
      <trkpt lat="46.4397320" lon="6.8951950">
        <ele>371.7</ele>
        <time>2019-02-24T11:39:11Z</time>
      </trkpt>
      <trkpt lat="46.4397350" lon="6.8952440">
        <ele>371.8</ele>
        <time>2019-02-24T11:39:12Z</time>
      </trkpt>
      <trkpt lat="46.4397380" lon="6.8952930">
        <ele>371.9</ele>
        <time>2019-02-24T11:39:13Z</time>
      </trkpt>
      <trkpt lat="46.4397420" lon="6.8953420">
        <ele>372.0</ele>
        <time>2019-02-24T11:39:14Z</time>
      </trkpt>
      <trkpt lat="46.4397470" lon="6.8953920">
        <ele>372.1</ele>
        <time>2019-02-24T11:39:15Z</time>
      </trkpt>
      <trkpt lat="46.4397520" lon="6.8954430">
        <ele>372.2</ele>
        <time>2019-02-24T11:39:16Z</time>
      </trkpt>
      <trkpt lat="46.4397570" lon="6.8954950">
        <ele>372.4</ele>
        <time>2019-02-24T11:39:17Z</time>
      </trkpt>
      <trkpt lat="46.4397630" lon="6.8955480">
        <ele>372.2</ele>
        <time>2019-02-24T11:39:18Z</time>
      </trkpt>
      <trkpt lat="46.4397690" lon="6.8956020">
        <ele>372.0</ele>
        <time>2019-02-24T11:39:19Z</time>
      </trkpt>
      <trkpt lat="46.4397750" lon="6.8956580">
        <ele>371.9</ele>
        <time>2019-02-24T11:39:20Z</time>
      </trkpt>
      <trkpt lat="46.4397800" lon="6.8957140">
        <ele>371.7</ele>
        <time>2019-02-24T11:39:21Z</time>
      </trkpt>
      <trkpt lat="46.4397860" lon="6.8957710">
        <ele>371.5</ele>
        <time>2019-02-24T11:39:22Z</time>
      </trkpt>
      <trkpt lat="46.4397920" lon="6.8958280">
        <ele>371.4</ele>
        <time>2019-02-24T11:39:23Z</time>
      </trkpt>
      <trkpt lat="46.4397980" lon="6.8958850">
        <ele>371.2</ele>
        <time>2019-02-24T11:39:24Z</time>
      </trkpt>
      <trkpt lat="46.4398040" lon="6.8959410">
        <ele>371.0</ele>
        <time>2019-02-24T11:39:25Z</time>
      </trkpt>
      <trkpt lat="46.4398100" lon="6.8959960">
        <ele>370.9</ele>
        <time>2019-02-24T11:39:26Z</time>
      </trkpt>
      <trkpt lat="46.4398160" lon="6.8960500">
        <ele>370.8</ele>
        <time>2019-02-24T11:39:27Z</time>
      </trkpt>
      <trkpt lat="46.4398230" lon="6.8961020">
        <ele>371.0</ele>
        <time>2019-02-24T11:39:28Z</time>
      </trkpt>
      <trkpt lat="46.4398300" lon="6.8961540">
        <ele>371.1</ele>
        <time>2019-02-24T11:39:29Z</time>
      </trkpt>
      <trkpt lat="46.4398380" lon="6.8962040">
        <ele>371.3</ele>
        <time>2019-02-24T11:39:30Z</time>
      </trkpt>
      <trkpt lat="46.4398460" lon="6.8962540">
        <ele>371.4</ele>
        <time>2019-02-24T11:39:31Z</time>
      </trkpt>
      <trkpt lat="46.4398560" lon="6.8963020">
        <ele>371.5</ele>
        <time>2019-02-24T11:39:32Z</time>
      </trkpt>
      <trkpt lat="46.4398660" lon="6.8963490">
        <ele>371.7</ele>
        <time>2019-02-24T11:39:33Z</time>
      </trkpt>
      <trkpt lat="46.4398750" lon="6.8963930">
        <ele>371.8</ele>
        <time>2019-02-24T11:39:34Z</time>
      </trkpt>
      <trkpt lat="46.4398830" lon="6.8964350">
        <ele>372.0</ele>
        <time>2019-02-24T11:39:35Z</time>
      </trkpt>
      <trkpt lat="46.4398900" lon="6.8964740">
        <ele>372.1</ele>
        <time>2019-02-24T11:39:36Z</time>
      </trkpt>
      <trkpt lat="46.4398960" lon="6.8965100">
        <ele>372.2</ele>
        <time>2019-02-24T11:39:37Z</time>
      </trkpt>
      <trkpt lat="46.4399020" lon="6.8965440">
        <ele>372.3</ele>
        <time>2019-02-24T11:39:38Z</time>
      </trkpt>
      <trkpt lat="46.4399070" lon="6.8965750">
        <ele>372.4</ele>
        <time>2019-02-24T11:39:39Z</time>
      </trkpt>
      <trkpt lat="46.4399110" lon="6.8966050">
        <ele>372.5</ele>
        <time>2019-02-24T11:39:40Z</time>
      </trkpt>
      <trkpt lat="46.4399160" lon="6.8966320">
        <ele>372.7</ele>
        <time>2019-02-24T11:39:41Z</time>
      </trkpt>
      <trkpt lat="46.4399230" lon="6.8966740">
        <ele>372.9</ele>
        <time>2019-02-24T11:39:42Z</time>
      </trkpt>
      <trkpt lat="46.4399260" lon="6.8966910">
        <ele>372.9</ele>
        <time>2019-02-24T11:39:43Z</time>
      </trkpt>
      <trkpt lat="46.4399290" lon="6.8967090">
        <ele>373.0</ele>
        <time>2019-02-24T11:39:44Z</time>
      </trkpt>
      <trkpt lat="46.4399320" lon="6.8967260">
        <ele>373.1</ele>
        <time>2019-02-24T11:39:45Z</time>
      </trkpt>
      <trkpt lat="46.4399360" lon="6.8967490">
        <ele>373.1</ele>
        <time>2019-02-24T11:39:46Z</time>
      </trkpt>
      <trkpt lat="46.4399410" lon="6.8967740">
        <ele>373.2</ele>
        <time>2019-02-24T11:39:47Z</time>
      </trkpt>
      <trkpt lat="46.4399470" lon="6.8968000">
        <ele>373.3</ele>
        <time>2019-02-24T11:39:48Z</time>
      </trkpt>
      <trkpt lat="46.4399530" lon="6.8968290">
        <ele>373.4</ele>
        <time>2019-02-24T11:39:49Z</time>
      </trkpt>
      <trkpt lat="46.4399600" lon="6.8968620">
        <ele>373.5</ele>
        <time>2019-02-24T11:39:50Z</time>
      </trkpt>
      <trkpt lat="46.4399690" lon="6.8968990">
        <ele>373.6</ele>
        <time>2019-02-24T11:39:51Z</time>
      </trkpt>
      <trkpt lat="46.4399780" lon="6.8969400">
        <ele>373.8</ele>
        <time>2019-02-24T11:39:52Z</time>
      </trkpt>
      <trkpt lat="46.4399880" lon="6.8969850">
        <ele>374.0</ele>
        <time>2019-02-24T11:39:53Z</time>
      </trkpt>
      <trkpt lat="46.4399990" lon="6.8970330">
        <ele>374.3</ele>
        <time>2019-02-24T11:39:54Z</time>
      </trkpt>
      <trkpt lat="46.4400180" lon="6.8971200">
        <ele>374.1</ele>
        <time>2019-02-24T11:39:55Z</time>
      </trkpt>
      <trkpt lat="46.4400260" lon="6.8971560">
        <ele>374.0</ele>
        <time>2019-02-24T11:39:56Z</time>
      </trkpt>
      <trkpt lat="46.4400340" lon="6.8971920">
        <ele>373.9</ele>
        <time>2019-02-24T11:39:57Z</time>
      </trkpt>
      <trkpt lat="46.4400460" lon="6.8972490">
        <ele>373.8</ele>
        <time>2019-02-24T11:39:58Z</time>
      </trkpt>
      <trkpt lat="46.4400580" lon="6.8973080">
        <ele>373.6</ele>
        <time>2019-02-24T11:39:59Z</time>
      </trkpt>
      <trkpt lat="46.4400770" lon="6.8973970">
        <ele>373.5</ele>
        <time>2019-02-24T11:40:00Z</time>
      </trkpt>
      <trkpt lat="46.4400830" lon="6.8974270">
        <ele>373.4</ele>
        <time>2019-02-24T11:40:01Z</time>
      </trkpt>
      <trkpt lat="46.4400940" lon="6.8974880">
        <ele>373.3</ele>
        <time>2019-02-24T11:40:02Z</time>
      </trkpt>
      <trkpt lat="46.4401060" lon="6.8975480">
        <ele>373.2</ele>
        <time>2019-02-24T11:40:03Z</time>
      </trkpt>
      <trkpt lat="46.4401160" lon="6.8976080">
        <ele>373.1</ele>
        <time>2019-02-24T11:40:04Z</time>
      </trkpt>
      <trkpt lat="46.4401260" lon="6.8976660">
        <ele>372.9</ele>
        <time>2019-02-24T11:40:05Z</time>
      </trkpt>
      <trkpt lat="46.4401360" lon="6.8977240">
        <ele>372.8</ele>
        <time>2019-02-24T11:40:06Z</time>
      </trkpt>
      <trkpt lat="46.4401440" lon="6.8977800">
        <ele>372.6</ele>
        <time>2019-02-24T11:40:07Z</time>
      </trkpt>
      <trkpt lat="46.4401520" lon="6.8978360">
        <ele>372.5</ele>
        <time>2019-02-24T11:40:08Z</time>
      </trkpt>
      <trkpt lat="46.4401590" lon="6.8978940">
        <ele>372.3</ele>
        <time>2019-02-24T11:40:09Z</time>
      </trkpt>
      <trkpt lat="46.4401660" lon="6.8979550">
        <ele>372.1</ele>
        <time>2019-02-24T11:40:10Z</time>
      </trkpt>
      <trkpt lat="46.4401750" lon="6.8980170">
        <ele>371.9</ele>
        <time>2019-02-24T11:40:11Z</time>
      </trkpt>
      <trkpt lat="46.4401900" lon="6.8980670">
        <ele>371.7</ele>
        <time>2019-02-24T11:40:12Z</time>
      </trkpt>
      <trkpt lat="46.4402170" lon="6.8980930">
        <ele>371.5</ele>
        <time>2019-02-24T11:40:13Z</time>
      </trkpt>
      <trkpt lat="46.4402470" lon="6.8981060">
        <ele>371.2</ele>
        <time>2019-02-24T11:40:14Z</time>
      </trkpt>
      <trkpt lat="46.4402740" lon="6.8981220">
        <ele>371.3</ele>
        <time>2019-02-24T11:40:15Z</time>
      </trkpt>
      <trkpt lat="46.4402940" lon="6.8981460">
        <ele>371.3</ele>
        <time>2019-02-24T11:40:16Z</time>
      </trkpt>
      <trkpt lat="46.4403050" lon="6.8981790">
        <ele>371.4</ele>
        <time>2019-02-24T11:40:17Z</time>
      </trkpt>
      <trkpt lat="46.4403110" lon="6.8982190">
        <ele>371.5</ele>
        <time>2019-02-24T11:40:18Z</time>
      </trkpt>
      <trkpt lat="46.4403180" lon="6.8982610">
        <ele>371.6</ele>
        <time>2019-02-24T11:40:19Z</time>
      </trkpt>
      <trkpt lat="46.4403280" lon="6.8983060">
        <ele>371.6</ele>
        <time>2019-02-24T11:40:20Z</time>
      </trkpt>
      <trkpt lat="46.4403390" lon="6.8983530">
        <ele>371.7</ele>
        <time>2019-02-24T11:40:21Z</time>
      </trkpt>
      <trkpt lat="46.4403510" lon="6.8984020">
        <ele>371.7</ele>
        <time>2019-02-24T11:40:22Z</time>
      </trkpt>
      <trkpt lat="46.4403640" lon="6.8984530">
        <ele>371.7</ele>
        <time>2019-02-24T11:40:23Z</time>
      </trkpt>
      <trkpt lat="46.4403790" lon="6.8985050">
        <ele>371.8</ele>
        <time>2019-02-24T11:40:24Z</time>
      </trkpt>
      <trkpt lat="46.4404030" lon="6.8985920">
        <ele>371.8</ele>
        <time>2019-02-24T11:40:25Z</time>
      </trkpt>
      <trkpt lat="46.4404130" lon="6.8986270">
        <ele>371.8</ele>
        <time>2019-02-24T11:40:26Z</time>
      </trkpt>
      <trkpt lat="46.4404230" lon="6.8986620">
        <ele>371.8</ele>
        <time>2019-02-24T11:40:27Z</time>
      </trkpt>
      <trkpt lat="46.4404370" lon="6.8987130">
        <ele>371.9</ele>
        <time>2019-02-24T11:40:28Z</time>
      </trkpt>
      <trkpt lat="46.4404510" lon="6.8987630">
        <ele>371.9</ele>
        <time>2019-02-24T11:40:29Z</time>
      </trkpt>
      <trkpt lat="46.4404630" lon="6.8988100">
        <ele>371.9</ele>
        <time>2019-02-24T11:40:30Z</time>
      </trkpt>
      <trkpt lat="46.4404730" lon="6.8988550">
        <ele>371.9</ele>
        <time>2019-02-24T11:40:31Z</time>
      </trkpt>
      <trkpt lat="46.4404850" lon="6.8989030">
        <ele>371.9</ele>
        <time>2019-02-24T11:40:32Z</time>
      </trkpt>
      <trkpt lat="46.4404980" lon="6.8989560">
        <ele>371.9</ele>
        <time>2019-02-24T11:40:33Z</time>
      </trkpt>
      <trkpt lat="46.4405110" lon="6.8990060">
        <ele>371.9</ele>
        <time>2019-02-24T11:40:34Z</time>
      </trkpt>
      <trkpt lat="46.4405200" lon="6.8990450">
        <ele>371.9</ele>
        <time>2019-02-24T11:40:35Z</time>
      </trkpt>
      <trkpt lat="46.4405260" lon="6.8990740">
        <ele>371.9</ele>
        <time>2019-02-24T11:40:36Z</time>
      </trkpt>
      <trkpt lat="46.4405330" lon="6.8991130">
        <ele>371.9</ele>
        <time>2019-02-24T11:40:37Z</time>
      </trkpt>
      <trkpt lat="46.4405370" lon="6.8991310">
        <ele>371.9</ele>
        <time>2019-02-24T11:40:38Z</time>
      </trkpt>
      <trkpt lat="46.4405400" lon="6.8991500">
        <ele>371.9</ele>
        <time>2019-02-24T11:40:39Z</time>
      </trkpt>
      <trkpt lat="46.4405430" lon="6.8991680">
        <ele>371.9</ele>
        <time>2019-02-24T11:40:40Z</time>
      </trkpt>
      <trkpt lat="46.4405480" lon="6.8992010">
        <ele>371.9</ele>
        <time>2019-02-24T11:40:41Z</time>
      </trkpt>
      <trkpt lat="46.4405540" lon="6.8992390">
        <ele>371.9</ele>
        <time>2019-02-24T11:40:42Z</time>
      </trkpt>
      <trkpt lat="46.4405610" lon="6.8992790">
        <ele>371.9</ele>
        <time>2019-02-24T11:40:43Z</time>
      </trkpt>
      <trkpt lat="46.4405680" lon="6.8993220">
        <ele>371.9</ele>
        <time>2019-02-24T11:40:44Z</time>
      </trkpt>
      <trkpt lat="46.4405750" lon="6.8993670">
        <ele>371.9</ele>
        <time>2019-02-24T11:40:45Z</time>
      </trkpt>
      <trkpt lat="46.4405820" lon="6.8994120">
        <ele>372.0</ele>
        <time>2019-02-24T11:40:46Z</time>
      </trkpt>
      <trkpt lat="46.4405880" lon="6.8994590">
        <ele>372.0</ele>
        <time>2019-02-24T11:40:47Z</time>
      </trkpt>
      <trkpt lat="46.4405950" lon="6.8995050">
        <ele>372.1</ele>
        <time>2019-02-24T11:40:48Z</time>
      </trkpt>
      <trkpt lat="46.4406010" lon="6.8995500">
        <ele>372.1</ele>
        <time>2019-02-24T11:40:49Z</time>
      </trkpt>
      <trkpt lat="46.4406060" lon="6.8995960">
        <ele>372.1</ele>
        <time>2019-02-24T11:40:50Z</time>
      </trkpt>
      <trkpt lat="46.4406120" lon="6.8996400">
        <ele>372.2</ele>
        <time>2019-02-24T11:40:51Z</time>
      </trkpt>
      <trkpt lat="46.4406170" lon="6.8996850">
        <ele>372.2</ele>
        <time>2019-02-24T11:40:52Z</time>
      </trkpt>
      <trkpt lat="46.4406220" lon="6.8997280">
        <ele>372.3</ele>
        <time>2019-02-24T11:40:53Z</time>
      </trkpt>
      <trkpt lat="46.4406260" lon="6.8997710">
        <ele>372.3</ele>
        <time>2019-02-24T11:40:54Z</time>
      </trkpt>
      <trkpt lat="46.4406300" lon="6.8998140">
        <ele>372.4</ele>
        <time>2019-02-24T11:40:55Z</time>
      </trkpt>
      <trkpt lat="46.4406330" lon="6.8998550">
        <ele>372.4</ele>
        <time>2019-02-24T11:40:56Z</time>
      </trkpt>
      <trkpt lat="46.4406360" lon="6.8998950">
        <ele>372.5</ele>
        <time>2019-02-24T11:40:57Z</time>
      </trkpt>
      <trkpt lat="46.4406390" lon="6.8999340">
        <ele>372.5</ele>
        <time>2019-02-24T11:40:58Z</time>
      </trkpt>
      <trkpt lat="46.4406420" lon="6.8999700">
        <ele>372.6</ele>
        <time>2019-02-24T11:40:59Z</time>
      </trkpt>
      <trkpt lat="46.4406450" lon="6.9000050">
        <ele>372.6</ele>
        <time>2019-02-24T11:41:00Z</time>
      </trkpt>
      <trkpt lat="46.4406470" lon="6.9000380">
        <ele>372.7</ele>
        <time>2019-02-24T11:41:01Z</time>
      </trkpt>
      <trkpt lat="46.4406500" lon="6.9000680">
        <ele>372.7</ele>
        <time>2019-02-24T11:41:02Z</time>
      </trkpt>
      <trkpt lat="46.4406530" lon="6.9000950">
        <ele>372.7</ele>
        <time>2019-02-24T11:41:03Z</time>
      </trkpt>
      <trkpt lat="46.4406560" lon="6.9001190">
        <ele>372.8</ele>
        <time>2019-02-24T11:41:04Z</time>
      </trkpt>
      <trkpt lat="46.4406590" lon="6.9001410">
        <ele>372.8</ele>
        <time>2019-02-24T11:41:05Z</time>
      </trkpt>
      <trkpt lat="46.4406620" lon="6.9001600">
        <ele>372.8</ele>
        <time>2019-02-24T11:41:06Z</time>
      </trkpt>
      <trkpt lat="46.4406650" lon="6.9001770">
        <ele>372.8</ele>
        <time>2019-02-24T11:41:07Z</time>
      </trkpt>
      <trkpt lat="46.4406680" lon="6.9001930">
        <ele>372.9</ele>
        <time>2019-02-24T11:41:08Z</time>
      </trkpt>
      <trkpt lat="46.4406710" lon="6.9002080">
        <ele>372.9</ele>
        <time>2019-02-24T11:41:09Z</time>
      </trkpt>
      <trkpt lat="46.4406730" lon="6.9002220">
        <ele>372.9</ele>
        <time>2019-02-24T11:41:10Z</time>
      </trkpt>
      <trkpt lat="46.4406750" lon="6.9002370">
        <ele>372.9</ele>
        <time>2019-02-24T11:41:11Z</time>
      </trkpt>
      <trkpt lat="46.4406760" lon="6.9002510">
        <ele>372.9</ele>
        <time>2019-02-24T11:41:12Z</time>
      </trkpt>
      <trkpt lat="46.4406770" lon="6.9002660">
        <ele>373.0</ele>
        <time>2019-02-24T11:41:13Z</time>
      </trkpt>
      <trkpt lat="46.4406780" lon="6.9002800">
        <ele>373.0</ele>
        <time>2019-02-24T11:41:14Z</time>
      </trkpt>
      <trkpt lat="46.4406780" lon="6.9002920">
        <ele>373.0</ele>
        <time>2019-02-24T11:41:15Z</time>
      </trkpt>
      <trkpt lat="46.4406780" lon="6.9003040">
        <ele>373.0</ele>
        <time>2019-02-24T11:41:16Z</time>
      </trkpt>
      <trkpt lat="46.4406780" lon="6.9003120">
        <ele>373.0</ele>
        <time>2019-02-24T11:41:17Z</time>
      </trkpt>
      <trkpt lat="46.4406780" lon="6.9003190">
        <ele>373.0</ele>
        <time>2019-02-24T11:41:18Z</time>
      </trkpt>
      <trkpt lat="46.4406780" lon="6.9003210">
        <ele>373.0</ele>
        <time>2019-02-24T11:41:19Z</time>
      </trkpt>
      <trkpt lat="46.4406780" lon="6.9003210">
        <ele>373.0</ele>
        <time>2019-02-24T11:41:20Z</time>
      </trkpt>
      <trkpt lat="46.4406780" lon="6.9003230">
        <ele>373.0</ele>
        <time>2019-02-24T11:41:21Z</time>
      </trkpt>
      <trkpt lat="46.4406770" lon="6.9003360">
        <ele>373.0</ele>
        <time>2019-02-24T11:41:22Z</time>
      </trkpt>
      <trkpt lat="46.4406780" lon="6.9003750">
        <ele>373.1</ele>
        <time>2019-02-24T11:41:23Z</time>
      </trkpt>
      <trkpt lat="46.4406800" lon="6.9004080">
        <ele>373.1</ele>
        <time>2019-02-24T11:41:24Z</time>
      </trkpt>
      <trkpt lat="46.4406810" lon="6.9004360">
        <ele>373.1</ele>
        <time>2019-02-24T11:41:25Z</time>
      </trkpt>
      <trkpt lat="46.4406790" lon="6.9004700">
        <ele>373.2</ele>
        <time>2019-02-24T11:41:26Z</time>
      </trkpt>
      <trkpt lat="46.4406750" lon="6.9005050">
        <ele>373.2</ele>
        <time>2019-02-24T11:41:27Z</time>
      </trkpt>
      <trkpt lat="46.4406700" lon="6.9005350">
        <ele>373.3</ele>
        <time>2019-02-24T11:41:28Z</time>
      </trkpt>
      <trkpt lat="46.4406640" lon="6.9005590">
        <ele>373.3</ele>
        <time>2019-02-24T11:41:29Z</time>
      </trkpt>
      <trkpt lat="46.4406580" lon="6.9005800">
        <ele>373.3</ele>
        <time>2019-02-24T11:41:30Z</time>
      </trkpt>
      <trkpt lat="46.4406530" lon="6.9006020">
        <ele>373.4</ele>
        <time>2019-02-24T11:41:31Z</time>
      </trkpt>
      <trkpt lat="46.4406490" lon="6.9006260">
        <ele>373.4</ele>
        <time>2019-02-24T11:41:32Z</time>
      </trkpt>
      <trkpt lat="46.4406470" lon="6.9006530">
        <ele>373.5</ele>
        <time>2019-02-24T11:41:33Z</time>
      </trkpt>
      <trkpt lat="46.4406420" lon="6.9006840">
        <ele>373.5</ele>
        <time>2019-02-24T11:41:34Z</time>
      </trkpt>
      <trkpt lat="46.4406360" lon="6.9007200">
        <ele>373.6</ele>
        <time>2019-02-24T11:41:35Z</time>
      </trkpt>
      <trkpt lat="46.4406250" lon="6.9007620">
        <ele>373.6</ele>
        <time>2019-02-24T11:41:36Z</time>
      </trkpt>
      <trkpt lat="46.4406120" lon="6.9008090">
        <ele>373.8</ele>
        <time>2019-02-24T11:41:37Z</time>
      </trkpt>
      <trkpt lat="46.4405980" lon="6.9008590">
        <ele>373.6</ele>
        <time>2019-02-24T11:41:38Z</time>
      </trkpt>
      <trkpt lat="46.4405840" lon="6.9009130">
        <ele>373.3</ele>
        <time>2019-02-24T11:41:39Z</time>
      </trkpt>
      <trkpt lat="46.4405730" lon="6.9009690">
        <ele>373.0</ele>
        <time>2019-02-24T11:41:40Z</time>
      </trkpt>
      <trkpt lat="46.4405630" lon="6.9010280">
        <ele>372.8</ele>
        <time>2019-02-24T11:41:41Z</time>
      </trkpt>
      <trkpt lat="46.4405480" lon="6.9011170">
        <ele>372.5</ele>
        <time>2019-02-24T11:41:42Z</time>
      </trkpt>
      <trkpt lat="46.4405430" lon="6.9011470">
        <ele>372.5</ele>
        <time>2019-02-24T11:41:43Z</time>
      </trkpt>
      <trkpt lat="46.4405320" lon="6.9012070">
        <ele>372.3</ele>
        <time>2019-02-24T11:41:44Z</time>
      </trkpt>
      <trkpt lat="46.4405200" lon="6.9012670">
        <ele>372.2</ele>
        <time>2019-02-24T11:41:45Z</time>
      </trkpt>
      <trkpt lat="46.4405070" lon="6.9013270">
        <ele>372.1</ele>
        <time>2019-02-24T11:41:46Z</time>
      </trkpt>
      <trkpt lat="46.4404930" lon="6.9013850">
        <ele>372.0</ele>
        <time>2019-02-24T11:41:47Z</time>
      </trkpt>
      <trkpt lat="46.4404790" lon="6.9014420">
        <ele>371.9</ele>
        <time>2019-02-24T11:41:48Z</time>
      </trkpt>
      <trkpt lat="46.4404660" lon="6.9014960">
        <ele>371.8</ele>
        <time>2019-02-24T11:41:49Z</time>
      </trkpt>
      <trkpt lat="46.4404540" lon="6.9015480">
        <ele>371.8</ele>
        <time>2019-02-24T11:41:50Z</time>
      </trkpt>
      <trkpt lat="46.4404440" lon="6.9015970">
        <ele>371.8</ele>
        <time>2019-02-24T11:41:51Z</time>
      </trkpt>
      <trkpt lat="46.4404360" lon="6.9016410">
        <ele>371.8</ele>
        <time>2019-02-24T11:41:52Z</time>
      </trkpt>
      <trkpt lat="46.4404300" lon="6.9016830">
        <ele>371.8</ele>
        <time>2019-02-24T11:41:53Z</time>
      </trkpt>
      <trkpt lat="46.4404220" lon="6.9017210">
        <ele>371.8</ele>
        <time>2019-02-24T11:41:54Z</time>
      </trkpt>
      <trkpt lat="46.4404110" lon="6.9017570">
        <ele>371.9</ele>
        <time>2019-02-24T11:41:55Z</time>
      </trkpt>
      <trkpt lat="46.4403950" lon="6.9017920">
        <ele>371.9</ele>
        <time>2019-02-24T11:41:56Z</time>
      </trkpt>
      <trkpt lat="46.4403760" lon="6.9018260">
        <ele>371.9</ele>
        <time>2019-02-24T11:41:57Z</time>
      </trkpt>
      <trkpt lat="46.4403550" lon="6.9018600">
        <ele>371.9</ele>
        <time>2019-02-24T11:41:58Z</time>
      </trkpt>
      <trkpt lat="46.4403340" lon="6.9018970">
        <ele>371.9</ele>
        <time>2019-02-24T11:41:59Z</time>
      </trkpt>
      <trkpt lat="46.4403130" lon="6.9019370">
        <ele>371.9</ele>
        <time>2019-02-24T11:42:00Z</time>
      </trkpt>
      <trkpt lat="46.4402940" lon="6.9019800">
        <ele>371.9</ele>
        <time>2019-02-24T11:42:01Z</time>
      </trkpt>
      <trkpt lat="46.4402660" lon="6.9020490">
        <ele>372.0</ele>
        <time>2019-02-24T11:42:02Z</time>
      </trkpt>
      <trkpt lat="46.4402560" lon="6.9020720">
        <ele>372.0</ele>
        <time>2019-02-24T11:42:03Z</time>
      </trkpt>
      <trkpt lat="46.4402360" lon="6.9021190">
        <ele>372.0</ele>
        <time>2019-02-24T11:42:04Z</time>
      </trkpt>
      <trkpt lat="46.4402160" lon="6.9021660">
        <ele>372.0</ele>
        <time>2019-02-24T11:42:05Z</time>
      </trkpt>
      <trkpt lat="46.4401950" lon="6.9022130">
        <ele>372.0</ele>
        <time>2019-02-24T11:42:06Z</time>
      </trkpt>
      <trkpt lat="46.4401720" lon="6.9022580">
        <ele>372.1</ele>
        <time>2019-02-24T11:42:07Z</time>
      </trkpt>
      <trkpt lat="46.4401470" lon="6.9023020">
        <ele>372.1</ele>
        <time>2019-02-24T11:42:08Z</time>
      </trkpt>
      <trkpt lat="46.4401200" lon="6.9023440">
        <ele>372.1</ele>
        <time>2019-02-24T11:42:09Z</time>
      </trkpt>
      <trkpt lat="46.4400920" lon="6.9023840">
        <ele>372.1</ele>
        <time>2019-02-24T11:42:10Z</time>
      </trkpt>
      <trkpt lat="46.4400630" lon="6.9024230">
        <ele>372.1</ele>
        <time>2019-02-24T11:42:11Z</time>
      </trkpt>
      <trkpt lat="46.4400330" lon="6.9024620">
        <ele>372.2</ele>
        <time>2019-02-24T11:42:12Z</time>
      </trkpt>
      <trkpt lat="46.4400030" lon="6.9025000">
        <ele>372.2</ele>
        <time>2019-02-24T11:42:13Z</time>
      </trkpt>
      <trkpt lat="46.4399730" lon="6.9025380">
        <ele>372.2</ele>
        <time>2019-02-24T11:42:14Z</time>
      </trkpt>
      <trkpt lat="46.4399430" lon="6.9025760">
        <ele>372.2</ele>
        <time>2019-02-24T11:42:15Z</time>
      </trkpt>
      <trkpt lat="46.4399130" lon="6.9026140">
        <ele>372.3</ele>
        <time>2019-02-24T11:42:16Z</time>
      </trkpt>
      <trkpt lat="46.4398840" lon="6.9026530">
        <ele>372.3</ele>
        <time>2019-02-24T11:42:17Z</time>
      </trkpt>
      <trkpt lat="46.4398550" lon="6.9026930">
        <ele>372.3</ele>
        <time>2019-02-24T11:42:18Z</time>
      </trkpt>
      <trkpt lat="46.4398260" lon="6.9027330">
        <ele>372.3</ele>
        <time>2019-02-24T11:42:19Z</time>
      </trkpt>
      <trkpt lat="46.4397970" lon="6.9027740">
        <ele>372.4</ele>
        <time>2019-02-24T11:42:20Z</time>
      </trkpt>
      <trkpt lat="46.4397680" lon="6.9028160">
        <ele>372.4</ele>
        <time>2019-02-24T11:42:21Z</time>
      </trkpt>
      <trkpt lat="46.4397380" lon="6.9028580">
        <ele>372.4</ele>
        <time>2019-02-24T11:42:22Z</time>
      </trkpt>
      <trkpt lat="46.4397080" lon="6.9029010">
        <ele>372.5</ele>
        <time>2019-02-24T11:42:23Z</time>
      </trkpt>
      <trkpt lat="46.4396780" lon="6.9029450">
        <ele>372.5</ele>
        <time>2019-02-24T11:42:24Z</time>
      </trkpt>
      <trkpt lat="46.4396470" lon="6.9029910">
        <ele>372.5</ele>
        <time>2019-02-24T11:42:25Z</time>
      </trkpt>
      <trkpt lat="46.4396180" lon="6.9030370">
        <ele>372.6</ele>
        <time>2019-02-24T11:42:26Z</time>
      </trkpt>
      <trkpt lat="46.4395900" lon="6.9030850">
        <ele>372.6</ele>
        <time>2019-02-24T11:42:27Z</time>
      </trkpt>
      <trkpt lat="46.4395630" lon="6.9031340">
        <ele>372.6</ele>
        <time>2019-02-24T11:42:28Z</time>
      </trkpt>
      <trkpt lat="46.4395380" lon="6.9031830">
        <ele>372.7</ele>
        <time>2019-02-24T11:42:29Z</time>
      </trkpt>
      <trkpt lat="46.4395120" lon="6.9032330">
        <ele>372.7</ele>
        <time>2019-02-24T11:42:30Z</time>
      </trkpt>
      <trkpt lat="46.4394840" lon="6.9032820">
        <ele>372.8</ele>
        <time>2019-02-24T11:42:31Z</time>
      </trkpt>
      <trkpt lat="46.4394530" lon="6.9033300">
        <ele>372.8</ele>
        <time>2019-02-24T11:42:32Z</time>
      </trkpt>
      <trkpt lat="46.4394200" lon="6.9033770">
        <ele>372.9</ele>
        <time>2019-02-24T11:42:33Z</time>
      </trkpt>
      <trkpt lat="46.4393870" lon="6.9034250">
        <ele>372.9</ele>
        <time>2019-02-24T11:42:34Z</time>
      </trkpt>
      <trkpt lat="46.4393560" lon="6.9034740">
        <ele>373.0</ele>
        <time>2019-02-24T11:42:35Z</time>
      </trkpt>
      <trkpt lat="46.4393280" lon="6.9035260">
        <ele>373.1</ele>
        <time>2019-02-24T11:42:36Z</time>
      </trkpt>
      <trkpt lat="46.4393020" lon="6.9035810">
        <ele>373.1</ele>
        <time>2019-02-24T11:42:37Z</time>
      </trkpt>
      <trkpt lat="46.4392770" lon="6.9036360">
        <ele>373.2</ele>
        <time>2019-02-24T11:42:38Z</time>
      </trkpt>
      <trkpt lat="46.4392540" lon="6.9036910">
        <ele>373.3</ele>
        <time>2019-02-24T11:42:39Z</time>
      </trkpt>
      <trkpt lat="46.4392300" lon="6.9037460">
        <ele>373.3</ele>
        <time>2019-02-24T11:42:40Z</time>
      </trkpt>
      <trkpt lat="46.4392060" lon="6.9038000">
        <ele>373.2</ele>
        <time>2019-02-24T11:42:41Z</time>
      </trkpt>
      <trkpt lat="46.4391820" lon="6.9038530">
        <ele>373.1</ele>
        <time>2019-02-24T11:42:42Z</time>
      </trkpt>
      <trkpt lat="46.4391560" lon="6.9039040">
        <ele>373.0</ele>
        <time>2019-02-24T11:42:43Z</time>
      </trkpt>
      <trkpt lat="46.4391290" lon="6.9039540">
        <ele>372.9</ele>
        <time>2019-02-24T11:42:44Z</time>
      </trkpt>
      <trkpt lat="46.4391010" lon="6.9040030">
        <ele>372.8</ele>
        <time>2019-02-24T11:42:45Z</time>
      </trkpt>
      <trkpt lat="46.4390730" lon="6.9040520">
        <ele>372.8</ele>
        <time>2019-02-24T11:42:46Z</time>
      </trkpt>
      <trkpt lat="46.4390450" lon="6.9041030">
        <ele>372.7</ele>
        <time>2019-02-24T11:42:47Z</time>
      </trkpt>
      <trkpt lat="46.4390170" lon="6.9041550">
        <ele>372.7</ele>
        <time>2019-02-24T11:42:48Z</time>
      </trkpt>
      <trkpt lat="46.4389890" lon="6.9042100">
        <ele>372.6</ele>
        <time>2019-02-24T11:42:49Z</time>
      </trkpt>
      <trkpt lat="46.4389610" lon="6.9042650">
        <ele>372.6</ele>
        <time>2019-02-24T11:42:50Z</time>
      </trkpt>
      <trkpt lat="46.4389340" lon="6.9043210">
        <ele>372.6</ele>
        <time>2019-02-24T11:42:51Z</time>
      </trkpt>
      <trkpt lat="46.4389070" lon="6.9043780">
        <ele>372.6</ele>
        <time>2019-02-24T11:42:52Z</time>
      </trkpt>
      <trkpt lat="46.4388800" lon="6.9044340">
        <ele>372.6</ele>
        <time>2019-02-24T11:42:53Z</time>
      </trkpt>
      <trkpt lat="46.4388530" lon="6.9044900">
        <ele>372.5</ele>
        <time>2019-02-24T11:42:54Z</time>
      </trkpt>
      <trkpt lat="46.4388260" lon="6.9045460">
        <ele>372.5</ele>
        <time>2019-02-24T11:42:55Z</time>
      </trkpt>
      <trkpt lat="46.4388000" lon="6.9045990">
        <ele>372.5</ele>
        <time>2019-02-24T11:42:56Z</time>
      </trkpt>
      <trkpt lat="46.4387730" lon="6.9046520">
        <ele>372.5</ele>
        <time>2019-02-24T11:42:57Z</time>
      </trkpt>
      <trkpt lat="46.4387480" lon="6.9047040">
        <ele>372.5</ele>
        <time>2019-02-24T11:42:58Z</time>
      </trkpt>
      <trkpt lat="46.4387260" lon="6.9047570">
        <ele>372.5</ele>
        <time>2019-02-24T11:42:59Z</time>
      </trkpt>
      <trkpt lat="46.4387070" lon="6.9048140">
        <ele>372.4</ele>
        <time>2019-02-24T11:43:00Z</time>
      </trkpt>
      <trkpt lat="46.4386910" lon="6.9048740">
        <ele>372.4</ele>
        <time>2019-02-24T11:43:01Z</time>
      </trkpt>
      <trkpt lat="46.4386740" lon="6.9049320">
        <ele>372.4</ele>
        <time>2019-02-24T11:43:02Z</time>
      </trkpt>
      <trkpt lat="46.4386490" lon="6.9049840">
        <ele>372.4</ele>
        <time>2019-02-24T11:43:03Z</time>
      </trkpt>
      <trkpt lat="46.4386190" lon="6.9050330">
        <ele>372.4</ele>
        <time>2019-02-24T11:43:04Z</time>
      </trkpt>
      <trkpt lat="46.4385860" lon="6.9050810">
        <ele>372.4</ele>
        <time>2019-02-24T11:43:05Z</time>
      </trkpt>
      <trkpt lat="46.4385530" lon="6.9051280">
        <ele>372.4</ele>
        <time>2019-02-24T11:43:06Z</time>
      </trkpt>
      <trkpt lat="46.4385190" lon="6.9051740">
        <ele>372.4</ele>
        <time>2019-02-24T11:43:07Z</time>
      </trkpt>
      <trkpt lat="46.4384850" lon="6.9052170">
        <ele>372.4</ele>
        <time>2019-02-24T11:43:08Z</time>
      </trkpt>
      <trkpt lat="46.4384520" lon="6.9052570">
        <ele>372.4</ele>
        <time>2019-02-24T11:43:09Z</time>
      </trkpt>
      <trkpt lat="46.4384200" lon="6.9052950">
        <ele>372.4</ele>
        <time>2019-02-24T11:43:10Z</time>
      </trkpt>
      <trkpt lat="46.4383910" lon="6.9053330">
        <ele>372.3</ele>
        <time>2019-02-24T11:43:11Z</time>
      </trkpt>
      <trkpt lat="46.4383650" lon="6.9053730">
        <ele>372.2</ele>
        <time>2019-02-24T11:43:12Z</time>
      </trkpt>
      <trkpt lat="46.4383420" lon="6.9054160">
        <ele>372.2</ele>
        <time>2019-02-24T11:43:13Z</time>
      </trkpt>
      <trkpt lat="46.4383200" lon="6.9054570">
        <ele>372.1</ele>
        <time>2019-02-24T11:43:14Z</time>
      </trkpt>
      <trkpt lat="46.4382990" lon="6.9054910">
        <ele>372.0</ele>
        <time>2019-02-24T11:43:15Z</time>
      </trkpt>
      <trkpt lat="46.4382770" lon="6.9055110">
        <ele>371.9</ele>
        <time>2019-02-24T11:43:16Z</time>
      </trkpt>
      <trkpt lat="46.4382510" lon="6.9055140">
        <ele>371.9</ele>
        <time>2019-02-24T11:43:17Z</time>
      </trkpt>
      <trkpt lat="46.4382240" lon="6.9055040">
        <ele>371.8</ele>
        <time>2019-02-24T11:43:18Z</time>
      </trkpt>
      <trkpt lat="46.4381960" lon="6.9054870">
        <ele>371.8</ele>
        <time>2019-02-24T11:43:19Z</time>
      </trkpt>
      <trkpt lat="46.4381680" lon="6.9054710">
        <ele>371.8</ele>
        <time>2019-02-24T11:43:20Z</time>
      </trkpt>
      <trkpt lat="46.4381410" lon="6.9054600">
        <ele>371.8</ele>
        <time>2019-02-24T11:43:21Z</time>
      </trkpt>
      <trkpt lat="46.4381160" lon="6.9054560">
        <ele>371.8</ele>
        <time>2019-02-24T11:43:22Z</time>
      </trkpt>
      <trkpt lat="46.4380910" lon="6.9054570">
        <ele>371.8</ele>
        <time>2019-02-24T11:43:23Z</time>
      </trkpt>
      <trkpt lat="46.4380670" lon="6.9054640">
        <ele>371.8</ele>
        <time>2019-02-24T11:43:24Z</time>
      </trkpt>
      <trkpt lat="46.4380420" lon="6.9054770">
        <ele>371.8</ele>
        <time>2019-02-24T11:43:25Z</time>
      </trkpt>
      <trkpt lat="46.4380170" lon="6.9054950">
        <ele>371.8</ele>
        <time>2019-02-24T11:43:26Z</time>
      </trkpt>
      <trkpt lat="46.4379920" lon="6.9055170">
        <ele>371.8</ele>
        <time>2019-02-24T11:43:27Z</time>
      </trkpt>
      <trkpt lat="46.4379650" lon="6.9055440">
        <ele>371.8</ele>
        <time>2019-02-24T11:43:28Z</time>
      </trkpt>
      <trkpt lat="46.4379370" lon="6.9055740">
        <ele>371.7</ele>
        <time>2019-02-24T11:43:29Z</time>
      </trkpt>
      <trkpt lat="46.4379080" lon="6.9056080">
        <ele>371.7</ele>
        <time>2019-02-24T11:43:30Z</time>
      </trkpt>
      <trkpt lat="46.4378790" lon="6.9056450">
        <ele>371.7</ele>
        <time>2019-02-24T11:43:31Z</time>
      </trkpt>
      <trkpt lat="46.4378510" lon="6.9056830">
        <ele>371.7</ele>
        <time>2019-02-24T11:43:32Z</time>
      </trkpt>
      <trkpt lat="46.4378240" lon="6.9057220">
        <ele>371.6</ele>
        <time>2019-02-24T11:43:33Z</time>
      </trkpt>
      <trkpt lat="46.4378000" lon="6.9057600">
        <ele>371.6</ele>
        <time>2019-02-24T11:43:34Z</time>
      </trkpt>
      <trkpt lat="46.4377780" lon="6.9057980">
        <ele>371.6</ele>
        <time>2019-02-24T11:43:35Z</time>
      </trkpt>
      <trkpt lat="46.4377590" lon="6.9058350">
        <ele>371.6</ele>
        <time>2019-02-24T11:43:36Z</time>
      </trkpt>
      <trkpt lat="46.4377450" lon="6.9058690">
        <ele>371.6</ele>
        <time>2019-02-24T11:43:37Z</time>
      </trkpt>
      <trkpt lat="46.4377330" lon="6.9059020">
        <ele>371.6</ele>
        <time>2019-02-24T11:43:38Z</time>
      </trkpt>
      <trkpt lat="46.4377210" lon="6.9059370">
        <ele>371.6</ele>
        <time>2019-02-24T11:43:39Z</time>
      </trkpt>
      <trkpt lat="46.4377070" lon="6.9059750">
        <ele>371.6</ele>
        <time>2019-02-24T11:43:40Z</time>
      </trkpt>
      <trkpt lat="46.4376890" lon="6.9060180">
        <ele>371.6</ele>
        <time>2019-02-24T11:43:41Z</time>
      </trkpt>
      <trkpt lat="46.4376690" lon="6.9060640">
        <ele>371.6</ele>
        <time>2019-02-24T11:43:42Z</time>
      </trkpt>
      <trkpt lat="46.4376460" lon="6.9061130">
        <ele>371.7</ele>
        <time>2019-02-24T11:43:43Z</time>
      </trkpt>
      <trkpt lat="46.4376230" lon="6.9061620">
        <ele>371.7</ele>
        <time>2019-02-24T11:43:44Z</time>
      </trkpt>
      <trkpt lat="46.4375990" lon="6.9062110">
        <ele>371.7</ele>
        <time>2019-02-24T11:43:45Z</time>
      </trkpt>
      <trkpt lat="46.4375750" lon="6.9062600">
        <ele>371.7</ele>
        <time>2019-02-24T11:43:46Z</time>
      </trkpt>
      <trkpt lat="46.4375520" lon="6.9063090">
        <ele>371.8</ele>
        <time>2019-02-24T11:43:47Z</time>
      </trkpt>
      <trkpt lat="46.4375280" lon="6.9063580">
        <ele>371.8</ele>
        <time>2019-02-24T11:43:48Z</time>
      </trkpt>
      <trkpt lat="46.4375050" lon="6.9064060">
        <ele>371.8</ele>
        <time>2019-02-24T11:43:49Z</time>
      </trkpt>
      <trkpt lat="46.4374810" lon="6.9064550">
        <ele>371.8</ele>
        <time>2019-02-24T11:43:50Z</time>
      </trkpt>
      <trkpt lat="46.4374570" lon="6.9065040">
        <ele>371.9</ele>
        <time>2019-02-24T11:43:51Z</time>
      </trkpt>
      <trkpt lat="46.4374330" lon="6.9065550">
        <ele>371.9</ele>
        <time>2019-02-24T11:43:52Z</time>
      </trkpt>
      <trkpt lat="46.4373910" lon="6.9066420">
        <ele>372.0</ele>
        <time>2019-02-24T11:43:53Z</time>
      </trkpt>
      <trkpt lat="46.4373750" lon="6.9066780">
        <ele>372.0</ele>
        <time>2019-02-24T11:43:54Z</time>
      </trkpt>
      <trkpt lat="46.4373580" lon="6.9067130">
        <ele>372.0</ele>
        <time>2019-02-24T11:43:55Z</time>
      </trkpt>
      <trkpt lat="46.4373320" lon="6.9067660">
        <ele>372.1</ele>
        <time>2019-02-24T11:43:56Z</time>
      </trkpt>
      <trkpt lat="46.4373060" lon="6.9068180">
        <ele>372.2</ele>
        <time>2019-02-24T11:43:57Z</time>
      </trkpt>
      <trkpt lat="46.4372640" lon="6.9069000">
        <ele>372.3</ele>
        <time>2019-02-24T11:43:58Z</time>
      </trkpt>
      <trkpt lat="46.4372480" lon="6.9069320">
        <ele>372.3</ele>
        <time>2019-02-24T11:43:59Z</time>
      </trkpt>
      <trkpt lat="46.4372310" lon="6.9069630">
        <ele>372.3</ele>
        <time>2019-02-24T11:44:00Z</time>
      </trkpt>
      <trkpt lat="46.4372080" lon="6.9070050">
        <ele>372.1</ele>
        <time>2019-02-24T11:44:01Z</time>
      </trkpt>
      <trkpt lat="46.4371840" lon="6.9070440">
        <ele>371.9</ele>
        <time>2019-02-24T11:44:02Z</time>
      </trkpt>
      <trkpt lat="46.4371620" lon="6.9070830">
        <ele>371.7</ele>
        <time>2019-02-24T11:44:03Z</time>
      </trkpt>
      <trkpt lat="46.4371390" lon="6.9071210">
        <ele>371.5</ele>
        <time>2019-02-24T11:44:04Z</time>
      </trkpt>
      <trkpt lat="46.4371160" lon="6.9071590">
        <ele>371.2</ele>
        <time>2019-02-24T11:44:05Z</time>
      </trkpt>
      <trkpt lat="46.4370940" lon="6.9071990">
        <ele>370.8</ele>
        <time>2019-02-24T11:44:06Z</time>
      </trkpt>
      <trkpt lat="46.4370720" lon="6.9072400">
        <ele>370.5</ele>
        <time>2019-02-24T11:44:07Z</time>
      </trkpt>
      <trkpt lat="46.4370510" lon="6.9072830">
        <ele>370.2</ele>
        <time>2019-02-24T11:44:08Z</time>
      </trkpt>
      <trkpt lat="46.4370310" lon="6.9073290">
        <ele>369.8</ele>
        <time>2019-02-24T11:44:09Z</time>
      </trkpt>
      <trkpt lat="46.4370120" lon="6.9073760">
        <ele>369.6</ele>
        <time>2019-02-24T11:44:10Z</time>
      </trkpt>
      <trkpt lat="46.4369930" lon="6.9074230">
        <ele>369.3</ele>
        <time>2019-02-24T11:44:11Z</time>
      </trkpt>
      <trkpt lat="46.4369720" lon="6.9074690">
        <ele>369.1</ele>
        <time>2019-02-24T11:44:12Z</time>
      </trkpt>
      <trkpt lat="46.4369500" lon="6.9075130">
        <ele>368.9</ele>
        <time>2019-02-24T11:44:13Z</time>
      </trkpt>
      <trkpt lat="46.4369260" lon="6.9075540">
        <ele>368.8</ele>
        <time>2019-02-24T11:44:14Z</time>
      </trkpt>
      <trkpt lat="46.4368990" lon="6.9075940">
        <ele>368.8</ele>
        <time>2019-02-24T11:44:15Z</time>
      </trkpt>
      <trkpt lat="46.4368710" lon="6.9076340">
        <ele>368.8</ele>
        <time>2019-02-24T11:44:16Z</time>
      </trkpt>
      <trkpt lat="46.4368400" lon="6.9076730">
        <ele>368.9</ele>
        <time>2019-02-24T11:44:17Z</time>
      </trkpt>
      <trkpt lat="46.4368080" lon="6.9077120">
        <ele>369.0</ele>
        <time>2019-02-24T11:44:18Z</time>
      </trkpt>
      <trkpt lat="46.4367750" lon="6.9077510">
        <ele>369.1</ele>
        <time>2019-02-24T11:44:19Z</time>
      </trkpt>
      <trkpt lat="46.4367410" lon="6.9077890">
        <ele>369.3</ele>
        <time>2019-02-24T11:44:20Z</time>
      </trkpt>
      <trkpt lat="46.4367080" lon="6.9078250">
        <ele>369.5</ele>
        <time>2019-02-24T11:44:21Z</time>
      </trkpt>
      <trkpt lat="46.4366750" lon="6.9078600">
        <ele>369.8</ele>
        <time>2019-02-24T11:44:22Z</time>
      </trkpt>
      <trkpt lat="46.4366430" lon="6.9078940">
        <ele>370.1</ele>
        <time>2019-02-24T11:44:23Z</time>
      </trkpt>
      <trkpt lat="46.4366130" lon="6.9079250">
        <ele>370.2</ele>
        <time>2019-02-24T11:44:24Z</time>
      </trkpt>
      <trkpt lat="46.4365860" lon="6.9079540">
        <ele>370.2</ele>
        <time>2019-02-24T11:44:25Z</time>
      </trkpt>
      <trkpt lat="46.4365600" lon="6.9079810">
        <ele>370.2</ele>
        <time>2019-02-24T11:44:26Z</time>
      </trkpt>
      <trkpt lat="46.4365360" lon="6.9080070">
        <ele>370.2</ele>
        <time>2019-02-24T11:44:27Z</time>
      </trkpt>
      <trkpt lat="46.4365130" lon="6.9080320">
        <ele>370.3</ele>
        <time>2019-02-24T11:44:28Z</time>
      </trkpt>
      <trkpt lat="46.4364900" lon="6.9080570">
        <ele>370.3</ele>
        <time>2019-02-24T11:44:29Z</time>
      </trkpt>
      <trkpt lat="46.4364670" lon="6.9080810">
        <ele>370.3</ele>
        <time>2019-02-24T11:44:30Z</time>
      </trkpt>
      <trkpt lat="46.4364440" lon="6.9081070">
        <ele>370.3</ele>
        <time>2019-02-24T11:44:31Z</time>
      </trkpt>
      <trkpt lat="46.4364190" lon="6.9081330">
        <ele>370.3</ele>
        <time>2019-02-24T11:44:32Z</time>
      </trkpt>
      <trkpt lat="46.4363920" lon="6.9081610">
        <ele>370.3</ele>
        <time>2019-02-24T11:44:33Z</time>
      </trkpt>
      <trkpt lat="46.4363640" lon="6.9081900">
        <ele>370.3</ele>
        <time>2019-02-24T11:44:34Z</time>
      </trkpt>
      <trkpt lat="46.4363350" lon="6.9082200">
        <ele>370.3</ele>
        <time>2019-02-24T11:44:35Z</time>
      </trkpt>
      <trkpt lat="46.4363060" lon="6.9082490">
        <ele>370.3</ele>
        <time>2019-02-24T11:44:36Z</time>
      </trkpt>
      <trkpt lat="46.4362780" lon="6.9082790">
        <ele>370.3</ele>
        <time>2019-02-24T11:44:37Z</time>
      </trkpt>
      <trkpt lat="46.4362500" lon="6.9083080">
        <ele>370.2</ele>
        <time>2019-02-24T11:44:38Z</time>
      </trkpt>
      <trkpt lat="46.4362230" lon="6.9083360">
        <ele>370.1</ele>
        <time>2019-02-24T11:44:39Z</time>
      </trkpt>
      <trkpt lat="46.4361980" lon="6.9083620">
        <ele>370.1</ele>
        <time>2019-02-24T11:44:40Z</time>
      </trkpt>
      <trkpt lat="46.4361760" lon="6.9083870">
        <ele>370.1</ele>
        <time>2019-02-24T11:44:41Z</time>
      </trkpt>
      <trkpt lat="46.4361540" lon="6.9084080">
        <ele>370.2</ele>
        <time>2019-02-24T11:44:42Z</time>
      </trkpt>
      <trkpt lat="46.4361330" lon="6.9084270">
        <ele>370.2</ele>
        <time>2019-02-24T11:44:43Z</time>
      </trkpt>
      <trkpt lat="46.4361090" lon="6.9084420">
        <ele>370.2</ele>
        <time>2019-02-24T11:44:44Z</time>
      </trkpt>
      <trkpt lat="46.4360840" lon="6.9084550">
        <ele>370.2</ele>
        <time>2019-02-24T11:44:45Z</time>
      </trkpt>
      <trkpt lat="46.4360620" lon="6.9084650">
        <ele>370.2</ele>
        <time>2019-02-24T11:44:46Z</time>
      </trkpt>
      <trkpt lat="46.4360480" lon="6.9084760">
        <ele>370.2</ele>
        <time>2019-02-24T11:44:47Z</time>
      </trkpt>
      <trkpt lat="46.4360370" lon="6.9084890">
        <ele>370.2</ele>
        <time>2019-02-24T11:44:48Z</time>
      </trkpt>
      <trkpt lat="46.4360220" lon="6.9085050">
        <ele>370.2</ele>
        <time>2019-02-24T11:44:49Z</time>
      </trkpt>
      <trkpt lat="46.4360030" lon="6.9085250">
        <ele>370.2</ele>
        <time>2019-02-24T11:44:50Z</time>
      </trkpt>
      <trkpt lat="46.4359810" lon="6.9085460">
        <ele>370.3</ele>
        <time>2019-02-24T11:44:51Z</time>
      </trkpt>
      <trkpt lat="46.4359570" lon="6.9085690">
        <ele>370.3</ele>
        <time>2019-02-24T11:44:52Z</time>
      </trkpt>
      <trkpt lat="46.4359330" lon="6.9085920">
        <ele>370.3</ele>
        <time>2019-02-24T11:44:53Z</time>
      </trkpt>
      <trkpt lat="46.4359080" lon="6.9086150">
        <ele>370.3</ele>
        <time>2019-02-24T11:44:54Z</time>
      </trkpt>
      <trkpt lat="46.4358840" lon="6.9086370">
        <ele>370.3</ele>
        <time>2019-02-24T11:44:55Z</time>
      </trkpt>
      <trkpt lat="46.4358620" lon="6.9086580">
        <ele>370.3</ele>
        <time>2019-02-24T11:44:56Z</time>
      </trkpt>
      <trkpt lat="46.4358420" lon="6.9086760">
        <ele>370.3</ele>
        <time>2019-02-24T11:44:57Z</time>
      </trkpt>
      <trkpt lat="46.4358200" lon="6.9086960">
        <ele>370.4</ele>
        <time>2019-02-24T11:44:58Z</time>
      </trkpt>
      <trkpt lat="46.4358150" lon="6.9087000">
        <ele>370.4</ele>
        <time>2019-02-24T11:44:59Z</time>
      </trkpt>
      <trkpt lat="46.4358090" lon="6.9087040">
        <ele>370.4</ele>
        <time>2019-02-24T11:45:00Z</time>
      </trkpt>
      <trkpt lat="46.4358030" lon="6.9087090">
        <ele>370.4</ele>
        <time>2019-02-24T11:45:01Z</time>
      </trkpt>
      <trkpt lat="46.4357970" lon="6.9087130">
        <ele>370.4</ele>
        <time>2019-02-24T11:45:02Z</time>
      </trkpt>
      <trkpt lat="46.4357920" lon="6.9087170">
        <ele>370.4</ele>
        <time>2019-02-24T11:45:03Z</time>
      </trkpt>
      <trkpt lat="46.4357860" lon="6.9087210">
        <ele>370.4</ele>
        <time>2019-02-24T11:45:04Z</time>
      </trkpt>
      <trkpt lat="46.4357690" lon="6.9087300">
        <ele>370.4</ele>
        <time>2019-02-24T11:45:05Z</time>
      </trkpt>
      <trkpt lat="46.4357610" lon="6.9087520">
        <ele>370.8</ele>
        <time>2019-02-24T11:45:06Z</time>
      </trkpt>
      <trkpt lat="46.4357610" lon="6.9087860">
        <ele>371.3</ele>
        <time>2019-02-24T11:45:07Z</time>
      </trkpt>
      <trkpt lat="46.4357690" lon="6.9088260">
        <ele>371.9</ele>
        <time>2019-02-24T11:45:08Z</time>
      </trkpt>
      <trkpt lat="46.4357950" lon="6.9088890">
        <ele>373.0</ele>
        <time>2019-02-24T11:45:09Z</time>
      </trkpt>
      <trkpt lat="46.4358070" lon="6.9089120">
        <ele>373.5</ele>
        <time>2019-02-24T11:45:10Z</time>
      </trkpt>
      <trkpt lat="46.4358200" lon="6.9089350">
        <ele>373.9</ele>
        <time>2019-02-24T11:45:11Z</time>
      </trkpt>
      <trkpt lat="46.4358400" lon="6.9089630">
        <ele>374.5</ele>
        <time>2019-02-24T11:45:12Z</time>
      </trkpt>
      <trkpt lat="46.4358590" lon="6.9089860">
        <ele>375.1</ele>
        <time>2019-02-24T11:45:13Z</time>
      </trkpt>
      <trkpt lat="46.4358750" lon="6.9090060">
        <ele>375.5</ele>
        <time>2019-02-24T11:45:14Z</time>
      </trkpt>
      <trkpt lat="46.4358870" lon="6.9090460">
        <ele>376.2</ele>
        <time>2019-02-24T11:45:15Z</time>
      </trkpt>
      <trkpt lat="46.4358860" lon="6.9090680">
        <ele>376.5</ele>
        <time>2019-02-24T11:45:16Z</time>
      </trkpt>
      <trkpt lat="46.4358850" lon="6.9090900">
        <ele>376.9</ele>
        <time>2019-02-24T11:45:17Z</time>
      </trkpt>
      <trkpt lat="46.4358840" lon="6.9091120">
        <ele>377.2</ele>
        <time>2019-02-24T11:45:18Z</time>
      </trkpt>
      <trkpt lat="46.4358830" lon="6.9091340">
        <ele>377.5</ele>
        <time>2019-02-24T11:45:19Z</time>
      </trkpt>
      <trkpt lat="46.4358820" lon="6.9091560">
        <ele>377.9</ele>
        <time>2019-02-24T11:45:20Z</time>
      </trkpt>
      <trkpt lat="46.4358640" lon="6.9091890">
        <ele>380.5</ele>
        <time>2019-02-24T11:45:21Z</time>
      </trkpt>
      <trkpt lat="46.4358400" lon="6.9092220">
        <ele>380.5</ele>
        <time>2019-02-24T11:45:22Z</time>
      </trkpt>
      <trkpt lat="46.4358100" lon="6.9092550">
        <ele>380.5</ele>
        <time>2019-02-24T11:45:23Z</time>
      </trkpt>
      <trkpt lat="46.4357620" lon="6.9093050">
        <ele>380.4</ele>
        <time>2019-02-24T11:45:24Z</time>
      </trkpt>
      <trkpt lat="46.4357450" lon="6.9093220">
        <ele>380.4</ele>
        <time>2019-02-24T11:45:25Z</time>
      </trkpt>
      <trkpt lat="46.4357120" lon="6.9093560">
        <ele>380.4</ele>
        <time>2019-02-24T11:45:26Z</time>
      </trkpt>
      <trkpt lat="46.4356790" lon="6.9093920">
        <ele>380.4</ele>
        <time>2019-02-24T11:45:27Z</time>
      </trkpt>
      <trkpt lat="46.4356450" lon="6.9094290">
        <ele>380.4</ele>
        <time>2019-02-24T11:45:28Z</time>
      </trkpt>
      <trkpt lat="46.4356090" lon="6.9094640">
        <ele>380.3</ele>
        <time>2019-02-24T11:45:29Z</time>
      </trkpt>
      <trkpt lat="46.4355720" lon="6.9094980">
        <ele>380.3</ele>
        <time>2019-02-24T11:45:30Z</time>
      </trkpt>
      <trkpt lat="46.4355330" lon="6.9095310">
        <ele>380.3</ele>
        <time>2019-02-24T11:45:31Z</time>
      </trkpt>
      <trkpt lat="46.4354720" lon="6.9095780">
        <ele>380.3</ele>
        <time>2019-02-24T11:45:32Z</time>
      </trkpt>
      <trkpt lat="46.4354500" lon="6.9095930">
        <ele>380.3</ele>
        <time>2019-02-24T11:45:33Z</time>
      </trkpt>
      <trkpt lat="46.4354060" lon="6.9096210">
        <ele>380.3</ele>
        <time>2019-02-24T11:45:34Z</time>
      </trkpt>
      <trkpt lat="46.4353610" lon="6.9096480">
        <ele>380.2</ele>
        <time>2019-02-24T11:45:35Z</time>
      </trkpt>
      <trkpt lat="46.4353140" lon="6.9096740">
        <ele>380.2</ele>
        <time>2019-02-24T11:45:36Z</time>
      </trkpt>
      <trkpt lat="46.4352660" lon="6.9096990">
        <ele>380.2</ele>
        <time>2019-02-24T11:45:37Z</time>
      </trkpt>
      <trkpt lat="46.4352170" lon="6.9097220">
        <ele>380.2</ele>
        <time>2019-02-24T11:45:38Z</time>
      </trkpt>
      <trkpt lat="46.4351670" lon="6.9097430">
        <ele>380.2</ele>
        <time>2019-02-24T11:45:39Z</time>
      </trkpt>
      <trkpt lat="46.4351160" lon="6.9097630">
        <ele>380.1</ele>
        <time>2019-02-24T11:45:40Z</time>
      </trkpt>
      <trkpt lat="46.4350640" lon="6.9097820">
        <ele>380.1</ele>
        <time>2019-02-24T11:45:41Z</time>
      </trkpt>
      <trkpt lat="46.4349850" lon="6.9098070">
        <ele>380.1</ele>
        <time>2019-02-24T11:45:42Z</time>
      </trkpt>
      <trkpt lat="46.4349580" lon="6.9098140">
        <ele>380.1</ele>
        <time>2019-02-24T11:45:43Z</time>
      </trkpt>
      <trkpt lat="46.4349040" lon="6.9098280">
        <ele>380.0</ele>
        <time>2019-02-24T11:45:44Z</time>
      </trkpt>
      <trkpt lat="46.4348490" lon="6.9098400">
        <ele>380.0</ele>
        <time>2019-02-24T11:45:45Z</time>
      </trkpt>
      <trkpt lat="46.4347940" lon="6.9098500">
        <ele>380.2</ele>
        <time>2019-02-24T11:45:46Z</time>
      </trkpt>
      <trkpt lat="46.4347400" lon="6.9098590">
        <ele>380.4</ele>
        <time>2019-02-24T11:45:47Z</time>
      </trkpt>
      <trkpt lat="46.4346850" lon="6.9098670">
        <ele>380.7</ele>
        <time>2019-02-24T11:45:48Z</time>
      </trkpt>
      <trkpt lat="46.4346320" lon="6.9098750">
        <ele>380.9</ele>
        <time>2019-02-24T11:45:49Z</time>
      </trkpt>
      <trkpt lat="46.4345800" lon="6.9098820">
        <ele>381.4</ele>
        <time>2019-02-24T11:45:50Z</time>
      </trkpt>
      <trkpt lat="46.4344940" lon="6.9098930">
        <ele>381.9</ele>
        <time>2019-02-24T11:45:51Z</time>
      </trkpt>
      <trkpt lat="46.4344610" lon="6.9098970">
        <ele>382.3</ele>
        <time>2019-02-24T11:45:52Z</time>
      </trkpt>
      <trkpt lat="46.4344270" lon="6.9099020">
        <ele>382.6</ele>
        <time>2019-02-24T11:45:53Z</time>
      </trkpt>
      <trkpt lat="46.4343750" lon="6.9099100">
        <ele>383.2</ele>
        <time>2019-02-24T11:45:54Z</time>
      </trkpt>
      <trkpt lat="46.4343240" lon="6.9099180">
        <ele>383.8</ele>
        <time>2019-02-24T11:45:55Z</time>
      </trkpt>
      <trkpt lat="46.4342730" lon="6.9099260">
        <ele>384.3</ele>
        <time>2019-02-24T11:45:56Z</time>
      </trkpt>
      <trkpt lat="46.4342220" lon="6.9099360">
        <ele>384.7</ele>
        <time>2019-02-24T11:45:57Z</time>
      </trkpt>
      <trkpt lat="46.4341730" lon="6.9099450">
        <ele>385.1</ele>
        <time>2019-02-24T11:45:58Z</time>
      </trkpt>
      <trkpt lat="46.4341250" lon="6.9099550">
        <ele>385.4</ele>
        <time>2019-02-24T11:45:59Z</time>
      </trkpt>
      <trkpt lat="46.4340780" lon="6.9099650">
        <ele>385.5</ele>
        <time>2019-02-24T11:46:00Z</time>
      </trkpt>
      <trkpt lat="46.4339990" lon="6.9099800">
        <ele>385.7</ele>
        <time>2019-02-24T11:46:01Z</time>
      </trkpt>
      <trkpt lat="46.4339670" lon="6.9099860">
        <ele>385.9</ele>
        <time>2019-02-24T11:46:02Z</time>
      </trkpt>
      <trkpt lat="46.4339360" lon="6.9099920">
        <ele>386.0</ele>
        <time>2019-02-24T11:46:03Z</time>
      </trkpt>
      <trkpt lat="46.4338880" lon="6.9100000">
        <ele>386.2</ele>
        <time>2019-02-24T11:46:04Z</time>
      </trkpt>
      <trkpt lat="46.4338400" lon="6.9100080">
        <ele>386.4</ele>
        <time>2019-02-24T11:46:05Z</time>
      </trkpt>
      <trkpt lat="46.4337920" lon="6.9100150">
        <ele>386.6</ele>
        <time>2019-02-24T11:46:06Z</time>
      </trkpt>
      <trkpt lat="46.4337440" lon="6.9100220">
        <ele>386.8</ele>
        <time>2019-02-24T11:46:07Z</time>
      </trkpt>
      <trkpt lat="46.4336960" lon="6.9100290">
        <ele>386.9</ele>
        <time>2019-02-24T11:46:08Z</time>
      </trkpt>
      <trkpt lat="46.4336480" lon="6.9100350">
        <ele>387.0</ele>
        <time>2019-02-24T11:46:09Z</time>
      </trkpt>
      <trkpt lat="46.4336000" lon="6.9100400">
        <ele>387.1</ele>
        <time>2019-02-24T11:46:10Z</time>
      </trkpt>
      <trkpt lat="46.4335510" lon="6.9100460">
        <ele>387.2</ele>
        <time>2019-02-24T11:46:11Z</time>
      </trkpt>
      <trkpt lat="46.4335030" lon="6.9100500">
        <ele>387.2</ele>
        <time>2019-02-24T11:46:12Z</time>
      </trkpt>
      <trkpt lat="46.4334540" lon="6.9100550">
        <ele>387.2</ele>
        <time>2019-02-24T11:46:13Z</time>
      </trkpt>
      <trkpt lat="46.4334050" lon="6.9100590">
        <ele>386.8</ele>
        <time>2019-02-24T11:46:14Z</time>
      </trkpt>
      <trkpt lat="46.4333570" lon="6.9100620">
        <ele>385.9</ele>
        <time>2019-02-24T11:46:15Z</time>
      </trkpt>
      <trkpt lat="46.4333080" lon="6.9100650">
        <ele>385.0</ele>
        <time>2019-02-24T11:46:16Z</time>
      </trkpt>
      <trkpt lat="46.4332590" lon="6.9100680">
        <ele>384.3</ele>
        <time>2019-02-24T11:46:17Z</time>
      </trkpt>
      <trkpt lat="46.4332100" lon="6.9100700">
        <ele>383.9</ele>
        <time>2019-02-24T11:46:18Z</time>
      </trkpt>
      <trkpt lat="46.4331610" lon="6.9100720">
        <ele>383.6</ele>
        <time>2019-02-24T11:46:19Z</time>
      </trkpt>
      <trkpt lat="46.4331130" lon="6.9100740">
        <ele>383.4</ele>
        <time>2019-02-24T11:46:20Z</time>
      </trkpt>
      <trkpt lat="46.4330650" lon="6.9100770">
        <ele>383.2</ele>
        <time>2019-02-24T11:46:21Z</time>
      </trkpt>
      <trkpt lat="46.4330190" lon="6.9100800">
        <ele>383.1</ele>
        <time>2019-02-24T11:46:22Z</time>
      </trkpt>
      <trkpt lat="46.4329730" lon="6.9100840">
        <ele>383.0</ele>
        <time>2019-02-24T11:46:23Z</time>
      </trkpt>
      <trkpt lat="46.4329290" lon="6.9100900">
        <ele>382.8</ele>
        <time>2019-02-24T11:46:24Z</time>
      </trkpt>
      <trkpt lat="46.4328860" lon="6.9100980">
        <ele>382.8</ele>
        <time>2019-02-24T11:46:25Z</time>
      </trkpt>
      <trkpt lat="46.4328450" lon="6.9101070">
        <ele>382.8</ele>
        <time>2019-02-24T11:46:26Z</time>
      </trkpt>
      <trkpt lat="46.4328060" lon="6.9101180">
        <ele>382.0</ele>
        <time>2019-02-24T11:46:27Z</time>
      </trkpt>
      <trkpt lat="46.4327680" lon="6.9101300">
        <ele>382.0</ele>
        <time>2019-02-24T11:46:28Z</time>
      </trkpt>
      <trkpt lat="46.4327320" lon="6.9101430">
        <ele>382.0</ele>
        <time>2019-02-24T11:46:29Z</time>
      </trkpt>
      <trkpt lat="46.4326960" lon="6.9101560">
        <ele>382.0</ele>
        <time>2019-02-24T11:46:30Z</time>
      </trkpt>
      <trkpt lat="46.4326620" lon="6.9101680">
        <ele>382.0</ele>
        <time>2019-02-24T11:46:31Z</time>
      </trkpt>
      <trkpt lat="46.4326280" lon="6.9101790">
        <ele>382.0</ele>
        <time>2019-02-24T11:46:32Z</time>
      </trkpt>
      <trkpt lat="46.4325940" lon="6.9101890">
        <ele>382.0</ele>
        <time>2019-02-24T11:46:33Z</time>
      </trkpt>
      <trkpt lat="46.4325610" lon="6.9101970">
        <ele>382.0</ele>
        <time>2019-02-24T11:46:34Z</time>
      </trkpt>
      <trkpt lat="46.4325280" lon="6.9102040">
        <ele>382.1</ele>
        <time>2019-02-24T11:46:35Z</time>
      </trkpt>
      <trkpt lat="46.4324970" lon="6.9102090">
        <ele>382.1</ele>
        <time>2019-02-24T11:46:36Z</time>
      </trkpt>
      <trkpt lat="46.4324670" lon="6.9102130">
        <ele>382.1</ele>
        <time>2019-02-24T11:46:37Z</time>
      </trkpt>
      <trkpt lat="46.4324400" lon="6.9102160">
        <ele>382.1</ele>
        <time>2019-02-24T11:46:38Z</time>
      </trkpt>
      <trkpt lat="46.4324150" lon="6.9102180">
        <ele>382.2</ele>
        <time>2019-02-24T11:46:39Z</time>
      </trkpt>
      <trkpt lat="46.4323940" lon="6.9102200">
        <ele>382.2</ele>
        <time>2019-02-24T11:46:40Z</time>
      </trkpt>
      <trkpt lat="46.4323760" lon="6.9102210">
        <ele>382.2</ele>
        <time>2019-02-24T11:46:41Z</time>
      </trkpt>
      <trkpt lat="46.4323560" lon="6.9102250">
        <ele>382.2</ele>
        <time>2019-02-24T11:46:42Z</time>
      </trkpt>
      <trkpt lat="46.4323500" lon="6.9102260">
        <ele>382.2</ele>
        <time>2019-02-24T11:46:43Z</time>
      </trkpt>
      <trkpt lat="46.4323430" lon="6.9102280">
        <ele>382.2</ele>
        <time>2019-02-24T11:46:44Z</time>
      </trkpt>
      <trkpt lat="46.4323370" lon="6.9102290">
        <ele>382.3</ele>
        <time>2019-02-24T11:46:45Z</time>
      </trkpt>
      <trkpt lat="46.4323300" lon="6.9102310">
        <ele>382.3</ele>
        <time>2019-02-24T11:46:46Z</time>
      </trkpt>
      <trkpt lat="46.4323220" lon="6.9102340">
        <ele>382.3</ele>
        <time>2019-02-24T11:46:47Z</time>
      </trkpt>
      <trkpt lat="46.4323130" lon="6.9102360">
        <ele>382.3</ele>
        <time>2019-02-24T11:46:48Z</time>
      </trkpt>
      <trkpt lat="46.4323010" lon="6.9102400">
        <ele>382.3</ele>
        <time>2019-02-24T11:46:49Z</time>
      </trkpt>
      <trkpt lat="46.4322850" lon="6.9102430">
        <ele>382.3</ele>
        <time>2019-02-24T11:46:50Z</time>
      </trkpt>
      <trkpt lat="46.4322660" lon="6.9102470">
        <ele>382.4</ele>
        <time>2019-02-24T11:46:51Z</time>
      </trkpt>
      <trkpt lat="46.4322460" lon="6.9102510">
        <ele>382.4</ele>
        <time>2019-02-24T11:46:52Z</time>
      </trkpt>
      <trkpt lat="46.4322230" lon="6.9102530">
        <ele>382.4</ele>
        <time>2019-02-24T11:46:53Z</time>
      </trkpt>
      <trkpt lat="46.4322000" lon="6.9102550">
        <ele>382.4</ele>
        <time>2019-02-24T11:46:54Z</time>
      </trkpt>
      <trkpt lat="46.4321770" lon="6.9102550">
        <ele>382.5</ele>
        <time>2019-02-24T11:46:55Z</time>
      </trkpt>
      <trkpt lat="46.4321550" lon="6.9102540">
        <ele>382.5</ele>
        <time>2019-02-24T11:46:56Z</time>
      </trkpt>
      <trkpt lat="46.4321350" lon="6.9102500">
        <ele>382.5</ele>
        <time>2019-02-24T11:46:57Z</time>
      </trkpt>
      <trkpt lat="46.4321170" lon="6.9102440">
        <ele>382.6</ele>
        <time>2019-02-24T11:46:58Z</time>
      </trkpt>
      <trkpt lat="46.4321020" lon="6.9102370">
        <ele>382.6</ele>
        <time>2019-02-24T11:46:59Z</time>
      </trkpt>
      <trkpt lat="46.4320900" lon="6.9102290">
        <ele>382.6</ele>
        <time>2019-02-24T11:47:00Z</time>
      </trkpt>
      <trkpt lat="46.4320810" lon="6.9102230">
        <ele>382.6</ele>
        <time>2019-02-24T11:47:01Z</time>
      </trkpt>
      <trkpt lat="46.4320760" lon="6.9102190">
        <ele>382.6</ele>
        <time>2019-02-24T11:47:02Z</time>
      </trkpt>
      <trkpt lat="46.4320730" lon="6.9102170">
        <ele>382.6</ele>
        <time>2019-02-24T11:47:03Z</time>
      </trkpt>
      <trkpt lat="46.4320720" lon="6.9102160">
        <ele>382.6</ele>
        <time>2019-02-24T11:47:04Z</time>
      </trkpt>
      <trkpt lat="46.4320720" lon="6.9102160">
        <ele>382.6</ele>
        <time>2019-02-24T11:47:05Z</time>
      </trkpt>
      <trkpt lat="46.4320720" lon="6.9102160">
        <ele>382.6</ele>
        <time>2019-02-24T11:47:06Z</time>
      </trkpt>
      <trkpt lat="46.4320720" lon="6.9102160">
        <ele>382.6</ele>
        <time>2019-02-24T11:47:07Z</time>
      </trkpt>
      <trkpt lat="46.4320720" lon="6.9102160">
        <ele>382.6</ele>
        <time>2019-02-24T11:47:08Z</time>
      </trkpt>
      <trkpt lat="46.4320720" lon="6.9102160">
        <ele>382.6</ele>
        <time>2019-02-24T11:47:09Z</time>
      </trkpt>
      <trkpt lat="46.4320720" lon="6.9102160">
        <ele>382.6</ele>
        <time>2019-02-24T11:47:10Z</time>
      </trkpt>
      <trkpt lat="46.4320720" lon="6.9102160">
        <ele>382.6</ele>
        <time>2019-02-24T11:47:11Z</time>
      </trkpt>
      <trkpt lat="46.4320720" lon="6.9102160">
        <ele>382.6</ele>
        <time>2019-02-24T11:47:12Z</time>
      </trkpt>
      <trkpt lat="46.4320720" lon="6.9102160">
        <ele>382.6</ele>
        <time>2019-02-24T11:47:13Z</time>
      </trkpt>
      <trkpt lat="46.4320720" lon="6.9102160">
        <ele>382.6</ele>
        <time>2019-02-24T11:47:14Z</time>
      </trkpt>
      <trkpt lat="46.4320720" lon="6.9102160">
        <ele>382.6</ele>
        <time>2019-02-24T11:47:15Z</time>
      </trkpt>
      <trkpt lat="46.4320720" lon="6.9102160">
        <ele>382.6</ele>
        <time>2019-02-24T11:47:16Z</time>
      </trkpt>
      <trkpt lat="46.4320720" lon="6.9102160">
        <ele>382.6</ele>
        <time>2019-02-24T11:47:17Z</time>
      </trkpt>
      <trkpt lat="46.4320720" lon="6.9102160">
        <ele>382.6</ele>
        <time>2019-02-24T11:47:18Z</time>
      </trkpt>
      <trkpt lat="46.4320720" lon="6.9102160">
        <ele>382.6</ele>
        <time>2019-02-24T11:47:19Z</time>
      </trkpt>
      <trkpt lat="46.4320720" lon="6.9102160">
        <ele>382.6</ele>
        <time>2019-02-24T11:47:20Z</time>
      </trkpt>
      <trkpt lat="46.4320720" lon="6.9102160">
        <ele>382.6</ele>
        <time>2019-02-24T11:47:21Z</time>
      </trkpt>
      <trkpt lat="46.4320720" lon="6.9102160">
        <ele>382.6</ele>
        <time>2019-02-24T11:47:22Z</time>
      </trkpt>
      <trkpt lat="46.4320720" lon="6.9102160">
        <ele>382.6</ele>
        <time>2019-02-24T11:47:23Z</time>
      </trkpt>
      <trkpt lat="46.4320720" lon="6.9102150">
        <ele>382.6</ele>
        <time>2019-02-24T11:47:24Z</time>
      </trkpt>
      <trkpt lat="46.4320710" lon="6.9102150">
        <ele>382.6</ele>
        <time>2019-02-24T11:47:25Z</time>
      </trkpt>
      <trkpt lat="46.4320710" lon="6.9102140">
        <ele>382.6</ele>
        <time>2019-02-24T11:47:26Z</time>
      </trkpt>
      <trkpt lat="46.4320700" lon="6.9102130">
        <ele>382.6</ele>
        <time>2019-02-24T11:47:27Z</time>
      </trkpt>
      <trkpt lat="46.4320680" lon="6.9102120">
        <ele>382.6</ele>
        <time>2019-02-24T11:47:28Z</time>
      </trkpt>
      <trkpt lat="46.4320650" lon="6.9102100">
        <ele>382.8</ele>
        <time>2019-02-24T11:47:29Z</time>
      </trkpt>
      <trkpt lat="46.4320620" lon="6.9102070">
        <ele>382.8</ele>
        <time>2019-02-24T11:47:30Z</time>
      </trkpt>
      <trkpt lat="46.4320560" lon="6.9102040">
        <ele>382.9</ele>
        <time>2019-02-24T11:47:31Z</time>
      </trkpt>
      <trkpt lat="46.4320450" lon="6.9102030">
        <ele>382.9</ele>
        <time>2019-02-24T11:47:32Z</time>
      </trkpt>
      <trkpt lat="46.4320230" lon="6.9102050">
        <ele>383.1</ele>
        <time>2019-02-24T11:47:33Z</time>
      </trkpt>
      <trkpt lat="46.4319980" lon="6.9102120">
        <ele>383.2</ele>
        <time>2019-02-24T11:47:34Z</time>
      </trkpt>
      <trkpt lat="46.4319740" lon="6.9102220">
        <ele>383.4</ele>
        <time>2019-02-24T11:47:35Z</time>
      </trkpt>
      <trkpt lat="46.4319520" lon="6.9102350">
        <ele>383.5</ele>
        <time>2019-02-24T11:47:36Z</time>
      </trkpt>
      <trkpt lat="46.4319310" lon="6.9102500">
        <ele>383.6</ele>
        <time>2019-02-24T11:47:37Z</time>
      </trkpt>
      <trkpt lat="46.4319110" lon="6.9102640">
        <ele>383.8</ele>
        <time>2019-02-24T11:47:38Z</time>
      </trkpt>
      <trkpt lat="46.4318900" lon="6.9102780">
        <ele>383.9</ele>
        <time>2019-02-24T11:47:39Z</time>
      </trkpt>
      <trkpt lat="46.4318700" lon="6.9102900">
        <ele>384.0</ele>
        <time>2019-02-24T11:47:40Z</time>
      </trkpt>
      <trkpt lat="46.4318520" lon="6.9103000">
        <ele>384.2</ele>
        <time>2019-02-24T11:47:41Z</time>
      </trkpt>
      <trkpt lat="46.4318350" lon="6.9103080">
        <ele>384.3</ele>
        <time>2019-02-24T11:47:42Z</time>
      </trkpt>
      <trkpt lat="46.4318310" lon="6.9103100">
        <ele>384.3</ele>
        <time>2019-02-24T11:47:43Z</time>
      </trkpt>
      <trkpt lat="46.4318280" lon="6.9103110">
        <ele>384.4</ele>
        <time>2019-02-24T11:47:44Z</time>
      </trkpt>
      <trkpt lat="46.4318270" lon="6.9103100">
        <ele>384.4</ele>
        <time>2019-02-24T11:47:45Z</time>
      </trkpt>
      <trkpt lat="46.4318270" lon="6.9103090">
        <ele>384.4</ele>
        <time>2019-02-24T11:47:46Z</time>
      </trkpt>
      <trkpt lat="46.4318270" lon="6.9103090">
        <ele>384.4</ele>
        <time>2019-02-24T11:47:47Z</time>
      </trkpt>
      <trkpt lat="46.4318270" lon="6.9103090">
        <ele>384.4</ele>
        <time>2019-02-24T11:47:48Z</time>
      </trkpt>
      <trkpt lat="46.4318260" lon="6.9103090">
        <ele>384.4</ele>
        <time>2019-02-24T11:47:49Z</time>
      </trkpt>
      <trkpt lat="46.4318260" lon="6.9103090">
        <ele>384.4</ele>
        <time>2019-02-24T11:47:50Z</time>
      </trkpt>
      <trkpt lat="46.4318260" lon="6.9103090">
        <ele>384.4</ele>
        <time>2019-02-24T11:47:51Z</time>
      </trkpt>
      <trkpt lat="46.4318260" lon="6.9103090">
        <ele>384.4</ele>
        <time>2019-02-24T11:47:52Z</time>
      </trkpt>
      <trkpt lat="46.4318250" lon="6.9103090">
        <ele>384.4</ele>
        <time>2019-02-24T11:47:53Z</time>
      </trkpt>
      <trkpt lat="46.4318230" lon="6.9103090">
        <ele>384.4</ele>
        <time>2019-02-24T11:47:54Z</time>
      </trkpt>
      <trkpt lat="46.4318180" lon="6.9103110">
        <ele>384.4</ele>
        <time>2019-02-24T11:47:55Z</time>
      </trkpt>
      <trkpt lat="46.4318100" lon="6.9103130">
        <ele>384.5</ele>
        <time>2019-02-24T11:47:56Z</time>
      </trkpt>
      <trkpt lat="46.4318010" lon="6.9103120">
        <ele>384.6</ele>
        <time>2019-02-24T11:47:57Z</time>
      </trkpt>
      <trkpt lat="46.4317930" lon="6.9103110">
        <ele>384.6</ele>
        <time>2019-02-24T11:47:58Z</time>
      </trkpt>
      <trkpt lat="46.4317830" lon="6.9103130">
        <ele>384.7</ele>
        <time>2019-02-24T11:47:59Z</time>
      </trkpt>
      <trkpt lat="46.4317730" lon="6.9103190">
        <ele>384.8</ele>
        <time>2019-02-24T11:48:00Z</time>
      </trkpt>
      <trkpt lat="46.4317610" lon="6.9103280">
        <ele>384.9</ele>
        <time>2019-02-24T11:48:01Z</time>
      </trkpt>
      <trkpt lat="46.4317450" lon="6.9103400">
        <ele>385.0</ele>
        <time>2019-02-24T11:48:02Z</time>
      </trkpt>
      <trkpt lat="46.4317260" lon="6.9103560">
        <ele>385.3</ele>
        <time>2019-02-24T11:48:03Z</time>
      </trkpt>
      <trkpt lat="46.4317040" lon="6.9103730">
        <ele>385.6</ele>
        <time>2019-02-24T11:48:04Z</time>
      </trkpt>
      <trkpt lat="46.4316790" lon="6.9103920">
        <ele>386.0</ele>
        <time>2019-02-24T11:48:05Z</time>
      </trkpt>
      <trkpt lat="46.4316520" lon="6.9104130">
        <ele>386.4</ele>
        <time>2019-02-24T11:48:06Z</time>
      </trkpt>
      <trkpt lat="46.4316240" lon="6.9104350">
        <ele>386.8</ele>
        <time>2019-02-24T11:48:07Z</time>
      </trkpt>
      <trkpt lat="46.4315960" lon="6.9104560">
        <ele>386.9</ele>
        <time>2019-02-24T11:48:08Z</time>
      </trkpt>
      <trkpt lat="46.4315680" lon="6.9104780">
        <ele>387.0</ele>
        <time>2019-02-24T11:48:09Z</time>
      </trkpt>
      <trkpt lat="46.4315410" lon="6.9104990">
        <ele>387.2</ele>
        <time>2019-02-24T11:48:10Z</time>
      </trkpt>
      <trkpt lat="46.4315150" lon="6.9105190">
        <ele>387.3</ele>
        <time>2019-02-24T11:48:11Z</time>
      </trkpt>
      <trkpt lat="46.4314900" lon="6.9105380">
        <ele>387.4</ele>
        <time>2019-02-24T11:48:12Z</time>
      </trkpt>
      <trkpt lat="46.4314660" lon="6.9105550">
        <ele>387.5</ele>
        <time>2019-02-24T11:48:13Z</time>
      </trkpt>
      <trkpt lat="46.4314410" lon="6.9105700">
        <ele>387.6</ele>
        <time>2019-02-24T11:48:14Z</time>
      </trkpt>
      <trkpt lat="46.4314150" lon="6.9105840">
        <ele>387.7</ele>
        <time>2019-02-24T11:48:15Z</time>
      </trkpt>
      <trkpt lat="46.4313890" lon="6.9105970">
        <ele>387.8</ele>
        <time>2019-02-24T11:48:16Z</time>
      </trkpt>
      <trkpt lat="46.4313630" lon="6.9106090">
        <ele>387.9</ele>
        <time>2019-02-24T11:48:17Z</time>
      </trkpt>
      <trkpt lat="46.4313400" lon="6.9106230">
        <ele>387.9</ele>
        <time>2019-02-24T11:48:18Z</time>
      </trkpt>
      <trkpt lat="46.4313190" lon="6.9106370">
        <ele>388.0</ele>
        <time>2019-02-24T11:48:19Z</time>
      </trkpt>
      <trkpt lat="46.4313010" lon="6.9106530">
        <ele>388.1</ele>
        <time>2019-02-24T11:48:20Z</time>
      </trkpt>
      <trkpt lat="46.4312860" lon="6.9106690">
        <ele>388.2</ele>
        <time>2019-02-24T11:48:21Z</time>
      </trkpt>
      <trkpt lat="46.4312730" lon="6.9106840">
        <ele>388.2</ele>
        <time>2019-02-24T11:48:22Z</time>
      </trkpt>
      <trkpt lat="46.4312620" lon="6.9106980">
        <ele>388.3</ele>
        <time>2019-02-24T11:48:23Z</time>
      </trkpt>
      <trkpt lat="46.4312470" lon="6.9107170">
        <ele>388.3</ele>
        <time>2019-02-24T11:48:24Z</time>
      </trkpt>
      <trkpt lat="46.4312430" lon="6.9107240">
        <ele>388.4</ele>
        <time>2019-02-24T11:48:25Z</time>
      </trkpt>
      <trkpt lat="46.4312380" lon="6.9107300">
        <ele>388.4</ele>
        <time>2019-02-24T11:48:26Z</time>
      </trkpt>
      <trkpt lat="46.4312320" lon="6.9107340">
        <ele>388.5</ele>
        <time>2019-02-24T11:48:27Z</time>
      </trkpt>
      <trkpt lat="46.4312260" lon="6.9107370">
        <ele>388.6</ele>
        <time>2019-02-24T11:48:28Z</time>
      </trkpt>
      <trkpt lat="46.4312200" lon="6.9107390">
        <ele>388.6</ele>
        <time>2019-02-24T11:48:29Z</time>
      </trkpt>
      <trkpt lat="46.4312140" lon="6.9107430">
        <ele>388.6</ele>
        <time>2019-02-24T11:48:30Z</time>
      </trkpt>
      <trkpt lat="46.4312050" lon="6.9107490">
        <ele>388.7</ele>
        <time>2019-02-24T11:48:31Z</time>
      </trkpt>
      <trkpt lat="46.4311950" lon="6.9107590">
        <ele>388.7</ele>
        <time>2019-02-24T11:48:32Z</time>
      </trkpt>
      <trkpt lat="46.4311820" lon="6.9107750">
        <ele>388.8</ele>
        <time>2019-02-24T11:48:33Z</time>
      </trkpt>
      <trkpt lat="46.4311660" lon="6.9107980">
        <ele>388.9</ele>
        <time>2019-02-24T11:48:34Z</time>
      </trkpt>
      <trkpt lat="46.4311460" lon="6.9108290">
        <ele>389.0</ele>
        <time>2019-02-24T11:48:35Z</time>
      </trkpt>
      <trkpt lat="46.4311230" lon="6.9108670">
        <ele>389.2</ele>
        <time>2019-02-24T11:48:36Z</time>
      </trkpt>
      <trkpt lat="46.4310980" lon="6.9109120">
        <ele>389.4</ele>
        <time>2019-02-24T11:48:37Z</time>
      </trkpt>
      <trkpt lat="46.4310720" lon="6.9109600">
        <ele>389.6</ele>
        <time>2019-02-24T11:48:38Z</time>
      </trkpt>
      <trkpt lat="46.4310440" lon="6.9110110">
        <ele>389.9</ele>
        <time>2019-02-24T11:48:39Z</time>
      </trkpt>
      <trkpt lat="46.4310000" lon="6.9110990">
        <ele>390.3</ele>
        <time>2019-02-24T11:48:40Z</time>
      </trkpt>
      <trkpt lat="46.4309820" lon="6.9111330">
        <ele>390.5</ele>
        <time>2019-02-24T11:48:41Z</time>
      </trkpt>
      <trkpt lat="46.4309650" lon="6.9111680">
        <ele>390.7</ele>
        <time>2019-02-24T11:48:42Z</time>
      </trkpt>
      <trkpt lat="46.4309410" lon="6.9112160">
        <ele>390.8</ele>
        <time>2019-02-24T11:48:43Z</time>
      </trkpt>
      <trkpt lat="46.4309170" lon="6.9112640">
        <ele>391.0</ele>
        <time>2019-02-24T11:48:44Z</time>
      </trkpt>
      <trkpt lat="46.4308900" lon="6.9113110">
        <ele>391.1</ele>
        <time>2019-02-24T11:48:45Z</time>
      </trkpt>
      <trkpt lat="46.4308580" lon="6.9113600">
        <ele>391.3</ele>
        <time>2019-02-24T11:48:46Z</time>
      </trkpt>
      <trkpt lat="46.4308190" lon="6.9114110">
        <ele>391.2</ele>
        <time>2019-02-24T11:48:47Z</time>
      </trkpt>
      <trkpt lat="46.4307820" lon="6.9114630">
        <ele>391.1</ele>
        <time>2019-02-24T11:48:48Z</time>
      </trkpt>
      <trkpt lat="46.4307370" lon="6.9115460">
        <ele>390.9</ele>
        <time>2019-02-24T11:48:49Z</time>
      </trkpt>
      <trkpt lat="46.4307220" lon="6.9115800">
        <ele>390.8</ele>
        <time>2019-02-24T11:48:50Z</time>
      </trkpt>
      <trkpt lat="46.4307060" lon="6.9116130">
        <ele>390.7</ele>
        <time>2019-02-24T11:48:51Z</time>
      </trkpt>
      <trkpt lat="46.4306810" lon="6.9116620">
        <ele>390.6</ele>
        <time>2019-02-24T11:48:52Z</time>
      </trkpt>
      <trkpt lat="46.4306550" lon="6.9117110">
        <ele>390.5</ele>
        <time>2019-02-24T11:48:53Z</time>
      </trkpt>
      <trkpt lat="46.4306280" lon="6.9117600">
        <ele>390.4</ele>
        <time>2019-02-24T11:48:54Z</time>
      </trkpt>
      <trkpt lat="46.4306000" lon="6.9118090">
        <ele>390.3</ele>
        <time>2019-02-24T11:48:55Z</time>
      </trkpt>
      <trkpt lat="46.4305720" lon="6.9118570">
        <ele>390.2</ele>
        <time>2019-02-24T11:48:56Z</time>
      </trkpt>
      <trkpt lat="46.4305440" lon="6.9119040">
        <ele>390.1</ele>
        <time>2019-02-24T11:48:57Z</time>
      </trkpt>
      <trkpt lat="46.4305170" lon="6.9119510">
        <ele>390.0</ele>
        <time>2019-02-24T11:48:58Z</time>
      </trkpt>
      <trkpt lat="46.4304780" lon="6.9120310">
        <ele>390.0</ele>
        <time>2019-02-24T11:48:59Z</time>
      </trkpt>
      <trkpt lat="46.4304650" lon="6.9120640">
        <ele>390.0</ele>
        <time>2019-02-24T11:49:00Z</time>
      </trkpt>
      <trkpt lat="46.4304520" lon="6.9120970">
        <ele>390.0</ele>
        <time>2019-02-24T11:49:01Z</time>
      </trkpt>
      <trkpt lat="46.4304360" lon="6.9121480">
        <ele>390.0</ele>
        <time>2019-02-24T11:49:02Z</time>
      </trkpt>
      <trkpt lat="46.4304180" lon="6.9121970">
        <ele>390.1</ele>
        <time>2019-02-24T11:49:03Z</time>
      </trkpt>
      <trkpt lat="46.4303990" lon="6.9122450">
        <ele>390.1</ele>
        <time>2019-02-24T11:49:04Z</time>
      </trkpt>
      <trkpt lat="46.4303800" lon="6.9122930">
        <ele>390.1</ele>
        <time>2019-02-24T11:49:05Z</time>
      </trkpt>
      <trkpt lat="46.4303610" lon="6.9123400">
        <ele>390.2</ele>
        <time>2019-02-24T11:49:06Z</time>
      </trkpt>
      <trkpt lat="46.4303450" lon="6.9123900">
        <ele>390.2</ele>
        <time>2019-02-24T11:49:07Z</time>
      </trkpt>
      <trkpt lat="46.4303300" lon="6.9124420">
        <ele>390.2</ele>
        <time>2019-02-24T11:49:08Z</time>
      </trkpt>
      <trkpt lat="46.4303170" lon="6.9124960">
        <ele>390.2</ele>
        <time>2019-02-24T11:49:09Z</time>
      </trkpt>
      <trkpt lat="46.4303060" lon="6.9125510">
        <ele>390.2</ele>
        <time>2019-02-24T11:49:10Z</time>
      </trkpt>
      <trkpt lat="46.4302970" lon="6.9126070">
        <ele>390.1</ele>
        <time>2019-02-24T11:49:11Z</time>
      </trkpt>
      <trkpt lat="46.4302890" lon="6.9126630">
        <ele>390.2</ele>
        <time>2019-02-24T11:49:12Z</time>
      </trkpt>
      <trkpt lat="46.4302820" lon="6.9127180">
        <ele>390.2</ele>
        <time>2019-02-24T11:49:13Z</time>
      </trkpt>
      <trkpt lat="46.4302770" lon="6.9127730">
        <ele>390.2</ele>
        <time>2019-02-24T11:49:14Z</time>
      </trkpt>
      <trkpt lat="46.4302720" lon="6.9128270">
        <ele>390.3</ele>
        <time>2019-02-24T11:49:15Z</time>
      </trkpt>
      <trkpt lat="46.4302690" lon="6.9128770">
        <ele>390.3</ele>
        <time>2019-02-24T11:49:16Z</time>
      </trkpt>
      <trkpt lat="46.4302670" lon="6.9129220">
        <ele>390.3</ele>
        <time>2019-02-24T11:49:17Z</time>
      </trkpt>
      <trkpt lat="46.4302650" lon="6.9129600">
        <ele>390.4</ele>
        <time>2019-02-24T11:49:18Z</time>
      </trkpt>
      <trkpt lat="46.4302630" lon="6.9129880">
        <ele>390.4</ele>
        <time>2019-02-24T11:49:19Z</time>
      </trkpt>
      <trkpt lat="46.4302620" lon="6.9130060">
        <ele>390.4</ele>
        <time>2019-02-24T11:49:20Z</time>
      </trkpt>
      <trkpt lat="46.4302610" lon="6.9130190">
        <ele>390.4</ele>
        <time>2019-02-24T11:49:21Z</time>
      </trkpt>
      <trkpt lat="46.4302610" lon="6.9130330">
        <ele>390.4</ele>
        <time>2019-02-24T11:49:22Z</time>
      </trkpt>
      <trkpt lat="46.4302610" lon="6.9130570">
        <ele>390.4</ele>
        <time>2019-02-24T11:49:23Z</time>
      </trkpt>
      <trkpt lat="46.4302610" lon="6.9130930">
        <ele>390.4</ele>
        <time>2019-02-24T11:49:24Z</time>
      </trkpt>
      <trkpt lat="46.4302640" lon="6.9131360">
        <ele>390.5</ele>
        <time>2019-02-24T11:49:25Z</time>
      </trkpt>
      <trkpt lat="46.4302730" lon="6.9131810">
        <ele>390.0</ele>
        <time>2019-02-24T11:49:26Z</time>
      </trkpt>
      <trkpt lat="46.4302860" lon="6.9132240">
        <ele>389.7</ele>
        <time>2019-02-24T11:49:27Z</time>
      </trkpt>
      <trkpt lat="46.4303020" lon="6.9132680">
        <ele>389.4</ele>
        <time>2019-02-24T11:49:28Z</time>
      </trkpt>
      <trkpt lat="46.4303150" lon="6.9133130">
        <ele>389.0</ele>
        <time>2019-02-24T11:49:29Z</time>
      </trkpt>
      <trkpt lat="46.4303220" lon="6.9133640">
        <ele>388.7</ele>
        <time>2019-02-24T11:49:30Z</time>
      </trkpt>
      <trkpt lat="46.4303230" lon="6.9134190">
        <ele>388.5</ele>
        <time>2019-02-24T11:49:31Z</time>
      </trkpt>
      <trkpt lat="46.4303240" lon="6.9134750">
        <ele>388.3</ele>
        <time>2019-02-24T11:49:32Z</time>
      </trkpt>
      <trkpt lat="46.4303250" lon="6.9135340">
        <ele>388.2</ele>
        <time>2019-02-24T11:49:33Z</time>
      </trkpt>
      <trkpt lat="46.4303250" lon="6.9135940">
        <ele>388.1</ele>
        <time>2019-02-24T11:49:34Z</time>
      </trkpt>
      <trkpt lat="46.4303240" lon="6.9136860">
        <ele>388.1</ele>
        <time>2019-02-24T11:49:35Z</time>
      </trkpt>
      <trkpt lat="46.4303230" lon="6.9137160">
        <ele>388.1</ele>
        <time>2019-02-24T11:49:36Z</time>
      </trkpt>
      <trkpt lat="46.4303220" lon="6.9137780">
        <ele>388.1</ele>
        <time>2019-02-24T11:49:37Z</time>
      </trkpt>
      <trkpt lat="46.4303190" lon="6.9138400">
        <ele>388.1</ele>
        <time>2019-02-24T11:49:38Z</time>
      </trkpt>
      <trkpt lat="46.4303160" lon="6.9139010">
        <ele>388.1</ele>
        <time>2019-02-24T11:49:39Z</time>
      </trkpt>
      <trkpt lat="46.4303120" lon="6.9139620">
        <ele>388.1</ele>
        <time>2019-02-24T11:49:40Z</time>
      </trkpt>
      <trkpt lat="46.4303070" lon="6.9140220">
        <ele>388.1</ele>
        <time>2019-02-24T11:49:41Z</time>
      </trkpt>
      <trkpt lat="46.4303020" lon="6.9140830">
        <ele>388.1</ele>
        <time>2019-02-24T11:49:42Z</time>
      </trkpt>
      <trkpt lat="46.4302960" lon="6.9141430">
        <ele>388.1</ele>
        <time>2019-02-24T11:49:43Z</time>
      </trkpt>
      <trkpt lat="46.4302890" lon="6.9142030">
        <ele>388.1</ele>
        <time>2019-02-24T11:49:44Z</time>
      </trkpt>
      <trkpt lat="46.4302820" lon="6.9142640">
        <ele>388.1</ele>
        <time>2019-02-24T11:49:45Z</time>
      </trkpt>
      <trkpt lat="46.4302750" lon="6.9143250">
        <ele>388.1</ele>
        <time>2019-02-24T11:49:46Z</time>
      </trkpt>
      <trkpt lat="46.4302670" lon="6.9143870">
        <ele>388.0</ele>
        <time>2019-02-24T11:49:47Z</time>
      </trkpt>
      <trkpt lat="46.4302600" lon="6.9144500">
        <ele>388.0</ele>
        <time>2019-02-24T11:49:48Z</time>
      </trkpt>
      <trkpt lat="46.4302520" lon="6.9145140">
        <ele>387.9</ele>
        <time>2019-02-24T11:49:49Z</time>
      </trkpt>
      <trkpt lat="46.4302440" lon="6.9145780">
        <ele>387.8</ele>
        <time>2019-02-24T11:49:50Z</time>
      </trkpt>
      <trkpt lat="46.4302350" lon="6.9146420">
        <ele>387.8</ele>
        <time>2019-02-24T11:49:51Z</time>
      </trkpt>
      <trkpt lat="46.4302260" lon="6.9147060">
        <ele>387.7</ele>
        <time>2019-02-24T11:49:52Z</time>
      </trkpt>
      <trkpt lat="46.4302170" lon="6.9147700">
        <ele>387.7</ele>
        <time>2019-02-24T11:49:53Z</time>
      </trkpt>
      <trkpt lat="46.4302080" lon="6.9148330">
        <ele>387.6</ele>
        <time>2019-02-24T11:49:54Z</time>
      </trkpt>
      <trkpt lat="46.4301990" lon="6.9148960">
        <ele>387.6</ele>
        <time>2019-02-24T11:49:55Z</time>
      </trkpt>
      <trkpt lat="46.4301910" lon="6.9149590">
        <ele>387.6</ele>
        <time>2019-02-24T11:49:56Z</time>
      </trkpt>
      <trkpt lat="46.4301850" lon="6.9150200">
        <ele>387.5</ele>
        <time>2019-02-24T11:49:57Z</time>
      </trkpt>
      <trkpt lat="46.4301790" lon="6.9150820">
        <ele>387.5</ele>
        <time>2019-02-24T11:49:58Z</time>
      </trkpt>
      <trkpt lat="46.4301740" lon="6.9151430">
        <ele>387.5</ele>
        <time>2019-02-24T11:49:59Z</time>
      </trkpt>
      <trkpt lat="46.4301700" lon="6.9152040">
        <ele>387.5</ele>
        <time>2019-02-24T11:50:00Z</time>
      </trkpt>
      <trkpt lat="46.4301670" lon="6.9152640">
        <ele>387.5</ele>
        <time>2019-02-24T11:50:01Z</time>
      </trkpt>
      <trkpt lat="46.4301650" lon="6.9153250">
        <ele>387.5</ele>
        <time>2019-02-24T11:50:02Z</time>
      </trkpt>
      <trkpt lat="46.4301650" lon="6.9153850">
        <ele>387.5</ele>
        <time>2019-02-24T11:50:03Z</time>
      </trkpt>
      <trkpt lat="46.4301650" lon="6.9154450">
        <ele>387.4</ele>
        <time>2019-02-24T11:50:04Z</time>
      </trkpt>
      <trkpt lat="46.4301660" lon="6.9155050">
        <ele>387.3</ele>
        <time>2019-02-24T11:50:05Z</time>
      </trkpt>
      <trkpt lat="46.4301690" lon="6.9155650">
        <ele>387.1</ele>
        <time>2019-02-24T11:50:06Z</time>
      </trkpt>
      <trkpt lat="46.4301710" lon="6.9156250">
        <ele>386.9</ele>
        <time>2019-02-24T11:50:07Z</time>
      </trkpt>
      <trkpt lat="46.4301740" lon="6.9156860">
        <ele>386.6</ele>
        <time>2019-02-24T11:50:08Z</time>
      </trkpt>
      <trkpt lat="46.4301770" lon="6.9157470">
        <ele>385.9</ele>
        <time>2019-02-24T11:50:09Z</time>
      </trkpt>
      <trkpt lat="46.4301810" lon="6.9158090">
        <ele>386.4</ele>
        <time>2019-02-24T11:50:10Z</time>
      </trkpt>
      <trkpt lat="46.4301840" lon="6.9158720">
        <ele>386.9</ele>
        <time>2019-02-24T11:50:11Z</time>
      </trkpt>
      <trkpt lat="46.4301860" lon="6.9159350">
        <ele>387.1</ele>
        <time>2019-02-24T11:50:12Z</time>
      </trkpt>
      <trkpt lat="46.4301890" lon="6.9159990">
        <ele>387.3</ele>
        <time>2019-02-24T11:50:13Z</time>
      </trkpt>
      <trkpt lat="46.4301930" lon="6.9160630">
        <ele>387.5</ele>
        <time>2019-02-24T11:50:14Z</time>
      </trkpt>
      <trkpt lat="46.4301980" lon="6.9161250">
        <ele>387.6</ele>
        <time>2019-02-24T11:50:15Z</time>
      </trkpt>
      <trkpt lat="46.4302060" lon="6.9161870">
        <ele>388.1</ele>
        <time>2019-02-24T11:50:16Z</time>
      </trkpt>
      <trkpt lat="46.4302150" lon="6.9162470">
        <ele>388.6</ele>
        <time>2019-02-24T11:50:17Z</time>
      </trkpt>
      <trkpt lat="46.4302250" lon="6.9163070">
        <ele>388.9</ele>
        <time>2019-02-24T11:50:18Z</time>
      </trkpt>
      <trkpt lat="46.4302330" lon="6.9163670">
        <ele>388.9</ele>
        <time>2019-02-24T11:50:19Z</time>
      </trkpt>
      <trkpt lat="46.4302410" lon="6.9164270">
        <ele>389.0</ele>
        <time>2019-02-24T11:50:20Z</time>
      </trkpt>
      <trkpt lat="46.4302470" lon="6.9164880">
        <ele>389.0</ele>
        <time>2019-02-24T11:50:21Z</time>
      </trkpt>
      <trkpt lat="46.4302520" lon="6.9165490">
        <ele>389.2</ele>
        <time>2019-02-24T11:50:22Z</time>
      </trkpt>
      <trkpt lat="46.4302560" lon="6.9166090">
        <ele>389.3</ele>
        <time>2019-02-24T11:50:23Z</time>
      </trkpt>
      <trkpt lat="46.4302580" lon="6.9166690">
        <ele>389.5</ele>
        <time>2019-02-24T11:50:24Z</time>
      </trkpt>
      <trkpt lat="46.4302590" lon="6.9167270">
        <ele>389.7</ele>
        <time>2019-02-24T11:50:25Z</time>
      </trkpt>
      <trkpt lat="46.4302600" lon="6.9167830">
        <ele>389.9</ele>
        <time>2019-02-24T11:50:26Z</time>
      </trkpt>
      <trkpt lat="46.4302590" lon="6.9168360">
        <ele>390.0</ele>
        <time>2019-02-24T11:50:27Z</time>
      </trkpt>
      <trkpt lat="46.4302580" lon="6.9168870">
        <ele>390.2</ele>
        <time>2019-02-24T11:50:28Z</time>
      </trkpt>
      <trkpt lat="46.4302560" lon="6.9169360">
        <ele>389.2</ele>
        <time>2019-02-24T11:50:29Z</time>
      </trkpt>
      <trkpt lat="46.4302530" lon="6.9169830">
        <ele>388.8</ele>
        <time>2019-02-24T11:50:30Z</time>
      </trkpt>
      <trkpt lat="46.4302490" lon="6.9170290">
        <ele>388.4</ele>
        <time>2019-02-24T11:50:31Z</time>
      </trkpt>
      <trkpt lat="46.4302440" lon="6.9170740">
        <ele>388.0</ele>
        <time>2019-02-24T11:50:32Z</time>
      </trkpt>
      <trkpt lat="46.4302380" lon="6.9171180">
        <ele>387.6</ele>
        <time>2019-02-24T11:50:33Z</time>
      </trkpt>
      <trkpt lat="46.4302320" lon="6.9171630">
        <ele>387.3</ele>
        <time>2019-02-24T11:50:34Z</time>
      </trkpt>
      <trkpt lat="46.4302240" lon="6.9172090">
        <ele>386.9</ele>
        <time>2019-02-24T11:50:35Z</time>
      </trkpt>
      <trkpt lat="46.4302160" lon="6.9172550">
        <ele>386.4</ele>
        <time>2019-02-24T11:50:36Z</time>
      </trkpt>
      <trkpt lat="46.4302070" lon="6.9173040">
        <ele>386.4</ele>
        <time>2019-02-24T11:50:37Z</time>
      </trkpt>
      <trkpt lat="46.4301990" lon="6.9173550">
        <ele>386.3</ele>
        <time>2019-02-24T11:50:38Z</time>
      </trkpt>
      <trkpt lat="46.4301910" lon="6.9174090">
        <ele>386.3</ele>
        <time>2019-02-24T11:50:39Z</time>
      </trkpt>
      <trkpt lat="46.4301840" lon="6.9174660">
        <ele>386.2</ele>
        <time>2019-02-24T11:50:40Z</time>
      </trkpt>
      <trkpt lat="46.4301770" lon="6.9175270">
        <ele>386.2</ele>
        <time>2019-02-24T11:50:41Z</time>
      </trkpt>
      <trkpt lat="46.4301690" lon="6.9175880">
        <ele>386.3</ele>
        <time>2019-02-24T11:50:42Z</time>
      </trkpt>
      <trkpt lat="46.4301600" lon="6.9176500">
        <ele>386.5</ele>
        <time>2019-02-24T11:50:43Z</time>
      </trkpt>
      <trkpt lat="46.4301470" lon="6.9177110">
        <ele>386.6</ele>
        <time>2019-02-24T11:50:44Z</time>
      </trkpt>
      <trkpt lat="46.4301180" lon="6.9178100">
        <ele>386.9</ele>
        <time>2019-02-24T11:50:45Z</time>
      </trkpt>
      <trkpt lat="46.4301060" lon="6.9178480">
        <ele>387.0</ele>
        <time>2019-02-24T11:50:46Z</time>
      </trkpt>
      <trkpt lat="46.4300930" lon="6.9178870">
        <ele>387.1</ele>
        <time>2019-02-24T11:50:47Z</time>
      </trkpt>
      <trkpt lat="46.4300720" lon="6.9179430">
        <ele>387.2</ele>
        <time>2019-02-24T11:50:48Z</time>
      </trkpt>
      <trkpt lat="46.4300510" lon="6.9179970">
        <ele>387.4</ele>
        <time>2019-02-24T11:50:49Z</time>
      </trkpt>
      <trkpt lat="46.4300300" lon="6.9180510">
        <ele>387.3</ele>
        <time>2019-02-24T11:50:50Z</time>
      </trkpt>
      <trkpt lat="46.4300090" lon="6.9181060">
        <ele>387.4</ele>
        <time>2019-02-24T11:50:51Z</time>
      </trkpt>
      <trkpt lat="46.4299900" lon="6.9181610">
        <ele>387.5</ele>
        <time>2019-02-24T11:50:52Z</time>
      </trkpt>
      <trkpt lat="46.4299730" lon="6.9182180">
        <ele>387.5</ele>
        <time>2019-02-24T11:50:53Z</time>
      </trkpt>
      <trkpt lat="46.4299560" lon="6.9182750">
        <ele>387.8</ele>
        <time>2019-02-24T11:50:54Z</time>
      </trkpt>
      <trkpt lat="46.4299400" lon="6.9183320">
        <ele>388.1</ele>
        <time>2019-02-24T11:50:55Z</time>
      </trkpt>
      <trkpt lat="46.4299240" lon="6.9183900">
        <ele>388.3</ele>
        <time>2019-02-24T11:50:56Z</time>
      </trkpt>
      <trkpt lat="46.4299070" lon="6.9184480">
        <ele>388.3</ele>
        <time>2019-02-24T11:50:57Z</time>
      </trkpt>
      <trkpt lat="46.4298910" lon="6.9185050">
        <ele>388.4</ele>
        <time>2019-02-24T11:50:58Z</time>
      </trkpt>
      <trkpt lat="46.4298730" lon="6.9185630">
        <ele>388.4</ele>
        <time>2019-02-24T11:50:59Z</time>
      </trkpt>
      <trkpt lat="46.4298550" lon="6.9186200">
        <ele>388.4</ele>
        <time>2019-02-24T11:51:00Z</time>
      </trkpt>
      <trkpt lat="46.4298350" lon="6.9186760">
        <ele>388.5</ele>
        <time>2019-02-24T11:51:01Z</time>
      </trkpt>
      <trkpt lat="46.4298150" lon="6.9187320">
        <ele>388.5</ele>
        <time>2019-02-24T11:51:02Z</time>
      </trkpt>
      <trkpt lat="46.4297940" lon="6.9187880">
        <ele>388.6</ele>
        <time>2019-02-24T11:51:03Z</time>
      </trkpt>
      <trkpt lat="46.4297730" lon="6.9188430">
        <ele>388.6</ele>
        <time>2019-02-24T11:51:04Z</time>
      </trkpt>
      <trkpt lat="46.4297520" lon="6.9188980">
        <ele>388.6</ele>
        <time>2019-02-24T11:51:05Z</time>
      </trkpt>
      <trkpt lat="46.4297300" lon="6.9189540">
        <ele>388.7</ele>
        <time>2019-02-24T11:51:06Z</time>
      </trkpt>
      <trkpt lat="46.4297100" lon="6.9190090">
        <ele>388.7</ele>
        <time>2019-02-24T11:51:07Z</time>
      </trkpt>
      <trkpt lat="46.4296900" lon="6.9190640">
        <ele>388.7</ele>
        <time>2019-02-24T11:51:08Z</time>
      </trkpt>
      <trkpt lat="46.4296700" lon="6.9191200">
        <ele>388.7</ele>
        <time>2019-02-24T11:51:09Z</time>
      </trkpt>
      <trkpt lat="46.4296500" lon="6.9191750">
        <ele>388.7</ele>
        <time>2019-02-24T11:51:10Z</time>
      </trkpt>
      <trkpt lat="46.4296300" lon="6.9192300">
        <ele>388.8</ele>
        <time>2019-02-24T11:51:11Z</time>
      </trkpt>
      <trkpt lat="46.4296100" lon="6.9192860">
        <ele>389.0</ele>
        <time>2019-02-24T11:51:12Z</time>
      </trkpt>
      <trkpt lat="46.4295890" lon="6.9193410">
        <ele>389.2</ele>
        <time>2019-02-24T11:51:13Z</time>
      </trkpt>
      <trkpt lat="46.4295670" lon="6.9193970">
        <ele>389.4</ele>
        <time>2019-02-24T11:51:14Z</time>
      </trkpt>
      <trkpt lat="46.4295440" lon="6.9194520">
        <ele>389.5</ele>
        <time>2019-02-24T11:51:15Z</time>
      </trkpt>
      <trkpt lat="46.4295190" lon="6.9195080">
        <ele>389.8</ele>
        <time>2019-02-24T11:51:16Z</time>
      </trkpt>
      <trkpt lat="46.4294940" lon="6.9195630">
        <ele>390.0</ele>
        <time>2019-02-24T11:51:17Z</time>
      </trkpt>
      <trkpt lat="46.4294670" lon="6.9196180">
        <ele>390.3</ele>
        <time>2019-02-24T11:51:18Z</time>
      </trkpt>
      <trkpt lat="46.4294380" lon="6.9196730">
        <ele>390.5</ele>
        <time>2019-02-24T11:51:19Z</time>
      </trkpt>
      <trkpt lat="46.4293940" lon="6.9197560">
        <ele>390.7</ele>
        <time>2019-02-24T11:51:20Z</time>
      </trkpt>
      <trkpt lat="46.4293780" lon="6.9197830">
        <ele>389.8</ele>
        <time>2019-02-24T11:51:21Z</time>
      </trkpt>
      <trkpt lat="46.4293470" lon="6.9198370">
        <ele>390.3</ele>
        <time>2019-02-24T11:51:22Z</time>
      </trkpt>
      <trkpt lat="46.4293140" lon="6.9198900">
        <ele>390.7</ele>
        <time>2019-02-24T11:51:23Z</time>
      </trkpt>
      <trkpt lat="46.4292800" lon="6.9199430">
        <ele>391.1</ele>
        <time>2019-02-24T11:51:24Z</time>
      </trkpt>
      <trkpt lat="46.4292450" lon="6.9199960">
        <ele>390.3</ele>
        <time>2019-02-24T11:51:25Z</time>
      </trkpt>
      <trkpt lat="46.4292100" lon="6.9200480">
        <ele>390.2</ele>
        <time>2019-02-24T11:51:26Z</time>
      </trkpt>
      <trkpt lat="46.4291740" lon="6.9200990">
        <ele>390.4</ele>
        <time>2019-02-24T11:51:27Z</time>
      </trkpt>
      <trkpt lat="46.4291370" lon="6.9201500">
        <ele>390.5</ele>
        <time>2019-02-24T11:51:28Z</time>
      </trkpt>
      <trkpt lat="46.4291000" lon="6.9201990">
        <ele>390.6</ele>
        <time>2019-02-24T11:51:29Z</time>
      </trkpt>
      <trkpt lat="46.4290630" lon="6.9202480">
        <ele>390.7</ele>
        <time>2019-02-24T11:51:30Z</time>
      </trkpt>
      <trkpt lat="46.4290260" lon="6.9202960">
        <ele>390.8</ele>
        <time>2019-02-24T11:51:31Z</time>
      </trkpt>
      <trkpt lat="46.4289890" lon="6.9203440">
        <ele>391.0</ele>
        <time>2019-02-24T11:51:32Z</time>
      </trkpt>
      <trkpt lat="46.4289520" lon="6.9203900">
        <ele>391.1</ele>
        <time>2019-02-24T11:51:33Z</time>
      </trkpt>
      <trkpt lat="46.4289160" lon="6.9204350">
        <ele>391.3</ele>
        <time>2019-02-24T11:51:34Z</time>
      </trkpt>
      <trkpt lat="46.4288800" lon="6.9204790">
        <ele>391.5</ele>
        <time>2019-02-24T11:51:35Z</time>
      </trkpt>
      <trkpt lat="46.4288450" lon="6.9205220">
        <ele>391.7</ele>
        <time>2019-02-24T11:51:36Z</time>
      </trkpt>
      <trkpt lat="46.4288100" lon="6.9205630">
        <ele>391.9</ele>
        <time>2019-02-24T11:51:37Z</time>
      </trkpt>
      <trkpt lat="46.4287770" lon="6.9206040">
        <ele>392.0</ele>
        <time>2019-02-24T11:51:38Z</time>
      </trkpt>
      <trkpt lat="46.4287450" lon="6.9206430">
        <ele>392.2</ele>
        <time>2019-02-24T11:51:39Z</time>
      </trkpt>
      <trkpt lat="46.4287140" lon="6.9206800">
        <ele>392.4</ele>
        <time>2019-02-24T11:51:40Z</time>
      </trkpt>
      <trkpt lat="46.4286840" lon="6.9207170">
        <ele>392.5</ele>
        <time>2019-02-24T11:51:41Z</time>
      </trkpt>
      <trkpt lat="46.4286560" lon="6.9207520">
        <ele>392.5</ele>
        <time>2019-02-24T11:51:42Z</time>
      </trkpt>
      <trkpt lat="46.4286280" lon="6.9207850">
        <ele>392.4</ele>
        <time>2019-02-24T11:51:43Z</time>
      </trkpt>
      <trkpt lat="46.4286020" lon="6.9208180">
        <ele>392.3</ele>
        <time>2019-02-24T11:51:44Z</time>
      </trkpt>
      <trkpt lat="46.4285760" lon="6.9208500">
        <ele>392.2</ele>
        <time>2019-02-24T11:51:45Z</time>
      </trkpt>
      <trkpt lat="46.4285510" lon="6.9208820">
        <ele>392.1</ele>
        <time>2019-02-24T11:51:46Z</time>
      </trkpt>
      <trkpt lat="46.4285260" lon="6.9209130">
        <ele>392.1</ele>
        <time>2019-02-24T11:51:47Z</time>
      </trkpt>
      <trkpt lat="46.4285010" lon="6.9209430">
        <ele>392.0</ele>
        <time>2019-02-24T11:51:48Z</time>
      </trkpt>
      <trkpt lat="46.4284760" lon="6.9209730">
        <ele>391.9</ele>
        <time>2019-02-24T11:51:49Z</time>
      </trkpt>
      <trkpt lat="46.4284520" lon="6.9210030">
        <ele>391.9</ele>
        <time>2019-02-24T11:51:50Z</time>
      </trkpt>
      <trkpt lat="46.4284270" lon="6.9210320">
        <ele>391.8</ele>
        <time>2019-02-24T11:51:51Z</time>
      </trkpt>
      <trkpt lat="46.4284020" lon="6.9210610">
        <ele>391.8</ele>
        <time>2019-02-24T11:51:52Z</time>
      </trkpt>
      <trkpt lat="46.4283770" lon="6.9210890">
        <ele>391.7</ele>
        <time>2019-02-24T11:51:53Z</time>
      </trkpt>
      <trkpt lat="46.4283520" lon="6.9211170">
        <ele>391.6</ele>
        <time>2019-02-24T11:51:54Z</time>
      </trkpt>
      <trkpt lat="46.4283260" lon="6.9211430">
        <ele>391.6</ele>
        <time>2019-02-24T11:51:55Z</time>
      </trkpt>
      <trkpt lat="46.4283000" lon="6.9211680">
        <ele>391.5</ele>
        <time>2019-02-24T11:51:56Z</time>
      </trkpt>
      <trkpt lat="46.4282730" lon="6.9211930">
        <ele>391.4</ele>
        <time>2019-02-24T11:51:57Z</time>
      </trkpt>
      <trkpt lat="46.4282460" lon="6.9212160">
        <ele>391.4</ele>
        <time>2019-02-24T11:51:58Z</time>
      </trkpt>
      <trkpt lat="46.4282180" lon="6.9212400">
        <ele>391.3</ele>
        <time>2019-02-24T11:51:59Z</time>
      </trkpt>
      <trkpt lat="46.4281910" lon="6.9212620">
        <ele>391.3</ele>
        <time>2019-02-24T11:52:00Z</time>
      </trkpt>
      <trkpt lat="46.4281630" lon="6.9212860">
        <ele>391.2</ele>
        <time>2019-02-24T11:52:01Z</time>
      </trkpt>
      <trkpt lat="46.4281360" lon="6.9213090">
        <ele>391.1</ele>
        <time>2019-02-24T11:52:02Z</time>
      </trkpt>
      <trkpt lat="46.4281090" lon="6.9213330">
        <ele>391.0</ele>
        <time>2019-02-24T11:52:03Z</time>
      </trkpt>
      <trkpt lat="46.4280820" lon="6.9213590">
        <ele>390.9</ele>
        <time>2019-02-24T11:52:04Z</time>
      </trkpt>
      <trkpt lat="46.4280560" lon="6.9213850">
        <ele>390.8</ele>
        <time>2019-02-24T11:52:05Z</time>
      </trkpt>
      <trkpt lat="46.4280300" lon="6.9214140">
        <ele>390.8</ele>
        <time>2019-02-24T11:52:06Z</time>
      </trkpt>
      <trkpt lat="46.4280040" lon="6.9214430">
        <ele>390.7</ele>
        <time>2019-02-24T11:52:07Z</time>
      </trkpt>
      <trkpt lat="46.4279790" lon="6.9214740">
        <ele>390.6</ele>
        <time>2019-02-24T11:52:08Z</time>
      </trkpt>
      <trkpt lat="46.4279530" lon="6.9215060">
        <ele>390.4</ele>
        <time>2019-02-24T11:52:09Z</time>
      </trkpt>
      <trkpt lat="46.4279260" lon="6.9215390">
        <ele>390.2</ele>
        <time>2019-02-24T11:52:10Z</time>
      </trkpt>
      <trkpt lat="46.4278990" lon="6.9215730">
        <ele>390.0</ele>
        <time>2019-02-24T11:52:11Z</time>
      </trkpt>
      <trkpt lat="46.4278700" lon="6.9216090">
        <ele>389.7</ele>
        <time>2019-02-24T11:52:12Z</time>
      </trkpt>
      <trkpt lat="46.4278410" lon="6.9216450">
        <ele>389.5</ele>
        <time>2019-02-24T11:52:13Z</time>
      </trkpt>
      <trkpt lat="46.4278090" lon="6.9216820">
        <ele>389.2</ele>
        <time>2019-02-24T11:52:14Z</time>
      </trkpt>
      <trkpt lat="46.4277550" lon="6.9217400">
        <ele>388.7</ele>
        <time>2019-02-24T11:52:15Z</time>
      </trkpt>
      <trkpt lat="46.4277350" lon="6.9217590">
        <ele>388.5</ele>
        <time>2019-02-24T11:52:16Z</time>
      </trkpt>
      <trkpt lat="46.4276910" lon="6.9217970">
        <ele>388.1</ele>
        <time>2019-02-24T11:52:17Z</time>
      </trkpt>
      <trkpt lat="46.4276430" lon="6.9218360">
        <ele>387.7</ele>
        <time>2019-02-24T11:52:18Z</time>
      </trkpt>
      <trkpt lat="46.4275910" lon="6.9218760">
        <ele>387.2</ele>
        <time>2019-02-24T11:52:19Z</time>
      </trkpt>
      <trkpt lat="46.4274970" lon="6.9219440">
        <ele>386.5</ele>
        <time>2019-02-24T11:52:20Z</time>
      </trkpt>
      <trkpt lat="46.4274570" lon="6.9219720">
        <ele>386.2</ele>
        <time>2019-02-24T11:52:21Z</time>
      </trkpt>
      <trkpt lat="46.4274180" lon="6.9220000">
        <ele>385.9</ele>
        <time>2019-02-24T11:52:22Z</time>
      </trkpt>
      <trkpt lat="46.4273560" lon="6.9220420">
        <ele>385.4</ele>
        <time>2019-02-24T11:52:23Z</time>
      </trkpt>
      <trkpt lat="46.4272920" lon="6.9220840">
        <ele>384.8</ele>
        <time>2019-02-24T11:52:24Z</time>
      </trkpt>
      <trkpt lat="46.4272260" lon="6.9221260">
        <ele>384.2</ele>
        <time>2019-02-24T11:52:25Z</time>
      </trkpt>
      <trkpt lat="46.4271590" lon="6.9221670">
        <ele>383.6</ele>
        <time>2019-02-24T11:52:26Z</time>
      </trkpt>
      <trkpt lat="46.4270920" lon="6.9222060">
        <ele>383.1</ele>
        <time>2019-02-24T11:52:27Z</time>
      </trkpt>
      <trkpt lat="46.4270260" lon="6.9222420">
        <ele>382.6</ele>
        <time>2019-02-24T11:52:28Z</time>
      </trkpt>
      <trkpt lat="46.4269610" lon="6.9222740">
        <ele>382.1</ele>
        <time>2019-02-24T11:52:29Z</time>
      </trkpt>
      <trkpt lat="46.4268970" lon="6.9223040">
        <ele>381.5</ele>
        <time>2019-02-24T11:52:30Z</time>
      </trkpt>
      <trkpt lat="46.4268320" lon="6.9223330">
        <ele>381.0</ele>
        <time>2019-02-24T11:52:31Z</time>
      </trkpt>
      <trkpt lat="46.4267650" lon="6.9223650">
        <ele>380.5</ele>
        <time>2019-02-24T11:52:32Z</time>
      </trkpt>
      <trkpt lat="46.4266950" lon="6.9223980">
        <ele>380.0</ele>
        <time>2019-02-24T11:52:33Z</time>
      </trkpt>
      <trkpt lat="46.4266250" lon="6.9224310">
        <ele>379.4</ele>
        <time>2019-02-24T11:52:34Z</time>
      </trkpt>
      <trkpt lat="46.4265540" lon="6.9224620">
        <ele>378.8</ele>
        <time>2019-02-24T11:52:35Z</time>
      </trkpt>
      <trkpt lat="46.4264840" lon="6.9224870">
        <ele>378.3</ele>
        <time>2019-02-24T11:52:36Z</time>
      </trkpt>
      <trkpt lat="46.4264170" lon="6.9225040">
        <ele>377.9</ele>
        <time>2019-02-24T11:52:37Z</time>
      </trkpt>
      <trkpt lat="46.4263530" lon="6.9225150">
        <ele>377.6</ele>
        <time>2019-02-24T11:52:38Z</time>
      </trkpt>
      <trkpt lat="46.4262920" lon="6.9225240">
        <ele>377.2</ele>
        <time>2019-02-24T11:52:39Z</time>
      </trkpt>
      <trkpt lat="46.4262340" lon="6.9225330">
        <ele>376.9</ele>
        <time>2019-02-24T11:52:40Z</time>
      </trkpt>
      <trkpt lat="46.4261800" lon="6.9225440">
        <ele>376.7</ele>
        <time>2019-02-24T11:52:41Z</time>
      </trkpt>
      <trkpt lat="46.4261280" lon="6.9225590">
        <ele>376.3</ele>
        <time>2019-02-24T11:52:42Z</time>
      </trkpt>
      <trkpt lat="46.4260780" lon="6.9225780">
        <ele>376.2</ele>
        <time>2019-02-24T11:52:43Z</time>
      </trkpt>
      <trkpt lat="46.4260290" lon="6.9225990">
        <ele>375.7</ele>
        <time>2019-02-24T11:52:44Z</time>
      </trkpt>
      <trkpt lat="46.4259810" lon="6.9226240">
        <ele>375.5</ele>
        <time>2019-02-24T11:52:45Z</time>
      </trkpt>
      <trkpt lat="46.4259320" lon="6.9226500">
        <ele>375.3</ele>
        <time>2019-02-24T11:52:46Z</time>
      </trkpt>
      <trkpt lat="46.4258840" lon="6.9226780">
        <ele>375.2</ele>
        <time>2019-02-24T11:52:47Z</time>
      </trkpt>
      <trkpt lat="46.4258370" lon="6.9227050">
        <ele>375.1</ele>
        <time>2019-02-24T11:52:48Z</time>
      </trkpt>
      <trkpt lat="46.4257910" lon="6.9227300">
        <ele>375.0</ele>
        <time>2019-02-24T11:52:49Z</time>
      </trkpt>
      <trkpt lat="46.4257450" lon="6.9227530">
        <ele>374.9</ele>
        <time>2019-02-24T11:52:50Z</time>
      </trkpt>
      <trkpt lat="46.4257010" lon="6.9227740">
        <ele>374.7</ele>
        <time>2019-02-24T11:52:51Z</time>
      </trkpt>
      <trkpt lat="46.4256590" lon="6.9227930">
        <ele>374.5</ele>
        <time>2019-02-24T11:52:52Z</time>
      </trkpt>
      <trkpt lat="46.4256180" lon="6.9228080">
        <ele>374.3</ele>
        <time>2019-02-24T11:52:53Z</time>
      </trkpt>
      <trkpt lat="46.4255790" lon="6.9228190">
        <ele>374.1</ele>
        <time>2019-02-24T11:52:54Z</time>
      </trkpt>
      <trkpt lat="46.4255430" lon="6.9228240">
        <ele>373.9</ele>
        <time>2019-02-24T11:52:55Z</time>
      </trkpt>
      <trkpt lat="46.4255100" lon="6.9228220">
        <ele>373.8</ele>
        <time>2019-02-24T11:52:56Z</time>
      </trkpt>
      <trkpt lat="46.4254810" lon="6.9228110">
        <ele>373.5</ele>
        <time>2019-02-24T11:52:57Z</time>
      </trkpt>
      <trkpt lat="46.4254540" lon="6.9227930">
        <ele>373.3</ele>
        <time>2019-02-24T11:52:58Z</time>
      </trkpt>
      <trkpt lat="46.4254300" lon="6.9227700">
        <ele>373.1</ele>
        <time>2019-02-24T11:52:59Z</time>
      </trkpt>
      <trkpt lat="46.4254060" lon="6.9227460">
        <ele>372.9</ele>
        <time>2019-02-24T11:53:00Z</time>
      </trkpt>
      <trkpt lat="46.4253820" lon="6.9227230">
        <ele>372.8</ele>
        <time>2019-02-24T11:53:01Z</time>
      </trkpt>
      <trkpt lat="46.4253580" lon="6.9227020">
        <ele>372.6</ele>
        <time>2019-02-24T11:53:02Z</time>
      </trkpt>
      <trkpt lat="46.4253350" lon="6.9226850">
        <ele>372.5</ele>
        <time>2019-02-24T11:53:03Z</time>
      </trkpt>
      <trkpt lat="46.4253110" lon="6.9226740">
        <ele>372.3</ele>
        <time>2019-02-24T11:53:04Z</time>
      </trkpt>
      <trkpt lat="46.4252880" lon="6.9226710">
        <ele>372.2</ele>
        <time>2019-02-24T11:53:05Z</time>
      </trkpt>
      <trkpt lat="46.4252650" lon="6.9226740">
        <ele>372.1</ele>
        <time>2019-02-24T11:53:06Z</time>
      </trkpt>
      <trkpt lat="46.4252410" lon="6.9226820">
        <ele>372.0</ele>
        <time>2019-02-24T11:53:07Z</time>
      </trkpt>
      <trkpt lat="46.4252160" lon="6.9226940">
        <ele>371.8</ele>
        <time>2019-02-24T11:53:08Z</time>
      </trkpt>
      <trkpt lat="46.4251890" lon="6.9227080">
        <ele>371.7</ele>
        <time>2019-02-24T11:53:09Z</time>
      </trkpt>
      <trkpt lat="46.4251600" lon="6.9227240">
        <ele>371.5</ele>
        <time>2019-02-24T11:53:10Z</time>
      </trkpt>
      <trkpt lat="46.4251290" lon="6.9227430">
        <ele>371.4</ele>
        <time>2019-02-24T11:53:11Z</time>
      </trkpt>
      <trkpt lat="46.4250970" lon="6.9227630">
        <ele>371.2</ele>
        <time>2019-02-24T11:53:12Z</time>
      </trkpt>
      <trkpt lat="46.4250630" lon="6.9227860">
        <ele>371.1</ele>
        <time>2019-02-24T11:53:13Z</time>
      </trkpt>
      <trkpt lat="46.4250290" lon="6.9228110">
        <ele>371.0</ele>
        <time>2019-02-24T11:53:14Z</time>
      </trkpt>
      <trkpt lat="46.4249950" lon="6.9228380">
        <ele>370.8</ele>
        <time>2019-02-24T11:53:15Z</time>
      </trkpt>
      <trkpt lat="46.4249590" lon="6.9228670">
        <ele>370.7</ele>
        <time>2019-02-24T11:53:16Z</time>
      </trkpt>
      <trkpt lat="46.4249240" lon="6.9228990">
        <ele>370.6</ele>
        <time>2019-02-24T11:53:17Z</time>
      </trkpt>
      <trkpt lat="46.4248900" lon="6.9229330">
        <ele>370.5</ele>
        <time>2019-02-24T11:53:18Z</time>
      </trkpt>
      <trkpt lat="46.4248570" lon="6.9229690">
        <ele>370.5</ele>
        <time>2019-02-24T11:53:19Z</time>
      </trkpt>
      <trkpt lat="46.4248260" lon="6.9230090">
        <ele>370.4</ele>
        <time>2019-02-24T11:53:20Z</time>
      </trkpt>
      <trkpt lat="46.4247990" lon="6.9230520">
        <ele>370.4</ele>
        <time>2019-02-24T11:53:21Z</time>
      </trkpt>
      <trkpt lat="46.4247710" lon="6.9230950">
        <ele>370.3</ele>
        <time>2019-02-24T11:53:22Z</time>
      </trkpt>
      <trkpt lat="46.4247470" lon="6.9231370">
        <ele>370.3</ele>
        <time>2019-02-24T11:53:23Z</time>
      </trkpt>
      <trkpt lat="46.4247230" lon="6.9231740">
        <ele>370.3</ele>
        <time>2019-02-24T11:53:24Z</time>
      </trkpt>
      <trkpt lat="46.4246990" lon="6.9232070">
        <ele>370.4</ele>
        <time>2019-02-24T11:53:25Z</time>
      </trkpt>
      <trkpt lat="46.4246750" lon="6.9232350">
        <ele>370.4</ele>
        <time>2019-02-24T11:53:26Z</time>
      </trkpt>
      <trkpt lat="46.4246500" lon="6.9232610">
        <ele>370.4</ele>
        <time>2019-02-24T11:53:27Z</time>
      </trkpt>
      <trkpt lat="46.4246220" lon="6.9232890">
        <ele>370.4</ele>
        <time>2019-02-24T11:53:28Z</time>
      </trkpt>
      <trkpt lat="46.4245920" lon="6.9233200">
        <ele>370.4</ele>
        <time>2019-02-24T11:53:29Z</time>
      </trkpt>
      <trkpt lat="46.4245600" lon="6.9233540">
        <ele>370.4</ele>
        <time>2019-02-24T11:53:30Z</time>
      </trkpt>
      <trkpt lat="46.4245270" lon="6.9233900">
        <ele>370.4</ele>
        <time>2019-02-24T11:53:31Z</time>
      </trkpt>
      <trkpt lat="46.4244930" lon="6.9234260">
        <ele>370.4</ele>
        <time>2019-02-24T11:53:32Z</time>
      </trkpt>
      <trkpt lat="46.4244600" lon="6.9234630">
        <ele>370.4</ele>
        <time>2019-02-24T11:53:33Z</time>
      </trkpt>
      <trkpt lat="46.4244270" lon="6.9234980">
        <ele>370.3</ele>
        <time>2019-02-24T11:53:34Z</time>
      </trkpt>
      <trkpt lat="46.4243710" lon="6.9235530">
        <ele>370.2</ele>
        <time>2019-02-24T11:53:35Z</time>
      </trkpt>
      <trkpt lat="46.4243480" lon="6.9235730">
        <ele>370.2</ele>
        <time>2019-02-24T11:53:36Z</time>
      </trkpt>
      <trkpt lat="46.4243250" lon="6.9235940">
        <ele>370.1</ele>
        <time>2019-02-24T11:53:37Z</time>
      </trkpt>
      <trkpt lat="46.4242890" lon="6.9236210">
        <ele>370.1</ele>
        <time>2019-02-24T11:53:38Z</time>
      </trkpt>
      <trkpt lat="46.4242540" lon="6.9236500">
        <ele>370.0</ele>
        <time>2019-02-24T11:53:39Z</time>
      </trkpt>
      <trkpt lat="46.4242210" lon="6.9236840">
        <ele>369.9</ele>
        <time>2019-02-24T11:53:40Z</time>
      </trkpt>
      <trkpt lat="46.4241630" lon="6.9237290">
        <ele>369.9</ele>
        <time>2019-02-24T11:53:41Z</time>
      </trkpt>
      <trkpt lat="46.4241390" lon="6.9237420">
        <ele>369.8</ele>
        <time>2019-02-24T11:53:42Z</time>
      </trkpt>
      <trkpt lat="46.4241140" lon="6.9237540">
        <ele>369.8</ele>
        <time>2019-02-24T11:53:43Z</time>
      </trkpt>
      <trkpt lat="46.4240730" lon="6.9237560">
        <ele>369.8</ele>
        <time>2019-02-24T11:53:44Z</time>
      </trkpt>
      <trkpt lat="46.4240310" lon="6.9237530">
        <ele>369.8</ele>
        <time>2019-02-24T11:53:45Z</time>
      </trkpt>
      <trkpt lat="46.4239880" lon="6.9237510">
        <ele>369.8</ele>
        <time>2019-02-24T11:53:46Z</time>
      </trkpt>
      <trkpt lat="46.4239450" lon="6.9237520">
        <ele>369.9</ele>
        <time>2019-02-24T11:53:47Z</time>
      </trkpt>
      <trkpt lat="46.4239020" lon="6.9237540">
        <ele>369.9</ele>
        <time>2019-02-24T11:53:48Z</time>
      </trkpt>
      <trkpt lat="46.4238580" lon="6.9237560">
        <ele>369.9</ele>
        <time>2019-02-24T11:53:49Z</time>
      </trkpt>
      <trkpt lat="46.4238150" lon="6.9237600">
        <ele>370.0</ele>
        <time>2019-02-24T11:53:50Z</time>
      </trkpt>
      <trkpt lat="46.4237720" lon="6.9237640">
        <ele>370.0</ele>
        <time>2019-02-24T11:53:51Z</time>
      </trkpt>
      <trkpt lat="46.4237280" lon="6.9237680">
        <ele>370.1</ele>
        <time>2019-02-24T11:53:52Z</time>
      </trkpt>
      <trkpt lat="46.4236850" lon="6.9237710">
        <ele>370.2</ele>
        <time>2019-02-24T11:53:53Z</time>
      </trkpt>
      <trkpt lat="46.4236420" lon="6.9237740">
        <ele>370.3</ele>
        <time>2019-02-24T11:53:54Z</time>
      </trkpt>
      <trkpt lat="46.4236000" lon="6.9237760">
        <ele>370.3</ele>
        <time>2019-02-24T11:53:55Z</time>
      </trkpt>
      <trkpt lat="46.4235570" lon="6.9237770">
        <ele>370.4</ele>
        <time>2019-02-24T11:53:56Z</time>
      </trkpt>
      <trkpt lat="46.4235150" lon="6.9237770">
        <ele>370.4</ele>
        <time>2019-02-24T11:53:57Z</time>
      </trkpt>
      <trkpt lat="46.4234740" lon="6.9237740">
        <ele>370.4</ele>
        <time>2019-02-24T11:53:58Z</time>
      </trkpt>
      <trkpt lat="46.4234320" lon="6.9237700">
        <ele>370.4</ele>
        <time>2019-02-24T11:53:59Z</time>
      </trkpt>
      <trkpt lat="46.4233900" lon="6.9237650">
        <ele>370.4</ele>
        <time>2019-02-24T11:54:00Z</time>
      </trkpt>
      <trkpt lat="46.4233480" lon="6.9237600">
        <ele>370.4</ele>
        <time>2019-02-24T11:54:01Z</time>
      </trkpt>
      <trkpt lat="46.4233050" lon="6.9237540">
        <ele>370.4</ele>
        <time>2019-02-24T11:54:02Z</time>
      </trkpt>
      <trkpt lat="46.4232620" lon="6.9237490">
        <ele>370.4</ele>
        <time>2019-02-24T11:54:03Z</time>
      </trkpt>
      <trkpt lat="46.4232180" lon="6.9237420">
        <ele>370.4</ele>
        <time>2019-02-24T11:54:04Z</time>
      </trkpt>
      <trkpt lat="46.4231730" lon="6.9237360">
        <ele>370.4</ele>
        <time>2019-02-24T11:54:05Z</time>
      </trkpt>
      <trkpt lat="46.4231290" lon="6.9237280">
        <ele>370.4</ele>
        <time>2019-02-24T11:54:06Z</time>
      </trkpt>
      <trkpt lat="46.4230850" lon="6.9237200">
        <ele>370.4</ele>
        <time>2019-02-24T11:54:07Z</time>
      </trkpt>
      <trkpt lat="46.4230400" lon="6.9237110">
        <ele>370.4</ele>
        <time>2019-02-24T11:54:08Z</time>
      </trkpt>
      <trkpt lat="46.4229960" lon="6.9237010">
        <ele>370.4</ele>
        <time>2019-02-24T11:54:09Z</time>
      </trkpt>
      <trkpt lat="46.4229510" lon="6.9236910">
        <ele>370.4</ele>
        <time>2019-02-24T11:54:10Z</time>
      </trkpt>
      <trkpt lat="46.4229070" lon="6.9236800">
        <ele>370.4</ele>
        <time>2019-02-24T11:54:11Z</time>
      </trkpt>
      <trkpt lat="46.4228620" lon="6.9236690">
        <ele>370.4</ele>
        <time>2019-02-24T11:54:12Z</time>
      </trkpt>
      <trkpt lat="46.4228170" lon="6.9236580">
        <ele>370.4</ele>
        <time>2019-02-24T11:54:13Z</time>
      </trkpt>
      <trkpt lat="46.4227720" lon="6.9236460">
        <ele>370.4</ele>
        <time>2019-02-24T11:54:14Z</time>
      </trkpt>
      <trkpt lat="46.4227270" lon="6.9236340">
        <ele>370.4</ele>
        <time>2019-02-24T11:54:15Z</time>
      </trkpt>
      <trkpt lat="46.4226820" lon="6.9236220">
        <ele>370.3</ele>
        <time>2019-02-24T11:54:16Z</time>
      </trkpt>
      <trkpt lat="46.4226360" lon="6.9236090">
        <ele>370.3</ele>
        <time>2019-02-24T11:54:17Z</time>
      </trkpt>
      <trkpt lat="46.4225900" lon="6.9235970">
        <ele>370.3</ele>
        <time>2019-02-24T11:54:18Z</time>
      </trkpt>
      <trkpt lat="46.4225450" lon="6.9235850">
        <ele>370.3</ele>
        <time>2019-02-24T11:54:19Z</time>
      </trkpt>
      <trkpt lat="46.4224980" lon="6.9235730">
        <ele>370.3</ele>
        <time>2019-02-24T11:54:20Z</time>
      </trkpt>
      <trkpt lat="46.4224520" lon="6.9235610">
        <ele>370.3</ele>
        <time>2019-02-24T11:54:21Z</time>
      </trkpt>
      <trkpt lat="46.4224060" lon="6.9235490">
        <ele>370.3</ele>
        <time>2019-02-24T11:54:22Z</time>
      </trkpt>
      <trkpt lat="46.4223590" lon="6.9235370">
        <ele>370.3</ele>
        <time>2019-02-24T11:54:23Z</time>
      </trkpt>
      <trkpt lat="46.4223130" lon="6.9235250">
        <ele>370.3</ele>
        <time>2019-02-24T11:54:24Z</time>
      </trkpt>
      <trkpt lat="46.4222670" lon="6.9235140">
        <ele>370.3</ele>
        <time>2019-02-24T11:54:25Z</time>
      </trkpt>
      <trkpt lat="46.4222210" lon="6.9235030">
        <ele>370.3</ele>
        <time>2019-02-24T11:54:26Z</time>
      </trkpt>
      <trkpt lat="46.4221760" lon="6.9234910">
        <ele>370.3</ele>
        <time>2019-02-24T11:54:27Z</time>
      </trkpt>
      <trkpt lat="46.4221310" lon="6.9234790">
        <ele>370.3</ele>
        <time>2019-02-24T11:54:28Z</time>
      </trkpt>
      <trkpt lat="46.4220860" lon="6.9234660">
        <ele>370.3</ele>
        <time>2019-02-24T11:54:29Z</time>
      </trkpt>
      <trkpt lat="46.4220400" lon="6.9234510">
        <ele>370.3</ele>
        <time>2019-02-24T11:54:30Z</time>
      </trkpt>
      <trkpt lat="46.4219940" lon="6.9234370">
        <ele>370.3</ele>
        <time>2019-02-24T11:54:31Z</time>
      </trkpt>
      <trkpt lat="46.4219480" lon="6.9234240">
        <ele>370.3</ele>
        <time>2019-02-24T11:54:32Z</time>
      </trkpt>
      <trkpt lat="46.4219020" lon="6.9234150">
        <ele>370.2</ele>
        <time>2019-02-24T11:54:33Z</time>
      </trkpt>
      <trkpt lat="46.4218560" lon="6.9234100">
        <ele>370.2</ele>
        <time>2019-02-24T11:54:34Z</time>
      </trkpt>
      <trkpt lat="46.4218100" lon="6.9234090">
        <ele>370.2</ele>
        <time>2019-02-24T11:54:35Z</time>
      </trkpt>
      <trkpt lat="46.4217650" lon="6.9234100">
        <ele>370.2</ele>
        <time>2019-02-24T11:54:36Z</time>
      </trkpt>
      <trkpt lat="46.4217200" lon="6.9234110">
        <ele>370.2</ele>
        <time>2019-02-24T11:54:37Z</time>
      </trkpt>
      <trkpt lat="46.4216760" lon="6.9234110">
        <ele>370.2</ele>
        <time>2019-02-24T11:54:38Z</time>
      </trkpt>
      <trkpt lat="46.4216320" lon="6.9234110">
        <ele>370.2</ele>
        <time>2019-02-24T11:54:39Z</time>
      </trkpt>
      <trkpt lat="46.4215880" lon="6.9234120">
        <ele>370.2</ele>
        <time>2019-02-24T11:54:40Z</time>
      </trkpt>
      <trkpt lat="46.4215430" lon="6.9234130">
        <ele>370.2</ele>
        <time>2019-02-24T11:54:41Z</time>
      </trkpt>
      <trkpt lat="46.4214970" lon="6.9234160">
        <ele>370.3</ele>
        <time>2019-02-24T11:54:42Z</time>
      </trkpt>
      <trkpt lat="46.4214500" lon="6.9234210">
        <ele>370.3</ele>
        <time>2019-02-24T11:54:43Z</time>
      </trkpt>
      <trkpt lat="46.4214040" lon="6.9234260">
        <ele>370.4</ele>
        <time>2019-02-24T11:54:44Z</time>
      </trkpt>
      <trkpt lat="46.4213590" lon="6.9234320">
        <ele>370.4</ele>
        <time>2019-02-24T11:54:45Z</time>
      </trkpt>
      <trkpt lat="46.4213160" lon="6.9234380">
        <ele>370.5</ele>
        <time>2019-02-24T11:54:46Z</time>
      </trkpt>
      <trkpt lat="46.4212740" lon="6.9234450">
        <ele>370.6</ele>
        <time>2019-02-24T11:54:47Z</time>
      </trkpt>
      <trkpt lat="46.4212350" lon="6.9234520">
        <ele>370.6</ele>
        <time>2019-02-24T11:54:48Z</time>
      </trkpt>
      <trkpt lat="46.4211960" lon="6.9234590">
        <ele>370.7</ele>
        <time>2019-02-24T11:54:49Z</time>
      </trkpt>
      <trkpt lat="46.4211590" lon="6.9234660">
        <ele>370.8</ele>
        <time>2019-02-24T11:54:50Z</time>
      </trkpt>
      <trkpt lat="46.4211230" lon="6.9234730">
        <ele>370.9</ele>
        <time>2019-02-24T11:54:51Z</time>
      </trkpt>
      <trkpt lat="46.4210870" lon="6.9234810">
        <ele>370.9</ele>
        <time>2019-02-24T11:54:52Z</time>
      </trkpt>
      <trkpt lat="46.4210520" lon="6.9234890">
        <ele>370.8</ele>
        <time>2019-02-24T11:54:53Z</time>
      </trkpt>
      <trkpt lat="46.4210170" lon="6.9234970">
        <ele>370.8</ele>
        <time>2019-02-24T11:54:54Z</time>
      </trkpt>
      <trkpt lat="46.4209830" lon="6.9235070">
        <ele>370.7</ele>
        <time>2019-02-24T11:54:55Z</time>
      </trkpt>
      <trkpt lat="46.4209480" lon="6.9235200">
        <ele>370.7</ele>
        <time>2019-02-24T11:54:56Z</time>
      </trkpt>
      <trkpt lat="46.4209130" lon="6.9235360">
        <ele>370.7</ele>
        <time>2019-02-24T11:54:57Z</time>
      </trkpt>
      <trkpt lat="46.4208770" lon="6.9235570">
        <ele>370.7</ele>
        <time>2019-02-24T11:54:58Z</time>
      </trkpt>
      <trkpt lat="46.4208410" lon="6.9235820">
        <ele>370.7</ele>
        <time>2019-02-24T11:54:59Z</time>
      </trkpt>
      <trkpt lat="46.4208050" lon="6.9236110">
        <ele>370.6</ele>
        <time>2019-02-24T11:55:00Z</time>
      </trkpt>
      <trkpt lat="46.4207680" lon="6.9236430">
        <ele>370.6</ele>
        <time>2019-02-24T11:55:01Z</time>
      </trkpt>
      <trkpt lat="46.4207330" lon="6.9236790">
        <ele>370.6</ele>
        <time>2019-02-24T11:55:02Z</time>
      </trkpt>
      <trkpt lat="46.4206980" lon="6.9237160">
        <ele>370.6</ele>
        <time>2019-02-24T11:55:03Z</time>
      </trkpt>
      <trkpt lat="46.4206640" lon="6.9237560">
        <ele>370.6</ele>
        <time>2019-02-24T11:55:04Z</time>
      </trkpt>
      <trkpt lat="46.4206310" lon="6.9237960">
        <ele>370.6</ele>
        <time>2019-02-24T11:55:05Z</time>
      </trkpt>
      <trkpt lat="46.4205990" lon="6.9238380">
        <ele>370.6</ele>
        <time>2019-02-24T11:55:06Z</time>
      </trkpt>
      <trkpt lat="46.4205680" lon="6.9238800">
        <ele>370.7</ele>
        <time>2019-02-24T11:55:07Z</time>
      </trkpt>
      <trkpt lat="46.4205390" lon="6.9239230">
        <ele>370.7</ele>
        <time>2019-02-24T11:55:08Z</time>
      </trkpt>
      <trkpt lat="46.4205120" lon="6.9239650">
        <ele>370.8</ele>
        <time>2019-02-24T11:55:09Z</time>
      </trkpt>
      <trkpt lat="46.4204860" lon="6.9240060">
        <ele>370.8</ele>
        <time>2019-02-24T11:55:10Z</time>
      </trkpt>
      <trkpt lat="46.4204620" lon="6.9240470">
        <ele>370.9</ele>
        <time>2019-02-24T11:55:11Z</time>
      </trkpt>
      <trkpt lat="46.4204370" lon="6.9240840">
        <ele>370.9</ele>
        <time>2019-02-24T11:55:12Z</time>
      </trkpt>
      <trkpt lat="46.4204110" lon="6.9241210">
        <ele>370.9</ele>
        <time>2019-02-24T11:55:13Z</time>
      </trkpt>
      <trkpt lat="46.4203830" lon="6.9241540">
        <ele>371.0</ele>
        <time>2019-02-24T11:55:14Z</time>
      </trkpt>
      <trkpt lat="46.4203530" lon="6.9241860">
        <ele>371.0</ele>
        <time>2019-02-24T11:55:15Z</time>
      </trkpt>
      <trkpt lat="46.4203210" lon="6.9242190">
        <ele>370.9</ele>
        <time>2019-02-24T11:55:16Z</time>
      </trkpt>
      <trkpt lat="46.4202890" lon="6.9242550">
        <ele>370.9</ele>
        <time>2019-02-24T11:55:17Z</time>
      </trkpt>
      <trkpt lat="46.4202570" lon="6.9242960">
        <ele>370.9</ele>
        <time>2019-02-24T11:55:18Z</time>
      </trkpt>
      <trkpt lat="46.4202240" lon="6.9243390">
        <ele>370.9</ele>
        <time>2019-02-24T11:55:19Z</time>
      </trkpt>
      <trkpt lat="46.4201700" lon="6.9244140">
        <ele>370.9</ele>
        <time>2019-02-24T11:55:20Z</time>
      </trkpt>
      <trkpt lat="46.4201490" lon="6.9244440">
        <ele>370.8</ele>
        <time>2019-02-24T11:55:21Z</time>
      </trkpt>
      <trkpt lat="46.4201280" lon="6.9244740">
        <ele>370.8</ele>
        <time>2019-02-24T11:55:22Z</time>
      </trkpt>
      <trkpt lat="46.4200970" lon="6.9245170">
        <ele>370.8</ele>
        <time>2019-02-24T11:55:23Z</time>
      </trkpt>
      <trkpt lat="46.4200660" lon="6.9245600">
        <ele>370.8</ele>
        <time>2019-02-24T11:55:24Z</time>
      </trkpt>
      <trkpt lat="46.4200140" lon="6.9246340">
        <ele>370.8</ele>
        <time>2019-02-24T11:55:25Z</time>
      </trkpt>
      <trkpt lat="46.4199940" lon="6.9246630">
        <ele>370.8</ele>
        <time>2019-02-24T11:55:26Z</time>
      </trkpt>
      <trkpt lat="46.4199730" lon="6.9246930">
        <ele>370.8</ele>
        <time>2019-02-24T11:55:27Z</time>
      </trkpt>
      <trkpt lat="46.4199420" lon="6.9247390">
        <ele>370.7</ele>
        <time>2019-02-24T11:55:28Z</time>
      </trkpt>
      <trkpt lat="46.4199120" lon="6.9247860">
        <ele>370.7</ele>
        <time>2019-02-24T11:55:29Z</time>
      </trkpt>
      <trkpt lat="46.4198810" lon="6.9248320">
        <ele>370.7</ele>
        <time>2019-02-24T11:55:30Z</time>
      </trkpt>
      <trkpt lat="46.4198500" lon="6.9248800">
        <ele>370.7</ele>
        <time>2019-02-24T11:55:31Z</time>
      </trkpt>
      <trkpt lat="46.4198200" lon="6.9249270">
        <ele>370.7</ele>
        <time>2019-02-24T11:55:32Z</time>
      </trkpt>
      <trkpt lat="46.4197910" lon="6.9249740">
        <ele>370.7</ele>
        <time>2019-02-24T11:55:33Z</time>
      </trkpt>
      <trkpt lat="46.4197610" lon="6.9250220">
        <ele>370.7</ele>
        <time>2019-02-24T11:55:34Z</time>
      </trkpt>
      <trkpt lat="46.4197320" lon="6.9250690">
        <ele>370.8</ele>
        <time>2019-02-24T11:55:35Z</time>
      </trkpt>
      <trkpt lat="46.4197030" lon="6.9251170">
        <ele>370.8</ele>
        <time>2019-02-24T11:55:36Z</time>
      </trkpt>
      <trkpt lat="46.4196740" lon="6.9251640">
        <ele>370.8</ele>
        <time>2019-02-24T11:55:37Z</time>
      </trkpt>
      <trkpt lat="46.4196450" lon="6.9252120">
        <ele>370.8</ele>
        <time>2019-02-24T11:55:38Z</time>
      </trkpt>
      <trkpt lat="46.4196160" lon="6.9252590">
        <ele>370.8</ele>
        <time>2019-02-24T11:55:39Z</time>
      </trkpt>
      <trkpt lat="46.4195870" lon="6.9253070">
        <ele>370.9</ele>
        <time>2019-02-24T11:55:40Z</time>
      </trkpt>
      <trkpt lat="46.4195580" lon="6.9253530">
        <ele>370.9</ele>
        <time>2019-02-24T11:55:41Z</time>
      </trkpt>
      <trkpt lat="46.4195280" lon="6.9253990">
        <ele>370.9</ele>
        <time>2019-02-24T11:55:42Z</time>
      </trkpt>
      <trkpt lat="46.4194990" lon="6.9254430">
        <ele>370.9</ele>
        <time>2019-02-24T11:55:43Z</time>
      </trkpt>
      <trkpt lat="46.4194700" lon="6.9254870">
        <ele>370.9</ele>
        <time>2019-02-24T11:55:44Z</time>
      </trkpt>
      <trkpt lat="46.4194410" lon="6.9255290">
        <ele>371.0</ele>
        <time>2019-02-24T11:55:45Z</time>
      </trkpt>
      <trkpt lat="46.4194120" lon="6.9255700">
        <ele>371.0</ele>
        <time>2019-02-24T11:55:46Z</time>
      </trkpt>
      <trkpt lat="46.4193840" lon="6.9256090">
        <ele>371.0</ele>
        <time>2019-02-24T11:55:47Z</time>
      </trkpt>
      <trkpt lat="46.4193560" lon="6.9256470">
        <ele>371.0</ele>
        <time>2019-02-24T11:55:48Z</time>
      </trkpt>
      <trkpt lat="46.4193300" lon="6.9256840">
        <ele>371.0</ele>
        <time>2019-02-24T11:55:49Z</time>
      </trkpt>
      <trkpt lat="46.4193040" lon="6.9257190">
        <ele>371.0</ele>
        <time>2019-02-24T11:55:50Z</time>
      </trkpt>
      <trkpt lat="46.4192790" lon="6.9257520">
        <ele>371.1</ele>
        <time>2019-02-24T11:55:51Z</time>
      </trkpt>
      <trkpt lat="46.4192570" lon="6.9257840">
        <ele>371.2</ele>
        <time>2019-02-24T11:55:52Z</time>
      </trkpt>
      <trkpt lat="46.4192390" lon="6.9258150">
        <ele>371.3</ele>
        <time>2019-02-24T11:55:53Z</time>
      </trkpt>
      <trkpt lat="46.4192250" lon="6.9258450">
        <ele>371.4</ele>
        <time>2019-02-24T11:55:54Z</time>
      </trkpt>
      <trkpt lat="46.4192180" lon="6.9258750">
        <ele>371.5</ele>
        <time>2019-02-24T11:55:55Z</time>
      </trkpt>
      <trkpt lat="46.4192140" lon="6.9259050">
        <ele>371.5</ele>
        <time>2019-02-24T11:55:56Z</time>
      </trkpt>
      <trkpt lat="46.4192110" lon="6.9259380">
        <ele>371.6</ele>
        <time>2019-02-24T11:55:57Z</time>
      </trkpt>
      <trkpt lat="46.4192080" lon="6.9259720">
        <ele>371.7</ele>
        <time>2019-02-24T11:55:58Z</time>
      </trkpt>
      <trkpt lat="46.4192020" lon="6.9260100">
        <ele>371.8</ele>
        <time>2019-02-24T11:55:59Z</time>
      </trkpt>
      <trkpt lat="46.4191930" lon="6.9260500">
        <ele>371.9</ele>
        <time>2019-02-24T11:56:00Z</time>
      </trkpt>
      <trkpt lat="46.4191810" lon="6.9260900">
        <ele>372.0</ele>
        <time>2019-02-24T11:56:01Z</time>
      </trkpt>
      <trkpt lat="46.4191670" lon="6.9261290">
        <ele>372.0</ele>
        <time>2019-02-24T11:56:02Z</time>
      </trkpt>
      <trkpt lat="46.4191510" lon="6.9261650">
        <ele>372.1</ele>
        <time>2019-02-24T11:56:03Z</time>
      </trkpt>
      <trkpt lat="46.4191330" lon="6.9261980">
        <ele>372.1</ele>
        <time>2019-02-24T11:56:04Z</time>
      </trkpt>
      <trkpt lat="46.4191160" lon="6.9262300">
        <ele>372.2</ele>
        <time>2019-02-24T11:56:05Z</time>
      </trkpt>
      <trkpt lat="46.4191010" lon="6.9262610">
        <ele>372.2</ele>
        <time>2019-02-24T11:56:06Z</time>
      </trkpt>
      <trkpt lat="46.4190880" lon="6.9262910">
        <ele>372.2</ele>
        <time>2019-02-24T11:56:07Z</time>
      </trkpt>
      <trkpt lat="46.4190760" lon="6.9263220">
        <ele>372.2</ele>
        <time>2019-02-24T11:56:08Z</time>
      </trkpt>
      <trkpt lat="46.4190640" lon="6.9263530">
        <ele>372.2</ele>
        <time>2019-02-24T11:56:09Z</time>
      </trkpt>
      <trkpt lat="46.4190480" lon="6.9263840">
        <ele>372.3</ele>
        <time>2019-02-24T11:56:10Z</time>
      </trkpt>
      <trkpt lat="46.4190270" lon="6.9264160">
        <ele>372.3</ele>
        <time>2019-02-24T11:56:11Z</time>
      </trkpt>
      <trkpt lat="46.4190040" lon="6.9264500">
        <ele>372.3</ele>
        <time>2019-02-24T11:56:12Z</time>
      </trkpt>
      <trkpt lat="46.4189810" lon="6.9264870">
        <ele>372.3</ele>
        <time>2019-02-24T11:56:13Z</time>
      </trkpt>
      <trkpt lat="46.4189610" lon="6.9265290">
        <ele>372.3</ele>
        <time>2019-02-24T11:56:14Z</time>
      </trkpt>
      <trkpt lat="46.4189370" lon="6.9266000">
        <ele>372.3</ele>
        <time>2019-02-24T11:56:15Z</time>
      </trkpt>
      <trkpt lat="46.4189300" lon="6.9266240">
        <ele>372.3</ele>
        <time>2019-02-24T11:56:16Z</time>
      </trkpt>
      <trkpt lat="46.4189160" lon="6.9266730">
        <ele>372.4</ele>
        <time>2019-02-24T11:56:17Z</time>
      </trkpt>
      <trkpt lat="46.4188990" lon="6.9267190">
        <ele>372.4</ele>
        <time>2019-02-24T11:56:18Z</time>
      </trkpt>
      <trkpt lat="46.4188780" lon="6.9267610">
        <ele>372.4</ele>
        <time>2019-02-24T11:56:19Z</time>
      </trkpt>
      <trkpt lat="46.4188540" lon="6.9267970">
        <ele>372.4</ele>
        <time>2019-02-24T11:56:20Z</time>
      </trkpt>
      <trkpt lat="46.4188290" lon="6.9268300">
        <ele>372.4</ele>
        <time>2019-02-24T11:56:21Z</time>
      </trkpt>
      <trkpt lat="46.4188040" lon="6.9268590">
        <ele>372.4</ele>
        <time>2019-02-24T11:56:22Z</time>
      </trkpt>
      <trkpt lat="46.4187810" lon="6.9268860">
        <ele>372.4</ele>
        <time>2019-02-24T11:56:23Z</time>
      </trkpt>
      <trkpt lat="46.4187610" lon="6.9269100">
        <ele>372.4</ele>
        <time>2019-02-24T11:56:24Z</time>
      </trkpt>
      <trkpt lat="46.4187440" lon="6.9269310">
        <ele>372.4</ele>
        <time>2019-02-24T11:56:25Z</time>
      </trkpt>
      <trkpt lat="46.4187300" lon="6.9269490">
        <ele>372.5</ele>
        <time>2019-02-24T11:56:26Z</time>
      </trkpt>
      <trkpt lat="46.4187120" lon="6.9269750">
        <ele>372.5</ele>
        <time>2019-02-24T11:56:27Z</time>
      </trkpt>
      <trkpt lat="46.4187040" lon="6.9269860">
        <ele>372.5</ele>
        <time>2019-02-24T11:56:28Z</time>
      </trkpt>
      <trkpt lat="46.4186970" lon="6.9269960">
        <ele>372.5</ele>
        <time>2019-02-24T11:56:29Z</time>
      </trkpt>
      <trkpt lat="46.4186890" lon="6.9270060">
        <ele>372.5</ele>
        <time>2019-02-24T11:56:30Z</time>
      </trkpt>
      <trkpt lat="46.4186740" lon="6.9270210">
        <ele>372.5</ele>
        <time>2019-02-24T11:56:31Z</time>
      </trkpt>
      <trkpt lat="46.4186570" lon="6.9270360">
        <ele>372.5</ele>
        <time>2019-02-24T11:56:32Z</time>
      </trkpt>
      <trkpt lat="46.4186370" lon="6.9270520">
        <ele>372.5</ele>
        <time>2019-02-24T11:56:33Z</time>
      </trkpt>
      <trkpt lat="46.4186150" lon="6.9270680">
        <ele>372.5</ele>
        <time>2019-02-24T11:56:34Z</time>
      </trkpt>
      <trkpt lat="46.4185920" lon="6.9270850">
        <ele>372.5</ele>
        <time>2019-02-24T11:56:35Z</time>
      </trkpt>
      <trkpt lat="46.4185670" lon="6.9271010">
        <ele>372.5</ele>
        <time>2019-02-24T11:56:36Z</time>
      </trkpt>
      <trkpt lat="46.4185420" lon="6.9271170">
        <ele>372.5</ele>
        <time>2019-02-24T11:56:37Z</time>
      </trkpt>
      <trkpt lat="46.4185170" lon="6.9271320">
        <ele>372.5</ele>
        <time>2019-02-24T11:56:38Z</time>
      </trkpt>
      <trkpt lat="46.4184930" lon="6.9271460">
        <ele>372.5</ele>
        <time>2019-02-24T11:56:39Z</time>
      </trkpt>
      <trkpt lat="46.4184690" lon="6.9271590">
        <ele>372.5</ele>
        <time>2019-02-24T11:56:40Z</time>
      </trkpt>
      <trkpt lat="46.4184470" lon="6.9271730">
        <ele>372.5</ele>
        <time>2019-02-24T11:56:41Z</time>
      </trkpt>
      <trkpt lat="46.4184270" lon="6.9271880">
        <ele>372.5</ele>
        <time>2019-02-24T11:56:42Z</time>
      </trkpt>
      <trkpt lat="46.4184090" lon="6.9272040">
        <ele>372.5</ele>
        <time>2019-02-24T11:56:43Z</time>
      </trkpt>
      <trkpt lat="46.4183920" lon="6.9272220">
        <ele>372.6</ele>
        <time>2019-02-24T11:56:44Z</time>
      </trkpt>
      <trkpt lat="46.4183750" lon="6.9272420">
        <ele>372.6</ele>
        <time>2019-02-24T11:56:45Z</time>
      </trkpt>
      <trkpt lat="46.4183550" lon="6.9272650">
        <ele>372.6</ele>
        <time>2019-02-24T11:56:46Z</time>
      </trkpt>
      <trkpt lat="46.4183320" lon="6.9272910">
        <ele>372.6</ele>
        <time>2019-02-24T11:56:47Z</time>
      </trkpt>
      <trkpt lat="46.4183070" lon="6.9273180">
        <ele>372.6</ele>
        <time>2019-02-24T11:56:48Z</time>
      </trkpt>
      <trkpt lat="46.4182780" lon="6.9273450">
        <ele>372.7</ele>
        <time>2019-02-24T11:56:49Z</time>
      </trkpt>
      <trkpt lat="46.4182260" lon="6.9273890">
        <ele>372.8</ele>
        <time>2019-02-24T11:56:50Z</time>
      </trkpt>
      <trkpt lat="46.4182050" lon="6.9274060">
        <ele>372.8</ele>
        <time>2019-02-24T11:56:51Z</time>
      </trkpt>
      <trkpt lat="46.4181830" lon="6.9274220">
        <ele>372.9</ele>
        <time>2019-02-24T11:56:52Z</time>
      </trkpt>
      <trkpt lat="46.4181500" lon="6.9274420">
        <ele>372.9</ele>
        <time>2019-02-24T11:56:53Z</time>
      </trkpt>
      <trkpt lat="46.4181160" lon="6.9274570">
        <ele>373.0</ele>
        <time>2019-02-24T11:56:54Z</time>
      </trkpt>
      <trkpt lat="46.4180830" lon="6.9274670">
        <ele>373.1</ele>
        <time>2019-02-24T11:56:55Z</time>
      </trkpt>
      <trkpt lat="46.4180510" lon="6.9274730">
        <ele>373.2</ele>
        <time>2019-02-24T11:56:56Z</time>
      </trkpt>
      <trkpt lat="46.4180190" lon="6.9274780">
        <ele>373.3</ele>
        <time>2019-02-24T11:56:57Z</time>
      </trkpt>
      <trkpt lat="46.4179880" lon="6.9274840">
        <ele>373.4</ele>
        <time>2019-02-24T11:56:58Z</time>
      </trkpt>
      <trkpt lat="46.4179570" lon="6.9274920">
        <ele>373.5</ele>
        <time>2019-02-24T11:56:59Z</time>
      </trkpt>
      <trkpt lat="46.4179270" lon="6.9275020">
        <ele>373.6</ele>
        <time>2019-02-24T11:57:00Z</time>
      </trkpt>
      <trkpt lat="46.4178970" lon="6.9275140">
        <ele>373.7</ele>
        <time>2019-02-24T11:57:01Z</time>
      </trkpt>
      <trkpt lat="46.4178680" lon="6.9275260">
        <ele>373.8</ele>
        <time>2019-02-24T11:57:02Z</time>
      </trkpt>
      <trkpt lat="46.4178400" lon="6.9275380">
        <ele>373.9</ele>
        <time>2019-02-24T11:57:03Z</time>
      </trkpt>
      <trkpt lat="46.4178110" lon="6.9275500">
        <ele>374.1</ele>
        <time>2019-02-24T11:57:04Z</time>
      </trkpt>
      <trkpt lat="46.4177830" lon="6.9275620">
        <ele>374.3</ele>
        <time>2019-02-24T11:57:05Z</time>
      </trkpt>
      <trkpt lat="46.4177540" lon="6.9275740">
        <ele>374.2</ele>
        <time>2019-02-24T11:57:06Z</time>
      </trkpt>
      <trkpt lat="46.4177260" lon="6.9275860">
        <ele>374.2</ele>
        <time>2019-02-24T11:57:07Z</time>
      </trkpt>
      <trkpt lat="46.4176980" lon="6.9275980">
        <ele>374.2</ele>
        <time>2019-02-24T11:57:08Z</time>
      </trkpt>
      <trkpt lat="46.4176690" lon="6.9276090">
        <ele>374.2</ele>
        <time>2019-02-24T11:57:09Z</time>
      </trkpt>
      <trkpt lat="46.4176410" lon="6.9276210">
        <ele>374.2</ele>
        <time>2019-02-24T11:57:10Z</time>
      </trkpt>
      <trkpt lat="46.4176120" lon="6.9276330">
        <ele>374.1</ele>
        <time>2019-02-24T11:57:11Z</time>
      </trkpt>
      <trkpt lat="46.4175820" lon="6.9276440">
        <ele>374.1</ele>
        <time>2019-02-24T11:57:12Z</time>
      </trkpt>
      <trkpt lat="46.4175530" lon="6.9276550">
        <ele>374.1</ele>
        <time>2019-02-24T11:57:13Z</time>
      </trkpt>
      <trkpt lat="46.4175240" lon="6.9276660">
        <ele>374.0</ele>
        <time>2019-02-24T11:57:14Z</time>
      </trkpt>
      <trkpt lat="46.4174950" lon="6.9276760">
        <ele>374.0</ele>
        <time>2019-02-24T11:57:15Z</time>
      </trkpt>
      <trkpt lat="46.4174670" lon="6.9276850">
        <ele>374.0</ele>
        <time>2019-02-24T11:57:16Z</time>
      </trkpt>
      <trkpt lat="46.4174400" lon="6.9276930">
        <ele>373.9</ele>
        <time>2019-02-24T11:57:17Z</time>
      </trkpt>
      <trkpt lat="46.4174130" lon="6.9277000">
        <ele>373.9</ele>
        <time>2019-02-24T11:57:18Z</time>
      </trkpt>
      <trkpt lat="46.4173880" lon="6.9277070">
        <ele>373.9</ele>
        <time>2019-02-24T11:57:19Z</time>
      </trkpt>
      <trkpt lat="46.4173630" lon="6.9277120">
        <ele>373.8</ele>
        <time>2019-02-24T11:57:20Z</time>
      </trkpt>
      <trkpt lat="46.4173400" lon="6.9277160">
        <ele>373.8</ele>
        <time>2019-02-24T11:57:21Z</time>
      </trkpt>
      <trkpt lat="46.4173180" lon="6.9277190">
        <ele>373.8</ele>
        <time>2019-02-24T11:57:22Z</time>
      </trkpt>
      <trkpt lat="46.4172960" lon="6.9277210">
        <ele>373.7</ele>
        <time>2019-02-24T11:57:23Z</time>
      </trkpt>
      <trkpt lat="46.4172750" lon="6.9277230">
        <ele>373.7</ele>
        <time>2019-02-24T11:57:24Z</time>
      </trkpt>
      <trkpt lat="46.4172560" lon="6.9277240">
        <ele>373.7</ele>
        <time>2019-02-24T11:57:25Z</time>
      </trkpt>
      <trkpt lat="46.4172370" lon="6.9277240">
        <ele>373.6</ele>
        <time>2019-02-24T11:57:26Z</time>
      </trkpt>
      <trkpt lat="46.4172180" lon="6.9277240">
        <ele>373.6</ele>
        <time>2019-02-24T11:57:27Z</time>
      </trkpt>
      <trkpt lat="46.4172010" lon="6.9277230">
        <ele>373.6</ele>
        <time>2019-02-24T11:57:28Z</time>
      </trkpt>
      <trkpt lat="46.4171840" lon="6.9277210">
        <ele>373.6</ele>
        <time>2019-02-24T11:57:29Z</time>
      </trkpt>
      <trkpt lat="46.4171670" lon="6.9277200">
        <ele>373.5</ele>
        <time>2019-02-24T11:57:30Z</time>
      </trkpt>
      <trkpt lat="46.4171510" lon="6.9277180">
        <ele>373.5</ele>
        <time>2019-02-24T11:57:31Z</time>
      </trkpt>
      <trkpt lat="46.4171360" lon="6.9277150">
        <ele>373.5</ele>
        <time>2019-02-24T11:57:32Z</time>
      </trkpt>
      <trkpt lat="46.4171210" lon="6.9277130">
        <ele>373.4</ele>
        <time>2019-02-24T11:57:33Z</time>
      </trkpt>
      <trkpt lat="46.4171070" lon="6.9277110">
        <ele>373.4</ele>
        <time>2019-02-24T11:57:34Z</time>
      </trkpt>
      <trkpt lat="46.4170930" lon="6.9277080">
        <ele>373.4</ele>
        <time>2019-02-24T11:57:35Z</time>
      </trkpt>
      <trkpt lat="46.4170790" lon="6.9277050">
        <ele>373.4</ele>
        <time>2019-02-24T11:57:36Z</time>
      </trkpt>
      <trkpt lat="46.4170650" lon="6.9277010">
        <ele>373.3</ele>
        <time>2019-02-24T11:57:37Z</time>
      </trkpt>
      <trkpt lat="46.4170510" lon="6.9276970">
        <ele>373.3</ele>
        <time>2019-02-24T11:57:38Z</time>
      </trkpt>
      <trkpt lat="46.4170380" lon="6.9276910">
        <ele>373.3</ele>
        <time>2019-02-24T11:57:39Z</time>
      </trkpt>
      <trkpt lat="46.4170240" lon="6.9276840">
        <ele>373.3</ele>
        <time>2019-02-24T11:57:40Z</time>
      </trkpt>
      <trkpt lat="46.4170110" lon="6.9276780">
        <ele>373.2</ele>
        <time>2019-02-24T11:57:41Z</time>
      </trkpt>
      <trkpt lat="46.4169980" lon="6.9276740">
        <ele>373.2</ele>
        <time>2019-02-24T11:57:42Z</time>
      </trkpt>
      <trkpt lat="46.4169860" lon="6.9276710">
        <ele>373.2</ele>
        <time>2019-02-24T11:57:43Z</time>
      </trkpt>
      <trkpt lat="46.4169740" lon="6.9276720">
        <ele>373.1</ele>
        <time>2019-02-24T11:57:44Z</time>
      </trkpt>
      <trkpt lat="46.4169610" lon="6.9276760">
        <ele>373.1</ele>
        <time>2019-02-24T11:57:45Z</time>
      </trkpt>
      <trkpt lat="46.4169460" lon="6.9276850">
        <ele>373.1</ele>
        <time>2019-02-24T11:57:46Z</time>
      </trkpt>
      <trkpt lat="46.4169280" lon="6.9276980">
        <ele>373.0</ele>
        <time>2019-02-24T11:57:47Z</time>
      </trkpt>
      <trkpt lat="46.4169090" lon="6.9277140">
        <ele>372.9</ele>
        <time>2019-02-24T11:57:48Z</time>
      </trkpt>
      <trkpt lat="46.4168880" lon="6.9277280">
        <ele>372.9</ele>
        <time>2019-02-24T11:57:49Z</time>
      </trkpt>
      <trkpt lat="46.4168680" lon="6.9277380">
        <ele>372.8</ele>
        <time>2019-02-24T11:57:50Z</time>
      </trkpt>
      <trkpt lat="46.4168490" lon="6.9277430">
        <ele>372.8</ele>
        <time>2019-02-24T11:57:51Z</time>
      </trkpt>
      <trkpt lat="46.4168310" lon="6.9277430">
        <ele>372.7</ele>
        <time>2019-02-24T11:57:52Z</time>
      </trkpt>
      <trkpt lat="46.4168140" lon="6.9277430">
        <ele>372.7</ele>
        <time>2019-02-24T11:57:53Z</time>
      </trkpt>
      <trkpt lat="46.4167960" lon="6.9277440">
        <ele>372.6</ele>
        <time>2019-02-24T11:57:54Z</time>
      </trkpt>
      <trkpt lat="46.4167780" lon="6.9277490">
        <ele>372.5</ele>
        <time>2019-02-24T11:57:55Z</time>
      </trkpt>
      <trkpt lat="46.4167600" lon="6.9277610">
        <ele>372.5</ele>
        <time>2019-02-24T11:57:56Z</time>
      </trkpt>
      <trkpt lat="46.4167400" lon="6.9277770">
        <ele>372.4</ele>
        <time>2019-02-24T11:57:57Z</time>
      </trkpt>
      <trkpt lat="46.4167190" lon="6.9277950">
        <ele>372.3</ele>
        <time>2019-02-24T11:57:58Z</time>
      </trkpt>
      <trkpt lat="46.4166970" lon="6.9278110">
        <ele>372.3</ele>
        <time>2019-02-24T11:57:59Z</time>
      </trkpt>
      <trkpt lat="46.4166740" lon="6.9278230">
        <ele>372.2</ele>
        <time>2019-02-24T11:58:00Z</time>
      </trkpt>
      <trkpt lat="46.4166510" lon="6.9278310">
        <ele>372.1</ele>
        <time>2019-02-24T11:58:01Z</time>
      </trkpt>
      <trkpt lat="46.4166280" lon="6.9278360">
        <ele>372.0</ele>
        <time>2019-02-24T11:58:02Z</time>
      </trkpt>
      <trkpt lat="46.4166070" lon="6.9278380">
        <ele>371.9</ele>
        <time>2019-02-24T11:58:03Z</time>
      </trkpt>
      <trkpt lat="46.4165870" lon="6.9278380">
        <ele>371.9</ele>
        <time>2019-02-24T11:58:04Z</time>
      </trkpt>
      <trkpt lat="46.4165710" lon="6.9278370">
        <ele>371.8</ele>
        <time>2019-02-24T11:58:05Z</time>
      </trkpt>
      <trkpt lat="46.4165580" lon="6.9278350">
        <ele>371.8</ele>
        <time>2019-02-24T11:58:06Z</time>
      </trkpt>
      <trkpt lat="46.4165510" lon="6.9278340">
        <ele>371.8</ele>
        <time>2019-02-24T11:58:07Z</time>
      </trkpt>
      <trkpt lat="46.4165480" lon="6.9278330">
        <ele>371.7</ele>
        <time>2019-02-24T11:58:08Z</time>
      </trkpt>
      <trkpt lat="46.4165480" lon="6.9278330">
        <ele>371.7</ele>
        <time>2019-02-24T11:58:09Z</time>
      </trkpt>
      <trkpt lat="46.4165480" lon="6.9278330">
        <ele>371.7</ele>
        <time>2019-02-24T11:58:10Z</time>
      </trkpt>
      <trkpt lat="46.4165450" lon="6.9278330">
        <ele>371.7</ele>
        <time>2019-02-24T11:58:11Z</time>
      </trkpt>
      <trkpt lat="46.4165380" lon="6.9278310">
        <ele>371.7</ele>
        <time>2019-02-24T11:58:12Z</time>
      </trkpt>
      <trkpt lat="46.4165320" lon="6.9278300">
        <ele>371.7</ele>
        <time>2019-02-24T11:58:13Z</time>
      </trkpt>
      <trkpt lat="46.4165310" lon="6.9278290">
        <ele>371.7</ele>
        <time>2019-02-24T11:58:14Z</time>
      </trkpt>
      <trkpt lat="46.4165270" lon="6.9278290">
        <ele>371.6</ele>
        <time>2019-02-24T11:58:15Z</time>
      </trkpt>
      <trkpt lat="46.4165140" lon="6.9278290">
        <ele>371.5</ele>
        <time>2019-02-24T11:58:16Z</time>
      </trkpt>
      <trkpt lat="46.4164970" lon="6.9278290">
        <ele>371.4</ele>
        <time>2019-02-24T11:58:17Z</time>
      </trkpt>
      <trkpt lat="46.4164800" lon="6.9278330">
        <ele>371.3</ele>
        <time>2019-02-24T11:58:18Z</time>
      </trkpt>
      <trkpt lat="46.4164610" lon="6.9278390">
        <ele>371.2</ele>
        <time>2019-02-24T11:58:19Z</time>
      </trkpt>
      <trkpt lat="46.4164360" lon="6.9278430">
        <ele>370.9</ele>
        <time>2019-02-24T11:58:20Z</time>
      </trkpt>
      <trkpt lat="46.4164080" lon="6.9278450">
        <ele>370.6</ele>
        <time>2019-02-24T11:58:21Z</time>
      </trkpt>
      <trkpt lat="46.4163780" lon="6.9278450">
        <ele>370.4</ele>
        <time>2019-02-24T11:58:22Z</time>
      </trkpt>
      <trkpt lat="46.4163470" lon="6.9278440">
        <ele>370.2</ele>
        <time>2019-02-24T11:58:23Z</time>
      </trkpt>
      <trkpt lat="46.4163160" lon="6.9278440">
        <ele>370.0</ele>
        <time>2019-02-24T11:58:24Z</time>
      </trkpt>
      <trkpt lat="46.4162850" lon="6.9278450">
        <ele>369.8</ele>
        <time>2019-02-24T11:58:25Z</time>
      </trkpt>
      <trkpt lat="46.4162550" lon="6.9278450">
        <ele>369.6</ele>
        <time>2019-02-24T11:58:26Z</time>
      </trkpt>
      <trkpt lat="46.4162240" lon="6.9278460">
        <ele>369.4</ele>
        <time>2019-02-24T11:58:27Z</time>
      </trkpt>
      <trkpt lat="46.4161940" lon="6.9278480">
        <ele>369.0</ele>
        <time>2019-02-24T11:58:28Z</time>
      </trkpt>
      <trkpt lat="46.4161630" lon="6.9278500">
        <ele>368.7</ele>
        <time>2019-02-24T11:58:29Z</time>
      </trkpt>
      <trkpt lat="46.4161320" lon="6.9278520">
        <ele>368.3</ele>
        <time>2019-02-24T11:58:30Z</time>
      </trkpt>
      <trkpt lat="46.4161000" lon="6.9278540">
        <ele>368.0</ele>
        <time>2019-02-24T11:58:31Z</time>
      </trkpt>
      <trkpt lat="46.4160680" lon="6.9278560">
        <ele>367.8</ele>
        <time>2019-02-24T11:58:32Z</time>
      </trkpt>
      <trkpt lat="46.4160350" lon="6.9278590">
        <ele>367.5</ele>
        <time>2019-02-24T11:58:33Z</time>
      </trkpt>
      <trkpt lat="46.4160000" lon="6.9278610">
        <ele>367.3</ele>
        <time>2019-02-24T11:58:34Z</time>
      </trkpt>
      <trkpt lat="46.4159650" lon="6.9278640">
        <ele>367.2</ele>
        <time>2019-02-24T11:58:35Z</time>
      </trkpt>
      <trkpt lat="46.4159290" lon="6.9278660">
        <ele>367.0</ele>
        <time>2019-02-24T11:58:36Z</time>
      </trkpt>
      <trkpt lat="46.4158910" lon="6.9278690">
        <ele>366.8</ele>
        <time>2019-02-24T11:58:37Z</time>
      </trkpt>
      <trkpt lat="46.4158510" lon="6.9278710">
        <ele>367.3</ele>
        <time>2019-02-24T11:58:38Z</time>
      </trkpt>
      <trkpt lat="46.4158100" lon="6.9278740">
        <ele>367.9</ele>
        <time>2019-02-24T11:58:39Z</time>
      </trkpt>
      <trkpt lat="46.4157670" lon="6.9278760">
        <ele>368.4</ele>
        <time>2019-02-24T11:58:40Z</time>
      </trkpt>
      <trkpt lat="46.4157230" lon="6.9278780">
        <ele>369.0</ele>
        <time>2019-02-24T11:58:41Z</time>
      </trkpt>
      <trkpt lat="46.4156790" lon="6.9278810">
        <ele>369.6</ele>
        <time>2019-02-24T11:58:42Z</time>
      </trkpt>
      <trkpt lat="46.4156340" lon="6.9278840">
        <ele>370.2</ele>
        <time>2019-02-24T11:58:43Z</time>
      </trkpt>
      <trkpt lat="46.4155900" lon="6.9278880">
        <ele>370.7</ele>
        <time>2019-02-24T11:58:44Z</time>
      </trkpt>
      <trkpt lat="46.4155480" lon="6.9278920">
        <ele>371.2</ele>
        <time>2019-02-24T11:58:45Z</time>
      </trkpt>
      <trkpt lat="46.4155080" lon="6.9278970">
        <ele>371.7</ele>
        <time>2019-02-24T11:58:46Z</time>
      </trkpt>
      <trkpt lat="46.4154710" lon="6.9279040">
        <ele>372.1</ele>
        <time>2019-02-24T11:58:47Z</time>
      </trkpt>
      <trkpt lat="46.4154370" lon="6.9279120">
        <ele>372.6</ele>
        <time>2019-02-24T11:58:48Z</time>
      </trkpt>
      <trkpt lat="46.4154060" lon="6.9279200">
        <ele>373.1</ele>
        <time>2019-02-24T11:58:49Z</time>
      </trkpt>
      <trkpt lat="46.4153790" lon="6.9279280">
        <ele>373.5</ele>
        <time>2019-02-24T11:58:50Z</time>
      </trkpt>
      <trkpt lat="46.4153550" lon="6.9279350">
        <ele>373.9</ele>
        <time>2019-02-24T11:58:51Z</time>
      </trkpt>
      <trkpt lat="46.4153350" lon="6.9279400">
        <ele>374.8</ele>
        <time>2019-02-24T11:58:52Z</time>
      </trkpt>
      <trkpt lat="46.4153180" lon="6.9279430">
        <ele>375.1</ele>
        <time>2019-02-24T11:58:53Z</time>
      </trkpt>
      <trkpt lat="46.4152970" lon="6.9279430">
        <ele>375.5</ele>
        <time>2019-02-24T11:58:54Z</time>
      </trkpt>
      <trkpt lat="46.4152900" lon="6.9279400">
        <ele>375.6</ele>
        <time>2019-02-24T11:58:55Z</time>
      </trkpt>
      <trkpt lat="46.4152840" lon="6.9279360">
        <ele>375.8</ele>
        <time>2019-02-24T11:58:56Z</time>
      </trkpt>
      <trkpt lat="46.4152770" lon="6.9279330">
        <ele>375.9</ele>
        <time>2019-02-24T11:58:57Z</time>
      </trkpt>
      <trkpt lat="46.4152700" lon="6.9279300">
        <ele>376.0</ele>
        <time>2019-02-24T11:58:58Z</time>
      </trkpt>
      <trkpt lat="46.4152630" lon="6.9279270">
        <ele>376.2</ele>
        <time>2019-02-24T11:58:59Z</time>
      </trkpt>
      <trkpt lat="46.4152560" lon="6.9279230">
        <ele>376.3</ele>
        <time>2019-02-24T11:59:00Z</time>
      </trkpt>
      <trkpt lat="46.4152490" lon="6.9279200">
        <ele>376.5</ele>
        <time>2019-02-24T11:59:01Z</time>
      </trkpt>
      <trkpt lat="46.4152430" lon="6.9279170">
        <ele>376.6</ele>
        <time>2019-02-24T11:59:02Z</time>
      </trkpt>
      <trkpt lat="46.4152360" lon="6.9279140">
        <ele>376.7</ele>
        <time>2019-02-24T11:59:03Z</time>
      </trkpt>
      <trkpt lat="46.4152290" lon="6.9279110">
        <ele>376.9</ele>
        <time>2019-02-24T11:59:04Z</time>
      </trkpt>
      <trkpt lat="46.4152220" lon="6.9279070">
        <ele>377.0</ele>
        <time>2019-02-24T11:59:05Z</time>
      </trkpt>
      <trkpt lat="46.4152150" lon="6.9279040">
        <ele>377.1</ele>
        <time>2019-02-24T11:59:06Z</time>
      </trkpt>
      <trkpt lat="46.4152090" lon="6.9279010">
        <ele>377.3</ele>
        <time>2019-02-24T11:59:07Z</time>
      </trkpt>
      <trkpt lat="46.4152020" lon="6.9278980">
        <ele>377.4</ele>
        <time>2019-02-24T11:59:08Z</time>
      </trkpt>
      <trkpt lat="46.4151950" lon="6.9278940">
        <ele>377.5</ele>
        <time>2019-02-24T11:59:09Z</time>
      </trkpt>
      <trkpt lat="46.4151880" lon="6.9278910">
        <ele>377.7</ele>
        <time>2019-02-24T11:59:10Z</time>
      </trkpt>
      <trkpt lat="46.4151810" lon="6.9278880">
        <ele>377.8</ele>
        <time>2019-02-24T11:59:11Z</time>
      </trkpt>
      <trkpt lat="46.4151750" lon="6.9278850">
        <ele>377.9</ele>
        <time>2019-02-24T11:59:12Z</time>
      </trkpt>
      <trkpt lat="46.4151680" lon="6.9278820">
        <ele>378.1</ele>
        <time>2019-02-24T11:59:13Z</time>
      </trkpt>
      <trkpt lat="46.4151610" lon="6.9278780">
        <ele>378.2</ele>
        <time>2019-02-24T11:59:14Z</time>
      </trkpt>
      <trkpt lat="46.4151540" lon="6.9278750">
        <ele>378.4</ele>
        <time>2019-02-24T11:59:15Z</time>
      </trkpt>
      <trkpt lat="46.4151470" lon="6.9278720">
        <ele>378.5</ele>
        <time>2019-02-24T11:59:16Z</time>
      </trkpt>
      <trkpt lat="46.4151400" lon="6.9278690">
        <ele>378.6</ele>
        <time>2019-02-24T11:59:17Z</time>
      </trkpt>
      <trkpt lat="46.4151340" lon="6.9278650">
        <ele>378.8</ele>
        <time>2019-02-24T11:59:18Z</time>
      </trkpt>
      <trkpt lat="46.4151270" lon="6.9278620">
        <ele>378.9</ele>
        <time>2019-02-24T11:59:19Z</time>
      </trkpt>
      <trkpt lat="46.4151200" lon="6.9278590">
        <ele>379.0</ele>
        <time>2019-02-24T11:59:20Z</time>
      </trkpt>
      <trkpt lat="46.4151100" lon="6.9278580">
        <ele>379.2</ele>
        <time>2019-02-24T11:59:21Z</time>
      </trkpt>
      <trkpt lat="46.4151010" lon="6.9278580">
        <ele>379.4</ele>
        <time>2019-02-24T11:59:22Z</time>
      </trkpt>
      <trkpt lat="46.4150910" lon="6.9278570">
        <ele>379.6</ele>
        <time>2019-02-24T11:59:23Z</time>
      </trkpt>
      <trkpt lat="46.4150810" lon="6.9278570">
        <ele>379.8</ele>
        <time>2019-02-24T11:59:24Z</time>
      </trkpt>
      <trkpt lat="46.4150720" lon="6.9278560">
        <ele>379.9</ele>
        <time>2019-02-24T11:59:25Z</time>
      </trkpt>
      <trkpt lat="46.4150620" lon="6.9278560">
        <ele>380.1</ele>
        <time>2019-02-24T11:59:26Z</time>
      </trkpt>
      <trkpt lat="46.4150520" lon="6.9278550">
        <ele>380.3</ele>
        <time>2019-02-24T11:59:27Z</time>
      </trkpt>
      <trkpt lat="46.4150430" lon="6.9278550">
        <ele>380.5</ele>
        <time>2019-02-24T11:59:28Z</time>
      </trkpt>
      <trkpt lat="46.4150330" lon="6.9278540">
        <ele>380.7</ele>
        <time>2019-02-24T11:59:29Z</time>
      </trkpt>
      <trkpt lat="46.4150230" lon="6.9278540">
        <ele>380.9</ele>
        <time>2019-02-24T11:59:30Z</time>
      </trkpt>
      <trkpt lat="46.4150140" lon="6.9278530">
        <ele>381.0</ele>
        <time>2019-02-24T11:59:31Z</time>
      </trkpt>
      <trkpt lat="46.4150040" lon="6.9278530">
        <ele>381.2</ele>
        <time>2019-02-24T11:59:32Z</time>
      </trkpt>
      <trkpt lat="46.4149940" lon="6.9278520">
        <ele>381.4</ele>
        <time>2019-02-24T11:59:33Z</time>
      </trkpt>
      <trkpt lat="46.4149850" lon="6.9278520">
        <ele>381.6</ele>
        <time>2019-02-24T11:59:34Z</time>
      </trkpt>
      <trkpt lat="46.4149750" lon="6.9278510">
        <ele>381.8</ele>
        <time>2019-02-24T11:59:35Z</time>
      </trkpt>
      <trkpt lat="46.4149650" lon="6.9278510">
        <ele>382.0</ele>
        <time>2019-02-24T11:59:36Z</time>
      </trkpt>
      <trkpt lat="46.4149560" lon="6.9278500">
        <ele>382.1</ele>
        <time>2019-02-24T11:59:37Z</time>
      </trkpt>
      <trkpt lat="46.4149460" lon="6.9278500">
        <ele>382.1</ele>
        <time>2019-02-24T11:59:38Z</time>
      </trkpt>
      <trkpt lat="46.4149360" lon="6.9278490">
        <ele>382.1</ele>
        <time>2019-02-24T11:59:39Z</time>
      </trkpt>
      <trkpt lat="46.4149270" lon="6.9278490">
        <ele>382.1</ele>
        <time>2019-02-24T11:59:40Z</time>
      </trkpt>
      <trkpt lat="46.4149170" lon="6.9278480">
        <ele>382.1</ele>
        <time>2019-02-24T11:59:41Z</time>
      </trkpt>
      <trkpt lat="46.4149070" lon="6.9278480">
        <ele>382.1</ele>
        <time>2019-02-24T11:59:42Z</time>
      </trkpt>
      <trkpt lat="46.4148980" lon="6.9278470">
        <ele>382.0</ele>
        <time>2019-02-24T11:59:43Z</time>
      </trkpt>
      <trkpt lat="46.4148880" lon="6.9278470">
        <ele>382.0</ele>
        <time>2019-02-24T11:59:44Z</time>
      </trkpt>
      <trkpt lat="46.4148780" lon="6.9278460">
        <ele>382.0</ele>
        <time>2019-02-24T11:59:45Z</time>
      </trkpt>
      <trkpt lat="46.4148690" lon="6.9278460">
        <ele>382.0</ele>
        <time>2019-02-24T11:59:46Z</time>
      </trkpt>
      <trkpt lat="46.4148590" lon="6.9278450">
        <ele>382.0</ele>
        <time>2019-02-24T11:59:47Z</time>
      </trkpt>
      <trkpt lat="46.4148490" lon="6.9278450">
        <ele>381.9</ele>
        <time>2019-02-24T11:59:48Z</time>
      </trkpt>
      <trkpt lat="46.4148400" lon="6.9278440">
        <ele>381.9</ele>
        <time>2019-02-24T11:59:49Z</time>
      </trkpt>
      <trkpt lat="46.4148300" lon="6.9278440">
        <ele>381.9</ele>
        <time>2019-02-24T11:59:50Z</time>
      </trkpt>
      <trkpt lat="46.4148200" lon="6.9278430">
        <ele>381.9</ele>
        <time>2019-02-24T11:59:51Z</time>
      </trkpt>
      <trkpt lat="46.4148110" lon="6.9278430">
        <ele>381.9</ele>
        <time>2019-02-24T11:59:52Z</time>
      </trkpt>
      <trkpt lat="46.4148010" lon="6.9278420">
        <ele>381.8</ele>
        <time>2019-02-24T11:59:53Z</time>
      </trkpt>
      <trkpt lat="46.4147910" lon="6.9278420">
        <ele>381.8</ele>
        <time>2019-02-24T11:59:54Z</time>
      </trkpt>
      <trkpt lat="46.4147820" lon="6.9278410">
        <ele>381.8</ele>
        <time>2019-02-24T11:59:55Z</time>
      </trkpt>
      <trkpt lat="46.4147720" lon="6.9278410">
        <ele>381.8</ele>
        <time>2019-02-24T11:59:56Z</time>
      </trkpt>
      <trkpt lat="46.4147660" lon="6.9278450">
        <ele>381.8</ele>
        <time>2019-02-24T11:59:57Z</time>
      </trkpt>
      <trkpt lat="46.4147640" lon="6.9278460">
        <ele>381.8</ele>
        <time>2019-02-24T11:59:58Z</time>
      </trkpt>
      <trkpt lat="46.4147640" lon="6.9278460">
        <ele>381.8</ele>
        <time>2019-02-24T11:59:59Z</time>
      </trkpt>
      <trkpt lat="46.4147640" lon="6.9278460">
        <ele>381.8</ele>
        <time>2019-02-24T12:00:00Z</time>
      </trkpt>
      <trkpt lat="46.4147640" lon="6.9278460">
        <ele>381.8</ele>
        <time>2019-02-24T12:00:01Z</time>
      </trkpt>
      <trkpt lat="46.4147640" lon="6.9278460">
        <ele>381.8</ele>
        <time>2019-02-24T12:00:02Z</time>
      </trkpt>
      <trkpt lat="46.4147640" lon="6.9278460">
        <ele>381.8</ele>
        <time>2019-02-24T12:00:03Z</time>
      </trkpt>
      <trkpt lat="46.4147630" lon="6.9278470">
        <ele>381.8</ele>
        <time>2019-02-24T12:00:04Z</time>
      </trkpt>
      <trkpt lat="46.4147610" lon="6.9278480">
        <ele>381.8</ele>
        <time>2019-02-24T12:00:05Z</time>
      </trkpt>
      <trkpt lat="46.4147460" lon="6.9278540">
        <ele>381.7</ele>
        <time>2019-02-24T12:00:06Z</time>
      </trkpt>
      <trkpt lat="46.4147150" lon="6.9278680">
        <ele>381.7</ele>
        <time>2019-02-24T12:00:07Z</time>
      </trkpt>
      <trkpt lat="46.4146890" lon="6.9278810">
        <ele>381.6</ele>
        <time>2019-02-24T12:00:08Z</time>
      </trkpt>
      <trkpt lat="46.4146630" lon="6.9278950">
        <ele>381.6</ele>
        <time>2019-02-24T12:00:09Z</time>
      </trkpt>
      <trkpt lat="46.4146530" lon="6.9278980">
        <ele>381.5</ele>
        <time>2019-02-24T12:00:10Z</time>
      </trkpt>
      <trkpt lat="46.4146440" lon="6.9279020">
        <ele>381.4</ele>
        <time>2019-02-24T12:00:11Z</time>
      </trkpt>
      <trkpt lat="46.4146350" lon="6.9279050">
        <ele>381.2</ele>
        <time>2019-02-24T12:00:12Z</time>
      </trkpt>
      <trkpt lat="46.4146250" lon="6.9279090">
        <ele>381.1</ele>
        <time>2019-02-24T12:00:13Z</time>
      </trkpt>
      <trkpt lat="46.4146160" lon="6.9279120">
        <ele>381.0</ele>
        <time>2019-02-24T12:00:14Z</time>
      </trkpt>
      <trkpt lat="46.4146060" lon="6.9279160">
        <ele>380.9</ele>
        <time>2019-02-24T12:00:15Z</time>
      </trkpt>
      <trkpt lat="46.4145970" lon="6.9279190">
        <ele>380.8</ele>
        <time>2019-02-24T12:00:16Z</time>
      </trkpt>
      <trkpt lat="46.4145880" lon="6.9279230">
        <ele>380.7</ele>
        <time>2019-02-24T12:00:17Z</time>
      </trkpt>
      <trkpt lat="46.4145780" lon="6.9279260">
        <ele>380.6</ele>
        <time>2019-02-24T12:00:18Z</time>
      </trkpt>
      <trkpt lat="46.4145690" lon="6.9279300">
        <ele>380.5</ele>
        <time>2019-02-24T12:00:19Z</time>
      </trkpt>
      <trkpt lat="46.4145430" lon="6.9279380">
        <ele>380.2</ele>
        <time>2019-02-24T12:00:20Z</time>
      </trkpt>
      <trkpt lat="46.4145270" lon="6.9279460">
        <ele>380.0</ele>
        <time>2019-02-24T12:00:21Z</time>
      </trkpt>
      <trkpt lat="46.4145140" lon="6.9279550">
        <ele>379.9</ele>
        <time>2019-02-24T12:00:22Z</time>
      </trkpt>
      <trkpt lat="46.4144850" lon="6.9279690">
        <ele>379.6</ele>
        <time>2019-02-24T12:00:23Z</time>
      </trkpt>
      <trkpt lat="46.4144690" lon="6.9279740">
        <ele>379.5</ele>
        <time>2019-02-24T12:00:24Z</time>
      </trkpt>
      <trkpt lat="46.4144530" lon="6.9279790">
        <ele>379.3</ele>
        <time>2019-02-24T12:00:25Z</time>
      </trkpt>
      <trkpt lat="46.4144370" lon="6.9279830">
        <ele>379.2</ele>
        <time>2019-02-24T12:00:26Z</time>
      </trkpt>
      <trkpt lat="46.4144210" lon="6.9279880">
        <ele>379.1</ele>
        <time>2019-02-24T12:00:27Z</time>
      </trkpt>
      <trkpt lat="46.4144050" lon="6.9279930">
        <ele>379.0</ele>
        <time>2019-02-24T12:00:28Z</time>
      </trkpt>
      <trkpt lat="46.4143890" lon="6.9279980">
        <ele>378.9</ele>
        <time>2019-02-24T12:00:29Z</time>
      </trkpt>
      <trkpt lat="46.4143500" lon="6.9280080">
        <ele>378.6</ele>
        <time>2019-02-24T12:00:30Z</time>
      </trkpt>
      <trkpt lat="46.4143340" lon="6.9280120">
        <ele>378.4</ele>
        <time>2019-02-24T12:00:31Z</time>
      </trkpt>
      <trkpt lat="46.4143180" lon="6.9280170">
        <ele>378.3</ele>
        <time>2019-02-24T12:00:32Z</time>
      </trkpt>
      <trkpt lat="46.4143010" lon="6.9280210">
        <ele>378.2</ele>
        <time>2019-02-24T12:00:33Z</time>
      </trkpt>
      <trkpt lat="46.4142850" lon="6.9280260">
        <ele>378.1</ele>
        <time>2019-02-24T12:00:34Z</time>
      </trkpt>
      <trkpt lat="46.4142690" lon="6.9280300">
        <ele>377.9</ele>
        <time>2019-02-24T12:00:35Z</time>
      </trkpt>
      <trkpt lat="46.4142440" lon="6.9280420">
        <ele>377.7</ele>
        <time>2019-02-24T12:00:36Z</time>
      </trkpt>
      <trkpt lat="46.4142350" lon="6.9280470">
        <ele>377.7</ele>
        <time>2019-02-24T12:00:37Z</time>
      </trkpt>
      <trkpt lat="46.4142250" lon="6.9280530">
        <ele>377.6</ele>
        <time>2019-02-24T12:00:38Z</time>
      </trkpt>
      <trkpt lat="46.4142160" lon="6.9280580">
        <ele>377.5</ele>
        <time>2019-02-24T12:00:39Z</time>
      </trkpt>
      <trkpt lat="46.4142060" lon="6.9280640">
        <ele>377.4</ele>
        <time>2019-02-24T12:00:40Z</time>
      </trkpt>
      <trkpt lat="46.4141950" lon="6.9280720">
        <ele>377.3</ele>
        <time>2019-02-24T12:00:41Z</time>
      </trkpt>
      <trkpt lat="46.4141860" lon="6.9280800">
        <ele>377.1</ele>
        <time>2019-02-24T12:00:42Z</time>
      </trkpt>
      <trkpt lat="46.4141780" lon="6.9280870">
        <ele>377.0</ele>
        <time>2019-02-24T12:00:43Z</time>
      </trkpt>
      <trkpt lat="46.4141720" lon="6.9280920">
        <ele>376.9</ele>
        <time>2019-02-24T12:00:44Z</time>
      </trkpt>
      <trkpt lat="46.4141700" lon="6.9280950">
        <ele>376.9</ele>
        <time>2019-02-24T12:00:45Z</time>
      </trkpt>
      <trkpt lat="46.4141690" lon="6.9280960">
        <ele>376.9</ele>
        <time>2019-02-24T12:00:46Z</time>
      </trkpt>
      <trkpt lat="46.4141680" lon="6.9280960">
        <ele>376.8</ele>
        <time>2019-02-24T12:00:47Z</time>
      </trkpt>
      <trkpt lat="46.4141680" lon="6.9280960">
        <ele>376.8</ele>
        <time>2019-02-24T12:00:48Z</time>
      </trkpt>
      <trkpt lat="46.4141680" lon="6.9280970">
        <ele>376.8</ele>
        <time>2019-02-24T12:00:49Z</time>
      </trkpt>
      <trkpt lat="46.4141650" lon="6.9280990">
        <ele>376.8</ele>
        <time>2019-02-24T12:00:50Z</time>
      </trkpt>
      <trkpt lat="46.4141600" lon="6.9281020">
        <ele>376.7</ele>
        <time>2019-02-24T12:00:51Z</time>
      </trkpt>
      <trkpt lat="46.4141510" lon="6.9281070">
        <ele>376.6</ele>
        <time>2019-02-24T12:00:52Z</time>
      </trkpt>
      <trkpt lat="46.4141390" lon="6.9281130">
        <ele>376.4</ele>
        <time>2019-02-24T12:00:53Z</time>
      </trkpt>
      <trkpt lat="46.4141270" lon="6.9281200">
        <ele>376.3</ele>
        <time>2019-02-24T12:00:54Z</time>
      </trkpt>
      <trkpt lat="46.4141190" lon="6.9281250">
        <ele>376.2</ele>
        <time>2019-02-24T12:00:55Z</time>
      </trkpt>
      <trkpt lat="46.4141120" lon="6.9281290">
        <ele>376.0</ele>
        <time>2019-02-24T12:00:56Z</time>
      </trkpt>
      <trkpt lat="46.4140970" lon="6.9281390">
        <ele>376.1</ele>
        <time>2019-02-24T12:00:57Z</time>
      </trkpt>
      <trkpt lat="46.4140780" lon="6.9281480">
        <ele>376.2</ele>
        <time>2019-02-24T12:00:58Z</time>
      </trkpt>
      <trkpt lat="46.4140670" lon="6.9281530">
        <ele>376.3</ele>
        <time>2019-02-24T12:00:59Z</time>
      </trkpt>
      <trkpt lat="46.4140620" lon="6.9281550">
        <ele>376.4</ele>
        <time>2019-02-24T12:01:00Z</time>
      </trkpt>
      <trkpt lat="46.4140600" lon="6.9281560">
        <ele>376.4</ele>
        <time>2019-02-24T12:01:01Z</time>
      </trkpt>
      <trkpt lat="46.4140590" lon="6.9281560">
        <ele>376.4</ele>
        <time>2019-02-24T12:01:02Z</time>
      </trkpt>
      <trkpt lat="46.4140580" lon="6.9281560">
        <ele>376.4</ele>
        <time>2019-02-24T12:01:03Z</time>
      </trkpt>
      <trkpt lat="46.4140580" lon="6.9281560">
        <ele>376.4</ele>
        <time>2019-02-24T12:01:04Z</time>
      </trkpt>
      <trkpt lat="46.4140580" lon="6.9281560">
        <ele>376.4</ele>
        <time>2019-02-24T12:01:05Z</time>
      </trkpt>
      <trkpt lat="46.4140580" lon="6.9281560">
        <ele>376.4</ele>
        <time>2019-02-24T12:01:06Z</time>
      </trkpt>
      <trkpt lat="46.4140580" lon="6.9281560">
        <ele>376.4</ele>
        <time>2019-02-24T12:01:07Z</time>
      </trkpt>
      <trkpt lat="46.4140580" lon="6.9281560">
        <ele>376.4</ele>
        <time>2019-02-24T12:01:08Z</time>
      </trkpt>
      <trkpt lat="46.4140580" lon="6.9281560">
        <ele>376.4</ele>
        <time>2019-02-24T12:01:09Z</time>
      </trkpt>
      <trkpt lat="46.4140580" lon="6.9281560">
        <ele>376.4</ele>
        <time>2019-02-24T12:01:10Z</time>
      </trkpt>
      <trkpt lat="46.4140580" lon="6.9281560">
        <ele>376.4</ele>
        <time>2019-02-24T12:01:11Z</time>
      </trkpt>
      <trkpt lat="46.4140580" lon="6.9281560">
        <ele>376.4</ele>
        <time>2019-02-24T12:01:12Z</time>
      </trkpt>
      <trkpt lat="46.4140580" lon="6.9281560">
        <ele>376.4</ele>
        <time>2019-02-24T12:01:13Z</time>
      </trkpt>
      <trkpt lat="46.4140580" lon="6.9281560">
        <ele>376.4</ele>
        <time>2019-02-24T12:01:14Z</time>
      </trkpt>
      <trkpt lat="46.4140580" lon="6.9281560">
        <ele>376.4</ele>
        <time>2019-02-24T12:01:15Z</time>
      </trkpt>
      <trkpt lat="46.4140580" lon="6.9281560">
        <ele>376.4</ele>
        <time>2019-02-24T12:01:16Z</time>
      </trkpt>
      <trkpt lat="46.4140580" lon="6.9281560">
        <ele>376.4</ele>
        <time>2019-02-24T12:01:17Z</time>
      </trkpt>
      <trkpt lat="46.4140580" lon="6.9281560">
        <ele>376.4</ele>
        <time>2019-02-24T12:01:18Z</time>
      </trkpt>
      <trkpt lat="46.4140580" lon="6.9281560">
        <ele>376.4</ele>
        <time>2019-02-24T12:01:19Z</time>
      </trkpt>
      <trkpt lat="46.4140580" lon="6.9281560">
        <ele>376.4</ele>
        <time>2019-02-24T12:01:20Z</time>
      </trkpt>
      <trkpt lat="46.4140580" lon="6.9281560">
        <ele>376.4</ele>
        <time>2019-02-24T12:01:21Z</time>
      </trkpt>
      <trkpt lat="46.4140580" lon="6.9281560">
        <ele>376.4</ele>
        <time>2019-02-24T12:01:22Z</time>
      </trkpt>
      <trkpt lat="46.4140580" lon="6.9281560">
        <ele>376.4</ele>
        <time>2019-02-24T12:01:23Z</time>
      </trkpt>
      <trkpt lat="46.4140580" lon="6.9281560">
        <ele>376.4</ele>
        <time>2019-02-24T12:01:24Z</time>
      </trkpt>
      <trkpt lat="46.4140580" lon="6.9281560">
        <ele>376.4</ele>
        <time>2019-02-24T12:01:25Z</time>
      </trkpt>
      <trkpt lat="46.4140580" lon="6.9281560">
        <ele>376.4</ele>
        <time>2019-02-24T12:01:26Z</time>
      </trkpt>
      <trkpt lat="46.4140580" lon="6.9281560">
        <ele>376.4</ele>
        <time>2019-02-24T12:01:27Z</time>
      </trkpt>
      <trkpt lat="46.4140580" lon="6.9281560">
        <ele>376.4</ele>
        <time>2019-02-24T12:01:28Z</time>
      </trkpt>
      <trkpt lat="46.4140580" lon="6.9281560">
        <ele>376.4</ele>
        <time>2019-02-24T12:01:29Z</time>
      </trkpt>
      <trkpt lat="46.4140580" lon="6.9281560">
        <ele>376.4</ele>
        <time>2019-02-24T12:01:30Z</time>
      </trkpt>
      <trkpt lat="46.4140580" lon="6.9281560">
        <ele>376.4</ele>
        <time>2019-02-24T12:01:31Z</time>
      </trkpt>
      <trkpt lat="46.4140580" lon="6.9281560">
        <ele>376.4</ele>
        <time>2019-02-24T12:01:32Z</time>
      </trkpt>
      <trkpt lat="46.4140580" lon="6.9281560">
        <ele>376.4</ele>
        <time>2019-02-24T12:01:33Z</time>
      </trkpt>
      <trkpt lat="46.4140580" lon="6.9281560">
        <ele>376.4</ele>
        <time>2019-02-24T12:01:34Z</time>
      </trkpt>
      <trkpt lat="46.4140580" lon="6.9281560">
        <ele>376.4</ele>
        <time>2019-02-24T12:01:35Z</time>
      </trkpt>
      <trkpt lat="46.4140580" lon="6.9281560">
        <ele>376.4</ele>
        <time>2019-02-24T12:01:36Z</time>
      </trkpt>
      <trkpt lat="46.4140580" lon="6.9281560">
        <ele>376.4</ele>
        <time>2019-02-24T12:01:37Z</time>
      </trkpt>
      <trkpt lat="46.4140580" lon="6.9281560">
        <ele>376.4</ele>
        <time>2019-02-24T12:01:38Z</time>
      </trkpt>
      <trkpt lat="46.4140580" lon="6.9281560">
        <ele>376.4</ele>
        <time>2019-02-24T12:01:39Z</time>
      </trkpt>
      <trkpt lat="46.4140580" lon="6.9281560">
        <ele>376.4</ele>
        <time>2019-02-24T12:01:40Z</time>
      </trkpt>
      <trkpt lat="46.4140580" lon="6.9281560">
        <ele>376.4</ele>
        <time>2019-02-24T12:01:41Z</time>
      </trkpt>
      <trkpt lat="46.4140580" lon="6.9281560">
        <ele>376.4</ele>
        <time>2019-02-24T12:01:42Z</time>
      </trkpt>
      <trkpt lat="46.4140580" lon="6.9281560">
        <ele>376.4</ele>
        <time>2019-02-24T12:01:43Z</time>
      </trkpt>
      <trkpt lat="46.4140580" lon="6.9281560">
        <ele>376.4</ele>
        <time>2019-02-24T12:01:44Z</time>
      </trkpt>
      <trkpt lat="46.4140580" lon="6.9281560">
        <ele>376.4</ele>
        <time>2019-02-24T12:01:45Z</time>
      </trkpt>
      <trkpt lat="46.4140580" lon="6.9281560">
        <ele>376.4</ele>
        <time>2019-02-24T12:01:46Z</time>
      </trkpt>
      <trkpt lat="46.4140580" lon="6.9281560">
        <ele>376.4</ele>
        <time>2019-02-24T12:01:47Z</time>
      </trkpt>
      <trkpt lat="46.4140580" lon="6.9281560">
        <ele>376.4</ele>
        <time>2019-02-24T12:01:48Z</time>
      </trkpt>
      <trkpt lat="46.4140580" lon="6.9281560">
        <ele>376.4</ele>
        <time>2019-02-24T12:01:49Z</time>
      </trkpt>
      <trkpt lat="46.4140580" lon="6.9281560">
        <ele>376.4</ele>
        <time>2019-02-24T12:01:50Z</time>
      </trkpt>
      <trkpt lat="46.4140580" lon="6.9281560">
        <ele>376.4</ele>
        <time>2019-02-24T12:01:51Z</time>
      </trkpt>
      <trkpt lat="46.4140580" lon="6.9281560">
        <ele>376.4</ele>
        <time>2019-02-24T12:01:52Z</time>
      </trkpt>
      <trkpt lat="46.4140580" lon="6.9281560">
        <ele>376.4</ele>
        <time>2019-02-24T12:01:53Z</time>
      </trkpt>
      <trkpt lat="46.4140580" lon="6.9281560">
        <ele>376.4</ele>
        <time>2019-02-24T12:01:54Z</time>
      </trkpt>
      <trkpt lat="46.4140580" lon="6.9281560">
        <ele>376.4</ele>
        <time>2019-02-24T12:01:55Z</time>
      </trkpt>
      <trkpt lat="46.4140580" lon="6.9281560">
        <ele>376.4</ele>
        <time>2019-02-24T12:01:56Z</time>
      </trkpt>
      <trkpt lat="46.4140580" lon="6.9281560">
        <ele>376.4</ele>
        <time>2019-02-24T12:01:57Z</time>
      </trkpt>
      <trkpt lat="46.4140580" lon="6.9281560">
        <ele>376.4</ele>
        <time>2019-02-24T12:01:58Z</time>
      </trkpt>
      <trkpt lat="46.4140580" lon="6.9281560">
        <ele>376.4</ele>
        <time>2019-02-24T12:01:59Z</time>
      </trkpt>
      <trkpt lat="46.4140580" lon="6.9281560">
        <ele>376.4</ele>
        <time>2019-02-24T12:02:00Z</time>
      </trkpt>
      <trkpt lat="46.4140580" lon="6.9281560">
        <ele>376.4</ele>
        <time>2019-02-24T12:02:01Z</time>
      </trkpt>
      <trkpt lat="46.4140580" lon="6.9281560">
        <ele>376.4</ele>
        <time>2019-02-24T12:02:02Z</time>
      </trkpt>
      <trkpt lat="46.4140580" lon="6.9281560">
        <ele>376.4</ele>
        <time>2019-02-24T12:02:03Z</time>
      </trkpt>
      <trkpt lat="46.4140580" lon="6.9281560">
        <ele>376.4</ele>
        <time>2019-02-24T12:02:04Z</time>
      </trkpt>
      <trkpt lat="46.4140580" lon="6.9281560">
        <ele>376.4</ele>
        <time>2019-02-24T12:02:05Z</time>
      </trkpt>
      <trkpt lat="46.4140580" lon="6.9281560">
        <ele>376.4</ele>
        <time>2019-02-24T12:02:06Z</time>
      </trkpt>
      <trkpt lat="46.4140580" lon="6.9281560">
        <ele>376.4</ele>
        <time>2019-02-24T12:02:07Z</time>
      </trkpt>
      <trkpt lat="46.4140580" lon="6.9281560">
        <ele>376.4</ele>
        <time>2019-02-24T12:02:08Z</time>
      </trkpt>
      <trkpt lat="46.4140580" lon="6.9281560">
        <ele>376.4</ele>
        <time>2019-02-24T12:02:09Z</time>
      </trkpt>
      <trkpt lat="46.4140580" lon="6.9281560">
        <ele>376.4</ele>
        <time>2019-02-24T12:02:10Z</time>
      </trkpt>
      <trkpt lat="46.4140740" lon="6.9281470">
        <ele>376.6</ele>
        <time>2019-02-24T12:02:11Z</time>
      </trkpt>
      <trkpt lat="46.4141360" lon="6.9281080">
        <ele>377.4</ele>
        <time>2019-02-24T12:02:12Z</time>
      </trkpt>
      <trkpt lat="46.4141490" lon="6.9280950">
        <ele>377.5</ele>
        <time>2019-02-24T12:02:13Z</time>
      </trkpt>
      <trkpt lat="46.4141480" lon="6.9280910">
        <ele>377.5</ele>
        <time>2019-02-24T12:02:14Z</time>
      </trkpt>
      <trkpt lat="46.4141490" lon="6.9280890">
        <ele>377.5</ele>
        <time>2019-02-24T12:02:15Z</time>
      </trkpt>
      <trkpt lat="46.4141510" lon="6.9280880">
        <ele>377.5</ele>
        <time>2019-02-24T12:02:16Z</time>
      </trkpt>
      <trkpt lat="46.4141530" lon="6.9280880">
        <ele>377.6</ele>
        <time>2019-02-24T12:02:17Z</time>
      </trkpt>
      <trkpt lat="46.4141550" lon="6.9280870">
        <ele>377.6</ele>
        <time>2019-02-24T12:02:18Z</time>
      </trkpt>
      <trkpt lat="46.4141570" lon="6.9280870">
        <ele>377.6</ele>
        <time>2019-02-24T12:02:19Z</time>
      </trkpt>
      <trkpt lat="46.4141580" lon="6.9280860">
        <ele>377.6</ele>
        <time>2019-02-24T12:02:20Z</time>
      </trkpt>
      <trkpt lat="46.4141580" lon="6.9280860">
        <ele>377.6</ele>
        <time>2019-02-24T12:02:21Z</time>
      </trkpt>
      <trkpt lat="46.4141590" lon="6.9280860">
        <ele>377.6</ele>
        <time>2019-02-24T12:02:22Z</time>
      </trkpt>
      <trkpt lat="46.4141590" lon="6.9280860">
        <ele>377.6</ele>
        <time>2019-02-24T12:02:23Z</time>
      </trkpt>
      <trkpt lat="46.4141590" lon="6.9280860">
        <ele>377.6</ele>
        <time>2019-02-24T12:02:24Z</time>
      </trkpt>
      <trkpt lat="46.4141590" lon="6.9280860">
        <ele>377.6</ele>
        <time>2019-02-24T12:02:25Z</time>
      </trkpt>
      <trkpt lat="46.4141590" lon="6.9280860">
        <ele>377.6</ele>
        <time>2019-02-24T12:02:26Z</time>
      </trkpt>
      <trkpt lat="46.4141590" lon="6.9280860">
        <ele>377.6</ele>
        <time>2019-02-24T12:02:27Z</time>
      </trkpt>
      <trkpt lat="46.4141590" lon="6.9280860">
        <ele>377.6</ele>
        <time>2019-02-24T12:02:28Z</time>
      </trkpt>
      <trkpt lat="46.4141590" lon="6.9280860">
        <ele>377.6</ele>
        <time>2019-02-24T12:02:29Z</time>
      </trkpt>
      <trkpt lat="46.4141590" lon="6.9280860">
        <ele>377.6</ele>
        <time>2019-02-24T12:02:30Z</time>
      </trkpt>
      <trkpt lat="46.4141590" lon="6.9280860">
        <ele>377.6</ele>
        <time>2019-02-24T12:02:31Z</time>
      </trkpt>
      <trkpt lat="46.4141590" lon="6.9280860">
        <ele>377.6</ele>
        <time>2019-02-24T12:02:32Z</time>
      </trkpt>
      <trkpt lat="46.4141590" lon="6.9280860">
        <ele>377.6</ele>
        <time>2019-02-24T12:02:33Z</time>
      </trkpt>
      <trkpt lat="46.4141590" lon="6.9280860">
        <ele>377.6</ele>
        <time>2019-02-24T12:02:34Z</time>
      </trkpt>
      <trkpt lat="46.4141590" lon="6.9280860">
        <ele>377.6</ele>
        <time>2019-02-24T12:02:35Z</time>
      </trkpt>
      <trkpt lat="46.4141590" lon="6.9280860">
        <ele>377.6</ele>
        <time>2019-02-24T12:02:36Z</time>
      </trkpt>
      <trkpt lat="46.4141590" lon="6.9280860">
        <ele>377.6</ele>
        <time>2019-02-24T12:02:37Z</time>
      </trkpt>
      <trkpt lat="46.4141590" lon="6.9280860">
        <ele>377.6</ele>
        <time>2019-02-24T12:02:38Z</time>
      </trkpt>
      <trkpt lat="46.4141590" lon="6.9280860">
        <ele>377.6</ele>
        <time>2019-02-24T12:02:39Z</time>
      </trkpt>
      <trkpt lat="46.4141590" lon="6.9280860">
        <ele>377.6</ele>
        <time>2019-02-24T12:02:40Z</time>
      </trkpt>
      <trkpt lat="46.4141590" lon="6.9280860">
        <ele>377.6</ele>
        <time>2019-02-24T12:02:41Z</time>
      </trkpt>
      <trkpt lat="46.4141590" lon="6.9280860">
        <ele>377.6</ele>
        <time>2019-02-24T12:02:42Z</time>
      </trkpt>
      <trkpt lat="46.4141590" lon="6.9280860">
        <ele>377.6</ele>
        <time>2019-02-24T12:02:43Z</time>
      </trkpt>
      <trkpt lat="46.4141590" lon="6.9280860">
        <ele>377.6</ele>
        <time>2019-02-24T12:02:44Z</time>
      </trkpt>
      <trkpt lat="46.4141590" lon="6.9280860">
        <ele>377.6</ele>
        <time>2019-02-24T12:02:45Z</time>
      </trkpt>
      <trkpt lat="46.4141590" lon="6.9280860">
        <ele>377.6</ele>
        <time>2019-02-24T12:02:46Z</time>
      </trkpt>
      <trkpt lat="46.4141590" lon="6.9280860">
        <ele>377.6</ele>
        <time>2019-02-24T12:02:47Z</time>
      </trkpt>
      <trkpt lat="46.4141590" lon="6.9280860">
        <ele>377.6</ele>
        <time>2019-02-24T12:02:48Z</time>
      </trkpt>
      <trkpt lat="46.4141590" lon="6.9280860">
        <ele>377.6</ele>
        <time>2019-02-24T12:02:49Z</time>
      </trkpt>
      <trkpt lat="46.4141590" lon="6.9280860">
        <ele>377.6</ele>
        <time>2019-02-24T12:02:50Z</time>
      </trkpt>
      <trkpt lat="46.4141590" lon="6.9280860">
        <ele>377.6</ele>
        <time>2019-02-24T12:02:51Z</time>
      </trkpt>
      <trkpt lat="46.4141590" lon="6.9280860">
        <ele>377.6</ele>
        <time>2019-02-24T12:02:52Z</time>
      </trkpt>
      <trkpt lat="46.4141590" lon="6.9280860">
        <ele>377.6</ele>
        <time>2019-02-24T12:02:53Z</time>
      </trkpt>
      <trkpt lat="46.4141590" lon="6.9280860">
        <ele>377.6</ele>
        <time>2019-02-24T12:02:54Z</time>
      </trkpt>
      <trkpt lat="46.4141590" lon="6.9280860">
        <ele>377.6</ele>
        <time>2019-02-24T12:02:55Z</time>
      </trkpt>
      <trkpt lat="46.4141590" lon="6.9280860">
        <ele>377.6</ele>
        <time>2019-02-24T12:02:56Z</time>
      </trkpt>
      <trkpt lat="46.4141590" lon="6.9280860">
        <ele>377.6</ele>
        <time>2019-02-24T12:02:57Z</time>
      </trkpt>
      <trkpt lat="46.4141590" lon="6.9280860">
        <ele>377.6</ele>
        <time>2019-02-24T12:02:58Z</time>
      </trkpt>
      <trkpt lat="46.4141590" lon="6.9280860">
        <ele>377.6</ele>
        <time>2019-02-24T12:02:59Z</time>
      </trkpt>
      <trkpt lat="46.4141590" lon="6.9280860">
        <ele>377.6</ele>
        <time>2019-02-24T12:03:00Z</time>
      </trkpt>
      <trkpt lat="46.4141590" lon="6.9280860">
        <ele>377.6</ele>
        <time>2019-02-24T12:03:01Z</time>
      </trkpt>
      <trkpt lat="46.4141590" lon="6.9280860">
        <ele>377.6</ele>
        <time>2019-02-24T12:03:02Z</time>
      </trkpt>
      <trkpt lat="46.4141590" lon="6.9280860">
        <ele>377.6</ele>
        <time>2019-02-24T12:03:03Z</time>
      </trkpt>
      <trkpt lat="46.4141590" lon="6.9280860">
        <ele>377.6</ele>
        <time>2019-02-24T12:03:04Z</time>
      </trkpt>
      <trkpt lat="46.4141590" lon="6.9280860">
        <ele>377.6</ele>
        <time>2019-02-24T12:03:05Z</time>
      </trkpt>
      <trkpt lat="46.4141590" lon="6.9280860">
        <ele>377.6</ele>
        <time>2019-02-24T12:03:06Z</time>
      </trkpt>
      <trkpt lat="46.4141590" lon="6.9280860">
        <ele>377.6</ele>
        <time>2019-02-24T12:03:07Z</time>
      </trkpt>
      <trkpt lat="46.4141590" lon="6.9280860">
        <ele>377.6</ele>
        <time>2019-02-24T12:03:08Z</time>
      </trkpt>
      <trkpt lat="46.4141590" lon="6.9280860">
        <ele>377.6</ele>
        <time>2019-02-24T12:03:09Z</time>
      </trkpt>
      <trkpt lat="46.4141590" lon="6.9280860">
        <ele>377.6</ele>
        <time>2019-02-24T12:03:10Z</time>
      </trkpt>
      <trkpt lat="46.4141590" lon="6.9280860">
        <ele>377.6</ele>
        <time>2019-02-24T12:03:11Z</time>
      </trkpt>
      <trkpt lat="46.4141590" lon="6.9280860">
        <ele>377.6</ele>
        <time>2019-02-24T12:03:12Z</time>
      </trkpt>
      <trkpt lat="46.4141590" lon="6.9280860">
        <ele>377.6</ele>
        <time>2019-02-24T12:03:13Z</time>
      </trkpt>
      <trkpt lat="46.4141590" lon="6.9280860">
        <ele>377.6</ele>
        <time>2019-02-24T12:03:14Z</time>
      </trkpt>
      <trkpt lat="46.4141590" lon="6.9280860">
        <ele>377.6</ele>
        <time>2019-02-24T12:03:15Z</time>
      </trkpt>
      <trkpt lat="46.4141590" lon="6.9280860">
        <ele>377.6</ele>
        <time>2019-02-24T12:03:16Z</time>
      </trkpt>
      <trkpt lat="46.4141590" lon="6.9280860">
        <ele>377.6</ele>
        <time>2019-02-24T12:03:17Z</time>
      </trkpt>
      <trkpt lat="46.4141590" lon="6.9280860">
        <ele>377.6</ele>
        <time>2019-02-24T12:03:18Z</time>
      </trkpt>
      <trkpt lat="46.4141590" lon="6.9280860">
        <ele>377.6</ele>
        <time>2019-02-24T12:03:19Z</time>
      </trkpt>
      <trkpt lat="46.4141590" lon="6.9280860">
        <ele>377.6</ele>
        <time>2019-02-24T12:03:20Z</time>
      </trkpt>
      <trkpt lat="46.4141590" lon="6.9280860">
        <ele>377.6</ele>
        <time>2019-02-24T12:03:21Z</time>
      </trkpt>
      <trkpt lat="46.4141590" lon="6.9280860">
        <ele>377.6</ele>
        <time>2019-02-24T12:03:22Z</time>
      </trkpt>
      <trkpt lat="46.4141590" lon="6.9280860">
        <ele>377.6</ele>
        <time>2019-02-24T12:03:23Z</time>
      </trkpt>
      <trkpt lat="46.4141590" lon="6.9280860">
        <ele>377.6</ele>
        <time>2019-02-24T12:03:24Z</time>
      </trkpt>
      <trkpt lat="46.4141590" lon="6.9280860">
        <ele>377.6</ele>
        <time>2019-02-24T12:03:25Z</time>
      </trkpt>
      <trkpt lat="46.4141590" lon="6.9280860">
        <ele>377.6</ele>
        <time>2019-02-24T12:03:26Z</time>
      </trkpt>
      <trkpt lat="46.4141590" lon="6.9280860">
        <ele>377.6</ele>
        <time>2019-02-24T12:03:27Z</time>
      </trkpt>
      <trkpt lat="46.4141590" lon="6.9280860">
        <ele>377.6</ele>
        <time>2019-02-24T12:03:28Z</time>
      </trkpt>
      <trkpt lat="46.4141590" lon="6.9280860">
        <ele>377.6</ele>
        <time>2019-02-24T12:03:29Z</time>
      </trkpt>
      <trkpt lat="46.4141590" lon="6.9280860">
        <ele>377.6</ele>
        <time>2019-02-24T12:03:30Z</time>
      </trkpt>
      <trkpt lat="46.4141590" lon="6.9280860">
        <ele>377.6</ele>
        <time>2019-02-24T12:03:31Z</time>
      </trkpt>
      <trkpt lat="46.4141590" lon="6.9280860">
        <ele>377.6</ele>
        <time>2019-02-24T12:03:32Z</time>
      </trkpt>
      <trkpt lat="46.4141590" lon="6.9280860">
        <ele>377.6</ele>
        <time>2019-02-24T12:03:33Z</time>
      </trkpt>
      <trkpt lat="46.4141590" lon="6.9280860">
        <ele>377.6</ele>
        <time>2019-02-24T12:03:34Z</time>
      </trkpt>
      <trkpt lat="46.4141590" lon="6.9280860">
        <ele>377.6</ele>
        <time>2019-02-24T12:03:35Z</time>
      </trkpt>
      <trkpt lat="46.4141590" lon="6.9280860">
        <ele>377.6</ele>
        <time>2019-02-24T12:03:36Z</time>
      </trkpt>
      <trkpt lat="46.4141590" lon="6.9280860">
        <ele>377.6</ele>
        <time>2019-02-24T12:03:37Z</time>
      </trkpt>
      <trkpt lat="46.4141590" lon="6.9280860">
        <ele>377.6</ele>
        <time>2019-02-24T12:03:38Z</time>
      </trkpt>
      <trkpt lat="46.4141590" lon="6.9280860">
        <ele>377.6</ele>
        <time>2019-02-24T12:03:39Z</time>
      </trkpt>
      <trkpt lat="46.4141590" lon="6.9280860">
        <ele>377.6</ele>
        <time>2019-02-24T12:03:40Z</time>
      </trkpt>
      <trkpt lat="46.4141590" lon="6.9280860">
        <ele>377.6</ele>
        <time>2019-02-24T12:03:41Z</time>
      </trkpt>
      <trkpt lat="46.4141590" lon="6.9280860">
        <ele>377.6</ele>
        <time>2019-02-24T12:03:42Z</time>
      </trkpt>
      <trkpt lat="46.4141590" lon="6.9280860">
        <ele>377.6</ele>
        <time>2019-02-24T12:03:43Z</time>
      </trkpt>
      <trkpt lat="46.4141590" lon="6.9280860">
        <ele>377.6</ele>
        <time>2019-02-24T12:03:44Z</time>
      </trkpt>
      <trkpt lat="46.4141590" lon="6.9280860">
        <ele>377.6</ele>
        <time>2019-02-24T12:03:45Z</time>
      </trkpt>
      <trkpt lat="46.4141590" lon="6.9280860">
        <ele>377.6</ele>
        <time>2019-02-24T12:03:46Z</time>
      </trkpt>
      <trkpt lat="46.4141590" lon="6.9280860">
        <ele>377.6</ele>
        <time>2019-02-24T12:03:47Z</time>
      </trkpt>
      <trkpt lat="46.4141590" lon="6.9280860">
        <ele>377.6</ele>
        <time>2019-02-24T12:03:48Z</time>
      </trkpt>
      <trkpt lat="46.4141590" lon="6.9280860">
        <ele>377.6</ele>
        <time>2019-02-24T12:03:49Z</time>
      </trkpt>
      <trkpt lat="46.4141590" lon="6.9280860">
        <ele>377.6</ele>
        <time>2019-02-24T12:03:50Z</time>
      </trkpt>
      <trkpt lat="46.4141590" lon="6.9280860">
        <ele>377.6</ele>
        <time>2019-02-24T12:03:51Z</time>
      </trkpt>
      <trkpt lat="46.4141590" lon="6.9280860">
        <ele>377.6</ele>
        <time>2019-02-24T12:03:52Z</time>
      </trkpt>
      <trkpt lat="46.4141590" lon="6.9280860">
        <ele>377.6</ele>
        <time>2019-02-24T12:03:53Z</time>
      </trkpt>
      <trkpt lat="46.4141600" lon="6.9280860">
        <ele>377.6</ele>
        <time>2019-02-24T12:03:54Z</time>
      </trkpt>
      <trkpt lat="46.4141610" lon="6.9280850">
        <ele>377.6</ele>
        <time>2019-02-24T12:03:55Z</time>
      </trkpt>
      <trkpt lat="46.4141650" lon="6.9280830">
        <ele>377.6</ele>
        <time>2019-02-24T12:03:56Z</time>
      </trkpt>
      <trkpt lat="46.4141730" lon="6.9280800">
        <ele>377.7</ele>
        <time>2019-02-24T12:03:57Z</time>
      </trkpt>
      <trkpt lat="46.4141860" lon="6.9280740">
        <ele>377.8</ele>
        <time>2019-02-24T12:03:58Z</time>
      </trkpt>
      <trkpt lat="46.4142010" lon="6.9280640">
        <ele>377.9</ele>
        <time>2019-02-24T12:03:59Z</time>
      </trkpt>
      <trkpt lat="46.4142160" lon="6.9280510">
        <ele>378.0</ele>
        <time>2019-02-24T12:04:00Z</time>
      </trkpt>
      <trkpt lat="46.4142300" lon="6.9280340">
        <ele>378.1</ele>
        <time>2019-02-24T12:04:01Z</time>
      </trkpt>
      <trkpt lat="46.4142430" lon="6.9280160">
        <ele>378.2</ele>
        <time>2019-02-24T12:04:02Z</time>
      </trkpt>
      <trkpt lat="46.4142560" lon="6.9280000">
        <ele>378.3</ele>
        <time>2019-02-24T12:04:03Z</time>
      </trkpt>
      <trkpt lat="46.4142690" lon="6.9279860">
        <ele>378.4</ele>
        <time>2019-02-24T12:04:04Z</time>
      </trkpt>
      <trkpt lat="46.4142820" lon="6.9279760">
        <ele>378.5</ele>
        <time>2019-02-24T12:04:05Z</time>
      </trkpt>
      <trkpt lat="46.4142960" lon="6.9279730">
        <ele>378.6</ele>
        <time>2019-02-24T12:04:06Z</time>
      </trkpt>
      <trkpt lat="46.4143110" lon="6.9279730">
        <ele>378.7</ele>
        <time>2019-02-24T12:04:07Z</time>
      </trkpt>
      <trkpt lat="46.4143260" lon="6.9279760">
        <ele>378.8</ele>
        <time>2019-02-24T12:04:08Z</time>
      </trkpt>
      <trkpt lat="46.4143410" lon="6.9279780">
        <ele>378.9</ele>
        <time>2019-02-24T12:04:09Z</time>
      </trkpt>
      <trkpt lat="46.4143560" lon="6.9279780">
        <ele>379.0</ele>
        <time>2019-02-24T12:04:10Z</time>
      </trkpt>
      <trkpt lat="46.4143710" lon="6.9279750">
        <ele>379.1</ele>
        <time>2019-02-24T12:04:11Z</time>
      </trkpt>
      <trkpt lat="46.4143860" lon="6.9279710">
        <ele>379.1</ele>
        <time>2019-02-24T12:04:12Z</time>
      </trkpt>
      <trkpt lat="46.4144010" lon="6.9279640">
        <ele>379.2</ele>
        <time>2019-02-24T12:04:13Z</time>
      </trkpt>
      <trkpt lat="46.4144140" lon="6.9279570">
        <ele>379.3</ele>
        <time>2019-02-24T12:04:14Z</time>
      </trkpt>
      <trkpt lat="46.4144270" lon="6.9279470">
        <ele>379.4</ele>
        <time>2019-02-24T12:04:15Z</time>
      </trkpt>
      <trkpt lat="46.4144400" lon="6.9279370">
        <ele>379.5</ele>
        <time>2019-02-24T12:04:16Z</time>
      </trkpt>
      <trkpt lat="46.4144510" lon="6.9279270">
        <ele>379.6</ele>
        <time>2019-02-24T12:04:17Z</time>
      </trkpt>
      <trkpt lat="46.4144610" lon="6.9279160">
        <ele>379.7</ele>
        <time>2019-02-24T12:04:18Z</time>
      </trkpt>
      <trkpt lat="46.4144710" lon="6.9279050">
        <ele>379.7</ele>
        <time>2019-02-24T12:04:19Z</time>
      </trkpt>
      <trkpt lat="46.4144800" lon="6.9278950">
        <ele>379.8</ele>
        <time>2019-02-24T12:04:20Z</time>
      </trkpt>
      <trkpt lat="46.4144900" lon="6.9278850">
        <ele>380.0</ele>
        <time>2019-02-24T12:04:21Z</time>
      </trkpt>
      <trkpt lat="46.4145000" lon="6.9278770">
        <ele>380.1</ele>
        <time>2019-02-24T12:04:22Z</time>
      </trkpt>
      <trkpt lat="46.4145120" lon="6.9278700">
        <ele>380.2</ele>
        <time>2019-02-24T12:04:23Z</time>
      </trkpt>
      <trkpt lat="46.4145240" lon="6.9278640">
        <ele>380.3</ele>
        <time>2019-02-24T12:04:24Z</time>
      </trkpt>
      <trkpt lat="46.4145370" lon="6.9278590">
        <ele>380.4</ele>
        <time>2019-02-24T12:04:25Z</time>
      </trkpt>
      <trkpt lat="46.4145510" lon="6.9278550">
        <ele>380.6</ele>
        <time>2019-02-24T12:04:26Z</time>
      </trkpt>
      <trkpt lat="46.4145650" lon="6.9278500">
        <ele>380.7</ele>
        <time>2019-02-24T12:04:27Z</time>
      </trkpt>
      <trkpt lat="46.4145790" lon="6.9278460">
        <ele>380.8</ele>
        <time>2019-02-24T12:04:28Z</time>
      </trkpt>
      <trkpt lat="46.4146060" lon="6.9278400">
        <ele>381.1</ele>
        <time>2019-02-24T12:04:29Z</time>
      </trkpt>
      <trkpt lat="46.4146190" lon="6.9278390">
        <ele>381.6</ele>
        <time>2019-02-24T12:04:30Z</time>
      </trkpt>
      <trkpt lat="46.4146320" lon="6.9278370">
        <ele>381.6</ele>
        <time>2019-02-24T12:04:31Z</time>
      </trkpt>
      <trkpt lat="46.4146450" lon="6.9278350">
        <ele>381.6</ele>
        <time>2019-02-24T12:04:32Z</time>
      </trkpt>
      <trkpt lat="46.4146580" lon="6.9278340">
        <ele>381.6</ele>
        <time>2019-02-24T12:04:33Z</time>
      </trkpt>
      <trkpt lat="46.4146720" lon="6.9278320">
        <ele>381.6</ele>
        <time>2019-02-24T12:04:34Z</time>
      </trkpt>
      <trkpt lat="46.4146850" lon="6.9278300">
        <ele>381.7</ele>
        <time>2019-02-24T12:04:35Z</time>
      </trkpt>
      <trkpt lat="46.4146980" lon="6.9278290">
        <ele>381.7</ele>
        <time>2019-02-24T12:04:36Z</time>
      </trkpt>
      <trkpt lat="46.4147110" lon="6.9278270">
        <ele>381.7</ele>
        <time>2019-02-24T12:04:37Z</time>
      </trkpt>
      <trkpt lat="46.4147240" lon="6.9278260">
        <ele>381.7</ele>
        <time>2019-02-24T12:04:38Z</time>
      </trkpt>
      <trkpt lat="46.4147370" lon="6.9278240">
        <ele>381.8</ele>
        <time>2019-02-24T12:04:39Z</time>
      </trkpt>
      <trkpt lat="46.4147500" lon="6.9278220">
        <ele>381.8</ele>
        <time>2019-02-24T12:04:40Z</time>
      </trkpt>
      <trkpt lat="46.4147630" lon="6.9278210">
        <ele>381.8</ele>
        <time>2019-02-24T12:04:41Z</time>
      </trkpt>
      <trkpt lat="46.4147760" lon="6.9278190">
        <ele>381.8</ele>
        <time>2019-02-24T12:04:42Z</time>
      </trkpt>
      <trkpt lat="46.4147890" lon="6.9278170">
        <ele>381.8</ele>
        <time>2019-02-24T12:04:43Z</time>
      </trkpt>
      <trkpt lat="46.4148030" lon="6.9278160">
        <ele>381.9</ele>
        <time>2019-02-24T12:04:44Z</time>
      </trkpt>
      <trkpt lat="46.4148160" lon="6.9278140">
        <ele>381.9</ele>
        <time>2019-02-24T12:04:45Z</time>
      </trkpt>
      <trkpt lat="46.4148290" lon="6.9278120">
        <ele>381.9</ele>
        <time>2019-02-24T12:04:46Z</time>
      </trkpt>
      <trkpt lat="46.4148420" lon="6.9278110">
        <ele>381.9</ele>
        <time>2019-02-24T12:04:47Z</time>
      </trkpt>
      <trkpt lat="46.4148550" lon="6.9278090">
        <ele>382.0</ele>
        <time>2019-02-24T12:04:48Z</time>
      </trkpt>
      <trkpt lat="46.4148680" lon="6.9278070">
        <ele>382.0</ele>
        <time>2019-02-24T12:04:49Z</time>
      </trkpt>
      <trkpt lat="46.4148810" lon="6.9278060">
        <ele>382.0</ele>
        <time>2019-02-24T12:04:50Z</time>
      </trkpt>
      <trkpt lat="46.4148940" lon="6.9278040">
        <ele>382.0</ele>
        <time>2019-02-24T12:04:51Z</time>
      </trkpt>
      <trkpt lat="46.4149070" lon="6.9278030">
        <ele>382.0</ele>
        <time>2019-02-24T12:04:52Z</time>
      </trkpt>
      <trkpt lat="46.4149200" lon="6.9278010">
        <ele>382.1</ele>
        <time>2019-02-24T12:04:53Z</time>
      </trkpt>
      <trkpt lat="46.4149340" lon="6.9277990">
        <ele>382.1</ele>
        <time>2019-02-24T12:04:54Z</time>
      </trkpt>
      <trkpt lat="46.4149470" lon="6.9277980">
        <ele>382.1</ele>
        <time>2019-02-24T12:04:55Z</time>
      </trkpt>
      <trkpt lat="46.4149600" lon="6.9277960">
        <ele>382.1</ele>
        <time>2019-02-24T12:04:56Z</time>
      </trkpt>
      <trkpt lat="46.4149730" lon="6.9277940">
        <ele>382.2</ele>
        <time>2019-02-24T12:04:57Z</time>
      </trkpt>
      <trkpt lat="46.4149860" lon="6.9277930">
        <ele>381.5</ele>
        <time>2019-02-24T12:04:58Z</time>
      </trkpt>
      <trkpt lat="46.4149990" lon="6.9277910">
        <ele>381.3</ele>
        <time>2019-02-24T12:04:59Z</time>
      </trkpt>
      <trkpt lat="46.4150080" lon="6.9277940">
        <ele>381.1</ele>
        <time>2019-02-24T12:05:00Z</time>
      </trkpt>
      <trkpt lat="46.4150170" lon="6.9277990">
        <ele>380.8</ele>
        <time>2019-02-24T12:05:01Z</time>
      </trkpt>
      <trkpt lat="46.4150270" lon="6.9278040">
        <ele>380.6</ele>
        <time>2019-02-24T12:05:02Z</time>
      </trkpt>
      <trkpt lat="46.4150380" lon="6.9278110">
        <ele>380.4</ele>
        <time>2019-02-24T12:05:03Z</time>
      </trkpt>
      <trkpt lat="46.4150520" lon="6.9278200">
        <ele>380.0</ele>
        <time>2019-02-24T12:05:04Z</time>
      </trkpt>
      <trkpt lat="46.4150700" lon="6.9278310">
        <ele>379.6</ele>
        <time>2019-02-24T12:05:05Z</time>
      </trkpt>
      <trkpt lat="46.4150920" lon="6.9278440">
        <ele>379.1</ele>
        <time>2019-02-24T12:05:06Z</time>
      </trkpt>
      <trkpt lat="46.4151200" lon="6.9278600">
        <ele>378.5</ele>
        <time>2019-02-24T12:05:07Z</time>
      </trkpt>
      <trkpt lat="46.4151530" lon="6.9278770">
        <ele>377.7</ele>
        <time>2019-02-24T12:05:08Z</time>
      </trkpt>
      <trkpt lat="46.4151890" lon="6.9278910">
        <ele>376.9</ele>
        <time>2019-02-24T12:05:09Z</time>
      </trkpt>
      <trkpt lat="46.4152290" lon="6.9279000">
        <ele>376.0</ele>
        <time>2019-02-24T12:05:10Z</time>
      </trkpt>
      <trkpt lat="46.4152700" lon="6.9279010">
        <ele>375.2</ele>
        <time>2019-02-24T12:05:11Z</time>
      </trkpt>
      <trkpt lat="46.4153130" lon="6.9278970">
        <ele>374.5</ele>
        <time>2019-02-24T12:05:12Z</time>
      </trkpt>
      <trkpt lat="46.4153550" lon="6.9278900">
        <ele>373.9</ele>
        <time>2019-02-24T12:05:13Z</time>
      </trkpt>
      <trkpt lat="46.4153950" lon="6.9278820">
        <ele>373.3</ele>
        <time>2019-02-24T12:05:14Z</time>
      </trkpt>
      <trkpt lat="46.4154320" lon="6.9278740">
        <ele>372.8</ele>
        <time>2019-02-24T12:05:15Z</time>
      </trkpt>
      <trkpt lat="46.4154660" lon="6.9278690">
        <ele>372.3</ele>
        <time>2019-02-24T12:05:16Z</time>
      </trkpt>
      <trkpt lat="46.4154990" lon="6.9278640">
        <ele>371.9</ele>
        <time>2019-02-24T12:05:17Z</time>
      </trkpt>
      <trkpt lat="46.4155290" lon="6.9278590">
        <ele>371.5</ele>
        <time>2019-02-24T12:05:18Z</time>
      </trkpt>
      <trkpt lat="46.4155740" lon="6.9278540">
        <ele>371.0</ele>
        <time>2019-02-24T12:05:19Z</time>
      </trkpt>
      <trkpt lat="46.4155880" lon="6.9278520">
        <ele>370.8</ele>
        <time>2019-02-24T12:05:20Z</time>
      </trkpt>
      <trkpt lat="46.4156170" lon="6.9278480">
        <ele>370.5</ele>
        <time>2019-02-24T12:05:21Z</time>
      </trkpt>
      <trkpt lat="46.4156460" lon="6.9278430">
        <ele>370.2</ele>
        <time>2019-02-24T12:05:22Z</time>
      </trkpt>
      <trkpt lat="46.4156750" lon="6.9278380">
        <ele>369.8</ele>
        <time>2019-02-24T12:05:23Z</time>
      </trkpt>
      <trkpt lat="46.4157050" lon="6.9278320">
        <ele>369.4</ele>
        <time>2019-02-24T12:05:24Z</time>
      </trkpt>
      <trkpt lat="46.4157350" lon="6.9278250">
        <ele>369.0</ele>
        <time>2019-02-24T12:05:25Z</time>
      </trkpt>
      <trkpt lat="46.4157650" lon="6.9278190">
        <ele>368.6</ele>
        <time>2019-02-24T12:05:26Z</time>
      </trkpt>
      <trkpt lat="46.4157940" lon="6.9278130">
        <ele>368.3</ele>
        <time>2019-02-24T12:05:27Z</time>
      </trkpt>
      <trkpt lat="46.4158210" lon="6.9278070">
        <ele>368.0</ele>
        <time>2019-02-24T12:05:28Z</time>
      </trkpt>
      <trkpt lat="46.4158470" lon="6.9278020">
        <ele>367.6</ele>
        <time>2019-02-24T12:05:29Z</time>
      </trkpt>
      <trkpt lat="46.4158700" lon="6.9277990">
        <ele>367.4</ele>
        <time>2019-02-24T12:05:30Z</time>
      </trkpt>
      <trkpt lat="46.4158910" lon="6.9277960">
        <ele>367.1</ele>
        <time>2019-02-24T12:05:31Z</time>
      </trkpt>
      <trkpt lat="46.4159100" lon="6.9277950">
        <ele>366.8</ele>
        <time>2019-02-24T12:05:32Z</time>
      </trkpt>
      <trkpt lat="46.4159270" lon="6.9277940">
        <ele>367.0</ele>
        <time>2019-02-24T12:05:33Z</time>
      </trkpt>
      <trkpt lat="46.4159430" lon="6.9277950">
        <ele>367.1</ele>
        <time>2019-02-24T12:05:34Z</time>
      </trkpt>
      <trkpt lat="46.4159590" lon="6.9277960">
        <ele>367.1</ele>
        <time>2019-02-24T12:05:35Z</time>
      </trkpt>
      <trkpt lat="46.4159750" lon="6.9277970">
        <ele>367.2</ele>
        <time>2019-02-24T12:05:36Z</time>
      </trkpt>
      <trkpt lat="46.4159920" lon="6.9277990">
        <ele>367.3</ele>
        <time>2019-02-24T12:05:37Z</time>
      </trkpt>
      <trkpt lat="46.4160100" lon="6.9278010">
        <ele>367.4</ele>
        <time>2019-02-24T12:05:38Z</time>
      </trkpt>
      <trkpt lat="46.4160300" lon="6.9278030">
        <ele>367.5</ele>
        <time>2019-02-24T12:05:39Z</time>
      </trkpt>
      <trkpt lat="46.4160520" lon="6.9278040">
        <ele>367.7</ele>
        <time>2019-02-24T12:05:40Z</time>
      </trkpt>
      <trkpt lat="46.4160750" lon="6.9278050">
        <ele>367.8</ele>
        <time>2019-02-24T12:05:41Z</time>
      </trkpt>
      <trkpt lat="46.4161000" lon="6.9278060">
        <ele>368.1</ele>
        <time>2019-02-24T12:05:42Z</time>
      </trkpt>
      <trkpt lat="46.4161260" lon="6.9278060">
        <ele>368.3</ele>
        <time>2019-02-24T12:05:43Z</time>
      </trkpt>
      <trkpt lat="46.4161530" lon="6.9278050">
        <ele>368.6</ele>
        <time>2019-02-24T12:05:44Z</time>
      </trkpt>
      <trkpt lat="46.4161810" lon="6.9278030">
        <ele>368.9</ele>
        <time>2019-02-24T12:05:45Z</time>
      </trkpt>
      <trkpt lat="46.4162100" lon="6.9278000">
        <ele>369.3</ele>
        <time>2019-02-24T12:05:46Z</time>
      </trkpt>
      <trkpt lat="46.4162390" lon="6.9277960">
        <ele>369.5</ele>
        <time>2019-02-24T12:05:47Z</time>
      </trkpt>
      <trkpt lat="46.4162690" lon="6.9277910">
        <ele>369.7</ele>
        <time>2019-02-24T12:05:48Z</time>
      </trkpt>
      <trkpt lat="46.4162990" lon="6.9277860">
        <ele>369.9</ele>
        <time>2019-02-24T12:05:49Z</time>
      </trkpt>
      <trkpt lat="46.4163290" lon="6.9277800">
        <ele>370.1</ele>
        <time>2019-02-24T12:05:50Z</time>
      </trkpt>
      <trkpt lat="46.4163580" lon="6.9277750">
        <ele>370.3</ele>
        <time>2019-02-24T12:05:51Z</time>
      </trkpt>
      <trkpt lat="46.4163860" lon="6.9277700">
        <ele>370.5</ele>
        <time>2019-02-24T12:05:52Z</time>
      </trkpt>
      <trkpt lat="46.4164130" lon="6.9277660">
        <ele>370.7</ele>
        <time>2019-02-24T12:05:53Z</time>
      </trkpt>
      <trkpt lat="46.4164380" lon="6.9277640">
        <ele>371.0</ele>
        <time>2019-02-24T12:05:54Z</time>
      </trkpt>
      <trkpt lat="46.4164610" lon="6.9277640">
        <ele>371.2</ele>
        <time>2019-02-24T12:05:55Z</time>
      </trkpt>
      <trkpt lat="46.4164850" lon="6.9277650">
        <ele>371.4</ele>
        <time>2019-02-24T12:05:56Z</time>
      </trkpt>
      <trkpt lat="46.4165090" lon="6.9277660">
        <ele>371.6</ele>
        <time>2019-02-24T12:05:57Z</time>
      </trkpt>
      <trkpt lat="46.4165360" lon="6.9277680">
        <ele>371.7</ele>
        <time>2019-02-24T12:05:58Z</time>
      </trkpt>
      <trkpt lat="46.4165680" lon="6.9277690">
        <ele>371.8</ele>
        <time>2019-02-24T12:05:59Z</time>
      </trkpt>
      <trkpt lat="46.4166020" lon="6.9277690">
        <ele>372.0</ele>
        <time>2019-02-24T12:06:00Z</time>
      </trkpt>
      <trkpt lat="46.4166390" lon="6.9277670">
        <ele>372.1</ele>
        <time>2019-02-24T12:06:01Z</time>
      </trkpt>
      <trkpt lat="46.4166760" lon="6.9277640">
        <ele>372.2</ele>
        <time>2019-02-24T12:06:02Z</time>
      </trkpt>
      <trkpt lat="46.4167130" lon="6.9277580">
        <ele>372.3</ele>
        <time>2019-02-24T12:06:03Z</time>
      </trkpt>
      <trkpt lat="46.4167490" lon="6.9277490">
        <ele>372.5</ele>
        <time>2019-02-24T12:06:04Z</time>
      </trkpt>
      <trkpt lat="46.4167860" lon="6.9277360">
        <ele>372.6</ele>
        <time>2019-02-24T12:06:05Z</time>
      </trkpt>
      <trkpt lat="46.4168480" lon="6.9277040">
        <ele>372.8</ele>
        <time>2019-02-24T12:06:06Z</time>
      </trkpt>
      <trkpt lat="46.4168740" lon="6.9276890">
        <ele>372.9</ele>
        <time>2019-02-24T12:06:07Z</time>
      </trkpt>
      <trkpt lat="46.4168990" lon="6.9276750">
        <ele>372.9</ele>
        <time>2019-02-24T12:06:08Z</time>
      </trkpt>
      <trkpt lat="46.4169380" lon="6.9276580">
        <ele>373.0</ele>
        <time>2019-02-24T12:06:09Z</time>
      </trkpt>
      <trkpt lat="46.4169750" lon="6.9276490">
        <ele>373.2</ele>
        <time>2019-02-24T12:06:10Z</time>
      </trkpt>
      <trkpt lat="46.4170320" lon="6.9276590">
        <ele>373.3</ele>
        <time>2019-02-24T12:06:11Z</time>
      </trkpt>
      <trkpt lat="46.4170510" lon="6.9276660">
        <ele>373.3</ele>
        <time>2019-02-24T12:06:12Z</time>
      </trkpt>
      <trkpt lat="46.4170880" lon="6.9276790">
        <ele>373.4</ele>
        <time>2019-02-24T12:06:13Z</time>
      </trkpt>
      <trkpt lat="46.4171290" lon="6.9276880">
        <ele>373.5</ele>
        <time>2019-02-24T12:06:14Z</time>
      </trkpt>
      <trkpt lat="46.4171720" lon="6.9276900">
        <ele>373.5</ele>
        <time>2019-02-24T12:06:15Z</time>
      </trkpt>
      <trkpt lat="46.4172160" lon="6.9276840">
        <ele>373.6</ele>
        <time>2019-02-24T12:06:16Z</time>
      </trkpt>
      <trkpt lat="46.4172620" lon="6.9276740">
        <ele>373.7</ele>
        <time>2019-02-24T12:06:17Z</time>
      </trkpt>
      <trkpt lat="46.4173060" lon="6.9276630">
        <ele>373.8</ele>
        <time>2019-02-24T12:06:18Z</time>
      </trkpt>
      <trkpt lat="46.4173710" lon="6.9276470">
        <ele>373.9</ele>
        <time>2019-02-24T12:06:19Z</time>
      </trkpt>
      <trkpt lat="46.4173920" lon="6.9276420">
        <ele>373.9</ele>
        <time>2019-02-24T12:06:20Z</time>
      </trkpt>
      <trkpt lat="46.4174330" lon="6.9276330">
        <ele>373.9</ele>
        <time>2019-02-24T12:06:21Z</time>
      </trkpt>
      <trkpt lat="46.4174740" lon="6.9276240">
        <ele>374.0</ele>
        <time>2019-02-24T12:06:22Z</time>
      </trkpt>
      <trkpt lat="46.4175140" lon="6.9276140">
        <ele>374.0</ele>
        <time>2019-02-24T12:06:23Z</time>
      </trkpt>
      <trkpt lat="46.4175540" lon="6.9276050">
        <ele>374.1</ele>
        <time>2019-02-24T12:06:24Z</time>
      </trkpt>
      <trkpt lat="46.4175950" lon="6.9275940">
        <ele>374.1</ele>
        <time>2019-02-24T12:06:25Z</time>
      </trkpt>
      <trkpt lat="46.4176650" lon="6.9275740">
        <ele>374.2</ele>
        <time>2019-02-24T12:06:26Z</time>
      </trkpt>
      <trkpt lat="46.4176940" lon="6.9275660">
        <ele>374.2</ele>
        <time>2019-02-24T12:06:27Z</time>
      </trkpt>
      <trkpt lat="46.4177220" lon="6.9275570">
        <ele>374.2</ele>
        <time>2019-02-24T12:06:28Z</time>
      </trkpt>
      <trkpt lat="46.4177650" lon="6.9275430">
        <ele>374.3</ele>
        <time>2019-02-24T12:06:29Z</time>
      </trkpt>
      <trkpt lat="46.4178090" lon="6.9275280">
        <ele>374.0</ele>
        <time>2019-02-24T12:06:30Z</time>
      </trkpt>
      <trkpt lat="46.4178760" lon="6.9275040">
        <ele>373.7</ele>
        <time>2019-02-24T12:06:31Z</time>
      </trkpt>
      <trkpt lat="46.4178980" lon="6.9274960">
        <ele>373.7</ele>
        <time>2019-02-24T12:06:32Z</time>
      </trkpt>
      <trkpt lat="46.4179420" lon="6.9274800">
        <ele>373.5</ele>
        <time>2019-02-24T12:06:33Z</time>
      </trkpt>
      <trkpt lat="46.4179870" lon="6.9274640">
        <ele>373.4</ele>
        <time>2019-02-24T12:06:34Z</time>
      </trkpt>
      <trkpt lat="46.4180310" lon="6.9274470">
        <ele>373.2</ele>
        <time>2019-02-24T12:06:35Z</time>
      </trkpt>
      <trkpt lat="46.4180750" lon="6.9274300">
        <ele>373.1</ele>
        <time>2019-02-24T12:06:36Z</time>
      </trkpt>
      <trkpt lat="46.4181180" lon="6.9274130">
        <ele>373.0</ele>
        <time>2019-02-24T12:06:37Z</time>
      </trkpt>
      <trkpt lat="46.4181600" lon="6.9273950">
        <ele>372.9</ele>
        <time>2019-02-24T12:06:38Z</time>
      </trkpt>
      <trkpt lat="46.4182000" lon="6.9273760">
        <ele>372.8</ele>
        <time>2019-02-24T12:06:39Z</time>
      </trkpt>
      <trkpt lat="46.4182390" lon="6.9273550">
        <ele>372.7</ele>
        <time>2019-02-24T12:06:40Z</time>
      </trkpt>
      <trkpt lat="46.4182760" lon="6.9273320">
        <ele>372.7</ele>
        <time>2019-02-24T12:06:41Z</time>
      </trkpt>
      <trkpt lat="46.4183100" lon="6.9273060">
        <ele>372.6</ele>
        <time>2019-02-24T12:06:42Z</time>
      </trkpt>
      <trkpt lat="46.4183420" lon="6.9272780">
        <ele>372.6</ele>
        <time>2019-02-24T12:06:43Z</time>
      </trkpt>
      <trkpt lat="46.4183700" lon="6.9272470">
        <ele>372.6</ele>
        <time>2019-02-24T12:06:44Z</time>
      </trkpt>
      <trkpt lat="46.4183960" lon="6.9272150">
        <ele>372.6</ele>
        <time>2019-02-24T12:06:45Z</time>
      </trkpt>
      <trkpt lat="46.4184190" lon="6.9271860">
        <ele>372.5</ele>
        <time>2019-02-24T12:06:46Z</time>
      </trkpt>
      <trkpt lat="46.4184410" lon="6.9271620">
        <ele>372.5</ele>
        <time>2019-02-24T12:06:47Z</time>
      </trkpt>
      <trkpt lat="46.4184600" lon="6.9271450">
        <ele>372.5</ele>
        <time>2019-02-24T12:06:48Z</time>
      </trkpt>
      <trkpt lat="46.4184790" lon="6.9271330">
        <ele>372.5</ele>
        <time>2019-02-24T12:06:49Z</time>
      </trkpt>
      <trkpt lat="46.4184980" lon="6.9271240">
        <ele>372.5</ele>
        <time>2019-02-24T12:06:50Z</time>
      </trkpt>
      <trkpt lat="46.4185190" lon="6.9271140">
        <ele>372.5</ele>
        <time>2019-02-24T12:06:51Z</time>
      </trkpt>
      <trkpt lat="46.4185420" lon="6.9271030">
        <ele>372.5</ele>
        <time>2019-02-24T12:06:52Z</time>
      </trkpt>
      <trkpt lat="46.4185670" lon="6.9270880">
        <ele>372.5</ele>
        <time>2019-02-24T12:06:53Z</time>
      </trkpt>
      <trkpt lat="46.4185940" lon="6.9270720">
        <ele>372.5</ele>
        <time>2019-02-24T12:06:54Z</time>
      </trkpt>
      <trkpt lat="46.4186210" lon="6.9270530">
        <ele>372.5</ele>
        <time>2019-02-24T12:06:55Z</time>
      </trkpt>
      <trkpt lat="46.4186500" lon="6.9270320">
        <ele>372.5</ele>
        <time>2019-02-24T12:06:56Z</time>
      </trkpt>
      <trkpt lat="46.4186790" lon="6.9270090">
        <ele>372.5</ele>
        <time>2019-02-24T12:06:57Z</time>
      </trkpt>
      <trkpt lat="46.4187070" lon="6.9269840">
        <ele>372.5</ele>
        <time>2019-02-24T12:06:58Z</time>
      </trkpt>
      <trkpt lat="46.4187360" lon="6.9269580">
        <ele>372.5</ele>
        <time>2019-02-24T12:06:59Z</time>
      </trkpt>
      <trkpt lat="46.4187630" lon="6.9269300">
        <ele>372.4</ele>
        <time>2019-02-24T12:07:00Z</time>
      </trkpt>
      <trkpt lat="46.4187890" lon="6.9269000">
        <ele>372.4</ele>
        <time>2019-02-24T12:07:01Z</time>
      </trkpt>
      <trkpt lat="46.4188140" lon="6.9268690">
        <ele>372.4</ele>
        <time>2019-02-24T12:07:02Z</time>
      </trkpt>
      <trkpt lat="46.4188380" lon="6.9268350">
        <ele>372.4</ele>
        <time>2019-02-24T12:07:03Z</time>
      </trkpt>
      <trkpt lat="46.4188610" lon="6.9267990">
        <ele>372.4</ele>
        <time>2019-02-24T12:07:04Z</time>
      </trkpt>
      <trkpt lat="46.4188830" lon="6.9267600">
        <ele>372.4</ele>
        <time>2019-02-24T12:07:05Z</time>
      </trkpt>
      <trkpt lat="46.4189040" lon="6.9267190">
        <ele>372.4</ele>
        <time>2019-02-24T12:07:06Z</time>
      </trkpt>
      <trkpt lat="46.4189240" lon="6.9266740">
        <ele>372.4</ele>
        <time>2019-02-24T12:07:07Z</time>
      </trkpt>
      <trkpt lat="46.4189430" lon="6.9266270">
        <ele>372.3</ele>
        <time>2019-02-24T12:07:08Z</time>
      </trkpt>
      <trkpt lat="46.4189610" lon="6.9265780">
        <ele>372.3</ele>
        <time>2019-02-24T12:07:09Z</time>
      </trkpt>
      <trkpt lat="46.4189790" lon="6.9265300">
        <ele>372.3</ele>
        <time>2019-02-24T12:07:10Z</time>
      </trkpt>
      <trkpt lat="46.4189990" lon="6.9264830">
        <ele>372.3</ele>
        <time>2019-02-24T12:07:11Z</time>
      </trkpt>
      <trkpt lat="46.4190200" lon="6.9264400">
        <ele>372.3</ele>
        <time>2019-02-24T12:07:12Z</time>
      </trkpt>
      <trkpt lat="46.4190420" lon="6.9264000">
        <ele>372.3</ele>
        <time>2019-02-24T12:07:13Z</time>
      </trkpt>
      <trkpt lat="46.4190650" lon="6.9263610">
        <ele>372.2</ele>
        <time>2019-02-24T12:07:14Z</time>
      </trkpt>
      <trkpt lat="46.4190890" lon="6.9263230">
        <ele>372.2</ele>
        <time>2019-02-24T12:07:15Z</time>
      </trkpt>
      <trkpt lat="46.4191130" lon="6.9262850">
        <ele>372.2</ele>
        <time>2019-02-24T12:07:16Z</time>
      </trkpt>
      <trkpt lat="46.4191360" lon="6.9262460">
        <ele>372.2</ele>
        <time>2019-02-24T12:07:17Z</time>
      </trkpt>
      <trkpt lat="46.4191590" lon="6.9262060">
        <ele>372.1</ele>
        <time>2019-02-24T12:07:18Z</time>
      </trkpt>
      <trkpt lat="46.4191790" lon="6.9261650">
        <ele>372.1</ele>
        <time>2019-02-24T12:07:19Z</time>
      </trkpt>
      <trkpt lat="46.4191970" lon="6.9261210">
        <ele>372.0</ele>
        <time>2019-02-24T12:07:20Z</time>
      </trkpt>
      <trkpt lat="46.4192120" lon="6.9260770">
        <ele>371.9</ele>
        <time>2019-02-24T12:07:21Z</time>
      </trkpt>
      <trkpt lat="46.4192250" lon="6.9260340">
        <ele>371.8</ele>
        <time>2019-02-24T12:07:22Z</time>
      </trkpt>
      <trkpt lat="46.4192330" lon="6.9259950">
        <ele>371.7</ele>
        <time>2019-02-24T12:07:23Z</time>
      </trkpt>
      <trkpt lat="46.4192390" lon="6.9259610">
        <ele>371.6</ele>
        <time>2019-02-24T12:07:24Z</time>
      </trkpt>
      <trkpt lat="46.4192420" lon="6.9259320">
        <ele>371.5</ele>
        <time>2019-02-24T12:07:25Z</time>
      </trkpt>
      <trkpt lat="46.4192440" lon="6.9259030">
        <ele>371.5</ele>
        <time>2019-02-24T12:07:26Z</time>
      </trkpt>
      <trkpt lat="46.4192450" lon="6.9258950">
        <ele>371.4</ele>
        <time>2019-02-24T12:07:27Z</time>
      </trkpt>
      <trkpt lat="46.4192450" lon="6.9258880">
        <ele>371.4</ele>
        <time>2019-02-24T12:07:28Z</time>
      </trkpt>
      <trkpt lat="46.4192450" lon="6.9258800">
        <ele>371.4</ele>
        <time>2019-02-24T12:07:29Z</time>
      </trkpt>
      <trkpt lat="46.4192450" lon="6.9258780">
        <ele>371.4</ele>
        <time>2019-02-24T12:07:30Z</time>
      </trkpt>
      <trkpt lat="46.4192450" lon="6.9258780">
        <ele>371.4</ele>
        <time>2019-02-24T12:07:31Z</time>
      </trkpt>
      <trkpt lat="46.4192450" lon="6.9258780">
        <ele>371.4</ele>
        <time>2019-02-24T12:07:32Z</time>
      </trkpt>
      <trkpt lat="46.4192450" lon="6.9258780">
        <ele>371.4</ele>
        <time>2019-02-24T12:07:33Z</time>
      </trkpt>
      <trkpt lat="46.4192450" lon="6.9258780">
        <ele>371.4</ele>
        <time>2019-02-24T12:07:34Z</time>
      </trkpt>
      <trkpt lat="46.4192450" lon="6.9258780">
        <ele>371.4</ele>
        <time>2019-02-24T12:07:35Z</time>
      </trkpt>
      <trkpt lat="46.4192450" lon="6.9258780">
        <ele>371.4</ele>
        <time>2019-02-24T12:07:36Z</time>
      </trkpt>
      <trkpt lat="46.4192450" lon="6.9258780">
        <ele>371.4</ele>
        <time>2019-02-24T12:07:37Z</time>
      </trkpt>
      <trkpt lat="46.4192450" lon="6.9258780">
        <ele>371.4</ele>
        <time>2019-02-24T12:07:38Z</time>
      </trkpt>
      <trkpt lat="46.4192450" lon="6.9258780">
        <ele>371.4</ele>
        <time>2019-02-24T12:07:39Z</time>
      </trkpt>
      <trkpt lat="46.4192450" lon="6.9258780">
        <ele>371.4</ele>
        <time>2019-02-24T12:07:40Z</time>
      </trkpt>
      <trkpt lat="46.4192450" lon="6.9258770">
        <ele>371.4</ele>
        <time>2019-02-24T12:07:41Z</time>
      </trkpt>
      <trkpt lat="46.4192450" lon="6.9258770">
        <ele>371.4</ele>
        <time>2019-02-24T12:07:42Z</time>
      </trkpt>
      <trkpt lat="46.4192450" lon="6.9258770">
        <ele>371.4</ele>
        <time>2019-02-24T12:07:43Z</time>
      </trkpt>
      <trkpt lat="46.4192450" lon="6.9258770">
        <ele>371.4</ele>
        <time>2019-02-24T12:07:44Z</time>
      </trkpt>
      <trkpt lat="46.4192450" lon="6.9258770">
        <ele>371.4</ele>
        <time>2019-02-24T12:07:45Z</time>
      </trkpt>
      <trkpt lat="46.4192450" lon="6.9258770">
        <ele>371.4</ele>
        <time>2019-02-24T12:07:46Z</time>
      </trkpt>
      <trkpt lat="46.4192450" lon="6.9258770">
        <ele>371.4</ele>
        <time>2019-02-24T12:07:47Z</time>
      </trkpt>
      <trkpt lat="46.4192460" lon="6.9258740">
        <ele>371.4</ele>
        <time>2019-02-24T12:07:48Z</time>
      </trkpt>
      <trkpt lat="46.4192530" lon="6.9258560">
        <ele>371.4</ele>
        <time>2019-02-24T12:07:49Z</time>
      </trkpt>
      <trkpt lat="46.4192660" lon="6.9258190">
        <ele>371.3</ele>
        <time>2019-02-24T12:07:50Z</time>
      </trkpt>
      <trkpt lat="46.4192750" lon="6.9257870">
        <ele>371.2</ele>
        <time>2019-02-24T12:07:51Z</time>
      </trkpt>
      <trkpt lat="46.4192850" lon="6.9257520">
        <ele>371.1</ele>
        <time>2019-02-24T12:07:52Z</time>
      </trkpt>
      <trkpt lat="46.4192910" lon="6.9257280">
        <ele>371.0</ele>
        <time>2019-02-24T12:07:53Z</time>
      </trkpt>
      <trkpt lat="46.4192930" lon="6.9257180">
        <ele>371.0</ele>
        <time>2019-02-24T12:07:54Z</time>
      </trkpt>
      <trkpt lat="46.4192930" lon="6.9257170">
        <ele>371.0</ele>
        <time>2019-02-24T12:07:55Z</time>
      </trkpt>
      <trkpt lat="46.4192930" lon="6.9257170">
        <ele>371.0</ele>
        <time>2019-02-24T12:07:56Z</time>
      </trkpt>
      <trkpt lat="46.4192930" lon="6.9257170">
        <ele>371.0</ele>
        <time>2019-02-24T12:07:57Z</time>
      </trkpt>
      <trkpt lat="46.4192930" lon="6.9257170">
        <ele>371.0</ele>
        <time>2019-02-24T12:07:58Z</time>
      </trkpt>
      <trkpt lat="46.4192930" lon="6.9257170">
        <ele>371.0</ele>
        <time>2019-02-24T12:07:59Z</time>
      </trkpt>
      <trkpt lat="46.4192930" lon="6.9257170">
        <ele>371.0</ele>
        <time>2019-02-24T12:08:00Z</time>
      </trkpt>
      <trkpt lat="46.4192930" lon="6.9257170">
        <ele>371.0</ele>
        <time>2019-02-24T12:08:01Z</time>
      </trkpt>
      <trkpt lat="46.4192930" lon="6.9257170">
        <ele>371.0</ele>
        <time>2019-02-24T12:08:02Z</time>
      </trkpt>
      <trkpt lat="46.4192930" lon="6.9257170">
        <ele>371.0</ele>
        <time>2019-02-24T12:08:03Z</time>
      </trkpt>
      <trkpt lat="46.4192930" lon="6.9257170">
        <ele>371.0</ele>
        <time>2019-02-24T12:08:04Z</time>
      </trkpt>
      <trkpt lat="46.4192930" lon="6.9257170">
        <ele>371.0</ele>
        <time>2019-02-24T12:08:05Z</time>
      </trkpt>
      <trkpt lat="46.4192930" lon="6.9257170">
        <ele>371.0</ele>
        <time>2019-02-24T12:08:06Z</time>
      </trkpt>
      <trkpt lat="46.4192930" lon="6.9257170">
        <ele>371.0</ele>
        <time>2019-02-24T12:08:07Z</time>
      </trkpt>
      <trkpt lat="46.4192930" lon="6.9257170">
        <ele>371.0</ele>
        <time>2019-02-24T12:08:08Z</time>
      </trkpt>
      <trkpt lat="46.4192930" lon="6.9257170">
        <ele>371.0</ele>
        <time>2019-02-24T12:08:09Z</time>
      </trkpt>
      <trkpt lat="46.4192930" lon="6.9257170">
        <ele>371.0</ele>
        <time>2019-02-24T12:08:10Z</time>
      </trkpt>
      <trkpt lat="46.4192930" lon="6.9257170">
        <ele>371.0</ele>
        <time>2019-02-24T12:08:11Z</time>
      </trkpt>
      <trkpt lat="46.4192930" lon="6.9257170">
        <ele>371.0</ele>
        <time>2019-02-24T12:08:12Z</time>
      </trkpt>
      <trkpt lat="46.4192930" lon="6.9257170">
        <ele>371.0</ele>
        <time>2019-02-24T12:08:13Z</time>
      </trkpt>
      <trkpt lat="46.4192930" lon="6.9257170">
        <ele>371.0</ele>
        <time>2019-02-24T12:08:14Z</time>
      </trkpt>
      <trkpt lat="46.4192930" lon="6.9257170">
        <ele>371.0</ele>
        <time>2019-02-24T12:08:15Z</time>
      </trkpt>
      <trkpt lat="46.4192930" lon="6.9257170">
        <ele>371.0</ele>
        <time>2019-02-24T12:08:16Z</time>
      </trkpt>
      <trkpt lat="46.4192930" lon="6.9257170">
        <ele>371.0</ele>
        <time>2019-02-24T12:08:17Z</time>
      </trkpt>
      <trkpt lat="46.4192930" lon="6.9257170">
        <ele>371.0</ele>
        <time>2019-02-24T12:08:18Z</time>
      </trkpt>
      <trkpt lat="46.4192930" lon="6.9257170">
        <ele>371.0</ele>
        <time>2019-02-24T12:08:19Z</time>
      </trkpt>
      <trkpt lat="46.4192930" lon="6.9257170">
        <ele>371.0</ele>
        <time>2019-02-24T12:08:20Z</time>
      </trkpt>
      <trkpt lat="46.4192930" lon="6.9257170">
        <ele>371.0</ele>
        <time>2019-02-24T12:08:21Z</time>
      </trkpt>
      <trkpt lat="46.4192930" lon="6.9257170">
        <ele>371.0</ele>
        <time>2019-02-24T12:08:22Z</time>
      </trkpt>
      <trkpt lat="46.4192930" lon="6.9257170">
        <ele>371.0</ele>
        <time>2019-02-24T12:08:23Z</time>
      </trkpt>
      <trkpt lat="46.4192930" lon="6.9257170">
        <ele>371.0</ele>
        <time>2019-02-24T12:08:24Z</time>
      </trkpt>
      <trkpt lat="46.4192930" lon="6.9257170">
        <ele>371.0</ele>
        <time>2019-02-24T12:08:25Z</time>
      </trkpt>
      <trkpt lat="46.4192930" lon="6.9257170">
        <ele>371.0</ele>
        <time>2019-02-24T12:08:26Z</time>
      </trkpt>
      <trkpt lat="46.4192930" lon="6.9257170">
        <ele>371.0</ele>
        <time>2019-02-24T12:08:27Z</time>
      </trkpt>
      <trkpt lat="46.4192930" lon="6.9257170">
        <ele>371.0</ele>
        <time>2019-02-24T12:08:28Z</time>
      </trkpt>
      <trkpt lat="46.4192930" lon="6.9257170">
        <ele>371.0</ele>
        <time>2019-02-24T12:08:29Z</time>
      </trkpt>
      <trkpt lat="46.4192930" lon="6.9257170">
        <ele>371.0</ele>
        <time>2019-02-24T12:08:30Z</time>
      </trkpt>
      <trkpt lat="46.4192930" lon="6.9257170">
        <ele>371.0</ele>
        <time>2019-02-24T12:08:31Z</time>
      </trkpt>
      <trkpt lat="46.4192930" lon="6.9257170">
        <ele>371.0</ele>
        <time>2019-02-24T12:08:32Z</time>
      </trkpt>
      <trkpt lat="46.4192930" lon="6.9257170">
        <ele>371.0</ele>
        <time>2019-02-24T12:08:33Z</time>
      </trkpt>
      <trkpt lat="46.4192930" lon="6.9257170">
        <ele>371.0</ele>
        <time>2019-02-24T12:08:34Z</time>
      </trkpt>
      <trkpt lat="46.4192930" lon="6.9257170">
        <ele>371.0</ele>
        <time>2019-02-24T12:08:35Z</time>
      </trkpt>
      <trkpt lat="46.4196610" lon="6.9252100">
        <ele>370.8</ele>
        <time>2019-02-24T12:51:07Z</time>
      </trkpt>
      <trkpt lat="46.4196790" lon="6.9251890">
        <ele>370.8</ele>
        <time>2019-02-24T12:51:08Z</time>
      </trkpt>
      <trkpt lat="46.4196980" lon="6.9251670">
        <ele>370.8</ele>
        <time>2019-02-24T12:51:09Z</time>
      </trkpt>
      <trkpt lat="46.4197180" lon="6.9251420">
        <ele>370.8</ele>
        <time>2019-02-24T12:51:10Z</time>
      </trkpt>
      <trkpt lat="46.4197390" lon="6.9251160">
        <ele>370.8</ele>
        <time>2019-02-24T12:51:11Z</time>
      </trkpt>
      <trkpt lat="46.4197600" lon="6.9250890">
        <ele>370.8</ele>
        <time>2019-02-24T12:51:12Z</time>
      </trkpt>
      <trkpt lat="46.4197810" lon="6.9250600">
        <ele>370.7</ele>
        <time>2019-02-24T12:51:13Z</time>
      </trkpt>
      <trkpt lat="46.4198040" lon="6.9250290">
        <ele>370.7</ele>
        <time>2019-02-24T12:51:14Z</time>
      </trkpt>
      <trkpt lat="46.4198260" lon="6.9249980">
        <ele>370.7</ele>
        <time>2019-02-24T12:51:15Z</time>
      </trkpt>
      <trkpt lat="46.4198490" lon="6.9249650">
        <ele>370.7</ele>
        <time>2019-02-24T12:51:16Z</time>
      </trkpt>
      <trkpt lat="46.4198730" lon="6.9249320">
        <ele>370.7</ele>
        <time>2019-02-24T12:51:17Z</time>
      </trkpt>
      <trkpt lat="46.4198960" lon="6.9248970">
        <ele>370.7</ele>
        <time>2019-02-24T12:51:18Z</time>
      </trkpt>
      <trkpt lat="46.4199200" lon="6.9248620">
        <ele>370.7</ele>
        <time>2019-02-24T12:51:19Z</time>
      </trkpt>
      <trkpt lat="46.4199450" lon="6.9248260">
        <ele>370.7</ele>
        <time>2019-02-24T12:51:20Z</time>
      </trkpt>
      <trkpt lat="46.4199690" lon="6.9247900">
        <ele>370.7</ele>
        <time>2019-02-24T12:51:21Z</time>
      </trkpt>
      <trkpt lat="46.4199940" lon="6.9247530">
        <ele>370.7</ele>
        <time>2019-02-24T12:51:22Z</time>
      </trkpt>
      <trkpt lat="46.4200190" lon="6.9247160">
        <ele>370.8</ele>
        <time>2019-02-24T12:51:23Z</time>
      </trkpt>
      <trkpt lat="46.4200440" lon="6.9246790">
        <ele>370.8</ele>
        <time>2019-02-24T12:51:24Z</time>
      </trkpt>
      <trkpt lat="46.4200700" lon="6.9246420">
        <ele>370.8</ele>
        <time>2019-02-24T12:51:25Z</time>
      </trkpt>
      <trkpt lat="46.4200950" lon="6.9246040">
        <ele>370.8</ele>
        <time>2019-02-24T12:51:26Z</time>
      </trkpt>
      <trkpt lat="46.4201200" lon="6.9245670">
        <ele>370.8</ele>
        <time>2019-02-24T12:51:27Z</time>
      </trkpt>
      <trkpt lat="46.4201460" lon="6.9245300">
        <ele>370.8</ele>
        <time>2019-02-24T12:51:28Z</time>
      </trkpt>
      <trkpt lat="46.4201710" lon="6.9244940">
        <ele>370.8</ele>
        <time>2019-02-24T12:51:29Z</time>
      </trkpt>
      <trkpt lat="46.4201960" lon="6.9244570">
        <ele>370.9</ele>
        <time>2019-02-24T12:51:30Z</time>
      </trkpt>
      <trkpt lat="46.4202210" lon="6.9244220">
        <ele>370.9</ele>
        <time>2019-02-24T12:51:31Z</time>
      </trkpt>
      <trkpt lat="46.4202460" lon="6.9243870">
        <ele>370.9</ele>
        <time>2019-02-24T12:51:32Z</time>
      </trkpt>
      <trkpt lat="46.4202710" lon="6.9243530">
        <ele>370.9</ele>
        <time>2019-02-24T12:51:33Z</time>
      </trkpt>
      <trkpt lat="46.4202950" lon="6.9243190">
        <ele>370.9</ele>
        <time>2019-02-24T12:51:34Z</time>
      </trkpt>
      <trkpt lat="46.4203190" lon="6.9242850">
        <ele>370.9</ele>
        <time>2019-02-24T12:51:35Z</time>
      </trkpt>
      <trkpt lat="46.4203420" lon="6.9242500">
        <ele>370.9</ele>
        <time>2019-02-24T12:51:36Z</time>
      </trkpt>
      <trkpt lat="46.4203640" lon="6.9242140">
        <ele>371.0</ele>
        <time>2019-02-24T12:51:37Z</time>
      </trkpt>
      <trkpt lat="46.4203860" lon="6.9241770">
        <ele>371.0</ele>
        <time>2019-02-24T12:51:38Z</time>
      </trkpt>
      <trkpt lat="46.4204090" lon="6.9241390">
        <ele>370.9</ele>
        <time>2019-02-24T12:51:39Z</time>
      </trkpt>
      <trkpt lat="46.4204340" lon="6.9241010">
        <ele>370.9</ele>
        <time>2019-02-24T12:51:40Z</time>
      </trkpt>
      <trkpt lat="46.4204610" lon="6.9240630">
        <ele>370.9</ele>
        <time>2019-02-24T12:51:41Z</time>
      </trkpt>
      <trkpt lat="46.4204890" lon="6.9240240">
        <ele>370.8</ele>
        <time>2019-02-24T12:51:42Z</time>
      </trkpt>
      <trkpt lat="46.4205190" lon="6.9239870">
        <ele>370.8</ele>
        <time>2019-02-24T12:51:43Z</time>
      </trkpt>
      <trkpt lat="46.4205490" lon="6.9239510">
        <ele>370.8</ele>
        <time>2019-02-24T12:51:44Z</time>
      </trkpt>
      <trkpt lat="46.4205800" lon="6.9239160">
        <ele>370.7</ele>
        <time>2019-02-24T12:51:45Z</time>
      </trkpt>
      <trkpt lat="46.4206100" lon="6.9238820">
        <ele>370.6</ele>
        <time>2019-02-24T12:51:46Z</time>
      </trkpt>
      <trkpt lat="46.4206400" lon="6.9238500">
        <ele>370.6</ele>
        <time>2019-02-24T12:51:47Z</time>
      </trkpt>
      <trkpt lat="46.4206700" lon="6.9238180">
        <ele>370.6</ele>
        <time>2019-02-24T12:51:48Z</time>
      </trkpt>
      <trkpt lat="46.4207000" lon="6.9237860">
        <ele>370.6</ele>
        <time>2019-02-24T12:51:49Z</time>
      </trkpt>
      <trkpt lat="46.4207300" lon="6.9237560">
        <ele>370.6</ele>
        <time>2019-02-24T12:51:50Z</time>
      </trkpt>
      <trkpt lat="46.4207600" lon="6.9237250">
        <ele>370.6</ele>
        <time>2019-02-24T12:51:51Z</time>
      </trkpt>
      <trkpt lat="46.4207890" lon="6.9236970">
        <ele>370.6</ele>
        <time>2019-02-24T12:51:52Z</time>
      </trkpt>
      <trkpt lat="46.4208180" lon="6.9236690">
        <ele>370.6</ele>
        <time>2019-02-24T12:51:53Z</time>
      </trkpt>
      <trkpt lat="46.4208470" lon="6.9236430">
        <ele>370.7</ele>
        <time>2019-02-24T12:51:54Z</time>
      </trkpt>
      <trkpt lat="46.4208750" lon="6.9236190">
        <ele>370.7</ele>
        <time>2019-02-24T12:51:55Z</time>
      </trkpt>
      <trkpt lat="46.4209020" lon="6.9235980">
        <ele>370.7</ele>
        <time>2019-02-24T12:51:56Z</time>
      </trkpt>
      <trkpt lat="46.4209290" lon="6.9235790">
        <ele>370.7</ele>
        <time>2019-02-24T12:51:57Z</time>
      </trkpt>
      <trkpt lat="46.4209560" lon="6.9235620">
        <ele>370.7</ele>
        <time>2019-02-24T12:51:58Z</time>
      </trkpt>
      <trkpt lat="46.4209820" lon="6.9235470">
        <ele>370.8</ele>
        <time>2019-02-24T12:51:59Z</time>
      </trkpt>
      <trkpt lat="46.4210080" lon="6.9235330">
        <ele>370.8</ele>
        <time>2019-02-24T12:52:00Z</time>
      </trkpt>
      <trkpt lat="46.4210350" lon="6.9235210">
        <ele>370.8</ele>
        <time>2019-02-24T12:52:01Z</time>
      </trkpt>
      <trkpt lat="46.4210630" lon="6.9235110">
        <ele>370.9</ele>
        <time>2019-02-24T12:52:02Z</time>
      </trkpt>
      <trkpt lat="46.4210920" lon="6.9235000">
        <ele>370.9</ele>
        <time>2019-02-24T12:52:03Z</time>
      </trkpt>
      <trkpt lat="46.4211220" lon="6.9234910">
        <ele>370.9</ele>
        <time>2019-02-24T12:52:04Z</time>
      </trkpt>
      <trkpt lat="46.4211540" lon="6.9234820">
        <ele>370.8</ele>
        <time>2019-02-24T12:52:05Z</time>
      </trkpt>
      <trkpt lat="46.4211880" lon="6.9234730">
        <ele>370.7</ele>
        <time>2019-02-24T12:52:06Z</time>
      </trkpt>
      <trkpt lat="46.4212230" lon="6.9234640">
        <ele>370.7</ele>
        <time>2019-02-24T12:52:07Z</time>
      </trkpt>
      <trkpt lat="46.4212850" lon="6.9234510">
        <ele>370.5</ele>
        <time>2019-02-24T12:52:08Z</time>
      </trkpt>
      <trkpt lat="46.4213100" lon="6.9234470">
        <ele>370.5</ele>
        <time>2019-02-24T12:52:09Z</time>
      </trkpt>
      <trkpt lat="46.4213360" lon="6.9234420">
        <ele>370.5</ele>
        <time>2019-02-24T12:52:10Z</time>
      </trkpt>
      <trkpt lat="46.4213760" lon="6.9234360">
        <ele>370.4</ele>
        <time>2019-02-24T12:52:11Z</time>
      </trkpt>
      <trkpt lat="46.4214170" lon="6.9234300">
        <ele>370.4</ele>
        <time>2019-02-24T12:52:12Z</time>
      </trkpt>
      <trkpt lat="46.4214880" lon="6.9234230">
        <ele>370.3</ele>
        <time>2019-02-24T12:52:13Z</time>
      </trkpt>
      <trkpt lat="46.4215160" lon="6.9234200">
        <ele>370.3</ele>
        <time>2019-02-24T12:52:14Z</time>
      </trkpt>
      <trkpt lat="46.4215450" lon="6.9234180">
        <ele>370.3</ele>
        <time>2019-02-24T12:52:15Z</time>
      </trkpt>
      <trkpt lat="46.4215890" lon="6.9234160">
        <ele>370.2</ele>
        <time>2019-02-24T12:52:16Z</time>
      </trkpt>
      <trkpt lat="46.4216330" lon="6.9234150">
        <ele>370.2</ele>
        <time>2019-02-24T12:52:17Z</time>
      </trkpt>
      <trkpt lat="46.4217010" lon="6.9234160">
        <ele>370.2</ele>
        <time>2019-02-24T12:52:18Z</time>
      </trkpt>
      <trkpt lat="46.4217230" lon="6.9234170">
        <ele>370.2</ele>
        <time>2019-02-24T12:52:19Z</time>
      </trkpt>
      <trkpt lat="46.4217670" lon="6.9234190">
        <ele>370.2</ele>
        <time>2019-02-24T12:52:20Z</time>
      </trkpt>
      <trkpt lat="46.4218110" lon="6.9234230">
        <ele>370.2</ele>
        <time>2019-02-24T12:52:21Z</time>
      </trkpt>
      <trkpt lat="46.4218550" lon="6.9234290">
        <ele>370.2</ele>
        <time>2019-02-24T12:52:22Z</time>
      </trkpt>
      <trkpt lat="46.4218990" lon="6.9234350">
        <ele>370.2</ele>
        <time>2019-02-24T12:52:23Z</time>
      </trkpt>
      <trkpt lat="46.4219420" lon="6.9234430">
        <ele>370.3</ele>
        <time>2019-02-24T12:52:24Z</time>
      </trkpt>
      <trkpt lat="46.4219850" lon="6.9234510">
        <ele>370.3</ele>
        <time>2019-02-24T12:52:25Z</time>
      </trkpt>
      <trkpt lat="46.4220280" lon="6.9234600">
        <ele>370.3</ele>
        <time>2019-02-24T12:52:26Z</time>
      </trkpt>
      <trkpt lat="46.4220710" lon="6.9234690">
        <ele>370.3</ele>
        <time>2019-02-24T12:52:27Z</time>
      </trkpt>
      <trkpt lat="46.4221140" lon="6.9234790">
        <ele>370.3</ele>
        <time>2019-02-24T12:52:28Z</time>
      </trkpt>
      <trkpt lat="46.4221560" lon="6.9234880">
        <ele>370.3</ele>
        <time>2019-02-24T12:52:29Z</time>
      </trkpt>
      <trkpt lat="46.4221990" lon="6.9234960">
        <ele>370.3</ele>
        <time>2019-02-24T12:52:30Z</time>
      </trkpt>
      <trkpt lat="46.4222420" lon="6.9235050">
        <ele>370.3</ele>
        <time>2019-02-24T12:52:31Z</time>
      </trkpt>
      <trkpt lat="46.4222840" lon="6.9235140">
        <ele>370.3</ele>
        <time>2019-02-24T12:52:32Z</time>
      </trkpt>
      <trkpt lat="46.4223260" lon="6.9235250">
        <ele>370.3</ele>
        <time>2019-02-24T12:52:33Z</time>
      </trkpt>
      <trkpt lat="46.4223670" lon="6.9235360">
        <ele>370.3</ele>
        <time>2019-02-24T12:52:34Z</time>
      </trkpt>
      <trkpt lat="46.4224070" lon="6.9235490">
        <ele>370.3</ele>
        <time>2019-02-24T12:52:35Z</time>
      </trkpt>
      <trkpt lat="46.4224470" lon="6.9235640">
        <ele>370.3</ele>
        <time>2019-02-24T12:52:36Z</time>
      </trkpt>
      <trkpt lat="46.4224870" lon="6.9235810">
        <ele>370.3</ele>
        <time>2019-02-24T12:52:37Z</time>
      </trkpt>
      <trkpt lat="46.4225260" lon="6.9236000">
        <ele>370.3</ele>
        <time>2019-02-24T12:52:38Z</time>
      </trkpt>
      <trkpt lat="46.4225650" lon="6.9236200">
        <ele>370.3</ele>
        <time>2019-02-24T12:52:39Z</time>
      </trkpt>
      <trkpt lat="46.4226040" lon="6.9236380">
        <ele>370.3</ele>
        <time>2019-02-24T12:52:40Z</time>
      </trkpt>
      <trkpt lat="46.4226430" lon="6.9236530">
        <ele>370.3</ele>
        <time>2019-02-24T12:52:41Z</time>
      </trkpt>
      <trkpt lat="46.4226820" lon="6.9236640">
        <ele>370.3</ele>
        <time>2019-02-24T12:52:42Z</time>
      </trkpt>
      <trkpt lat="46.4227220" lon="6.9236720">
        <ele>370.4</ele>
        <time>2019-02-24T12:52:43Z</time>
      </trkpt>
      <trkpt lat="46.4227610" lon="6.9236780">
        <ele>370.4</ele>
        <time>2019-02-24T12:52:44Z</time>
      </trkpt>
      <trkpt lat="46.4228000" lon="6.9236830">
        <ele>370.4</ele>
        <time>2019-02-24T12:52:45Z</time>
      </trkpt>
      <trkpt lat="46.4228390" lon="6.9236880">
        <ele>370.4</ele>
        <time>2019-02-24T12:52:46Z</time>
      </trkpt>
      <trkpt lat="46.4228770" lon="6.9236930">
        <ele>370.4</ele>
        <time>2019-02-24T12:52:47Z</time>
      </trkpt>
      <trkpt lat="46.4229150" lon="6.9237000">
        <ele>370.4</ele>
        <time>2019-02-24T12:52:48Z</time>
      </trkpt>
      <trkpt lat="46.4229530" lon="6.9237060">
        <ele>370.4</ele>
        <time>2019-02-24T12:52:49Z</time>
      </trkpt>
      <trkpt lat="46.4229900" lon="6.9237130">
        <ele>370.4</ele>
        <time>2019-02-24T12:52:50Z</time>
      </trkpt>
      <trkpt lat="46.4230280" lon="6.9237210">
        <ele>370.4</ele>
        <time>2019-02-24T12:52:51Z</time>
      </trkpt>
      <trkpt lat="46.4230660" lon="6.9237290">
        <ele>370.4</ele>
        <time>2019-02-24T12:52:52Z</time>
      </trkpt>
      <trkpt lat="46.4231040" lon="6.9237380">
        <ele>370.4</ele>
        <time>2019-02-24T12:52:53Z</time>
      </trkpt>
      <trkpt lat="46.4231420" lon="6.9237470">
        <ele>370.4</ele>
        <time>2019-02-24T12:52:54Z</time>
      </trkpt>
      <trkpt lat="46.4231810" lon="6.9237570">
        <ele>370.4</ele>
        <time>2019-02-24T12:52:55Z</time>
      </trkpt>
      <trkpt lat="46.4232200" lon="6.9237660">
        <ele>370.4</ele>
        <time>2019-02-24T12:52:56Z</time>
      </trkpt>
      <trkpt lat="46.4232590" lon="6.9237760">
        <ele>370.4</ele>
        <time>2019-02-24T12:52:57Z</time>
      </trkpt>
      <trkpt lat="46.4232980" lon="6.9237850">
        <ele>370.4</ele>
        <time>2019-02-24T12:52:58Z</time>
      </trkpt>
      <trkpt lat="46.4233370" lon="6.9237940">
        <ele>370.4</ele>
        <time>2019-02-24T12:52:59Z</time>
      </trkpt>
      <trkpt lat="46.4233750" lon="6.9238010">
        <ele>370.4</ele>
        <time>2019-02-24T12:53:00Z</time>
      </trkpt>
      <trkpt lat="46.4234140" lon="6.9238080">
        <ele>370.4</ele>
        <time>2019-02-24T12:53:01Z</time>
      </trkpt>
      <trkpt lat="46.4234520" lon="6.9238130">
        <ele>370.4</ele>
        <time>2019-02-24T12:53:02Z</time>
      </trkpt>
      <trkpt lat="46.4235150" lon="6.9238190">
        <ele>370.4</ele>
        <time>2019-02-24T12:53:03Z</time>
      </trkpt>
      <trkpt lat="46.4235400" lon="6.9238200">
        <ele>370.4</ele>
        <time>2019-02-24T12:53:04Z</time>
      </trkpt>
      <trkpt lat="46.4235650" lon="6.9238220">
        <ele>370.4</ele>
        <time>2019-02-24T12:53:05Z</time>
      </trkpt>
      <trkpt lat="46.4236020" lon="6.9238230">
        <ele>370.3</ele>
        <time>2019-02-24T12:53:06Z</time>
      </trkpt>
      <trkpt lat="46.4236400" lon="6.9238230">
        <ele>370.3</ele>
        <time>2019-02-24T12:53:07Z</time>
      </trkpt>
      <trkpt lat="46.4236960" lon="6.9238240">
        <ele>370.3</ele>
        <time>2019-02-24T12:53:08Z</time>
      </trkpt>
      <trkpt lat="46.4237150" lon="6.9238240">
        <ele>370.2</ele>
        <time>2019-02-24T12:53:09Z</time>
      </trkpt>
      <trkpt lat="46.4237530" lon="6.9238230">
        <ele>370.1</ele>
        <time>2019-02-24T12:53:10Z</time>
      </trkpt>
      <trkpt lat="46.4237920" lon="6.9238230">
        <ele>370.1</ele>
        <time>2019-02-24T12:53:11Z</time>
      </trkpt>
      <trkpt lat="46.4238310" lon="6.9238220">
        <ele>370.0</ele>
        <time>2019-02-24T12:53:12Z</time>
      </trkpt>
      <trkpt lat="46.4238700" lon="6.9238200">
        <ele>370.0</ele>
        <time>2019-02-24T12:53:13Z</time>
      </trkpt>
      <trkpt lat="46.4239100" lon="6.9238170">
        <ele>369.9</ele>
        <time>2019-02-24T12:53:14Z</time>
      </trkpt>
      <trkpt lat="46.4239500" lon="6.9238120">
        <ele>369.9</ele>
        <time>2019-02-24T12:53:15Z</time>
      </trkpt>
      <trkpt lat="46.4239900" lon="6.9238060">
        <ele>369.9</ele>
        <time>2019-02-24T12:53:16Z</time>
      </trkpt>
      <trkpt lat="46.4240310" lon="6.9237970">
        <ele>369.8</ele>
        <time>2019-02-24T12:53:17Z</time>
      </trkpt>
      <trkpt lat="46.4240720" lon="6.9237870">
        <ele>369.8</ele>
        <time>2019-02-24T12:53:18Z</time>
      </trkpt>
      <trkpt lat="46.4241130" lon="6.9237740">
        <ele>369.8</ele>
        <time>2019-02-24T12:53:19Z</time>
      </trkpt>
      <trkpt lat="46.4241540" lon="6.9237590">
        <ele>369.8</ele>
        <time>2019-02-24T12:53:20Z</time>
      </trkpt>
      <trkpt lat="46.4241950" lon="6.9237430">
        <ele>369.9</ele>
        <time>2019-02-24T12:53:21Z</time>
      </trkpt>
      <trkpt lat="46.4242340" lon="6.9237240">
        <ele>369.9</ele>
        <time>2019-02-24T12:53:22Z</time>
      </trkpt>
      <trkpt lat="46.4242730" lon="6.9237030">
        <ele>370.0</ele>
        <time>2019-02-24T12:53:23Z</time>
      </trkpt>
      <trkpt lat="46.4243110" lon="6.9236800">
        <ele>370.1</ele>
        <time>2019-02-24T12:53:24Z</time>
      </trkpt>
      <trkpt lat="46.4243460" lon="6.9236560">
        <ele>370.1</ele>
        <time>2019-02-24T12:53:25Z</time>
      </trkpt>
      <trkpt lat="46.4243810" lon="6.9236290">
        <ele>370.2</ele>
        <time>2019-02-24T12:53:26Z</time>
      </trkpt>
      <trkpt lat="46.4244130" lon="6.9236010">
        <ele>370.3</ele>
        <time>2019-02-24T12:53:27Z</time>
      </trkpt>
      <trkpt lat="46.4244430" lon="6.9235710">
        <ele>370.3</ele>
        <time>2019-02-24T12:53:28Z</time>
      </trkpt>
      <trkpt lat="46.4244730" lon="6.9235400">
        <ele>370.3</ele>
        <time>2019-02-24T12:53:29Z</time>
      </trkpt>
      <trkpt lat="46.4245010" lon="6.9235060">
        <ele>370.4</ele>
        <time>2019-02-24T12:53:30Z</time>
      </trkpt>
      <trkpt lat="46.4245290" lon="6.9234710">
        <ele>370.4</ele>
        <time>2019-02-24T12:53:31Z</time>
      </trkpt>
      <trkpt lat="46.4245570" lon="6.9234330">
        <ele>370.4</ele>
        <time>2019-02-24T12:53:32Z</time>
      </trkpt>
      <trkpt lat="46.4245860" lon="6.9233940">
        <ele>370.4</ele>
        <time>2019-02-24T12:53:33Z</time>
      </trkpt>
      <trkpt lat="46.4246160" lon="6.9233520">
        <ele>370.4</ele>
        <time>2019-02-24T12:53:34Z</time>
      </trkpt>
      <trkpt lat="46.4246460" lon="6.9233090">
        <ele>370.4</ele>
        <time>2019-02-24T12:53:35Z</time>
      </trkpt>
      <trkpt lat="46.4246780" lon="6.9232640">
        <ele>370.4</ele>
        <time>2019-02-24T12:53:36Z</time>
      </trkpt>
      <trkpt lat="46.4247100" lon="6.9232200">
        <ele>370.4</ele>
        <time>2019-02-24T12:53:37Z</time>
      </trkpt>
      <trkpt lat="46.4247420" lon="6.9231770">
        <ele>370.3</ele>
        <time>2019-02-24T12:53:38Z</time>
      </trkpt>
      <trkpt lat="46.4247740" lon="6.9231350">
        <ele>370.3</ele>
        <time>2019-02-24T12:53:39Z</time>
      </trkpt>
      <trkpt lat="46.4248060" lon="6.9230960">
        <ele>370.4</ele>
        <time>2019-02-24T12:53:40Z</time>
      </trkpt>
      <trkpt lat="46.4248370" lon="6.9230580">
        <ele>370.4</ele>
        <time>2019-02-24T12:53:41Z</time>
      </trkpt>
      <trkpt lat="46.4248680" lon="6.9230210">
        <ele>370.4</ele>
        <time>2019-02-24T12:53:42Z</time>
      </trkpt>
      <trkpt lat="46.4249000" lon="6.9229850">
        <ele>370.5</ele>
        <time>2019-02-24T12:53:43Z</time>
      </trkpt>
      <trkpt lat="46.4249310" lon="6.9229510">
        <ele>370.6</ele>
        <time>2019-02-24T12:53:44Z</time>
      </trkpt>
      <trkpt lat="46.4249630" lon="6.9229170">
        <ele>370.7</ele>
        <time>2019-02-24T12:53:45Z</time>
      </trkpt>
      <trkpt lat="46.4250150" lon="6.9228670">
        <ele>370.9</ele>
        <time>2019-02-24T12:53:46Z</time>
      </trkpt>
      <trkpt lat="46.4250360" lon="6.9228480">
        <ele>370.9</ele>
        <time>2019-02-24T12:53:47Z</time>
      </trkpt>
      <trkpt lat="46.4250570" lon="6.9228290">
        <ele>371.0</ele>
        <time>2019-02-24T12:53:48Z</time>
      </trkpt>
      <trkpt lat="46.4250880" lon="6.9228040">
        <ele>371.1</ele>
        <time>2019-02-24T12:53:49Z</time>
      </trkpt>
      <trkpt lat="46.4251190" lon="6.9227810">
        <ele>371.3</ele>
        <time>2019-02-24T12:53:50Z</time>
      </trkpt>
      <trkpt lat="46.4251490" lon="6.9227610">
        <ele>371.4</ele>
        <time>2019-02-24T12:53:51Z</time>
      </trkpt>
      <trkpt lat="46.4251790" lon="6.9227450">
        <ele>371.5</ele>
        <time>2019-02-24T12:53:52Z</time>
      </trkpt>
      <trkpt lat="46.4252090" lon="6.9227320">
        <ele>371.7</ele>
        <time>2019-02-24T12:53:53Z</time>
      </trkpt>
      <trkpt lat="46.4252400" lon="6.9227230">
        <ele>371.8</ele>
        <time>2019-02-24T12:53:54Z</time>
      </trkpt>
      <trkpt lat="46.4252700" lon="6.9227180">
        <ele>372.0</ele>
        <time>2019-02-24T12:53:55Z</time>
      </trkpt>
      <trkpt lat="46.4253000" lon="6.9227180">
        <ele>372.2</ele>
        <time>2019-02-24T12:53:56Z</time>
      </trkpt>
      <trkpt lat="46.4253310" lon="6.9227230">
        <ele>372.3</ele>
        <time>2019-02-24T12:53:57Z</time>
      </trkpt>
      <trkpt lat="46.4253620" lon="6.9227340">
        <ele>372.5</ele>
        <time>2019-02-24T12:53:58Z</time>
      </trkpt>
      <trkpt lat="46.4253940" lon="6.9227490">
        <ele>372.7</ele>
        <time>2019-02-24T12:53:59Z</time>
      </trkpt>
      <trkpt lat="46.4254260" lon="6.9227690">
        <ele>372.8</ele>
        <time>2019-02-24T12:54:00Z</time>
      </trkpt>
      <trkpt lat="46.4254590" lon="6.9227900">
        <ele>373.1</ele>
        <time>2019-02-24T12:54:01Z</time>
      </trkpt>
      <trkpt lat="46.4254910" lon="6.9228100">
        <ele>373.3</ele>
        <time>2019-02-24T12:54:02Z</time>
      </trkpt>
      <trkpt lat="46.4255250" lon="6.9228290">
        <ele>373.6</ele>
        <time>2019-02-24T12:54:03Z</time>
      </trkpt>
      <trkpt lat="46.4255580" lon="6.9228430">
        <ele>373.8</ele>
        <time>2019-02-24T12:54:04Z</time>
      </trkpt>
      <trkpt lat="46.4255920" lon="6.9228510">
        <ele>374.0</ele>
        <time>2019-02-24T12:54:05Z</time>
      </trkpt>
      <trkpt lat="46.4256250" lon="6.9228500">
        <ele>374.2</ele>
        <time>2019-02-24T12:54:06Z</time>
      </trkpt>
      <trkpt lat="46.4256590" lon="6.9228400">
        <ele>374.3</ele>
        <time>2019-02-24T12:54:07Z</time>
      </trkpt>
      <trkpt lat="46.4256930" lon="6.9228230">
        <ele>374.5</ele>
        <time>2019-02-24T12:54:08Z</time>
      </trkpt>
      <trkpt lat="46.4257260" lon="6.9228020">
        <ele>374.7</ele>
        <time>2019-02-24T12:54:09Z</time>
      </trkpt>
      <trkpt lat="46.4257590" lon="6.9227810">
        <ele>374.8</ele>
        <time>2019-02-24T12:54:10Z</time>
      </trkpt>
      <trkpt lat="46.4257900" lon="6.9227610">
        <ele>374.9</ele>
        <time>2019-02-24T12:54:11Z</time>
      </trkpt>
      <trkpt lat="46.4258200" lon="6.9227420">
        <ele>374.9</ele>
        <time>2019-02-24T12:54:12Z</time>
      </trkpt>
      <trkpt lat="46.4258470" lon="6.9227210">
        <ele>375.0</ele>
        <time>2019-02-24T12:54:13Z</time>
      </trkpt>
      <trkpt lat="46.4258710" lon="6.9226970">
        <ele>375.1</ele>
        <time>2019-02-24T12:54:14Z</time>
      </trkpt>
      <trkpt lat="46.4258920" lon="6.9226670">
        <ele>375.1</ele>
        <time>2019-02-24T12:54:15Z</time>
      </trkpt>
      <trkpt lat="46.4259070" lon="6.9226330">
        <ele>375.2</ele>
        <time>2019-02-24T12:54:16Z</time>
      </trkpt>
      <trkpt lat="46.4259180" lon="6.9226000">
        <ele>375.2</ele>
        <time>2019-02-24T12:54:17Z</time>
      </trkpt>
      <trkpt lat="46.4259230" lon="6.9225550">
        <ele>375.3</ele>
        <time>2019-02-24T12:54:18Z</time>
      </trkpt>
      <trkpt lat="46.4259220" lon="6.9225420">
        <ele>375.4</ele>
        <time>2019-02-24T12:54:19Z</time>
      </trkpt>
      <trkpt lat="46.4259180" lon="6.9225180">
        <ele>375.4</ele>
        <time>2019-02-24T12:54:20Z</time>
      </trkpt>
      <trkpt lat="46.4259140" lon="6.9224970">
        <ele>373.1</ele>
        <time>2019-02-24T12:54:21Z</time>
      </trkpt>
      <trkpt lat="46.4259130" lon="6.9224770">
        <ele>372.8</ele>
        <time>2019-02-24T12:54:22Z</time>
      </trkpt>
      <trkpt lat="46.4259150" lon="6.9224550">
        <ele>372.5</ele>
        <time>2019-02-24T12:54:23Z</time>
      </trkpt>
      <trkpt lat="46.4259210" lon="6.9224320">
        <ele>372.1</ele>
        <time>2019-02-24T12:54:24Z</time>
      </trkpt>
      <trkpt lat="46.4259260" lon="6.9224070">
        <ele>371.7</ele>
        <time>2019-02-24T12:54:25Z</time>
      </trkpt>
      <trkpt lat="46.4259300" lon="6.9223810">
        <ele>371.3</ele>
        <time>2019-02-24T12:54:26Z</time>
      </trkpt>
      <trkpt lat="46.4259300" lon="6.9223530">
        <ele>370.9</ele>
        <time>2019-02-24T12:54:27Z</time>
      </trkpt>
      <trkpt lat="46.4259270" lon="6.9223260">
        <ele>370.9</ele>
        <time>2019-02-24T12:54:28Z</time>
      </trkpt>
      <trkpt lat="46.4259230" lon="6.9223000">
        <ele>370.8</ele>
        <time>2019-02-24T12:54:29Z</time>
      </trkpt>
      <trkpt lat="46.4259170" lon="6.9222770">
        <ele>370.7</ele>
        <time>2019-02-24T12:54:30Z</time>
      </trkpt>
      <trkpt lat="46.4259120" lon="6.9222580">
        <ele>370.6</ele>
        <time>2019-02-24T12:54:31Z</time>
      </trkpt>
      <trkpt lat="46.4259070" lon="6.9222430">
        <ele>370.6</ele>
        <time>2019-02-24T12:54:32Z</time>
      </trkpt>
      <trkpt lat="46.4259030" lon="6.9222320">
        <ele>370.5</ele>
        <time>2019-02-24T12:54:33Z</time>
      </trkpt>
      <trkpt lat="46.4259000" lon="6.9222240">
        <ele>370.5</ele>
        <time>2019-02-24T12:54:34Z</time>
      </trkpt>
      <trkpt lat="46.4258970" lon="6.9222180">
        <ele>370.5</ele>
        <time>2019-02-24T12:54:35Z</time>
      </trkpt>
      <trkpt lat="46.4258940" lon="6.9222140">
        <ele>370.4</ele>
        <time>2019-02-24T12:54:36Z</time>
      </trkpt>
      <trkpt lat="46.4258930" lon="6.9222110">
        <ele>370.4</ele>
        <time>2019-02-24T12:54:37Z</time>
      </trkpt>
      <trkpt lat="46.4258910" lon="6.9222100">
        <ele>370.4</ele>
        <time>2019-02-24T12:54:38Z</time>
      </trkpt>
      <trkpt lat="46.4258910" lon="6.9222090">
        <ele>370.4</ele>
        <time>2019-02-24T12:54:39Z</time>
      </trkpt>
      <trkpt lat="46.4258900" lon="6.9222080">
        <ele>370.4</ele>
        <time>2019-02-24T12:54:40Z</time>
      </trkpt>
      <trkpt lat="46.4258900" lon="6.9222080">
        <ele>370.4</ele>
        <time>2019-02-24T12:54:41Z</time>
      </trkpt>
      <trkpt lat="46.4258910" lon="6.9222080">
        <ele>370.4</ele>
        <time>2019-02-24T12:54:42Z</time>
      </trkpt>
      <trkpt lat="46.4258910" lon="6.9222080">
        <ele>370.4</ele>
        <time>2019-02-24T12:54:43Z</time>
      </trkpt>
      <trkpt lat="46.4258910" lon="6.9222080">
        <ele>370.4</ele>
        <time>2019-02-24T12:54:44Z</time>
      </trkpt>
      <trkpt lat="46.4258910" lon="6.9222080">
        <ele>370.4</ele>
        <time>2019-02-24T12:54:45Z</time>
      </trkpt>
      <trkpt lat="46.4258910" lon="6.9222080">
        <ele>370.4</ele>
        <time>2019-02-24T12:54:46Z</time>
      </trkpt>
      <trkpt lat="46.4258900" lon="6.9222070">
        <ele>370.4</ele>
        <time>2019-02-24T12:54:47Z</time>
      </trkpt>
      <trkpt lat="46.4258900" lon="6.9222070">
        <ele>370.4</ele>
        <time>2019-02-24T12:54:48Z</time>
      </trkpt>
      <trkpt lat="46.4258890" lon="6.9222070">
        <ele>370.4</ele>
        <time>2019-02-24T12:54:49Z</time>
      </trkpt>
      <trkpt lat="46.4258900" lon="6.9222090">
        <ele>370.4</ele>
        <time>2019-02-24T12:54:50Z</time>
      </trkpt>
      <trkpt lat="46.4258920" lon="6.9222110">
        <ele>370.4</ele>
        <time>2019-02-24T12:54:51Z</time>
      </trkpt>
      <trkpt lat="46.4258940" lon="6.9222140">
        <ele>370.4</ele>
        <time>2019-02-24T12:54:52Z</time>
      </trkpt>
      <trkpt lat="46.4258950" lon="6.9222160">
        <ele>370.4</ele>
        <time>2019-02-24T12:54:53Z</time>
      </trkpt>
      <trkpt lat="46.4258950" lon="6.9222160">
        <ele>370.4</ele>
        <time>2019-02-24T12:54:54Z</time>
      </trkpt>
      <trkpt lat="46.4258930" lon="6.9222140">
        <ele>370.4</ele>
        <time>2019-02-24T12:54:55Z</time>
      </trkpt>
      <trkpt lat="46.4258900" lon="6.9222080">
        <ele>370.4</ele>
        <time>2019-02-24T12:54:56Z</time>
      </trkpt>
      <trkpt lat="46.4258860" lon="6.9222020">
        <ele>370.4</ele>
        <time>2019-02-24T12:54:57Z</time>
      </trkpt>
      <trkpt lat="46.4258820" lon="6.9221960">
        <ele>370.4</ele>
        <time>2019-02-24T12:54:58Z</time>
      </trkpt>
      <trkpt lat="46.4258800" lon="6.9221920">
        <ele>370.4</ele>
        <time>2019-02-24T12:54:59Z</time>
      </trkpt>
      <trkpt lat="46.4258790" lon="6.9221880">
        <ele>370.4</ele>
        <time>2019-02-24T12:55:00Z</time>
      </trkpt>
      <trkpt lat="46.4258780" lon="6.9221850">
        <ele>370.4</ele>
        <time>2019-02-24T12:55:01Z</time>
      </trkpt>
      <trkpt lat="46.4258780" lon="6.9221830">
        <ele>370.4</ele>
        <time>2019-02-24T12:55:02Z</time>
      </trkpt>
      <trkpt lat="46.4258770" lon="6.9221820">
        <ele>370.4</ele>
        <time>2019-02-24T12:55:03Z</time>
      </trkpt>
      <trkpt lat="46.4258770" lon="6.9221800">
        <ele>370.4</ele>
        <time>2019-02-24T12:55:04Z</time>
      </trkpt>
      <trkpt lat="46.4258770" lon="6.9221800">
        <ele>370.4</ele>
        <time>2019-02-24T12:55:05Z</time>
      </trkpt>
      <trkpt lat="46.4258770" lon="6.9221790">
        <ele>370.4</ele>
        <time>2019-02-24T12:55:06Z</time>
      </trkpt>
      <trkpt lat="46.4258770" lon="6.9221790">
        <ele>370.4</ele>
        <time>2019-02-24T12:55:07Z</time>
      </trkpt>
      <trkpt lat="46.4258770" lon="6.9221790">
        <ele>370.4</ele>
        <time>2019-02-24T12:55:08Z</time>
      </trkpt>
      <trkpt lat="46.4258770" lon="6.9221790">
        <ele>370.4</ele>
        <time>2019-02-24T12:55:09Z</time>
      </trkpt>
      <trkpt lat="46.4258770" lon="6.9221790">
        <ele>370.4</ele>
        <time>2019-02-24T12:55:10Z</time>
      </trkpt>
      <trkpt lat="46.4258770" lon="6.9221790">
        <ele>370.4</ele>
        <time>2019-02-24T12:55:11Z</time>
      </trkpt>
      <trkpt lat="46.4258770" lon="6.9221790">
        <ele>370.4</ele>
        <time>2019-02-24T12:55:12Z</time>
      </trkpt>
      <trkpt lat="46.4258770" lon="6.9221800">
        <ele>370.4</ele>
        <time>2019-02-24T12:55:13Z</time>
      </trkpt>
      <trkpt lat="46.4258770" lon="6.9221800">
        <ele>370.4</ele>
        <time>2019-02-24T12:55:14Z</time>
      </trkpt>
      <trkpt lat="46.4258770" lon="6.9221800">
        <ele>370.4</ele>
        <time>2019-02-24T12:55:15Z</time>
      </trkpt>
      <trkpt lat="46.4258770" lon="6.9221800">
        <ele>370.4</ele>
        <time>2019-02-24T12:55:16Z</time>
      </trkpt>
      <trkpt lat="46.4258770" lon="6.9221800">
        <ele>370.4</ele>
        <time>2019-02-24T12:55:17Z</time>
      </trkpt>
      <trkpt lat="46.4258770" lon="6.9221800">
        <ele>370.4</ele>
        <time>2019-02-24T12:55:18Z</time>
      </trkpt>
      <trkpt lat="46.4258770" lon="6.9221800">
        <ele>370.4</ele>
        <time>2019-02-24T12:55:19Z</time>
      </trkpt>
      <trkpt lat="46.4258770" lon="6.9221800">
        <ele>370.4</ele>
        <time>2019-02-24T12:55:20Z</time>
      </trkpt>
      <trkpt lat="46.4258770" lon="6.9221800">
        <ele>370.4</ele>
        <time>2019-02-24T12:55:21Z</time>
      </trkpt>
      <trkpt lat="46.4258770" lon="6.9221800">
        <ele>370.4</ele>
        <time>2019-02-24T12:55:22Z</time>
      </trkpt>
      <trkpt lat="46.4258770" lon="6.9221800">
        <ele>370.4</ele>
        <time>2019-02-24T12:55:23Z</time>
      </trkpt>
      <trkpt lat="46.4258770" lon="6.9221800">
        <ele>370.4</ele>
        <time>2019-02-24T12:55:24Z</time>
      </trkpt>
      <trkpt lat="46.4258770" lon="6.9221800">
        <ele>370.4</ele>
        <time>2019-02-24T12:55:25Z</time>
      </trkpt>
      <trkpt lat="46.4258770" lon="6.9221800">
        <ele>370.4</ele>
        <time>2019-02-24T12:55:26Z</time>
      </trkpt>
      <trkpt lat="46.4258770" lon="6.9221800">
        <ele>370.4</ele>
        <time>2019-02-24T12:55:27Z</time>
      </trkpt>
      <trkpt lat="46.4258770" lon="6.9221800">
        <ele>370.4</ele>
        <time>2019-02-24T12:55:28Z</time>
      </trkpt>
      <trkpt lat="46.4258770" lon="6.9221800">
        <ele>370.4</ele>
        <time>2019-02-24T12:55:29Z</time>
      </trkpt>
      <trkpt lat="46.4258770" lon="6.9221800">
        <ele>370.4</ele>
        <time>2019-02-24T12:55:30Z</time>
      </trkpt>
      <trkpt lat="46.4258770" lon="6.9221800">
        <ele>370.4</ele>
        <time>2019-02-24T12:55:31Z</time>
      </trkpt>
      <trkpt lat="46.4258770" lon="6.9221800">
        <ele>370.4</ele>
        <time>2019-02-24T12:55:32Z</time>
      </trkpt>
      <trkpt lat="46.4258770" lon="6.9221800">
        <ele>370.4</ele>
        <time>2019-02-24T12:55:33Z</time>
      </trkpt>
      <trkpt lat="46.4258770" lon="6.9221800">
        <ele>370.4</ele>
        <time>2019-02-24T12:55:34Z</time>
      </trkpt>
      <trkpt lat="46.4258770" lon="6.9221800">
        <ele>370.4</ele>
        <time>2019-02-24T12:55:35Z</time>
      </trkpt>
      <trkpt lat="46.4258770" lon="6.9221800">
        <ele>370.4</ele>
        <time>2019-02-24T12:55:36Z</time>
      </trkpt>
      <trkpt lat="46.4258770" lon="6.9221800">
        <ele>370.4</ele>
        <time>2019-02-24T12:55:37Z</time>
      </trkpt>
      <trkpt lat="46.4258770" lon="6.9221810">
        <ele>370.4</ele>
        <time>2019-02-24T12:55:38Z</time>
      </trkpt>
      <trkpt lat="46.4258770" lon="6.9221830">
        <ele>370.4</ele>
        <time>2019-02-24T12:55:39Z</time>
      </trkpt>
      <trkpt lat="46.4258760" lon="6.9221910">
        <ele>370.4</ele>
        <time>2019-02-24T12:55:40Z</time>
      </trkpt>
      <trkpt lat="46.4258760" lon="6.9222120">
        <ele>370.5</ele>
        <time>2019-02-24T12:55:41Z</time>
      </trkpt>
      <trkpt lat="46.4258800" lon="6.9222340">
        <ele>370.5</ele>
        <time>2019-02-24T12:55:42Z</time>
      </trkpt>
      <trkpt lat="46.4258870" lon="6.9222510">
        <ele>370.5</ele>
        <time>2019-02-24T12:55:43Z</time>
      </trkpt>
      <trkpt lat="46.4258930" lon="6.9222650">
        <ele>370.6</ele>
        <time>2019-02-24T12:55:44Z</time>
      </trkpt>
      <trkpt lat="46.4258980" lon="6.9222760">
        <ele>370.6</ele>
        <time>2019-02-24T12:55:45Z</time>
      </trkpt>
      <trkpt lat="46.4259020" lon="6.9222840">
        <ele>370.6</ele>
        <time>2019-02-24T12:55:46Z</time>
      </trkpt>
      <trkpt lat="46.4259050" lon="6.9222900">
        <ele>370.6</ele>
        <time>2019-02-24T12:55:47Z</time>
      </trkpt>
      <trkpt lat="46.4259070" lon="6.9222950">
        <ele>370.6</ele>
        <time>2019-02-24T12:55:48Z</time>
      </trkpt>
      <trkpt lat="46.4259080" lon="6.9222970">
        <ele>370.6</ele>
        <time>2019-02-24T12:55:49Z</time>
      </trkpt>
      <trkpt lat="46.4259090" lon="6.9222990">
        <ele>370.6</ele>
        <time>2019-02-24T12:55:50Z</time>
      </trkpt>
      <trkpt lat="46.4259100" lon="6.9223000">
        <ele>370.6</ele>
        <time>2019-02-24T12:55:51Z</time>
      </trkpt>
      <trkpt lat="46.4259110" lon="6.9223010">
        <ele>370.6</ele>
        <time>2019-02-24T12:55:52Z</time>
      </trkpt>
      <trkpt lat="46.4259110" lon="6.9223010">
        <ele>370.6</ele>
        <time>2019-02-24T12:55:53Z</time>
      </trkpt>
      <trkpt lat="46.4259110" lon="6.9223020">
        <ele>370.6</ele>
        <time>2019-02-24T12:55:54Z</time>
      </trkpt>
      <trkpt lat="46.4259120" lon="6.9223020">
        <ele>370.6</ele>
        <time>2019-02-24T12:55:55Z</time>
      </trkpt>
      <trkpt lat="46.4259120" lon="6.9223020">
        <ele>370.6</ele>
        <time>2019-02-24T12:55:56Z</time>
      </trkpt>
      <trkpt lat="46.4259120" lon="6.9223020">
        <ele>370.6</ele>
        <time>2019-02-24T12:55:57Z</time>
      </trkpt>
      <trkpt lat="46.4259120" lon="6.9223020">
        <ele>370.6</ele>
        <time>2019-02-24T12:55:58Z</time>
      </trkpt>
      <trkpt lat="46.4259120" lon="6.9223020">
        <ele>370.6</ele>
        <time>2019-02-24T12:55:59Z</time>
      </trkpt>
      <trkpt lat="46.4259110" lon="6.9223020">
        <ele>370.6</ele>
        <time>2019-02-24T12:56:00Z</time>
      </trkpt>
      <trkpt lat="46.4259110" lon="6.9223020">
        <ele>370.6</ele>
        <time>2019-02-24T12:56:01Z</time>
      </trkpt>
      <trkpt lat="46.4259110" lon="6.9223020">
        <ele>370.6</ele>
        <time>2019-02-24T12:56:02Z</time>
      </trkpt>
      <trkpt lat="46.4259110" lon="6.9223020">
        <ele>370.6</ele>
        <time>2019-02-24T12:56:03Z</time>
      </trkpt>
      <trkpt lat="46.4259110" lon="6.9223020">
        <ele>370.6</ele>
        <time>2019-02-24T12:56:04Z</time>
      </trkpt>
      <trkpt lat="46.4259110" lon="6.9223020">
        <ele>370.6</ele>
        <time>2019-02-24T12:56:05Z</time>
      </trkpt>
      <trkpt lat="46.4259110" lon="6.9223020">
        <ele>370.6</ele>
        <time>2019-02-24T12:56:06Z</time>
      </trkpt>
      <trkpt lat="46.4259110" lon="6.9223020">
        <ele>370.6</ele>
        <time>2019-02-24T12:56:07Z</time>
      </trkpt>
      <trkpt lat="46.4259110" lon="6.9223020">
        <ele>370.6</ele>
        <time>2019-02-24T12:56:08Z</time>
      </trkpt>
      <trkpt lat="46.4259110" lon="6.9223020">
        <ele>370.6</ele>
        <time>2019-02-24T12:56:09Z</time>
      </trkpt>
      <trkpt lat="46.4259110" lon="6.9223020">
        <ele>370.6</ele>
        <time>2019-02-24T12:56:10Z</time>
      </trkpt>
      <trkpt lat="46.4259110" lon="6.9223020">
        <ele>370.6</ele>
        <time>2019-02-24T12:56:11Z</time>
      </trkpt>
      <trkpt lat="46.4259110" lon="6.9223030">
        <ele>370.6</ele>
        <time>2019-02-24T12:56:12Z</time>
      </trkpt>
      <trkpt lat="46.4259110" lon="6.9223030">
        <ele>370.6</ele>
        <time>2019-02-24T12:56:13Z</time>
      </trkpt>
      <trkpt lat="46.4259120" lon="6.9223030">
        <ele>370.6</ele>
        <time>2019-02-24T12:56:14Z</time>
      </trkpt>
      <trkpt lat="46.4259120" lon="6.9223030">
        <ele>370.6</ele>
        <time>2019-02-24T12:56:15Z</time>
      </trkpt>
      <trkpt lat="46.4259120" lon="6.9223030">
        <ele>370.6</ele>
        <time>2019-02-24T12:56:16Z</time>
      </trkpt>
      <trkpt lat="46.4259120" lon="6.9223030">
        <ele>370.6</ele>
        <time>2019-02-24T12:56:17Z</time>
      </trkpt>
      <trkpt lat="46.4259120" lon="6.9223030">
        <ele>370.6</ele>
        <time>2019-02-24T12:56:18Z</time>
      </trkpt>
      <trkpt lat="46.4259120" lon="6.9223030">
        <ele>370.6</ele>
        <time>2019-02-24T12:56:19Z</time>
      </trkpt>
      <trkpt lat="46.4259120" lon="6.9223030">
        <ele>370.6</ele>
        <time>2019-02-24T12:56:20Z</time>
      </trkpt>
      <trkpt lat="46.4259120" lon="6.9223030">
        <ele>370.6</ele>
        <time>2019-02-24T12:56:21Z</time>
      </trkpt>
      <trkpt lat="46.4259120" lon="6.9223030">
        <ele>370.6</ele>
        <time>2019-02-24T12:56:22Z</time>
      </trkpt>
      <trkpt lat="46.4259120" lon="6.9223030">
        <ele>370.6</ele>
        <time>2019-02-24T12:56:23Z</time>
      </trkpt>
      <trkpt lat="46.4259120" lon="6.9223030">
        <ele>370.6</ele>
        <time>2019-02-24T12:56:24Z</time>
      </trkpt>
      <trkpt lat="46.4259120" lon="6.9223030">
        <ele>370.6</ele>
        <time>2019-02-24T12:56:25Z</time>
      </trkpt>
      <trkpt lat="46.4259120" lon="6.9223020">
        <ele>370.6</ele>
        <time>2019-02-24T12:56:26Z</time>
      </trkpt>
      <trkpt lat="46.4259110" lon="6.9223020">
        <ele>370.6</ele>
        <time>2019-02-24T12:56:27Z</time>
      </trkpt>
      <trkpt lat="46.4259110" lon="6.9223020">
        <ele>370.6</ele>
        <time>2019-02-24T12:56:28Z</time>
      </trkpt>
      <trkpt lat="46.4259110" lon="6.9223020">
        <ele>370.6</ele>
        <time>2019-02-24T12:56:29Z</time>
      </trkpt>
      <trkpt lat="46.4259110" lon="6.9223020">
        <ele>370.6</ele>
        <time>2019-02-24T12:56:30Z</time>
      </trkpt>
      <trkpt lat="46.4259110" lon="6.9223020">
        <ele>370.6</ele>
        <time>2019-02-24T12:56:31Z</time>
      </trkpt>
      <trkpt lat="46.4259110" lon="6.9223020">
        <ele>370.6</ele>
        <time>2019-02-24T12:56:32Z</time>
      </trkpt>
      <trkpt lat="46.4259110" lon="6.9223020">
        <ele>370.6</ele>
        <time>2019-02-24T12:56:33Z</time>
      </trkpt>
      <trkpt lat="46.4259110" lon="6.9223020">
        <ele>370.6</ele>
        <time>2019-02-24T12:56:34Z</time>
      </trkpt>
      <trkpt lat="46.4259110" lon="6.9223020">
        <ele>370.6</ele>
        <time>2019-02-24T12:56:35Z</time>
      </trkpt>
      <trkpt lat="46.4259110" lon="6.9223020">
        <ele>370.6</ele>
        <time>2019-02-24T12:56:36Z</time>
      </trkpt>
      <trkpt lat="46.4259110" lon="6.9223020">
        <ele>370.6</ele>
        <time>2019-02-24T12:56:37Z</time>
      </trkpt>
      <trkpt lat="46.4259110" lon="6.9223020">
        <ele>370.6</ele>
        <time>2019-02-24T12:56:38Z</time>
      </trkpt>
      <trkpt lat="46.4259110" lon="6.9223020">
        <ele>370.6</ele>
        <time>2019-02-24T12:56:39Z</time>
      </trkpt>
      <trkpt lat="46.4259110" lon="6.9223020">
        <ele>370.6</ele>
        <time>2019-02-24T12:56:40Z</time>
      </trkpt>
      <trkpt lat="46.4259110" lon="6.9223020">
        <ele>370.6</ele>
        <time>2019-02-24T12:56:41Z</time>
      </trkpt>
      <trkpt lat="46.4259110" lon="6.9223020">
        <ele>370.6</ele>
        <time>2019-02-24T12:56:42Z</time>
      </trkpt>
      <trkpt lat="46.4259110" lon="6.9223020">
        <ele>370.6</ele>
        <time>2019-02-24T12:56:43Z</time>
      </trkpt>
      <trkpt lat="46.4259110" lon="6.9223020">
        <ele>370.6</ele>
        <time>2019-02-24T12:56:44Z</time>
      </trkpt>
      <trkpt lat="46.4259110" lon="6.9223020">
        <ele>370.6</ele>
        <time>2019-02-24T12:56:45Z</time>
      </trkpt>
      <trkpt lat="46.4259110" lon="6.9223020">
        <ele>370.6</ele>
        <time>2019-02-24T12:56:46Z</time>
      </trkpt>
      <trkpt lat="46.4259110" lon="6.9223020">
        <ele>370.6</ele>
        <time>2019-02-24T12:56:47Z</time>
      </trkpt>
      <trkpt lat="46.4259110" lon="6.9223020">
        <ele>370.6</ele>
        <time>2019-02-24T12:56:48Z</time>
      </trkpt>
      <trkpt lat="46.4259110" lon="6.9223020">
        <ele>370.6</ele>
        <time>2019-02-24T12:56:49Z</time>
      </trkpt>
      <trkpt lat="46.4259110" lon="6.9223020">
        <ele>370.6</ele>
        <time>2019-02-24T12:56:50Z</time>
      </trkpt>
      <trkpt lat="46.4259110" lon="6.9223020">
        <ele>370.6</ele>
        <time>2019-02-24T12:56:51Z</time>
      </trkpt>
      <trkpt lat="46.4259110" lon="6.9223020">
        <ele>370.6</ele>
        <time>2019-02-24T12:56:52Z</time>
      </trkpt>
      <trkpt lat="46.4259110" lon="6.9223020">
        <ele>370.6</ele>
        <time>2019-02-24T12:56:53Z</time>
      </trkpt>
      <trkpt lat="46.4259110" lon="6.9223020">
        <ele>370.6</ele>
        <time>2019-02-24T12:56:54Z</time>
      </trkpt>
      <trkpt lat="46.4259110" lon="6.9223020">
        <ele>370.6</ele>
        <time>2019-02-24T12:56:55Z</time>
      </trkpt>
      <trkpt lat="46.4259110" lon="6.9223020">
        <ele>370.6</ele>
        <time>2019-02-24T12:56:56Z</time>
      </trkpt>
      <trkpt lat="46.4259110" lon="6.9223020">
        <ele>370.6</ele>
        <time>2019-02-24T12:56:57Z</time>
      </trkpt>
      <trkpt lat="46.4259110" lon="6.9223020">
        <ele>370.6</ele>
        <time>2019-02-24T12:56:58Z</time>
      </trkpt>
      <trkpt lat="46.4259110" lon="6.9223020">
        <ele>370.6</ele>
        <time>2019-02-24T12:56:59Z</time>
      </trkpt>
      <trkpt lat="46.4259110" lon="6.9223020">
        <ele>370.6</ele>
        <time>2019-02-24T12:57:00Z</time>
      </trkpt>
      <trkpt lat="46.4259110" lon="6.9223020">
        <ele>370.6</ele>
        <time>2019-02-24T12:57:01Z</time>
      </trkpt>
      <trkpt lat="46.4259110" lon="6.9223020">
        <ele>370.6</ele>
        <time>2019-02-24T12:57:02Z</time>
      </trkpt>
      <trkpt lat="46.4259110" lon="6.9223020">
        <ele>370.6</ele>
        <time>2019-02-24T12:57:03Z</time>
      </trkpt>
      <trkpt lat="46.4259110" lon="6.9223020">
        <ele>370.6</ele>
        <time>2019-02-24T12:57:04Z</time>
      </trkpt>
      <trkpt lat="46.4259110" lon="6.9223020">
        <ele>370.6</ele>
        <time>2019-02-24T12:57:05Z</time>
      </trkpt>
      <trkpt lat="46.4259110" lon="6.9223020">
        <ele>370.6</ele>
        <time>2019-02-24T12:57:06Z</time>
      </trkpt>
      <trkpt lat="46.4259110" lon="6.9223020">
        <ele>370.6</ele>
        <time>2019-02-24T12:57:07Z</time>
      </trkpt>
      <trkpt lat="46.4259110" lon="6.9223020">
        <ele>370.6</ele>
        <time>2019-02-24T12:57:08Z</time>
      </trkpt>
      <trkpt lat="46.4259110" lon="6.9223020">
        <ele>370.6</ele>
        <time>2019-02-24T12:57:09Z</time>
      </trkpt>
      <trkpt lat="46.4259110" lon="6.9223020">
        <ele>370.6</ele>
        <time>2019-02-24T12:57:10Z</time>
      </trkpt>
      <trkpt lat="46.4259110" lon="6.9223020">
        <ele>370.6</ele>
        <time>2019-02-24T12:57:11Z</time>
      </trkpt>
      <trkpt lat="46.4259110" lon="6.9223020">
        <ele>370.6</ele>
        <time>2019-02-24T12:57:12Z</time>
      </trkpt>
      <trkpt lat="46.4259110" lon="6.9223020">
        <ele>370.6</ele>
        <time>2019-02-24T12:57:13Z</time>
      </trkpt>
      <trkpt lat="46.4259110" lon="6.9223020">
        <ele>370.6</ele>
        <time>2019-02-24T12:57:14Z</time>
      </trkpt>
      <trkpt lat="46.4259110" lon="6.9223020">
        <ele>370.6</ele>
        <time>2019-02-24T12:57:15Z</time>
      </trkpt>
      <trkpt lat="46.4259110" lon="6.9223020">
        <ele>370.6</ele>
        <time>2019-02-24T12:57:16Z</time>
      </trkpt>
      <trkpt lat="46.4259110" lon="6.9223020">
        <ele>370.6</ele>
        <time>2019-02-24T12:57:17Z</time>
      </trkpt>
      <trkpt lat="46.4259110" lon="6.9223020">
        <ele>370.6</ele>
        <time>2019-02-24T12:57:18Z</time>
      </trkpt>
      <trkpt lat="46.4259110" lon="6.9223020">
        <ele>370.6</ele>
        <time>2019-02-24T12:57:19Z</time>
      </trkpt>
      <trkpt lat="46.4259110" lon="6.9223020">
        <ele>370.6</ele>
        <time>2019-02-24T12:57:20Z</time>
      </trkpt>
      <trkpt lat="46.4259110" lon="6.9223020">
        <ele>370.6</ele>
        <time>2019-02-24T12:57:21Z</time>
      </trkpt>
      <trkpt lat="46.4259110" lon="6.9223020">
        <ele>370.6</ele>
        <time>2019-02-24T12:57:22Z</time>
      </trkpt>
      <trkpt lat="46.4259110" lon="6.9223020">
        <ele>370.6</ele>
        <time>2019-02-24T12:57:23Z</time>
      </trkpt>
      <trkpt lat="46.4259110" lon="6.9223020">
        <ele>370.6</ele>
        <time>2019-02-24T12:57:24Z</time>
      </trkpt>
      <trkpt lat="46.4259110" lon="6.9223020">
        <ele>370.6</ele>
        <time>2019-02-24T12:57:25Z</time>
      </trkpt>
      <trkpt lat="46.4259110" lon="6.9223020">
        <ele>370.6</ele>
        <time>2019-02-24T12:57:26Z</time>
      </trkpt>
      <trkpt lat="46.4259110" lon="6.9223020">
        <ele>370.6</ele>
        <time>2019-02-24T12:57:27Z</time>
      </trkpt>
      <trkpt lat="46.4259110" lon="6.9223020">
        <ele>370.6</ele>
        <time>2019-02-24T12:57:28Z</time>
      </trkpt>
      <trkpt lat="46.4259110" lon="6.9223020">
        <ele>370.6</ele>
        <time>2019-02-24T12:57:29Z</time>
      </trkpt>
      <trkpt lat="46.4259110" lon="6.9223020">
        <ele>370.6</ele>
        <time>2019-02-24T12:57:30Z</time>
      </trkpt>
      <trkpt lat="46.4259110" lon="6.9223020">
        <ele>370.6</ele>
        <time>2019-02-24T12:57:31Z</time>
      </trkpt>
      <trkpt lat="46.4259110" lon="6.9223020">
        <ele>370.6</ele>
        <time>2019-02-24T12:57:32Z</time>
      </trkpt>
      <trkpt lat="46.4259110" lon="6.9223020">
        <ele>370.6</ele>
        <time>2019-02-24T12:57:33Z</time>
      </trkpt>
      <trkpt lat="46.4259110" lon="6.9223020">
        <ele>370.6</ele>
        <time>2019-02-24T12:57:34Z</time>
      </trkpt>
      <trkpt lat="46.4259110" lon="6.9223020">
        <ele>370.6</ele>
        <time>2019-02-24T12:57:35Z</time>
      </trkpt>
      <trkpt lat="46.4259110" lon="6.9223020">
        <ele>370.6</ele>
        <time>2019-02-24T12:57:36Z</time>
      </trkpt>
      <trkpt lat="46.4259110" lon="6.9223020">
        <ele>370.6</ele>
        <time>2019-02-24T12:57:37Z</time>
      </trkpt>
      <trkpt lat="46.4259110" lon="6.9223020">
        <ele>370.6</ele>
        <time>2019-02-24T12:57:38Z</time>
      </trkpt>
      <trkpt lat="46.4259110" lon="6.9223020">
        <ele>370.6</ele>
        <time>2019-02-24T12:57:39Z</time>
      </trkpt>
      <trkpt lat="46.4259110" lon="6.9223020">
        <ele>370.6</ele>
        <time>2019-02-24T12:57:40Z</time>
      </trkpt>
      <trkpt lat="46.4259110" lon="6.9223020">
        <ele>370.6</ele>
        <time>2019-02-24T12:57:41Z</time>
      </trkpt>
      <trkpt lat="46.4259110" lon="6.9223020">
        <ele>370.6</ele>
        <time>2019-02-24T12:57:42Z</time>
      </trkpt>
      <trkpt lat="46.4259110" lon="6.9223020">
        <ele>370.6</ele>
        <time>2019-02-24T12:57:43Z</time>
      </trkpt>
      <trkpt lat="46.4259110" lon="6.9223020">
        <ele>370.6</ele>
        <time>2019-02-24T12:57:44Z</time>
      </trkpt>
      <trkpt lat="46.4259110" lon="6.9223020">
        <ele>370.6</ele>
        <time>2019-02-24T12:57:45Z</time>
      </trkpt>
      <trkpt lat="46.4259110" lon="6.9223020">
        <ele>370.6</ele>
        <time>2019-02-24T12:57:46Z</time>
      </trkpt>
      <trkpt lat="46.4259110" lon="6.9223020">
        <ele>370.6</ele>
        <time>2019-02-24T12:57:47Z</time>
      </trkpt>
      <trkpt lat="46.4259110" lon="6.9223020">
        <ele>370.6</ele>
        <time>2019-02-24T12:57:48Z</time>
      </trkpt>
      <trkpt lat="46.4259110" lon="6.9223020">
        <ele>370.6</ele>
        <time>2019-02-24T12:57:49Z</time>
      </trkpt>
      <trkpt lat="46.4259110" lon="6.9223020">
        <ele>370.6</ele>
        <time>2019-02-24T12:57:50Z</time>
      </trkpt>
      <trkpt lat="46.4259110" lon="6.9223020">
        <ele>370.6</ele>
        <time>2019-02-24T12:57:51Z</time>
      </trkpt>
      <trkpt lat="46.4259110" lon="6.9223020">
        <ele>370.6</ele>
        <time>2019-02-24T12:57:52Z</time>
      </trkpt>
      <trkpt lat="46.4259110" lon="6.9223020">
        <ele>370.6</ele>
        <time>2019-02-24T12:57:53Z</time>
      </trkpt>
      <trkpt lat="46.4259110" lon="6.9223010">
        <ele>370.6</ele>
        <time>2019-02-24T12:57:54Z</time>
      </trkpt>
      <trkpt lat="46.4259110" lon="6.9223010">
        <ele>370.6</ele>
        <time>2019-02-24T12:57:55Z</time>
      </trkpt>
      <trkpt lat="46.4259140" lon="6.9223070">
        <ele>370.6</ele>
        <time>2019-02-24T12:57:56Z</time>
      </trkpt>
      <trkpt lat="46.4259150" lon="6.9223090">
        <ele>370.6</ele>
        <time>2019-02-24T12:57:57Z</time>
      </trkpt>
      <trkpt lat="46.4259130" lon="6.9223050">
        <ele>370.6</ele>
        <time>2019-02-24T12:57:58Z</time>
      </trkpt>
      <trkpt lat="46.4259100" lon="6.9222940">
        <ele>370.6</ele>
        <time>2019-02-24T12:57:59Z</time>
      </trkpt>
      <trkpt lat="46.4259060" lon="6.9222810">
        <ele>370.6</ele>
        <time>2019-02-24T12:58:00Z</time>
      </trkpt>
      <trkpt lat="46.4259040" lon="6.9222730">
        <ele>370.6</ele>
        <time>2019-02-24T12:58:01Z</time>
      </trkpt>
      <trkpt lat="46.4259030" lon="6.9222690">
        <ele>370.6</ele>
        <time>2019-02-24T12:58:02Z</time>
      </trkpt>
      <trkpt lat="46.4259030" lon="6.9222670">
        <ele>370.6</ele>
        <time>2019-02-24T12:58:03Z</time>
      </trkpt>
      <trkpt lat="46.4259030" lon="6.9222670">
        <ele>370.6</ele>
        <time>2019-02-24T12:58:04Z</time>
      </trkpt>
      <trkpt lat="46.4259030" lon="6.9222670">
        <ele>370.6</ele>
        <time>2019-02-24T12:58:05Z</time>
      </trkpt>
      <trkpt lat="46.4259030" lon="6.9222670">
        <ele>370.6</ele>
        <time>2019-02-24T12:58:06Z</time>
      </trkpt>
      <trkpt lat="46.4259020" lon="6.9222660">
        <ele>370.6</ele>
        <time>2019-02-24T12:58:07Z</time>
      </trkpt>
      <trkpt lat="46.4259020" lon="6.9222660">
        <ele>370.6</ele>
        <time>2019-02-24T12:58:08Z</time>
      </trkpt>
      <trkpt lat="46.4259030" lon="6.9222670">
        <ele>370.6</ele>
        <time>2019-02-24T12:58:09Z</time>
      </trkpt>
      <trkpt lat="46.4259040" lon="6.9222670">
        <ele>370.6</ele>
        <time>2019-02-24T12:58:10Z</time>
      </trkpt>
      <trkpt lat="46.4259040" lon="6.9222680">
        <ele>370.6</ele>
        <time>2019-02-24T12:58:11Z</time>
      </trkpt>
      <trkpt lat="46.4259050" lon="6.9222680">
        <ele>370.6</ele>
        <time>2019-02-24T12:58:12Z</time>
      </trkpt>
      <trkpt lat="46.4259040" lon="6.9222690">
        <ele>370.6</ele>
        <time>2019-02-24T12:58:13Z</time>
      </trkpt>
      <trkpt lat="46.4259030" lon="6.9222690">
        <ele>370.6</ele>
        <time>2019-02-24T12:58:14Z</time>
      </trkpt>
      <trkpt lat="46.4259010" lon="6.9222680">
        <ele>370.6</ele>
        <time>2019-02-24T12:58:15Z</time>
      </trkpt>
      <trkpt lat="46.4258970" lon="6.9222670">
        <ele>370.6</ele>
        <time>2019-02-24T12:58:16Z</time>
      </trkpt>
      <trkpt lat="46.4258920" lon="6.9222660">
        <ele>370.6</ele>
        <time>2019-02-24T12:58:17Z</time>
      </trkpt>
      <trkpt lat="46.4258850" lon="6.9222640">
        <ele>370.6</ele>
        <time>2019-02-24T12:58:18Z</time>
      </trkpt>
      <trkpt lat="46.4258790" lon="6.9222610">
        <ele>370.6</ele>
        <time>2019-02-24T12:58:19Z</time>
      </trkpt>
      <trkpt lat="46.4258720" lon="6.9222590">
        <ele>370.6</ele>
        <time>2019-02-24T12:58:20Z</time>
      </trkpt>
      <trkpt lat="46.4258660" lon="6.9222570">
        <ele>370.6</ele>
        <time>2019-02-24T12:58:21Z</time>
      </trkpt>
      <trkpt lat="46.4258610" lon="6.9222540">
        <ele>370.6</ele>
        <time>2019-02-24T12:58:22Z</time>
      </trkpt>
      <trkpt lat="46.4258590" lon="6.9222530">
        <ele>370.6</ele>
        <time>2019-02-24T12:58:23Z</time>
      </trkpt>
      <trkpt lat="46.4258590" lon="6.9222520">
        <ele>370.6</ele>
        <time>2019-02-24T12:58:24Z</time>
      </trkpt>
      <trkpt lat="46.4258630" lon="6.9222520">
        <ele>370.6</ele>
        <time>2019-02-24T12:58:25Z</time>
      </trkpt>
      <trkpt lat="46.4258670" lon="6.9222520">
        <ele>370.6</ele>
        <time>2019-02-24T12:58:26Z</time>
      </trkpt>
      <trkpt lat="46.4258720" lon="6.9222530">
        <ele>370.7</ele>
        <time>2019-02-24T12:58:27Z</time>
      </trkpt>
      <trkpt lat="46.4258750" lon="6.9222530">
        <ele>370.7</ele>
        <time>2019-02-24T12:58:28Z</time>
      </trkpt>
      <trkpt lat="46.4258750" lon="6.9222530">
        <ele>370.7</ele>
        <time>2019-02-24T12:58:29Z</time>
      </trkpt>
      <trkpt lat="46.4258750" lon="6.9222510">
        <ele>370.7</ele>
        <time>2019-02-24T12:58:30Z</time>
      </trkpt>
      <trkpt lat="46.4258800" lon="6.9222460">
        <ele>370.7</ele>
        <time>2019-02-24T12:58:31Z</time>
      </trkpt>
      <trkpt lat="46.4258860" lon="6.9222400">
        <ele>370.7</ele>
        <time>2019-02-24T12:58:32Z</time>
      </trkpt>
      <trkpt lat="46.4258910" lon="6.9222380">
        <ele>370.7</ele>
        <time>2019-02-24T12:58:33Z</time>
      </trkpt>
      <trkpt lat="46.4258950" lon="6.9222370">
        <ele>370.7</ele>
        <time>2019-02-24T12:58:34Z</time>
      </trkpt>
      <trkpt lat="46.4258970" lon="6.9222380">
        <ele>370.7</ele>
        <time>2019-02-24T12:58:35Z</time>
      </trkpt>
      <trkpt lat="46.4258970" lon="6.9222390">
        <ele>370.7</ele>
        <time>2019-02-24T12:58:36Z</time>
      </trkpt>
      <trkpt lat="46.4258960" lon="6.9222380">
        <ele>370.7</ele>
        <time>2019-02-24T12:58:37Z</time>
      </trkpt>
      <trkpt lat="46.4258930" lon="6.9222350">
        <ele>370.6</ele>
        <time>2019-02-24T12:58:38Z</time>
      </trkpt>
      <trkpt lat="46.4258910" lon="6.9222330">
        <ele>370.6</ele>
        <time>2019-02-24T12:58:39Z</time>
      </trkpt>
      <trkpt lat="46.4258890" lon="6.9222300">
        <ele>370.6</ele>
        <time>2019-02-24T12:58:40Z</time>
      </trkpt>
      <trkpt lat="46.4258880" lon="6.9222290">
        <ele>370.6</ele>
        <time>2019-02-24T12:58:41Z</time>
      </trkpt>
      <trkpt lat="46.4258880" lon="6.9222280">
        <ele>370.6</ele>
        <time>2019-02-24T12:58:42Z</time>
      </trkpt>
      <trkpt lat="46.4258880" lon="6.9222280">
        <ele>370.6</ele>
        <time>2019-02-24T12:58:43Z</time>
      </trkpt>
      <trkpt lat="46.4258880" lon="6.9222280">
        <ele>370.6</ele>
        <time>2019-02-24T12:58:44Z</time>
      </trkpt>
      <trkpt lat="46.4258880" lon="6.9222270">
        <ele>370.6</ele>
        <time>2019-02-24T12:58:45Z</time>
      </trkpt>
      <trkpt lat="46.4258890" lon="6.9222200">
        <ele>370.6</ele>
        <time>2019-02-24T12:58:46Z</time>
      </trkpt>
      <trkpt lat="46.4258900" lon="6.9222110">
        <ele>370.6</ele>
        <time>2019-02-24T12:58:47Z</time>
      </trkpt>
      <trkpt lat="46.4258920" lon="6.9222020">
        <ele>370.6</ele>
        <time>2019-02-24T12:58:48Z</time>
      </trkpt>
      <trkpt lat="46.4258940" lon="6.9221940">
        <ele>370.6</ele>
        <time>2019-02-24T12:58:49Z</time>
      </trkpt>
      <trkpt lat="46.4258950" lon="6.9221860">
        <ele>370.6</ele>
        <time>2019-02-24T12:58:50Z</time>
      </trkpt>
      <trkpt lat="46.4258960" lon="6.9221800">
        <ele>370.6</ele>
        <time>2019-02-24T12:58:51Z</time>
      </trkpt>
      <trkpt lat="46.4258960" lon="6.9221750">
        <ele>370.6</ele>
        <time>2019-02-24T12:58:52Z</time>
      </trkpt>
      <trkpt lat="46.4258960" lon="6.9221720">
        <ele>370.6</ele>
        <time>2019-02-24T12:58:53Z</time>
      </trkpt>
      <trkpt lat="46.4258960" lon="6.9221700">
        <ele>370.6</ele>
        <time>2019-02-24T12:58:54Z</time>
      </trkpt>
      <trkpt lat="46.4258960" lon="6.9221700">
        <ele>370.6</ele>
        <time>2019-02-24T12:58:55Z</time>
      </trkpt>
      <trkpt lat="46.4258950" lon="6.9221700">
        <ele>370.6</ele>
        <time>2019-02-24T12:58:56Z</time>
      </trkpt>
      <trkpt lat="46.4258950" lon="6.9221700">
        <ele>370.6</ele>
        <time>2019-02-24T12:58:57Z</time>
      </trkpt>
      <trkpt lat="46.4258950" lon="6.9221700">
        <ele>370.6</ele>
        <time>2019-02-24T12:58:58Z</time>
      </trkpt>
      <trkpt lat="46.4258950" lon="6.9221700">
        <ele>370.6</ele>
        <time>2019-02-24T12:58:59Z</time>
      </trkpt>
      <trkpt lat="46.4258950" lon="6.9221700">
        <ele>370.6</ele>
        <time>2019-02-24T12:59:00Z</time>
      </trkpt>
      <trkpt lat="46.4258950" lon="6.9221700">
        <ele>370.6</ele>
        <time>2019-02-24T12:59:01Z</time>
      </trkpt>
      <trkpt lat="46.4258950" lon="6.9221700">
        <ele>370.6</ele>
        <time>2019-02-24T12:59:02Z</time>
      </trkpt>
      <trkpt lat="46.4258950" lon="6.9221700">
        <ele>370.6</ele>
        <time>2019-02-24T12:59:03Z</time>
      </trkpt>
      <trkpt lat="46.4258950" lon="6.9221700">
        <ele>370.6</ele>
        <time>2019-02-24T12:59:04Z</time>
      </trkpt>
      <trkpt lat="46.4258950" lon="6.9221700">
        <ele>370.6</ele>
        <time>2019-02-24T12:59:05Z</time>
      </trkpt>
      <trkpt lat="46.4258950" lon="6.9221700">
        <ele>370.6</ele>
        <time>2019-02-24T12:59:06Z</time>
      </trkpt>
      <trkpt lat="46.4258950" lon="6.9221700">
        <ele>370.6</ele>
        <time>2019-02-24T12:59:07Z</time>
      </trkpt>
      <trkpt lat="46.4258950" lon="6.9221700">
        <ele>370.6</ele>
        <time>2019-02-24T12:59:08Z</time>
      </trkpt>
      <trkpt lat="46.4258950" lon="6.9221700">
        <ele>370.6</ele>
        <time>2019-02-24T12:59:09Z</time>
      </trkpt>
      <trkpt lat="46.4258950" lon="6.9221700">
        <ele>370.6</ele>
        <time>2019-02-24T12:59:10Z</time>
      </trkpt>
      <trkpt lat="46.4258950" lon="6.9221700">
        <ele>370.6</ele>
        <time>2019-02-24T12:59:11Z</time>
      </trkpt>
      <trkpt lat="46.4258950" lon="6.9221700">
        <ele>370.6</ele>
        <time>2019-02-24T12:59:12Z</time>
      </trkpt>
      <trkpt lat="46.4258950" lon="6.9221700">
        <ele>370.6</ele>
        <time>2019-02-24T12:59:13Z</time>
      </trkpt>
      <trkpt lat="46.4258950" lon="6.9221700">
        <ele>370.6</ele>
        <time>2019-02-24T12:59:14Z</time>
      </trkpt>
      <trkpt lat="46.4258950" lon="6.9221700">
        <ele>370.6</ele>
        <time>2019-02-24T12:59:15Z</time>
      </trkpt>
      <trkpt lat="46.4258950" lon="6.9221700">
        <ele>370.6</ele>
        <time>2019-02-24T12:59:16Z</time>
      </trkpt>
      <trkpt lat="46.4258950" lon="6.9221700">
        <ele>370.6</ele>
        <time>2019-02-24T12:59:17Z</time>
      </trkpt>
      <trkpt lat="46.4258950" lon="6.9221700">
        <ele>370.6</ele>
        <time>2019-02-24T12:59:18Z</time>
      </trkpt>
      <trkpt lat="46.4258950" lon="6.9221700">
        <ele>370.6</ele>
        <time>2019-02-24T12:59:19Z</time>
      </trkpt>
      <trkpt lat="46.4258950" lon="6.9221700">
        <ele>370.6</ele>
        <time>2019-02-24T12:59:20Z</time>
      </trkpt>
      <trkpt lat="46.4258950" lon="6.9221700">
        <ele>370.6</ele>
        <time>2019-02-24T12:59:21Z</time>
      </trkpt>
      <trkpt lat="46.4258950" lon="6.9221700">
        <ele>370.6</ele>
        <time>2019-02-24T12:59:22Z</time>
      </trkpt>
      <trkpt lat="46.4258950" lon="6.9221700">
        <ele>370.6</ele>
        <time>2019-02-24T12:59:23Z</time>
      </trkpt>
      <trkpt lat="46.4258950" lon="6.9221700">
        <ele>370.6</ele>
        <time>2019-02-24T12:59:24Z</time>
      </trkpt>
      <trkpt lat="46.4258950" lon="6.9221700">
        <ele>370.6</ele>
        <time>2019-02-24T12:59:25Z</time>
      </trkpt>
      <trkpt lat="46.4258950" lon="6.9221700">
        <ele>370.6</ele>
        <time>2019-02-24T12:59:26Z</time>
      </trkpt>
      <trkpt lat="46.4258950" lon="6.9221700">
        <ele>370.6</ele>
        <time>2019-02-24T12:59:27Z</time>
      </trkpt>
      <trkpt lat="46.4258950" lon="6.9221700">
        <ele>370.6</ele>
        <time>2019-02-24T12:59:28Z</time>
      </trkpt>
      <trkpt lat="46.4258950" lon="6.9221700">
        <ele>370.6</ele>
        <time>2019-02-24T12:59:29Z</time>
      </trkpt>
      <trkpt lat="46.4258950" lon="6.9221700">
        <ele>370.6</ele>
        <time>2019-02-24T12:59:30Z</time>
      </trkpt>
      <trkpt lat="46.4258950" lon="6.9221700">
        <ele>370.6</ele>
        <time>2019-02-24T12:59:31Z</time>
      </trkpt>
      <trkpt lat="46.4258950" lon="6.9221700">
        <ele>370.6</ele>
        <time>2019-02-24T12:59:32Z</time>
      </trkpt>
      <trkpt lat="46.4258950" lon="6.9221700">
        <ele>370.6</ele>
        <time>2019-02-24T12:59:33Z</time>
      </trkpt>
      <trkpt lat="46.4258950" lon="6.9221700">
        <ele>370.6</ele>
        <time>2019-02-24T12:59:34Z</time>
      </trkpt>
      <trkpt lat="46.4258950" lon="6.9221700">
        <ele>370.6</ele>
        <time>2019-02-24T12:59:35Z</time>
      </trkpt>
      <trkpt lat="46.4258950" lon="6.9221700">
        <ele>370.6</ele>
        <time>2019-02-24T12:59:36Z</time>
      </trkpt>
      <trkpt lat="46.4258950" lon="6.9221700">
        <ele>370.6</ele>
        <time>2019-02-24T12:59:37Z</time>
      </trkpt>
      <trkpt lat="46.4258950" lon="6.9221700">
        <ele>370.6</ele>
        <time>2019-02-24T12:59:38Z</time>
      </trkpt>
      <trkpt lat="46.4258950" lon="6.9221700">
        <ele>370.6</ele>
        <time>2019-02-24T12:59:39Z</time>
      </trkpt>
      <trkpt lat="46.4258950" lon="6.9221700">
        <ele>370.6</ele>
        <time>2019-02-24T12:59:40Z</time>
      </trkpt>
      <trkpt lat="46.4258950" lon="6.9221700">
        <ele>370.6</ele>
        <time>2019-02-24T12:59:41Z</time>
      </trkpt>
      <trkpt lat="46.4258950" lon="6.9221700">
        <ele>370.6</ele>
        <time>2019-02-24T12:59:42Z</time>
      </trkpt>
      <trkpt lat="46.4258950" lon="6.9221710">
        <ele>370.6</ele>
        <time>2019-02-24T12:59:43Z</time>
      </trkpt>
      <trkpt lat="46.4258950" lon="6.9221710">
        <ele>370.6</ele>
        <time>2019-02-24T12:59:44Z</time>
      </trkpt>
      <trkpt lat="46.4258950" lon="6.9221710">
        <ele>370.6</ele>
        <time>2019-02-24T12:59:45Z</time>
      </trkpt>
      <trkpt lat="46.4258990" lon="6.9221740">
        <ele>370.6</ele>
        <time>2019-02-24T12:59:46Z</time>
      </trkpt>
      <trkpt lat="46.4259080" lon="6.9221780">
        <ele>370.6</ele>
        <time>2019-02-24T12:59:47Z</time>
      </trkpt>
      <trkpt lat="46.4259170" lon="6.9221780">
        <ele>370.6</ele>
        <time>2019-02-24T12:59:48Z</time>
      </trkpt>
      <trkpt lat="46.4259260" lon="6.9221790">
        <ele>370.6</ele>
        <time>2019-02-24T12:59:49Z</time>
      </trkpt>
      <trkpt lat="46.4259350" lon="6.9221850">
        <ele>370.5</ele>
        <time>2019-02-24T12:59:50Z</time>
      </trkpt>
      <trkpt lat="46.4259460" lon="6.9221890">
        <ele>370.5</ele>
        <time>2019-02-24T12:59:51Z</time>
      </trkpt>
      <trkpt lat="46.4259570" lon="6.9221810">
        <ele>370.5</ele>
        <time>2019-02-24T12:59:52Z</time>
      </trkpt>
      <trkpt lat="46.4259700" lon="6.9221650">
        <ele>370.5</ele>
        <time>2019-02-24T12:59:53Z</time>
      </trkpt>
      <trkpt lat="46.4259860" lon="6.9221490">
        <ele>370.5</ele>
        <time>2019-02-24T12:59:54Z</time>
      </trkpt>
      <trkpt lat="46.4260040" lon="6.9221320">
        <ele>370.5</ele>
        <time>2019-02-24T12:59:55Z</time>
      </trkpt>
      <trkpt lat="46.4260250" lon="6.9221160">
        <ele>370.5</ele>
        <time>2019-02-24T12:59:56Z</time>
      </trkpt>
      <trkpt lat="46.4260480" lon="6.9220990">
        <ele>370.5</ele>
        <time>2019-02-24T12:59:57Z</time>
      </trkpt>
      <trkpt lat="46.4260720" lon="6.9220820">
        <ele>370.5</ele>
        <time>2019-02-24T12:59:58Z</time>
      </trkpt>
      <trkpt lat="46.4260970" lon="6.9220640">
        <ele>370.5</ele>
        <time>2019-02-24T12:59:59Z</time>
      </trkpt>
      <trkpt lat="46.4261440" lon="6.9220320">
        <ele>370.5</ele>
        <time>2019-02-24T13:00:00Z</time>
      </trkpt>
      <trkpt lat="46.4261650" lon="6.9220170">
        <ele>370.6</ele>
        <time>2019-02-24T13:00:01Z</time>
      </trkpt>
      <trkpt lat="46.4261850" lon="6.9220030">
        <ele>370.6</ele>
        <time>2019-02-24T13:00:02Z</time>
      </trkpt>
      <trkpt lat="46.4262050" lon="6.9219880">
        <ele>370.7</ele>
        <time>2019-02-24T13:00:03Z</time>
      </trkpt>
      <trkpt lat="46.4262310" lon="6.9219690">
        <ele>370.7</ele>
        <time>2019-02-24T13:00:04Z</time>
      </trkpt>
      <trkpt lat="46.4262560" lon="6.9219490">
        <ele>370.7</ele>
        <time>2019-02-24T13:00:05Z</time>
      </trkpt>
      <trkpt lat="46.4262790" lon="6.9219300">
        <ele>370.7</ele>
        <time>2019-02-24T13:00:06Z</time>
      </trkpt>
      <trkpt lat="46.4263000" lon="6.9219110">
        <ele>370.7</ele>
        <time>2019-02-24T13:00:07Z</time>
      </trkpt>
      <trkpt lat="46.4263190" lon="6.9218940">
        <ele>370.7</ele>
        <time>2019-02-24T13:00:08Z</time>
      </trkpt>
      <trkpt lat="46.4263340" lon="6.9218780">
        <ele>370.7</ele>
        <time>2019-02-24T13:00:09Z</time>
      </trkpt>
      <trkpt lat="46.4263470" lon="6.9218630">
        <ele>370.7</ele>
        <time>2019-02-24T13:00:10Z</time>
      </trkpt>
      <trkpt lat="46.4263570" lon="6.9218500">
        <ele>370.7</ele>
        <time>2019-02-24T13:00:11Z</time>
      </trkpt>
      <trkpt lat="46.4263650" lon="6.9218400">
        <ele>370.6</ele>
        <time>2019-02-24T13:00:12Z</time>
      </trkpt>
      <trkpt lat="46.4263730" lon="6.9218310">
        <ele>370.5</ele>
        <time>2019-02-24T13:00:13Z</time>
      </trkpt>
      <trkpt lat="46.4263810" lon="6.9218260">
        <ele>370.5</ele>
        <time>2019-02-24T13:00:14Z</time>
      </trkpt>
      <trkpt lat="46.4263900" lon="6.9218210">
        <ele>370.5</ele>
        <time>2019-02-24T13:00:15Z</time>
      </trkpt>
      <trkpt lat="46.4264010" lon="6.9218170">
        <ele>370.4</ele>
        <time>2019-02-24T13:00:16Z</time>
      </trkpt>
      <trkpt lat="46.4264130" lon="6.9218120">
        <ele>370.3</ele>
        <time>2019-02-24T13:00:17Z</time>
      </trkpt>
      <trkpt lat="46.4264290" lon="6.9218030">
        <ele>370.2</ele>
        <time>2019-02-24T13:00:18Z</time>
      </trkpt>
      <trkpt lat="46.4264460" lon="6.9217930">
        <ele>370.1</ele>
        <time>2019-02-24T13:00:19Z</time>
      </trkpt>
      <trkpt lat="46.4264670" lon="6.9217800">
        <ele>370.0</ele>
        <time>2019-02-24T13:00:20Z</time>
      </trkpt>
      <trkpt lat="46.4264890" lon="6.9217640">
        <ele>370.1</ele>
        <time>2019-02-24T13:00:21Z</time>
      </trkpt>
      <trkpt lat="46.4265130" lon="6.9217470">
        <ele>370.3</ele>
        <time>2019-02-24T13:00:22Z</time>
      </trkpt>
      <trkpt lat="46.4265400" lon="6.9217280">
        <ele>370.5</ele>
        <time>2019-02-24T13:00:23Z</time>
      </trkpt>
      <trkpt lat="46.4265670" lon="6.9217070">
        <ele>370.7</ele>
        <time>2019-02-24T13:00:24Z</time>
      </trkpt>
      <trkpt lat="46.4265960" lon="6.9216840">
        <ele>371.0</ele>
        <time>2019-02-24T13:00:25Z</time>
      </trkpt>
      <trkpt lat="46.4266270" lon="6.9216600">
        <ele>371.3</ele>
        <time>2019-02-24T13:00:26Z</time>
      </trkpt>
      <trkpt lat="46.4266580" lon="6.9216350">
        <ele>371.6</ele>
        <time>2019-02-24T13:00:27Z</time>
      </trkpt>
      <trkpt lat="46.4266900" lon="6.9216090">
        <ele>371.9</ele>
        <time>2019-02-24T13:00:28Z</time>
      </trkpt>
      <trkpt lat="46.4267230" lon="6.9215820">
        <ele>371.5</ele>
        <time>2019-02-24T13:00:29Z</time>
      </trkpt>
      <trkpt lat="46.4267780" lon="6.9215350">
        <ele>370.8</ele>
        <time>2019-02-24T13:00:30Z</time>
      </trkpt>
      <trkpt lat="46.4268010" lon="6.9215160">
        <ele>370.5</ele>
        <time>2019-02-24T13:00:31Z</time>
      </trkpt>
      <trkpt lat="46.4268230" lon="6.9214970">
        <ele>370.2</ele>
        <time>2019-02-24T13:00:32Z</time>
      </trkpt>
      <trkpt lat="46.4268560" lon="6.9214680">
        <ele>369.9</ele>
        <time>2019-02-24T13:00:33Z</time>
      </trkpt>
      <trkpt lat="46.4268890" lon="6.9214390">
        <ele>369.7</ele>
        <time>2019-02-24T13:00:34Z</time>
      </trkpt>
      <trkpt lat="46.4269220" lon="6.9214100">
        <ele>369.7</ele>
        <time>2019-02-24T13:00:35Z</time>
      </trkpt>
      <trkpt lat="46.4269550" lon="6.9213820">
        <ele>370.2</ele>
        <time>2019-02-24T13:00:36Z</time>
      </trkpt>
      <trkpt lat="46.4269880" lon="6.9213530">
        <ele>370.6</ele>
        <time>2019-02-24T13:00:37Z</time>
      </trkpt>
      <trkpt lat="46.4270210" lon="6.9213250">
        <ele>370.8</ele>
        <time>2019-02-24T13:00:38Z</time>
      </trkpt>
      <trkpt lat="46.4270540" lon="6.9212980">
        <ele>370.9</ele>
        <time>2019-02-24T13:00:39Z</time>
      </trkpt>
      <trkpt lat="46.4270880" lon="6.9212710">
        <ele>370.9</ele>
        <time>2019-02-24T13:00:40Z</time>
      </trkpt>
      <trkpt lat="46.4271230" lon="6.9212450">
        <ele>370.7</ele>
        <time>2019-02-24T13:00:41Z</time>
      </trkpt>
      <trkpt lat="46.4271580" lon="6.9212190">
        <ele>370.6</ele>
        <time>2019-02-24T13:00:42Z</time>
      </trkpt>
      <trkpt lat="46.4271940" lon="6.9211940">
        <ele>370.4</ele>
        <time>2019-02-24T13:00:43Z</time>
      </trkpt>
      <trkpt lat="46.4272310" lon="6.9211690">
        <ele>370.3</ele>
        <time>2019-02-24T13:00:44Z</time>
      </trkpt>
      <trkpt lat="46.4272670" lon="6.9211440">
        <ele>370.4</ele>
        <time>2019-02-24T13:00:45Z</time>
      </trkpt>
      <trkpt lat="46.4273040" lon="6.9211180">
        <ele>370.6</ele>
        <time>2019-02-24T13:00:46Z</time>
      </trkpt>
      <trkpt lat="46.4273410" lon="6.9210910">
        <ele>370.6</ele>
        <time>2019-02-24T13:00:47Z</time>
      </trkpt>
      <trkpt lat="46.4273780" lon="6.9210630">
        <ele>370.6</ele>
        <time>2019-02-24T13:00:48Z</time>
      </trkpt>
      <trkpt lat="46.4274140" lon="6.9210340">
        <ele>370.6</ele>
        <time>2019-02-24T13:00:49Z</time>
      </trkpt>
      <trkpt lat="46.4274490" lon="6.9210020">
        <ele>370.5</ele>
        <time>2019-02-24T13:00:50Z</time>
      </trkpt>
      <trkpt lat="46.4274840" lon="6.9209690">
        <ele>370.2</ele>
        <time>2019-02-24T13:00:51Z</time>
      </trkpt>
      <trkpt lat="46.4275180" lon="6.9209360">
        <ele>369.9</ele>
        <time>2019-02-24T13:00:52Z</time>
      </trkpt>
      <trkpt lat="46.4275510" lon="6.9209030">
        <ele>369.8</ele>
        <time>2019-02-24T13:00:53Z</time>
      </trkpt>
      <trkpt lat="46.4275840" lon="6.9208710">
        <ele>369.8</ele>
        <time>2019-02-24T13:00:54Z</time>
      </trkpt>
      <trkpt lat="46.4276150" lon="6.9208400">
        <ele>369.9</ele>
        <time>2019-02-24T13:00:55Z</time>
      </trkpt>
      <trkpt lat="46.4276460" lon="6.9208120">
        <ele>370.2</ele>
        <time>2019-02-24T13:00:56Z</time>
      </trkpt>
      <trkpt lat="46.4276750" lon="6.9207860">
        <ele>370.4</ele>
        <time>2019-02-24T13:00:57Z</time>
      </trkpt>
      <trkpt lat="46.4277040" lon="6.9207640">
        <ele>370.2</ele>
        <time>2019-02-24T13:00:58Z</time>
      </trkpt>
      <trkpt lat="46.4277310" lon="6.9207450">
        <ele>370.1</ele>
        <time>2019-02-24T13:00:59Z</time>
      </trkpt>
      <trkpt lat="46.4277580" lon="6.9207280">
        <ele>370.0</ele>
        <time>2019-02-24T13:01:00Z</time>
      </trkpt>
      <trkpt lat="46.4277850" lon="6.9207120">
        <ele>369.9</ele>
        <time>2019-02-24T13:01:01Z</time>
      </trkpt>
      <trkpt lat="46.4278110" lon="6.9206960">
        <ele>369.8</ele>
        <time>2019-02-24T13:01:02Z</time>
      </trkpt>
      <trkpt lat="46.4278380" lon="6.9206810">
        <ele>369.6</ele>
        <time>2019-02-24T13:01:03Z</time>
      </trkpt>
      <trkpt lat="46.4278650" lon="6.9206640">
        <ele>369.7</ele>
        <time>2019-02-24T13:01:04Z</time>
      </trkpt>
      <trkpt lat="46.4278920" lon="6.9206450">
        <ele>369.7</ele>
        <time>2019-02-24T13:01:05Z</time>
      </trkpt>
      <trkpt lat="46.4279200" lon="6.9206240">
        <ele>369.8</ele>
        <time>2019-02-24T13:01:06Z</time>
      </trkpt>
      <trkpt lat="46.4279480" lon="6.9206010">
        <ele>370.0</ele>
        <time>2019-02-24T13:01:07Z</time>
      </trkpt>
      <trkpt lat="46.4279770" lon="6.9205770">
        <ele>370.2</ele>
        <time>2019-02-24T13:01:08Z</time>
      </trkpt>
      <trkpt lat="46.4280060" lon="6.9205510">
        <ele>370.3</ele>
        <time>2019-02-24T13:01:09Z</time>
      </trkpt>
      <trkpt lat="46.4280340" lon="6.9205260">
        <ele>370.2</ele>
        <time>2019-02-24T13:01:10Z</time>
      </trkpt>
      <trkpt lat="46.4280630" lon="6.9205010">
        <ele>370.2</ele>
        <time>2019-02-24T13:01:11Z</time>
      </trkpt>
      <trkpt lat="46.4280910" lon="6.9204770">
        <ele>370.1</ele>
        <time>2019-02-24T13:01:12Z</time>
      </trkpt>
      <trkpt lat="46.4281190" lon="6.9204550">
        <ele>370.0</ele>
        <time>2019-02-24T13:01:13Z</time>
      </trkpt>
      <trkpt lat="46.4281460" lon="6.9204340">
        <ele>370.0</ele>
        <time>2019-02-24T13:01:14Z</time>
      </trkpt>
      <trkpt lat="46.4281720" lon="6.9204150">
        <ele>369.9</ele>
        <time>2019-02-24T13:01:15Z</time>
      </trkpt>
      <trkpt lat="46.4281990" lon="6.9203950">
        <ele>369.9</ele>
        <time>2019-02-24T13:01:16Z</time>
      </trkpt>
      <trkpt lat="46.4282270" lon="6.9203720">
        <ele>369.9</ele>
        <time>2019-02-24T13:01:17Z</time>
      </trkpt>
      <trkpt lat="46.4282570" lon="6.9203470">
        <ele>370.3</ele>
        <time>2019-02-24T13:01:18Z</time>
      </trkpt>
      <trkpt lat="46.4282880" lon="6.9203190">
        <ele>370.6</ele>
        <time>2019-02-24T13:01:19Z</time>
      </trkpt>
      <trkpt lat="46.4283200" lon="6.9202890">
        <ele>370.8</ele>
        <time>2019-02-24T13:01:20Z</time>
      </trkpt>
      <trkpt lat="46.4283530" lon="6.9202580">
        <ele>370.8</ele>
        <time>2019-02-24T13:01:21Z</time>
      </trkpt>
      <trkpt lat="46.4283870" lon="6.9202280">
        <ele>370.8</ele>
        <time>2019-02-24T13:01:22Z</time>
      </trkpt>
      <trkpt lat="46.4284220" lon="6.9201970">
        <ele>370.8</ele>
        <time>2019-02-24T13:01:23Z</time>
      </trkpt>
      <trkpt lat="46.4284570" lon="6.9201660">
        <ele>370.8</ele>
        <time>2019-02-24T13:01:24Z</time>
      </trkpt>
      <trkpt lat="46.4285160" lon="6.9201160">
        <ele>370.9</ele>
        <time>2019-02-24T13:01:25Z</time>
      </trkpt>
      <trkpt lat="46.4285400" lon="6.9200960">
        <ele>370.9</ele>
        <time>2019-02-24T13:01:26Z</time>
      </trkpt>
      <trkpt lat="46.4285640" lon="6.9200760">
        <ele>371.0</ele>
        <time>2019-02-24T13:01:27Z</time>
      </trkpt>
      <trkpt lat="46.4285990" lon="6.9200460">
        <ele>371.0</ele>
        <time>2019-02-24T13:01:28Z</time>
      </trkpt>
      <trkpt lat="46.4286350" lon="6.9200160">
        <ele>371.0</ele>
        <time>2019-02-24T13:01:29Z</time>
      </trkpt>
      <trkpt lat="46.4286700" lon="6.9199870">
        <ele>371.1</ele>
        <time>2019-02-24T13:01:30Z</time>
      </trkpt>
      <trkpt lat="46.4287050" lon="6.9199570">
        <ele>371.1</ele>
        <time>2019-02-24T13:01:31Z</time>
      </trkpt>
      <trkpt lat="46.4287390" lon="6.9199270">
        <ele>371.1</ele>
        <time>2019-02-24T13:01:32Z</time>
      </trkpt>
      <trkpt lat="46.4287730" lon="6.9198970">
        <ele>371.1</ele>
        <time>2019-02-24T13:01:33Z</time>
      </trkpt>
      <trkpt lat="46.4288060" lon="6.9198650">
        <ele>371.1</ele>
        <time>2019-02-24T13:01:34Z</time>
      </trkpt>
      <trkpt lat="46.4288390" lon="6.9198320">
        <ele>371.0</ele>
        <time>2019-02-24T13:01:35Z</time>
      </trkpt>
      <trkpt lat="46.4288710" lon="6.9197970">
        <ele>371.0</ele>
        <time>2019-02-24T13:01:36Z</time>
      </trkpt>
      <trkpt lat="46.4289030" lon="6.9197600">
        <ele>371.0</ele>
        <time>2019-02-24T13:01:37Z</time>
      </trkpt>
      <trkpt lat="46.4289340" lon="6.9197210">
        <ele>371.0</ele>
        <time>2019-02-24T13:01:38Z</time>
      </trkpt>
      <trkpt lat="46.4289650" lon="6.9196800">
        <ele>371.0</ele>
        <time>2019-02-24T13:01:39Z</time>
      </trkpt>
      <trkpt lat="46.4289950" lon="6.9196370">
        <ele>371.0</ele>
        <time>2019-02-24T13:01:40Z</time>
      </trkpt>
      <trkpt lat="46.4290250" lon="6.9195930">
        <ele>371.0</ele>
        <time>2019-02-24T13:01:41Z</time>
      </trkpt>
      <trkpt lat="46.4290540" lon="6.9195480">
        <ele>371.0</ele>
        <time>2019-02-24T13:01:42Z</time>
      </trkpt>
      <trkpt lat="46.4290840" lon="6.9195030">
        <ele>371.0</ele>
        <time>2019-02-24T13:01:43Z</time>
      </trkpt>
      <trkpt lat="46.4291130" lon="6.9194580">
        <ele>371.0</ele>
        <time>2019-02-24T13:01:44Z</time>
      </trkpt>
      <trkpt lat="46.4291430" lon="6.9194140">
        <ele>371.0</ele>
        <time>2019-02-24T13:01:45Z</time>
      </trkpt>
      <trkpt lat="46.4291720" lon="6.9193710">
        <ele>371.1</ele>
        <time>2019-02-24T13:01:46Z</time>
      </trkpt>
      <trkpt lat="46.4292010" lon="6.9193280">
        <ele>371.1</ele>
        <time>2019-02-24T13:01:47Z</time>
      </trkpt>
      <trkpt lat="46.4292310" lon="6.9192850">
        <ele>371.1</ele>
        <time>2019-02-24T13:01:48Z</time>
      </trkpt>
      <trkpt lat="46.4292590" lon="6.9192420">
        <ele>371.2</ele>
        <time>2019-02-24T13:01:49Z</time>
      </trkpt>
      <trkpt lat="46.4292880" lon="6.9191980">
        <ele>371.2</ele>
        <time>2019-02-24T13:01:50Z</time>
      </trkpt>
      <trkpt lat="46.4293160" lon="6.9191540">
        <ele>371.2</ele>
        <time>2019-02-24T13:01:51Z</time>
      </trkpt>
      <trkpt lat="46.4293430" lon="6.9191080">
        <ele>371.3</ele>
        <time>2019-02-24T13:01:52Z</time>
      </trkpt>
      <trkpt lat="46.4293690" lon="6.9190600">
        <ele>371.3</ele>
        <time>2019-02-24T13:01:53Z</time>
      </trkpt>
      <trkpt lat="46.4293940" lon="6.9190100">
        <ele>371.3</ele>
        <time>2019-02-24T13:01:54Z</time>
      </trkpt>
      <trkpt lat="46.4294180" lon="6.9189590">
        <ele>371.3</ele>
        <time>2019-02-24T13:01:55Z</time>
      </trkpt>
      <trkpt lat="46.4294410" lon="6.9189070">
        <ele>371.3</ele>
        <time>2019-02-24T13:01:56Z</time>
      </trkpt>
      <trkpt lat="46.4294620" lon="6.9188560">
        <ele>371.3</ele>
        <time>2019-02-24T13:01:57Z</time>
      </trkpt>
      <trkpt lat="46.4294800" lon="6.9188070">
        <ele>371.3</ele>
        <time>2019-02-24T13:01:58Z</time>
      </trkpt>
      <trkpt lat="46.4294960" lon="6.9187590">
        <ele>371.3</ele>
        <time>2019-02-24T13:01:59Z</time>
      </trkpt>
      <trkpt lat="46.4295110" lon="6.9187150">
        <ele>371.3</ele>
        <time>2019-02-24T13:02:00Z</time>
      </trkpt>
      <trkpt lat="46.4295230" lon="6.9186740">
        <ele>371.3</ele>
        <time>2019-02-24T13:02:01Z</time>
      </trkpt>
      <trkpt lat="46.4295330" lon="6.9186370">
        <ele>371.3</ele>
        <time>2019-02-24T13:02:02Z</time>
      </trkpt>
      <trkpt lat="46.4295410" lon="6.9186040">
        <ele>371.3</ele>
        <time>2019-02-24T13:02:03Z</time>
      </trkpt>
      <trkpt lat="46.4295490" lon="6.9185750">
        <ele>371.3</ele>
        <time>2019-02-24T13:02:04Z</time>
      </trkpt>
      <trkpt lat="46.4295550" lon="6.9185480">
        <ele>371.3</ele>
        <time>2019-02-24T13:02:05Z</time>
      </trkpt>
      <trkpt lat="46.4295600" lon="6.9185220">
        <ele>371.4</ele>
        <time>2019-02-24T13:02:06Z</time>
      </trkpt>
      <trkpt lat="46.4295640" lon="6.9184960">
        <ele>371.4</ele>
        <time>2019-02-24T13:02:07Z</time>
      </trkpt>
      <trkpt lat="46.4295690" lon="6.9184680">
        <ele>371.4</ele>
        <time>2019-02-24T13:02:08Z</time>
      </trkpt>
      <trkpt lat="46.4295750" lon="6.9184370">
        <ele>371.4</ele>
        <time>2019-02-24T13:02:09Z</time>
      </trkpt>
      <trkpt lat="46.4295820" lon="6.9184010">
        <ele>371.4</ele>
        <time>2019-02-24T13:02:10Z</time>
      </trkpt>
      <trkpt lat="46.4295920" lon="6.9183600">
        <ele>371.4</ele>
        <time>2019-02-24T13:02:11Z</time>
      </trkpt>
      <trkpt lat="46.4296020" lon="6.9183130">
        <ele>371.5</ele>
        <time>2019-02-24T13:02:12Z</time>
      </trkpt>
      <trkpt lat="46.4296130" lon="6.9182650">
        <ele>371.5</ele>
        <time>2019-02-24T13:02:13Z</time>
      </trkpt>
      <trkpt lat="46.4296210" lon="6.9182170">
        <ele>371.5</ele>
        <time>2019-02-24T13:02:14Z</time>
      </trkpt>
      <trkpt lat="46.4296270" lon="6.9181720">
        <ele>371.6</ele>
        <time>2019-02-24T13:02:15Z</time>
      </trkpt>
      <trkpt lat="46.4296300" lon="6.9181280">
        <ele>371.7</ele>
        <time>2019-02-24T13:02:16Z</time>
      </trkpt>
      <trkpt lat="46.4296340" lon="6.9180850">
        <ele>371.7</ele>
        <time>2019-02-24T13:02:17Z</time>
      </trkpt>
      <trkpt lat="46.4296380" lon="6.9180430">
        <ele>371.8</ele>
        <time>2019-02-24T13:02:18Z</time>
      </trkpt>
      <trkpt lat="46.4296450" lon="6.9180010">
        <ele>371.9</ele>
        <time>2019-02-24T13:02:19Z</time>
      </trkpt>
      <trkpt lat="46.4296540" lon="6.9179580">
        <ele>372.1</ele>
        <time>2019-02-24T13:02:20Z</time>
      </trkpt>
      <trkpt lat="46.4296640" lon="6.9179150">
        <ele>372.2</ele>
        <time>2019-02-24T13:02:21Z</time>
      </trkpt>
      <trkpt lat="46.4296730" lon="6.9178720">
        <ele>372.4</ele>
        <time>2019-02-24T13:02:22Z</time>
      </trkpt>
      <trkpt lat="46.4296810" lon="6.9178290">
        <ele>372.5</ele>
        <time>2019-02-24T13:02:23Z</time>
      </trkpt>
      <trkpt lat="46.4296880" lon="6.9177860">
        <ele>372.7</ele>
        <time>2019-02-24T13:02:24Z</time>
      </trkpt>
      <trkpt lat="46.4296950" lon="6.9177430">
        <ele>372.9</ele>
        <time>2019-02-24T13:02:25Z</time>
      </trkpt>
      <trkpt lat="46.4297020" lon="6.9177020">
        <ele>373.0</ele>
        <time>2019-02-24T13:02:26Z</time>
      </trkpt>
      <trkpt lat="46.4297090" lon="6.9176620">
        <ele>373.1</ele>
        <time>2019-02-24T13:02:27Z</time>
      </trkpt>
      <trkpt lat="46.4297170" lon="6.9176230">
        <ele>373.3</ele>
        <time>2019-02-24T13:02:28Z</time>
      </trkpt>
      <trkpt lat="46.4297240" lon="6.9175850">
        <ele>373.4</ele>
        <time>2019-02-24T13:02:29Z</time>
      </trkpt>
      <trkpt lat="46.4297320" lon="6.9175470">
        <ele>373.6</ele>
        <time>2019-02-24T13:02:30Z</time>
      </trkpt>
      <trkpt lat="46.4297400" lon="6.9175090">
        <ele>373.7</ele>
        <time>2019-02-24T13:02:31Z</time>
      </trkpt>
      <trkpt lat="46.4297470" lon="6.9174700">
        <ele>373.8</ele>
        <time>2019-02-24T13:02:32Z</time>
      </trkpt>
      <trkpt lat="46.4297550" lon="6.9174300">
        <ele>374.0</ele>
        <time>2019-02-24T13:02:33Z</time>
      </trkpt>
      <trkpt lat="46.4297640" lon="6.9173870">
        <ele>374.1</ele>
        <time>2019-02-24T13:02:34Z</time>
      </trkpt>
      <trkpt lat="46.4297740" lon="6.9173410">
        <ele>374.3</ele>
        <time>2019-02-24T13:02:35Z</time>
      </trkpt>
      <trkpt lat="46.4297850" lon="6.9172920">
        <ele>374.5</ele>
        <time>2019-02-24T13:02:36Z</time>
      </trkpt>
      <trkpt lat="46.4297960" lon="6.9172420">
        <ele>374.7</ele>
        <time>2019-02-24T13:02:37Z</time>
      </trkpt>
      <trkpt lat="46.4298080" lon="6.9171890">
        <ele>374.9</ele>
        <time>2019-02-24T13:02:38Z</time>
      </trkpt>
      <trkpt lat="46.4298210" lon="6.9171350">
        <ele>375.2</ele>
        <time>2019-02-24T13:02:39Z</time>
      </trkpt>
      <trkpt lat="46.4298410" lon="6.9170450">
        <ele>375.6</ele>
        <time>2019-02-24T13:02:40Z</time>
      </trkpt>
      <trkpt lat="46.4298480" lon="6.9170080">
        <ele>375.8</ele>
        <time>2019-02-24T13:02:41Z</time>
      </trkpt>
      <trkpt lat="46.4298560" lon="6.9169720">
        <ele>375.9</ele>
        <time>2019-02-24T13:02:42Z</time>
      </trkpt>
      <trkpt lat="46.4298670" lon="6.9169190">
        <ele>376.2</ele>
        <time>2019-02-24T13:02:43Z</time>
      </trkpt>
      <trkpt lat="46.4298760" lon="6.9168670">
        <ele>376.5</ele>
        <time>2019-02-24T13:02:44Z</time>
      </trkpt>
      <trkpt lat="46.4298840" lon="6.9168170">
        <ele>376.8</ele>
        <time>2019-02-24T13:02:45Z</time>
      </trkpt>
      <trkpt lat="46.4298910" lon="6.9167680">
        <ele>377.0</ele>
        <time>2019-02-24T13:02:46Z</time>
      </trkpt>
      <trkpt lat="46.4298950" lon="6.9167220">
        <ele>377.3</ele>
        <time>2019-02-24T13:02:47Z</time>
      </trkpt>
      <trkpt lat="46.4298980" lon="6.9166790">
        <ele>377.5</ele>
        <time>2019-02-24T13:02:48Z</time>
      </trkpt>
      <trkpt lat="46.4299020" lon="6.9166370">
        <ele>377.7</ele>
        <time>2019-02-24T13:02:49Z</time>
      </trkpt>
      <trkpt lat="46.4299060" lon="6.9165970">
        <ele>378.0</ele>
        <time>2019-02-24T13:02:50Z</time>
      </trkpt>
      <trkpt lat="46.4299120" lon="6.9165570">
        <ele>378.4</ele>
        <time>2019-02-24T13:02:51Z</time>
      </trkpt>
      <trkpt lat="46.4299200" lon="6.9165190">
        <ele>378.4</ele>
        <time>2019-02-24T13:02:52Z</time>
      </trkpt>
      <trkpt lat="46.4299290" lon="6.9164820">
        <ele>378.4</ele>
        <time>2019-02-24T13:02:53Z</time>
      </trkpt>
      <trkpt lat="46.4299380" lon="6.9164470">
        <ele>378.4</ele>
        <time>2019-02-24T13:02:54Z</time>
      </trkpt>
      <trkpt lat="46.4299470" lon="6.9164130">
        <ele>378.4</ele>
        <time>2019-02-24T13:02:55Z</time>
      </trkpt>
      <trkpt lat="46.4299550" lon="6.9163810">
        <ele>378.4</ele>
        <time>2019-02-24T13:02:56Z</time>
      </trkpt>
      <trkpt lat="46.4299610" lon="6.9163510">
        <ele>378.4</ele>
        <time>2019-02-24T13:02:57Z</time>
      </trkpt>
      <trkpt lat="46.4299650" lon="6.9163230">
        <ele>378.4</ele>
        <time>2019-02-24T13:02:58Z</time>
      </trkpt>
      <trkpt lat="46.4299670" lon="6.9162830">
        <ele>378.4</ele>
        <time>2019-02-24T13:02:59Z</time>
      </trkpt>
      <trkpt lat="46.4299660" lon="6.9162710">
        <ele>378.4</ele>
        <time>2019-02-24T13:03:00Z</time>
      </trkpt>
      <trkpt lat="46.4299640" lon="6.9162470">
        <ele>378.4</ele>
        <time>2019-02-24T13:03:01Z</time>
      </trkpt>
      <trkpt lat="46.4299610" lon="6.9162230">
        <ele>378.5</ele>
        <time>2019-02-24T13:03:02Z</time>
      </trkpt>
      <trkpt lat="46.4299570" lon="6.9161970">
        <ele>378.5</ele>
        <time>2019-02-24T13:03:03Z</time>
      </trkpt>
      <trkpt lat="46.4299540" lon="6.9161710">
        <ele>378.5</ele>
        <time>2019-02-24T13:03:04Z</time>
      </trkpt>
      <trkpt lat="46.4299510" lon="6.9161420">
        <ele>378.5</ele>
        <time>2019-02-24T13:03:05Z</time>
      </trkpt>
      <trkpt lat="46.4299500" lon="6.9161100">
        <ele>378.5</ele>
        <time>2019-02-24T13:03:06Z</time>
      </trkpt>
      <trkpt lat="46.4299510" lon="6.9160750">
        <ele>378.5</ele>
        <time>2019-02-24T13:03:07Z</time>
      </trkpt>
      <trkpt lat="46.4299530" lon="6.9160370">
        <ele>378.5</ele>
        <time>2019-02-24T13:03:08Z</time>
      </trkpt>
      <trkpt lat="46.4299550" lon="6.9159970">
        <ele>378.5</ele>
        <time>2019-02-24T13:03:09Z</time>
      </trkpt>
      <trkpt lat="46.4299570" lon="6.9159540">
        <ele>378.5</ele>
        <time>2019-02-24T13:03:10Z</time>
      </trkpt>
      <trkpt lat="46.4299590" lon="6.9159110">
        <ele>378.5</ele>
        <time>2019-02-24T13:03:11Z</time>
      </trkpt>
      <trkpt lat="46.4299580" lon="6.9158670">
        <ele>378.5</ele>
        <time>2019-02-24T13:03:12Z</time>
      </trkpt>
      <trkpt lat="46.4299560" lon="6.9158230">
        <ele>378.5</ele>
        <time>2019-02-24T13:03:13Z</time>
      </trkpt>
      <trkpt lat="46.4299500" lon="6.9157790">
        <ele>378.6</ele>
        <time>2019-02-24T13:03:14Z</time>
      </trkpt>
      <trkpt lat="46.4299400" lon="6.9157370">
        <ele>378.6</ele>
        <time>2019-02-24T13:03:15Z</time>
      </trkpt>
      <trkpt lat="46.4299270" lon="6.9156960">
        <ele>378.6</ele>
        <time>2019-02-24T13:03:16Z</time>
      </trkpt>
      <trkpt lat="46.4299130" lon="6.9156560">
        <ele>378.6</ele>
        <time>2019-02-24T13:03:17Z</time>
      </trkpt>
      <trkpt lat="46.4298970" lon="6.9156190">
        <ele>378.6</ele>
        <time>2019-02-24T13:03:18Z</time>
      </trkpt>
      <trkpt lat="46.4298810" lon="6.9155830">
        <ele>378.6</ele>
        <time>2019-02-24T13:03:19Z</time>
      </trkpt>
      <trkpt lat="46.4298640" lon="6.9155480">
        <ele>378.6</ele>
        <time>2019-02-24T13:03:20Z</time>
      </trkpt>
      <trkpt lat="46.4298490" lon="6.9155140">
        <ele>378.6</ele>
        <time>2019-02-24T13:03:21Z</time>
      </trkpt>
      <trkpt lat="46.4298340" lon="6.9154800">
        <ele>378.6</ele>
        <time>2019-02-24T13:03:22Z</time>
      </trkpt>
      <trkpt lat="46.4298210" lon="6.9154470">
        <ele>378.6</ele>
        <time>2019-02-24T13:03:23Z</time>
      </trkpt>
      <trkpt lat="46.4298090" lon="6.9154170">
        <ele>378.6</ele>
        <time>2019-02-24T13:03:24Z</time>
      </trkpt>
      <trkpt lat="46.4297980" lon="6.9153940">
        <ele>378.6</ele>
        <time>2019-02-24T13:03:25Z</time>
      </trkpt>
      <trkpt lat="46.4297850" lon="6.9153740">
        <ele>378.6</ele>
        <time>2019-02-24T13:03:26Z</time>
      </trkpt>
      <trkpt lat="46.4297670" lon="6.9153530">
        <ele>378.6</ele>
        <time>2019-02-24T13:03:27Z</time>
      </trkpt>
      <trkpt lat="46.4297470" lon="6.9153280">
        <ele>378.6</ele>
        <time>2019-02-24T13:03:28Z</time>
      </trkpt>
      <trkpt lat="46.4297280" lon="6.9152960">
        <ele>378.6</ele>
        <time>2019-02-24T13:03:29Z</time>
      </trkpt>
      <trkpt lat="46.4297090" lon="6.9152570">
        <ele>378.6</ele>
        <time>2019-02-24T13:03:30Z</time>
      </trkpt>
      <trkpt lat="46.4296890" lon="6.9152150">
        <ele>378.6</ele>
        <time>2019-02-24T13:03:31Z</time>
      </trkpt>
      <trkpt lat="46.4296690" lon="6.9151720">
        <ele>378.6</ele>
        <time>2019-02-24T13:03:32Z</time>
      </trkpt>
      <trkpt lat="46.4296480" lon="6.9151290">
        <ele>378.6</ele>
        <time>2019-02-24T13:03:33Z</time>
      </trkpt>
      <trkpt lat="46.4296260" lon="6.9150880">
        <ele>378.6</ele>
        <time>2019-02-24T13:03:34Z</time>
      </trkpt>
      <trkpt lat="46.4296020" lon="6.9150520">
        <ele>378.6</ele>
        <time>2019-02-24T13:03:35Z</time>
      </trkpt>
      <trkpt lat="46.4295780" lon="6.9150200">
        <ele>378.6</ele>
        <time>2019-02-24T13:03:36Z</time>
      </trkpt>
      <trkpt lat="46.4295540" lon="6.9149900">
        <ele>378.6</ele>
        <time>2019-02-24T13:03:37Z</time>
      </trkpt>
      <trkpt lat="46.4295310" lon="6.9149630">
        <ele>378.6</ele>
        <time>2019-02-24T13:03:38Z</time>
      </trkpt>
      <trkpt lat="46.4295090" lon="6.9149370">
        <ele>378.5</ele>
        <time>2019-02-24T13:03:39Z</time>
      </trkpt>
      <trkpt lat="46.4294890" lon="6.9149120">
        <ele>378.5</ele>
        <time>2019-02-24T13:03:40Z</time>
      </trkpt>
      <trkpt lat="46.4294680" lon="6.9148880">
        <ele>378.4</ele>
        <time>2019-02-24T13:03:41Z</time>
      </trkpt>
      <trkpt lat="46.4294470" lon="6.9148650">
        <ele>378.4</ele>
        <time>2019-02-24T13:03:42Z</time>
      </trkpt>
      <trkpt lat="46.4294230" lon="6.9148420">
        <ele>378.3</ele>
        <time>2019-02-24T13:03:43Z</time>
      </trkpt>
      <trkpt lat="46.4293990" lon="6.9148190">
        <ele>378.2</ele>
        <time>2019-02-24T13:03:44Z</time>
      </trkpt>
      <trkpt lat="46.4293740" lon="6.9147940">
        <ele>378.0</ele>
        <time>2019-02-24T13:03:45Z</time>
      </trkpt>
      <trkpt lat="46.4293490" lon="6.9147660">
        <ele>377.9</ele>
        <time>2019-02-24T13:03:46Z</time>
      </trkpt>
      <trkpt lat="46.4293260" lon="6.9147330">
        <ele>377.7</ele>
        <time>2019-02-24T13:03:47Z</time>
      </trkpt>
      <trkpt lat="46.4293050" lon="6.9146970">
        <ele>377.5</ele>
        <time>2019-02-24T13:03:48Z</time>
      </trkpt>
      <trkpt lat="46.4292850" lon="6.9146580">
        <ele>377.2</ele>
        <time>2019-02-24T13:03:49Z</time>
      </trkpt>
      <trkpt lat="46.4292660" lon="6.9146190">
        <ele>377.0</ele>
        <time>2019-02-24T13:03:50Z</time>
      </trkpt>
      <trkpt lat="46.4292490" lon="6.9145790">
        <ele>376.8</ele>
        <time>2019-02-24T13:03:51Z</time>
      </trkpt>
      <trkpt lat="46.4292330" lon="6.9145390">
        <ele>376.5</ele>
        <time>2019-02-24T13:03:52Z</time>
      </trkpt>
      <trkpt lat="46.4292170" lon="6.9144990">
        <ele>376.3</ele>
        <time>2019-02-24T13:03:53Z</time>
      </trkpt>
      <trkpt lat="46.4292010" lon="6.9144590">
        <ele>376.0</ele>
        <time>2019-02-24T13:03:54Z</time>
      </trkpt>
      <trkpt lat="46.4291840" lon="6.9144180">
        <ele>375.8</ele>
        <time>2019-02-24T13:03:55Z</time>
      </trkpt>
      <trkpt lat="46.4291660" lon="6.9143770">
        <ele>375.6</ele>
        <time>2019-02-24T13:03:56Z</time>
      </trkpt>
      <trkpt lat="46.4291480" lon="6.9143340">
        <ele>375.3</ele>
        <time>2019-02-24T13:03:57Z</time>
      </trkpt>
      <trkpt lat="46.4291300" lon="6.9142890">
        <ele>375.1</ele>
        <time>2019-02-24T13:03:58Z</time>
      </trkpt>
      <trkpt lat="46.4291110" lon="6.9142400">
        <ele>374.8</ele>
        <time>2019-02-24T13:03:59Z</time>
      </trkpt>
      <trkpt lat="46.4290920" lon="6.9141890">
        <ele>374.6</ele>
        <time>2019-02-24T13:04:00Z</time>
      </trkpt>
      <trkpt lat="46.4290730" lon="6.9141370">
        <ele>374.3</ele>
        <time>2019-02-24T13:04:01Z</time>
      </trkpt>
      <trkpt lat="46.4290540" lon="6.9140830">
        <ele>374.1</ele>
        <time>2019-02-24T13:04:02Z</time>
      </trkpt>
      <trkpt lat="46.4290350" lon="6.9140300">
        <ele>373.9</ele>
        <time>2019-02-24T13:04:03Z</time>
      </trkpt>
      <trkpt lat="46.4290170" lon="6.9139770">
        <ele>373.7</ele>
        <time>2019-02-24T13:04:04Z</time>
      </trkpt>
      <trkpt lat="46.4290010" lon="6.9139250">
        <ele>373.5</ele>
        <time>2019-02-24T13:04:05Z</time>
      </trkpt>
      <trkpt lat="46.4289860" lon="6.9138760">
        <ele>373.4</ele>
        <time>2019-02-24T13:04:06Z</time>
      </trkpt>
      <trkpt lat="46.4289740" lon="6.9138300">
        <ele>373.3</ele>
        <time>2019-02-24T13:04:07Z</time>
      </trkpt>
      <trkpt lat="46.4289650" lon="6.9137870">
        <ele>373.2</ele>
        <time>2019-02-24T13:04:08Z</time>
      </trkpt>
      <trkpt lat="46.4289580" lon="6.9137470">
        <ele>373.1</ele>
        <time>2019-02-24T13:04:09Z</time>
      </trkpt>
      <trkpt lat="46.4289520" lon="6.9137100">
        <ele>373.0</ele>
        <time>2019-02-24T13:04:10Z</time>
      </trkpt>
      <trkpt lat="46.4289460" lon="6.9136760">
        <ele>372.9</ele>
        <time>2019-02-24T13:04:11Z</time>
      </trkpt>
      <trkpt lat="46.4289390" lon="6.9136440">
        <ele>372.9</ele>
        <time>2019-02-24T13:04:12Z</time>
      </trkpt>
      <trkpt lat="46.4289310" lon="6.9136140">
        <ele>372.8</ele>
        <time>2019-02-24T13:04:13Z</time>
      </trkpt>
      <trkpt lat="46.4289240" lon="6.9135830">
        <ele>372.7</ele>
        <time>2019-02-24T13:04:14Z</time>
      </trkpt>
      <trkpt lat="46.4289170" lon="6.9135510">
        <ele>372.6</ele>
        <time>2019-02-24T13:04:15Z</time>
      </trkpt>
      <trkpt lat="46.4289120" lon="6.9135170">
        <ele>372.6</ele>
        <time>2019-02-24T13:04:16Z</time>
      </trkpt>
      <trkpt lat="46.4289080" lon="6.9134810">
        <ele>372.5</ele>
        <time>2019-02-24T13:04:17Z</time>
      </trkpt>
      <trkpt lat="46.4289060" lon="6.9134440">
        <ele>372.5</ele>
        <time>2019-02-24T13:04:18Z</time>
      </trkpt>
      <trkpt lat="46.4289060" lon="6.9134070">
        <ele>372.4</ele>
        <time>2019-02-24T13:04:19Z</time>
      </trkpt>
      <trkpt lat="46.4289070" lon="6.9133680">
        <ele>372.4</ele>
        <time>2019-02-24T13:04:20Z</time>
      </trkpt>
      <trkpt lat="46.4289100" lon="6.9133300">
        <ele>372.4</ele>
        <time>2019-02-24T13:04:21Z</time>
      </trkpt>
      <trkpt lat="46.4289140" lon="6.9132900">
        <ele>372.3</ele>
        <time>2019-02-24T13:04:22Z</time>
      </trkpt>
      <trkpt lat="46.4289190" lon="6.9132500">
        <ele>372.3</ele>
        <time>2019-02-24T13:04:23Z</time>
      </trkpt>
      <trkpt lat="46.4289240" lon="6.9132080">
        <ele>372.2</ele>
        <time>2019-02-24T13:04:24Z</time>
      </trkpt>
      <trkpt lat="46.4289270" lon="6.9131640">
        <ele>372.2</ele>
        <time>2019-02-24T13:04:25Z</time>
      </trkpt>
      <trkpt lat="46.4289300" lon="6.9131190">
        <ele>372.2</ele>
        <time>2019-02-24T13:04:26Z</time>
      </trkpt>
      <trkpt lat="46.4289310" lon="6.9130710">
        <ele>372.2</ele>
        <time>2019-02-24T13:04:27Z</time>
      </trkpt>
      <trkpt lat="46.4289310" lon="6.9130210">
        <ele>372.2</ele>
        <time>2019-02-24T13:04:28Z</time>
      </trkpt>
      <trkpt lat="46.4289280" lon="6.9129700">
        <ele>372.2</ele>
        <time>2019-02-24T13:04:29Z</time>
      </trkpt>
      <trkpt lat="46.4289240" lon="6.9129160">
        <ele>372.1</ele>
        <time>2019-02-24T13:04:30Z</time>
      </trkpt>
      <trkpt lat="46.4289180" lon="6.9128600">
        <ele>372.1</ele>
        <time>2019-02-24T13:04:31Z</time>
      </trkpt>
      <trkpt lat="46.4289120" lon="6.9128040">
        <ele>372.0</ele>
        <time>2019-02-24T13:04:32Z</time>
      </trkpt>
      <trkpt lat="46.4289040" lon="6.9127460">
        <ele>372.0</ele>
        <time>2019-02-24T13:04:33Z</time>
      </trkpt>
      <trkpt lat="46.4288970" lon="6.9126880">
        <ele>372.0</ele>
        <time>2019-02-24T13:04:34Z</time>
      </trkpt>
      <trkpt lat="46.4288900" lon="6.9126290">
        <ele>371.9</ele>
        <time>2019-02-24T13:04:35Z</time>
      </trkpt>
      <trkpt lat="46.4288820" lon="6.9125700">
        <ele>371.9</ele>
        <time>2019-02-24T13:04:36Z</time>
      </trkpt>
      <trkpt lat="46.4288760" lon="6.9125110">
        <ele>371.9</ele>
        <time>2019-02-24T13:04:37Z</time>
      </trkpt>
      <trkpt lat="46.4288700" lon="6.9124520">
        <ele>371.8</ele>
        <time>2019-02-24T13:04:38Z</time>
      </trkpt>
      <trkpt lat="46.4288670" lon="6.9123930">
        <ele>371.8</ele>
        <time>2019-02-24T13:04:39Z</time>
      </trkpt>
      <trkpt lat="46.4288650" lon="6.9123330">
        <ele>371.8</ele>
        <time>2019-02-24T13:04:40Z</time>
      </trkpt>
      <trkpt lat="46.4288650" lon="6.9122750">
        <ele>371.7</ele>
        <time>2019-02-24T13:04:41Z</time>
      </trkpt>
      <trkpt lat="46.4288680" lon="6.9122160">
        <ele>371.7</ele>
        <time>2019-02-24T13:04:42Z</time>
      </trkpt>
      <trkpt lat="46.4288750" lon="6.9121580">
        <ele>371.7</ele>
        <time>2019-02-24T13:04:43Z</time>
      </trkpt>
      <trkpt lat="46.4288840" lon="6.9121000">
        <ele>371.7</ele>
        <time>2019-02-24T13:04:44Z</time>
      </trkpt>
      <trkpt lat="46.4288970" lon="6.9120440">
        <ele>371.6</ele>
        <time>2019-02-24T13:04:45Z</time>
      </trkpt>
      <trkpt lat="46.4289110" lon="6.9119890">
        <ele>371.6</ele>
        <time>2019-02-24T13:04:46Z</time>
      </trkpt>
      <trkpt lat="46.4289270" lon="6.9119380">
        <ele>371.6</ele>
        <time>2019-02-24T13:04:47Z</time>
      </trkpt>
      <trkpt lat="46.4289430" lon="6.9118890">
        <ele>371.6</ele>
        <time>2019-02-24T13:04:48Z</time>
      </trkpt>
      <trkpt lat="46.4289590" lon="6.9118450">
        <ele>371.6</ele>
        <time>2019-02-24T13:04:49Z</time>
      </trkpt>
      <trkpt lat="46.4289730" lon="6.9118050">
        <ele>371.6</ele>
        <time>2019-02-24T13:04:50Z</time>
      </trkpt>
      <trkpt lat="46.4289850" lon="6.9117720">
        <ele>371.6</ele>
        <time>2019-02-24T13:04:51Z</time>
      </trkpt>
      <trkpt lat="46.4289950" lon="6.9117440">
        <ele>371.6</ele>
        <time>2019-02-24T13:04:52Z</time>
      </trkpt>
      <trkpt lat="46.4290070" lon="6.9117090">
        <ele>371.6</ele>
        <time>2019-02-24T13:04:53Z</time>
      </trkpt>
      <trkpt lat="46.4290100" lon="6.9116970">
        <ele>371.6</ele>
        <time>2019-02-24T13:04:54Z</time>
      </trkpt>
      <trkpt lat="46.4290140" lon="6.9116850">
        <ele>371.6</ele>
        <time>2019-02-24T13:04:55Z</time>
      </trkpt>
      <trkpt lat="46.4290190" lon="6.9116690">
        <ele>371.6</ele>
        <time>2019-02-24T13:04:56Z</time>
      </trkpt>
      <trkpt lat="46.4290250" lon="6.9116530">
        <ele>371.6</ele>
        <time>2019-02-24T13:04:57Z</time>
      </trkpt>
      <trkpt lat="46.4290310" lon="6.9116350">
        <ele>371.6</ele>
        <time>2019-02-24T13:04:58Z</time>
      </trkpt>
      <trkpt lat="46.4290400" lon="6.9116150">
        <ele>371.6</ele>
        <time>2019-02-24T13:04:59Z</time>
      </trkpt>
      <trkpt lat="46.4290510" lon="6.9115900">
        <ele>371.6</ele>
        <time>2019-02-24T13:05:00Z</time>
      </trkpt>
      <trkpt lat="46.4290640" lon="6.9115620">
        <ele>371.6</ele>
        <time>2019-02-24T13:05:01Z</time>
      </trkpt>
      <trkpt lat="46.4290770" lon="6.9115340">
        <ele>371.6</ele>
        <time>2019-02-24T13:05:02Z</time>
      </trkpt>
      <trkpt lat="46.4290920" lon="6.9115050">
        <ele>371.5</ele>
        <time>2019-02-24T13:05:03Z</time>
      </trkpt>
      <trkpt lat="46.4291060" lon="6.9114780">
        <ele>371.5</ele>
        <time>2019-02-24T13:05:04Z</time>
      </trkpt>
      <trkpt lat="46.4291200" lon="6.9114520">
        <ele>371.5</ele>
        <time>2019-02-24T13:05:05Z</time>
      </trkpt>
      <trkpt lat="46.4291340" lon="6.9114300">
        <ele>371.4</ele>
        <time>2019-02-24T13:05:06Z</time>
      </trkpt>
      <trkpt lat="46.4291470" lon="6.9114100">
        <ele>371.4</ele>
        <time>2019-02-24T13:05:07Z</time>
      </trkpt>
      <trkpt lat="46.4291600" lon="6.9113930">
        <ele>371.4</ele>
        <time>2019-02-24T13:05:08Z</time>
      </trkpt>
      <trkpt lat="46.4291730" lon="6.9113770">
        <ele>371.4</ele>
        <time>2019-02-24T13:05:09Z</time>
      </trkpt>
      <trkpt lat="46.4291860" lon="6.9113590">
        <ele>371.4</ele>
        <time>2019-02-24T13:05:10Z</time>
      </trkpt>
      <trkpt lat="46.4291990" lon="6.9113350">
        <ele>371.4</ele>
        <time>2019-02-24T13:05:11Z</time>
      </trkpt>
      <trkpt lat="46.4292130" lon="6.9113050">
        <ele>371.4</ele>
        <time>2019-02-24T13:05:12Z</time>
      </trkpt>
      <trkpt lat="46.4292270" lon="6.9112680">
        <ele>371.4</ele>
        <time>2019-02-24T13:05:13Z</time>
      </trkpt>
      <trkpt lat="46.4292410" lon="6.9112270">
        <ele>371.4</ele>
        <time>2019-02-24T13:05:14Z</time>
      </trkpt>
      <trkpt lat="46.4292690" lon="6.9111540">
        <ele>371.4</ele>
        <time>2019-02-24T13:05:15Z</time>
      </trkpt>
      <trkpt lat="46.4292800" lon="6.9111250">
        <ele>371.3</ele>
        <time>2019-02-24T13:05:16Z</time>
      </trkpt>
      <trkpt lat="46.4292920" lon="6.9110950">
        <ele>371.3</ele>
        <time>2019-02-24T13:05:17Z</time>
      </trkpt>
      <trkpt lat="46.4293120" lon="6.9110510">
        <ele>371.3</ele>
        <time>2019-02-24T13:05:18Z</time>
      </trkpt>
      <trkpt lat="46.4293340" lon="6.9110080">
        <ele>371.3</ele>
        <time>2019-02-24T13:05:19Z</time>
      </trkpt>
      <trkpt lat="46.4293590" lon="6.9109660">
        <ele>371.3</ele>
        <time>2019-02-24T13:05:20Z</time>
      </trkpt>
      <trkpt lat="46.4293850" lon="6.9109260">
        <ele>371.2</ele>
        <time>2019-02-24T13:05:21Z</time>
      </trkpt>
      <trkpt lat="46.4294130" lon="6.9108860">
        <ele>371.2</ele>
        <time>2019-02-24T13:05:22Z</time>
      </trkpt>
      <trkpt lat="46.4294420" lon="6.9108460">
        <ele>371.2</ele>
        <time>2019-02-24T13:05:23Z</time>
      </trkpt>
      <trkpt lat="46.4294710" lon="6.9108060">
        <ele>371.1</ele>
        <time>2019-02-24T13:05:24Z</time>
      </trkpt>
      <trkpt lat="46.4295000" lon="6.9107650">
        <ele>371.0</ele>
        <time>2019-02-24T13:05:25Z</time>
      </trkpt>
      <trkpt lat="46.4295280" lon="6.9107250">
        <ele>371.0</ele>
        <time>2019-02-24T13:05:26Z</time>
      </trkpt>
      <trkpt lat="46.4295570" lon="6.9106850">
        <ele>370.9</ele>
        <time>2019-02-24T13:05:27Z</time>
      </trkpt>
      <trkpt lat="46.4295840" lon="6.9106440">
        <ele>370.7</ele>
        <time>2019-02-24T13:05:28Z</time>
      </trkpt>
      <trkpt lat="46.4296110" lon="6.9106050">
        <ele>370.6</ele>
        <time>2019-02-24T13:05:29Z</time>
      </trkpt>
      <trkpt lat="46.4296360" lon="6.9105650">
        <ele>370.7</ele>
        <time>2019-02-24T13:05:30Z</time>
      </trkpt>
      <trkpt lat="46.4296610" lon="6.9105270">
        <ele>370.8</ele>
        <time>2019-02-24T13:05:31Z</time>
      </trkpt>
      <trkpt lat="46.4296840" lon="6.9104890">
        <ele>370.9</ele>
        <time>2019-02-24T13:05:32Z</time>
      </trkpt>
      <trkpt lat="46.4297060" lon="6.9104520">
        <ele>370.9</ele>
        <time>2019-02-24T13:05:33Z</time>
      </trkpt>
      <trkpt lat="46.4297270" lon="6.9104160">
        <ele>371.0</ele>
        <time>2019-02-24T13:05:34Z</time>
      </trkpt>
      <trkpt lat="46.4297480" lon="6.9103810">
        <ele>371.1</ele>
        <time>2019-02-24T13:05:35Z</time>
      </trkpt>
      <trkpt lat="46.4297690" lon="6.9103470">
        <ele>371.1</ele>
        <time>2019-02-24T13:05:36Z</time>
      </trkpt>
      <trkpt lat="46.4297900" lon="6.9103130">
        <ele>371.1</ele>
        <time>2019-02-24T13:05:37Z</time>
      </trkpt>
      <trkpt lat="46.4298120" lon="6.9102810">
        <ele>371.2</ele>
        <time>2019-02-24T13:05:38Z</time>
      </trkpt>
      <trkpt lat="46.4298340" lon="6.9102490">
        <ele>371.2</ele>
        <time>2019-02-24T13:05:39Z</time>
      </trkpt>
      <trkpt lat="46.4298570" lon="6.9102190">
        <ele>371.2</ele>
        <time>2019-02-24T13:05:40Z</time>
      </trkpt>
      <trkpt lat="46.4298820" lon="6.9101890">
        <ele>371.2</ele>
        <time>2019-02-24T13:05:41Z</time>
      </trkpt>
      <trkpt lat="46.4299060" lon="6.9101590">
        <ele>371.2</ele>
        <time>2019-02-24T13:05:42Z</time>
      </trkpt>
      <trkpt lat="46.4299310" lon="6.9101290">
        <ele>371.2</ele>
        <time>2019-02-24T13:05:43Z</time>
      </trkpt>
      <trkpt lat="46.4299560" lon="6.9101000">
        <ele>371.2</ele>
        <time>2019-02-24T13:05:44Z</time>
      </trkpt>
      <trkpt lat="46.4299800" lon="6.9100700">
        <ele>371.2</ele>
        <time>2019-02-24T13:05:45Z</time>
      </trkpt>
      <trkpt lat="46.4300040" lon="6.9100390">
        <ele>371.2</ele>
        <time>2019-02-24T13:05:46Z</time>
      </trkpt>
      <trkpt lat="46.4300260" lon="6.9100070">
        <ele>371.1</ele>
        <time>2019-02-24T13:05:47Z</time>
      </trkpt>
      <trkpt lat="46.4300470" lon="6.9099740">
        <ele>371.1</ele>
        <time>2019-02-24T13:05:48Z</time>
      </trkpt>
      <trkpt lat="46.4300670" lon="6.9099400">
        <ele>371.1</ele>
        <time>2019-02-24T13:05:49Z</time>
      </trkpt>
      <trkpt lat="46.4300860" lon="6.9099050">
        <ele>371.0</ele>
        <time>2019-02-24T13:05:50Z</time>
      </trkpt>
      <trkpt lat="46.4301040" lon="6.9098690">
        <ele>371.0</ele>
        <time>2019-02-24T13:05:51Z</time>
      </trkpt>
      <trkpt lat="46.4301230" lon="6.9098320">
        <ele>370.9</ele>
        <time>2019-02-24T13:05:52Z</time>
      </trkpt>
      <trkpt lat="46.4301420" lon="6.9097950">
        <ele>370.9</ele>
        <time>2019-02-24T13:05:53Z</time>
      </trkpt>
      <trkpt lat="46.4301620" lon="6.9097560">
        <ele>370.8</ele>
        <time>2019-02-24T13:05:54Z</time>
      </trkpt>
      <trkpt lat="46.4301840" lon="6.9097170">
        <ele>370.7</ele>
        <time>2019-02-24T13:05:55Z</time>
      </trkpt>
      <trkpt lat="46.4302060" lon="6.9096780">
        <ele>370.5</ele>
        <time>2019-02-24T13:05:56Z</time>
      </trkpt>
      <trkpt lat="46.4302300" lon="6.9096390">
        <ele>370.4</ele>
        <time>2019-02-24T13:05:57Z</time>
      </trkpt>
      <trkpt lat="46.4302540" lon="6.9096000">
        <ele>370.3</ele>
        <time>2019-02-24T13:05:58Z</time>
      </trkpt>
      <trkpt lat="46.4302770" lon="6.9095630">
        <ele>370.3</ele>
        <time>2019-02-24T13:05:59Z</time>
      </trkpt>
      <trkpt lat="46.4303010" lon="6.9095280">
        <ele>370.2</ele>
        <time>2019-02-24T13:06:00Z</time>
      </trkpt>
      <trkpt lat="46.4303230" lon="6.9094950">
        <ele>370.2</ele>
        <time>2019-02-24T13:06:01Z</time>
      </trkpt>
      <trkpt lat="46.4303430" lon="6.9094660">
        <ele>370.2</ele>
        <time>2019-02-24T13:06:02Z</time>
      </trkpt>
      <trkpt lat="46.4303610" lon="6.9094410">
        <ele>370.2</ele>
        <time>2019-02-24T13:06:03Z</time>
      </trkpt>
      <trkpt lat="46.4303770" lon="6.9094200">
        <ele>370.2</ele>
        <time>2019-02-24T13:06:04Z</time>
      </trkpt>
      <trkpt lat="46.4303900" lon="6.9094030">
        <ele>370.3</ele>
        <time>2019-02-24T13:06:05Z</time>
      </trkpt>
      <trkpt lat="46.4304010" lon="6.9093880">
        <ele>370.3</ele>
        <time>2019-02-24T13:06:06Z</time>
      </trkpt>
      <trkpt lat="46.4304180" lon="6.9093650">
        <ele>370.3</ele>
        <time>2019-02-24T13:06:07Z</time>
      </trkpt>
      <trkpt lat="46.4304250" lon="6.9093550">
        <ele>370.3</ele>
        <time>2019-02-24T13:06:08Z</time>
      </trkpt>
      <trkpt lat="46.4304320" lon="6.9093450">
        <ele>370.4</ele>
        <time>2019-02-24T13:06:09Z</time>
      </trkpt>
      <trkpt lat="46.4304390" lon="6.9093350">
        <ele>370.4</ele>
        <time>2019-02-24T13:06:10Z</time>
      </trkpt>
      <trkpt lat="46.4304500" lon="6.9093180">
        <ele>370.4</ele>
        <time>2019-02-24T13:06:11Z</time>
      </trkpt>
      <trkpt lat="46.4304610" lon="6.9092980">
        <ele>370.5</ele>
        <time>2019-02-24T13:06:12Z</time>
      </trkpt>
      <trkpt lat="46.4304740" lon="6.9092760">
        <ele>370.5</ele>
        <time>2019-02-24T13:06:13Z</time>
      </trkpt>
      <trkpt lat="46.4304880" lon="6.9092510">
        <ele>370.6</ele>
        <time>2019-02-24T13:06:14Z</time>
      </trkpt>
      <trkpt lat="46.4305020" lon="6.9092260">
        <ele>370.6</ele>
        <time>2019-02-24T13:06:15Z</time>
      </trkpt>
      <trkpt lat="46.4305170" lon="6.9091990">
        <ele>370.6</ele>
        <time>2019-02-24T13:06:16Z</time>
      </trkpt>
      <trkpt lat="46.4305330" lon="6.9091740">
        <ele>370.6</ele>
        <time>2019-02-24T13:06:17Z</time>
      </trkpt>
      <trkpt lat="46.4305490" lon="6.9091480">
        <ele>370.7</ele>
        <time>2019-02-24T13:06:18Z</time>
      </trkpt>
      <trkpt lat="46.4305670" lon="6.9091230">
        <ele>370.7</ele>
        <time>2019-02-24T13:06:19Z</time>
      </trkpt>
      <trkpt lat="46.4305850" lon="6.9090980">
        <ele>370.7</ele>
        <time>2019-02-24T13:06:20Z</time>
      </trkpt>
      <trkpt lat="46.4306050" lon="6.9090740">
        <ele>370.7</ele>
        <time>2019-02-24T13:06:21Z</time>
      </trkpt>
      <trkpt lat="46.4306250" lon="6.9090510">
        <ele>370.7</ele>
        <time>2019-02-24T13:06:22Z</time>
      </trkpt>
      <trkpt lat="46.4306470" lon="6.9090280">
        <ele>370.7</ele>
        <time>2019-02-24T13:06:23Z</time>
      </trkpt>
      <trkpt lat="46.4306700" lon="6.9090070">
        <ele>370.7</ele>
        <time>2019-02-24T13:06:24Z</time>
      </trkpt>
      <trkpt lat="46.4306940" lon="6.9089860">
        <ele>370.7</ele>
        <time>2019-02-24T13:06:25Z</time>
      </trkpt>
      <trkpt lat="46.4307200" lon="6.9089670">
        <ele>370.7</ele>
        <time>2019-02-24T13:06:26Z</time>
      </trkpt>
      <trkpt lat="46.4307460" lon="6.9089490">
        <ele>370.7</ele>
        <time>2019-02-24T13:06:27Z</time>
      </trkpt>
      <trkpt lat="46.4307730" lon="6.9089330">
        <ele>370.7</ele>
        <time>2019-02-24T13:06:28Z</time>
      </trkpt>
      <trkpt lat="46.4308010" lon="6.9089180">
        <ele>370.7</ele>
        <time>2019-02-24T13:06:29Z</time>
      </trkpt>
      <trkpt lat="46.4308290" lon="6.9089060">
        <ele>370.7</ele>
        <time>2019-02-24T13:06:30Z</time>
      </trkpt>
      <trkpt lat="46.4308580" lon="6.9088960">
        <ele>370.7</ele>
        <time>2019-02-24T13:06:31Z</time>
      </trkpt>
      <trkpt lat="46.4308870" lon="6.9088880">
        <ele>370.6</ele>
        <time>2019-02-24T13:06:32Z</time>
      </trkpt>
      <trkpt lat="46.4309150" lon="6.9088840">
        <ele>370.5</ele>
        <time>2019-02-24T13:06:33Z</time>
      </trkpt>
      <trkpt lat="46.4309440" lon="6.9088820">
        <ele>370.4</ele>
        <time>2019-02-24T13:06:34Z</time>
      </trkpt>
      <trkpt lat="46.4309710" lon="6.9088850">
        <ele>370.4</ele>
        <time>2019-02-24T13:06:35Z</time>
      </trkpt>
      <trkpt lat="46.4309980" lon="6.9088940">
        <ele>370.3</ele>
        <time>2019-02-24T13:06:36Z</time>
      </trkpt>
      <trkpt lat="46.4310240" lon="6.9089030">
        <ele>370.3</ele>
        <time>2019-02-24T13:06:37Z</time>
      </trkpt>
      <trkpt lat="46.4310490" lon="6.9089150">
        <ele>370.3</ele>
        <time>2019-02-24T13:06:38Z</time>
      </trkpt>
      <trkpt lat="46.4310730" lon="6.9089250">
        <ele>370.3</ele>
        <time>2019-02-24T13:06:39Z</time>
      </trkpt>
      <trkpt lat="46.4310980" lon="6.9089320">
        <ele>370.2</ele>
        <time>2019-02-24T13:06:40Z</time>
      </trkpt>
      <trkpt lat="46.4311230" lon="6.9089310">
        <ele>370.2</ele>
        <time>2019-02-24T13:06:41Z</time>
      </trkpt>
      <trkpt lat="46.4311480" lon="6.9089270">
        <ele>370.2</ele>
        <time>2019-02-24T13:06:42Z</time>
      </trkpt>
      <trkpt lat="46.4311730" lon="6.9089230">
        <ele>370.1</ele>
        <time>2019-02-24T13:06:43Z</time>
      </trkpt>
      <trkpt lat="46.4311980" lon="6.9089220">
        <ele>370.1</ele>
        <time>2019-02-24T13:06:44Z</time>
      </trkpt>
      <trkpt lat="46.4312220" lon="6.9089280">
        <ele>370.1</ele>
        <time>2019-02-24T13:06:45Z</time>
      </trkpt>
      <trkpt lat="46.4312460" lon="6.9089380">
        <ele>370.1</ele>
        <time>2019-02-24T13:06:46Z</time>
      </trkpt>
      <trkpt lat="46.4312690" lon="6.9089510">
        <ele>370.1</ele>
        <time>2019-02-24T13:06:47Z</time>
      </trkpt>
      <trkpt lat="46.4312910" lon="6.9089640">
        <ele>370.1</ele>
        <time>2019-02-24T13:06:48Z</time>
      </trkpt>
      <trkpt lat="46.4313130" lon="6.9089750">
        <ele>370.1</ele>
        <time>2019-02-24T13:06:49Z</time>
      </trkpt>
      <trkpt lat="46.4313350" lon="6.9089860">
        <ele>370.2</ele>
        <time>2019-02-24T13:06:50Z</time>
      </trkpt>
      <trkpt lat="46.4313590" lon="6.9089970">
        <ele>370.2</ele>
        <time>2019-02-24T13:06:51Z</time>
      </trkpt>
      <trkpt lat="46.4313860" lon="6.9090100">
        <ele>370.2</ele>
        <time>2019-02-24T13:06:52Z</time>
      </trkpt>
      <trkpt lat="46.4314170" lon="6.9090270">
        <ele>370.3</ele>
        <time>2019-02-24T13:06:53Z</time>
      </trkpt>
      <trkpt lat="46.4314510" lon="6.9090450">
        <ele>370.3</ele>
        <time>2019-02-24T13:06:54Z</time>
      </trkpt>
      <trkpt lat="46.4314860" lon="6.9090650">
        <ele>370.3</ele>
        <time>2019-02-24T13:06:55Z</time>
      </trkpt>
      <trkpt lat="46.4315180" lon="6.9090830">
        <ele>370.3</ele>
        <time>2019-02-24T13:06:56Z</time>
      </trkpt>
      <trkpt lat="46.4315480" lon="6.9090990">
        <ele>370.3</ele>
        <time>2019-02-24T13:06:57Z</time>
      </trkpt>
      <trkpt lat="46.4315730" lon="6.9091120">
        <ele>370.3</ele>
        <time>2019-02-24T13:06:58Z</time>
      </trkpt>
      <trkpt lat="46.4315960" lon="6.9091210">
        <ele>370.3</ele>
        <time>2019-02-24T13:06:59Z</time>
      </trkpt>
      <trkpt lat="46.4316160" lon="6.9091270">
        <ele>370.3</ele>
        <time>2019-02-24T13:07:00Z</time>
      </trkpt>
      <trkpt lat="46.4316340" lon="6.9091290">
        <ele>370.3</ele>
        <time>2019-02-24T13:07:01Z</time>
      </trkpt>
      <trkpt lat="46.4316510" lon="6.9091290">
        <ele>370.3</ele>
        <time>2019-02-24T13:07:02Z</time>
      </trkpt>
      <trkpt lat="46.4316680" lon="6.9091300">
        <ele>370.3</ele>
        <time>2019-02-24T13:07:03Z</time>
      </trkpt>
      <trkpt lat="46.4316860" lon="6.9091340">
        <ele>370.2</ele>
        <time>2019-02-24T13:07:04Z</time>
      </trkpt>
      <trkpt lat="46.4317040" lon="6.9091420">
        <ele>370.2</ele>
        <time>2019-02-24T13:07:05Z</time>
      </trkpt>
      <trkpt lat="46.4317250" lon="6.9091520">
        <ele>370.2</ele>
        <time>2019-02-24T13:07:06Z</time>
      </trkpt>
      <trkpt lat="46.4317480" lon="6.9091630">
        <ele>370.2</ele>
        <time>2019-02-24T13:07:07Z</time>
      </trkpt>
      <trkpt lat="46.4317740" lon="6.9091730">
        <ele>370.1</ele>
        <time>2019-02-24T13:07:08Z</time>
      </trkpt>
      <trkpt lat="46.4318020" lon="6.9091790">
        <ele>370.0</ele>
        <time>2019-02-24T13:07:09Z</time>
      </trkpt>
      <trkpt lat="46.4318330" lon="6.9091810">
        <ele>370.0</ele>
        <time>2019-02-24T13:07:10Z</time>
      </trkpt>
      <trkpt lat="46.4318630" lon="6.9091790">
        <ele>369.9</ele>
        <time>2019-02-24T13:07:11Z</time>
      </trkpt>
      <trkpt lat="46.4319040" lon="6.9091730">
        <ele>369.9</ele>
        <time>2019-02-24T13:07:12Z</time>
      </trkpt>
      <trkpt lat="46.4319160" lon="6.9091710">
        <ele>369.9</ele>
        <time>2019-02-24T13:07:13Z</time>
      </trkpt>
      <trkpt lat="46.4319350" lon="6.9091680">
        <ele>369.9</ele>
        <time>2019-02-24T13:07:14Z</time>
      </trkpt>
      <trkpt lat="46.4319520" lon="6.9091660">
        <ele>369.9</ele>
        <time>2019-02-24T13:07:15Z</time>
      </trkpt>
      <trkpt lat="46.4319650" lon="6.9091670">
        <ele>369.9</ele>
        <time>2019-02-24T13:07:16Z</time>
      </trkpt>
      <trkpt lat="46.4319760" lon="6.9091700">
        <ele>369.9</ele>
        <time>2019-02-24T13:07:17Z</time>
      </trkpt>
      <trkpt lat="46.4319850" lon="6.9091750">
        <ele>369.9</ele>
        <time>2019-02-24T13:07:18Z</time>
      </trkpt>
      <trkpt lat="46.4319930" lon="6.9091800">
        <ele>369.9</ele>
        <time>2019-02-24T13:07:19Z</time>
      </trkpt>
      <trkpt lat="46.4320010" lon="6.9091840">
        <ele>369.9</ele>
        <time>2019-02-24T13:07:20Z</time>
      </trkpt>
      <trkpt lat="46.4320090" lon="6.9091850">
        <ele>369.9</ele>
        <time>2019-02-24T13:07:21Z</time>
      </trkpt>
      <trkpt lat="46.4320180" lon="6.9091850">
        <ele>369.9</ele>
        <time>2019-02-24T13:07:22Z</time>
      </trkpt>
      <trkpt lat="46.4320270" lon="6.9091830">
        <ele>369.9</ele>
        <time>2019-02-24T13:07:23Z</time>
      </trkpt>
      <trkpt lat="46.4320390" lon="6.9091790">
        <ele>369.9</ele>
        <time>2019-02-24T13:07:24Z</time>
      </trkpt>
      <trkpt lat="46.4320520" lon="6.9091730">
        <ele>369.9</ele>
        <time>2019-02-24T13:07:25Z</time>
      </trkpt>
      <trkpt lat="46.4320660" lon="6.9091670">
        <ele>369.9</ele>
        <time>2019-02-24T13:07:26Z</time>
      </trkpt>
      <trkpt lat="46.4320790" lon="6.9091600">
        <ele>369.9</ele>
        <time>2019-02-24T13:07:27Z</time>
      </trkpt>
      <trkpt lat="46.4320890" lon="6.9091550">
        <ele>371.1</ele>
        <time>2019-02-24T13:07:28Z</time>
      </trkpt>
      <trkpt lat="46.4320950" lon="6.9091520">
        <ele>371.1</ele>
        <time>2019-02-24T13:07:29Z</time>
      </trkpt>
      <trkpt lat="46.4320990" lon="6.9091500">
        <ele>371.2</ele>
        <time>2019-02-24T13:07:30Z</time>
      </trkpt>
      <trkpt lat="46.4321000" lon="6.9091500">
        <ele>371.2</ele>
        <time>2019-02-24T13:07:31Z</time>
      </trkpt>
      <trkpt lat="46.4321000" lon="6.9091500">
        <ele>371.2</ele>
        <time>2019-02-24T13:07:32Z</time>
      </trkpt>
      <trkpt lat="46.4321000" lon="6.9091500">
        <ele>371.2</ele>
        <time>2019-02-24T13:07:33Z</time>
      </trkpt>
      <trkpt lat="46.4321000" lon="6.9091500">
        <ele>371.2</ele>
        <time>2019-02-24T13:07:34Z</time>
      </trkpt>
      <trkpt lat="46.4321000" lon="6.9091500">
        <ele>371.2</ele>
        <time>2019-02-24T13:07:35Z</time>
      </trkpt>
      <trkpt lat="46.4321000" lon="6.9091500">
        <ele>371.2</ele>
        <time>2019-02-24T13:07:36Z</time>
      </trkpt>
      <trkpt lat="46.4321000" lon="6.9091500">
        <ele>371.2</ele>
        <time>2019-02-24T13:07:37Z</time>
      </trkpt>
      <trkpt lat="46.4321000" lon="6.9091500">
        <ele>371.2</ele>
        <time>2019-02-24T13:07:38Z</time>
      </trkpt>
      <trkpt lat="46.4321000" lon="6.9091500">
        <ele>371.2</ele>
        <time>2019-02-24T13:07:39Z</time>
      </trkpt>
      <trkpt lat="46.4321000" lon="6.9091500">
        <ele>371.2</ele>
        <time>2019-02-24T13:07:40Z</time>
      </trkpt>
      <trkpt lat="46.4321000" lon="6.9091500">
        <ele>371.2</ele>
        <time>2019-02-24T13:07:41Z</time>
      </trkpt>
      <trkpt lat="46.4321000" lon="6.9091500">
        <ele>371.2</ele>
        <time>2019-02-24T13:07:42Z</time>
      </trkpt>
      <trkpt lat="46.4321000" lon="6.9091500">
        <ele>371.2</ele>
        <time>2019-02-24T13:07:43Z</time>
      </trkpt>
      <trkpt lat="46.4321000" lon="6.9091500">
        <ele>371.2</ele>
        <time>2019-02-24T13:07:44Z</time>
      </trkpt>
      <trkpt lat="46.4321000" lon="6.9091500">
        <ele>371.2</ele>
        <time>2019-02-24T13:07:45Z</time>
      </trkpt>
      <trkpt lat="46.4321000" lon="6.9091500">
        <ele>371.2</ele>
        <time>2019-02-24T13:07:46Z</time>
      </trkpt>
      <trkpt lat="46.4321000" lon="6.9091500">
        <ele>371.2</ele>
        <time>2019-02-24T13:07:47Z</time>
      </trkpt>
      <trkpt lat="46.4321000" lon="6.9091500">
        <ele>371.2</ele>
        <time>2019-02-24T13:07:48Z</time>
      </trkpt>
      <trkpt lat="46.4321000" lon="6.9091500">
        <ele>371.2</ele>
        <time>2019-02-24T13:07:49Z</time>
      </trkpt>
      <trkpt lat="46.4321000" lon="6.9091500">
        <ele>371.2</ele>
        <time>2019-02-24T13:07:50Z</time>
      </trkpt>
      <trkpt lat="46.4321000" lon="6.9091500">
        <ele>371.2</ele>
        <time>2019-02-24T13:07:51Z</time>
      </trkpt>
      <trkpt lat="46.4321000" lon="6.9091500">
        <ele>371.2</ele>
        <time>2019-02-24T13:07:52Z</time>
      </trkpt>
      <trkpt lat="46.4321000" lon="6.9091500">
        <ele>371.2</ele>
        <time>2019-02-24T13:07:53Z</time>
      </trkpt>
      <trkpt lat="46.4321000" lon="6.9091500">
        <ele>371.2</ele>
        <time>2019-02-24T13:07:54Z</time>
      </trkpt>
      <trkpt lat="46.4321000" lon="6.9091500">
        <ele>371.2</ele>
        <time>2019-02-24T13:07:55Z</time>
      </trkpt>
      <trkpt lat="46.4321000" lon="6.9091500">
        <ele>371.2</ele>
        <time>2019-02-24T13:07:56Z</time>
      </trkpt>
      <trkpt lat="46.4321000" lon="6.9091500">
        <ele>371.2</ele>
        <time>2019-02-24T13:07:57Z</time>
      </trkpt>
      <trkpt lat="46.4321000" lon="6.9091500">
        <ele>371.2</ele>
        <time>2019-02-24T13:07:58Z</time>
      </trkpt>
      <trkpt lat="46.4320990" lon="6.9091500">
        <ele>371.2</ele>
        <time>2019-02-24T13:07:59Z</time>
      </trkpt>
      <trkpt lat="46.4320980" lon="6.9091510">
        <ele>371.2</ele>
        <time>2019-02-24T13:08:00Z</time>
      </trkpt>
      <trkpt lat="46.4320970" lon="6.9091510">
        <ele>371.3</ele>
        <time>2019-02-24T13:08:01Z</time>
      </trkpt>
      <trkpt lat="46.4320970" lon="6.9091510">
        <ele>371.3</ele>
        <time>2019-02-24T13:08:02Z</time>
      </trkpt>
      <trkpt lat="46.4321010" lon="6.9091480">
        <ele>371.3</ele>
        <time>2019-02-24T13:08:03Z</time>
      </trkpt>
      <trkpt lat="46.4321060" lon="6.9091450">
        <ele>371.4</ele>
        <time>2019-02-24T13:08:04Z</time>
      </trkpt>
      <trkpt lat="46.4321100" lon="6.9091420">
        <ele>371.4</ele>
        <time>2019-02-24T13:08:05Z</time>
      </trkpt>
      <trkpt lat="46.4321130" lon="6.9091400">
        <ele>371.5</ele>
        <time>2019-02-24T13:08:06Z</time>
      </trkpt>
      <trkpt lat="46.4321150" lon="6.9091390">
        <ele>371.5</ele>
        <time>2019-02-24T13:08:07Z</time>
      </trkpt>
      <trkpt lat="46.4321170" lon="6.9091390">
        <ele>371.5</ele>
        <time>2019-02-24T13:08:08Z</time>
      </trkpt>
      <trkpt lat="46.4321170" lon="6.9091380">
        <ele>371.6</ele>
        <time>2019-02-24T13:08:09Z</time>
      </trkpt>
      <trkpt lat="46.4321170" lon="6.9091380">
        <ele>371.6</ele>
        <time>2019-02-24T13:08:10Z</time>
      </trkpt>
      <trkpt lat="46.4321170" lon="6.9091390">
        <ele>371.6</ele>
        <time>2019-02-24T13:08:11Z</time>
      </trkpt>
      <trkpt lat="46.4321170" lon="6.9091380">
        <ele>371.6</ele>
        <time>2019-02-24T13:08:12Z</time>
      </trkpt>
      <trkpt lat="46.4321180" lon="6.9091380">
        <ele>371.6</ele>
        <time>2019-02-24T13:08:13Z</time>
      </trkpt>
      <trkpt lat="46.4321180" lon="6.9091380">
        <ele>371.6</ele>
        <time>2019-02-24T13:08:14Z</time>
      </trkpt>
      <trkpt lat="46.4321170" lon="6.9091380">
        <ele>371.6</ele>
        <time>2019-02-24T13:08:15Z</time>
      </trkpt>
      <trkpt lat="46.4321150" lon="6.9091390">
        <ele>371.6</ele>
        <time>2019-02-24T13:08:16Z</time>
      </trkpt>
      <trkpt lat="46.4321120" lon="6.9091420">
        <ele>371.7</ele>
        <time>2019-02-24T13:08:17Z</time>
      </trkpt>
      <trkpt lat="46.4321070" lon="6.9091450">
        <ele>371.7</ele>
        <time>2019-02-24T13:08:18Z</time>
      </trkpt>
      <trkpt lat="46.4321020" lon="6.9091490">
        <ele>371.8</ele>
        <time>2019-02-24T13:08:19Z</time>
      </trkpt>
      <trkpt lat="46.4320980" lon="6.9091530">
        <ele>371.9</ele>
        <time>2019-02-24T13:08:20Z</time>
      </trkpt>
      <trkpt lat="46.4320940" lon="6.9091560">
        <ele>371.9</ele>
        <time>2019-02-24T13:08:21Z</time>
      </trkpt>
      <trkpt lat="46.4320910" lon="6.9091580">
        <ele>372.0</ele>
        <time>2019-02-24T13:08:22Z</time>
      </trkpt>
      <trkpt lat="46.4320890" lon="6.9091600">
        <ele>372.0</ele>
        <time>2019-02-24T13:08:23Z</time>
      </trkpt>
      <trkpt lat="46.4320870" lon="6.9091610">
        <ele>372.0</ele>
        <time>2019-02-24T13:08:24Z</time>
      </trkpt>
      <trkpt lat="46.4320860" lon="6.9091620">
        <ele>372.0</ele>
        <time>2019-02-24T13:08:25Z</time>
      </trkpt>
      <trkpt lat="46.4320850" lon="6.9091620">
        <ele>372.0</ele>
        <time>2019-02-24T13:08:26Z</time>
      </trkpt>
      <trkpt lat="46.4320850" lon="6.9091630">
        <ele>372.0</ele>
        <time>2019-02-24T13:08:27Z</time>
      </trkpt>
      <trkpt lat="46.4320850" lon="6.9091630">
        <ele>372.0</ele>
        <time>2019-02-24T13:08:28Z</time>
      </trkpt>
      <trkpt lat="46.4320850" lon="6.9091630">
        <ele>372.0</ele>
        <time>2019-02-24T13:08:29Z</time>
      </trkpt>
      <trkpt lat="46.4320850" lon="6.9091630">
        <ele>372.0</ele>
        <time>2019-02-24T13:08:30Z</time>
      </trkpt>
      <trkpt lat="46.4320850" lon="6.9091630">
        <ele>372.0</ele>
        <time>2019-02-24T13:08:31Z</time>
      </trkpt>
      <trkpt lat="46.4320850" lon="6.9091630">
        <ele>372.0</ele>
        <time>2019-02-24T13:08:32Z</time>
      </trkpt>
      <trkpt lat="46.4320850" lon="6.9091630">
        <ele>372.0</ele>
        <time>2019-02-24T13:08:33Z</time>
      </trkpt>
      <trkpt lat="46.4320850" lon="6.9091630">
        <ele>372.0</ele>
        <time>2019-02-24T13:08:34Z</time>
      </trkpt>
      <trkpt lat="46.4320850" lon="6.9091630">
        <ele>372.0</ele>
        <time>2019-02-24T13:08:35Z</time>
      </trkpt>
      <trkpt lat="46.4320850" lon="6.9091630">
        <ele>372.0</ele>
        <time>2019-02-24T13:08:36Z</time>
      </trkpt>
      <trkpt lat="46.4320850" lon="6.9091630">
        <ele>372.0</ele>
        <time>2019-02-24T13:08:37Z</time>
      </trkpt>
      <trkpt lat="46.4320850" lon="6.9091630">
        <ele>372.0</ele>
        <time>2019-02-24T13:08:38Z</time>
      </trkpt>
      <trkpt lat="46.4320850" lon="6.9091630">
        <ele>372.0</ele>
        <time>2019-02-24T13:08:39Z</time>
      </trkpt>
      <trkpt lat="46.4320850" lon="6.9091630">
        <ele>372.0</ele>
        <time>2019-02-24T13:08:40Z</time>
      </trkpt>
      <trkpt lat="46.4320850" lon="6.9091630">
        <ele>372.0</ele>
        <time>2019-02-24T13:08:41Z</time>
      </trkpt>
      <trkpt lat="46.4320850" lon="6.9091630">
        <ele>372.0</ele>
        <time>2019-02-24T13:08:42Z</time>
      </trkpt>
      <trkpt lat="46.4320850" lon="6.9091630">
        <ele>372.0</ele>
        <time>2019-02-24T13:08:43Z</time>
      </trkpt>
      <trkpt lat="46.4320850" lon="6.9091630">
        <ele>372.0</ele>
        <time>2019-02-24T13:08:44Z</time>
      </trkpt>
      <trkpt lat="46.4320850" lon="6.9091630">
        <ele>372.0</ele>
        <time>2019-02-24T13:08:45Z</time>
      </trkpt>
      <trkpt lat="46.4320850" lon="6.9091630">
        <ele>372.0</ele>
        <time>2019-02-24T13:08:46Z</time>
      </trkpt>
      <trkpt lat="46.4320850" lon="6.9091630">
        <ele>372.0</ele>
        <time>2019-02-24T13:08:47Z</time>
      </trkpt>
      <trkpt lat="46.4320850" lon="6.9091630">
        <ele>372.0</ele>
        <time>2019-02-24T13:08:48Z</time>
      </trkpt>
      <trkpt lat="46.4320850" lon="6.9091630">
        <ele>372.0</ele>
        <time>2019-02-24T13:08:49Z</time>
      </trkpt>
      <trkpt lat="46.4320850" lon="6.9091630">
        <ele>372.0</ele>
        <time>2019-02-24T13:08:50Z</time>
      </trkpt>
      <trkpt lat="46.4320850" lon="6.9091630">
        <ele>372.0</ele>
        <time>2019-02-24T13:08:51Z</time>
      </trkpt>
      <trkpt lat="46.4320850" lon="6.9091630">
        <ele>372.0</ele>
        <time>2019-02-24T13:08:52Z</time>
      </trkpt>
      <trkpt lat="46.4320850" lon="6.9091630">
        <ele>372.0</ele>
        <time>2019-02-24T13:08:53Z</time>
      </trkpt>
      <trkpt lat="46.4320850" lon="6.9091620">
        <ele>372.0</ele>
        <time>2019-02-24T13:08:54Z</time>
      </trkpt>
      <trkpt lat="46.4320850" lon="6.9091620">
        <ele>372.0</ele>
        <time>2019-02-24T13:08:55Z</time>
      </trkpt>
      <trkpt lat="46.4320850" lon="6.9091620">
        <ele>372.0</ele>
        <time>2019-02-24T13:08:56Z</time>
      </trkpt>
      <trkpt lat="46.4320840" lon="6.9091620">
        <ele>372.1</ele>
        <time>2019-02-24T13:08:57Z</time>
      </trkpt>
      <trkpt lat="46.4320840" lon="6.9091630">
        <ele>372.1</ele>
        <time>2019-02-24T13:08:58Z</time>
      </trkpt>
      <trkpt lat="46.4320840" lon="6.9091630">
        <ele>372.1</ele>
        <time>2019-02-24T13:08:59Z</time>
      </trkpt>
      <trkpt lat="46.4320840" lon="6.9091640">
        <ele>372.1</ele>
        <time>2019-02-24T13:09:00Z</time>
      </trkpt>
      <trkpt lat="46.4320830" lon="6.9091640">
        <ele>372.1</ele>
        <time>2019-02-24T13:09:01Z</time>
      </trkpt>
      <trkpt lat="46.4320830" lon="6.9091660">
        <ele>372.1</ele>
        <time>2019-02-24T13:09:02Z</time>
      </trkpt>
      <trkpt lat="46.4320820" lon="6.9091670">
        <ele>372.1</ele>
        <time>2019-02-24T13:09:03Z</time>
      </trkpt>
      <trkpt lat="46.4320820" lon="6.9091690">
        <ele>372.1</ele>
        <time>2019-02-24T13:09:04Z</time>
      </trkpt>
      <trkpt lat="46.4320810" lon="6.9091710">
        <ele>372.1</ele>
        <time>2019-02-24T13:09:05Z</time>
      </trkpt>
      <trkpt lat="46.4320800" lon="6.9091740">
        <ele>372.2</ele>
        <time>2019-02-24T13:09:06Z</time>
      </trkpt>
      <trkpt lat="46.4320790" lon="6.9091770">
        <ele>372.2</ele>
        <time>2019-02-24T13:09:07Z</time>
      </trkpt>
      <trkpt lat="46.4320790" lon="6.9091810">
        <ele>372.2</ele>
        <time>2019-02-24T13:09:08Z</time>
      </trkpt>
      <trkpt lat="46.4320770" lon="6.9091850">
        <ele>372.3</ele>
        <time>2019-02-24T13:09:09Z</time>
      </trkpt>
      <trkpt lat="46.4320760" lon="6.9091900">
        <ele>372.3</ele>
        <time>2019-02-24T13:09:10Z</time>
      </trkpt>
      <trkpt lat="46.4320750" lon="6.9091940">
        <ele>372.3</ele>
        <time>2019-02-24T13:09:11Z</time>
      </trkpt>
      <trkpt lat="46.4320740" lon="6.9091980">
        <ele>372.4</ele>
        <time>2019-02-24T13:09:12Z</time>
      </trkpt>
      <trkpt lat="46.4320730" lon="6.9091990">
        <ele>372.4</ele>
        <time>2019-02-24T13:09:13Z</time>
      </trkpt>
      <trkpt lat="46.4320720" lon="6.9091980">
        <ele>372.4</ele>
        <time>2019-02-24T13:09:14Z</time>
      </trkpt>
      <trkpt lat="46.4320710" lon="6.9091960">
        <ele>372.4</ele>
        <time>2019-02-24T13:09:15Z</time>
      </trkpt>
      <trkpt lat="46.4320710" lon="6.9091960">
        <ele>372.4</ele>
        <time>2019-02-24T13:09:16Z</time>
      </trkpt>
      <trkpt lat="46.4320720" lon="6.9092010">
        <ele>372.5</ele>
        <time>2019-02-24T13:09:17Z</time>
      </trkpt>
      <trkpt lat="46.4320740" lon="6.9092100">
        <ele>372.5</ele>
        <time>2019-02-24T13:09:18Z</time>
      </trkpt>
      <trkpt lat="46.4320770" lon="6.9092230">
        <ele>372.6</ele>
        <time>2019-02-24T13:09:19Z</time>
      </trkpt>
      <trkpt lat="46.4320800" lon="6.9092360">
        <ele>372.8</ele>
        <time>2019-02-24T13:09:20Z</time>
      </trkpt>
      <trkpt lat="46.4320820" lon="6.9092450">
        <ele>372.8</ele>
        <time>2019-02-24T13:09:21Z</time>
      </trkpt>
      <trkpt lat="46.4320830" lon="6.9092490">
        <ele>372.9</ele>
        <time>2019-02-24T13:09:22Z</time>
      </trkpt>
      <trkpt lat="46.4320830" lon="6.9092490">
        <ele>372.9</ele>
        <time>2019-02-24T13:09:23Z</time>
      </trkpt>
      <trkpt lat="46.4320830" lon="6.9092490">
        <ele>372.9</ele>
        <time>2019-02-24T13:09:24Z</time>
      </trkpt>
      <trkpt lat="46.4320830" lon="6.9092520">
        <ele>372.9</ele>
        <time>2019-02-24T13:09:25Z</time>
      </trkpt>
      <trkpt lat="46.4320840" lon="6.9092620">
        <ele>373.0</ele>
        <time>2019-02-24T13:09:26Z</time>
      </trkpt>
      <trkpt lat="46.4320840" lon="6.9092760">
        <ele>373.1</ele>
        <time>2019-02-24T13:09:27Z</time>
      </trkpt>
      <trkpt lat="46.4320830" lon="6.9092940">
        <ele>373.3</ele>
        <time>2019-02-24T13:09:28Z</time>
      </trkpt>
      <trkpt lat="46.4320790" lon="6.9093150">
        <ele>373.5</ele>
        <time>2019-02-24T13:09:29Z</time>
      </trkpt>
      <trkpt lat="46.4320730" lon="6.9093360">
        <ele>373.8</ele>
        <time>2019-02-24T13:09:30Z</time>
      </trkpt>
      <trkpt lat="46.4320660" lon="6.9093600">
        <ele>374.1</ele>
        <time>2019-02-24T13:09:31Z</time>
      </trkpt>
      <trkpt lat="46.4320590" lon="6.9093840">
        <ele>374.4</ele>
        <time>2019-02-24T13:09:32Z</time>
      </trkpt>
      <trkpt lat="46.4320530" lon="6.9094110">
        <ele>374.7</ele>
        <time>2019-02-24T13:09:33Z</time>
      </trkpt>
      <trkpt lat="46.4320500" lon="6.9094390">
        <ele>375.0</ele>
        <time>2019-02-24T13:09:34Z</time>
      </trkpt>
      <trkpt lat="46.4320500" lon="6.9094690">
        <ele>375.3</ele>
        <time>2019-02-24T13:09:35Z</time>
      </trkpt>
      <trkpt lat="46.4320510" lon="6.9094990">
        <ele>375.6</ele>
        <time>2019-02-24T13:09:36Z</time>
      </trkpt>
      <trkpt lat="46.4320530" lon="6.9095280">
        <ele>375.9</ele>
        <time>2019-02-24T13:09:37Z</time>
      </trkpt>
      <trkpt lat="46.4320550" lon="6.9095550">
        <ele>376.2</ele>
        <time>2019-02-24T13:09:38Z</time>
      </trkpt>
      <trkpt lat="46.4320570" lon="6.9095810">
        <ele>376.4</ele>
        <time>2019-02-24T13:09:39Z</time>
      </trkpt>
      <trkpt lat="46.4320590" lon="6.9096080">
        <ele>376.6</ele>
        <time>2019-02-24T13:09:40Z</time>
      </trkpt>
      <trkpt lat="46.4320590" lon="6.9096360">
        <ele>376.8</ele>
        <time>2019-02-24T13:09:41Z</time>
      </trkpt>
      <trkpt lat="46.4320590" lon="6.9096660">
        <ele>377.1</ele>
        <time>2019-02-24T13:09:42Z</time>
      </trkpt>
      <trkpt lat="46.4320590" lon="6.9096990">
        <ele>377.3</ele>
        <time>2019-02-24T13:09:43Z</time>
      </trkpt>
      <trkpt lat="46.4320580" lon="6.9097330">
        <ele>377.6</ele>
        <time>2019-02-24T13:09:44Z</time>
      </trkpt>
      <trkpt lat="46.4320560" lon="6.9097700">
        <ele>377.9</ele>
        <time>2019-02-24T13:09:45Z</time>
      </trkpt>
      <trkpt lat="46.4320540" lon="6.9098080">
        <ele>378.2</ele>
        <time>2019-02-24T13:09:46Z</time>
      </trkpt>
      <trkpt lat="46.4320520" lon="6.9098470">
        <ele>378.5</ele>
        <time>2019-02-24T13:09:47Z</time>
      </trkpt>
      <trkpt lat="46.4320490" lon="6.9098870">
        <ele>378.8</ele>
        <time>2019-02-24T13:09:48Z</time>
      </trkpt>
      <trkpt lat="46.4320470" lon="6.9099280">
        <ele>379.2</ele>
        <time>2019-02-24T13:09:49Z</time>
      </trkpt>
      <trkpt lat="46.4320440" lon="6.9099690">
        <ele>379.6</ele>
        <time>2019-02-24T13:09:50Z</time>
      </trkpt>
      <trkpt lat="46.4320410" lon="6.9100090">
        <ele>380.0</ele>
        <time>2019-02-24T13:09:51Z</time>
      </trkpt>
      <trkpt lat="46.4320390" lon="6.9100490">
        <ele>380.4</ele>
        <time>2019-02-24T13:09:52Z</time>
      </trkpt>
      <trkpt lat="46.4320390" lon="6.9100880">
        <ele>380.8</ele>
        <time>2019-02-24T13:09:53Z</time>
      </trkpt>
      <trkpt lat="46.4320400" lon="6.9101240">
        <ele>381.1</ele>
        <time>2019-02-24T13:09:54Z</time>
      </trkpt>
      <trkpt lat="46.4320430" lon="6.9101580">
        <ele>381.4</ele>
        <time>2019-02-24T13:09:55Z</time>
      </trkpt>
      <trkpt lat="46.4320490" lon="6.9101880">
        <ele>381.6</ele>
        <time>2019-02-24T13:09:56Z</time>
      </trkpt>
      <trkpt lat="46.4320580" lon="6.9102140">
        <ele>381.8</ele>
        <time>2019-02-24T13:09:57Z</time>
      </trkpt>
      <trkpt lat="46.4320700" lon="6.9102360">
        <ele>382.1</ele>
        <time>2019-02-24T13:09:58Z</time>
      </trkpt>
      <trkpt lat="46.4320860" lon="6.9102520">
        <ele>382.2</ele>
        <time>2019-02-24T13:09:59Z</time>
      </trkpt>
      <trkpt lat="46.4321040" lon="6.9102640">
        <ele>382.3</ele>
        <time>2019-02-24T13:10:00Z</time>
      </trkpt>
      <trkpt lat="46.4321250" lon="6.9102710">
        <ele>382.4</ele>
        <time>2019-02-24T13:10:01Z</time>
      </trkpt>
      <trkpt lat="46.4321590" lon="6.9102710">
        <ele>382.6</ele>
        <time>2019-02-24T13:10:02Z</time>
      </trkpt>
      <trkpt lat="46.4321710" lon="6.9102700">
        <ele>382.5</ele>
        <time>2019-02-24T13:10:03Z</time>
      </trkpt>
      <trkpt lat="46.4321930" lon="6.9102660">
        <ele>382.5</ele>
        <time>2019-02-24T13:10:04Z</time>
      </trkpt>
      <trkpt lat="46.4322110" lon="6.9102620">
        <ele>382.5</ele>
        <time>2019-02-24T13:10:05Z</time>
      </trkpt>
      <trkpt lat="46.4322250" lon="6.9102580">
        <ele>382.5</ele>
        <time>2019-02-24T13:10:06Z</time>
      </trkpt>
      <trkpt lat="46.4322340" lon="6.9102560">
        <ele>382.4</ele>
        <time>2019-02-24T13:10:07Z</time>
      </trkpt>
      <trkpt lat="46.4322400" lon="6.9102550">
        <ele>382.4</ele>
        <time>2019-02-24T13:10:08Z</time>
      </trkpt>
      <trkpt lat="46.4322430" lon="6.9102540">
        <ele>382.4</ele>
        <time>2019-02-24T13:10:09Z</time>
      </trkpt>
      <trkpt lat="46.4322450" lon="6.9102540">
        <ele>382.4</ele>
        <time>2019-02-24T13:10:10Z</time>
      </trkpt>
      <trkpt lat="46.4322460" lon="6.9102540">
        <ele>382.4</ele>
        <time>2019-02-24T13:10:11Z</time>
      </trkpt>
      <trkpt lat="46.4322460" lon="6.9102540">
        <ele>382.4</ele>
        <time>2019-02-24T13:10:12Z</time>
      </trkpt>
      <trkpt lat="46.4322460" lon="6.9102540">
        <ele>382.4</ele>
        <time>2019-02-24T13:10:13Z</time>
      </trkpt>
      <trkpt lat="46.4322460" lon="6.9102540">
        <ele>382.4</ele>
        <time>2019-02-24T13:10:14Z</time>
      </trkpt>
      <trkpt lat="46.4322490" lon="6.9102560">
        <ele>382.4</ele>
        <time>2019-02-24T13:10:15Z</time>
      </trkpt>
      <trkpt lat="46.4322530" lon="6.9102590">
        <ele>382.4</ele>
        <time>2019-02-24T13:10:16Z</time>
      </trkpt>
      <trkpt lat="46.4322600" lon="6.9102640">
        <ele>382.4</ele>
        <time>2019-02-24T13:10:17Z</time>
      </trkpt>
      <trkpt lat="46.4322720" lon="6.9102730">
        <ele>382.4</ele>
        <time>2019-02-24T13:10:18Z</time>
      </trkpt>
      <trkpt lat="46.4322880" lon="6.9102830">
        <ele>382.4</ele>
        <time>2019-02-24T13:10:19Z</time>
      </trkpt>
      <trkpt lat="46.4323080" lon="6.9102920">
        <ele>382.3</ele>
        <time>2019-02-24T13:10:20Z</time>
      </trkpt>
      <trkpt lat="46.4323340" lon="6.9103000">
        <ele>382.3</ele>
        <time>2019-02-24T13:10:21Z</time>
      </trkpt>
      <trkpt lat="46.4323640" lon="6.9103040">
        <ele>382.3</ele>
        <time>2019-02-24T13:10:22Z</time>
      </trkpt>
      <trkpt lat="46.4323990" lon="6.9103040">
        <ele>382.2</ele>
        <time>2019-02-24T13:10:23Z</time>
      </trkpt>
      <trkpt lat="46.4324380" lon="6.9103020">
        <ele>382.2</ele>
        <time>2019-02-24T13:10:24Z</time>
      </trkpt>
      <trkpt lat="46.4324800" lon="6.9102980">
        <ele>382.1</ele>
        <time>2019-02-24T13:10:25Z</time>
      </trkpt>
      <trkpt lat="46.4325530" lon="6.9102880">
        <ele>382.1</ele>
        <time>2019-02-24T13:10:26Z</time>
      </trkpt>
      <trkpt lat="46.4325830" lon="6.9102830">
        <ele>382.0</ele>
        <time>2019-02-24T13:10:27Z</time>
      </trkpt>
      <trkpt lat="46.4326130" lon="6.9102790">
        <ele>382.0</ele>
        <time>2019-02-24T13:10:28Z</time>
      </trkpt>
      <trkpt lat="46.4326580" lon="6.9102730">
        <ele>382.0</ele>
        <time>2019-02-24T13:10:29Z</time>
      </trkpt>
      <trkpt lat="46.4327230" lon="6.9102650">
        <ele>382.0</ele>
        <time>2019-02-24T13:10:30Z</time>
      </trkpt>
      <trkpt lat="46.4327440" lon="6.9102620">
        <ele>382.0</ele>
        <time>2019-02-24T13:10:31Z</time>
      </trkpt>
      <trkpt lat="46.4327860" lon="6.9102560">
        <ele>382.0</ele>
        <time>2019-02-24T13:10:32Z</time>
      </trkpt>
      <trkpt lat="46.4328270" lon="6.9102460">
        <ele>382.0</ele>
        <time>2019-02-24T13:10:33Z</time>
      </trkpt>
      <trkpt lat="46.4328690" lon="6.9102310">
        <ele>382.8</ele>
        <time>2019-02-24T13:10:34Z</time>
      </trkpt>
      <trkpt lat="46.4329120" lon="6.9102110">
        <ele>382.8</ele>
        <time>2019-02-24T13:10:35Z</time>
      </trkpt>
      <trkpt lat="46.4329760" lon="6.9101760">
        <ele>383.0</ele>
        <time>2019-02-24T13:10:36Z</time>
      </trkpt>
      <trkpt lat="46.4329970" lon="6.9101640">
        <ele>383.0</ele>
        <time>2019-02-24T13:10:37Z</time>
      </trkpt>
      <trkpt lat="46.4330400" lon="6.9101440">
        <ele>383.1</ele>
        <time>2019-02-24T13:10:38Z</time>
      </trkpt>
      <trkpt lat="46.4330830" lon="6.9101290">
        <ele>383.2</ele>
        <time>2019-02-24T13:10:39Z</time>
      </trkpt>
      <trkpt lat="46.4331250" lon="6.9101200">
        <ele>383.4</ele>
        <time>2019-02-24T13:10:40Z</time>
      </trkpt>
      <trkpt lat="46.4331680" lon="6.9101140">
        <ele>383.6</ele>
        <time>2019-02-24T13:10:41Z</time>
      </trkpt>
      <trkpt lat="46.4332110" lon="6.9101120">
        <ele>383.9</ele>
        <time>2019-02-24T13:10:42Z</time>
      </trkpt>
      <trkpt lat="46.4332540" lon="6.9101110">
        <ele>384.3</ele>
        <time>2019-02-24T13:10:43Z</time>
      </trkpt>
      <trkpt lat="46.4332980" lon="6.9101100">
        <ele>384.7</ele>
        <time>2019-02-24T13:10:44Z</time>
      </trkpt>
      <trkpt lat="46.4333420" lon="6.9101080">
        <ele>385.5</ele>
        <time>2019-02-24T13:10:45Z</time>
      </trkpt>
      <trkpt lat="46.4333870" lon="6.9101040">
        <ele>386.4</ele>
        <time>2019-02-24T13:10:46Z</time>
      </trkpt>
      <trkpt lat="46.4334330" lon="6.9100970">
        <ele>387.2</ele>
        <time>2019-02-24T13:10:47Z</time>
      </trkpt>
      <trkpt lat="46.4334800" lon="6.9100880">
        <ele>387.2</ele>
        <time>2019-02-24T13:10:48Z</time>
      </trkpt>
      <trkpt lat="46.4335270" lon="6.9100760">
        <ele>387.2</ele>
        <time>2019-02-24T13:10:49Z</time>
      </trkpt>
      <trkpt lat="46.4335750" lon="6.9100620">
        <ele>387.1</ele>
        <time>2019-02-24T13:10:50Z</time>
      </trkpt>
      <trkpt lat="46.4336240" lon="6.9100480">
        <ele>387.1</ele>
        <time>2019-02-24T13:10:51Z</time>
      </trkpt>
      <trkpt lat="46.4336720" lon="6.9100330">
        <ele>387.0</ele>
        <time>2019-02-24T13:10:52Z</time>
      </trkpt>
      <trkpt lat="46.4337210" lon="6.9100190">
        <ele>386.9</ele>
        <time>2019-02-24T13:10:53Z</time>
      </trkpt>
      <trkpt lat="46.4337710" lon="6.9100050">
        <ele>386.7</ele>
        <time>2019-02-24T13:10:54Z</time>
      </trkpt>
      <trkpt lat="46.4338200" lon="6.9099940">
        <ele>386.5</ele>
        <time>2019-02-24T13:10:55Z</time>
      </trkpt>
      <trkpt lat="46.4338690" lon="6.9099830">
        <ele>386.3</ele>
        <time>2019-02-24T13:10:56Z</time>
      </trkpt>
      <trkpt lat="46.4339180" lon="6.9099740">
        <ele>386.1</ele>
        <time>2019-02-24T13:10:57Z</time>
      </trkpt>
      <trkpt lat="46.4339670" lon="6.9099660">
        <ele>385.9</ele>
        <time>2019-02-24T13:10:58Z</time>
      </trkpt>
      <trkpt lat="46.4340150" lon="6.9099590">
        <ele>385.7</ele>
        <time>2019-02-24T13:10:59Z</time>
      </trkpt>
      <trkpt lat="46.4340630" lon="6.9099530">
        <ele>385.5</ele>
        <time>2019-02-24T13:11:00Z</time>
      </trkpt>
      <trkpt lat="46.4341350" lon="6.9099440">
        <ele>385.3</ele>
        <time>2019-02-24T13:11:01Z</time>
      </trkpt>
      <trkpt lat="46.4341580" lon="6.9099410">
        <ele>385.1</ele>
        <time>2019-02-24T13:11:02Z</time>
      </trkpt>
      <trkpt lat="46.4342050" lon="6.9099360">
        <ele>384.8</ele>
        <time>2019-02-24T13:11:03Z</time>
      </trkpt>
      <trkpt lat="46.4342510" lon="6.9099300">
        <ele>384.5</ele>
        <time>2019-02-24T13:11:04Z</time>
      </trkpt>
      <trkpt lat="46.4342970" lon="6.9099250">
        <ele>384.0</ele>
        <time>2019-02-24T13:11:05Z</time>
      </trkpt>
      <trkpt lat="46.4343430" lon="6.9099190">
        <ele>383.5</ele>
        <time>2019-02-24T13:11:06Z</time>
      </trkpt>
      <trkpt lat="46.4343890" lon="6.9099130">
        <ele>383.0</ele>
        <time>2019-02-24T13:11:07Z</time>
      </trkpt>
      <trkpt lat="46.4344350" lon="6.9099070">
        <ele>382.5</ele>
        <time>2019-02-24T13:11:08Z</time>
      </trkpt>
      <trkpt lat="46.4344820" lon="6.9098990">
        <ele>382.0</ele>
        <time>2019-02-24T13:11:09Z</time>
      </trkpt>
      <trkpt lat="46.4345290" lon="6.9098910">
        <ele>381.7</ele>
        <time>2019-02-24T13:11:10Z</time>
      </trkpt>
      <trkpt lat="46.4345760" lon="6.9098820">
        <ele>381.4</ele>
        <time>2019-02-24T13:11:11Z</time>
      </trkpt>
      <trkpt lat="46.4346250" lon="6.9098730">
        <ele>381.0</ele>
        <time>2019-02-24T13:11:12Z</time>
      </trkpt>
      <trkpt lat="46.4346730" lon="6.9098620">
        <ele>380.7</ele>
        <time>2019-02-24T13:11:13Z</time>
      </trkpt>
      <trkpt lat="46.4347210" lon="6.9098510">
        <ele>380.5</ele>
        <time>2019-02-24T13:11:14Z</time>
      </trkpt>
      <trkpt lat="46.4347700" lon="6.9098390">
        <ele>380.3</ele>
        <time>2019-02-24T13:11:15Z</time>
      </trkpt>
      <trkpt lat="46.4348180" lon="6.9098260">
        <ele>380.1</ele>
        <time>2019-02-24T13:11:16Z</time>
      </trkpt>
      <trkpt lat="46.4348980" lon="6.9098040">
        <ele>380.0</ele>
        <time>2019-02-24T13:11:17Z</time>
      </trkpt>
      <trkpt lat="46.4349290" lon="6.9097950">
        <ele>380.1</ele>
        <time>2019-02-24T13:11:18Z</time>
      </trkpt>
      <trkpt lat="46.4349610" lon="6.9097860">
        <ele>380.1</ele>
        <time>2019-02-24T13:11:19Z</time>
      </trkpt>
      <trkpt lat="46.4350070" lon="6.9097720">
        <ele>380.1</ele>
        <time>2019-02-24T13:11:20Z</time>
      </trkpt>
      <trkpt lat="46.4350520" lon="6.9097570">
        <ele>380.1</ele>
        <time>2019-02-24T13:11:21Z</time>
      </trkpt>
      <trkpt lat="46.4351260" lon="6.9097300">
        <ele>380.2</ele>
        <time>2019-02-24T13:11:22Z</time>
      </trkpt>
      <trkpt lat="46.4351560" lon="6.9097180">
        <ele>380.2</ele>
        <time>2019-02-24T13:11:23Z</time>
      </trkpt>
      <trkpt lat="46.4351850" lon="6.9097070">
        <ele>380.2</ele>
        <time>2019-02-24T13:11:24Z</time>
      </trkpt>
      <trkpt lat="46.4352270" lon="6.9096890">
        <ele>380.2</ele>
        <time>2019-02-24T13:11:25Z</time>
      </trkpt>
      <trkpt lat="46.4352690" lon="6.9096690">
        <ele>380.2</ele>
        <time>2019-02-24T13:11:26Z</time>
      </trkpt>
      <trkpt lat="46.4353110" lon="6.9096480">
        <ele>380.2</ele>
        <time>2019-02-24T13:11:27Z</time>
      </trkpt>
      <trkpt lat="46.4353510" lon="6.9096260">
        <ele>380.2</ele>
        <time>2019-02-24T13:11:28Z</time>
      </trkpt>
      <trkpt lat="46.4353920" lon="6.9096020">
        <ele>380.3</ele>
        <time>2019-02-24T13:11:29Z</time>
      </trkpt>
      <trkpt lat="46.4354310" lon="6.9095780">
        <ele>380.3</ele>
        <time>2019-02-24T13:11:30Z</time>
      </trkpt>
      <trkpt lat="46.4354710" lon="6.9095530">
        <ele>380.3</ele>
        <time>2019-02-24T13:11:31Z</time>
      </trkpt>
      <trkpt lat="46.4355100" lon="6.9095270">
        <ele>380.3</ele>
        <time>2019-02-24T13:11:32Z</time>
      </trkpt>
      <trkpt lat="46.4355480" lon="6.9095000">
        <ele>380.3</ele>
        <time>2019-02-24T13:11:33Z</time>
      </trkpt>
      <trkpt lat="46.4355870" lon="6.9094730">
        <ele>380.3</ele>
        <time>2019-02-24T13:11:34Z</time>
      </trkpt>
      <trkpt lat="46.4356250" lon="6.9094450">
        <ele>380.4</ele>
        <time>2019-02-24T13:11:35Z</time>
      </trkpt>
      <trkpt lat="46.4356640" lon="6.9094170">
        <ele>380.4</ele>
        <time>2019-02-24T13:11:36Z</time>
      </trkpt>
      <trkpt lat="46.4357020" lon="6.9093890">
        <ele>380.4</ele>
        <time>2019-02-24T13:11:37Z</time>
      </trkpt>
      <trkpt lat="46.4357400" lon="6.9093610">
        <ele>380.4</ele>
        <time>2019-02-24T13:11:38Z</time>
      </trkpt>
      <trkpt lat="46.4357790" lon="6.9093330">
        <ele>380.4</ele>
        <time>2019-02-24T13:11:39Z</time>
      </trkpt>
      <trkpt lat="46.4358170" lon="6.9093050">
        <ele>380.5</ele>
        <time>2019-02-24T13:11:40Z</time>
      </trkpt>
      <trkpt lat="46.4358560" lon="6.9092780">
        <ele>380.5</ele>
        <time>2019-02-24T13:11:41Z</time>
      </trkpt>
      <trkpt lat="46.4358950" lon="6.9092510">
        <ele>380.5</ele>
        <time>2019-02-24T13:11:42Z</time>
      </trkpt>
      <trkpt lat="46.4359340" lon="6.9092250">
        <ele>380.5</ele>
        <time>2019-02-24T13:11:43Z</time>
      </trkpt>
      <trkpt lat="46.4359730" lon="6.9091990">
        <ele>380.7</ele>
        <time>2019-02-24T13:11:44Z</time>
      </trkpt>
      <trkpt lat="46.4360130" lon="6.9091740">
        <ele>380.9</ele>
        <time>2019-02-24T13:11:45Z</time>
      </trkpt>
      <trkpt lat="46.4360520" lon="6.9091490">
        <ele>381.0</ele>
        <time>2019-02-24T13:11:46Z</time>
      </trkpt>
      <trkpt lat="46.4360910" lon="6.9091230">
        <ele>381.2</ele>
        <time>2019-02-24T13:11:47Z</time>
      </trkpt>
      <trkpt lat="46.4361310" lon="6.9090980">
        <ele>381.4</ele>
        <time>2019-02-24T13:11:48Z</time>
      </trkpt>
      <trkpt lat="46.4361700" lon="6.9090710">
        <ele>381.6</ele>
        <time>2019-02-24T13:11:49Z</time>
      </trkpt>
      <trkpt lat="46.4362080" lon="6.9090450">
        <ele>381.8</ele>
        <time>2019-02-24T13:11:50Z</time>
      </trkpt>
      <trkpt lat="46.4362470" lon="6.9090170">
        <ele>382.1</ele>
        <time>2019-02-24T13:11:51Z</time>
      </trkpt>
      <trkpt lat="46.4362850" lon="6.9089880">
        <ele>382.4</ele>
        <time>2019-02-24T13:11:52Z</time>
      </trkpt>
      <trkpt lat="46.4363220" lon="6.9089590">
        <ele>382.7</ele>
        <time>2019-02-24T13:11:53Z</time>
      </trkpt>
      <trkpt lat="46.4363590" lon="6.9089290">
        <ele>382.9</ele>
        <time>2019-02-24T13:11:54Z</time>
      </trkpt>
      <trkpt lat="46.4363960" lon="6.9088990">
        <ele>383.1</ele>
        <time>2019-02-24T13:11:55Z</time>
      </trkpt>
      <trkpt lat="46.4364330" lon="6.9088680">
        <ele>383.3</ele>
        <time>2019-02-24T13:11:56Z</time>
      </trkpt>
      <trkpt lat="46.4364700" lon="6.9088370">
        <ele>383.6</ele>
        <time>2019-02-24T13:11:57Z</time>
      </trkpt>
      <trkpt lat="46.4365060" lon="6.9088060">
        <ele>383.8</ele>
        <time>2019-02-24T13:11:58Z</time>
      </trkpt>
      <trkpt lat="46.4365420" lon="6.9087740">
        <ele>384.0</ele>
        <time>2019-02-24T13:11:59Z</time>
      </trkpt>
      <trkpt lat="46.4365780" lon="6.9087430">
        <ele>384.1</ele>
        <time>2019-02-24T13:12:00Z</time>
      </trkpt>
      <trkpt lat="46.4366140" lon="6.9087110">
        <ele>384.3</ele>
        <time>2019-02-24T13:12:01Z</time>
      </trkpt>
      <trkpt lat="46.4366500" lon="6.9086790">
        <ele>384.4</ele>
        <time>2019-02-24T13:12:02Z</time>
      </trkpt>
      <trkpt lat="46.4366860" lon="6.9086480">
        <ele>384.6</ele>
        <time>2019-02-24T13:12:03Z</time>
      </trkpt>
      <trkpt lat="46.4367220" lon="6.9086170">
        <ele>384.8</ele>
        <time>2019-02-24T13:12:04Z</time>
      </trkpt>
      <trkpt lat="46.4367580" lon="6.9085860">
        <ele>384.9</ele>
        <time>2019-02-24T13:12:05Z</time>
      </trkpt>
      <trkpt lat="46.4367940" lon="6.9085560">
        <ele>385.1</ele>
        <time>2019-02-24T13:12:06Z</time>
      </trkpt>
      <trkpt lat="46.4368300" lon="6.9085260">
        <ele>385.0</ele>
        <time>2019-02-24T13:12:07Z</time>
      </trkpt>
      <trkpt lat="46.4368670" lon="6.9084960">
        <ele>384.8</ele>
        <time>2019-02-24T13:12:08Z</time>
      </trkpt>
      <trkpt lat="46.4369040" lon="6.9084660">
        <ele>384.7</ele>
        <time>2019-02-24T13:12:09Z</time>
      </trkpt>
      <trkpt lat="46.4369420" lon="6.9084360">
        <ele>384.6</ele>
        <time>2019-02-24T13:12:10Z</time>
      </trkpt>
      <trkpt lat="46.4369800" lon="6.9084050">
        <ele>384.4</ele>
        <time>2019-02-24T13:12:11Z</time>
      </trkpt>
      <trkpt lat="46.4370180" lon="6.9083730">
        <ele>384.3</ele>
        <time>2019-02-24T13:12:12Z</time>
      </trkpt>
      <trkpt lat="46.4370550" lon="6.9083420">
        <ele>384.2</ele>
        <time>2019-02-24T13:12:13Z</time>
      </trkpt>
      <trkpt lat="46.4370890" lon="6.9083110">
        <ele>384.1</ele>
        <time>2019-02-24T13:12:14Z</time>
      </trkpt>
      <trkpt lat="46.4371190" lon="6.9082810">
        <ele>384.0</ele>
        <time>2019-02-24T13:12:15Z</time>
      </trkpt>
      <trkpt lat="46.4371470" lon="6.9082520">
        <ele>383.9</ele>
        <time>2019-02-24T13:12:16Z</time>
      </trkpt>
      <trkpt lat="46.4371750" lon="6.9082230">
        <ele>383.8</ele>
        <time>2019-02-24T13:12:17Z</time>
      </trkpt>
      <trkpt lat="46.4372050" lon="6.9081920">
        <ele>383.7</ele>
        <time>2019-02-24T13:12:18Z</time>
      </trkpt>
      <trkpt lat="46.4372380" lon="6.9081600">
        <ele>383.7</ele>
        <time>2019-02-24T13:12:19Z</time>
      </trkpt>
      <trkpt lat="46.4372740" lon="6.9081270">
        <ele>383.5</ele>
        <time>2019-02-24T13:12:20Z</time>
      </trkpt>
      <trkpt lat="46.4373100" lon="6.9080930">
        <ele>383.4</ele>
        <time>2019-02-24T13:12:21Z</time>
      </trkpt>
      <trkpt lat="46.4373470" lon="6.9080570">
        <ele>383.3</ele>
        <time>2019-02-24T13:12:22Z</time>
      </trkpt>
      <trkpt lat="46.4373830" lon="6.9080210">
        <ele>383.1</ele>
        <time>2019-02-24T13:12:23Z</time>
      </trkpt>
      <trkpt lat="46.4374180" lon="6.9079830">
        <ele>383.0</ele>
        <time>2019-02-24T13:12:24Z</time>
      </trkpt>
      <trkpt lat="46.4374530" lon="6.9079450">
        <ele>382.9</ele>
        <time>2019-02-24T13:12:25Z</time>
      </trkpt>
      <trkpt lat="46.4374860" lon="6.9079060">
        <ele>382.8</ele>
        <time>2019-02-24T13:12:26Z</time>
      </trkpt>
      <trkpt lat="46.4375200" lon="6.9078670">
        <ele>382.7</ele>
        <time>2019-02-24T13:12:27Z</time>
      </trkpt>
      <trkpt lat="46.4375520" lon="6.9078270">
        <ele>382.5</ele>
        <time>2019-02-24T13:12:28Z</time>
      </trkpt>
      <trkpt lat="46.4375850" lon="6.9077870">
        <ele>382.4</ele>
        <time>2019-02-24T13:12:29Z</time>
      </trkpt>
      <trkpt lat="46.4376180" lon="6.9077470">
        <ele>382.3</ele>
        <time>2019-02-24T13:12:30Z</time>
      </trkpt>
      <trkpt lat="46.4376510" lon="6.9077070">
        <ele>382.1</ele>
        <time>2019-02-24T13:12:31Z</time>
      </trkpt>
      <trkpt lat="46.4376840" lon="6.9076670">
        <ele>382.1</ele>
        <time>2019-02-24T13:12:32Z</time>
      </trkpt>
      <trkpt lat="46.4377170" lon="6.9076260">
        <ele>382.1</ele>
        <time>2019-02-24T13:12:33Z</time>
      </trkpt>
      <trkpt lat="46.4377500" lon="6.9075860">
        <ele>382.3</ele>
        <time>2019-02-24T13:12:34Z</time>
      </trkpt>
      <trkpt lat="46.4377830" lon="6.9075450">
        <ele>382.4</ele>
        <time>2019-02-24T13:12:35Z</time>
      </trkpt>
      <trkpt lat="46.4378160" lon="6.9075040">
        <ele>382.5</ele>
        <time>2019-02-24T13:12:36Z</time>
      </trkpt>
      <trkpt lat="46.4378480" lon="6.9074630">
        <ele>382.6</ele>
        <time>2019-02-24T13:12:37Z</time>
      </trkpt>
      <trkpt lat="46.4378810" lon="6.9074210">
        <ele>382.7</ele>
        <time>2019-02-24T13:12:38Z</time>
      </trkpt>
      <trkpt lat="46.4379130" lon="6.9073790">
        <ele>382.8</ele>
        <time>2019-02-24T13:12:39Z</time>
      </trkpt>
      <trkpt lat="46.4379450" lon="6.9073370">
        <ele>382.9</ele>
        <time>2019-02-24T13:12:40Z</time>
      </trkpt>
      <trkpt lat="46.4379760" lon="6.9072940">
        <ele>383.0</ele>
        <time>2019-02-24T13:12:41Z</time>
      </trkpt>
      <trkpt lat="46.4380080" lon="6.9072510">
        <ele>383.0</ele>
        <time>2019-02-24T13:12:42Z</time>
      </trkpt>
      <trkpt lat="46.4380390" lon="6.9072080">
        <ele>383.1</ele>
        <time>2019-02-24T13:12:43Z</time>
      </trkpt>
      <trkpt lat="46.4380700" lon="6.9071650">
        <ele>383.2</ele>
        <time>2019-02-24T13:12:44Z</time>
      </trkpt>
      <trkpt lat="46.4381020" lon="6.9071220">
        <ele>383.2</ele>
        <time>2019-02-24T13:12:45Z</time>
      </trkpt>
      <trkpt lat="46.4381330" lon="6.9070790">
        <ele>383.3</ele>
        <time>2019-02-24T13:12:46Z</time>
      </trkpt>
      <trkpt lat="46.4381640" lon="6.9070350">
        <ele>383.3</ele>
        <time>2019-02-24T13:12:47Z</time>
      </trkpt>
      <trkpt lat="46.4381960" lon="6.9069920">
        <ele>383.4</ele>
        <time>2019-02-24T13:12:48Z</time>
      </trkpt>
      <trkpt lat="46.4382270" lon="6.9069490">
        <ele>383.5</ele>
        <time>2019-02-24T13:12:49Z</time>
      </trkpt>
      <trkpt lat="46.4382580" lon="6.9069070">
        <ele>383.5</ele>
        <time>2019-02-24T13:12:50Z</time>
      </trkpt>
      <trkpt lat="46.4382900" lon="6.9068640">
        <ele>383.6</ele>
        <time>2019-02-24T13:12:51Z</time>
      </trkpt>
      <trkpt lat="46.4383210" lon="6.9068210">
        <ele>383.6</ele>
        <time>2019-02-24T13:12:52Z</time>
      </trkpt>
      <trkpt lat="46.4383530" lon="6.9067780">
        <ele>383.7</ele>
        <time>2019-02-24T13:12:53Z</time>
      </trkpt>
      <trkpt lat="46.4383850" lon="6.9067360">
        <ele>383.8</ele>
        <time>2019-02-24T13:12:54Z</time>
      </trkpt>
      <trkpt lat="46.4384160" lon="6.9066930">
        <ele>383.8</ele>
        <time>2019-02-24T13:12:55Z</time>
      </trkpt>
      <trkpt lat="46.4384480" lon="6.9066500">
        <ele>383.9</ele>
        <time>2019-02-24T13:12:56Z</time>
      </trkpt>
      <trkpt lat="46.4384790" lon="6.9066080">
        <ele>383.9</ele>
        <time>2019-02-24T13:12:57Z</time>
      </trkpt>
      <trkpt lat="46.4385110" lon="6.9065650">
        <ele>384.0</ele>
        <time>2019-02-24T13:12:58Z</time>
      </trkpt>
      <trkpt lat="46.4385420" lon="6.9065230">
        <ele>384.0</ele>
        <time>2019-02-24T13:12:59Z</time>
      </trkpt>
      <trkpt lat="46.4385740" lon="6.9064810">
        <ele>384.1</ele>
        <time>2019-02-24T13:13:00Z</time>
      </trkpt>
      <trkpt lat="46.4386060" lon="6.9064390">
        <ele>384.1</ele>
        <time>2019-02-24T13:13:01Z</time>
      </trkpt>
      <trkpt lat="46.4386380" lon="6.9063970">
        <ele>384.2</ele>
        <time>2019-02-24T13:13:02Z</time>
      </trkpt>
      <trkpt lat="46.4386700" lon="6.9063550">
        <ele>384.2</ele>
        <time>2019-02-24T13:13:03Z</time>
      </trkpt>
      <trkpt lat="46.4387020" lon="6.9063130">
        <ele>384.3</ele>
        <time>2019-02-24T13:13:04Z</time>
      </trkpt>
      <trkpt lat="46.4387350" lon="6.9062710">
        <ele>384.3</ele>
        <time>2019-02-24T13:13:05Z</time>
      </trkpt>
      <trkpt lat="46.4387680" lon="6.9062250">
        <ele>384.3</ele>
        <time>2019-02-24T13:13:06Z</time>
      </trkpt>
      <trkpt lat="46.4388020" lon="6.9061760">
        <ele>384.4</ele>
        <time>2019-02-24T13:13:07Z</time>
      </trkpt>
      <trkpt lat="46.4388350" lon="6.9061250">
        <ele>384.4</ele>
        <time>2019-02-24T13:13:08Z</time>
      </trkpt>
      <trkpt lat="46.4388610" lon="6.9060850">
        <ele>385.0</ele>
        <time>2019-02-24T13:13:09Z</time>
      </trkpt>
      <trkpt lat="46.4388730" lon="6.9060660">
        <ele>385.0</ele>
        <time>2019-02-24T13:13:10Z</time>
      </trkpt>
      <trkpt lat="46.4388760" lon="6.9060620">
        <ele>385.0</ele>
        <time>2019-02-24T13:13:11Z</time>
      </trkpt>
      <trkpt lat="46.4388760" lon="6.9060620">
        <ele>385.0</ele>
        <time>2019-02-24T13:13:12Z</time>
      </trkpt>
      <trkpt lat="46.4388760" lon="6.9060610">
        <ele>385.0</ele>
        <time>2019-02-24T13:13:13Z</time>
      </trkpt>
      <trkpt lat="46.4388780" lon="6.9060570">
        <ele>385.1</ele>
        <time>2019-02-24T13:13:14Z</time>
      </trkpt>
      <trkpt lat="46.4388850" lon="6.9060460">
        <ele>385.1</ele>
        <time>2019-02-24T13:13:15Z</time>
      </trkpt>
      <trkpt lat="46.4388980" lon="6.9060260">
        <ele>385.2</ele>
        <time>2019-02-24T13:13:16Z</time>
      </trkpt>
      <trkpt lat="46.4389160" lon="6.9059980">
        <ele>385.3</ele>
        <time>2019-02-24T13:13:17Z</time>
      </trkpt>
      <trkpt lat="46.4389370" lon="6.9059660">
        <ele>385.3</ele>
        <time>2019-02-24T13:13:18Z</time>
      </trkpt>
      <trkpt lat="46.4389610" lon="6.9059310">
        <ele>385.4</ele>
        <time>2019-02-24T13:13:19Z</time>
      </trkpt>
      <trkpt lat="46.4389850" lon="6.9058960">
        <ele>385.5</ele>
        <time>2019-02-24T13:13:20Z</time>
      </trkpt>
      <trkpt lat="46.4390090" lon="6.9058610">
        <ele>385.6</ele>
        <time>2019-02-24T13:13:21Z</time>
      </trkpt>
      <trkpt lat="46.4390340" lon="6.9058250">
        <ele>385.7</ele>
        <time>2019-02-24T13:13:22Z</time>
      </trkpt>
      <trkpt lat="46.4390580" lon="6.9057880">
        <ele>385.7</ele>
        <time>2019-02-24T13:13:23Z</time>
      </trkpt>
      <trkpt lat="46.4390830" lon="6.9057510">
        <ele>385.8</ele>
        <time>2019-02-24T13:13:24Z</time>
      </trkpt>
      <trkpt lat="46.4391080" lon="6.9057110">
        <ele>385.9</ele>
        <time>2019-02-24T13:13:25Z</time>
      </trkpt>
      <trkpt lat="46.4391330" lon="6.9056710">
        <ele>386.0</ele>
        <time>2019-02-24T13:13:26Z</time>
      </trkpt>
      <trkpt lat="46.4391580" lon="6.9056280">
        <ele>386.1</ele>
        <time>2019-02-24T13:13:27Z</time>
      </trkpt>
      <trkpt lat="46.4391830" lon="6.9055820">
        <ele>386.3</ele>
        <time>2019-02-24T13:13:28Z</time>
      </trkpt>
      <trkpt lat="46.4392090" lon="6.9055350">
        <ele>386.4</ele>
        <time>2019-02-24T13:13:29Z</time>
      </trkpt>
      <trkpt lat="46.4392340" lon="6.9054860">
        <ele>386.5</ele>
        <time>2019-02-24T13:13:30Z</time>
      </trkpt>
      <trkpt lat="46.4392590" lon="6.9054360">
        <ele>386.6</ele>
        <time>2019-02-24T13:13:31Z</time>
      </trkpt>
      <trkpt lat="46.4392840" lon="6.9053850">
        <ele>386.8</ele>
        <time>2019-02-24T13:13:32Z</time>
      </trkpt>
      <trkpt lat="46.4393100" lon="6.9053330">
        <ele>386.9</ele>
        <time>2019-02-24T13:13:33Z</time>
      </trkpt>
      <trkpt lat="46.4393350" lon="6.9052810">
        <ele>387.0</ele>
        <time>2019-02-24T13:13:34Z</time>
      </trkpt>
      <trkpt lat="46.4393600" lon="6.9052290">
        <ele>387.2</ele>
        <time>2019-02-24T13:13:35Z</time>
      </trkpt>
      <trkpt lat="46.4393850" lon="6.9051770">
        <ele>387.3</ele>
        <time>2019-02-24T13:13:36Z</time>
      </trkpt>
      <trkpt lat="46.4394110" lon="6.9051250">
        <ele>387.5</ele>
        <time>2019-02-24T13:13:37Z</time>
      </trkpt>
      <trkpt lat="46.4394360" lon="6.9050740">
        <ele>387.6</ele>
        <time>2019-02-24T13:13:38Z</time>
      </trkpt>
      <trkpt lat="46.4394620" lon="6.9050240">
        <ele>387.7</ele>
        <time>2019-02-24T13:13:39Z</time>
      </trkpt>
      <trkpt lat="46.4394880" lon="6.9049740">
        <ele>387.9</ele>
        <time>2019-02-24T13:13:40Z</time>
      </trkpt>
      <trkpt lat="46.4395150" lon="6.9049250">
        <ele>388.0</ele>
        <time>2019-02-24T13:13:41Z</time>
      </trkpt>
      <trkpt lat="46.4395420" lon="6.9048760">
        <ele>388.1</ele>
        <time>2019-02-24T13:13:42Z</time>
      </trkpt>
      <trkpt lat="46.4395690" lon="6.9048280">
        <ele>388.2</ele>
        <time>2019-02-24T13:13:43Z</time>
      </trkpt>
      <trkpt lat="46.4395970" lon="6.9047810">
        <ele>388.3</ele>
        <time>2019-02-24T13:13:44Z</time>
      </trkpt>
      <trkpt lat="46.4396250" lon="6.9047350">
        <ele>388.4</ele>
        <time>2019-02-24T13:13:45Z</time>
      </trkpt>
      <trkpt lat="46.4396540" lon="6.9046890">
        <ele>388.5</ele>
        <time>2019-02-24T13:13:46Z</time>
      </trkpt>
      <trkpt lat="46.4396830" lon="6.9046440">
        <ele>388.7</ele>
        <time>2019-02-24T13:13:47Z</time>
      </trkpt>
      <trkpt lat="46.4397110" lon="6.9045980">
        <ele>388.6</ele>
        <time>2019-02-24T13:13:48Z</time>
      </trkpt>
      <trkpt lat="46.4397400" lon="6.9045520">
        <ele>388.5</ele>
        <time>2019-02-24T13:13:49Z</time>
      </trkpt>
      <trkpt lat="46.4397680" lon="6.9045070">
        <ele>388.1</ele>
        <time>2019-02-24T13:13:50Z</time>
      </trkpt>
      <trkpt lat="46.4397950" lon="6.9044600">
        <ele>388.1</ele>
        <time>2019-02-24T13:13:51Z</time>
      </trkpt>
      <trkpt lat="46.4398220" lon="6.9044130">
        <ele>388.1</ele>
        <time>2019-02-24T13:13:52Z</time>
      </trkpt>
      <trkpt lat="46.4398480" lon="6.9043660">
        <ele>388.2</ele>
        <time>2019-02-24T13:13:53Z</time>
      </trkpt>
      <trkpt lat="46.4398740" lon="6.9043170">
        <ele>388.2</ele>
        <time>2019-02-24T13:13:54Z</time>
      </trkpt>
      <trkpt lat="46.4398990" lon="6.9042690">
        <ele>388.2</ele>
        <time>2019-02-24T13:13:55Z</time>
      </trkpt>
      <trkpt lat="46.4399250" lon="6.9042200">
        <ele>388.2</ele>
        <time>2019-02-24T13:13:56Z</time>
      </trkpt>
      <trkpt lat="46.4399500" lon="6.9041710">
        <ele>388.3</ele>
        <time>2019-02-24T13:13:57Z</time>
      </trkpt>
      <trkpt lat="46.4399750" lon="6.9041210">
        <ele>388.3</ele>
        <time>2019-02-24T13:13:58Z</time>
      </trkpt>
      <trkpt lat="46.4400010" lon="6.9040720">
        <ele>388.3</ele>
        <time>2019-02-24T13:13:59Z</time>
      </trkpt>
      <trkpt lat="46.4400260" lon="6.9040220">
        <ele>388.2</ele>
        <time>2019-02-24T13:14:00Z</time>
      </trkpt>
      <trkpt lat="46.4400530" lon="6.9039720">
        <ele>388.2</ele>
        <time>2019-02-24T13:14:01Z</time>
      </trkpt>
      <trkpt lat="46.4400790" lon="6.9039220">
        <ele>388.1</ele>
        <time>2019-02-24T13:14:02Z</time>
      </trkpt>
      <trkpt lat="46.4401050" lon="6.9038700">
        <ele>388.0</ele>
        <time>2019-02-24T13:14:03Z</time>
      </trkpt>
      <trkpt lat="46.4401320" lon="6.9038180">
        <ele>388.0</ele>
        <time>2019-02-24T13:14:04Z</time>
      </trkpt>
      <trkpt lat="46.4401580" lon="6.9037640">
        <ele>387.9</ele>
        <time>2019-02-24T13:14:05Z</time>
      </trkpt>
      <trkpt lat="46.4401840" lon="6.9037090">
        <ele>387.8</ele>
        <time>2019-02-24T13:14:06Z</time>
      </trkpt>
      <trkpt lat="46.4402100" lon="6.9036520">
        <ele>387.8</ele>
        <time>2019-02-24T13:14:07Z</time>
      </trkpt>
      <trkpt lat="46.4402360" lon="6.9035930">
        <ele>387.7</ele>
        <time>2019-02-24T13:14:08Z</time>
      </trkpt>
      <trkpt lat="46.4402620" lon="6.9035330">
        <ele>387.6</ele>
        <time>2019-02-24T13:14:09Z</time>
      </trkpt>
      <trkpt lat="46.4402870" lon="6.9034710">
        <ele>387.5</ele>
        <time>2019-02-24T13:14:10Z</time>
      </trkpt>
      <trkpt lat="46.4403130" lon="6.9034080">
        <ele>387.4</ele>
        <time>2019-02-24T13:14:11Z</time>
      </trkpt>
      <trkpt lat="46.4403390" lon="6.9033440">
        <ele>387.2</ele>
        <time>2019-02-24T13:14:12Z</time>
      </trkpt>
      <trkpt lat="46.4403650" lon="6.9032800">
        <ele>387.1</ele>
        <time>2019-02-24T13:14:13Z</time>
      </trkpt>
      <trkpt lat="46.4403920" lon="6.9032160">
        <ele>386.9</ele>
        <time>2019-02-24T13:14:14Z</time>
      </trkpt>
      <trkpt lat="46.4404200" lon="6.9031520">
        <ele>386.7</ele>
        <time>2019-02-24T13:14:15Z</time>
      </trkpt>
      <trkpt lat="46.4404480" lon="6.9030880">
        <ele>386.5</ele>
        <time>2019-02-24T13:14:16Z</time>
      </trkpt>
      <trkpt lat="46.4404770" lon="6.9030250">
        <ele>386.3</ele>
        <time>2019-02-24T13:14:17Z</time>
      </trkpt>
      <trkpt lat="46.4405070" lon="6.9029620">
        <ele>386.1</ele>
        <time>2019-02-24T13:14:18Z</time>
      </trkpt>
      <trkpt lat="46.4405360" lon="6.9028980">
        <ele>385.8</ele>
        <time>2019-02-24T13:14:19Z</time>
      </trkpt>
      <trkpt lat="46.4405650" lon="6.9028330">
        <ele>385.6</ele>
        <time>2019-02-24T13:14:20Z</time>
      </trkpt>
      <trkpt lat="46.4405940" lon="6.9027670">
        <ele>385.3</ele>
        <time>2019-02-24T13:14:21Z</time>
      </trkpt>
      <trkpt lat="46.4406230" lon="6.9026990">
        <ele>385.0</ele>
        <time>2019-02-24T13:14:22Z</time>
      </trkpt>
      <trkpt lat="46.4406500" lon="6.9026290">
        <ele>384.6</ele>
        <time>2019-02-24T13:14:23Z</time>
      </trkpt>
      <trkpt lat="46.4406770" lon="6.9025570">
        <ele>384.2</ele>
        <time>2019-02-24T13:14:24Z</time>
      </trkpt>
      <trkpt lat="46.4407020" lon="6.9024830">
        <ele>383.8</ele>
        <time>2019-02-24T13:14:25Z</time>
      </trkpt>
      <trkpt lat="46.4407260" lon="6.9024070">
        <ele>383.4</ele>
        <time>2019-02-24T13:14:26Z</time>
      </trkpt>
      <trkpt lat="46.4407490" lon="6.9023290">
        <ele>383.0</ele>
        <time>2019-02-24T13:14:27Z</time>
      </trkpt>
      <trkpt lat="46.4407700" lon="6.9022490">
        <ele>382.6</ele>
        <time>2019-02-24T13:14:28Z</time>
      </trkpt>
      <trkpt lat="46.4407900" lon="6.9021680">
        <ele>382.1</ele>
        <time>2019-02-24T13:14:29Z</time>
      </trkpt>
      <trkpt lat="46.4408080" lon="6.9020850">
        <ele>381.7</ele>
        <time>2019-02-24T13:14:30Z</time>
      </trkpt>
      <trkpt lat="46.4408240" lon="6.9020010">
        <ele>381.4</ele>
        <time>2019-02-24T13:14:31Z</time>
      </trkpt>
      <trkpt lat="46.4408380" lon="6.9019150">
        <ele>381.0</ele>
        <time>2019-02-24T13:14:32Z</time>
      </trkpt>
      <trkpt lat="46.4408510" lon="6.9018290">
        <ele>380.6</ele>
        <time>2019-02-24T13:14:33Z</time>
      </trkpt>
      <trkpt lat="46.4408610" lon="6.9017420">
        <ele>380.3</ele>
        <time>2019-02-24T13:14:34Z</time>
      </trkpt>
      <trkpt lat="46.4408700" lon="6.9016550">
        <ele>380.0</ele>
        <time>2019-02-24T13:14:35Z</time>
      </trkpt>
      <trkpt lat="46.4408780" lon="6.9015670">
        <ele>379.6</ele>
        <time>2019-02-24T13:14:36Z</time>
      </trkpt>
      <trkpt lat="46.4408830" lon="6.9014780">
        <ele>379.3</ele>
        <time>2019-02-24T13:14:37Z</time>
      </trkpt>
      <trkpt lat="46.4408850" lon="6.9013880">
        <ele>378.9</ele>
        <time>2019-02-24T13:14:38Z</time>
      </trkpt>
      <trkpt lat="46.4408840" lon="6.9012950">
        <ele>378.4</ele>
        <time>2019-02-24T13:14:39Z</time>
      </trkpt>
      <trkpt lat="46.4408790" lon="6.9011980">
        <ele>377.7</ele>
        <time>2019-02-24T13:14:40Z</time>
      </trkpt>
      <trkpt lat="46.4408710" lon="6.9010990">
        <ele>377.5</ele>
        <time>2019-02-24T13:14:41Z</time>
      </trkpt>
      <trkpt lat="46.4408620" lon="6.9009990">
        <ele>377.4</ele>
        <time>2019-02-24T13:14:42Z</time>
      </trkpt>
      <trkpt lat="46.4408530" lon="6.9008980">
        <ele>377.2</ele>
        <time>2019-02-24T13:14:43Z</time>
      </trkpt>
      <trkpt lat="46.4408460" lon="6.9007970">
        <ele>377.0</ele>
        <time>2019-02-24T13:14:44Z</time>
      </trkpt>
      <trkpt lat="46.4408390" lon="6.9006980">
        <ele>376.6</ele>
        <time>2019-02-24T13:14:45Z</time>
      </trkpt>
      <trkpt lat="46.4408330" lon="6.9005990">
        <ele>375.7</ele>
        <time>2019-02-24T13:14:46Z</time>
      </trkpt>
      <trkpt lat="46.4408280" lon="6.9005010">
        <ele>374.8</ele>
        <time>2019-02-24T13:14:47Z</time>
      </trkpt>
      <trkpt lat="46.4408210" lon="6.9004050">
        <ele>373.9</ele>
        <time>2019-02-24T13:14:48Z</time>
      </trkpt>
      <trkpt lat="46.4408150" lon="6.9003110">
        <ele>373.0</ele>
        <time>2019-02-24T13:14:49Z</time>
      </trkpt>
      <trkpt lat="46.4408070" lon="6.9002170">
        <ele>372.1</ele>
        <time>2019-02-24T13:14:50Z</time>
      </trkpt>
      <trkpt lat="46.4408000" lon="6.9001250">
        <ele>372.0</ele>
        <time>2019-02-24T13:14:51Z</time>
      </trkpt>
      <trkpt lat="46.4407910" lon="6.9000330">
        <ele>371.8</ele>
        <time>2019-02-24T13:14:52Z</time>
      </trkpt>
      <trkpt lat="46.4407830" lon="6.8999430">
        <ele>371.7</ele>
        <time>2019-02-24T13:14:53Z</time>
      </trkpt>
      <trkpt lat="46.4407740" lon="6.8998530">
        <ele>371.5</ele>
        <time>2019-02-24T13:14:54Z</time>
      </trkpt>
      <trkpt lat="46.4407650" lon="6.8997640">
        <ele>371.4</ele>
        <time>2019-02-24T13:14:55Z</time>
      </trkpt>
      <trkpt lat="46.4407560" lon="6.8996760">
        <ele>371.2</ele>
        <time>2019-02-24T13:14:56Z</time>
      </trkpt>
      <trkpt lat="46.4407460" lon="6.8995880">
        <ele>371.1</ele>
        <time>2019-02-24T13:14:57Z</time>
      </trkpt>
      <trkpt lat="46.4407370" lon="6.8995010">
        <ele>371.0</ele>
        <time>2019-02-24T13:14:58Z</time>
      </trkpt>
      <trkpt lat="46.4407270" lon="6.8994150">
        <ele>370.9</ele>
        <time>2019-02-24T13:14:59Z</time>
      </trkpt>
      <trkpt lat="46.4407160" lon="6.8993300">
        <ele>370.8</ele>
        <time>2019-02-24T13:15:00Z</time>
      </trkpt>
      <trkpt lat="46.4407050" lon="6.8992450">
        <ele>370.9</ele>
        <time>2019-02-24T13:15:01Z</time>
      </trkpt>
      <trkpt lat="46.4406930" lon="6.8991620">
        <ele>371.2</ele>
        <time>2019-02-24T13:15:02Z</time>
      </trkpt>
      <trkpt lat="46.4406800" lon="6.8990810">
        <ele>371.5</ele>
        <time>2019-02-24T13:15:03Z</time>
      </trkpt>
      <trkpt lat="46.4406660" lon="6.8990010">
        <ele>371.8</ele>
        <time>2019-02-24T13:15:04Z</time>
      </trkpt>
      <trkpt lat="46.4406510" lon="6.8989220">
        <ele>372.1</ele>
        <time>2019-02-24T13:15:05Z</time>
      </trkpt>
      <trkpt lat="46.4406350" lon="6.8988460">
        <ele>372.4</ele>
        <time>2019-02-24T13:15:06Z</time>
      </trkpt>
      <trkpt lat="46.4406190" lon="6.8987700">
        <ele>372.8</ele>
        <time>2019-02-24T13:15:07Z</time>
      </trkpt>
      <trkpt lat="46.4406020" lon="6.8986970">
        <ele>373.1</ele>
        <time>2019-02-24T13:15:08Z</time>
      </trkpt>
      <trkpt lat="46.4405850" lon="6.8986250">
        <ele>373.4</ele>
        <time>2019-02-24T13:15:09Z</time>
      </trkpt>
      <trkpt lat="46.4405680" lon="6.8985540">
        <ele>373.8</ele>
        <time>2019-02-24T13:15:10Z</time>
      </trkpt>
      <trkpt lat="46.4405520" lon="6.8984850">
        <ele>373.6</ele>
        <time>2019-02-24T13:15:11Z</time>
      </trkpt>
      <trkpt lat="46.4405360" lon="6.8984170">
        <ele>373.4</ele>
        <time>2019-02-24T13:15:12Z</time>
      </trkpt>
      <trkpt lat="46.4405200" lon="6.8983500">
        <ele>373.1</ele>
        <time>2019-02-24T13:15:13Z</time>
      </trkpt>
      <trkpt lat="46.4405060" lon="6.8982840">
        <ele>372.9</ele>
        <time>2019-02-24T13:15:14Z</time>
      </trkpt>
      <trkpt lat="46.4404920" lon="6.8982200">
        <ele>372.7</ele>
        <time>2019-02-24T13:15:15Z</time>
      </trkpt>
      <trkpt lat="46.4404790" lon="6.8981560">
        <ele>372.4</ele>
        <time>2019-02-24T13:15:16Z</time>
      </trkpt>
      <trkpt lat="46.4404670" lon="6.8980930">
        <ele>372.6</ele>
        <time>2019-02-24T13:15:17Z</time>
      </trkpt>
      <trkpt lat="46.4404560" lon="6.8980310">
        <ele>372.7</ele>
        <time>2019-02-24T13:15:18Z</time>
      </trkpt>
      <trkpt lat="46.4404460" lon="6.8979690">
        <ele>373.8</ele>
        <time>2019-02-24T13:15:19Z</time>
      </trkpt>
      <trkpt lat="46.4404370" lon="6.8979070">
        <ele>374.4</ele>
        <time>2019-02-24T13:15:20Z</time>
      </trkpt>
      <trkpt lat="46.4404290" lon="6.8978450">
        <ele>375.0</ele>
        <time>2019-02-24T13:15:21Z</time>
      </trkpt>
      <trkpt lat="46.4404220" lon="6.8977840">
        <ele>375.6</ele>
        <time>2019-02-24T13:15:22Z</time>
      </trkpt>
      <trkpt lat="46.4404150" lon="6.8977230">
        <ele>376.1</ele>
        <time>2019-02-24T13:15:23Z</time>
      </trkpt>
      <trkpt lat="46.4404090" lon="6.8976620">
        <ele>376.6</ele>
        <time>2019-02-24T13:15:24Z</time>
      </trkpt>
      <trkpt lat="46.4404020" lon="6.8976010">
        <ele>377.1</ele>
        <time>2019-02-24T13:15:25Z</time>
      </trkpt>
      <trkpt lat="46.4403960" lon="6.8975410">
        <ele>377.6</ele>
        <time>2019-02-24T13:15:26Z</time>
      </trkpt>
      <trkpt lat="46.4403890" lon="6.8974810">
        <ele>378.1</ele>
        <time>2019-02-24T13:15:27Z</time>
      </trkpt>
      <trkpt lat="46.4403820" lon="6.8974210">
        <ele>378.6</ele>
        <time>2019-02-24T13:15:28Z</time>
      </trkpt>
      <trkpt lat="46.4403740" lon="6.8973620">
        <ele>379.0</ele>
        <time>2019-02-24T13:15:29Z</time>
      </trkpt>
      <trkpt lat="46.4403670" lon="6.8973030">
        <ele>379.5</ele>
        <time>2019-02-24T13:15:30Z</time>
      </trkpt>
      <trkpt lat="46.4403590" lon="6.8972450">
        <ele>380.0</ele>
        <time>2019-02-24T13:15:31Z</time>
      </trkpt>
      <trkpt lat="46.4403530" lon="6.8971880">
        <ele>380.5</ele>
        <time>2019-02-24T13:15:32Z</time>
      </trkpt>
      <trkpt lat="46.4403490" lon="6.8971320">
        <ele>381.0</ele>
        <time>2019-02-24T13:15:33Z</time>
      </trkpt>
      <trkpt lat="46.4403460" lon="6.8970770">
        <ele>381.5</ele>
        <time>2019-02-24T13:15:34Z</time>
      </trkpt>
      <trkpt lat="46.4403440" lon="6.8970230">
        <ele>382.0</ele>
        <time>2019-02-24T13:15:35Z</time>
      </trkpt>
      <trkpt lat="46.4403410" lon="6.8969680">
        <ele>382.5</ele>
        <time>2019-02-24T13:15:36Z</time>
      </trkpt>
      <trkpt lat="46.4403370" lon="6.8969140">
        <ele>382.3</ele>
        <time>2019-02-24T13:15:37Z</time>
      </trkpt>
      <trkpt lat="46.4403330" lon="6.8968590">
        <ele>382.1</ele>
        <time>2019-02-24T13:15:38Z</time>
      </trkpt>
      <trkpt lat="46.4403280" lon="6.8968030">
        <ele>381.9</ele>
        <time>2019-02-24T13:15:39Z</time>
      </trkpt>
      <trkpt lat="46.4403220" lon="6.8967440">
        <ele>381.7</ele>
        <time>2019-02-24T13:15:40Z</time>
      </trkpt>
      <trkpt lat="46.4403160" lon="6.8966850">
        <ele>381.5</ele>
        <time>2019-02-24T13:15:41Z</time>
      </trkpt>
      <trkpt lat="46.4403090" lon="6.8966230">
        <ele>381.4</ele>
        <time>2019-02-24T13:15:42Z</time>
      </trkpt>
      <trkpt lat="46.4403030" lon="6.8965610">
        <ele>381.2</ele>
        <time>2019-02-24T13:15:43Z</time>
      </trkpt>
      <trkpt lat="46.4402970" lon="6.8964980">
        <ele>381.0</ele>
        <time>2019-02-24T13:15:44Z</time>
      </trkpt>
      <trkpt lat="46.4402920" lon="6.8964360">
        <ele>380.9</ele>
        <time>2019-02-24T13:15:45Z</time>
      </trkpt>
      <trkpt lat="46.4402880" lon="6.8963750">
        <ele>380.8</ele>
        <time>2019-02-24T13:15:46Z</time>
      </trkpt>
      <trkpt lat="46.4402850" lon="6.8963180">
        <ele>380.7</ele>
        <time>2019-02-24T13:15:47Z</time>
      </trkpt>
      <trkpt lat="46.4402820" lon="6.8962640">
        <ele>380.6</ele>
        <time>2019-02-24T13:15:48Z</time>
      </trkpt>
      <trkpt lat="46.4402800" lon="6.8962150">
        <ele>380.6</ele>
        <time>2019-02-24T13:15:49Z</time>
      </trkpt>
      <trkpt lat="46.4402790" lon="6.8961730">
        <ele>380.5</ele>
        <time>2019-02-24T13:15:50Z</time>
      </trkpt>
      <trkpt lat="46.4402780" lon="6.8961390">
        <ele>380.4</ele>
        <time>2019-02-24T13:15:51Z</time>
      </trkpt>
      <trkpt lat="46.4402770" lon="6.8961130">
        <ele>380.4</ele>
        <time>2019-02-24T13:15:52Z</time>
      </trkpt>
      <trkpt lat="46.4402770" lon="6.8960930">
        <ele>380.4</ele>
        <time>2019-02-24T13:15:53Z</time>
      </trkpt>
      <trkpt lat="46.4402770" lon="6.8960900">
        <ele>380.4</ele>
        <time>2019-02-24T13:15:54Z</time>
      </trkpt>
      <trkpt lat="46.4402770" lon="6.8960860">
        <ele>380.4</ele>
        <time>2019-02-24T13:15:55Z</time>
      </trkpt>
      <trkpt lat="46.4402770" lon="6.8960840">
        <ele>380.4</ele>
        <time>2019-02-24T13:15:56Z</time>
      </trkpt>
      <trkpt lat="46.4402770" lon="6.8960840">
        <ele>380.4</ele>
        <time>2019-02-24T13:15:57Z</time>
      </trkpt>
      <trkpt lat="46.4402770" lon="6.8960830">
        <ele>380.4</ele>
        <time>2019-02-24T13:15:58Z</time>
      </trkpt>
      <trkpt lat="46.4402770" lon="6.8960830">
        <ele>380.4</ele>
        <time>2019-02-24T13:15:59Z</time>
      </trkpt>
      <trkpt lat="46.4402770" lon="6.8960830">
        <ele>380.4</ele>
        <time>2019-02-24T13:16:00Z</time>
      </trkpt>
      <trkpt lat="46.4402770" lon="6.8960830">
        <ele>380.4</ele>
        <time>2019-02-24T13:16:01Z</time>
      </trkpt>
      <trkpt lat="46.4402770" lon="6.8960830">
        <ele>380.4</ele>
        <time>2019-02-24T13:16:02Z</time>
      </trkpt>
      <trkpt lat="46.4402770" lon="6.8960830">
        <ele>380.4</ele>
        <time>2019-02-24T13:16:03Z</time>
      </trkpt>
      <trkpt lat="46.4402770" lon="6.8960830">
        <ele>380.4</ele>
        <time>2019-02-24T13:16:04Z</time>
      </trkpt>
      <trkpt lat="46.4402770" lon="6.8960830">
        <ele>380.4</ele>
        <time>2019-02-24T13:16:05Z</time>
      </trkpt>
      <trkpt lat="46.4402770" lon="6.8960830">
        <ele>380.4</ele>
        <time>2019-02-24T13:16:06Z</time>
      </trkpt>
      <trkpt lat="46.4402770" lon="6.8960830">
        <ele>380.4</ele>
        <time>2019-02-24T13:16:07Z</time>
      </trkpt>
      <trkpt lat="46.4402770" lon="6.8960830">
        <ele>380.4</ele>
        <time>2019-02-24T13:16:08Z</time>
      </trkpt>
      <trkpt lat="46.4402770" lon="6.8960830">
        <ele>380.4</ele>
        <time>2019-02-24T13:16:09Z</time>
      </trkpt>
      <trkpt lat="46.4402770" lon="6.8960830">
        <ele>380.4</ele>
        <time>2019-02-24T13:16:10Z</time>
      </trkpt>
      <trkpt lat="46.4402770" lon="6.8960830">
        <ele>380.4</ele>
        <time>2019-02-24T13:16:11Z</time>
      </trkpt>
      <trkpt lat="46.4402770" lon="6.8960830">
        <ele>380.4</ele>
        <time>2019-02-24T13:16:12Z</time>
      </trkpt>
      <trkpt lat="46.4402770" lon="6.8960830">
        <ele>380.4</ele>
        <time>2019-02-24T13:16:13Z</time>
      </trkpt>
      <trkpt lat="46.4402770" lon="6.8960830">
        <ele>380.4</ele>
        <time>2019-02-24T13:16:14Z</time>
      </trkpt>
      <trkpt lat="46.4402770" lon="6.8960830">
        <ele>380.4</ele>
        <time>2019-02-24T13:16:15Z</time>
      </trkpt>
      <trkpt lat="46.4402770" lon="6.8960830">
        <ele>380.4</ele>
        <time>2019-02-24T13:16:16Z</time>
      </trkpt>
      <trkpt lat="46.4402770" lon="6.8960830">
        <ele>380.4</ele>
        <time>2019-02-24T13:16:17Z</time>
      </trkpt>
      <trkpt lat="46.4402770" lon="6.8960830">
        <ele>380.4</ele>
        <time>2019-02-24T13:16:18Z</time>
      </trkpt>
      <trkpt lat="46.4402770" lon="6.8960830">
        <ele>380.4</ele>
        <time>2019-02-24T13:16:19Z</time>
      </trkpt>
      <trkpt lat="46.4402770" lon="6.8960830">
        <ele>380.4</ele>
        <time>2019-02-24T13:16:20Z</time>
      </trkpt>
      <trkpt lat="46.4402770" lon="6.8960830">
        <ele>380.4</ele>
        <time>2019-02-24T13:16:21Z</time>
      </trkpt>
      <trkpt lat="46.4402770" lon="6.8960830">
        <ele>380.4</ele>
        <time>2019-02-24T13:16:22Z</time>
      </trkpt>
      <trkpt lat="46.4402770" lon="6.8960830">
        <ele>380.4</ele>
        <time>2019-02-24T13:16:23Z</time>
      </trkpt>
      <trkpt lat="46.4402770" lon="6.8960830">
        <ele>380.4</ele>
        <time>2019-02-24T13:16:24Z</time>
      </trkpt>
      <trkpt lat="46.4402770" lon="6.8960830">
        <ele>380.4</ele>
        <time>2019-02-24T13:16:25Z</time>
      </trkpt>
      <trkpt lat="46.4402770" lon="6.8960830">
        <ele>380.4</ele>
        <time>2019-02-24T13:16:26Z</time>
      </trkpt>
      <trkpt lat="46.4402760" lon="6.8960830">
        <ele>380.4</ele>
        <time>2019-02-24T13:16:27Z</time>
      </trkpt>
      <trkpt lat="46.4402770" lon="6.8960840">
        <ele>380.3</ele>
        <time>2019-02-24T13:16:28Z</time>
      </trkpt>
      <trkpt lat="46.4402770" lon="6.8960860">
        <ele>380.3</ele>
        <time>2019-02-24T13:16:29Z</time>
      </trkpt>
      <trkpt lat="46.4402770" lon="6.8960860">
        <ele>380.3</ele>
        <time>2019-02-24T13:16:30Z</time>
      </trkpt>
      <trkpt lat="46.4402760" lon="6.8960820">
        <ele>380.3</ele>
        <time>2019-02-24T13:16:31Z</time>
      </trkpt>
      <trkpt lat="46.4402760" lon="6.8960700">
        <ele>380.3</ele>
        <time>2019-02-24T13:16:32Z</time>
      </trkpt>
      <trkpt lat="46.4402750" lon="6.8960490">
        <ele>380.3</ele>
        <time>2019-02-24T13:16:33Z</time>
      </trkpt>
      <trkpt lat="46.4402740" lon="6.8960180">
        <ele>380.2</ele>
        <time>2019-02-24T13:16:34Z</time>
      </trkpt>
      <trkpt lat="46.4402720" lon="6.8959790">
        <ele>380.2</ele>
        <time>2019-02-24T13:16:35Z</time>
      </trkpt>
      <trkpt lat="46.4402700" lon="6.8959320">
        <ele>380.0</ele>
        <time>2019-02-24T13:16:36Z</time>
      </trkpt>
      <trkpt lat="46.4402650" lon="6.8958360">
        <ele>379.8</ele>
        <time>2019-02-24T13:16:37Z</time>
      </trkpt>
      <trkpt lat="46.4402630" lon="6.8957950">
        <ele>379.8</ele>
        <time>2019-02-24T13:16:38Z</time>
      </trkpt>
      <trkpt lat="46.4402610" lon="6.8957530">
        <ele>379.7</ele>
        <time>2019-02-24T13:16:39Z</time>
      </trkpt>
      <trkpt lat="46.4402580" lon="6.8956840">
        <ele>379.7</ele>
        <time>2019-02-24T13:16:40Z</time>
      </trkpt>
      <trkpt lat="46.4402540" lon="6.8956130">
        <ele>379.7</ele>
        <time>2019-02-24T13:16:41Z</time>
      </trkpt>
      <trkpt lat="46.4402490" lon="6.8954910">
        <ele>379.7</ele>
        <time>2019-02-24T13:16:42Z</time>
      </trkpt>
      <trkpt lat="46.4402460" lon="6.8954400">
        <ele>379.8</ele>
        <time>2019-02-24T13:16:43Z</time>
      </trkpt>
      <trkpt lat="46.4402440" lon="6.8953900">
        <ele>379.9</ele>
        <time>2019-02-24T13:16:44Z</time>
      </trkpt>
      <trkpt lat="46.4402400" lon="6.8953120">
        <ele>380.1</ele>
        <time>2019-02-24T13:16:45Z</time>
      </trkpt>
      <trkpt lat="46.4402370" lon="6.8952330">
        <ele>380.2</ele>
        <time>2019-02-24T13:16:46Z</time>
      </trkpt>
      <trkpt lat="46.4402340" lon="6.8951520">
        <ele>380.3</ele>
        <time>2019-02-24T13:16:47Z</time>
      </trkpt>
      <trkpt lat="46.4402310" lon="6.8950710">
        <ele>380.4</ele>
        <time>2019-02-24T13:16:48Z</time>
      </trkpt>
      <trkpt lat="46.4402280" lon="6.8949880">
        <ele>380.5</ele>
        <time>2019-02-24T13:16:49Z</time>
      </trkpt>
      <trkpt lat="46.4402260" lon="6.8949050">
        <ele>380.5</ele>
        <time>2019-02-24T13:16:50Z</time>
      </trkpt>
      <trkpt lat="46.4402240" lon="6.8948220">
        <ele>380.5</ele>
        <time>2019-02-24T13:16:51Z</time>
      </trkpt>
      <trkpt lat="46.4402230" lon="6.8947380">
        <ele>380.5</ele>
        <time>2019-02-24T13:16:52Z</time>
      </trkpt>
      <trkpt lat="46.4402220" lon="6.8946550">
        <ele>380.4</ele>
        <time>2019-02-24T13:16:53Z</time>
      </trkpt>
      <trkpt lat="46.4402220" lon="6.8945720">
        <ele>380.3</ele>
        <time>2019-02-24T13:16:54Z</time>
      </trkpt>
      <trkpt lat="46.4402220" lon="6.8944890">
        <ele>380.2</ele>
        <time>2019-02-24T13:16:55Z</time>
      </trkpt>
      <trkpt lat="46.4402230" lon="6.8944080">
        <ele>380.1</ele>
        <time>2019-02-24T13:16:56Z</time>
      </trkpt>
      <trkpt lat="46.4402250" lon="6.8943270">
        <ele>379.9</ele>
        <time>2019-02-24T13:16:57Z</time>
      </trkpt>
      <trkpt lat="46.4402280" lon="6.8942470">
        <ele>379.9</ele>
        <time>2019-02-24T13:16:58Z</time>
      </trkpt>
      <trkpt lat="46.4402300" lon="6.8941670">
        <ele>379.8</ele>
        <time>2019-02-24T13:16:59Z</time>
      </trkpt>
      <trkpt lat="46.4402320" lon="6.8940880">
        <ele>379.8</ele>
        <time>2019-02-24T13:17:00Z</time>
      </trkpt>
      <trkpt lat="46.4402330" lon="6.8940070">
        <ele>379.9</ele>
        <time>2019-02-24T13:17:01Z</time>
      </trkpt>
      <trkpt lat="46.4402330" lon="6.8939260">
        <ele>380.0</ele>
        <time>2019-02-24T13:17:02Z</time>
      </trkpt>
      <trkpt lat="46.4402330" lon="6.8938440">
        <ele>380.1</ele>
        <time>2019-02-24T13:17:03Z</time>
      </trkpt>
      <trkpt lat="46.4402350" lon="6.8937600">
        <ele>380.2</ele>
        <time>2019-02-24T13:17:04Z</time>
      </trkpt>
      <trkpt lat="46.4402410" lon="6.8936760">
        <ele>380.4</ele>
        <time>2019-02-24T13:17:05Z</time>
      </trkpt>
      <trkpt lat="46.4402520" lon="6.8935910">
        <ele>380.6</ele>
        <time>2019-02-24T13:17:06Z</time>
      </trkpt>
      <trkpt lat="46.4402670" lon="6.8935060">
        <ele>380.9</ele>
        <time>2019-02-24T13:17:07Z</time>
      </trkpt>
      <trkpt lat="46.4402830" lon="6.8934210">
        <ele>381.2</ele>
        <time>2019-02-24T13:17:08Z</time>
      </trkpt>
      <trkpt lat="46.4402990" lon="6.8933350">
        <ele>381.4</ele>
        <time>2019-02-24T13:17:09Z</time>
      </trkpt>
      <trkpt lat="46.4403130" lon="6.8932500">
        <ele>381.7</ele>
        <time>2019-02-24T13:17:10Z</time>
      </trkpt>
      <trkpt lat="46.4403260" lon="6.8931650">
        <ele>381.8</ele>
        <time>2019-02-24T13:17:11Z</time>
      </trkpt>
      <trkpt lat="46.4403380" lon="6.8930820">
        <ele>381.9</ele>
        <time>2019-02-24T13:17:12Z</time>
      </trkpt>
      <trkpt lat="46.4403490" lon="6.8930000">
        <ele>382.0</ele>
        <time>2019-02-24T13:17:13Z</time>
      </trkpt>
      <trkpt lat="46.4403600" lon="6.8929210">
        <ele>382.1</ele>
        <time>2019-02-24T13:17:14Z</time>
      </trkpt>
      <trkpt lat="46.4403710" lon="6.8928440">
        <ele>382.2</ele>
        <time>2019-02-24T13:17:15Z</time>
      </trkpt>
      <trkpt lat="46.4403830" lon="6.8927690">
        <ele>382.3</ele>
        <time>2019-02-24T13:17:16Z</time>
      </trkpt>
      <trkpt lat="46.4403950" lon="6.8926950">
        <ele>382.4</ele>
        <time>2019-02-24T13:17:17Z</time>
      </trkpt>
      <trkpt lat="46.4404070" lon="6.8926220">
        <ele>382.5</ele>
        <time>2019-02-24T13:17:18Z</time>
      </trkpt>
      <trkpt lat="46.4404200" lon="6.8925510">
        <ele>382.6</ele>
        <time>2019-02-24T13:17:19Z</time>
      </trkpt>
      <trkpt lat="46.4404340" lon="6.8924800">
        <ele>382.7</ele>
        <time>2019-02-24T13:17:20Z</time>
      </trkpt>
      <trkpt lat="46.4404500" lon="6.8924090">
        <ele>382.8</ele>
        <time>2019-02-24T13:17:21Z</time>
      </trkpt>
      <trkpt lat="46.4404660" lon="6.8923390">
        <ele>383.0</ele>
        <time>2019-02-24T13:17:22Z</time>
      </trkpt>
      <trkpt lat="46.4404840" lon="6.8922690">
        <ele>383.1</ele>
        <time>2019-02-24T13:17:23Z</time>
      </trkpt>
      <trkpt lat="46.4405030" lon="6.8921990">
        <ele>383.2</ele>
        <time>2019-02-24T13:17:24Z</time>
      </trkpt>
      <trkpt lat="46.4405230" lon="6.8921300">
        <ele>383.3</ele>
        <time>2019-02-24T13:17:25Z</time>
      </trkpt>
      <trkpt lat="46.4405450" lon="6.8920610">
        <ele>383.5</ele>
        <time>2019-02-24T13:17:26Z</time>
      </trkpt>
      <trkpt lat="46.4405670" lon="6.8919930">
        <ele>383.6</ele>
        <time>2019-02-24T13:17:27Z</time>
      </trkpt>
      <trkpt lat="46.4405900" lon="6.8919250">
        <ele>383.7</ele>
        <time>2019-02-24T13:17:28Z</time>
      </trkpt>
      <trkpt lat="46.4406140" lon="6.8918580">
        <ele>383.7</ele>
        <time>2019-02-24T13:17:29Z</time>
      </trkpt>
      <trkpt lat="46.4406400" lon="6.8917920">
        <ele>383.9</ele>
        <time>2019-02-24T13:17:30Z</time>
      </trkpt>
      <trkpt lat="46.4406650" lon="6.8917270">
        <ele>384.1</ele>
        <time>2019-02-24T13:17:31Z</time>
      </trkpt>
      <trkpt lat="46.4406910" lon="6.8916630">
        <ele>384.0</ele>
        <time>2019-02-24T13:17:32Z</time>
      </trkpt>
      <trkpt lat="46.4407180" lon="6.8916000">
        <ele>384.0</ele>
        <time>2019-02-24T13:17:33Z</time>
      </trkpt>
      <trkpt lat="46.4407440" lon="6.8915370">
        <ele>384.0</ele>
        <time>2019-02-24T13:17:34Z</time>
      </trkpt>
      <trkpt lat="46.4407690" lon="6.8914750">
        <ele>384.1</ele>
        <time>2019-02-24T13:17:35Z</time>
      </trkpt>
      <trkpt lat="46.4407940" lon="6.8914140">
        <ele>384.2</ele>
        <time>2019-02-24T13:17:36Z</time>
      </trkpt>
      <trkpt lat="46.4408170" lon="6.8913540">
        <ele>384.2</ele>
        <time>2019-02-24T13:17:37Z</time>
      </trkpt>
      <trkpt lat="46.4408400" lon="6.8912940">
        <ele>384.3</ele>
        <time>2019-02-24T13:17:38Z</time>
      </trkpt>
      <trkpt lat="46.4408610" lon="6.8912360">
        <ele>384.4</ele>
        <time>2019-02-24T13:17:39Z</time>
      </trkpt>
      <trkpt lat="46.4408800" lon="6.8911800">
        <ele>384.4</ele>
        <time>2019-02-24T13:17:40Z</time>
      </trkpt>
      <trkpt lat="46.4408980" lon="6.8911270">
        <ele>384.5</ele>
        <time>2019-02-24T13:17:41Z</time>
      </trkpt>
      <trkpt lat="46.4409150" lon="6.8910780">
        <ele>384.6</ele>
        <time>2019-02-24T13:17:42Z</time>
      </trkpt>
      <trkpt lat="46.4409300" lon="6.8910350">
        <ele>384.6</ele>
        <time>2019-02-24T13:17:43Z</time>
      </trkpt>
      <trkpt lat="46.4409430" lon="6.8909970">
        <ele>384.7</ele>
        <time>2019-02-24T13:17:44Z</time>
      </trkpt>
      <trkpt lat="46.4409540" lon="6.8909650">
        <ele>384.7</ele>
        <time>2019-02-24T13:17:45Z</time>
      </trkpt>
      <trkpt lat="46.4409640" lon="6.8909410">
        <ele>384.8</ele>
        <time>2019-02-24T13:17:46Z</time>
      </trkpt>
      <trkpt lat="46.4409700" lon="6.8909260">
        <ele>384.8</ele>
        <time>2019-02-24T13:17:47Z</time>
      </trkpt>
      <trkpt lat="46.4409720" lon="6.8909180">
        <ele>384.8</ele>
        <time>2019-02-24T13:17:48Z</time>
      </trkpt>
      <trkpt lat="46.4409730" lon="6.8909170">
        <ele>384.8</ele>
        <time>2019-02-24T13:17:49Z</time>
      </trkpt>
      <trkpt lat="46.4409730" lon="6.8909150">
        <ele>384.8</ele>
        <time>2019-02-24T13:17:50Z</time>
      </trkpt>
      <trkpt lat="46.4409740" lon="6.8909130">
        <ele>384.8</ele>
        <time>2019-02-24T13:17:51Z</time>
      </trkpt>
      <trkpt lat="46.4409740" lon="6.8909120">
        <ele>384.8</ele>
        <time>2019-02-24T13:17:52Z</time>
      </trkpt>
      <trkpt lat="46.4409740" lon="6.8909100">
        <ele>384.9</ele>
        <time>2019-02-24T13:17:53Z</time>
      </trkpt>
      <trkpt lat="46.4409750" lon="6.8909080">
        <ele>384.9</ele>
        <time>2019-02-24T13:17:54Z</time>
      </trkpt>
      <trkpt lat="46.4409750" lon="6.8909070">
        <ele>384.9</ele>
        <time>2019-02-24T13:17:55Z</time>
      </trkpt>
      <trkpt lat="46.4409760" lon="6.8909050">
        <ele>384.9</ele>
        <time>2019-02-24T13:17:56Z</time>
      </trkpt>
      <trkpt lat="46.4409760" lon="6.8909030">
        <ele>384.9</ele>
        <time>2019-02-24T13:17:57Z</time>
      </trkpt>
      <trkpt lat="46.4409760" lon="6.8909020">
        <ele>384.9</ele>
        <time>2019-02-24T13:17:58Z</time>
      </trkpt>
      <trkpt lat="46.4409770" lon="6.8909000">
        <ele>384.9</ele>
        <time>2019-02-24T13:17:59Z</time>
      </trkpt>
      <trkpt lat="46.4409770" lon="6.8908980">
        <ele>384.9</ele>
        <time>2019-02-24T13:18:00Z</time>
      </trkpt>
      <trkpt lat="46.4409780" lon="6.8908970">
        <ele>384.9</ele>
        <time>2019-02-24T13:18:01Z</time>
      </trkpt>
      <trkpt lat="46.4409780" lon="6.8908950">
        <ele>384.9</ele>
        <time>2019-02-24T13:18:02Z</time>
      </trkpt>
      <trkpt lat="46.4409790" lon="6.8908940">
        <ele>384.9</ele>
        <time>2019-02-24T13:18:03Z</time>
      </trkpt>
      <trkpt lat="46.4409790" lon="6.8908920">
        <ele>384.9</ele>
        <time>2019-02-24T13:18:04Z</time>
      </trkpt>
      <trkpt lat="46.4409790" lon="6.8908900">
        <ele>384.9</ele>
        <time>2019-02-24T13:18:05Z</time>
      </trkpt>
      <trkpt lat="46.4409800" lon="6.8908890">
        <ele>384.9</ele>
        <time>2019-02-24T13:18:06Z</time>
      </trkpt>
      <trkpt lat="46.4409800" lon="6.8908870">
        <ele>384.9</ele>
        <time>2019-02-24T13:18:07Z</time>
      </trkpt>
      <trkpt lat="46.4409810" lon="6.8908850">
        <ele>384.9</ele>
        <time>2019-02-24T13:18:08Z</time>
      </trkpt>
      <trkpt lat="46.4409810" lon="6.8908840">
        <ele>384.9</ele>
        <time>2019-02-24T13:18:09Z</time>
      </trkpt>
      <trkpt lat="46.4409810" lon="6.8908820">
        <ele>384.9</ele>
        <time>2019-02-24T13:18:10Z</time>
      </trkpt>
      <trkpt lat="46.4409820" lon="6.8908800">
        <ele>384.9</ele>
        <time>2019-02-24T13:18:11Z</time>
      </trkpt>
      <trkpt lat="46.4409820" lon="6.8908790">
        <ele>384.9</ele>
        <time>2019-02-24T13:18:12Z</time>
      </trkpt>
      <trkpt lat="46.4409830" lon="6.8908770">
        <ele>384.9</ele>
        <time>2019-02-24T13:18:13Z</time>
      </trkpt>
      <trkpt lat="46.4409830" lon="6.8908750">
        <ele>384.9</ele>
        <time>2019-02-24T13:18:14Z</time>
      </trkpt>
      <trkpt lat="46.4409830" lon="6.8908740">
        <ele>384.9</ele>
        <time>2019-02-24T13:18:15Z</time>
      </trkpt>
      <trkpt lat="46.4409840" lon="6.8908720">
        <ele>384.9</ele>
        <time>2019-02-24T13:18:16Z</time>
      </trkpt>
      <trkpt lat="46.4409840" lon="6.8908700">
        <ele>384.9</ele>
        <time>2019-02-24T13:18:17Z</time>
      </trkpt>
      <trkpt lat="46.4409850" lon="6.8908690">
        <ele>384.9</ele>
        <time>2019-02-24T13:18:18Z</time>
      </trkpt>
      <trkpt lat="46.4409850" lon="6.8908670">
        <ele>384.9</ele>
        <time>2019-02-24T13:18:19Z</time>
      </trkpt>
      <trkpt lat="46.4409960" lon="6.8908390">
        <ele>385.0</ele>
        <time>2019-02-24T13:18:20Z</time>
      </trkpt>
      <trkpt lat="46.4410080" lon="6.8908060">
        <ele>385.1</ele>
        <time>2019-02-24T13:18:21Z</time>
      </trkpt>
      <trkpt lat="46.4410220" lon="6.8907690">
        <ele>385.1</ele>
        <time>2019-02-24T13:18:22Z</time>
      </trkpt>
      <trkpt lat="46.4410370" lon="6.8907290">
        <ele>385.2</ele>
        <time>2019-02-24T13:18:23Z</time>
      </trkpt>
      <trkpt lat="46.4410540" lon="6.8906860">
        <ele>385.3</ele>
        <time>2019-02-24T13:18:24Z</time>
      </trkpt>
      <trkpt lat="46.4410700" lon="6.8906410">
        <ele>385.4</ele>
        <time>2019-02-24T13:18:25Z</time>
      </trkpt>
      <trkpt lat="46.4410880" lon="6.8905960">
        <ele>385.4</ele>
        <time>2019-02-24T13:18:26Z</time>
      </trkpt>
      <trkpt lat="46.4411050" lon="6.8905500">
        <ele>385.5</ele>
        <time>2019-02-24T13:18:27Z</time>
      </trkpt>
      <trkpt lat="46.4411220" lon="6.8905030">
        <ele>385.5</ele>
        <time>2019-02-24T13:18:28Z</time>
      </trkpt>
      <trkpt lat="46.4411520" lon="6.8904250">
        <ele>385.6</ele>
        <time>2019-02-24T13:18:29Z</time>
      </trkpt>
      <trkpt lat="46.4411640" lon="6.8903930">
        <ele>385.7</ele>
        <time>2019-02-24T13:18:30Z</time>
      </trkpt>
      <trkpt lat="46.4411760" lon="6.8903620">
        <ele>385.7</ele>
        <time>2019-02-24T13:18:31Z</time>
      </trkpt>
      <trkpt lat="46.4411940" lon="6.8903150">
        <ele>385.8</ele>
        <time>2019-02-24T13:18:32Z</time>
      </trkpt>
      <trkpt lat="46.4412130" lon="6.8902690">
        <ele>385.8</ele>
        <time>2019-02-24T13:18:33Z</time>
      </trkpt>
      <trkpt lat="46.4412320" lon="6.8902240">
        <ele>385.9</ele>
        <time>2019-02-24T13:18:34Z</time>
      </trkpt>
      <trkpt lat="46.4412510" lon="6.8901800">
        <ele>386.0</ele>
        <time>2019-02-24T13:18:35Z</time>
      </trkpt>
      <trkpt lat="46.4412710" lon="6.8901350">
        <ele>386.0</ele>
        <time>2019-02-24T13:18:36Z</time>
      </trkpt>
      <trkpt lat="46.4412910" lon="6.8900900">
        <ele>386.1</ele>
        <time>2019-02-24T13:18:37Z</time>
      </trkpt>
      <trkpt lat="46.4413110" lon="6.8900440">
        <ele>386.2</ele>
        <time>2019-02-24T13:18:38Z</time>
      </trkpt>
      <trkpt lat="46.4413320" lon="6.8899970">
        <ele>386.3</ele>
        <time>2019-02-24T13:18:39Z</time>
      </trkpt>
      <trkpt lat="46.4413540" lon="6.8899470">
        <ele>386.4</ele>
        <time>2019-02-24T13:18:40Z</time>
      </trkpt>
      <trkpt lat="46.4413760" lon="6.8898950">
        <ele>386.4</ele>
        <time>2019-02-24T13:18:41Z</time>
      </trkpt>
      <trkpt lat="46.4413990" lon="6.8898390">
        <ele>386.3</ele>
        <time>2019-02-24T13:18:42Z</time>
      </trkpt>
      <trkpt lat="46.4414220" lon="6.8897810">
        <ele>386.3</ele>
        <time>2019-02-24T13:18:43Z</time>
      </trkpt>
      <trkpt lat="46.4414460" lon="6.8897200">
        <ele>386.2</ele>
        <time>2019-02-24T13:18:44Z</time>
      </trkpt>
      <trkpt lat="46.4414710" lon="6.8896570">
        <ele>386.1</ele>
        <time>2019-02-24T13:18:45Z</time>
      </trkpt>
      <trkpt lat="46.4414960" lon="6.8895900">
        <ele>385.8</ele>
        <time>2019-02-24T13:18:46Z</time>
      </trkpt>
      <trkpt lat="46.4415220" lon="6.8895220">
        <ele>385.5</ele>
        <time>2019-02-24T13:18:47Z</time>
      </trkpt>
      <trkpt lat="46.4415480" lon="6.8894510">
        <ele>385.3</ele>
        <time>2019-02-24T13:18:48Z</time>
      </trkpt>
      <trkpt lat="46.4415890" lon="6.8893410">
        <ele>384.9</ele>
        <time>2019-02-24T13:18:49Z</time>
      </trkpt>
      <trkpt lat="46.4416020" lon="6.8893040">
        <ele>384.8</ele>
        <time>2019-02-24T13:18:50Z</time>
      </trkpt>
      <trkpt lat="46.4416290" lon="6.8892270">
        <ele>384.7</ele>
        <time>2019-02-24T13:18:51Z</time>
      </trkpt>
      <trkpt lat="46.4416570" lon="6.8891490">
        <ele>384.5</ele>
        <time>2019-02-24T13:18:52Z</time>
      </trkpt>
      <trkpt lat="46.4416850" lon="6.8890700">
        <ele>384.4</ele>
        <time>2019-02-24T13:18:53Z</time>
      </trkpt>
      <trkpt lat="46.4417140" lon="6.8889890">
        <ele>384.3</ele>
        <time>2019-02-24T13:18:54Z</time>
      </trkpt>
      <trkpt lat="46.4417430" lon="6.8889070">
        <ele>384.1</ele>
        <time>2019-02-24T13:18:55Z</time>
      </trkpt>
      <trkpt lat="46.4417720" lon="6.8888250">
        <ele>383.9</ele>
        <time>2019-02-24T13:18:56Z</time>
      </trkpt>
      <trkpt lat="46.4418020" lon="6.8887420">
        <ele>383.6</ele>
        <time>2019-02-24T13:18:57Z</time>
      </trkpt>
      <trkpt lat="46.4418310" lon="6.8886590">
        <ele>383.3</ele>
        <time>2019-02-24T13:18:58Z</time>
      </trkpt>
      <trkpt lat="46.4418610" lon="6.8885750">
        <ele>383.0</ele>
        <time>2019-02-24T13:18:59Z</time>
      </trkpt>
      <trkpt lat="46.4418910" lon="6.8884910">
        <ele>382.8</ele>
        <time>2019-02-24T13:19:00Z</time>
      </trkpt>
      <trkpt lat="46.4419210" lon="6.8884080">
        <ele>382.6</ele>
        <time>2019-02-24T13:19:01Z</time>
      </trkpt>
      <trkpt lat="46.4419510" lon="6.8883240">
        <ele>382.4</ele>
        <time>2019-02-24T13:19:02Z</time>
      </trkpt>
      <trkpt lat="46.4419820" lon="6.8882420">
        <ele>382.2</ele>
        <time>2019-02-24T13:19:03Z</time>
      </trkpt>
      <trkpt lat="46.4420120" lon="6.8881600">
        <ele>382.0</ele>
        <time>2019-02-24T13:19:04Z</time>
      </trkpt>
      <trkpt lat="46.4420430" lon="6.8880790">
        <ele>381.7</ele>
        <time>2019-02-24T13:19:05Z</time>
      </trkpt>
      <trkpt lat="46.4420730" lon="6.8879990">
        <ele>381.4</ele>
        <time>2019-02-24T13:19:06Z</time>
      </trkpt>
      <trkpt lat="46.4421030" lon="6.8879200">
        <ele>381.1</ele>
        <time>2019-02-24T13:19:07Z</time>
      </trkpt>
      <trkpt lat="46.4421340" lon="6.8878410">
        <ele>380.8</ele>
        <time>2019-02-24T13:19:08Z</time>
      </trkpt>
      <trkpt lat="46.4421640" lon="6.8877620">
        <ele>380.3</ele>
        <time>2019-02-24T13:19:09Z</time>
      </trkpt>
      <trkpt lat="46.4421940" lon="6.8876830">
        <ele>380.1</ele>
        <time>2019-02-24T13:19:10Z</time>
      </trkpt>
      <trkpt lat="46.4422240" lon="6.8876030">
        <ele>379.9</ele>
        <time>2019-02-24T13:19:11Z</time>
      </trkpt>
      <trkpt lat="46.4422540" lon="6.8875220">
        <ele>379.7</ele>
        <time>2019-02-24T13:19:12Z</time>
      </trkpt>
      <trkpt lat="46.4422840" lon="6.8874400">
        <ele>379.5</ele>
        <time>2019-02-24T13:19:13Z</time>
      </trkpt>
      <trkpt lat="46.4423140" lon="6.8873570">
        <ele>379.2</ele>
        <time>2019-02-24T13:19:14Z</time>
      </trkpt>
      <trkpt lat="46.4423440" lon="6.8872710">
        <ele>379.0</ele>
        <time>2019-02-24T13:19:15Z</time>
      </trkpt>
      <trkpt lat="46.4423740" lon="6.8871850">
        <ele>378.8</ele>
        <time>2019-02-24T13:19:16Z</time>
      </trkpt>
      <trkpt lat="46.4424040" lon="6.8870960">
        <ele>378.5</ele>
        <time>2019-02-24T13:19:17Z</time>
      </trkpt>
      <trkpt lat="46.4424320" lon="6.8870060">
        <ele>378.5</ele>
        <time>2019-02-24T13:19:18Z</time>
      </trkpt>
      <trkpt lat="46.4424590" lon="6.8869150">
        <ele>378.5</ele>
        <time>2019-02-24T13:19:19Z</time>
      </trkpt>
      <trkpt lat="46.4424840" lon="6.8868220">
        <ele>378.5</ele>
        <time>2019-02-24T13:19:20Z</time>
      </trkpt>
      <trkpt lat="46.4425070" lon="6.8867280">
        <ele>378.4</ele>
        <time>2019-02-24T13:19:21Z</time>
      </trkpt>
      <trkpt lat="46.4425280" lon="6.8866330">
        <ele>378.5</ele>
        <time>2019-02-24T13:19:22Z</time>
      </trkpt>
      <trkpt lat="46.4425450" lon="6.8865370">
        <ele>378.5</ele>
        <time>2019-02-24T13:19:23Z</time>
      </trkpt>
      <trkpt lat="46.4425600" lon="6.8864390">
        <ele>378.5</ele>
        <time>2019-02-24T13:19:24Z</time>
      </trkpt>
      <trkpt lat="46.4425730" lon="6.8863420">
        <ele>378.6</ele>
        <time>2019-02-24T13:19:25Z</time>
      </trkpt>
      <trkpt lat="46.4425840" lon="6.8862440">
        <ele>378.6</ele>
        <time>2019-02-24T13:19:26Z</time>
      </trkpt>
      <trkpt lat="46.4425930" lon="6.8861470">
        <ele>378.7</ele>
        <time>2019-02-24T13:19:27Z</time>
      </trkpt>
      <trkpt lat="46.4426010" lon="6.8860510">
        <ele>378.7</ele>
        <time>2019-02-24T13:19:28Z</time>
      </trkpt>
      <trkpt lat="46.4426080" lon="6.8859550">
        <ele>378.8</ele>
        <time>2019-02-24T13:19:29Z</time>
      </trkpt>
      <trkpt lat="46.4426150" lon="6.8858620">
        <ele>378.9</ele>
        <time>2019-02-24T13:19:30Z</time>
      </trkpt>
      <trkpt lat="46.4426210" lon="6.8857710">
        <ele>378.9</ele>
        <time>2019-02-24T13:19:31Z</time>
      </trkpt>
      <trkpt lat="46.4426270" lon="6.8856830">
        <ele>379.0</ele>
        <time>2019-02-24T13:19:32Z</time>
      </trkpt>
      <trkpt lat="46.4426330" lon="6.8856010">
        <ele>379.0</ele>
        <time>2019-02-24T13:19:33Z</time>
      </trkpt>
      <trkpt lat="46.4426390" lon="6.8855270">
        <ele>379.2</ele>
        <time>2019-02-24T13:19:34Z</time>
      </trkpt>
      <trkpt lat="46.4426440" lon="6.8854600">
        <ele>379.3</ele>
        <time>2019-02-24T13:19:35Z</time>
      </trkpt>
      <trkpt lat="46.4426480" lon="6.8854000">
        <ele>379.3</ele>
        <time>2019-02-24T13:19:36Z</time>
      </trkpt>
      <trkpt lat="46.4426510" lon="6.8853440">
        <ele>379.4</ele>
        <time>2019-02-24T13:19:37Z</time>
      </trkpt>
      <trkpt lat="46.4426520" lon="6.8852890">
        <ele>379.5</ele>
        <time>2019-02-24T13:19:38Z</time>
      </trkpt>
      <trkpt lat="46.4426510" lon="6.8852320">
        <ele>379.6</ele>
        <time>2019-02-24T13:19:39Z</time>
      </trkpt>
      <trkpt lat="46.4426480" lon="6.8851740">
        <ele>379.7</ele>
        <time>2019-02-24T13:19:40Z</time>
      </trkpt>
      <trkpt lat="46.4426420" lon="6.8851130">
        <ele>379.8</ele>
        <time>2019-02-24T13:19:41Z</time>
      </trkpt>
      <trkpt lat="46.4426330" lon="6.8850510">
        <ele>379.8</ele>
        <time>2019-02-24T13:19:42Z</time>
      </trkpt>
      <trkpt lat="46.4426220" lon="6.8849850">
        <ele>379.7</ele>
        <time>2019-02-24T13:19:43Z</time>
      </trkpt>
      <trkpt lat="46.4426080" lon="6.8849190">
        <ele>379.6</ele>
        <time>2019-02-24T13:19:44Z</time>
      </trkpt>
      <trkpt lat="46.4425930" lon="6.8848510">
        <ele>379.4</ele>
        <time>2019-02-24T13:19:45Z</time>
      </trkpt>
      <trkpt lat="46.4425760" lon="6.8847840">
        <ele>379.3</ele>
        <time>2019-02-24T13:19:46Z</time>
      </trkpt>
      <trkpt lat="46.4425590" lon="6.8847180">
        <ele>379.1</ele>
        <time>2019-02-24T13:19:47Z</time>
      </trkpt>
      <trkpt lat="46.4425400" lon="6.8846530">
        <ele>379.0</ele>
        <time>2019-02-24T13:19:48Z</time>
      </trkpt>
      <trkpt lat="46.4425190" lon="6.8845900">
        <ele>378.9</ele>
        <time>2019-02-24T13:19:49Z</time>
      </trkpt>
      <trkpt lat="46.4424950" lon="6.8845300">
        <ele>378.7</ele>
        <time>2019-02-24T13:19:50Z</time>
      </trkpt>
      <trkpt lat="46.4424680" lon="6.8844740">
        <ele>378.6</ele>
        <time>2019-02-24T13:19:51Z</time>
      </trkpt>
      <trkpt lat="46.4424380" lon="6.8844210">
        <ele>378.5</ele>
        <time>2019-02-24T13:19:52Z</time>
      </trkpt>
      <trkpt lat="46.4424060" lon="6.8843720">
        <ele>378.4</ele>
        <time>2019-02-24T13:19:53Z</time>
      </trkpt>
      <trkpt lat="46.4423740" lon="6.8843270">
        <ele>378.3</ele>
        <time>2019-02-24T13:19:54Z</time>
      </trkpt>
      <trkpt lat="46.4423400" lon="6.8842860">
        <ele>378.2</ele>
        <time>2019-02-24T13:19:55Z</time>
      </trkpt>
      <trkpt lat="46.4423070" lon="6.8842480">
        <ele>378.1</ele>
        <time>2019-02-24T13:19:56Z</time>
      </trkpt>
      <trkpt lat="46.4422740" lon="6.8842100">
        <ele>378.0</ele>
        <time>2019-02-24T13:19:57Z</time>
      </trkpt>
      <trkpt lat="46.4422430" lon="6.8841710">
        <ele>377.9</ele>
        <time>2019-02-24T13:19:58Z</time>
      </trkpt>
      <trkpt lat="46.4422130" lon="6.8841300">
        <ele>377.9</ele>
        <time>2019-02-24T13:19:59Z</time>
      </trkpt>
      <trkpt lat="46.4421860" lon="6.8840860">
        <ele>377.8</ele>
        <time>2019-02-24T13:20:00Z</time>
      </trkpt>
      <trkpt lat="46.4421600" lon="6.8840420">
        <ele>377.5</ele>
        <time>2019-02-24T13:20:01Z</time>
      </trkpt>
      <trkpt lat="46.4421350" lon="6.8839970">
        <ele>377.2</ele>
        <time>2019-02-24T13:20:02Z</time>
      </trkpt>
      <trkpt lat="46.4421120" lon="6.8839520">
        <ele>376.9</ele>
        <time>2019-02-24T13:20:03Z</time>
      </trkpt>
      <trkpt lat="46.4420900" lon="6.8839080">
        <ele>376.6</ele>
        <time>2019-02-24T13:20:04Z</time>
      </trkpt>
      <trkpt lat="46.4420710" lon="6.8838640">
        <ele>376.3</ele>
        <time>2019-02-24T13:20:05Z</time>
      </trkpt>
      <trkpt lat="46.4420520" lon="6.8838190">
        <ele>376.1</ele>
        <time>2019-02-24T13:20:06Z</time>
      </trkpt>
      <trkpt lat="46.4420360" lon="6.8837740">
        <ele>375.8</ele>
        <time>2019-02-24T13:20:07Z</time>
      </trkpt>
      <trkpt lat="46.4420220" lon="6.8837290">
        <ele>375.6</ele>
        <time>2019-02-24T13:20:08Z</time>
      </trkpt>
      <trkpt lat="46.4420090" lon="6.8836830">
        <ele>375.3</ele>
        <time>2019-02-24T13:20:09Z</time>
      </trkpt>
      <trkpt lat="46.4419980" lon="6.8836360">
        <ele>375.1</ele>
        <time>2019-02-24T13:20:10Z</time>
      </trkpt>
      <trkpt lat="46.4419890" lon="6.8835880">
        <ele>374.8</ele>
        <time>2019-02-24T13:20:11Z</time>
      </trkpt>
      <trkpt lat="46.4419820" lon="6.8835390">
        <ele>374.6</ele>
        <time>2019-02-24T13:20:12Z</time>
      </trkpt>
      <trkpt lat="46.4419770" lon="6.8834900">
        <ele>374.9</ele>
        <time>2019-02-24T13:20:13Z</time>
      </trkpt>
      <trkpt lat="46.4419720" lon="6.8834400">
        <ele>375.0</ele>
        <time>2019-02-24T13:20:14Z</time>
      </trkpt>
      <trkpt lat="46.4419680" lon="6.8833900">
        <ele>375.2</ele>
        <time>2019-02-24T13:20:15Z</time>
      </trkpt>
      <trkpt lat="46.4419650" lon="6.8833400">
        <ele>375.3</ele>
        <time>2019-02-24T13:20:16Z</time>
      </trkpt>
      <trkpt lat="46.4419620" lon="6.8832890">
        <ele>375.5</ele>
        <time>2019-02-24T13:20:17Z</time>
      </trkpt>
      <trkpt lat="46.4419590" lon="6.8832390">
        <ele>375.7</ele>
        <time>2019-02-24T13:20:18Z</time>
      </trkpt>
      <trkpt lat="46.4419550" lon="6.8831900">
        <ele>375.9</ele>
        <time>2019-02-24T13:20:19Z</time>
      </trkpt>
      <trkpt lat="46.4419510" lon="6.8831400">
        <ele>376.1</ele>
        <time>2019-02-24T13:20:20Z</time>
      </trkpt>
      <trkpt lat="46.4419470" lon="6.8830910">
        <ele>376.4</ele>
        <time>2019-02-24T13:20:21Z</time>
      </trkpt>
      <trkpt lat="46.4419430" lon="6.8830430">
        <ele>376.6</ele>
        <time>2019-02-24T13:20:22Z</time>
      </trkpt>
      <trkpt lat="46.4419380" lon="6.8829940">
        <ele>376.9</ele>
        <time>2019-02-24T13:20:23Z</time>
      </trkpt>
      <trkpt lat="46.4419340" lon="6.8829460">
        <ele>377.2</ele>
        <time>2019-02-24T13:20:24Z</time>
      </trkpt>
      <trkpt lat="46.4419300" lon="6.8828980">
        <ele>377.4</ele>
        <time>2019-02-24T13:20:25Z</time>
      </trkpt>
      <trkpt lat="46.4419260" lon="6.8828500">
        <ele>377.4</ele>
        <time>2019-02-24T13:20:26Z</time>
      </trkpt>
      <trkpt lat="46.4419220" lon="6.8828020">
        <ele>377.3</ele>
        <time>2019-02-24T13:20:27Z</time>
      </trkpt>
      <trkpt lat="46.4419190" lon="6.8827540">
        <ele>377.3</ele>
        <time>2019-02-24T13:20:28Z</time>
      </trkpt>
      <trkpt lat="46.4419160" lon="6.8827060">
        <ele>377.2</ele>
        <time>2019-02-24T13:20:29Z</time>
      </trkpt>
      <trkpt lat="46.4419140" lon="6.8826570">
        <ele>377.2</ele>
        <time>2019-02-24T13:20:30Z</time>
      </trkpt>
      <trkpt lat="46.4419130" lon="6.8826090">
        <ele>377.2</ele>
        <time>2019-02-24T13:20:31Z</time>
      </trkpt>
      <trkpt lat="46.4419130" lon="6.8825600">
        <ele>377.3</ele>
        <time>2019-02-24T13:20:32Z</time>
      </trkpt>
      <trkpt lat="46.4419140" lon="6.8825100">
        <ele>377.4</ele>
        <time>2019-02-24T13:20:33Z</time>
      </trkpt>
      <trkpt lat="46.4419160" lon="6.8824600">
        <ele>377.5</ele>
        <time>2019-02-24T13:20:34Z</time>
      </trkpt>
      <trkpt lat="46.4419200" lon="6.8824090">
        <ele>377.6</ele>
        <time>2019-02-24T13:20:35Z</time>
      </trkpt>
      <trkpt lat="46.4419250" lon="6.8823580">
        <ele>377.7</ele>
        <time>2019-02-24T13:20:36Z</time>
      </trkpt>
      <trkpt lat="46.4419320" lon="6.8823070">
        <ele>377.8</ele>
        <time>2019-02-24T13:20:37Z</time>
      </trkpt>
      <trkpt lat="46.4419400" lon="6.8822560">
        <ele>377.9</ele>
        <time>2019-02-24T13:20:38Z</time>
      </trkpt>
      <trkpt lat="46.4419500" lon="6.8822050">
        <ele>377.9</ele>
        <time>2019-02-24T13:20:39Z</time>
      </trkpt>
      <trkpt lat="46.4419600" lon="6.8821540">
        <ele>378.0</ele>
        <time>2019-02-24T13:20:40Z</time>
      </trkpt>
      <trkpt lat="46.4419730" lon="6.8821040">
        <ele>378.1</ele>
        <time>2019-02-24T13:20:41Z</time>
      </trkpt>
      <trkpt lat="46.4419870" lon="6.8820550">
        <ele>378.1</ele>
        <time>2019-02-24T13:20:42Z</time>
      </trkpt>
      <trkpt lat="46.4420020" lon="6.8820060">
        <ele>378.2</ele>
        <time>2019-02-24T13:20:43Z</time>
      </trkpt>
      <trkpt lat="46.4420180" lon="6.8819590">
        <ele>378.3</ele>
        <time>2019-02-24T13:20:44Z</time>
      </trkpt>
      <trkpt lat="46.4420360" lon="6.8819130">
        <ele>378.3</ele>
        <time>2019-02-24T13:20:45Z</time>
      </trkpt>
      <trkpt lat="46.4420550" lon="6.8818670">
        <ele>378.4</ele>
        <time>2019-02-24T13:20:46Z</time>
      </trkpt>
      <trkpt lat="46.4420750" lon="6.8818220">
        <ele>378.4</ele>
        <time>2019-02-24T13:20:47Z</time>
      </trkpt>
      <trkpt lat="46.4420950" lon="6.8817780">
        <ele>378.4</ele>
        <time>2019-02-24T13:20:48Z</time>
      </trkpt>
      <trkpt lat="46.4421170" lon="6.8817340">
        <ele>378.5</ele>
        <time>2019-02-24T13:20:49Z</time>
      </trkpt>
      <trkpt lat="46.4421390" lon="6.8816900">
        <ele>378.5</ele>
        <time>2019-02-24T13:20:50Z</time>
      </trkpt>
      <trkpt lat="46.4421620" lon="6.8816460">
        <ele>378.5</ele>
        <time>2019-02-24T13:20:51Z</time>
      </trkpt>
      <trkpt lat="46.4421850" lon="6.8816020">
        <ele>378.6</ele>
        <time>2019-02-24T13:20:52Z</time>
      </trkpt>
      <trkpt lat="46.4422090" lon="6.8815580">
        <ele>378.6</ele>
        <time>2019-02-24T13:20:53Z</time>
      </trkpt>
      <trkpt lat="46.4422330" lon="6.8815140">
        <ele>378.6</ele>
        <time>2019-02-24T13:20:54Z</time>
      </trkpt>
      <trkpt lat="46.4422570" lon="6.8814690">
        <ele>378.6</ele>
        <time>2019-02-24T13:20:55Z</time>
      </trkpt>
      <trkpt lat="46.4422810" lon="6.8814250">
        <ele>378.4</ele>
        <time>2019-02-24T13:20:56Z</time>
      </trkpt>
      <trkpt lat="46.4423050" lon="6.8813790">
        <ele>378.3</ele>
        <time>2019-02-24T13:20:57Z</time>
      </trkpt>
      <trkpt lat="46.4423290" lon="6.8813330">
        <ele>378.2</ele>
        <time>2019-02-24T13:20:58Z</time>
      </trkpt>
      <trkpt lat="46.4423530" lon="6.8812860">
        <ele>378.1</ele>
        <time>2019-02-24T13:20:59Z</time>
      </trkpt>
      <trkpt lat="46.4423760" lon="6.8812380">
        <ele>377.9</ele>
        <time>2019-02-24T13:21:00Z</time>
      </trkpt>
      <trkpt lat="46.4424000" lon="6.8811890">
        <ele>377.8</ele>
        <time>2019-02-24T13:21:01Z</time>
      </trkpt>
      <trkpt lat="46.4424390" lon="6.8811070">
        <ele>377.6</ele>
        <time>2019-02-24T13:21:02Z</time>
      </trkpt>
      <trkpt lat="46.4424540" lon="6.8810740">
        <ele>377.5</ele>
        <time>2019-02-24T13:21:03Z</time>
      </trkpt>
      <trkpt lat="46.4424700" lon="6.8810410">
        <ele>377.6</ele>
        <time>2019-02-24T13:21:04Z</time>
      </trkpt>
      <trkpt lat="46.4424940" lon="6.8809910">
        <ele>377.7</ele>
        <time>2019-02-24T13:21:05Z</time>
      </trkpt>
      <trkpt lat="46.4425170" lon="6.8809410">
        <ele>377.9</ele>
        <time>2019-02-24T13:21:06Z</time>
      </trkpt>
      <trkpt lat="46.4425580" lon="6.8808570">
        <ele>378.1</ele>
        <time>2019-02-24T13:21:07Z</time>
      </trkpt>
      <trkpt lat="46.4425750" lon="6.8808230">
        <ele>378.2</ele>
        <time>2019-02-24T13:21:08Z</time>
      </trkpt>
      <trkpt lat="46.4425910" lon="6.8807900">
        <ele>378.4</ele>
        <time>2019-02-24T13:21:09Z</time>
      </trkpt>
      <trkpt lat="46.4426170" lon="6.8807390">
        <ele>378.5</ele>
        <time>2019-02-24T13:21:10Z</time>
      </trkpt>
      <trkpt lat="46.4426430" lon="6.8806890">
        <ele>378.7</ele>
        <time>2019-02-24T13:21:11Z</time>
      </trkpt>
      <trkpt lat="46.4426690" lon="6.8806400">
        <ele>378.7</ele>
        <time>2019-02-24T13:21:12Z</time>
      </trkpt>
      <trkpt lat="46.4426970" lon="6.8805910">
        <ele>378.8</ele>
        <time>2019-02-24T13:21:13Z</time>
      </trkpt>
      <trkpt lat="46.4427250" lon="6.8805420">
        <ele>378.8</ele>
        <time>2019-02-24T13:21:14Z</time>
      </trkpt>
      <trkpt lat="46.4427540" lon="6.8804950">
        <ele>378.8</ele>
        <time>2019-02-24T13:21:15Z</time>
      </trkpt>
      <trkpt lat="46.4427840" lon="6.8804470">
        <ele>379.0</ele>
        <time>2019-02-24T13:21:16Z</time>
      </trkpt>
      <trkpt lat="46.4428150" lon="6.8804010">
        <ele>379.3</ele>
        <time>2019-02-24T13:21:17Z</time>
      </trkpt>
      <trkpt lat="46.4428470" lon="6.8803560">
        <ele>379.6</ele>
        <time>2019-02-24T13:21:18Z</time>
      </trkpt>
      <trkpt lat="46.4428790" lon="6.8803110">
        <ele>379.9</ele>
        <time>2019-02-24T13:21:19Z</time>
      </trkpt>
      <trkpt lat="46.4429130" lon="6.8802680">
        <ele>380.3</ele>
        <time>2019-02-24T13:21:20Z</time>
      </trkpt>
      <trkpt lat="46.4429470" lon="6.8802260">
        <ele>380.8</ele>
        <time>2019-02-24T13:21:21Z</time>
      </trkpt>
      <trkpt lat="46.4429820" lon="6.8801860">
        <ele>381.2</ele>
        <time>2019-02-24T13:21:22Z</time>
      </trkpt>
      <trkpt lat="46.4430180" lon="6.8801470">
        <ele>381.6</ele>
        <time>2019-02-24T13:21:23Z</time>
      </trkpt>
      <trkpt lat="46.4430540" lon="6.8801090">
        <ele>381.9</ele>
        <time>2019-02-24T13:21:24Z</time>
      </trkpt>
      <trkpt lat="46.4430920" lon="6.8800730">
        <ele>382.3</ele>
        <time>2019-02-24T13:21:25Z</time>
      </trkpt>
      <trkpt lat="46.4431300" lon="6.8800390">
        <ele>382.7</ele>
        <time>2019-02-24T13:21:26Z</time>
      </trkpt>
      <trkpt lat="46.4431690" lon="6.8800060">
        <ele>383.0</ele>
        <time>2019-02-24T13:21:27Z</time>
      </trkpt>
      <trkpt lat="46.4432090" lon="6.8799750">
        <ele>383.2</ele>
        <time>2019-02-24T13:21:28Z</time>
      </trkpt>
      <trkpt lat="46.4432500" lon="6.8799460">
        <ele>383.4</ele>
        <time>2019-02-24T13:21:29Z</time>
      </trkpt>
      <trkpt lat="46.4432910" lon="6.8799180">
        <ele>383.6</ele>
        <time>2019-02-24T13:21:30Z</time>
      </trkpt>
      <trkpt lat="46.4433330" lon="6.8798930">
        <ele>383.8</ele>
        <time>2019-02-24T13:21:31Z</time>
      </trkpt>
      <trkpt lat="46.4433750" lon="6.8798690">
        <ele>384.0</ele>
        <time>2019-02-24T13:21:32Z</time>
      </trkpt>
      <trkpt lat="46.4434190" lon="6.8798460">
        <ele>384.3</ele>
        <time>2019-02-24T13:21:33Z</time>
      </trkpt>
      <trkpt lat="46.4434620" lon="6.8798250">
        <ele>384.1</ele>
        <time>2019-02-24T13:21:34Z</time>
      </trkpt>
      <trkpt lat="46.4435070" lon="6.8798060">
        <ele>383.9</ele>
        <time>2019-02-24T13:21:35Z</time>
      </trkpt>
      <trkpt lat="46.4435520" lon="6.8797870">
        <ele>383.7</ele>
        <time>2019-02-24T13:21:36Z</time>
      </trkpt>
      <trkpt lat="46.4435970" lon="6.8797680">
        <ele>383.5</ele>
        <time>2019-02-24T13:21:37Z</time>
      </trkpt>
      <trkpt lat="46.4436440" lon="6.8797510">
        <ele>383.3</ele>
        <time>2019-02-24T13:21:38Z</time>
      </trkpt>
      <trkpt lat="46.4436900" lon="6.8797330">
        <ele>383.1</ele>
        <time>2019-02-24T13:21:39Z</time>
      </trkpt>
      <trkpt lat="46.4437370" lon="6.8797150">
        <ele>383.0</ele>
        <time>2019-02-24T13:21:40Z</time>
      </trkpt>
      <trkpt lat="46.4437850" lon="6.8796970">
        <ele>382.8</ele>
        <time>2019-02-24T13:21:41Z</time>
      </trkpt>
      <trkpt lat="46.4438330" lon="6.8796800">
        <ele>382.7</ele>
        <time>2019-02-24T13:21:42Z</time>
      </trkpt>
      <trkpt lat="46.4438820" lon="6.8796620">
        <ele>382.6</ele>
        <time>2019-02-24T13:21:43Z</time>
      </trkpt>
      <trkpt lat="46.4439310" lon="6.8796430">
        <ele>382.5</ele>
        <time>2019-02-24T13:21:44Z</time>
      </trkpt>
      <trkpt lat="46.4439810" lon="6.8796250">
        <ele>382.4</ele>
        <time>2019-02-24T13:21:45Z</time>
      </trkpt>
      <trkpt lat="46.4440320" lon="6.8796070">
        <ele>382.2</ele>
        <time>2019-02-24T13:21:46Z</time>
      </trkpt>
      <trkpt lat="46.4440830" lon="6.8795880">
        <ele>382.1</ele>
        <time>2019-02-24T13:21:47Z</time>
      </trkpt>
      <trkpt lat="46.4441340" lon="6.8795690">
        <ele>381.9</ele>
        <time>2019-02-24T13:21:48Z</time>
      </trkpt>
      <trkpt lat="46.4441870" lon="6.8795490">
        <ele>381.7</ele>
        <time>2019-02-24T13:21:49Z</time>
      </trkpt>
      <trkpt lat="46.4442390" lon="6.8795300">
        <ele>381.5</ele>
        <time>2019-02-24T13:21:50Z</time>
      </trkpt>
      <trkpt lat="46.4442920" lon="6.8795100">
        <ele>381.3</ele>
        <time>2019-02-24T13:21:51Z</time>
      </trkpt>
      <trkpt lat="46.4443460" lon="6.8794900">
        <ele>381.2</ele>
        <time>2019-02-24T13:21:52Z</time>
      </trkpt>
      <trkpt lat="46.4443990" lon="6.8794700">
        <ele>381.0</ele>
        <time>2019-02-24T13:21:53Z</time>
      </trkpt>
      <trkpt lat="46.4444530" lon="6.8794500">
        <ele>380.8</ele>
        <time>2019-02-24T13:21:54Z</time>
      </trkpt>
      <trkpt lat="46.4445070" lon="6.8794300">
        <ele>380.6</ele>
        <time>2019-02-24T13:21:55Z</time>
      </trkpt>
      <trkpt lat="46.4445620" lon="6.8794090">
        <ele>380.4</ele>
        <time>2019-02-24T13:21:56Z</time>
      </trkpt>
      <trkpt lat="46.4446160" lon="6.8793890">
        <ele>380.2</ele>
        <time>2019-02-24T13:21:57Z</time>
      </trkpt>
      <trkpt lat="46.4446700" lon="6.8793690">
        <ele>380.0</ele>
        <time>2019-02-24T13:21:58Z</time>
      </trkpt>
      <trkpt lat="46.4447240" lon="6.8793480">
        <ele>379.8</ele>
        <time>2019-02-24T13:21:59Z</time>
      </trkpt>
      <trkpt lat="46.4447780" lon="6.8793280">
        <ele>379.6</ele>
        <time>2019-02-24T13:22:00Z</time>
      </trkpt>
      <trkpt lat="46.4448320" lon="6.8793080">
        <ele>379.5</ele>
        <time>2019-02-24T13:22:01Z</time>
      </trkpt>
      <trkpt lat="46.4448860" lon="6.8792870">
        <ele>379.4</ele>
        <time>2019-02-24T13:22:02Z</time>
      </trkpt>
      <trkpt lat="46.4449390" lon="6.8792670">
        <ele>379.3</ele>
        <time>2019-02-24T13:22:03Z</time>
      </trkpt>
      <trkpt lat="46.4449920" lon="6.8792470">
        <ele>379.2</ele>
        <time>2019-02-24T13:22:04Z</time>
      </trkpt>
      <trkpt lat="46.4450440" lon="6.8792280">
        <ele>379.1</ele>
        <time>2019-02-24T13:22:05Z</time>
      </trkpt>
      <trkpt lat="46.4450970" lon="6.8792080">
        <ele>379.1</ele>
        <time>2019-02-24T13:22:06Z</time>
      </trkpt>
      <trkpt lat="46.4451490" lon="6.8791890">
        <ele>379.1</ele>
        <time>2019-02-24T13:22:07Z</time>
      </trkpt>
      <trkpt lat="46.4452010" lon="6.8791700">
        <ele>379.1</ele>
        <time>2019-02-24T13:22:08Z</time>
      </trkpt>
      <trkpt lat="46.4452530" lon="6.8791510">
        <ele>379.0</ele>
        <time>2019-02-24T13:22:09Z</time>
      </trkpt>
      <trkpt lat="46.4453060" lon="6.8791330">
        <ele>379.0</ele>
        <time>2019-02-24T13:22:10Z</time>
      </trkpt>
      <trkpt lat="46.4453580" lon="6.8791150">
        <ele>379.0</ele>
        <time>2019-02-24T13:22:11Z</time>
      </trkpt>
      <trkpt lat="46.4454110" lon="6.8790970">
        <ele>379.0</ele>
        <time>2019-02-24T13:22:12Z</time>
      </trkpt>
      <trkpt lat="46.4454640" lon="6.8790800">
        <ele>378.9</ele>
        <time>2019-02-24T13:22:13Z</time>
      </trkpt>
      <trkpt lat="46.4455170" lon="6.8790620">
        <ele>378.9</ele>
        <time>2019-02-24T13:22:14Z</time>
      </trkpt>
      <trkpt lat="46.4455700" lon="6.8790420">
        <ele>378.9</ele>
        <time>2019-02-24T13:22:15Z</time>
      </trkpt>
      <trkpt lat="46.4456220" lon="6.8790210">
        <ele>378.9</ele>
        <time>2019-02-24T13:22:16Z</time>
      </trkpt>
      <trkpt lat="46.4456740" lon="6.8789970">
        <ele>378.9</ele>
        <time>2019-02-24T13:22:17Z</time>
      </trkpt>
      <trkpt lat="46.4457250" lon="6.8789710">
        <ele>378.8</ele>
        <time>2019-02-24T13:22:18Z</time>
      </trkpt>
      <trkpt lat="46.4457760" lon="6.8789410">
        <ele>378.8</ele>
        <time>2019-02-24T13:22:19Z</time>
      </trkpt>
      <trkpt lat="46.4458250" lon="6.8789070">
        <ele>378.8</ele>
        <time>2019-02-24T13:22:20Z</time>
      </trkpt>
      <trkpt lat="46.4458730" lon="6.8788690">
        <ele>378.8</ele>
        <time>2019-02-24T13:22:21Z</time>
      </trkpt>
      <trkpt lat="46.4459190" lon="6.8788260">
        <ele>378.9</ele>
        <time>2019-02-24T13:22:22Z</time>
      </trkpt>
      <trkpt lat="46.4459620" lon="6.8787780">
        <ele>379.1</ele>
        <time>2019-02-24T13:22:23Z</time>
      </trkpt>
      <trkpt lat="46.4460020" lon="6.8787250">
        <ele>379.3</ele>
        <time>2019-02-24T13:22:24Z</time>
      </trkpt>
      <trkpt lat="46.4460390" lon="6.8786680">
        <ele>379.5</ele>
        <time>2019-02-24T13:22:25Z</time>
      </trkpt>
      <trkpt lat="46.4460730" lon="6.8786070">
        <ele>379.8</ele>
        <time>2019-02-24T13:22:26Z</time>
      </trkpt>
      <trkpt lat="46.4461040" lon="6.8785430">
        <ele>380.2</ele>
        <time>2019-02-24T13:22:27Z</time>
      </trkpt>
      <trkpt lat="46.4461330" lon="6.8784780">
        <ele>380.7</ele>
        <time>2019-02-24T13:22:28Z</time>
      </trkpt>
      <trkpt lat="46.4461590" lon="6.8784100">
        <ele>380.9</ele>
        <time>2019-02-24T13:22:29Z</time>
      </trkpt>
      <trkpt lat="46.4461840" lon="6.8783420">
        <ele>381.2</ele>
        <time>2019-02-24T13:22:30Z</time>
      </trkpt>
      <trkpt lat="46.4462080" lon="6.8782730">
        <ele>381.7</ele>
        <time>2019-02-24T13:22:31Z</time>
      </trkpt>
      <trkpt lat="46.4462330" lon="6.8782040">
        <ele>381.8</ele>
        <time>2019-02-24T13:22:32Z</time>
      </trkpt>
      <trkpt lat="46.4462560" lon="6.8781400">
        <ele>381.9</ele>
        <time>2019-02-24T13:22:33Z</time>
      </trkpt>
      <trkpt lat="46.4462780" lon="6.8780750">
        <ele>382.0</ele>
        <time>2019-02-24T13:22:34Z</time>
      </trkpt>
      <trkpt lat="46.4462970" lon="6.8780210">
        <ele>382.0</ele>
        <time>2019-02-24T13:22:35Z</time>
      </trkpt>
      <trkpt lat="46.4463130" lon="6.8779760">
        <ele>382.1</ele>
        <time>2019-02-24T13:22:36Z</time>
      </trkpt>
      <trkpt lat="46.4463260" lon="6.8779390">
        <ele>382.1</ele>
        <time>2019-02-24T13:22:37Z</time>
      </trkpt>
      <trkpt lat="46.4463350" lon="6.8779060">
        <ele>382.2</ele>
        <time>2019-02-24T13:22:38Z</time>
      </trkpt>
      <trkpt lat="46.4463410" lon="6.8778730">
        <ele>382.2</ele>
        <time>2019-02-24T13:22:39Z</time>
      </trkpt>
      <trkpt lat="46.4463450" lon="6.8778390">
        <ele>382.3</ele>
        <time>2019-02-24T13:22:40Z</time>
      </trkpt>
      <trkpt lat="46.4463470" lon="6.8778010">
        <ele>382.3</ele>
        <time>2019-02-24T13:22:41Z</time>
      </trkpt>
      <trkpt lat="46.4463520" lon="6.8777600">
        <ele>382.4</ele>
        <time>2019-02-24T13:22:42Z</time>
      </trkpt>
      <trkpt lat="46.4463620" lon="6.8777150">
        <ele>382.4</ele>
        <time>2019-02-24T13:22:43Z</time>
      </trkpt>
      <trkpt lat="46.4463790" lon="6.8776650">
        <ele>382.4</ele>
        <time>2019-02-24T13:22:44Z</time>
      </trkpt>
      <trkpt lat="46.4464020" lon="6.8776120">
        <ele>382.4</ele>
        <time>2019-02-24T13:22:45Z</time>
      </trkpt>
      <trkpt lat="46.4464270" lon="6.8775560">
        <ele>382.4</ele>
        <time>2019-02-24T13:22:46Z</time>
      </trkpt>
      <trkpt lat="46.4464540" lon="6.8774970">
        <ele>382.4</ele>
        <time>2019-02-24T13:22:47Z</time>
      </trkpt>
      <trkpt lat="46.4464790" lon="6.8774380">
        <ele>382.4</ele>
        <time>2019-02-24T13:22:48Z</time>
      </trkpt>
      <trkpt lat="46.4465020" lon="6.8773780">
        <ele>382.4</ele>
        <time>2019-02-24T13:22:49Z</time>
      </trkpt>
      <trkpt lat="46.4465250" lon="6.8773170">
        <ele>382.4</ele>
        <time>2019-02-24T13:22:50Z</time>
      </trkpt>
      <trkpt lat="46.4465610" lon="6.8772170">
        <ele>382.5</ele>
        <time>2019-02-24T13:22:51Z</time>
      </trkpt>
      <trkpt lat="46.4465760" lon="6.8771770">
        <ele>382.5</ele>
        <time>2019-02-24T13:22:52Z</time>
      </trkpt>
      <trkpt lat="46.4465900" lon="6.8771370">
        <ele>382.5</ele>
        <time>2019-02-24T13:22:53Z</time>
      </trkpt>
      <trkpt lat="46.4466120" lon="6.8770780">
        <ele>382.6</ele>
        <time>2019-02-24T13:22:54Z</time>
      </trkpt>
      <trkpt lat="46.4466330" lon="6.8770190">
        <ele>382.7</ele>
        <time>2019-02-24T13:22:55Z</time>
      </trkpt>
      <trkpt lat="46.4466680" lon="6.8769230">
        <ele>382.8</ele>
        <time>2019-02-24T13:22:56Z</time>
      </trkpt>
      <trkpt lat="46.4466830" lon="6.8768840">
        <ele>382.9</ele>
        <time>2019-02-24T13:22:57Z</time>
      </trkpt>
      <trkpt lat="46.4466970" lon="6.8768460">
        <ele>382.9</ele>
        <time>2019-02-24T13:22:58Z</time>
      </trkpt>
      <trkpt lat="46.4467180" lon="6.8767890">
        <ele>383.0</ele>
        <time>2019-02-24T13:22:59Z</time>
      </trkpt>
      <trkpt lat="46.4467390" lon="6.8767320">
        <ele>383.1</ele>
        <time>2019-02-24T13:23:00Z</time>
      </trkpt>
      <trkpt lat="46.4467600" lon="6.8766760">
        <ele>383.2</ele>
        <time>2019-02-24T13:23:01Z</time>
      </trkpt>
      <trkpt lat="46.4467810" lon="6.8766200">
        <ele>383.3</ele>
        <time>2019-02-24T13:23:02Z</time>
      </trkpt>
      <trkpt lat="46.4468020" lon="6.8765650">
        <ele>383.3</ele>
        <time>2019-02-24T13:23:03Z</time>
      </trkpt>
      <trkpt lat="46.4468230" lon="6.8765100">
        <ele>383.3</ele>
        <time>2019-02-24T13:23:04Z</time>
      </trkpt>
      <trkpt lat="46.4468440" lon="6.8764550">
        <ele>383.3</ele>
        <time>2019-02-24T13:23:05Z</time>
      </trkpt>
      <trkpt lat="46.4468650" lon="6.8764010">
        <ele>383.3</ele>
        <time>2019-02-24T13:23:06Z</time>
      </trkpt>
      <trkpt lat="46.4468860" lon="6.8763480">
        <ele>383.3</ele>
        <time>2019-02-24T13:23:07Z</time>
      </trkpt>
      <trkpt lat="46.4469060" lon="6.8762950">
        <ele>383.3</ele>
        <time>2019-02-24T13:23:08Z</time>
      </trkpt>
      <trkpt lat="46.4469270" lon="6.8762420">
        <ele>383.3</ele>
        <time>2019-02-24T13:23:09Z</time>
      </trkpt>
      <trkpt lat="46.4469470" lon="6.8761880">
        <ele>383.3</ele>
        <time>2019-02-24T13:23:10Z</time>
      </trkpt>
      <trkpt lat="46.4469660" lon="6.8761350">
        <ele>383.3</ele>
        <time>2019-02-24T13:23:11Z</time>
      </trkpt>
      <trkpt lat="46.4469850" lon="6.8760800">
        <ele>383.3</ele>
        <time>2019-02-24T13:23:12Z</time>
      </trkpt>
      <trkpt lat="46.4470030" lon="6.8760240">
        <ele>383.3</ele>
        <time>2019-02-24T13:23:13Z</time>
      </trkpt>
      <trkpt lat="46.4470190" lon="6.8759660">
        <ele>383.3</ele>
        <time>2019-02-24T13:23:14Z</time>
      </trkpt>
      <trkpt lat="46.4470350" lon="6.8759060">
        <ele>383.3</ele>
        <time>2019-02-24T13:23:15Z</time>
      </trkpt>
      <trkpt lat="46.4470490" lon="6.8758450">
        <ele>383.3</ele>
        <time>2019-02-24T13:23:16Z</time>
      </trkpt>
      <trkpt lat="46.4470610" lon="6.8757810">
        <ele>383.3</ele>
        <time>2019-02-24T13:23:17Z</time>
      </trkpt>
      <trkpt lat="46.4470730" lon="6.8757160">
        <ele>383.3</ele>
        <time>2019-02-24T13:23:18Z</time>
      </trkpt>
      <trkpt lat="46.4470850" lon="6.8756500">
        <ele>383.3</ele>
        <time>2019-02-24T13:23:19Z</time>
      </trkpt>
      <trkpt lat="46.4470970" lon="6.8755840">
        <ele>383.3</ele>
        <time>2019-02-24T13:23:20Z</time>
      </trkpt>
      <trkpt lat="46.4471090" lon="6.8755170">
        <ele>383.3</ele>
        <time>2019-02-24T13:23:21Z</time>
      </trkpt>
      <trkpt lat="46.4471230" lon="6.8754520">
        <ele>383.3</ele>
        <time>2019-02-24T13:23:22Z</time>
      </trkpt>
      <trkpt lat="46.4471370" lon="6.8753870">
        <ele>383.3</ele>
        <time>2019-02-24T13:23:23Z</time>
      </trkpt>
      <trkpt lat="46.4471540" lon="6.8753230">
        <ele>383.3</ele>
        <time>2019-02-24T13:23:24Z</time>
      </trkpt>
      <trkpt lat="46.4471720" lon="6.8752610">
        <ele>383.3</ele>
        <time>2019-02-24T13:23:25Z</time>
      </trkpt>
      <trkpt lat="46.4471920" lon="6.8751990">
        <ele>383.3</ele>
        <time>2019-02-24T13:23:26Z</time>
      </trkpt>
      <trkpt lat="46.4472130" lon="6.8751380">
        <ele>383.3</ele>
        <time>2019-02-24T13:23:27Z</time>
      </trkpt>
      <trkpt lat="46.4472360" lon="6.8750780">
        <ele>383.3</ele>
        <time>2019-02-24T13:23:28Z</time>
      </trkpt>
      <trkpt lat="46.4472600" lon="6.8750170">
        <ele>383.3</ele>
        <time>2019-02-24T13:23:29Z</time>
      </trkpt>
      <trkpt lat="46.4472860" lon="6.8749570">
        <ele>383.2</ele>
        <time>2019-02-24T13:23:30Z</time>
      </trkpt>
      <trkpt lat="46.4473130" lon="6.8748960">
        <ele>383.2</ele>
        <time>2019-02-24T13:23:31Z</time>
      </trkpt>
      <trkpt lat="46.4473420" lon="6.8748340">
        <ele>383.1</ele>
        <time>2019-02-24T13:23:32Z</time>
      </trkpt>
      <trkpt lat="46.4473720" lon="6.8747710">
        <ele>383.0</ele>
        <time>2019-02-24T13:23:33Z</time>
      </trkpt>
      <trkpt lat="46.4474030" lon="6.8747080">
        <ele>382.9</ele>
        <time>2019-02-24T13:23:34Z</time>
      </trkpt>
      <trkpt lat="46.4474360" lon="6.8746450">
        <ele>382.8</ele>
        <time>2019-02-24T13:23:35Z</time>
      </trkpt>
      <trkpt lat="46.4474700" lon="6.8745820">
        <ele>382.7</ele>
        <time>2019-02-24T13:23:36Z</time>
      </trkpt>
      <trkpt lat="46.4475060" lon="6.8745200">
        <ele>382.5</ele>
        <time>2019-02-24T13:23:37Z</time>
      </trkpt>
      <trkpt lat="46.4475440" lon="6.8744590">
        <ele>382.5</ele>
        <time>2019-02-24T13:23:38Z</time>
      </trkpt>
      <trkpt lat="46.4475840" lon="6.8743990">
        <ele>382.4</ele>
        <time>2019-02-24T13:23:39Z</time>
      </trkpt>
      <trkpt lat="46.4476260" lon="6.8743420">
        <ele>382.3</ele>
        <time>2019-02-24T13:23:40Z</time>
      </trkpt>
      <trkpt lat="46.4476700" lon="6.8742870">
        <ele>382.3</ele>
        <time>2019-02-24T13:23:41Z</time>
      </trkpt>
      <trkpt lat="46.4477160" lon="6.8742340">
        <ele>382.2</ele>
        <time>2019-02-24T13:23:42Z</time>
      </trkpt>
      <trkpt lat="46.4477630" lon="6.8741830">
        <ele>382.2</ele>
        <time>2019-02-24T13:23:43Z</time>
      </trkpt>
      <trkpt lat="46.4478110" lon="6.8741320">
        <ele>382.1</ele>
        <time>2019-02-24T13:23:44Z</time>
      </trkpt>
      <trkpt lat="46.4478590" lon="6.8740810">
        <ele>381.9</ele>
        <time>2019-02-24T13:23:45Z</time>
      </trkpt>
      <trkpt lat="46.4479080" lon="6.8740300">
        <ele>381.7</ele>
        <time>2019-02-24T13:23:46Z</time>
      </trkpt>
      <trkpt lat="46.4479560" lon="6.8739790">
        <ele>381.5</ele>
        <time>2019-02-24T13:23:47Z</time>
      </trkpt>
      <trkpt lat="46.4480040" lon="6.8739260">
        <ele>381.3</ele>
        <time>2019-02-24T13:23:48Z</time>
      </trkpt>
      <trkpt lat="46.4480500" lon="6.8738710">
        <ele>381.0</ele>
        <time>2019-02-24T13:23:49Z</time>
      </trkpt>
      <trkpt lat="46.4480950" lon="6.8738140">
        <ele>380.7</ele>
        <time>2019-02-24T13:23:50Z</time>
      </trkpt>
      <trkpt lat="46.4481390" lon="6.8737560">
        <ele>380.4</ele>
        <time>2019-02-24T13:23:51Z</time>
      </trkpt>
      <trkpt lat="46.4481810" lon="6.8736980">
        <ele>380.3</ele>
        <time>2019-02-24T13:23:52Z</time>
      </trkpt>
      <trkpt lat="46.4482210" lon="6.8736410">
        <ele>380.2</ele>
        <time>2019-02-24T13:23:53Z</time>
      </trkpt>
      <trkpt lat="46.4482580" lon="6.8735860">
        <ele>380.1</ele>
        <time>2019-02-24T13:23:54Z</time>
      </trkpt>
      <trkpt lat="46.4482920" lon="6.8735390">
        <ele>380.1</ele>
        <time>2019-02-24T13:23:55Z</time>
      </trkpt>
      <trkpt lat="46.4483190" lon="6.8735020">
        <ele>380.0</ele>
        <time>2019-02-24T13:23:56Z</time>
      </trkpt>
      <trkpt lat="46.4483400" lon="6.8734780">
        <ele>380.0</ele>
        <time>2019-02-24T13:23:57Z</time>
      </trkpt>
      <trkpt lat="46.4483530" lon="6.8734650">
        <ele>380.0</ele>
        <time>2019-02-24T13:23:58Z</time>
      </trkpt>
      <trkpt lat="46.4483530" lon="6.8734650">
        <ele>380.0</ele>
        <time>2019-02-24T13:23:59Z</time>
      </trkpt>
      <trkpt lat="46.4483530" lon="6.8734640">
        <ele>380.0</ele>
        <time>2019-02-24T13:24:00Z</time>
      </trkpt>
      <trkpt lat="46.4483530" lon="6.8734640">
        <ele>380.0</ele>
        <time>2019-02-24T13:24:01Z</time>
      </trkpt>
      <trkpt lat="46.4483530" lon="6.8734640">
        <ele>380.0</ele>
        <time>2019-02-24T13:24:02Z</time>
      </trkpt>
      <trkpt lat="46.4483530" lon="6.8734640">
        <ele>380.0</ele>
        <time>2019-02-24T13:24:03Z</time>
      </trkpt>
      <trkpt lat="46.4483540" lon="6.8734640">
        <ele>380.0</ele>
        <time>2019-02-24T13:24:04Z</time>
      </trkpt>
      <trkpt lat="46.4483540" lon="6.8734630">
        <ele>380.0</ele>
        <time>2019-02-24T13:24:05Z</time>
      </trkpt>
      <trkpt lat="46.4483540" lon="6.8734630">
        <ele>380.0</ele>
        <time>2019-02-24T13:24:06Z</time>
      </trkpt>
      <trkpt lat="46.4483540" lon="6.8734630">
        <ele>380.0</ele>
        <time>2019-02-24T13:24:07Z</time>
      </trkpt>
      <trkpt lat="46.4483540" lon="6.8734630">
        <ele>380.0</ele>
        <time>2019-02-24T13:24:08Z</time>
      </trkpt>
      <trkpt lat="46.4483540" lon="6.8734630">
        <ele>380.0</ele>
        <time>2019-02-24T13:24:09Z</time>
      </trkpt>
      <trkpt lat="46.4483540" lon="6.8734620">
        <ele>380.0</ele>
        <time>2019-02-24T13:24:10Z</time>
      </trkpt>
      <trkpt lat="46.4483540" lon="6.8734620">
        <ele>380.0</ele>
        <time>2019-02-24T13:24:11Z</time>
      </trkpt>
      <trkpt lat="46.4483540" lon="6.8734620">
        <ele>380.0</ele>
        <time>2019-02-24T13:24:12Z</time>
      </trkpt>
      <trkpt lat="46.4483540" lon="6.8734620">
        <ele>380.0</ele>
        <time>2019-02-24T13:24:13Z</time>
      </trkpt>
      <trkpt lat="46.4483540" lon="6.8734620">
        <ele>380.0</ele>
        <time>2019-02-24T13:24:14Z</time>
      </trkpt>
      <trkpt lat="46.4483540" lon="6.8734610">
        <ele>380.0</ele>
        <time>2019-02-24T13:24:15Z</time>
      </trkpt>
      <trkpt lat="46.4483540" lon="6.8734610">
        <ele>380.0</ele>
        <time>2019-02-24T13:24:16Z</time>
      </trkpt>
      <trkpt lat="46.4483550" lon="6.8734610">
        <ele>380.0</ele>
        <time>2019-02-24T13:24:17Z</time>
      </trkpt>
      <trkpt lat="46.4483550" lon="6.8734610">
        <ele>380.0</ele>
        <time>2019-02-24T13:24:18Z</time>
      </trkpt>
      <trkpt lat="46.4483550" lon="6.8734610">
        <ele>380.0</ele>
        <time>2019-02-24T13:24:19Z</time>
      </trkpt>
      <trkpt lat="46.4483550" lon="6.8734610">
        <ele>380.0</ele>
        <time>2019-02-24T13:24:20Z</time>
      </trkpt>
      <trkpt lat="46.4483550" lon="6.8734600">
        <ele>380.0</ele>
        <time>2019-02-24T13:24:21Z</time>
      </trkpt>
      <trkpt lat="46.4483550" lon="6.8734600">
        <ele>380.0</ele>
        <time>2019-02-24T13:24:22Z</time>
      </trkpt>
      <trkpt lat="46.4483550" lon="6.8734600">
        <ele>380.0</ele>
        <time>2019-02-24T13:24:23Z</time>
      </trkpt>
      <trkpt lat="46.4483550" lon="6.8734600">
        <ele>380.0</ele>
        <time>2019-02-24T13:24:24Z</time>
      </trkpt>
      <trkpt lat="46.4483550" lon="6.8734600">
        <ele>380.0</ele>
        <time>2019-02-24T13:24:25Z</time>
      </trkpt>
      <trkpt lat="46.4483550" lon="6.8734590">
        <ele>380.0</ele>
        <time>2019-02-24T13:24:26Z</time>
      </trkpt>
      <trkpt lat="46.4483550" lon="6.8734590">
        <ele>380.0</ele>
        <time>2019-02-24T13:24:27Z</time>
      </trkpt>
      <trkpt lat="46.4483550" lon="6.8734590">
        <ele>380.0</ele>
        <time>2019-02-24T13:24:28Z</time>
      </trkpt>
      <trkpt lat="46.4483550" lon="6.8734590">
        <ele>380.0</ele>
        <time>2019-02-24T13:24:29Z</time>
      </trkpt>
      <trkpt lat="46.4483560" lon="6.8734590">
        <ele>380.0</ele>
        <time>2019-02-24T13:24:30Z</time>
      </trkpt>
      <trkpt lat="46.4483560" lon="6.8734580">
        <ele>380.0</ele>
        <time>2019-02-24T13:24:31Z</time>
      </trkpt>
      <trkpt lat="46.4483560" lon="6.8734580">
        <ele>380.0</ele>
        <time>2019-02-24T13:24:32Z</time>
      </trkpt>
      <trkpt lat="46.4483560" lon="6.8734580">
        <ele>380.0</ele>
        <time>2019-02-24T13:24:33Z</time>
      </trkpt>
      <trkpt lat="46.4483560" lon="6.8734580">
        <ele>380.0</ele>
        <time>2019-02-24T13:24:34Z</time>
      </trkpt>
      <trkpt lat="46.4483560" lon="6.8734580">
        <ele>380.0</ele>
        <time>2019-02-24T13:24:35Z</time>
      </trkpt>
      <trkpt lat="46.4483560" lon="6.8734570">
        <ele>380.0</ele>
        <time>2019-02-24T13:24:36Z</time>
      </trkpt>
      <trkpt lat="46.4483560" lon="6.8734570">
        <ele>380.0</ele>
        <time>2019-02-24T13:24:37Z</time>
      </trkpt>
      <trkpt lat="46.4483560" lon="6.8734570">
        <ele>380.0</ele>
        <time>2019-02-24T13:24:38Z</time>
      </trkpt>
      <trkpt lat="46.4483560" lon="6.8734570">
        <ele>380.0</ele>
        <time>2019-02-24T13:24:39Z</time>
      </trkpt>
      <trkpt lat="46.4483560" lon="6.8734570">
        <ele>380.0</ele>
        <time>2019-02-24T13:24:40Z</time>
      </trkpt>
      <trkpt lat="46.4483560" lon="6.8734560">
        <ele>380.0</ele>
        <time>2019-02-24T13:24:41Z</time>
      </trkpt>
      <trkpt lat="46.4483560" lon="6.8734560">
        <ele>380.0</ele>
        <time>2019-02-24T13:24:42Z</time>
      </trkpt>
      <trkpt lat="46.4483570" lon="6.8734560">
        <ele>380.0</ele>
        <time>2019-02-24T13:24:43Z</time>
      </trkpt>
      <trkpt lat="46.4483570" lon="6.8734560">
        <ele>380.0</ele>
        <time>2019-02-24T13:24:44Z</time>
      </trkpt>
      <trkpt lat="46.4483570" lon="6.8734560">
        <ele>380.0</ele>
        <time>2019-02-24T13:24:45Z</time>
      </trkpt>
      <trkpt lat="46.4483570" lon="6.8734550">
        <ele>380.0</ele>
        <time>2019-02-24T13:24:46Z</time>
      </trkpt>
      <trkpt lat="46.4483570" lon="6.8734550">
        <ele>380.0</ele>
        <time>2019-02-24T13:24:47Z</time>
      </trkpt>
      <trkpt lat="46.4483570" lon="6.8734550">
        <ele>380.0</ele>
        <time>2019-02-24T13:24:48Z</time>
      </trkpt>
      <trkpt lat="46.4483570" lon="6.8734550">
        <ele>380.0</ele>
        <time>2019-02-24T13:24:49Z</time>
      </trkpt>
      <trkpt lat="46.4483570" lon="6.8734550">
        <ele>380.0</ele>
        <time>2019-02-24T13:24:50Z</time>
      </trkpt>
      <trkpt lat="46.4483570" lon="6.8734540">
        <ele>380.0</ele>
        <time>2019-02-24T13:24:51Z</time>
      </trkpt>
      <trkpt lat="46.4483570" lon="6.8734540">
        <ele>380.0</ele>
        <time>2019-02-24T13:24:52Z</time>
      </trkpt>
      <trkpt lat="46.4483570" lon="6.8734540">
        <ele>380.0</ele>
        <time>2019-02-24T13:24:53Z</time>
      </trkpt>
      <trkpt lat="46.4483570" lon="6.8734540">
        <ele>380.0</ele>
        <time>2019-02-24T13:24:54Z</time>
      </trkpt>
      <trkpt lat="46.4483570" lon="6.8734540">
        <ele>380.0</ele>
        <time>2019-02-24T13:24:55Z</time>
      </trkpt>
      <trkpt lat="46.4483570" lon="6.8734530">
        <ele>380.0</ele>
        <time>2019-02-24T13:24:56Z</time>
      </trkpt>
      <trkpt lat="46.4483580" lon="6.8734530">
        <ele>380.0</ele>
        <time>2019-02-24T13:24:57Z</time>
      </trkpt>
      <trkpt lat="46.4483580" lon="6.8734530">
        <ele>380.0</ele>
        <time>2019-02-24T13:24:58Z</time>
      </trkpt>
      <trkpt lat="46.4483580" lon="6.8734530">
        <ele>380.0</ele>
        <time>2019-02-24T13:24:59Z</time>
      </trkpt>
      <trkpt lat="46.4483580" lon="6.8734530">
        <ele>380.0</ele>
        <time>2019-02-24T13:25:00Z</time>
      </trkpt>
      <trkpt lat="46.4483580" lon="6.8734520">
        <ele>380.0</ele>
        <time>2019-02-24T13:25:01Z</time>
      </trkpt>
      <trkpt lat="46.4483580" lon="6.8734520">
        <ele>380.0</ele>
        <time>2019-02-24T13:25:02Z</time>
      </trkpt>
      <trkpt lat="46.4483580" lon="6.8734520">
        <ele>380.0</ele>
        <time>2019-02-24T13:25:03Z</time>
      </trkpt>
      <trkpt lat="46.4483580" lon="6.8734520">
        <ele>380.0</ele>
        <time>2019-02-24T13:25:04Z</time>
      </trkpt>
      <trkpt lat="46.4483580" lon="6.8734520">
        <ele>380.0</ele>
        <time>2019-02-24T13:25:05Z</time>
      </trkpt>
      <trkpt lat="46.4483580" lon="6.8734520">
        <ele>380.0</ele>
        <time>2019-02-24T13:25:06Z</time>
      </trkpt>
      <trkpt lat="46.4483580" lon="6.8734510">
        <ele>380.0</ele>
        <time>2019-02-24T13:25:07Z</time>
      </trkpt>
      <trkpt lat="46.4483580" lon="6.8734510">
        <ele>380.0</ele>
        <time>2019-02-24T13:25:08Z</time>
      </trkpt>
      <trkpt lat="46.4483580" lon="6.8734510">
        <ele>380.0</ele>
        <time>2019-02-24T13:25:09Z</time>
      </trkpt>
      <trkpt lat="46.4483590" lon="6.8734510">
        <ele>380.0</ele>
        <time>2019-02-24T13:25:10Z</time>
      </trkpt>
      <trkpt lat="46.4483590" lon="6.8734510">
        <ele>380.0</ele>
        <time>2019-02-24T13:25:11Z</time>
      </trkpt>
      <trkpt lat="46.4483590" lon="6.8734500">
        <ele>380.0</ele>
        <time>2019-02-24T13:25:12Z</time>
      </trkpt>
      <trkpt lat="46.4483590" lon="6.8734500">
        <ele>380.0</ele>
        <time>2019-02-24T13:25:13Z</time>
      </trkpt>
      <trkpt lat="46.4483590" lon="6.8734500">
        <ele>380.0</ele>
        <time>2019-02-24T13:25:14Z</time>
      </trkpt>
      <trkpt lat="46.4483590" lon="6.8734500">
        <ele>380.0</ele>
        <time>2019-02-24T13:25:15Z</time>
      </trkpt>
      <trkpt lat="46.4483590" lon="6.8734500">
        <ele>380.0</ele>
        <time>2019-02-24T13:25:16Z</time>
      </trkpt>
      <trkpt lat="46.4483590" lon="6.8734490">
        <ele>380.0</ele>
        <time>2019-02-24T13:25:17Z</time>
      </trkpt>
      <trkpt lat="46.4483590" lon="6.8734490">
        <ele>380.0</ele>
        <time>2019-02-24T13:25:18Z</time>
      </trkpt>
      <trkpt lat="46.4483590" lon="6.8734490">
        <ele>380.0</ele>
        <time>2019-02-24T13:25:19Z</time>
      </trkpt>
      <trkpt lat="46.4483590" lon="6.8734490">
        <ele>380.0</ele>
        <time>2019-02-24T13:25:20Z</time>
      </trkpt>
      <trkpt lat="46.4483590" lon="6.8734490">
        <ele>380.0</ele>
        <time>2019-02-24T13:25:21Z</time>
      </trkpt>
      <trkpt lat="46.4483590" lon="6.8734480">
        <ele>380.0</ele>
        <time>2019-02-24T13:25:22Z</time>
      </trkpt>
      <trkpt lat="46.4483600" lon="6.8734480">
        <ele>380.0</ele>
        <time>2019-02-24T13:25:23Z</time>
      </trkpt>
      <trkpt lat="46.4483600" lon="6.8734480">
        <ele>380.0</ele>
        <time>2019-02-24T13:25:24Z</time>
      </trkpt>
      <trkpt lat="46.4483600" lon="6.8734480">
        <ele>380.0</ele>
        <time>2019-02-24T13:25:25Z</time>
      </trkpt>
      <trkpt lat="46.4483600" lon="6.8734480">
        <ele>380.0</ele>
        <time>2019-02-24T13:25:26Z</time>
      </trkpt>
      <trkpt lat="46.4483600" lon="6.8734470">
        <ele>380.0</ele>
        <time>2019-02-24T13:25:27Z</time>
      </trkpt>
      <trkpt lat="46.4483600" lon="6.8734470">
        <ele>380.0</ele>
        <time>2019-02-24T13:25:28Z</time>
      </trkpt>
      <trkpt lat="46.4483600" lon="6.8734470">
        <ele>380.0</ele>
        <time>2019-02-24T13:25:29Z</time>
      </trkpt>
      <trkpt lat="46.4483640" lon="6.8734300">
        <ele>380.0</ele>
        <time>2019-02-24T13:25:30Z</time>
      </trkpt>
      <trkpt lat="46.4483710" lon="6.8734050">
        <ele>380.0</ele>
        <time>2019-02-24T13:25:31Z</time>
      </trkpt>
      <trkpt lat="46.4483810" lon="6.8733750">
        <ele>379.9</ele>
        <time>2019-02-24T13:25:32Z</time>
      </trkpt>
      <trkpt lat="46.4483930" lon="6.8733410">
        <ele>379.9</ele>
        <time>2019-02-24T13:25:33Z</time>
      </trkpt>
      <trkpt lat="46.4484170" lon="6.8732720">
        <ele>379.9</ele>
        <time>2019-02-24T13:25:34Z</time>
      </trkpt>
      <trkpt lat="46.4484280" lon="6.8732420">
        <ele>379.9</ele>
        <time>2019-02-24T13:25:35Z</time>
      </trkpt>
      <trkpt lat="46.4484380" lon="6.8732120">
        <ele>379.8</ele>
        <time>2019-02-24T13:25:36Z</time>
      </trkpt>
      <trkpt lat="46.4484540" lon="6.8731620">
        <ele>379.8</ele>
        <time>2019-02-24T13:25:37Z</time>
      </trkpt>
      <trkpt lat="46.4484700" lon="6.8731080">
        <ele>379.8</ele>
        <time>2019-02-24T13:25:38Z</time>
      </trkpt>
      <trkpt lat="46.4484950" lon="6.8730120">
        <ele>379.7</ele>
        <time>2019-02-24T13:25:39Z</time>
      </trkpt>
      <trkpt lat="46.4485050" lon="6.8729710">
        <ele>379.7</ele>
        <time>2019-02-24T13:25:40Z</time>
      </trkpt>
      <trkpt lat="46.4485140" lon="6.8729310">
        <ele>379.6</ele>
        <time>2019-02-24T13:25:41Z</time>
      </trkpt>
      <trkpt lat="46.4485250" lon="6.8728670">
        <ele>379.6</ele>
        <time>2019-02-24T13:25:42Z</time>
      </trkpt>
      <trkpt lat="46.4485350" lon="6.8728020">
        <ele>379.6</ele>
        <time>2019-02-24T13:25:43Z</time>
      </trkpt>
      <trkpt lat="46.4485440" lon="6.8727350">
        <ele>379.5</ele>
        <time>2019-02-24T13:25:44Z</time>
      </trkpt>
      <trkpt lat="46.4485510" lon="6.8726670">
        <ele>379.6</ele>
        <time>2019-02-24T13:25:45Z</time>
      </trkpt>
      <trkpt lat="46.4485570" lon="6.8725980">
        <ele>379.7</ele>
        <time>2019-02-24T13:25:46Z</time>
      </trkpt>
      <trkpt lat="46.4485630" lon="6.8725280">
        <ele>379.7</ele>
        <time>2019-02-24T13:25:47Z</time>
      </trkpt>
      <trkpt lat="46.4485680" lon="6.8724590">
        <ele>379.8</ele>
        <time>2019-02-24T13:25:48Z</time>
      </trkpt>
      <trkpt lat="46.4485730" lon="6.8723890">
        <ele>379.8</ele>
        <time>2019-02-24T13:25:49Z</time>
      </trkpt>
      <trkpt lat="46.4485780" lon="6.8723200">
        <ele>379.9</ele>
        <time>2019-02-24T13:25:50Z</time>
      </trkpt>
      <trkpt lat="46.4485830" lon="6.8722510">
        <ele>379.9</ele>
        <time>2019-02-24T13:25:51Z</time>
      </trkpt>
      <trkpt lat="46.4485880" lon="6.8721820">
        <ele>379.9</ele>
        <time>2019-02-24T13:25:52Z</time>
      </trkpt>
      <trkpt lat="46.4485930" lon="6.8721140">
        <ele>380.0</ele>
        <time>2019-02-24T13:25:53Z</time>
      </trkpt>
      <trkpt lat="46.4485980" lon="6.8720460">
        <ele>380.0</ele>
        <time>2019-02-24T13:25:54Z</time>
      </trkpt>
      <trkpt lat="46.4486030" lon="6.8719780">
        <ele>380.1</ele>
        <time>2019-02-24T13:25:55Z</time>
      </trkpt>
      <trkpt lat="46.4486080" lon="6.8719100">
        <ele>380.1</ele>
        <time>2019-02-24T13:25:56Z</time>
      </trkpt>
      <trkpt lat="46.4486130" lon="6.8718420">
        <ele>380.2</ele>
        <time>2019-02-24T13:25:57Z</time>
      </trkpt>
      <trkpt lat="46.4486180" lon="6.8717740">
        <ele>380.2</ele>
        <time>2019-02-24T13:25:58Z</time>
      </trkpt>
      <trkpt lat="46.4486220" lon="6.8717070">
        <ele>380.3</ele>
        <time>2019-02-24T13:25:59Z</time>
      </trkpt>
      <trkpt lat="46.4486270" lon="6.8716390">
        <ele>380.3</ele>
        <time>2019-02-24T13:26:00Z</time>
      </trkpt>
      <trkpt lat="46.4486320" lon="6.8715720">
        <ele>380.4</ele>
        <time>2019-02-24T13:26:01Z</time>
      </trkpt>
      <trkpt lat="46.4486360" lon="6.8715050">
        <ele>380.5</ele>
        <time>2019-02-24T13:26:02Z</time>
      </trkpt>
      <trkpt lat="46.4486410" lon="6.8714380">
        <ele>380.6</ele>
        <time>2019-02-24T13:26:03Z</time>
      </trkpt>
      <trkpt lat="46.4486450" lon="6.8713720">
        <ele>380.6</ele>
        <time>2019-02-24T13:26:04Z</time>
      </trkpt>
      <trkpt lat="46.4486490" lon="6.8713060">
        <ele>380.7</ele>
        <time>2019-02-24T13:26:05Z</time>
      </trkpt>
      <trkpt lat="46.4486530" lon="6.8712410">
        <ele>380.8</ele>
        <time>2019-02-24T13:26:06Z</time>
      </trkpt>
      <trkpt lat="46.4486580" lon="6.8711760">
        <ele>380.9</ele>
        <time>2019-02-24T13:26:07Z</time>
      </trkpt>
      <trkpt lat="46.4486620" lon="6.8711120">
        <ele>381.0</ele>
        <time>2019-02-24T13:26:08Z</time>
      </trkpt>
      <trkpt lat="46.4486660" lon="6.8710490">
        <ele>381.1</ele>
        <time>2019-02-24T13:26:09Z</time>
      </trkpt>
      <trkpt lat="46.4486700" lon="6.8709850">
        <ele>381.2</ele>
        <time>2019-02-24T13:26:10Z</time>
      </trkpt>
      <trkpt lat="46.4486740" lon="6.8709230">
        <ele>381.3</ele>
        <time>2019-02-24T13:26:11Z</time>
      </trkpt>
      <trkpt lat="46.4486770" lon="6.8708600">
        <ele>381.3</ele>
        <time>2019-02-24T13:26:12Z</time>
      </trkpt>
      <trkpt lat="46.4486810" lon="6.8707980">
        <ele>381.4</ele>
        <time>2019-02-24T13:26:13Z</time>
      </trkpt>
      <trkpt lat="46.4486850" lon="6.8707360">
        <ele>381.4</ele>
        <time>2019-02-24T13:26:14Z</time>
      </trkpt>
      <trkpt lat="46.4486890" lon="6.8706740">
        <ele>381.4</ele>
        <time>2019-02-24T13:26:15Z</time>
      </trkpt>
      <trkpt lat="46.4486930" lon="6.8706130">
        <ele>381.4</ele>
        <time>2019-02-24T13:26:16Z</time>
      </trkpt>
      <trkpt lat="46.4486970" lon="6.8705520">
        <ele>381.5</ele>
        <time>2019-02-24T13:26:17Z</time>
      </trkpt>
      <trkpt lat="46.4487010" lon="6.8704910">
        <ele>381.5</ele>
        <time>2019-02-24T13:26:18Z</time>
      </trkpt>
      <trkpt lat="46.4487050" lon="6.8704300">
        <ele>381.5</ele>
        <time>2019-02-24T13:26:19Z</time>
      </trkpt>
      <trkpt lat="46.4487090" lon="6.8703690">
        <ele>381.5</ele>
        <time>2019-02-24T13:26:20Z</time>
      </trkpt>
      <trkpt lat="46.4487130" lon="6.8703080">
        <ele>381.5</ele>
        <time>2019-02-24T13:26:21Z</time>
      </trkpt>
      <trkpt lat="46.4487170" lon="6.8702470">
        <ele>381.5</ele>
        <time>2019-02-24T13:26:22Z</time>
      </trkpt>
      <trkpt lat="46.4487210" lon="6.8701860">
        <ele>381.5</ele>
        <time>2019-02-24T13:26:23Z</time>
      </trkpt>
      <trkpt lat="46.4487260" lon="6.8701250">
        <ele>381.5</ele>
        <time>2019-02-24T13:26:24Z</time>
      </trkpt>
      <trkpt lat="46.4487300" lon="6.8700640">
        <ele>381.5</ele>
        <time>2019-02-24T13:26:25Z</time>
      </trkpt>
      <trkpt lat="46.4487350" lon="6.8700030">
        <ele>381.5</ele>
        <time>2019-02-24T13:26:26Z</time>
      </trkpt>
      <trkpt lat="46.4487390" lon="6.8699420">
        <ele>381.5</ele>
        <time>2019-02-24T13:26:27Z</time>
      </trkpt>
      <trkpt lat="46.4487440" lon="6.8698810">
        <ele>381.5</ele>
        <time>2019-02-24T13:26:28Z</time>
      </trkpt>
      <trkpt lat="46.4487480" lon="6.8698200">
        <ele>381.5</ele>
        <time>2019-02-24T13:26:29Z</time>
      </trkpt>
      <trkpt lat="46.4487530" lon="6.8697590">
        <ele>381.5</ele>
        <time>2019-02-24T13:26:30Z</time>
      </trkpt>
      <trkpt lat="46.4487580" lon="6.8696990">
        <ele>381.5</ele>
        <time>2019-02-24T13:26:31Z</time>
      </trkpt>
      <trkpt lat="46.4487630" lon="6.8696380">
        <ele>381.5</ele>
        <time>2019-02-24T13:26:32Z</time>
      </trkpt>
      <trkpt lat="46.4487670" lon="6.8695770">
        <ele>381.5</ele>
        <time>2019-02-24T13:26:33Z</time>
      </trkpt>
      <trkpt lat="46.4487720" lon="6.8695160">
        <ele>381.5</ele>
        <time>2019-02-24T13:26:34Z</time>
      </trkpt>
      <trkpt lat="46.4487770" lon="6.8694550">
        <ele>381.5</ele>
        <time>2019-02-24T13:26:35Z</time>
      </trkpt>
      <trkpt lat="46.4487820" lon="6.8693940">
        <ele>381.5</ele>
        <time>2019-02-24T13:26:36Z</time>
      </trkpt>
      <trkpt lat="46.4487870" lon="6.8693330">
        <ele>381.4</ele>
        <time>2019-02-24T13:26:37Z</time>
      </trkpt>
      <trkpt lat="46.4487920" lon="6.8692720">
        <ele>381.4</ele>
        <time>2019-02-24T13:26:38Z</time>
      </trkpt>
      <trkpt lat="46.4487970" lon="6.8692110">
        <ele>381.4</ele>
        <time>2019-02-24T13:26:39Z</time>
      </trkpt>
      <trkpt lat="46.4488020" lon="6.8691500">
        <ele>381.3</ele>
        <time>2019-02-24T13:26:40Z</time>
      </trkpt>
      <trkpt lat="46.4488070" lon="6.8690890">
        <ele>381.3</ele>
        <time>2019-02-24T13:26:41Z</time>
      </trkpt>
      <trkpt lat="46.4488130" lon="6.8690280">
        <ele>381.3</ele>
        <time>2019-02-24T13:26:42Z</time>
      </trkpt>
      <trkpt lat="46.4488180" lon="6.8689660">
        <ele>381.2</ele>
        <time>2019-02-24T13:26:43Z</time>
      </trkpt>
      <trkpt lat="46.4488230" lon="6.8689030">
        <ele>381.2</ele>
        <time>2019-02-24T13:26:44Z</time>
      </trkpt>
      <trkpt lat="46.4488280" lon="6.8688400">
        <ele>381.2</ele>
        <time>2019-02-24T13:26:45Z</time>
      </trkpt>
      <trkpt lat="46.4488340" lon="6.8687770">
        <ele>381.2</ele>
        <time>2019-02-24T13:26:46Z</time>
      </trkpt>
      <trkpt lat="46.4488390" lon="6.8687120">
        <ele>381.2</ele>
        <time>2019-02-24T13:26:47Z</time>
      </trkpt>
      <trkpt lat="46.4488450" lon="6.8686470">
        <ele>381.3</ele>
        <time>2019-02-24T13:26:48Z</time>
      </trkpt>
      <trkpt lat="46.4488500" lon="6.8685810">
        <ele>381.3</ele>
        <time>2019-02-24T13:26:49Z</time>
      </trkpt>
      <trkpt lat="46.4488560" lon="6.8685140">
        <ele>381.4</ele>
        <time>2019-02-24T13:26:50Z</time>
      </trkpt>
      <trkpt lat="46.4488610" lon="6.8684460">
        <ele>381.5</ele>
        <time>2019-02-24T13:26:51Z</time>
      </trkpt>
      <trkpt lat="46.4488670" lon="6.8683770">
        <ele>381.6</ele>
        <time>2019-02-24T13:26:52Z</time>
      </trkpt>
      <trkpt lat="46.4488730" lon="6.8683070">
        <ele>381.7</ele>
        <time>2019-02-24T13:26:53Z</time>
      </trkpt>
      <trkpt lat="46.4488790" lon="6.8682350">
        <ele>381.8</ele>
        <time>2019-02-24T13:26:54Z</time>
      </trkpt>
      <trkpt lat="46.4488850" lon="6.8681630">
        <ele>381.9</ele>
        <time>2019-02-24T13:26:55Z</time>
      </trkpt>
      <trkpt lat="46.4488910" lon="6.8680880">
        <ele>382.1</ele>
        <time>2019-02-24T13:26:56Z</time>
      </trkpt>
      <trkpt lat="46.4488970" lon="6.8680130">
        <ele>382.1</ele>
        <time>2019-02-24T13:26:57Z</time>
      </trkpt>
      <trkpt lat="46.4489040" lon="6.8679370">
        <ele>382.2</ele>
        <time>2019-02-24T13:26:58Z</time>
      </trkpt>
      <trkpt lat="46.4489100" lon="6.8678590">
        <ele>382.3</ele>
        <time>2019-02-24T13:26:59Z</time>
      </trkpt>
      <trkpt lat="46.4489160" lon="6.8677810">
        <ele>382.4</ele>
        <time>2019-02-24T13:27:00Z</time>
      </trkpt>
      <trkpt lat="46.4489230" lon="6.8677020">
        <ele>382.5</ele>
        <time>2019-02-24T13:27:01Z</time>
      </trkpt>
      <trkpt lat="46.4489290" lon="6.8676220">
        <ele>382.6</ele>
        <time>2019-02-24T13:27:02Z</time>
      </trkpt>
      <trkpt lat="46.4489360" lon="6.8675420">
        <ele>382.7</ele>
        <time>2019-02-24T13:27:03Z</time>
      </trkpt>
      <trkpt lat="46.4489430" lon="6.8674610">
        <ele>382.8</ele>
        <time>2019-02-24T13:27:04Z</time>
      </trkpt>
      <trkpt lat="46.4489490" lon="6.8673800">
        <ele>383.3</ele>
        <time>2019-02-24T13:27:05Z</time>
      </trkpt>
      <trkpt lat="46.4489560" lon="6.8672980">
        <ele>383.3</ele>
        <time>2019-02-24T13:27:06Z</time>
      </trkpt>
      <trkpt lat="46.4489630" lon="6.8672160">
        <ele>383.2</ele>
        <time>2019-02-24T13:27:07Z</time>
      </trkpt>
      <trkpt lat="46.4489700" lon="6.8671340">
        <ele>383.1</ele>
        <time>2019-02-24T13:27:08Z</time>
      </trkpt>
      <trkpt lat="46.4489770" lon="6.8670520">
        <ele>383.4</ele>
        <time>2019-02-24T13:27:09Z</time>
      </trkpt>
      <trkpt lat="46.4489830" lon="6.8669700">
        <ele>383.2</ele>
        <time>2019-02-24T13:27:10Z</time>
      </trkpt>
      <trkpt lat="46.4489900" lon="6.8668880">
        <ele>383.2</ele>
        <time>2019-02-24T13:27:11Z</time>
      </trkpt>
      <trkpt lat="46.4489970" lon="6.8668070">
        <ele>383.1</ele>
        <time>2019-02-24T13:27:12Z</time>
      </trkpt>
      <trkpt lat="46.4490040" lon="6.8667250">
        <ele>383.1</ele>
        <time>2019-02-24T13:27:13Z</time>
      </trkpt>
      <trkpt lat="46.4490110" lon="6.8666430">
        <ele>383.2</ele>
        <time>2019-02-24T13:27:14Z</time>
      </trkpt>
      <trkpt lat="46.4490180" lon="6.8665620">
        <ele>383.2</ele>
        <time>2019-02-24T13:27:15Z</time>
      </trkpt>
      <trkpt lat="46.4490250" lon="6.8664800">
        <ele>383.2</ele>
        <time>2019-02-24T13:27:16Z</time>
      </trkpt>
      <trkpt lat="46.4490330" lon="6.8663980">
        <ele>383.3</ele>
        <time>2019-02-24T13:27:17Z</time>
      </trkpt>
      <trkpt lat="46.4490400" lon="6.8663160">
        <ele>383.3</ele>
        <time>2019-02-24T13:27:18Z</time>
      </trkpt>
      <trkpt lat="46.4490470" lon="6.8662340">
        <ele>383.3</ele>
        <time>2019-02-24T13:27:19Z</time>
      </trkpt>
      <trkpt lat="46.4490550" lon="6.8661530">
        <ele>383.4</ele>
        <time>2019-02-24T13:27:20Z</time>
      </trkpt>
      <trkpt lat="46.4490620" lon="6.8660710">
        <ele>383.4</ele>
        <time>2019-02-24T13:27:21Z</time>
      </trkpt>
      <trkpt lat="46.4490690" lon="6.8659890">
        <ele>383.5</ele>
        <time>2019-02-24T13:27:22Z</time>
      </trkpt>
      <trkpt lat="46.4490760" lon="6.8659080">
        <ele>383.5</ele>
        <time>2019-02-24T13:27:23Z</time>
      </trkpt>
      <trkpt lat="46.4490830" lon="6.8658270">
        <ele>383.6</ele>
        <time>2019-02-24T13:27:24Z</time>
      </trkpt>
      <trkpt lat="46.4490900" lon="6.8657460">
        <ele>383.7</ele>
        <time>2019-02-24T13:27:25Z</time>
      </trkpt>
      <trkpt lat="46.4490960" lon="6.8656670">
        <ele>383.8</ele>
        <time>2019-02-24T13:27:26Z</time>
      </trkpt>
      <trkpt lat="46.4491030" lon="6.8655870">
        <ele>383.9</ele>
        <time>2019-02-24T13:27:27Z</time>
      </trkpt>
      <trkpt lat="46.4491090" lon="6.8655090">
        <ele>384.0</ele>
        <time>2019-02-24T13:27:28Z</time>
      </trkpt>
      <trkpt lat="46.4491140" lon="6.8654310">
        <ele>384.2</ele>
        <time>2019-02-24T13:27:29Z</time>
      </trkpt>
      <trkpt lat="46.4491200" lon="6.8653540">
        <ele>384.3</ele>
        <time>2019-02-24T13:27:30Z</time>
      </trkpt>
      <trkpt lat="46.4491250" lon="6.8652780">
        <ele>384.4</ele>
        <time>2019-02-24T13:27:31Z</time>
      </trkpt>
      <trkpt lat="46.4491300" lon="6.8652020">
        <ele>384.9</ele>
        <time>2019-02-24T13:27:32Z</time>
      </trkpt>
      <trkpt lat="46.4491340" lon="6.8651270">
        <ele>385.3</ele>
        <time>2019-02-24T13:27:33Z</time>
      </trkpt>
      <trkpt lat="46.4491390" lon="6.8650520">
        <ele>385.7</ele>
        <time>2019-02-24T13:27:34Z</time>
      </trkpt>
      <trkpt lat="46.4491430" lon="6.8649780">
        <ele>386.1</ele>
        <time>2019-02-24T13:27:35Z</time>
      </trkpt>
      <trkpt lat="46.4491470" lon="6.8649050">
        <ele>386.6</ele>
        <time>2019-02-24T13:27:36Z</time>
      </trkpt>
      <trkpt lat="46.4491510" lon="6.8648330">
        <ele>387.0</ele>
        <time>2019-02-24T13:27:37Z</time>
      </trkpt>
      <trkpt lat="46.4491550" lon="6.8647610">
        <ele>387.5</ele>
        <time>2019-02-24T13:27:38Z</time>
      </trkpt>
      <trkpt lat="46.4491580" lon="6.8646900">
        <ele>387.9</ele>
        <time>2019-02-24T13:27:39Z</time>
      </trkpt>
      <trkpt lat="46.4491620" lon="6.8646190">
        <ele>388.3</ele>
        <time>2019-02-24T13:27:40Z</time>
      </trkpt>
      <trkpt lat="46.4491650" lon="6.8645490">
        <ele>388.8</ele>
        <time>2019-02-24T13:27:41Z</time>
      </trkpt>
      <trkpt lat="46.4491680" lon="6.8644800">
        <ele>389.2</ele>
        <time>2019-02-24T13:27:42Z</time>
      </trkpt>
      <trkpt lat="46.4491710" lon="6.8644110">
        <ele>389.6</ele>
        <time>2019-02-24T13:27:43Z</time>
      </trkpt>
      <trkpt lat="46.4491740" lon="6.8643430">
        <ele>390.0</ele>
        <time>2019-02-24T13:27:44Z</time>
      </trkpt>
      <trkpt lat="46.4491770" lon="6.8642760">
        <ele>390.6</ele>
        <time>2019-02-24T13:27:45Z</time>
      </trkpt>
      <trkpt lat="46.4491800" lon="6.8642090">
        <ele>390.3</ele>
        <time>2019-02-24T13:27:46Z</time>
      </trkpt>
      <trkpt lat="46.4491830" lon="6.8641420">
        <ele>390.1</ele>
        <time>2019-02-24T13:27:47Z</time>
      </trkpt>
      <trkpt lat="46.4491860" lon="6.8640770">
        <ele>389.9</ele>
        <time>2019-02-24T13:27:48Z</time>
      </trkpt>
      <trkpt lat="46.4491890" lon="6.8640110">
        <ele>389.8</ele>
        <time>2019-02-24T13:27:49Z</time>
      </trkpt>
      <trkpt lat="46.4491920" lon="6.8639470">
        <ele>389.7</ele>
        <time>2019-02-24T13:27:50Z</time>
      </trkpt>
      <trkpt lat="46.4491940" lon="6.8638820">
        <ele>389.7</ele>
        <time>2019-02-24T13:27:51Z</time>
      </trkpt>
      <trkpt lat="46.4491970" lon="6.8638180">
        <ele>389.7</ele>
        <time>2019-02-24T13:27:52Z</time>
      </trkpt>
      <trkpt lat="46.4492000" lon="6.8637550">
        <ele>389.8</ele>
        <time>2019-02-24T13:27:53Z</time>
      </trkpt>
      <trkpt lat="46.4492030" lon="6.8636920">
        <ele>389.9</ele>
        <time>2019-02-24T13:27:54Z</time>
      </trkpt>
      <trkpt lat="46.4492050" lon="6.8636290">
        <ele>390.0</ele>
        <time>2019-02-24T13:27:55Z</time>
      </trkpt>
      <trkpt lat="46.4492080" lon="6.8635670">
        <ele>390.1</ele>
        <time>2019-02-24T13:27:56Z</time>
      </trkpt>
      <trkpt lat="46.4492110" lon="6.8635050">
        <ele>390.2</ele>
        <time>2019-02-24T13:27:57Z</time>
      </trkpt>
      <trkpt lat="46.4492140" lon="6.8634430">
        <ele>390.3</ele>
        <time>2019-02-24T13:27:58Z</time>
      </trkpt>
      <trkpt lat="46.4492160" lon="6.8633820">
        <ele>390.4</ele>
        <time>2019-02-24T13:27:59Z</time>
      </trkpt>
      <trkpt lat="46.4492190" lon="6.8633200">
        <ele>390.5</ele>
        <time>2019-02-24T13:28:00Z</time>
      </trkpt>
      <trkpt lat="46.4492220" lon="6.8632600">
        <ele>390.5</ele>
        <time>2019-02-24T13:28:01Z</time>
      </trkpt>
      <trkpt lat="46.4492250" lon="6.8631990">
        <ele>390.6</ele>
        <time>2019-02-24T13:28:02Z</time>
      </trkpt>
      <trkpt lat="46.4492280" lon="6.8631390">
        <ele>390.6</ele>
        <time>2019-02-24T13:28:03Z</time>
      </trkpt>
      <trkpt lat="46.4492310" lon="6.8630780">
        <ele>390.6</ele>
        <time>2019-02-24T13:28:04Z</time>
      </trkpt>
      <trkpt lat="46.4492340" lon="6.8630180">
        <ele>390.6</ele>
        <time>2019-02-24T13:28:05Z</time>
      </trkpt>
      <trkpt lat="46.4492370" lon="6.8629590">
        <ele>390.5</ele>
        <time>2019-02-24T13:28:06Z</time>
      </trkpt>
      <trkpt lat="46.4492400" lon="6.8628990">
        <ele>390.4</ele>
        <time>2019-02-24T13:28:07Z</time>
      </trkpt>
      <trkpt lat="46.4492430" lon="6.8628400">
        <ele>390.3</ele>
        <time>2019-02-24T13:28:08Z</time>
      </trkpt>
      <trkpt lat="46.4492460" lon="6.8627810">
        <ele>390.2</ele>
        <time>2019-02-24T13:28:09Z</time>
      </trkpt>
      <trkpt lat="46.4492490" lon="6.8627220">
        <ele>390.0</ele>
        <time>2019-02-24T13:28:10Z</time>
      </trkpt>
      <trkpt lat="46.4492510" lon="6.8626640">
        <ele>389.9</ele>
        <time>2019-02-24T13:28:11Z</time>
      </trkpt>
      <trkpt lat="46.4492540" lon="6.8626060">
        <ele>389.7</ele>
        <time>2019-02-24T13:28:12Z</time>
      </trkpt>
      <trkpt lat="46.4492570" lon="6.8625470">
        <ele>389.5</ele>
        <time>2019-02-24T13:28:13Z</time>
      </trkpt>
      <trkpt lat="46.4492600" lon="6.8624890">
        <ele>389.4</ele>
        <time>2019-02-24T13:28:14Z</time>
      </trkpt>
      <trkpt lat="46.4492620" lon="6.8624320">
        <ele>389.2</ele>
        <time>2019-02-24T13:28:15Z</time>
      </trkpt>
      <trkpt lat="46.4492640" lon="6.8623740">
        <ele>389.1</ele>
        <time>2019-02-24T13:28:16Z</time>
      </trkpt>
      <trkpt lat="46.4492670" lon="6.8623170">
        <ele>389.0</ele>
        <time>2019-02-24T13:28:17Z</time>
      </trkpt>
      <trkpt lat="46.4492690" lon="6.8622590">
        <ele>388.9</ele>
        <time>2019-02-24T13:28:18Z</time>
      </trkpt>
      <trkpt lat="46.4492720" lon="6.8622020">
        <ele>388.7</ele>
        <time>2019-02-24T13:28:19Z</time>
      </trkpt>
      <trkpt lat="46.4492750" lon="6.8621460">
        <ele>388.6</ele>
        <time>2019-02-24T13:28:20Z</time>
      </trkpt>
      <trkpt lat="46.4492790" lon="6.8620890">
        <ele>388.5</ele>
        <time>2019-02-24T13:28:21Z</time>
      </trkpt>
      <trkpt lat="46.4492830" lon="6.8620330">
        <ele>388.3</ele>
        <time>2019-02-24T13:28:22Z</time>
      </trkpt>
      <trkpt lat="46.4492870" lon="6.8619760">
        <ele>388.2</ele>
        <time>2019-02-24T13:28:23Z</time>
      </trkpt>
      <trkpt lat="46.4492920" lon="6.8619200">
        <ele>388.0</ele>
        <time>2019-02-24T13:28:24Z</time>
      </trkpt>
      <trkpt lat="46.4492980" lon="6.8618650">
        <ele>387.9</ele>
        <time>2019-02-24T13:28:25Z</time>
      </trkpt>
      <trkpt lat="46.4493040" lon="6.8618090">
        <ele>387.8</ele>
        <time>2019-02-24T13:28:26Z</time>
      </trkpt>
      <trkpt lat="46.4493120" lon="6.8617530">
        <ele>387.7</ele>
        <time>2019-02-24T13:28:27Z</time>
      </trkpt>
      <trkpt lat="46.4493190" lon="6.8616980">
        <ele>387.6</ele>
        <time>2019-02-24T13:28:28Z</time>
      </trkpt>
      <trkpt lat="46.4493270" lon="6.8616420">
        <ele>387.8</ele>
        <time>2019-02-24T13:28:29Z</time>
      </trkpt>
      <trkpt lat="46.4493360" lon="6.8615860">
        <ele>388.0</ele>
        <time>2019-02-24T13:28:30Z</time>
      </trkpt>
      <trkpt lat="46.4493450" lon="6.8615310">
        <ele>388.2</ele>
        <time>2019-02-24T13:28:31Z</time>
      </trkpt>
      <trkpt lat="46.4493550" lon="6.8614750">
        <ele>388.5</ele>
        <time>2019-02-24T13:28:32Z</time>
      </trkpt>
      <trkpt lat="46.4493650" lon="6.8614190">
        <ele>388.5</ele>
        <time>2019-02-24T13:28:33Z</time>
      </trkpt>
      <trkpt lat="46.4493760" lon="6.8613630">
        <ele>388.5</ele>
        <time>2019-02-24T13:28:34Z</time>
      </trkpt>
      <trkpt lat="46.4493870" lon="6.8613070">
        <ele>388.5</ele>
        <time>2019-02-24T13:28:35Z</time>
      </trkpt>
      <trkpt lat="46.4493990" lon="6.8612510">
        <ele>388.5</ele>
        <time>2019-02-24T13:28:36Z</time>
      </trkpt>
      <trkpt lat="46.4494120" lon="6.8611950">
        <ele>388.5</ele>
        <time>2019-02-24T13:28:37Z</time>
      </trkpt>
      <trkpt lat="46.4494260" lon="6.8611400">
        <ele>388.5</ele>
        <time>2019-02-24T13:28:38Z</time>
      </trkpt>
      <trkpt lat="46.4494400" lon="6.8610850">
        <ele>388.5</ele>
        <time>2019-02-24T13:28:39Z</time>
      </trkpt>
      <trkpt lat="46.4494560" lon="6.8610300">
        <ele>388.5</ele>
        <time>2019-02-24T13:28:40Z</time>
      </trkpt>
      <trkpt lat="46.4494720" lon="6.8609770">
        <ele>388.5</ele>
        <time>2019-02-24T13:28:41Z</time>
      </trkpt>
      <trkpt lat="46.4494870" lon="6.8609260">
        <ele>388.4</ele>
        <time>2019-02-24T13:28:42Z</time>
      </trkpt>
      <trkpt lat="46.4495020" lon="6.8608790">
        <ele>388.5</ele>
        <time>2019-02-24T13:28:43Z</time>
      </trkpt>
      <trkpt lat="46.4495160" lon="6.8608360">
        <ele>388.5</ele>
        <time>2019-02-24T13:28:44Z</time>
      </trkpt>
      <trkpt lat="46.4495280" lon="6.8607960">
        <ele>388.5</ele>
        <time>2019-02-24T13:28:45Z</time>
      </trkpt>
      <trkpt lat="46.4495410" lon="6.8607570">
        <ele>388.5</ele>
        <time>2019-02-24T13:28:46Z</time>
      </trkpt>
      <trkpt lat="46.4495550" lon="6.8607170">
        <ele>388.4</ele>
        <time>2019-02-24T13:28:47Z</time>
      </trkpt>
      <trkpt lat="46.4495710" lon="6.8606740">
        <ele>388.3</ele>
        <time>2019-02-24T13:28:48Z</time>
      </trkpt>
      <trkpt lat="46.4495880" lon="6.8606290">
        <ele>388.3</ele>
        <time>2019-02-24T13:28:49Z</time>
      </trkpt>
      <trkpt lat="46.4496060" lon="6.8605810">
        <ele>388.3</ele>
        <time>2019-02-24T13:28:50Z</time>
      </trkpt>
      <trkpt lat="46.4496260" lon="6.8605320">
        <ele>388.2</ele>
        <time>2019-02-24T13:28:51Z</time>
      </trkpt>
      <trkpt lat="46.4496470" lon="6.8604820">
        <ele>388.2</ele>
        <time>2019-02-24T13:28:52Z</time>
      </trkpt>
      <trkpt lat="46.4496690" lon="6.8604320">
        <ele>388.2</ele>
        <time>2019-02-24T13:28:53Z</time>
      </trkpt>
      <trkpt lat="46.4497040" lon="6.8603560">
        <ele>388.2</ele>
        <time>2019-02-24T13:28:54Z</time>
      </trkpt>
      <trkpt lat="46.4497150" lon="6.8603310">
        <ele>388.1</ele>
        <time>2019-02-24T13:28:55Z</time>
      </trkpt>
      <trkpt lat="46.4497390" lon="6.8602820">
        <ele>388.2</ele>
        <time>2019-02-24T13:28:56Z</time>
      </trkpt>
      <trkpt lat="46.4497640" lon="6.8602330">
        <ele>388.2</ele>
        <time>2019-02-24T13:28:57Z</time>
      </trkpt>
      <trkpt lat="46.4497890" lon="6.8601860">
        <ele>388.3</ele>
        <time>2019-02-24T13:28:58Z</time>
      </trkpt>
      <trkpt lat="46.4498150" lon="6.8601390">
        <ele>388.3</ele>
        <time>2019-02-24T13:28:59Z</time>
      </trkpt>
      <trkpt lat="46.4498420" lon="6.8600930">
        <ele>388.4</ele>
        <time>2019-02-24T13:29:00Z</time>
      </trkpt>
      <trkpt lat="46.4498690" lon="6.8600480">
        <ele>388.4</ele>
        <time>2019-02-24T13:29:01Z</time>
      </trkpt>
      <trkpt lat="46.4498980" lon="6.8600040">
        <ele>388.5</ele>
        <time>2019-02-24T13:29:02Z</time>
      </trkpt>
      <trkpt lat="46.4499270" lon="6.8599610">
        <ele>388.5</ele>
        <time>2019-02-24T13:29:03Z</time>
      </trkpt>
      <trkpt lat="46.4499570" lon="6.8599180">
        <ele>388.6</ele>
        <time>2019-02-24T13:29:04Z</time>
      </trkpt>
      <trkpt lat="46.4499880" lon="6.8598770">
        <ele>388.6</ele>
        <time>2019-02-24T13:29:05Z</time>
      </trkpt>
      <trkpt lat="46.4500200" lon="6.8598360">
        <ele>388.7</ele>
        <time>2019-02-24T13:29:06Z</time>
      </trkpt>
      <trkpt lat="46.4500520" lon="6.8597960">
        <ele>388.7</ele>
        <time>2019-02-24T13:29:07Z</time>
      </trkpt>
      <trkpt lat="46.4500860" lon="6.8597570">
        <ele>388.7</ele>
        <time>2019-02-24T13:29:08Z</time>
      </trkpt>
      <trkpt lat="46.4501200" lon="6.8597190">
        <ele>388.8</ele>
        <time>2019-02-24T13:29:09Z</time>
      </trkpt>
      <trkpt lat="46.4501550" lon="6.8596820">
        <ele>388.8</ele>
        <time>2019-02-24T13:29:10Z</time>
      </trkpt>
      <trkpt lat="46.4501900" lon="6.8596460">
        <ele>388.9</ele>
        <time>2019-02-24T13:29:11Z</time>
      </trkpt>
      <trkpt lat="46.4502260" lon="6.8596100">
        <ele>388.9</ele>
        <time>2019-02-24T13:29:12Z</time>
      </trkpt>
      <trkpt lat="46.4502630" lon="6.8595760">
        <ele>389.0</ele>
        <time>2019-02-24T13:29:13Z</time>
      </trkpt>
      <trkpt lat="46.4503000" lon="6.8595430">
        <ele>389.0</ele>
        <time>2019-02-24T13:29:14Z</time>
      </trkpt>
      <trkpt lat="46.4503370" lon="6.8595110">
        <ele>389.0</ele>
        <time>2019-02-24T13:29:15Z</time>
      </trkpt>
      <trkpt lat="46.4503750" lon="6.8594790">
        <ele>389.1</ele>
        <time>2019-02-24T13:29:16Z</time>
      </trkpt>
      <trkpt lat="46.4504130" lon="6.8594490">
        <ele>389.1</ele>
        <time>2019-02-24T13:29:17Z</time>
      </trkpt>
      <trkpt lat="46.4504520" lon="6.8594200">
        <ele>389.1</ele>
        <time>2019-02-24T13:29:18Z</time>
      </trkpt>
      <trkpt lat="46.4504910" lon="6.8593930">
        <ele>389.1</ele>
        <time>2019-02-24T13:29:19Z</time>
      </trkpt>
      <trkpt lat="46.4505300" lon="6.8593660">
        <ele>389.2</ele>
        <time>2019-02-24T13:29:20Z</time>
      </trkpt>
      <trkpt lat="46.4505690" lon="6.8593400">
        <ele>389.2</ele>
        <time>2019-02-24T13:29:21Z</time>
      </trkpt>
      <trkpt lat="46.4506090" lon="6.8593140">
        <ele>389.2</ele>
        <time>2019-02-24T13:29:22Z</time>
      </trkpt>
      <trkpt lat="46.4506500" lon="6.8592890">
        <ele>389.2</ele>
        <time>2019-02-24T13:29:23Z</time>
      </trkpt>
      <trkpt lat="46.4506920" lon="6.8592630">
        <ele>389.2</ele>
        <time>2019-02-24T13:29:24Z</time>
      </trkpt>
      <trkpt lat="46.4507340" lon="6.8592370">
        <ele>389.2</ele>
        <time>2019-02-24T13:29:25Z</time>
      </trkpt>
      <trkpt lat="46.4507780" lon="6.8592100">
        <ele>389.2</ele>
        <time>2019-02-24T13:29:26Z</time>
      </trkpt>
      <trkpt lat="46.4508220" lon="6.8591820">
        <ele>389.2</ele>
        <time>2019-02-24T13:29:27Z</time>
      </trkpt>
      <trkpt lat="46.4508680" lon="6.8591520">
        <ele>389.2</ele>
        <time>2019-02-24T13:29:28Z</time>
      </trkpt>
      <trkpt lat="46.4509130" lon="6.8591230">
        <ele>389.2</ele>
        <time>2019-02-24T13:29:29Z</time>
      </trkpt>
      <trkpt lat="46.4509550" lon="6.8590960">
        <ele>389.2</ele>
        <time>2019-02-24T13:29:30Z</time>
      </trkpt>
      <trkpt lat="46.4509910" lon="6.8590720">
        <ele>389.3</ele>
        <time>2019-02-24T13:29:31Z</time>
      </trkpt>
      <trkpt lat="46.4510200" lon="6.8590550">
        <ele>389.3</ele>
        <time>2019-02-24T13:29:32Z</time>
      </trkpt>
      <trkpt lat="46.4510420" lon="6.8590420">
        <ele>389.3</ele>
        <time>2019-02-24T13:29:33Z</time>
      </trkpt>
      <trkpt lat="46.4510570" lon="6.8590330">
        <ele>389.3</ele>
        <time>2019-02-24T13:29:34Z</time>
      </trkpt>
      <trkpt lat="46.4510680" lon="6.8590270">
        <ele>389.3</ele>
        <time>2019-02-24T13:29:35Z</time>
      </trkpt>
      <trkpt lat="46.4510690" lon="6.8590270">
        <ele>389.3</ele>
        <time>2019-02-24T13:29:36Z</time>
      </trkpt>
      <trkpt lat="46.4510700" lon="6.8590260">
        <ele>389.3</ele>
        <time>2019-02-24T13:29:37Z</time>
      </trkpt>
      <trkpt lat="46.4510700" lon="6.8590260">
        <ele>389.3</ele>
        <time>2019-02-24T13:29:38Z</time>
      </trkpt>
      <trkpt lat="46.4510710" lon="6.8590250">
        <ele>389.3</ele>
        <time>2019-02-24T13:29:39Z</time>
      </trkpt>
      <trkpt lat="46.4510720" lon="6.8590240">
        <ele>389.3</ele>
        <time>2019-02-24T13:29:40Z</time>
      </trkpt>
      <trkpt lat="46.4510730" lon="6.8590240">
        <ele>389.3</ele>
        <time>2019-02-24T13:29:41Z</time>
      </trkpt>
      <trkpt lat="46.4510740" lon="6.8590230">
        <ele>389.3</ele>
        <time>2019-02-24T13:29:42Z</time>
      </trkpt>
      <trkpt lat="46.4510750" lon="6.8590230">
        <ele>389.3</ele>
        <time>2019-02-24T13:29:43Z</time>
      </trkpt>
      <trkpt lat="46.4510760" lon="6.8590220">
        <ele>389.3</ele>
        <time>2019-02-24T13:29:44Z</time>
      </trkpt>
      <trkpt lat="46.4510770" lon="6.8590210">
        <ele>389.3</ele>
        <time>2019-02-24T13:29:45Z</time>
      </trkpt>
      <trkpt lat="46.4510770" lon="6.8590210">
        <ele>389.3</ele>
        <time>2019-02-24T13:29:46Z</time>
      </trkpt>
      <trkpt lat="46.4510780" lon="6.8590200">
        <ele>389.3</ele>
        <time>2019-02-24T13:29:47Z</time>
      </trkpt>
      <trkpt lat="46.4510790" lon="6.8590200">
        <ele>389.3</ele>
        <time>2019-02-24T13:29:48Z</time>
      </trkpt>
      <trkpt lat="46.4510800" lon="6.8590190">
        <ele>389.3</ele>
        <time>2019-02-24T13:29:49Z</time>
      </trkpt>
      <trkpt lat="46.4510810" lon="6.8590180">
        <ele>389.3</ele>
        <time>2019-02-24T13:29:50Z</time>
      </trkpt>
      <trkpt lat="46.4510820" lon="6.8590180">
        <ele>389.3</ele>
        <time>2019-02-24T13:29:51Z</time>
      </trkpt>
      <trkpt lat="46.4510830" lon="6.8590170">
        <ele>389.3</ele>
        <time>2019-02-24T13:29:52Z</time>
      </trkpt>
      <trkpt lat="46.4510840" lon="6.8590170">
        <ele>389.3</ele>
        <time>2019-02-24T13:29:53Z</time>
      </trkpt>
      <trkpt lat="46.4510840" lon="6.8590160">
        <ele>389.3</ele>
        <time>2019-02-24T13:29:54Z</time>
      </trkpt>
      <trkpt lat="46.4510850" lon="6.8590150">
        <ele>389.3</ele>
        <time>2019-02-24T13:29:55Z</time>
      </trkpt>
      <trkpt lat="46.4510860" lon="6.8590150">
        <ele>389.3</ele>
        <time>2019-02-24T13:29:56Z</time>
      </trkpt>
      <trkpt lat="46.4510870" lon="6.8590140">
        <ele>389.3</ele>
        <time>2019-02-24T13:29:57Z</time>
      </trkpt>
      <trkpt lat="46.4510880" lon="6.8590130">
        <ele>389.3</ele>
        <time>2019-02-24T13:29:58Z</time>
      </trkpt>
      <trkpt lat="46.4510890" lon="6.8590130">
        <ele>389.3</ele>
        <time>2019-02-24T13:29:59Z</time>
      </trkpt>
      <trkpt lat="46.4510900" lon="6.8590120">
        <ele>389.3</ele>
        <time>2019-02-24T13:30:00Z</time>
      </trkpt>
      <trkpt lat="46.4510900" lon="6.8590120">
        <ele>389.3</ele>
        <time>2019-02-24T13:30:01Z</time>
      </trkpt>
      <trkpt lat="46.4510910" lon="6.8590110">
        <ele>389.3</ele>
        <time>2019-02-24T13:30:02Z</time>
      </trkpt>
      <trkpt lat="46.4510920" lon="6.8590100">
        <ele>389.3</ele>
        <time>2019-02-24T13:30:03Z</time>
      </trkpt>
      <trkpt lat="46.4510930" lon="6.8590100">
        <ele>389.3</ele>
        <time>2019-02-24T13:30:04Z</time>
      </trkpt>
      <trkpt lat="46.4510940" lon="6.8590090">
        <ele>389.3</ele>
        <time>2019-02-24T13:30:05Z</time>
      </trkpt>
      <trkpt lat="46.4510950" lon="6.8590090">
        <ele>389.3</ele>
        <time>2019-02-24T13:30:06Z</time>
      </trkpt>
      <trkpt lat="46.4510960" lon="6.8590080">
        <ele>389.3</ele>
        <time>2019-02-24T13:30:07Z</time>
      </trkpt>
      <trkpt lat="46.4510970" lon="6.8590070">
        <ele>389.3</ele>
        <time>2019-02-24T13:30:08Z</time>
      </trkpt>
      <trkpt lat="46.4510970" lon="6.8590070">
        <ele>389.3</ele>
        <time>2019-02-24T13:30:09Z</time>
      </trkpt>
      <trkpt lat="46.4510980" lon="6.8590060">
        <ele>389.3</ele>
        <time>2019-02-24T13:30:10Z</time>
      </trkpt>
      <trkpt lat="46.4510990" lon="6.8590060">
        <ele>389.3</ele>
        <time>2019-02-24T13:30:11Z</time>
      </trkpt>
      <trkpt lat="46.4511000" lon="6.8590050">
        <ele>389.3</ele>
        <time>2019-02-24T13:30:12Z</time>
      </trkpt>
      <trkpt lat="46.4511160" lon="6.8589950">
        <ele>389.3</ele>
        <time>2019-02-24T13:30:13Z</time>
      </trkpt>
      <trkpt lat="46.4511400" lon="6.8589820">
        <ele>389.3</ele>
        <time>2019-02-24T13:30:14Z</time>
      </trkpt>
      <trkpt lat="46.4511680" lon="6.8589650">
        <ele>389.3</ele>
        <time>2019-02-24T13:30:15Z</time>
      </trkpt>
      <trkpt lat="46.4512000" lon="6.8589460">
        <ele>389.4</ele>
        <time>2019-02-24T13:30:16Z</time>
      </trkpt>
      <trkpt lat="46.4512580" lon="6.8589100">
        <ele>389.4</ele>
        <time>2019-02-24T13:30:17Z</time>
      </trkpt>
      <trkpt lat="46.4512830" lon="6.8588940">
        <ele>389.4</ele>
        <time>2019-02-24T13:30:18Z</time>
      </trkpt>
      <trkpt lat="46.4513070" lon="6.8588790">
        <ele>389.4</ele>
        <time>2019-02-24T13:30:19Z</time>
      </trkpt>
      <trkpt lat="46.4513450" lon="6.8588530">
        <ele>389.3</ele>
        <time>2019-02-24T13:30:20Z</time>
      </trkpt>
      <trkpt lat="46.4513840" lon="6.8588260">
        <ele>389.2</ele>
        <time>2019-02-24T13:30:21Z</time>
      </trkpt>
      <trkpt lat="46.4514510" lon="6.8587770">
        <ele>389.0</ele>
        <time>2019-02-24T13:30:22Z</time>
      </trkpt>
      <trkpt lat="46.4514790" lon="6.8587560">
        <ele>388.8</ele>
        <time>2019-02-24T13:30:23Z</time>
      </trkpt>
      <trkpt lat="46.4515060" lon="6.8587360">
        <ele>388.7</ele>
        <time>2019-02-24T13:30:24Z</time>
      </trkpt>
      <trkpt lat="46.4515480" lon="6.8587020">
        <ele>388.5</ele>
        <time>2019-02-24T13:30:25Z</time>
      </trkpt>
      <trkpt lat="46.4515920" lon="6.8586670">
        <ele>388.3</ele>
        <time>2019-02-24T13:30:26Z</time>
      </trkpt>
      <trkpt lat="46.4516580" lon="6.8586110">
        <ele>388.1</ele>
        <time>2019-02-24T13:30:27Z</time>
      </trkpt>
      <trkpt lat="46.4516800" lon="6.8585920">
        <ele>388.0</ele>
        <time>2019-02-24T13:30:28Z</time>
      </trkpt>
      <trkpt lat="46.4517250" lon="6.8585510">
        <ele>387.9</ele>
        <time>2019-02-24T13:30:29Z</time>
      </trkpt>
      <trkpt lat="46.4517700" lon="6.8585090">
        <ele>387.8</ele>
        <time>2019-02-24T13:30:30Z</time>
      </trkpt>
      <trkpt lat="46.4518160" lon="6.8584650">
        <ele>387.7</ele>
        <time>2019-02-24T13:30:31Z</time>
      </trkpt>
      <trkpt lat="46.4518850" lon="6.8583950">
        <ele>387.5</ele>
        <time>2019-02-24T13:30:32Z</time>
      </trkpt>
      <trkpt lat="46.4519080" lon="6.8583710">
        <ele>387.4</ele>
        <time>2019-02-24T13:30:33Z</time>
      </trkpt>
      <trkpt lat="46.4519540" lon="6.8583210">
        <ele>387.2</ele>
        <time>2019-02-24T13:30:34Z</time>
      </trkpt>
      <trkpt lat="46.4520000" lon="6.8582690">
        <ele>387.1</ele>
        <time>2019-02-24T13:30:35Z</time>
      </trkpt>
      <trkpt lat="46.4520450" lon="6.8582150">
        <ele>387.0</ele>
        <time>2019-02-24T13:30:36Z</time>
      </trkpt>
      <trkpt lat="46.4520910" lon="6.8581590">
        <ele>387.0</ele>
        <time>2019-02-24T13:30:37Z</time>
      </trkpt>
      <trkpt lat="46.4521350" lon="6.8581000">
        <ele>386.9</ele>
        <time>2019-02-24T13:30:38Z</time>
      </trkpt>
      <trkpt lat="46.4521800" lon="6.8580400">
        <ele>386.8</ele>
        <time>2019-02-24T13:30:39Z</time>
      </trkpt>
      <trkpt lat="46.4522230" lon="6.8579770">
        <ele>386.8</ele>
        <time>2019-02-24T13:30:40Z</time>
      </trkpt>
      <trkpt lat="46.4522660" lon="6.8579130">
        <ele>386.7</ele>
        <time>2019-02-24T13:30:41Z</time>
      </trkpt>
      <trkpt lat="46.4523070" lon="6.8578470">
        <ele>386.6</ele>
        <time>2019-02-24T13:30:42Z</time>
      </trkpt>
      <trkpt lat="46.4523470" lon="6.8577800">
        <ele>386.5</ele>
        <time>2019-02-24T13:30:43Z</time>
      </trkpt>
      <trkpt lat="46.4523830" lon="6.8577140">
        <ele>386.5</ele>
        <time>2019-02-24T13:30:44Z</time>
      </trkpt>
      <trkpt lat="46.4524170" lon="6.8576480">
        <ele>386.5</ele>
        <time>2019-02-24T13:30:45Z</time>
      </trkpt>
      <trkpt lat="46.4524500" lon="6.8575850">
        <ele>386.4</ele>
        <time>2019-02-24T13:30:46Z</time>
      </trkpt>
      <trkpt lat="46.4524820" lon="6.8575240">
        <ele>386.4</ele>
        <time>2019-02-24T13:30:47Z</time>
      </trkpt>
      <trkpt lat="46.4525160" lon="6.8574660">
        <ele>386.4</ele>
        <time>2019-02-24T13:30:48Z</time>
      </trkpt>
      <trkpt lat="46.4525530" lon="6.8574120">
        <ele>386.4</ele>
        <time>2019-02-24T13:30:49Z</time>
      </trkpt>
      <trkpt lat="46.4525900" lon="6.8573630">
        <ele>386.4</ele>
        <time>2019-02-24T13:30:50Z</time>
      </trkpt>
      <trkpt lat="46.4526260" lon="6.8573180">
        <ele>386.4</ele>
        <time>2019-02-24T13:30:51Z</time>
      </trkpt>
      <trkpt lat="46.4526590" lon="6.8572770">
        <ele>386.4</ele>
        <time>2019-02-24T13:30:52Z</time>
      </trkpt>
      <trkpt lat="46.4526870" lon="6.8572400">
        <ele>386.3</ele>
        <time>2019-02-24T13:30:53Z</time>
      </trkpt>
      <trkpt lat="46.4527090" lon="6.8572090">
        <ele>386.3</ele>
        <time>2019-02-24T13:30:54Z</time>
      </trkpt>
      <trkpt lat="46.4527270" lon="6.8571830">
        <ele>386.3</ele>
        <time>2019-02-24T13:30:55Z</time>
      </trkpt>
      <trkpt lat="46.4527420" lon="6.8571600">
        <ele>386.3</ele>
        <time>2019-02-24T13:30:56Z</time>
      </trkpt>
      <trkpt lat="46.4527450" lon="6.8571550">
        <ele>386.3</ele>
        <time>2019-02-24T13:30:57Z</time>
      </trkpt>
      <trkpt lat="46.4527510" lon="6.8571460">
        <ele>386.3</ele>
        <time>2019-02-24T13:30:58Z</time>
      </trkpt>
      <trkpt lat="46.4527520" lon="6.8571440">
        <ele>386.3</ele>
        <time>2019-02-24T13:30:59Z</time>
      </trkpt>
      <trkpt lat="46.4527510" lon="6.8571450">
        <ele>386.3</ele>
        <time>2019-02-24T13:31:00Z</time>
      </trkpt>
      <trkpt lat="46.4527500" lon="6.8571470">
        <ele>386.3</ele>
        <time>2019-02-24T13:31:01Z</time>
      </trkpt>
      <trkpt lat="46.4527490" lon="6.8571480">
        <ele>386.3</ele>
        <time>2019-02-24T13:31:02Z</time>
      </trkpt>
      <trkpt lat="46.4527490" lon="6.8571480">
        <ele>386.3</ele>
        <time>2019-02-24T13:31:03Z</time>
      </trkpt>
      <trkpt lat="46.4527510" lon="6.8571440">
        <ele>386.3</ele>
        <time>2019-02-24T13:31:04Z</time>
      </trkpt>
      <trkpt lat="46.4527560" lon="6.8571350">
        <ele>386.3</ele>
        <time>2019-02-24T13:31:05Z</time>
      </trkpt>
      <trkpt lat="46.4527640" lon="6.8571220">
        <ele>386.3</ele>
        <time>2019-02-24T13:31:06Z</time>
      </trkpt>
      <trkpt lat="46.4527750" lon="6.8571050">
        <ele>386.3</ele>
        <time>2019-02-24T13:31:07Z</time>
      </trkpt>
      <trkpt lat="46.4527890" lon="6.8570840">
        <ele>386.3</ele>
        <time>2019-02-24T13:31:08Z</time>
      </trkpt>
      <trkpt lat="46.4528060" lon="6.8570600">
        <ele>386.4</ele>
        <time>2019-02-24T13:31:09Z</time>
      </trkpt>
      <trkpt lat="46.4528260" lon="6.8570330">
        <ele>386.4</ele>
        <time>2019-02-24T13:31:10Z</time>
      </trkpt>
      <trkpt lat="46.4528480" lon="6.8570050">
        <ele>386.4</ele>
        <time>2019-02-24T13:31:11Z</time>
      </trkpt>
      <trkpt lat="46.4528730" lon="6.8569740">
        <ele>386.4</ele>
        <time>2019-02-24T13:31:12Z</time>
      </trkpt>
      <trkpt lat="46.4529010" lon="6.8569430">
        <ele>386.4</ele>
        <time>2019-02-24T13:31:13Z</time>
      </trkpt>
      <trkpt lat="46.4529300" lon="6.8569100">
        <ele>386.5</ele>
        <time>2019-02-24T13:31:14Z</time>
      </trkpt>
      <trkpt lat="46.4529840" lon="6.8568540">
        <ele>386.5</ele>
        <time>2019-02-24T13:31:15Z</time>
      </trkpt>
      <trkpt lat="46.4530070" lon="6.8568300">
        <ele>386.5</ele>
        <time>2019-02-24T13:31:16Z</time>
      </trkpt>
      <trkpt lat="46.4530290" lon="6.8568070">
        <ele>386.6</ele>
        <time>2019-02-24T13:31:17Z</time>
      </trkpt>
      <trkpt lat="46.4530640" lon="6.8567710">
        <ele>386.6</ele>
        <time>2019-02-24T13:31:18Z</time>
      </trkpt>
      <trkpt lat="46.4530990" lon="6.8567350">
        <ele>386.6</ele>
        <time>2019-02-24T13:31:19Z</time>
      </trkpt>
      <trkpt lat="46.4531340" lon="6.8566980">
        <ele>386.6</ele>
        <time>2019-02-24T13:31:20Z</time>
      </trkpt>
      <trkpt lat="46.4531690" lon="6.8566600">
        <ele>386.7</ele>
        <time>2019-02-24T13:31:21Z</time>
      </trkpt>
      <trkpt lat="46.4532040" lon="6.8566240">
        <ele>386.7</ele>
        <time>2019-02-24T13:31:22Z</time>
      </trkpt>
      <trkpt lat="46.4532370" lon="6.8565910">
        <ele>386.7</ele>
        <time>2019-02-24T13:31:23Z</time>
      </trkpt>
      <trkpt lat="46.4532700" lon="6.8565600">
        <ele>386.7</ele>
        <time>2019-02-24T13:31:24Z</time>
      </trkpt>
      <trkpt lat="46.4533050" lon="6.8565300">
        <ele>386.8</ele>
        <time>2019-02-24T13:31:25Z</time>
      </trkpt>
      <trkpt lat="46.4533410" lon="6.8565000">
        <ele>386.8</ele>
        <time>2019-02-24T13:31:26Z</time>
      </trkpt>
      <trkpt lat="46.4533780" lon="6.8564700">
        <ele>386.8</ele>
        <time>2019-02-24T13:31:27Z</time>
      </trkpt>
      <trkpt lat="46.4534170" lon="6.8564390">
        <ele>386.7</ele>
        <time>2019-02-24T13:31:28Z</time>
      </trkpt>
      <trkpt lat="46.4534560" lon="6.8564070">
        <ele>386.5</ele>
        <time>2019-02-24T13:31:29Z</time>
      </trkpt>
      <trkpt lat="46.4534960" lon="6.8563750">
        <ele>386.3</ele>
        <time>2019-02-24T13:31:30Z</time>
      </trkpt>
      <trkpt lat="46.4535370" lon="6.8563420">
        <ele>386.2</ele>
        <time>2019-02-24T13:31:31Z</time>
      </trkpt>
      <trkpt lat="46.4535790" lon="6.8563100">
        <ele>386.0</ele>
        <time>2019-02-24T13:31:32Z</time>
      </trkpt>
      <trkpt lat="46.4536210" lon="6.8562790">
        <ele>385.8</ele>
        <time>2019-02-24T13:31:33Z</time>
      </trkpt>
      <trkpt lat="46.4536640" lon="6.8562500">
        <ele>385.7</ele>
        <time>2019-02-24T13:31:34Z</time>
      </trkpt>
      <trkpt lat="46.4537070" lon="6.8562220">
        <ele>385.5</ele>
        <time>2019-02-24T13:31:35Z</time>
      </trkpt>
      <trkpt lat="46.4537500" lon="6.8561970">
        <ele>385.3</ele>
        <time>2019-02-24T13:31:36Z</time>
      </trkpt>
      <trkpt lat="46.4537930" lon="6.8561750">
        <ele>385.2</ele>
        <time>2019-02-24T13:31:37Z</time>
      </trkpt>
      <trkpt lat="46.4538370" lon="6.8561530">
        <ele>384.9</ele>
        <time>2019-02-24T13:31:38Z</time>
      </trkpt>
      <trkpt lat="46.4538820" lon="6.8561280">
        <ele>384.8</ele>
        <time>2019-02-24T13:31:39Z</time>
      </trkpt>
      <trkpt lat="46.4539300" lon="6.8560970">
        <ele>384.6</ele>
        <time>2019-02-24T13:31:40Z</time>
      </trkpt>
      <trkpt lat="46.4539810" lon="6.8560590">
        <ele>384.4</ele>
        <time>2019-02-24T13:31:41Z</time>
      </trkpt>
      <trkpt lat="46.4540350" lon="6.8560150">
        <ele>384.1</ele>
        <time>2019-02-24T13:31:42Z</time>
      </trkpt>
      <trkpt lat="46.4540900" lon="6.8559670">
        <ele>383.8</ele>
        <time>2019-02-24T13:31:43Z</time>
      </trkpt>
      <trkpt lat="46.4541450" lon="6.8559170">
        <ele>383.6</ele>
        <time>2019-02-24T13:31:44Z</time>
      </trkpt>
      <trkpt lat="46.4542010" lon="6.8558670">
        <ele>383.4</ele>
        <time>2019-02-24T13:31:45Z</time>
      </trkpt>
      <trkpt lat="46.4542580" lon="6.8558180">
        <ele>383.1</ele>
        <time>2019-02-24T13:31:46Z</time>
      </trkpt>
      <trkpt lat="46.4543140" lon="6.8557700">
        <ele>382.8</ele>
        <time>2019-02-24T13:31:47Z</time>
      </trkpt>
      <trkpt lat="46.4543710" lon="6.8557220">
        <ele>382.5</ele>
        <time>2019-02-24T13:31:48Z</time>
      </trkpt>
      <trkpt lat="46.4544280" lon="6.8556750">
        <ele>382.2</ele>
        <time>2019-02-24T13:31:49Z</time>
      </trkpt>
      <trkpt lat="46.4545240" lon="6.8555970">
        <ele>381.8</ele>
        <time>2019-02-24T13:31:50Z</time>
      </trkpt>
      <trkpt lat="46.4545620" lon="6.8555660">
        <ele>381.7</ele>
        <time>2019-02-24T13:31:51Z</time>
      </trkpt>
      <trkpt lat="46.4546010" lon="6.8555350">
        <ele>381.6</ele>
        <time>2019-02-24T13:31:52Z</time>
      </trkpt>
      <trkpt lat="46.4546600" lon="6.8554890">
        <ele>381.4</ele>
        <time>2019-02-24T13:31:53Z</time>
      </trkpt>
      <trkpt lat="46.4547190" lon="6.8554430">
        <ele>381.3</ele>
        <time>2019-02-24T13:31:54Z</time>
      </trkpt>
      <trkpt lat="46.4547780" lon="6.8553970">
        <ele>381.0</ele>
        <time>2019-02-24T13:31:55Z</time>
      </trkpt>
      <trkpt lat="46.4548380" lon="6.8553500">
        <ele>380.8</ele>
        <time>2019-02-24T13:31:56Z</time>
      </trkpt>
      <trkpt lat="46.4548970" lon="6.8553020">
        <ele>380.6</ele>
        <time>2019-02-24T13:31:57Z</time>
      </trkpt>
      <trkpt lat="46.4549570" lon="6.8552540">
        <ele>380.4</ele>
        <time>2019-02-24T13:31:58Z</time>
      </trkpt>
      <trkpt lat="46.4550160" lon="6.8552050">
        <ele>380.3</ele>
        <time>2019-02-24T13:31:59Z</time>
      </trkpt>
      <trkpt lat="46.4550740" lon="6.8551550">
        <ele>380.1</ele>
        <time>2019-02-24T13:32:00Z</time>
      </trkpt>
      <trkpt lat="46.4551320" lon="6.8551040">
        <ele>380.0</ele>
        <time>2019-02-24T13:32:01Z</time>
      </trkpt>
      <trkpt lat="46.4551900" lon="6.8550510">
        <ele>379.8</ele>
        <time>2019-02-24T13:32:02Z</time>
      </trkpt>
      <trkpt lat="46.4552470" lon="6.8549980">
        <ele>379.7</ele>
        <time>2019-02-24T13:32:03Z</time>
      </trkpt>
      <trkpt lat="46.4553040" lon="6.8549450">
        <ele>379.6</ele>
        <time>2019-02-24T13:32:04Z</time>
      </trkpt>
      <trkpt lat="46.4553610" lon="6.8548910">
        <ele>379.5</ele>
        <time>2019-02-24T13:32:05Z</time>
      </trkpt>
      <trkpt lat="46.4554170" lon="6.8548380">
        <ele>379.4</ele>
        <time>2019-02-24T13:32:06Z</time>
      </trkpt>
      <trkpt lat="46.4554730" lon="6.8547850">
        <ele>379.4</ele>
        <time>2019-02-24T13:32:07Z</time>
      </trkpt>
      <trkpt lat="46.4555300" lon="6.8547330">
        <ele>379.3</ele>
        <time>2019-02-24T13:32:08Z</time>
      </trkpt>
      <trkpt lat="46.4555860" lon="6.8546820">
        <ele>379.3</ele>
        <time>2019-02-24T13:32:09Z</time>
      </trkpt>
      <trkpt lat="46.4556430" lon="6.8546330">
        <ele>379.2</ele>
        <time>2019-02-24T13:32:10Z</time>
      </trkpt>
      <trkpt lat="46.4556990" lon="6.8545840">
        <ele>379.2</ele>
        <time>2019-02-24T13:32:11Z</time>
      </trkpt>
      <trkpt lat="46.4557560" lon="6.8545360">
        <ele>379.1</ele>
        <time>2019-02-24T13:32:12Z</time>
      </trkpt>
      <trkpt lat="46.4558130" lon="6.8544860">
        <ele>379.1</ele>
        <time>2019-02-24T13:32:13Z</time>
      </trkpt>
      <trkpt lat="46.4558690" lon="6.8544360">
        <ele>379.1</ele>
        <time>2019-02-24T13:32:14Z</time>
      </trkpt>
      <trkpt lat="46.4559250" lon="6.8543860">
        <ele>378.9</ele>
        <time>2019-02-24T13:32:15Z</time>
      </trkpt>
      <trkpt lat="46.4559810" lon="6.8543340">
        <ele>378.8</ele>
        <time>2019-02-24T13:32:16Z</time>
      </trkpt>
      <trkpt lat="46.4560360" lon="6.8542830">
        <ele>378.8</ele>
        <time>2019-02-24T13:32:17Z</time>
      </trkpt>
      <trkpt lat="46.4560890" lon="6.8542320">
        <ele>378.7</ele>
        <time>2019-02-24T13:32:18Z</time>
      </trkpt>
      <trkpt lat="46.4561420" lon="6.8541820">
        <ele>378.6</ele>
        <time>2019-02-24T13:32:19Z</time>
      </trkpt>
      <trkpt lat="46.4561930" lon="6.8541320">
        <ele>378.5</ele>
        <time>2019-02-24T13:32:20Z</time>
      </trkpt>
      <trkpt lat="46.4562440" lon="6.8540820">
        <ele>378.4</ele>
        <time>2019-02-24T13:32:21Z</time>
      </trkpt>
      <trkpt lat="46.4562930" lon="6.8540330">
        <ele>378.3</ele>
        <time>2019-02-24T13:32:22Z</time>
      </trkpt>
      <trkpt lat="46.4563420" lon="6.8539840">
        <ele>378.2</ele>
        <time>2019-02-24T13:32:23Z</time>
      </trkpt>
      <trkpt lat="46.4563910" lon="6.8539360">
        <ele>378.1</ele>
        <time>2019-02-24T13:32:24Z</time>
      </trkpt>
      <trkpt lat="46.4564380" lon="6.8538880">
        <ele>378.0</ele>
        <time>2019-02-24T13:32:25Z</time>
      </trkpt>
      <trkpt lat="46.4564850" lon="6.8538400">
        <ele>377.9</ele>
        <time>2019-02-24T13:32:26Z</time>
      </trkpt>
      <trkpt lat="46.4565320" lon="6.8537930">
        <ele>377.8</ele>
        <time>2019-02-24T13:32:27Z</time>
      </trkpt>
      <trkpt lat="46.4565780" lon="6.8537450">
        <ele>377.7</ele>
        <time>2019-02-24T13:32:28Z</time>
      </trkpt>
      <trkpt lat="46.4566240" lon="6.8536980">
        <ele>377.6</ele>
        <time>2019-02-24T13:32:29Z</time>
      </trkpt>
      <trkpt lat="46.4566700" lon="6.8536520">
        <ele>377.5</ele>
        <time>2019-02-24T13:32:30Z</time>
      </trkpt>
      <trkpt lat="46.4567160" lon="6.8536050">
        <ele>377.4</ele>
        <time>2019-02-24T13:32:31Z</time>
      </trkpt>
      <trkpt lat="46.4567620" lon="6.8535590">
        <ele>377.3</ele>
        <time>2019-02-24T13:32:32Z</time>
      </trkpt>
      <trkpt lat="46.4568080" lon="6.8535130">
        <ele>377.2</ele>
        <time>2019-02-24T13:32:33Z</time>
      </trkpt>
      <trkpt lat="46.4568540" lon="6.8534680">
        <ele>377.1</ele>
        <time>2019-02-24T13:32:34Z</time>
      </trkpt>
      <trkpt lat="46.4569000" lon="6.8534220">
        <ele>377.0</ele>
        <time>2019-02-24T13:32:35Z</time>
      </trkpt>
      <trkpt lat="46.4569460" lon="6.8533770">
        <ele>376.9</ele>
        <time>2019-02-24T13:32:36Z</time>
      </trkpt>
      <trkpt lat="46.4569920" lon="6.8533330">
        <ele>376.8</ele>
        <time>2019-02-24T13:32:37Z</time>
      </trkpt>
      <trkpt lat="46.4570380" lon="6.8532890">
        <ele>376.8</ele>
        <time>2019-02-24T13:32:38Z</time>
      </trkpt>
      <trkpt lat="46.4570830" lon="6.8532450">
        <ele>376.7</ele>
        <time>2019-02-24T13:32:39Z</time>
      </trkpt>
      <trkpt lat="46.4571280" lon="6.8532020">
        <ele>376.6</ele>
        <time>2019-02-24T13:32:40Z</time>
      </trkpt>
      <trkpt lat="46.4571730" lon="6.8531600">
        <ele>376.6</ele>
        <time>2019-02-24T13:32:41Z</time>
      </trkpt>
      <trkpt lat="46.4572170" lon="6.8531190">
        <ele>376.5</ele>
        <time>2019-02-24T13:32:42Z</time>
      </trkpt>
      <trkpt lat="46.4572600" lon="6.8530790">
        <ele>376.5</ele>
        <time>2019-02-24T13:32:43Z</time>
      </trkpt>
      <trkpt lat="46.4573030" lon="6.8530410">
        <ele>376.6</ele>
        <time>2019-02-24T13:32:44Z</time>
      </trkpt>
      <trkpt lat="46.4573440" lon="6.8530050">
        <ele>376.7</ele>
        <time>2019-02-24T13:32:45Z</time>
      </trkpt>
      <trkpt lat="46.4573850" lon="6.8529730">
        <ele>376.8</ele>
        <time>2019-02-24T13:32:46Z</time>
      </trkpt>
      <trkpt lat="46.4574240" lon="6.8529450">
        <ele>376.8</ele>
        <time>2019-02-24T13:32:47Z</time>
      </trkpt>
      <trkpt lat="46.4574620" lon="6.8529200">
        <ele>376.9</ele>
        <time>2019-02-24T13:32:48Z</time>
      </trkpt>
      <trkpt lat="46.4574980" lon="6.8529010">
        <ele>377.0</ele>
        <time>2019-02-24T13:32:49Z</time>
      </trkpt>
      <trkpt lat="46.4575330" lon="6.8528870">
        <ele>377.1</ele>
        <time>2019-02-24T13:32:50Z</time>
      </trkpt>
      <trkpt lat="46.4575660" lon="6.8528750">
        <ele>377.1</ele>
        <time>2019-02-24T13:32:51Z</time>
      </trkpt>
      <trkpt lat="46.4576000" lon="6.8528620">
        <ele>377.4</ele>
        <time>2019-02-24T13:32:52Z</time>
      </trkpt>
      <trkpt lat="46.4576350" lon="6.8528450">
        <ele>377.6</ele>
        <time>2019-02-24T13:32:53Z</time>
      </trkpt>
      <trkpt lat="46.4576700" lon="6.8528200">
        <ele>377.8</ele>
        <time>2019-02-24T13:32:54Z</time>
      </trkpt>
      <trkpt lat="46.4577040" lon="6.8527880">
        <ele>378.2</ele>
        <time>2019-02-24T13:32:55Z</time>
      </trkpt>
      <trkpt lat="46.4577350" lon="6.8527470">
        <ele>378.3</ele>
        <time>2019-02-24T13:32:56Z</time>
      </trkpt>
      <trkpt lat="46.4577600" lon="6.8526970">
        <ele>378.3</ele>
        <time>2019-02-24T13:32:57Z</time>
      </trkpt>
      <trkpt lat="46.4577780" lon="6.8526370">
        <ele>378.3</ele>
        <time>2019-02-24T13:32:58Z</time>
      </trkpt>
      <trkpt lat="46.4577910" lon="6.8525700">
        <ele>378.4</ele>
        <time>2019-02-24T13:32:59Z</time>
      </trkpt>
      <trkpt lat="46.4578090" lon="6.8524580">
        <ele>378.4</ele>
        <time>2019-02-24T13:33:00Z</time>
      </trkpt>
      <trkpt lat="46.4578150" lon="6.8524200">
        <ele>378.4</ele>
        <time>2019-02-24T13:33:01Z</time>
      </trkpt>
      <trkpt lat="46.4578310" lon="6.8523410">
        <ele>378.5</ele>
        <time>2019-02-24T13:33:02Z</time>
      </trkpt>
      <trkpt lat="46.4578500" lon="6.8522610">
        <ele>378.6</ele>
        <time>2019-02-24T13:33:03Z</time>
      </trkpt>
      <trkpt lat="46.4578710" lon="6.8521810">
        <ele>378.6</ele>
        <time>2019-02-24T13:33:04Z</time>
      </trkpt>
      <trkpt lat="46.4579090" lon="6.8520470">
        <ele>378.7</ele>
        <time>2019-02-24T13:33:05Z</time>
      </trkpt>
      <trkpt lat="46.4579250" lon="6.8519940">
        <ele>378.7</ele>
        <time>2019-02-24T13:33:06Z</time>
      </trkpt>
      <trkpt lat="46.4579400" lon="6.8519400">
        <ele>378.7</ele>
        <time>2019-02-24T13:33:07Z</time>
      </trkpt>
      <trkpt lat="46.4579620" lon="6.8518620">
        <ele>378.7</ele>
        <time>2019-02-24T13:33:08Z</time>
      </trkpt>
      <trkpt lat="46.4579830" lon="6.8517840">
        <ele>378.7</ele>
        <time>2019-02-24T13:33:09Z</time>
      </trkpt>
      <trkpt lat="46.4580040" lon="6.8517090">
        <ele>378.7</ele>
        <time>2019-02-24T13:33:10Z</time>
      </trkpt>
      <trkpt lat="46.4580230" lon="6.8516350">
        <ele>378.7</ele>
        <time>2019-02-24T13:33:11Z</time>
      </trkpt>
      <trkpt lat="46.4580420" lon="6.8515610">
        <ele>378.7</ele>
        <time>2019-02-24T13:33:12Z</time>
      </trkpt>
      <trkpt lat="46.4580610" lon="6.8514870">
        <ele>378.7</ele>
        <time>2019-02-24T13:33:13Z</time>
      </trkpt>
      <trkpt lat="46.4580790" lon="6.8514120">
        <ele>378.7</ele>
        <time>2019-02-24T13:33:14Z</time>
      </trkpt>
      <trkpt lat="46.4580970" lon="6.8513370">
        <ele>378.7</ele>
        <time>2019-02-24T13:33:15Z</time>
      </trkpt>
      <trkpt lat="46.4581150" lon="6.8512620">
        <ele>378.7</ele>
        <time>2019-02-24T13:33:16Z</time>
      </trkpt>
      <trkpt lat="46.4581310" lon="6.8511860">
        <ele>378.8</ele>
        <time>2019-02-24T13:33:17Z</time>
      </trkpt>
      <trkpt lat="46.4581470" lon="6.8511090">
        <ele>378.9</ele>
        <time>2019-02-24T13:33:18Z</time>
      </trkpt>
      <trkpt lat="46.4581620" lon="6.8510330">
        <ele>379.0</ele>
        <time>2019-02-24T13:33:19Z</time>
      </trkpt>
      <trkpt lat="46.4581760" lon="6.8509560">
        <ele>379.2</ele>
        <time>2019-02-24T13:33:20Z</time>
      </trkpt>
      <trkpt lat="46.4581880" lon="6.8508790">
        <ele>379.5</ele>
        <time>2019-02-24T13:33:21Z</time>
      </trkpt>
      <trkpt lat="46.4582030" lon="6.8507510">
        <ele>379.9</ele>
        <time>2019-02-24T13:33:22Z</time>
      </trkpt>
      <trkpt lat="46.4582090" lon="6.8507000">
        <ele>380.0</ele>
        <time>2019-02-24T13:33:23Z</time>
      </trkpt>
      <trkpt lat="46.4582140" lon="6.8506490">
        <ele>380.1</ele>
        <time>2019-02-24T13:33:24Z</time>
      </trkpt>
      <trkpt lat="46.4582200" lon="6.8505720">
        <ele>380.4</ele>
        <time>2019-02-24T13:33:25Z</time>
      </trkpt>
      <trkpt lat="46.4582250" lon="6.8504960">
        <ele>380.5</ele>
        <time>2019-02-24T13:33:26Z</time>
      </trkpt>
      <trkpt lat="46.4582310" lon="6.8503700">
        <ele>380.8</ele>
        <time>2019-02-24T13:33:27Z</time>
      </trkpt>
      <trkpt lat="46.4582320" lon="6.8503190">
        <ele>380.9</ele>
        <time>2019-02-24T13:33:28Z</time>
      </trkpt>
      <trkpt lat="46.4582340" lon="6.8502690">
        <ele>381.0</ele>
        <time>2019-02-24T13:33:29Z</time>
      </trkpt>
      <trkpt lat="46.4582370" lon="6.8501930">
        <ele>381.2</ele>
        <time>2019-02-24T13:33:30Z</time>
      </trkpt>
      <trkpt lat="46.4582400" lon="6.8501180">
        <ele>381.4</ele>
        <time>2019-02-24T13:33:31Z</time>
      </trkpt>
      <trkpt lat="46.4582440" lon="6.8500420">
        <ele>381.6</ele>
        <time>2019-02-24T13:33:32Z</time>
      </trkpt>
      <trkpt lat="46.4582520" lon="6.8499660">
        <ele>381.8</ele>
        <time>2019-02-24T13:33:33Z</time>
      </trkpt>
      <trkpt lat="46.4582630" lon="6.8498880">
        <ele>382.0</ele>
        <time>2019-02-24T13:33:34Z</time>
      </trkpt>
      <trkpt lat="46.4582760" lon="6.8498100">
        <ele>382.2</ele>
        <time>2019-02-24T13:33:35Z</time>
      </trkpt>
      <trkpt lat="46.4582900" lon="6.8497340">
        <ele>382.3</ele>
        <time>2019-02-24T13:33:36Z</time>
      </trkpt>
      <trkpt lat="46.4583040" lon="6.8496620">
        <ele>382.5</ele>
        <time>2019-02-24T13:33:37Z</time>
      </trkpt>
      <trkpt lat="46.4583160" lon="6.8495950">
        <ele>382.6</ele>
        <time>2019-02-24T13:33:38Z</time>
      </trkpt>
      <trkpt lat="46.4583270" lon="6.8495310">
        <ele>382.7</ele>
        <time>2019-02-24T13:33:39Z</time>
      </trkpt>
      <trkpt lat="46.4583380" lon="6.8494680">
        <ele>382.7</ele>
        <time>2019-02-24T13:33:40Z</time>
      </trkpt>
      <trkpt lat="46.4583490" lon="6.8494040">
        <ele>382.8</ele>
        <time>2019-02-24T13:33:41Z</time>
      </trkpt>
      <trkpt lat="46.4583600" lon="6.8493370">
        <ele>382.8</ele>
        <time>2019-02-24T13:33:42Z</time>
      </trkpt>
      <trkpt lat="46.4583720" lon="6.8492680">
        <ele>382.7</ele>
        <time>2019-02-24T13:33:43Z</time>
      </trkpt>
      <trkpt lat="46.4583850" lon="6.8491970">
        <ele>382.5</ele>
        <time>2019-02-24T13:33:44Z</time>
      </trkpt>
      <trkpt lat="46.4583980" lon="6.8491250">
        <ele>382.4</ele>
        <time>2019-02-24T13:33:45Z</time>
      </trkpt>
      <trkpt lat="46.4584130" lon="6.8490520">
        <ele>382.2</ele>
        <time>2019-02-24T13:33:46Z</time>
      </trkpt>
      <trkpt lat="46.4584270" lon="6.8489780">
        <ele>382.1</ele>
        <time>2019-02-24T13:33:47Z</time>
      </trkpt>
      <trkpt lat="46.4584430" lon="6.8489050">
        <ele>382.1</ele>
        <time>2019-02-24T13:33:48Z</time>
      </trkpt>
      <trkpt lat="46.4584580" lon="6.8488330">
        <ele>382.0</ele>
        <time>2019-02-24T13:33:49Z</time>
      </trkpt>
      <trkpt lat="46.4584740" lon="6.8487620">
        <ele>382.0</ele>
        <time>2019-02-24T13:33:50Z</time>
      </trkpt>
      <trkpt lat="46.4584900" lon="6.8486930">
        <ele>382.0</ele>
        <time>2019-02-24T13:33:51Z</time>
      </trkpt>
      <trkpt lat="46.4585180" lon="6.8485840">
        <ele>381.9</ele>
        <time>2019-02-24T13:33:52Z</time>
      </trkpt>
      <trkpt lat="46.4585280" lon="6.8485430">
        <ele>381.9</ele>
        <time>2019-02-24T13:33:53Z</time>
      </trkpt>
      <trkpt lat="46.4585390" lon="6.8485010">
        <ele>381.9</ele>
        <time>2019-02-24T13:33:54Z</time>
      </trkpt>
      <trkpt lat="46.4585550" lon="6.8484430">
        <ele>381.9</ele>
        <time>2019-02-24T13:33:55Z</time>
      </trkpt>
      <trkpt lat="46.4585710" lon="6.8483880">
        <ele>381.8</ele>
        <time>2019-02-24T13:33:56Z</time>
      </trkpt>
      <trkpt lat="46.4585870" lon="6.8483340">
        <ele>381.8</ele>
        <time>2019-02-24T13:33:57Z</time>
      </trkpt>
      <trkpt lat="46.4586030" lon="6.8482820">
        <ele>381.7</ele>
        <time>2019-02-24T13:33:58Z</time>
      </trkpt>
      <trkpt lat="46.4586180" lon="6.8482300">
        <ele>381.6</ele>
        <time>2019-02-24T13:33:59Z</time>
      </trkpt>
      <trkpt lat="46.4586340" lon="6.8481790">
        <ele>381.5</ele>
        <time>2019-02-24T13:34:00Z</time>
      </trkpt>
      <trkpt lat="46.4586490" lon="6.8481280">
        <ele>381.5</ele>
        <time>2019-02-24T13:34:01Z</time>
      </trkpt>
      <trkpt lat="46.4586640" lon="6.8480760">
        <ele>381.4</ele>
        <time>2019-02-24T13:34:02Z</time>
      </trkpt>
      <trkpt lat="46.4586790" lon="6.8480240">
        <ele>381.3</ele>
        <time>2019-02-24T13:34:03Z</time>
      </trkpt>
      <trkpt lat="46.4586950" lon="6.8479710">
        <ele>381.3</ele>
        <time>2019-02-24T13:34:04Z</time>
      </trkpt>
      <trkpt lat="46.4587110" lon="6.8479170">
        <ele>381.2</ele>
        <time>2019-02-24T13:34:05Z</time>
      </trkpt>
      <trkpt lat="46.4587260" lon="6.8478620">
        <ele>381.2</ele>
        <time>2019-02-24T13:34:06Z</time>
      </trkpt>
      <trkpt lat="46.4587430" lon="6.8478070">
        <ele>381.2</ele>
        <time>2019-02-24T13:34:07Z</time>
      </trkpt>
      <trkpt lat="46.4587610" lon="6.8477500">
        <ele>381.2</ele>
        <time>2019-02-24T13:34:08Z</time>
      </trkpt>
      <trkpt lat="46.4587790" lon="6.8476930">
        <ele>381.1</ele>
        <time>2019-02-24T13:34:09Z</time>
      </trkpt>
      <trkpt lat="46.4587990" lon="6.8476340">
        <ele>381.2</ele>
        <time>2019-02-24T13:34:10Z</time>
      </trkpt>
      <trkpt lat="46.4588200" lon="6.8475760">
        <ele>381.2</ele>
        <time>2019-02-24T13:34:11Z</time>
      </trkpt>
      <trkpt lat="46.4588430" lon="6.8475180">
        <ele>381.3</ele>
        <time>2019-02-24T13:34:12Z</time>
      </trkpt>
      <trkpt lat="46.4588680" lon="6.8474620">
        <ele>381.3</ele>
        <time>2019-02-24T13:34:13Z</time>
      </trkpt>
      <trkpt lat="46.4588960" lon="6.8474080">
        <ele>381.3</ele>
        <time>2019-02-24T13:34:14Z</time>
      </trkpt>
      <trkpt lat="46.4589270" lon="6.8473580">
        <ele>381.5</ele>
        <time>2019-02-24T13:34:15Z</time>
      </trkpt>
      <trkpt lat="46.4589600" lon="6.8473080">
        <ele>381.5</ele>
        <time>2019-02-24T13:34:16Z</time>
      </trkpt>
      <trkpt lat="46.4589920" lon="6.8472590">
        <ele>381.6</ele>
        <time>2019-02-24T13:34:17Z</time>
      </trkpt>
      <trkpt lat="46.4590230" lon="6.8472090">
        <ele>381.6</ele>
        <time>2019-02-24T13:34:18Z</time>
      </trkpt>
      <trkpt lat="46.4590510" lon="6.8471550">
        <ele>381.7</ele>
        <time>2019-02-24T13:34:19Z</time>
      </trkpt>
      <trkpt lat="46.4590750" lon="6.8471000">
        <ele>381.7</ele>
        <time>2019-02-24T13:34:20Z</time>
      </trkpt>
      <trkpt lat="46.4590970" lon="6.8470420">
        <ele>381.8</ele>
        <time>2019-02-24T13:34:21Z</time>
      </trkpt>
      <trkpt lat="46.4591180" lon="6.8469840">
        <ele>381.9</ele>
        <time>2019-02-24T13:34:22Z</time>
      </trkpt>
      <trkpt lat="46.4591360" lon="6.8469240">
        <ele>382.1</ele>
        <time>2019-02-24T13:34:23Z</time>
      </trkpt>
      <trkpt lat="46.4591540" lon="6.8468650">
        <ele>382.2</ele>
        <time>2019-02-24T13:34:24Z</time>
      </trkpt>
      <trkpt lat="46.4591710" lon="6.8468070">
        <ele>382.3</ele>
        <time>2019-02-24T13:34:25Z</time>
      </trkpt>
      <trkpt lat="46.4591880" lon="6.8467490">
        <ele>382.5</ele>
        <time>2019-02-24T13:34:26Z</time>
      </trkpt>
      <trkpt lat="46.4592050" lon="6.8466930">
        <ele>382.6</ele>
        <time>2019-02-24T13:34:27Z</time>
      </trkpt>
      <trkpt lat="46.4592230" lon="6.8466390">
        <ele>382.6</ele>
        <time>2019-02-24T13:34:28Z</time>
      </trkpt>
      <trkpt lat="46.4592420" lon="6.8465870">
        <ele>382.7</ele>
        <time>2019-02-24T13:34:29Z</time>
      </trkpt>
      <trkpt lat="46.4592600" lon="6.8465360">
        <ele>382.8</ele>
        <time>2019-02-24T13:34:30Z</time>
      </trkpt>
      <trkpt lat="46.4592800" lon="6.8464870">
        <ele>382.8</ele>
        <time>2019-02-24T13:34:31Z</time>
      </trkpt>
      <trkpt lat="46.4593000" lon="6.8464390">
        <ele>382.9</ele>
        <time>2019-02-24T13:34:32Z</time>
      </trkpt>
      <trkpt lat="46.4593200" lon="6.8463920">
        <ele>382.9</ele>
        <time>2019-02-24T13:34:33Z</time>
      </trkpt>
      <trkpt lat="46.4593400" lon="6.8463460">
        <ele>382.9</ele>
        <time>2019-02-24T13:34:34Z</time>
      </trkpt>
      <trkpt lat="46.4593620" lon="6.8463020">
        <ele>382.9</ele>
        <time>2019-02-24T13:34:35Z</time>
      </trkpt>
      <trkpt lat="46.4593830" lon="6.8462580">
        <ele>383.0</ele>
        <time>2019-02-24T13:34:36Z</time>
      </trkpt>
      <trkpt lat="46.4594050" lon="6.8462150">
        <ele>383.0</ele>
        <time>2019-02-24T13:34:37Z</time>
      </trkpt>
      <trkpt lat="46.4594270" lon="6.8461730">
        <ele>383.0</ele>
        <time>2019-02-24T13:34:38Z</time>
      </trkpt>
      <trkpt lat="46.4594500" lon="6.8461320">
        <ele>383.0</ele>
        <time>2019-02-24T13:34:39Z</time>
      </trkpt>
      <trkpt lat="46.4594730" lon="6.8460910">
        <ele>383.0</ele>
        <time>2019-02-24T13:34:40Z</time>
      </trkpt>
      <trkpt lat="46.4594960" lon="6.8460510">
        <ele>383.1</ele>
        <time>2019-02-24T13:34:41Z</time>
      </trkpt>
      <trkpt lat="46.4595200" lon="6.8460110">
        <ele>383.1</ele>
        <time>2019-02-24T13:34:42Z</time>
      </trkpt>
      <trkpt lat="46.4595440" lon="6.8459720">
        <ele>383.1</ele>
        <time>2019-02-24T13:34:43Z</time>
      </trkpt>
      <trkpt lat="46.4595690" lon="6.8459320">
        <ele>383.2</ele>
        <time>2019-02-24T13:34:44Z</time>
      </trkpt>
      <trkpt lat="46.4595930" lon="6.8458930">
        <ele>383.2</ele>
        <time>2019-02-24T13:34:45Z</time>
      </trkpt>
      <trkpt lat="46.4596180" lon="6.8458550">
        <ele>383.2</ele>
        <time>2019-02-24T13:34:46Z</time>
      </trkpt>
      <trkpt lat="46.4596430" lon="6.8458160">
        <ele>383.3</ele>
        <time>2019-02-24T13:34:47Z</time>
      </trkpt>
      <trkpt lat="46.4596690" lon="6.8457780">
        <ele>383.3</ele>
        <time>2019-02-24T13:34:48Z</time>
      </trkpt>
      <trkpt lat="46.4596940" lon="6.8457400">
        <ele>383.4</ele>
        <time>2019-02-24T13:34:49Z</time>
      </trkpt>
      <trkpt lat="46.4597200" lon="6.8457020">
        <ele>383.5</ele>
        <time>2019-02-24T13:34:50Z</time>
      </trkpt>
      <trkpt lat="46.4597450" lon="6.8456650">
        <ele>383.5</ele>
        <time>2019-02-24T13:34:51Z</time>
      </trkpt>
      <trkpt lat="46.4597710" lon="6.8456280">
        <ele>383.6</ele>
        <time>2019-02-24T13:34:52Z</time>
      </trkpt>
      <trkpt lat="46.4597970" lon="6.8455910">
        <ele>383.7</ele>
        <time>2019-02-24T13:34:53Z</time>
      </trkpt>
      <trkpt lat="46.4598220" lon="6.8455540">
        <ele>383.8</ele>
        <time>2019-02-24T13:34:54Z</time>
      </trkpt>
      <trkpt lat="46.4598470" lon="6.8455180">
        <ele>383.9</ele>
        <time>2019-02-24T13:34:55Z</time>
      </trkpt>
      <trkpt lat="46.4598720" lon="6.8454820">
        <ele>384.0</ele>
        <time>2019-02-24T13:34:56Z</time>
      </trkpt>
      <trkpt lat="46.4598960" lon="6.8454470">
        <ele>384.1</ele>
        <time>2019-02-24T13:34:57Z</time>
      </trkpt>
      <trkpt lat="46.4599200" lon="6.8454120">
        <ele>384.2</ele>
        <time>2019-02-24T13:34:58Z</time>
      </trkpt>
      <trkpt lat="46.4599430" lon="6.8453770">
        <ele>384.3</ele>
        <time>2019-02-24T13:34:59Z</time>
      </trkpt>
      <trkpt lat="46.4599650" lon="6.8453430">
        <ele>384.4</ele>
        <time>2019-02-24T13:35:00Z</time>
      </trkpt>
      <trkpt lat="46.4599870" lon="6.8453080">
        <ele>384.5</ele>
        <time>2019-02-24T13:35:01Z</time>
      </trkpt>
      <trkpt lat="46.4600090" lon="6.8452740">
        <ele>384.6</ele>
        <time>2019-02-24T13:35:02Z</time>
      </trkpt>
      <trkpt lat="46.4600300" lon="6.8452400">
        <ele>384.7</ele>
        <time>2019-02-24T13:35:03Z</time>
      </trkpt>
      <trkpt lat="46.4600510" lon="6.8452060">
        <ele>384.9</ele>
        <time>2019-02-24T13:35:04Z</time>
      </trkpt>
      <trkpt lat="46.4600720" lon="6.8451710">
        <ele>385.0</ele>
        <time>2019-02-24T13:35:05Z</time>
      </trkpt>
      <trkpt lat="46.4600930" lon="6.8451360">
        <ele>385.1</ele>
        <time>2019-02-24T13:35:06Z</time>
      </trkpt>
      <trkpt lat="46.4601140" lon="6.8451010">
        <ele>385.2</ele>
        <time>2019-02-24T13:35:07Z</time>
      </trkpt>
      <trkpt lat="46.4601350" lon="6.8450640">
        <ele>385.3</ele>
        <time>2019-02-24T13:35:08Z</time>
      </trkpt>
      <trkpt lat="46.4601560" lon="6.8450270">
        <ele>385.4</ele>
        <time>2019-02-24T13:35:09Z</time>
      </trkpt>
      <trkpt lat="46.4601770" lon="6.8449890">
        <ele>385.5</ele>
        <time>2019-02-24T13:35:10Z</time>
      </trkpt>
      <trkpt lat="46.4601980" lon="6.8449500">
        <ele>385.6</ele>
        <time>2019-02-24T13:35:11Z</time>
      </trkpt>
      <trkpt lat="46.4602200" lon="6.8449100">
        <ele>385.7</ele>
        <time>2019-02-24T13:35:12Z</time>
      </trkpt>
      <trkpt lat="46.4602420" lon="6.8448680">
        <ele>385.8</ele>
        <time>2019-02-24T13:35:13Z</time>
      </trkpt>
      <trkpt lat="46.4602650" lon="6.8448250">
        <ele>386.0</ele>
        <time>2019-02-24T13:35:14Z</time>
      </trkpt>
      <trkpt lat="46.4602880" lon="6.8447810">
        <ele>386.0</ele>
        <time>2019-02-24T13:35:15Z</time>
      </trkpt>
      <trkpt lat="46.4603120" lon="6.8447350">
        <ele>386.0</ele>
        <time>2019-02-24T13:35:16Z</time>
      </trkpt>
      <trkpt lat="46.4603370" lon="6.8446890">
        <ele>386.0</ele>
        <time>2019-02-24T13:35:17Z</time>
      </trkpt>
      <trkpt lat="46.4603630" lon="6.8446430">
        <ele>386.0</ele>
        <time>2019-02-24T13:35:18Z</time>
      </trkpt>
      <trkpt lat="46.4603890" lon="6.8445980">
        <ele>386.1</ele>
        <time>2019-02-24T13:35:19Z</time>
      </trkpt>
      <trkpt lat="46.4604170" lon="6.8445530">
        <ele>386.2</ele>
        <time>2019-02-24T13:35:20Z</time>
      </trkpt>
      <trkpt lat="46.4604450" lon="6.8445100">
        <ele>386.3</ele>
        <time>2019-02-24T13:35:21Z</time>
      </trkpt>
      <trkpt lat="46.4604750" lon="6.8444680">
        <ele>386.4</ele>
        <time>2019-02-24T13:35:22Z</time>
      </trkpt>
      <trkpt lat="46.4605060" lon="6.8444290">
        <ele>386.5</ele>
        <time>2019-02-24T13:35:23Z</time>
      </trkpt>
      <trkpt lat="46.4605370" lon="6.8443920">
        <ele>386.7</ele>
        <time>2019-02-24T13:35:24Z</time>
      </trkpt>
      <trkpt lat="46.4605690" lon="6.8443560">
        <ele>386.9</ele>
        <time>2019-02-24T13:35:25Z</time>
      </trkpt>
      <trkpt lat="46.4606000" lon="6.8443210">
        <ele>387.1</ele>
        <time>2019-02-24T13:35:26Z</time>
      </trkpt>
      <trkpt lat="46.4606310" lon="6.8442860">
        <ele>387.2</ele>
        <time>2019-02-24T13:35:27Z</time>
      </trkpt>
      <trkpt lat="46.4606610" lon="6.8442510">
        <ele>387.2</ele>
        <time>2019-02-24T13:35:28Z</time>
      </trkpt>
      <trkpt lat="46.4606900" lon="6.8442150">
        <ele>387.3</ele>
        <time>2019-02-24T13:35:29Z</time>
      </trkpt>
      <trkpt lat="46.4607160" lon="6.8441770">
        <ele>387.4</ele>
        <time>2019-02-24T13:35:30Z</time>
      </trkpt>
      <trkpt lat="46.4607400" lon="6.8441370">
        <ele>387.4</ele>
        <time>2019-02-24T13:35:31Z</time>
      </trkpt>
      <trkpt lat="46.4607640" lon="6.8440950">
        <ele>387.5</ele>
        <time>2019-02-24T13:35:32Z</time>
      </trkpt>
      <trkpt lat="46.4607870" lon="6.8440500">
        <ele>387.6</ele>
        <time>2019-02-24T13:35:33Z</time>
      </trkpt>
      <trkpt lat="46.4608120" lon="6.8440020">
        <ele>387.6</ele>
        <time>2019-02-24T13:35:34Z</time>
      </trkpt>
      <trkpt lat="46.4608400" lon="6.8439530">
        <ele>387.7</ele>
        <time>2019-02-24T13:35:35Z</time>
      </trkpt>
      <trkpt lat="46.4608720" lon="6.8439030">
        <ele>387.8</ele>
        <time>2019-02-24T13:35:36Z</time>
      </trkpt>
      <trkpt lat="46.4609030" lon="6.8438530">
        <ele>387.9</ele>
        <time>2019-02-24T13:35:37Z</time>
      </trkpt>
      <trkpt lat="46.4609370" lon="6.8438070">
        <ele>387.9</ele>
        <time>2019-02-24T13:35:38Z</time>
      </trkpt>
      <trkpt lat="46.4609720" lon="6.8437660">
        <ele>388.0</ele>
        <time>2019-02-24T13:35:39Z</time>
      </trkpt>
      <trkpt lat="46.4610080" lon="6.8437270">
        <ele>388.1</ele>
        <time>2019-02-24T13:35:40Z</time>
      </trkpt>
      <trkpt lat="46.4610440" lon="6.8436880">
        <ele>388.1</ele>
        <time>2019-02-24T13:35:41Z</time>
      </trkpt>
      <trkpt lat="46.4610800" lon="6.8436490">
        <ele>388.2</ele>
        <time>2019-02-24T13:35:42Z</time>
      </trkpt>
      <trkpt lat="46.4611170" lon="6.8436060">
        <ele>388.3</ele>
        <time>2019-02-24T13:35:43Z</time>
      </trkpt>
      <trkpt lat="46.4611530" lon="6.8435610">
        <ele>388.4</ele>
        <time>2019-02-24T13:35:44Z</time>
      </trkpt>
      <trkpt lat="46.4611880" lon="6.8435170">
        <ele>388.6</ele>
        <time>2019-02-24T13:35:45Z</time>
      </trkpt>
      <trkpt lat="46.4612220" lon="6.8434770">
        <ele>388.7</ele>
        <time>2019-02-24T13:35:46Z</time>
      </trkpt>
      <trkpt lat="46.4612550" lon="6.8434420">
        <ele>388.9</ele>
        <time>2019-02-24T13:35:47Z</time>
      </trkpt>
      <trkpt lat="46.4612860" lon="6.8434110">
        <ele>389.0</ele>
        <time>2019-02-24T13:35:48Z</time>
      </trkpt>
      <trkpt lat="46.4613170" lon="6.8433840">
        <ele>389.2</ele>
        <time>2019-02-24T13:35:49Z</time>
      </trkpt>
      <trkpt lat="46.4613480" lon="6.8433590">
        <ele>389.3</ele>
        <time>2019-02-24T13:35:50Z</time>
      </trkpt>
      <trkpt lat="46.4613800" lon="6.8433350">
        <ele>389.5</ele>
        <time>2019-02-24T13:35:51Z</time>
      </trkpt>
      <trkpt lat="46.4614120" lon="6.8433110">
        <ele>389.6</ele>
        <time>2019-02-24T13:35:52Z</time>
      </trkpt>
      <trkpt lat="46.4614430" lon="6.8432880">
        <ele>389.7</ele>
        <time>2019-02-24T13:35:53Z</time>
      </trkpt>
      <trkpt lat="46.4614720" lon="6.8432660">
        <ele>389.8</ele>
        <time>2019-02-24T13:35:54Z</time>
      </trkpt>
      <trkpt lat="46.4614980" lon="6.8432430">
        <ele>389.9</ele>
        <time>2019-02-24T13:35:55Z</time>
      </trkpt>
      <trkpt lat="46.4615210" lon="6.8432210">
        <ele>390.0</ele>
        <time>2019-02-24T13:35:56Z</time>
      </trkpt>
      <trkpt lat="46.4615440" lon="6.8431980">
        <ele>390.1</ele>
        <time>2019-02-24T13:35:57Z</time>
      </trkpt>
      <trkpt lat="46.4615660" lon="6.8431740">
        <ele>390.2</ele>
        <time>2019-02-24T13:35:58Z</time>
      </trkpt>
      <trkpt lat="46.4615890" lon="6.8431490">
        <ele>390.1</ele>
        <time>2019-02-24T13:35:59Z</time>
      </trkpt>
      <trkpt lat="46.4616130" lon="6.8431240">
        <ele>390.1</ele>
        <time>2019-02-24T13:36:00Z</time>
      </trkpt>
      <trkpt lat="46.4616400" lon="6.8430980">
        <ele>390.0</ele>
        <time>2019-02-24T13:36:01Z</time>
      </trkpt>
      <trkpt lat="46.4616740" lon="6.8430690">
        <ele>389.9</ele>
        <time>2019-02-24T13:36:02Z</time>
      </trkpt>
      <trkpt lat="46.4617070" lon="6.8430400">
        <ele>389.8</ele>
        <time>2019-02-24T13:36:03Z</time>
      </trkpt>
      <trkpt lat="46.4617450" lon="6.8430100">
        <ele>389.8</ele>
        <time>2019-02-24T13:36:04Z</time>
      </trkpt>
      <trkpt lat="46.4617850" lon="6.8429790">
        <ele>389.7</ele>
        <time>2019-02-24T13:36:05Z</time>
      </trkpt>
      <trkpt lat="46.4618250" lon="6.8429470">
        <ele>389.6</ele>
        <time>2019-02-24T13:36:06Z</time>
      </trkpt>
      <trkpt lat="46.4618620" lon="6.8429160">
        <ele>389.4</ele>
        <time>2019-02-24T13:36:07Z</time>
      </trkpt>
      <trkpt lat="46.4618960" lon="6.8428860">
        <ele>389.3</ele>
        <time>2019-02-24T13:36:08Z</time>
      </trkpt>
      <trkpt lat="46.4619250" lon="6.8428570">
        <ele>389.2</ele>
        <time>2019-02-24T13:36:09Z</time>
      </trkpt>
      <trkpt lat="46.4619470" lon="6.8428290">
        <ele>389.1</ele>
        <time>2019-02-24T13:36:10Z</time>
      </trkpt>
      <trkpt lat="46.4619610" lon="6.8428040">
        <ele>389.0</ele>
        <time>2019-02-24T13:36:11Z</time>
      </trkpt>
      <trkpt lat="46.4619670" lon="6.8427810">
        <ele>388.9</ele>
        <time>2019-02-24T13:36:12Z</time>
      </trkpt>
      <trkpt lat="46.4619680" lon="6.8427610">
        <ele>388.9</ele>
        <time>2019-02-24T13:36:13Z</time>
      </trkpt>
      <trkpt lat="46.4619640" lon="6.8427450">
        <ele>388.8</ele>
        <time>2019-02-24T13:36:14Z</time>
      </trkpt>
      <trkpt lat="46.4619590" lon="6.8427310">
        <ele>388.8</ele>
        <time>2019-02-24T13:36:15Z</time>
      </trkpt>
      <trkpt lat="46.4619660" lon="6.8427080">
        <ele>388.8</ele>
        <time>2019-02-24T13:36:16Z</time>
      </trkpt>
      <trkpt lat="46.4620020" lon="6.8426650">
        <ele>388.6</ele>
        <time>2019-02-24T13:36:17Z</time>
      </trkpt>
      <trkpt lat="46.4620820" lon="6.8425880">
        <ele>388.3</ele>
        <time>2019-02-24T13:36:18Z</time>
      </trkpt>
      <trkpt lat="46.4622050" lon="6.8424790">
        <ele>387.8</ele>
        <time>2019-02-24T13:36:19Z</time>
      </trkpt>
      <trkpt lat="46.4623050" lon="6.8423930">
        <ele>387.3</ele>
        <time>2019-02-24T13:36:20Z</time>
      </trkpt>
      <trkpt lat="46.4623350" lon="6.8423700">
        <ele>387.3</ele>
        <time>2019-02-24T13:36:21Z</time>
      </trkpt>
      <trkpt lat="46.4623630" lon="6.8423450">
        <ele>387.2</ele>
        <time>2019-02-24T13:36:22Z</time>
      </trkpt>
      <trkpt lat="46.4623980" lon="6.8423080">
        <ele>387.1</ele>
        <time>2019-02-24T13:36:23Z</time>
      </trkpt>
      <trkpt lat="46.4624280" lon="6.8422700">
        <ele>387.0</ele>
        <time>2019-02-24T13:36:24Z</time>
      </trkpt>
      <trkpt lat="46.4624550" lon="6.8422330">
        <ele>387.0</ele>
        <time>2019-02-24T13:36:25Z</time>
      </trkpt>
      <trkpt lat="46.4624780" lon="6.8421980">
        <ele>386.9</ele>
        <time>2019-02-24T13:36:26Z</time>
      </trkpt>
      <trkpt lat="46.4625010" lon="6.8421620">
        <ele>386.9</ele>
        <time>2019-02-24T13:36:27Z</time>
      </trkpt>
      <trkpt lat="46.4625240" lon="6.8421270">
        <ele>386.8</ele>
        <time>2019-02-24T13:36:28Z</time>
      </trkpt>
      <trkpt lat="46.4625480" lon="6.8420950">
        <ele>386.8</ele>
        <time>2019-02-24T13:36:29Z</time>
      </trkpt>
      <trkpt lat="46.4625710" lon="6.8420680">
        <ele>386.8</ele>
        <time>2019-02-24T13:36:30Z</time>
      </trkpt>
      <trkpt lat="46.4625940" lon="6.8420490">
        <ele>386.8</ele>
        <time>2019-02-24T13:36:31Z</time>
      </trkpt>
      <trkpt lat="46.4626140" lon="6.8420400">
        <ele>386.7</ele>
        <time>2019-02-24T13:36:32Z</time>
      </trkpt>
      <trkpt lat="46.4626300" lon="6.8420400">
        <ele>386.7</ele>
        <time>2019-02-24T13:36:33Z</time>
      </trkpt>
      <trkpt lat="46.4626460" lon="6.8420410">
        <ele>386.7</ele>
        <time>2019-02-24T13:36:34Z</time>
      </trkpt>
      <trkpt lat="46.4626570" lon="6.8420440">
        <ele>386.7</ele>
        <time>2019-02-24T13:36:35Z</time>
      </trkpt>
      <trkpt lat="46.4626630" lon="6.8420470">
        <ele>386.6</ele>
        <time>2019-02-24T13:36:36Z</time>
      </trkpt>
      <trkpt lat="46.4626660" lon="6.8420480">
        <ele>386.6</ele>
        <time>2019-02-24T13:36:37Z</time>
      </trkpt>
      <trkpt lat="46.4626670" lon="6.8420480">
        <ele>386.6</ele>
        <time>2019-02-24T13:36:38Z</time>
      </trkpt>
      <trkpt lat="46.4626670" lon="6.8420480">
        <ele>386.6</ele>
        <time>2019-02-24T13:36:39Z</time>
      </trkpt>
      <trkpt lat="46.4626670" lon="6.8420480">
        <ele>386.6</ele>
        <time>2019-02-24T13:36:40Z</time>
      </trkpt>
      <trkpt lat="46.4626670" lon="6.8420480">
        <ele>386.6</ele>
        <time>2019-02-24T13:36:41Z</time>
      </trkpt>
      <trkpt lat="46.4626670" lon="6.8420480">
        <ele>386.6</ele>
        <time>2019-02-24T13:36:42Z</time>
      </trkpt>
      <trkpt lat="46.4626670" lon="6.8420480">
        <ele>386.6</ele>
        <time>2019-02-24T13:36:43Z</time>
      </trkpt>
      <trkpt lat="46.4626670" lon="6.8420480">
        <ele>386.6</ele>
        <time>2019-02-24T13:36:44Z</time>
      </trkpt>
      <trkpt lat="46.4626670" lon="6.8420480">
        <ele>386.6</ele>
        <time>2019-02-24T13:36:45Z</time>
      </trkpt>
      <trkpt lat="46.4626670" lon="6.8420480">
        <ele>386.6</ele>
        <time>2019-02-24T13:36:46Z</time>
      </trkpt>
      <trkpt lat="46.4626670" lon="6.8420480">
        <ele>386.6</ele>
        <time>2019-02-24T13:36:47Z</time>
      </trkpt>
      <trkpt lat="46.4626680" lon="6.8420490">
        <ele>386.6</ele>
        <time>2019-02-24T13:36:48Z</time>
      </trkpt>
      <trkpt lat="46.4626720" lon="6.8420530">
        <ele>386.6</ele>
        <time>2019-02-24T13:36:49Z</time>
      </trkpt>
      <trkpt lat="46.4626840" lon="6.8420620">
        <ele>386.5</ele>
        <time>2019-02-24T13:36:50Z</time>
      </trkpt>
      <trkpt lat="46.4627010" lon="6.8420830">
        <ele>386.5</ele>
        <time>2019-02-24T13:36:51Z</time>
      </trkpt>
      <trkpt lat="46.4627220" lon="6.8421150">
        <ele>386.4</ele>
        <time>2019-02-24T13:36:52Z</time>
      </trkpt>
      <trkpt lat="46.4627480" lon="6.8421440">
        <ele>386.3</ele>
        <time>2019-02-24T13:36:53Z</time>
      </trkpt>
      <trkpt lat="46.4627820" lon="6.8421580">
        <ele>386.3</ele>
        <time>2019-02-24T13:36:54Z</time>
      </trkpt>
      <trkpt lat="46.4628190" lon="6.8421530">
        <ele>386.3</ele>
        <time>2019-02-24T13:36:55Z</time>
      </trkpt>
      <trkpt lat="46.4628540" lon="6.8421320">
        <ele>386.2</ele>
        <time>2019-02-24T13:36:56Z</time>
      </trkpt>
      <trkpt lat="46.4628840" lon="6.8421020">
        <ele>386.3</ele>
        <time>2019-02-24T13:36:57Z</time>
      </trkpt>
      <trkpt lat="46.4629090" lon="6.8420680">
        <ele>386.3</ele>
        <time>2019-02-24T13:36:58Z</time>
      </trkpt>
      <trkpt lat="46.4629280" lon="6.8420330">
        <ele>386.4</ele>
        <time>2019-02-24T13:36:59Z</time>
      </trkpt>
      <trkpt lat="46.4629510" lon="6.8419820">
        <ele>386.5</ele>
        <time>2019-02-24T13:37:00Z</time>
      </trkpt>
      <trkpt lat="46.4629580" lon="6.8419640">
        <ele>386.5</ele>
        <time>2019-02-24T13:37:01Z</time>
      </trkpt>
      <trkpt lat="46.4629730" lon="6.8419290">
        <ele>386.5</ele>
        <time>2019-02-24T13:37:02Z</time>
      </trkpt>
      <trkpt lat="46.4629920" lon="6.8418920">
        <ele>386.6</ele>
        <time>2019-02-24T13:37:03Z</time>
      </trkpt>
      <trkpt lat="46.4630160" lon="6.8418540">
        <ele>386.6</ele>
        <time>2019-02-24T13:37:04Z</time>
      </trkpt>
      <trkpt lat="46.4630450" lon="6.8418140">
        <ele>386.7</ele>
        <time>2019-02-24T13:37:05Z</time>
      </trkpt>
      <trkpt lat="46.4630770" lon="6.8417730">
        <ele>386.7</ele>
        <time>2019-02-24T13:37:06Z</time>
      </trkpt>
      <trkpt lat="46.4631100" lon="6.8417300">
        <ele>386.8</ele>
        <time>2019-02-24T13:37:07Z</time>
      </trkpt>
      <trkpt lat="46.4631440" lon="6.8416870">
        <ele>386.9</ele>
        <time>2019-02-24T13:37:08Z</time>
      </trkpt>
      <trkpt lat="46.4631770" lon="6.8416430">
        <ele>386.9</ele>
        <time>2019-02-24T13:37:09Z</time>
      </trkpt>
      <trkpt lat="46.4632120" lon="6.8415980">
        <ele>386.9</ele>
        <time>2019-02-24T13:37:10Z</time>
      </trkpt>
      <trkpt lat="46.4632460" lon="6.8415530">
        <ele>386.9</ele>
        <time>2019-02-24T13:37:11Z</time>
      </trkpt>
      <trkpt lat="46.4632800" lon="6.8415080">
        <ele>386.9</ele>
        <time>2019-02-24T13:37:12Z</time>
      </trkpt>
      <trkpt lat="46.4633140" lon="6.8414630">
        <ele>386.9</ele>
        <time>2019-02-24T13:37:13Z</time>
      </trkpt>
      <trkpt lat="46.4633480" lon="6.8414170">
        <ele>386.9</ele>
        <time>2019-02-24T13:37:14Z</time>
      </trkpt>
      <trkpt lat="46.4633820" lon="6.8413720">
        <ele>387.0</ele>
        <time>2019-02-24T13:37:15Z</time>
      </trkpt>
      <trkpt lat="46.4634160" lon="6.8413270">
        <ele>387.0</ele>
        <time>2019-02-24T13:37:16Z</time>
      </trkpt>
      <trkpt lat="46.4634500" lon="6.8412820">
        <ele>387.0</ele>
        <time>2019-02-24T13:37:17Z</time>
      </trkpt>
      <trkpt lat="46.4634840" lon="6.8412370">
        <ele>387.0</ele>
        <time>2019-02-24T13:37:18Z</time>
      </trkpt>
      <trkpt lat="46.4635190" lon="6.8411920">
        <ele>387.0</ele>
        <time>2019-02-24T13:37:19Z</time>
      </trkpt>
      <trkpt lat="46.4635530" lon="6.8411470">
        <ele>387.0</ele>
        <time>2019-02-24T13:37:20Z</time>
      </trkpt>
      <trkpt lat="46.4635890" lon="6.8411010">
        <ele>387.0</ele>
        <time>2019-02-24T13:37:21Z</time>
      </trkpt>
      <trkpt lat="46.4636240" lon="6.8410550">
        <ele>386.9</ele>
        <time>2019-02-24T13:37:22Z</time>
      </trkpt>
      <trkpt lat="46.4636600" lon="6.8410080">
        <ele>386.8</ele>
        <time>2019-02-24T13:37:23Z</time>
      </trkpt>
      <trkpt lat="46.4636970" lon="6.8409600">
        <ele>386.7</ele>
        <time>2019-02-24T13:37:24Z</time>
      </trkpt>
      <trkpt lat="46.4637340" lon="6.8409110">
        <ele>386.7</ele>
        <time>2019-02-24T13:37:25Z</time>
      </trkpt>
      <trkpt lat="46.4637720" lon="6.8408630">
        <ele>386.8</ele>
        <time>2019-02-24T13:37:26Z</time>
      </trkpt>
      <trkpt lat="46.4638090" lon="6.8408150">
        <ele>386.8</ele>
        <time>2019-02-24T13:37:27Z</time>
      </trkpt>
      <trkpt lat="46.4638460" lon="6.8407680">
        <ele>386.9</ele>
        <time>2019-02-24T13:37:28Z</time>
      </trkpt>
      <trkpt lat="46.4638820" lon="6.8407210">
        <ele>386.9</ele>
        <time>2019-02-24T13:37:29Z</time>
      </trkpt>
      <trkpt lat="46.4639180" lon="6.8406760">
        <ele>386.9</ele>
        <time>2019-02-24T13:37:30Z</time>
      </trkpt>
      <trkpt lat="46.4639520" lon="6.8406310">
        <ele>387.0</ele>
        <time>2019-02-24T13:37:31Z</time>
      </trkpt>
      <trkpt lat="46.4639860" lon="6.8405880">
        <ele>387.0</ele>
        <time>2019-02-24T13:37:32Z</time>
      </trkpt>
      <trkpt lat="46.4640190" lon="6.8405450">
        <ele>387.0</ele>
        <time>2019-02-24T13:37:33Z</time>
      </trkpt>
      <trkpt lat="46.4640520" lon="6.8405010">
        <ele>387.1</ele>
        <time>2019-02-24T13:37:34Z</time>
      </trkpt>
      <trkpt lat="46.4640860" lon="6.8404570">
        <ele>387.2</ele>
        <time>2019-02-24T13:37:35Z</time>
      </trkpt>
      <trkpt lat="46.4641200" lon="6.8404110">
        <ele>387.2</ele>
        <time>2019-02-24T13:37:36Z</time>
      </trkpt>
      <trkpt lat="46.4641740" lon="6.8403310">
        <ele>387.5</ele>
        <time>2019-02-24T13:37:37Z</time>
      </trkpt>
      <trkpt lat="46.4641940" lon="6.8402970">
        <ele>387.5</ele>
        <time>2019-02-24T13:37:38Z</time>
      </trkpt>
      <trkpt lat="46.4642140" lon="6.8402640">
        <ele>387.5</ele>
        <time>2019-02-24T13:37:39Z</time>
      </trkpt>
      <trkpt lat="46.4642390" lon="6.8402110">
        <ele>387.3</ele>
        <time>2019-02-24T13:37:40Z</time>
      </trkpt>
      <trkpt lat="46.4642610" lon="6.8401580">
        <ele>387.3</ele>
        <time>2019-02-24T13:37:41Z</time>
      </trkpt>
      <trkpt lat="46.4643010" lon="6.8400720">
        <ele>387.1</ele>
        <time>2019-02-24T13:37:42Z</time>
      </trkpt>
      <trkpt lat="46.4643180" lon="6.8400380">
        <ele>387.1</ele>
        <time>2019-02-24T13:37:43Z</time>
      </trkpt>
      <trkpt lat="46.4643360" lon="6.8400050">
        <ele>387.0</ele>
        <time>2019-02-24T13:37:44Z</time>
      </trkpt>
      <trkpt lat="46.4643680" lon="6.8399570">
        <ele>386.9</ele>
        <time>2019-02-24T13:37:45Z</time>
      </trkpt>
      <trkpt lat="46.4644020" lon="6.8399110">
        <ele>386.9</ele>
        <time>2019-02-24T13:37:46Z</time>
      </trkpt>
      <trkpt lat="46.4644370" lon="6.8398650">
        <ele>386.8</ele>
        <time>2019-02-24T13:37:47Z</time>
      </trkpt>
      <trkpt lat="46.4644720" lon="6.8398190">
        <ele>386.7</ele>
        <time>2019-02-24T13:37:48Z</time>
      </trkpt>
      <trkpt lat="46.4645060" lon="6.8397720">
        <ele>386.5</ele>
        <time>2019-02-24T13:37:49Z</time>
      </trkpt>
      <trkpt lat="46.4645410" lon="6.8397250">
        <ele>386.4</ele>
        <time>2019-02-24T13:37:50Z</time>
      </trkpt>
      <trkpt lat="46.4645760" lon="6.8396770">
        <ele>386.2</ele>
        <time>2019-02-24T13:37:51Z</time>
      </trkpt>
      <trkpt lat="46.4646100" lon="6.8396290">
        <ele>386.1</ele>
        <time>2019-02-24T13:37:52Z</time>
      </trkpt>
      <trkpt lat="46.4646440" lon="6.8395810">
        <ele>385.9</ele>
        <time>2019-02-24T13:37:53Z</time>
      </trkpt>
      <trkpt lat="46.4646780" lon="6.8395320">
        <ele>385.7</ele>
        <time>2019-02-24T13:37:54Z</time>
      </trkpt>
      <trkpt lat="46.4647120" lon="6.8394830">
        <ele>385.6</ele>
        <time>2019-02-24T13:37:55Z</time>
      </trkpt>
      <trkpt lat="46.4647450" lon="6.8394340">
        <ele>385.4</ele>
        <time>2019-02-24T13:37:56Z</time>
      </trkpt>
      <trkpt lat="46.4647790" lon="6.8393850">
        <ele>385.3</ele>
        <time>2019-02-24T13:37:57Z</time>
      </trkpt>
      <trkpt lat="46.4648120" lon="6.8393350">
        <ele>385.2</ele>
        <time>2019-02-24T13:37:58Z</time>
      </trkpt>
      <trkpt lat="46.4648450" lon="6.8392860">
        <ele>385.2</ele>
        <time>2019-02-24T13:37:59Z</time>
      </trkpt>
      <trkpt lat="46.4648780" lon="6.8392370">
        <ele>385.1</ele>
        <time>2019-02-24T13:38:00Z</time>
      </trkpt>
      <trkpt lat="46.4649110" lon="6.8391880">
        <ele>385.0</ele>
        <time>2019-02-24T13:38:01Z</time>
      </trkpt>
      <trkpt lat="46.4649430" lon="6.8391400">
        <ele>384.9</ele>
        <time>2019-02-24T13:38:02Z</time>
      </trkpt>
      <trkpt lat="46.4649750" lon="6.8390920">
        <ele>384.7</ele>
        <time>2019-02-24T13:38:03Z</time>
      </trkpt>
      <trkpt lat="46.4650070" lon="6.8390450">
        <ele>384.6</ele>
        <time>2019-02-24T13:38:04Z</time>
      </trkpt>
      <trkpt lat="46.4650390" lon="6.8389970">
        <ele>384.4</ele>
        <time>2019-02-24T13:38:05Z</time>
      </trkpt>
      <trkpt lat="46.4650710" lon="6.8389500">
        <ele>384.1</ele>
        <time>2019-02-24T13:38:06Z</time>
      </trkpt>
      <trkpt lat="46.4651030" lon="6.8389020">
        <ele>384.3</ele>
        <time>2019-02-24T13:38:07Z</time>
      </trkpt>
      <trkpt lat="46.4651340" lon="6.8388550">
        <ele>384.4</ele>
        <time>2019-02-24T13:38:08Z</time>
      </trkpt>
      <trkpt lat="46.4651650" lon="6.8388080">
        <ele>384.5</ele>
        <time>2019-02-24T13:38:09Z</time>
      </trkpt>
      <trkpt lat="46.4651960" lon="6.8387610">
        <ele>384.6</ele>
        <time>2019-02-24T13:38:10Z</time>
      </trkpt>
      <trkpt lat="46.4652270" lon="6.8387140">
        <ele>384.7</ele>
        <time>2019-02-24T13:38:11Z</time>
      </trkpt>
      <trkpt lat="46.4652580" lon="6.8386670">
        <ele>384.8</ele>
        <time>2019-02-24T13:38:12Z</time>
      </trkpt>
      <trkpt lat="46.4652890" lon="6.8386190">
        <ele>384.8</ele>
        <time>2019-02-24T13:38:13Z</time>
      </trkpt>
      <trkpt lat="46.4653210" lon="6.8385700">
        <ele>384.8</ele>
        <time>2019-02-24T13:38:14Z</time>
      </trkpt>
      <trkpt lat="46.4653530" lon="6.8385220">
        <ele>384.8</ele>
        <time>2019-02-24T13:38:15Z</time>
      </trkpt>
      <trkpt lat="46.4653850" lon="6.8384740">
        <ele>384.7</ele>
        <time>2019-02-24T13:38:16Z</time>
      </trkpt>
      <trkpt lat="46.4654170" lon="6.8384260">
        <ele>384.7</ele>
        <time>2019-02-24T13:38:17Z</time>
      </trkpt>
      <trkpt lat="46.4654490" lon="6.8383790">
        <ele>384.7</ele>
        <time>2019-02-24T13:38:18Z</time>
      </trkpt>
      <trkpt lat="46.4654810" lon="6.8383320">
        <ele>384.7</ele>
        <time>2019-02-24T13:38:19Z</time>
      </trkpt>
      <trkpt lat="46.4655130" lon="6.8382860">
        <ele>384.7</ele>
        <time>2019-02-24T13:38:20Z</time>
      </trkpt>
      <trkpt lat="46.4655450" lon="6.8382410">
        <ele>384.7</ele>
        <time>2019-02-24T13:38:21Z</time>
      </trkpt>
      <trkpt lat="46.4655780" lon="6.8381960">
        <ele>384.7</ele>
        <time>2019-02-24T13:38:22Z</time>
      </trkpt>
      <trkpt lat="46.4656100" lon="6.8381510">
        <ele>384.7</ele>
        <time>2019-02-24T13:38:23Z</time>
      </trkpt>
      <trkpt lat="46.4656420" lon="6.8381060">
        <ele>384.7</ele>
        <time>2019-02-24T13:38:24Z</time>
      </trkpt>
      <trkpt lat="46.4656750" lon="6.8380620">
        <ele>384.7</ele>
        <time>2019-02-24T13:38:25Z</time>
      </trkpt>
      <trkpt lat="46.4657070" lon="6.8380170">
        <ele>384.7</ele>
        <time>2019-02-24T13:38:26Z</time>
      </trkpt>
      <trkpt lat="46.4657400" lon="6.8379710">
        <ele>384.7</ele>
        <time>2019-02-24T13:38:27Z</time>
      </trkpt>
      <trkpt lat="46.4657740" lon="6.8379260">
        <ele>384.7</ele>
        <time>2019-02-24T13:38:28Z</time>
      </trkpt>
      <trkpt lat="46.4658070" lon="6.8378790">
        <ele>384.7</ele>
        <time>2019-02-24T13:38:29Z</time>
      </trkpt>
      <trkpt lat="46.4658410" lon="6.8378320">
        <ele>384.7</ele>
        <time>2019-02-24T13:38:30Z</time>
      </trkpt>
      <trkpt lat="46.4658750" lon="6.8377850">
        <ele>384.7</ele>
        <time>2019-02-24T13:38:31Z</time>
      </trkpt>
      <trkpt lat="46.4659090" lon="6.8377370">
        <ele>384.7</ele>
        <time>2019-02-24T13:38:32Z</time>
      </trkpt>
      <trkpt lat="46.4659440" lon="6.8376880">
        <ele>384.8</ele>
        <time>2019-02-24T13:38:33Z</time>
      </trkpt>
      <trkpt lat="46.4659780" lon="6.8376380">
        <ele>384.8</ele>
        <time>2019-02-24T13:38:34Z</time>
      </trkpt>
      <trkpt lat="46.4660130" lon="6.8375880">
        <ele>384.8</ele>
        <time>2019-02-24T13:38:35Z</time>
      </trkpt>
      <trkpt lat="46.4660470" lon="6.8375370">
        <ele>384.8</ele>
        <time>2019-02-24T13:38:36Z</time>
      </trkpt>
      <trkpt lat="46.4660820" lon="6.8374860">
        <ele>384.8</ele>
        <time>2019-02-24T13:38:37Z</time>
      </trkpt>
      <trkpt lat="46.4661170" lon="6.8374340">
        <ele>384.8</ele>
        <time>2019-02-24T13:38:38Z</time>
      </trkpt>
      <trkpt lat="46.4661510" lon="6.8373820">
        <ele>384.8</ele>
        <time>2019-02-24T13:38:39Z</time>
      </trkpt>
      <trkpt lat="46.4661860" lon="6.8373290">
        <ele>384.8</ele>
        <time>2019-02-24T13:38:40Z</time>
      </trkpt>
      <trkpt lat="46.4662210" lon="6.8372770">
        <ele>384.8</ele>
        <time>2019-02-24T13:38:41Z</time>
      </trkpt>
      <trkpt lat="46.4662560" lon="6.8372240">
        <ele>384.8</ele>
        <time>2019-02-24T13:38:42Z</time>
      </trkpt>
      <trkpt lat="46.4662900" lon="6.8371720">
        <ele>384.8</ele>
        <time>2019-02-24T13:38:43Z</time>
      </trkpt>
      <trkpt lat="46.4663250" lon="6.8371210">
        <ele>384.8</ele>
        <time>2019-02-24T13:38:44Z</time>
      </trkpt>
      <trkpt lat="46.4663600" lon="6.8370700">
        <ele>384.9</ele>
        <time>2019-02-24T13:38:45Z</time>
      </trkpt>
      <trkpt lat="46.4663950" lon="6.8370200">
        <ele>384.9</ele>
        <time>2019-02-24T13:38:46Z</time>
      </trkpt>
      <trkpt lat="46.4664300" lon="6.8369700">
        <ele>384.9</ele>
        <time>2019-02-24T13:38:47Z</time>
      </trkpt>
      <trkpt lat="46.4664650" lon="6.8369200">
        <ele>385.0</ele>
        <time>2019-02-24T13:38:48Z</time>
      </trkpt>
      <trkpt lat="46.4665000" lon="6.8368700">
        <ele>385.0</ele>
        <time>2019-02-24T13:38:49Z</time>
      </trkpt>
      <trkpt lat="46.4665360" lon="6.8368190">
        <ele>385.1</ele>
        <time>2019-02-24T13:38:50Z</time>
      </trkpt>
      <trkpt lat="46.4665710" lon="6.8367690">
        <ele>385.2</ele>
        <time>2019-02-24T13:38:51Z</time>
      </trkpt>
      <trkpt lat="46.4666070" lon="6.8367170">
        <ele>385.2</ele>
        <time>2019-02-24T13:38:52Z</time>
      </trkpt>
      <trkpt lat="46.4666420" lon="6.8366650">
        <ele>385.3</ele>
        <time>2019-02-24T13:38:53Z</time>
      </trkpt>
      <trkpt lat="46.4666780" lon="6.8366120">
        <ele>385.2</ele>
        <time>2019-02-24T13:38:54Z</time>
      </trkpt>
      <trkpt lat="46.4667130" lon="6.8365600">
        <ele>385.1</ele>
        <time>2019-02-24T13:38:55Z</time>
      </trkpt>
      <trkpt lat="46.4667480" lon="6.8365070">
        <ele>385.0</ele>
        <time>2019-02-24T13:38:56Z</time>
      </trkpt>
      <trkpt lat="46.4667810" lon="6.8364560">
        <ele>385.0</ele>
        <time>2019-02-24T13:38:57Z</time>
      </trkpt>
      <trkpt lat="46.4668140" lon="6.8364060">
        <ele>385.0</ele>
        <time>2019-02-24T13:38:58Z</time>
      </trkpt>
      <trkpt lat="46.4668450" lon="6.8363590">
        <ele>385.0</ele>
        <time>2019-02-24T13:38:59Z</time>
      </trkpt>
      <trkpt lat="46.4668740" lon="6.8363130">
        <ele>385.0</ele>
        <time>2019-02-24T13:39:00Z</time>
      </trkpt>
      <trkpt lat="46.4669020" lon="6.8362700">
        <ele>385.0</ele>
        <time>2019-02-24T13:39:01Z</time>
      </trkpt>
      <trkpt lat="46.4669270" lon="6.8362320">
        <ele>385.0</ele>
        <time>2019-02-24T13:39:02Z</time>
      </trkpt>
      <trkpt lat="46.4669490" lon="6.8361980">
        <ele>385.0</ele>
        <time>2019-02-24T13:39:03Z</time>
      </trkpt>
      <trkpt lat="46.4669680" lon="6.8361710">
        <ele>385.0</ele>
        <time>2019-02-24T13:39:04Z</time>
      </trkpt>
      <trkpt lat="46.4669920" lon="6.8361390">
        <ele>385.0</ele>
        <time>2019-02-24T13:39:05Z</time>
      </trkpt>
      <trkpt lat="46.4670010" lon="6.8361270">
        <ele>385.0</ele>
        <time>2019-02-24T13:39:06Z</time>
      </trkpt>
      <trkpt lat="46.4670100" lon="6.8361160">
        <ele>385.0</ele>
        <time>2019-02-24T13:39:07Z</time>
      </trkpt>
      <trkpt lat="46.4670240" lon="6.8360980">
        <ele>385.0</ele>
        <time>2019-02-24T13:39:08Z</time>
      </trkpt>
      <trkpt lat="46.4670410" lon="6.8360720">
        <ele>384.9</ele>
        <time>2019-02-24T13:39:09Z</time>
      </trkpt>
      <trkpt lat="46.4670620" lon="6.8360400">
        <ele>384.9</ele>
        <time>2019-02-24T13:39:10Z</time>
      </trkpt>
      <trkpt lat="46.4670860" lon="6.8360020">
        <ele>384.9</ele>
        <time>2019-02-24T13:39:11Z</time>
      </trkpt>
      <trkpt lat="46.4671310" lon="6.8359290">
        <ele>384.8</ele>
        <time>2019-02-24T13:39:12Z</time>
      </trkpt>
      <trkpt lat="46.4671510" lon="6.8358990">
        <ele>384.8</ele>
        <time>2019-02-24T13:39:13Z</time>
      </trkpt>
      <trkpt lat="46.4671700" lon="6.8358680">
        <ele>384.8</ele>
        <time>2019-02-24T13:39:14Z</time>
      </trkpt>
      <trkpt lat="46.4672010" lon="6.8358180">
        <ele>384.8</ele>
        <time>2019-02-24T13:39:15Z</time>
      </trkpt>
      <trkpt lat="46.4672320" lon="6.8357690">
        <ele>384.7</ele>
        <time>2019-02-24T13:39:16Z</time>
      </trkpt>
      <trkpt lat="46.4672800" lon="6.8356940">
        <ele>384.7</ele>
        <time>2019-02-24T13:39:17Z</time>
      </trkpt>
      <trkpt lat="46.4672960" lon="6.8356690">
        <ele>384.7</ele>
        <time>2019-02-24T13:39:18Z</time>
      </trkpt>
      <trkpt lat="46.4673290" lon="6.8356200">
        <ele>384.7</ele>
        <time>2019-02-24T13:39:19Z</time>
      </trkpt>
      <trkpt lat="46.4673620" lon="6.8355710">
        <ele>384.6</ele>
        <time>2019-02-24T13:39:20Z</time>
      </trkpt>
      <trkpt lat="46.4673950" lon="6.8355210">
        <ele>384.6</ele>
        <time>2019-02-24T13:39:21Z</time>
      </trkpt>
      <trkpt lat="46.4674280" lon="6.8354720">
        <ele>384.6</ele>
        <time>2019-02-24T13:39:22Z</time>
      </trkpt>
      <trkpt lat="46.4674610" lon="6.8354230">
        <ele>384.6</ele>
        <time>2019-02-24T13:39:23Z</time>
      </trkpt>
      <trkpt lat="46.4674950" lon="6.8353750">
        <ele>384.6</ele>
        <time>2019-02-24T13:39:24Z</time>
      </trkpt>
      <trkpt lat="46.4675290" lon="6.8353260">
        <ele>384.7</ele>
        <time>2019-02-24T13:39:25Z</time>
      </trkpt>
      <trkpt lat="46.4675630" lon="6.8352770">
        <ele>384.8</ele>
        <time>2019-02-24T13:39:26Z</time>
      </trkpt>
      <trkpt lat="46.4675970" lon="6.8352280">
        <ele>385.0</ele>
        <time>2019-02-24T13:39:27Z</time>
      </trkpt>
      <trkpt lat="46.4676310" lon="6.8351790">
        <ele>385.1</ele>
        <time>2019-02-24T13:39:28Z</time>
      </trkpt>
      <trkpt lat="46.4676650" lon="6.8351290">
        <ele>385.3</ele>
        <time>2019-02-24T13:39:29Z</time>
      </trkpt>
      <trkpt lat="46.4676990" lon="6.8350800">
        <ele>385.4</ele>
        <time>2019-02-24T13:39:30Z</time>
      </trkpt>
      <trkpt lat="46.4677330" lon="6.8350310">
        <ele>385.5</ele>
        <time>2019-02-24T13:39:31Z</time>
      </trkpt>
      <trkpt lat="46.4677680" lon="6.8349810">
        <ele>385.5</ele>
        <time>2019-02-24T13:39:32Z</time>
      </trkpt>
      <trkpt lat="46.4678020" lon="6.8349310">
        <ele>385.6</ele>
        <time>2019-02-24T13:39:33Z</time>
      </trkpt>
      <trkpt lat="46.4678360" lon="6.8348810">
        <ele>385.6</ele>
        <time>2019-02-24T13:39:34Z</time>
      </trkpt>
      <trkpt lat="46.4678700" lon="6.8348310">
        <ele>385.6</ele>
        <time>2019-02-24T13:39:35Z</time>
      </trkpt>
      <trkpt lat="46.4679040" lon="6.8347810">
        <ele>385.6</ele>
        <time>2019-02-24T13:39:36Z</time>
      </trkpt>
      <trkpt lat="46.4679380" lon="6.8347310">
        <ele>385.6</ele>
        <time>2019-02-24T13:39:37Z</time>
      </trkpt>
      <trkpt lat="46.4679710" lon="6.8346820">
        <ele>385.5</ele>
        <time>2019-02-24T13:39:38Z</time>
      </trkpt>
      <trkpt lat="46.4680050" lon="6.8346330">
        <ele>385.4</ele>
        <time>2019-02-24T13:39:39Z</time>
      </trkpt>
      <trkpt lat="46.4680390" lon="6.8345850">
        <ele>385.3</ele>
        <time>2019-02-24T13:39:40Z</time>
      </trkpt>
      <trkpt lat="46.4680720" lon="6.8345370">
        <ele>385.1</ele>
        <time>2019-02-24T13:39:41Z</time>
      </trkpt>
      <trkpt lat="46.4681050" lon="6.8344890">
        <ele>384.9</ele>
        <time>2019-02-24T13:39:42Z</time>
      </trkpt>
      <trkpt lat="46.4681370" lon="6.8344410">
        <ele>384.6</ele>
        <time>2019-02-24T13:39:43Z</time>
      </trkpt>
      <trkpt lat="46.4681670" lon="6.8343910">
        <ele>384.2</ele>
        <time>2019-02-24T13:39:44Z</time>
      </trkpt>
      <trkpt lat="46.4681960" lon="6.8343380">
        <ele>383.8</ele>
        <time>2019-02-24T13:39:45Z</time>
      </trkpt>
      <trkpt lat="46.4682230" lon="6.8342840">
        <ele>383.5</ele>
        <time>2019-02-24T13:39:46Z</time>
      </trkpt>
      <trkpt lat="46.4682480" lon="6.8342270">
        <ele>383.3</ele>
        <time>2019-02-24T13:39:47Z</time>
      </trkpt>
      <trkpt lat="46.4682710" lon="6.8341690">
        <ele>383.1</ele>
        <time>2019-02-24T13:39:48Z</time>
      </trkpt>
      <trkpt lat="46.4682930" lon="6.8341090">
        <ele>382.8</ele>
        <time>2019-02-24T13:39:49Z</time>
      </trkpt>
      <trkpt lat="46.4683140" lon="6.8340480">
        <ele>382.5</ele>
        <time>2019-02-24T13:39:50Z</time>
      </trkpt>
      <trkpt lat="46.4683330" lon="6.8339850">
        <ele>382.2</ele>
        <time>2019-02-24T13:39:51Z</time>
      </trkpt>
      <trkpt lat="46.4683500" lon="6.8339210">
        <ele>381.9</ele>
        <time>2019-02-24T13:39:52Z</time>
      </trkpt>
      <trkpt lat="46.4683670" lon="6.8338560">
        <ele>381.6</ele>
        <time>2019-02-24T13:39:53Z</time>
      </trkpt>
      <trkpt lat="46.4683810" lon="6.8337890">
        <ele>381.2</ele>
        <time>2019-02-24T13:39:54Z</time>
      </trkpt>
      <trkpt lat="46.4683950" lon="6.8337200">
        <ele>380.9</ele>
        <time>2019-02-24T13:39:55Z</time>
      </trkpt>
      <trkpt lat="46.4684070" lon="6.8336500">
        <ele>380.3</ele>
        <time>2019-02-24T13:39:56Z</time>
      </trkpt>
      <trkpt lat="46.4684170" lon="6.8335790">
        <ele>380.0</ele>
        <time>2019-02-24T13:39:57Z</time>
      </trkpt>
      <trkpt lat="46.4684260" lon="6.8335050">
        <ele>379.7</ele>
        <time>2019-02-24T13:39:58Z</time>
      </trkpt>
      <trkpt lat="46.4684330" lon="6.8334290">
        <ele>379.4</ele>
        <time>2019-02-24T13:39:59Z</time>
      </trkpt>
      <trkpt lat="46.4684370" lon="6.8333510">
        <ele>379.4</ele>
        <time>2019-02-24T13:40:00Z</time>
      </trkpt>
      <trkpt lat="46.4684390" lon="6.8332690">
        <ele>379.3</ele>
        <time>2019-02-24T13:40:01Z</time>
      </trkpt>
      <trkpt lat="46.4684380" lon="6.8331840">
        <ele>379.2</ele>
        <time>2019-02-24T13:40:02Z</time>
      </trkpt>
      <trkpt lat="46.4684370" lon="6.8330950">
        <ele>379.2</ele>
        <time>2019-02-24T13:40:03Z</time>
      </trkpt>
      <trkpt lat="46.4684350" lon="6.8330040">
        <ele>379.1</ele>
        <time>2019-02-24T13:40:04Z</time>
      </trkpt>
      <trkpt lat="46.4684340" lon="6.8329090">
        <ele>379.1</ele>
        <time>2019-02-24T13:40:05Z</time>
      </trkpt>
      <trkpt lat="46.4684330" lon="6.8328110">
        <ele>379.1</ele>
        <time>2019-02-24T13:40:06Z</time>
      </trkpt>
      <trkpt lat="46.4684330" lon="6.8327120">
        <ele>379.1</ele>
        <time>2019-02-24T13:40:07Z</time>
      </trkpt>
      <trkpt lat="46.4684330" lon="6.8326100">
        <ele>379.0</ele>
        <time>2019-02-24T13:40:08Z</time>
      </trkpt>
      <trkpt lat="46.4684330" lon="6.8325070">
        <ele>379.0</ele>
        <time>2019-02-24T13:40:09Z</time>
      </trkpt>
      <trkpt lat="46.4684340" lon="6.8324040">
        <ele>379.0</ele>
        <time>2019-02-24T13:40:10Z</time>
      </trkpt>
      <trkpt lat="46.4684350" lon="6.8322990">
        <ele>379.0</ele>
        <time>2019-02-24T13:40:11Z</time>
      </trkpt>
      <trkpt lat="46.4684360" lon="6.8321950">
        <ele>379.0</ele>
        <time>2019-02-24T13:40:12Z</time>
      </trkpt>
      <trkpt lat="46.4684370" lon="6.8320240">
        <ele>378.9</ele>
        <time>2019-02-24T13:40:13Z</time>
      </trkpt>
      <trkpt lat="46.4684380" lon="6.8319550">
        <ele>378.9</ele>
        <time>2019-02-24T13:40:14Z</time>
      </trkpt>
      <trkpt lat="46.4684380" lon="6.8318870">
        <ele>378.9</ele>
        <time>2019-02-24T13:40:15Z</time>
      </trkpt>
      <trkpt lat="46.4684390" lon="6.8317860">
        <ele>378.9</ele>
        <time>2019-02-24T13:40:16Z</time>
      </trkpt>
      <trkpt lat="46.4684400" lon="6.8316860">
        <ele>378.9</ele>
        <time>2019-02-24T13:40:17Z</time>
      </trkpt>
      <trkpt lat="46.4684410" lon="6.8315220">
        <ele>378.9</ele>
        <time>2019-02-24T13:40:18Z</time>
      </trkpt>
      <trkpt lat="46.4684420" lon="6.8314580">
        <ele>378.9</ele>
        <time>2019-02-24T13:40:19Z</time>
      </trkpt>
      <trkpt lat="46.4684420" lon="6.8313930">
        <ele>378.9</ele>
        <time>2019-02-24T13:40:20Z</time>
      </trkpt>
      <trkpt lat="46.4684430" lon="6.8312980">
        <ele>378.7</ele>
        <time>2019-02-24T13:40:21Z</time>
      </trkpt>
      <trkpt lat="46.4684430" lon="6.8312040">
        <ele>378.6</ele>
        <time>2019-02-24T13:40:22Z</time>
      </trkpt>
      <trkpt lat="46.4684440" lon="6.8311120">
        <ele>378.4</ele>
        <time>2019-02-24T13:40:23Z</time>
      </trkpt>
      <trkpt lat="46.4684440" lon="6.8310210">
        <ele>378.2</ele>
        <time>2019-02-24T13:40:24Z</time>
      </trkpt>
      <trkpt lat="46.4684440" lon="6.8309310">
        <ele>378.2</ele>
        <time>2019-02-24T13:40:25Z</time>
      </trkpt>
      <trkpt lat="46.4684450" lon="6.8308420">
        <ele>378.2</ele>
        <time>2019-02-24T13:40:26Z</time>
      </trkpt>
      <trkpt lat="46.4684450" lon="6.8307540">
        <ele>378.2</ele>
        <time>2019-02-24T13:40:27Z</time>
      </trkpt>
      <trkpt lat="46.4684450" lon="6.8306670">
        <ele>378.2</ele>
        <time>2019-02-24T13:40:28Z</time>
      </trkpt>
      <trkpt lat="46.4684450" lon="6.8305810">
        <ele>378.2</ele>
        <time>2019-02-24T13:40:29Z</time>
      </trkpt>
      <trkpt lat="46.4684450" lon="6.8304950">
        <ele>378.2</ele>
        <time>2019-02-24T13:40:30Z</time>
      </trkpt>
      <trkpt lat="46.4684450" lon="6.8304110">
        <ele>378.2</ele>
        <time>2019-02-24T13:40:31Z</time>
      </trkpt>
      <trkpt lat="46.4684460" lon="6.8303260">
        <ele>378.2</ele>
        <time>2019-02-24T13:40:32Z</time>
      </trkpt>
      <trkpt lat="46.4684490" lon="6.8302430">
        <ele>378.2</ele>
        <time>2019-02-24T13:40:33Z</time>
      </trkpt>
      <trkpt lat="46.4684530" lon="6.8301590">
        <ele>378.2</ele>
        <time>2019-02-24T13:40:34Z</time>
      </trkpt>
      <trkpt lat="46.4684580" lon="6.8300760">
        <ele>378.2</ele>
        <time>2019-02-24T13:40:35Z</time>
      </trkpt>
      <trkpt lat="46.4684650" lon="6.8299940">
        <ele>378.2</ele>
        <time>2019-02-24T13:40:36Z</time>
      </trkpt>
      <trkpt lat="46.4684750" lon="6.8299110">
        <ele>378.2</ele>
        <time>2019-02-24T13:40:37Z</time>
      </trkpt>
      <trkpt lat="46.4684860" lon="6.8298290">
        <ele>378.2</ele>
        <time>2019-02-24T13:40:38Z</time>
      </trkpt>
      <trkpt lat="46.4684990" lon="6.8297470">
        <ele>378.2</ele>
        <time>2019-02-24T13:40:39Z</time>
      </trkpt>
      <trkpt lat="46.4685140" lon="6.8296650">
        <ele>378.2</ele>
        <time>2019-02-24T13:40:40Z</time>
      </trkpt>
      <trkpt lat="46.4685290" lon="6.8295830">
        <ele>378.2</ele>
        <time>2019-02-24T13:40:41Z</time>
      </trkpt>
      <trkpt lat="46.4685450" lon="6.8295020">
        <ele>378.2</ele>
        <time>2019-02-24T13:40:42Z</time>
      </trkpt>
      <trkpt lat="46.4685600" lon="6.8294220">
        <ele>378.2</ele>
        <time>2019-02-24T13:40:43Z</time>
      </trkpt>
      <trkpt lat="46.4685760" lon="6.8293410">
        <ele>378.2</ele>
        <time>2019-02-24T13:40:44Z</time>
      </trkpt>
      <trkpt lat="46.4685910" lon="6.8292620">
        <ele>378.2</ele>
        <time>2019-02-24T13:40:45Z</time>
      </trkpt>
      <trkpt lat="46.4686060" lon="6.8291820">
        <ele>378.2</ele>
        <time>2019-02-24T13:40:46Z</time>
      </trkpt>
      <trkpt lat="46.4686200" lon="6.8291030">
        <ele>378.2</ele>
        <time>2019-02-24T13:40:47Z</time>
      </trkpt>
      <trkpt lat="46.4686320" lon="6.8290250">
        <ele>378.2</ele>
        <time>2019-02-24T13:40:48Z</time>
      </trkpt>
      <trkpt lat="46.4686440" lon="6.8289460">
        <ele>378.3</ele>
        <time>2019-02-24T13:40:49Z</time>
      </trkpt>
      <trkpt lat="46.4686560" lon="6.8288680">
        <ele>378.4</ele>
        <time>2019-02-24T13:40:50Z</time>
      </trkpt>
      <trkpt lat="46.4686660" lon="6.8287890">
        <ele>378.5</ele>
        <time>2019-02-24T13:40:51Z</time>
      </trkpt>
      <trkpt lat="46.4686760" lon="6.8287100">
        <ele>378.6</ele>
        <time>2019-02-24T13:40:52Z</time>
      </trkpt>
      <trkpt lat="46.4686850" lon="6.8286310">
        <ele>378.7</ele>
        <time>2019-02-24T13:40:53Z</time>
      </trkpt>
      <trkpt lat="46.4686930" lon="6.8285510">
        <ele>378.9</ele>
        <time>2019-02-24T13:40:54Z</time>
      </trkpt>
      <trkpt lat="46.4687000" lon="6.8284700">
        <ele>379.1</ele>
        <time>2019-02-24T13:40:55Z</time>
      </trkpt>
      <trkpt lat="46.4687060" lon="6.8283900">
        <ele>379.2</ele>
        <time>2019-02-24T13:40:56Z</time>
      </trkpt>
      <trkpt lat="46.4687120" lon="6.8283100">
        <ele>379.4</ele>
        <time>2019-02-24T13:40:57Z</time>
      </trkpt>
      <trkpt lat="46.4687160" lon="6.8282300">
        <ele>379.6</ele>
        <time>2019-02-24T13:40:58Z</time>
      </trkpt>
      <trkpt lat="46.4687200" lon="6.8281510">
        <ele>379.7</ele>
        <time>2019-02-24T13:40:59Z</time>
      </trkpt>
      <trkpt lat="46.4687220" lon="6.8280720">
        <ele>379.8</ele>
        <time>2019-02-24T13:41:00Z</time>
      </trkpt>
      <trkpt lat="46.4687240" lon="6.8279950">
        <ele>380.0</ele>
        <time>2019-02-24T13:41:01Z</time>
      </trkpt>
      <trkpt lat="46.4687240" lon="6.8279190">
        <ele>380.1</ele>
        <time>2019-02-24T13:41:02Z</time>
      </trkpt>
      <trkpt lat="46.4687230" lon="6.8278440">
        <ele>380.3</ele>
        <time>2019-02-24T13:41:03Z</time>
      </trkpt>
      <trkpt lat="46.4687210" lon="6.8277710">
        <ele>380.4</ele>
        <time>2019-02-24T13:41:04Z</time>
      </trkpt>
      <trkpt lat="46.4687190" lon="6.8276990">
        <ele>380.6</ele>
        <time>2019-02-24T13:41:05Z</time>
      </trkpt>
      <trkpt lat="46.4687160" lon="6.8276290">
        <ele>380.7</ele>
        <time>2019-02-24T13:41:06Z</time>
      </trkpt>
      <trkpt lat="46.4687130" lon="6.8275600">
        <ele>380.9</ele>
        <time>2019-02-24T13:41:07Z</time>
      </trkpt>
      <trkpt lat="46.4687090" lon="6.8274930">
        <ele>381.0</ele>
        <time>2019-02-24T13:41:08Z</time>
      </trkpt>
      <trkpt lat="46.4687050" lon="6.8274270">
        <ele>381.1</ele>
        <time>2019-02-24T13:41:09Z</time>
      </trkpt>
      <trkpt lat="46.4687010" lon="6.8273630">
        <ele>381.3</ele>
        <time>2019-02-24T13:41:10Z</time>
      </trkpt>
      <trkpt lat="46.4686970" lon="6.8273010">
        <ele>381.4</ele>
        <time>2019-02-24T13:41:11Z</time>
      </trkpt>
      <trkpt lat="46.4686930" lon="6.8272400">
        <ele>381.5</ele>
        <time>2019-02-24T13:41:12Z</time>
      </trkpt>
      <trkpt lat="46.4686900" lon="6.8271800">
        <ele>381.7</ele>
        <time>2019-02-24T13:41:13Z</time>
      </trkpt>
      <trkpt lat="46.4686860" lon="6.8271210">
        <ele>381.8</ele>
        <time>2019-02-24T13:41:14Z</time>
      </trkpt>
      <trkpt lat="46.4686820" lon="6.8270640">
        <ele>381.9</ele>
        <time>2019-02-24T13:41:15Z</time>
      </trkpt>
      <trkpt lat="46.4686780" lon="6.8270070">
        <ele>382.1</ele>
        <time>2019-02-24T13:41:16Z</time>
      </trkpt>
      <trkpt lat="46.4686740" lon="6.8269520">
        <ele>382.2</ele>
        <time>2019-02-24T13:41:17Z</time>
      </trkpt>
      <trkpt lat="46.4686710" lon="6.8268970">
        <ele>382.3</ele>
        <time>2019-02-24T13:41:18Z</time>
      </trkpt>
      <trkpt lat="46.4686670" lon="6.8268430">
        <ele>382.4</ele>
        <time>2019-02-24T13:41:19Z</time>
      </trkpt>
      <trkpt lat="46.4686630" lon="6.8267890">
        <ele>382.6</ele>
        <time>2019-02-24T13:41:20Z</time>
      </trkpt>
      <trkpt lat="46.4686600" lon="6.8267350">
        <ele>382.7</ele>
        <time>2019-02-24T13:41:21Z</time>
      </trkpt>
      <trkpt lat="46.4686560" lon="6.8266820">
        <ele>382.8</ele>
        <time>2019-02-24T13:41:22Z</time>
      </trkpt>
      <trkpt lat="46.4686530" lon="6.8266290">
        <ele>382.9</ele>
        <time>2019-02-24T13:41:23Z</time>
      </trkpt>
      <trkpt lat="46.4686500" lon="6.8265760">
        <ele>383.0</ele>
        <time>2019-02-24T13:41:24Z</time>
      </trkpt>
      <trkpt lat="46.4686460" lon="6.8265230">
        <ele>383.1</ele>
        <time>2019-02-24T13:41:25Z</time>
      </trkpt>
      <trkpt lat="46.4686430" lon="6.8264700">
        <ele>383.3</ele>
        <time>2019-02-24T13:41:26Z</time>
      </trkpt>
      <trkpt lat="46.4686400" lon="6.8264170">
        <ele>383.4</ele>
        <time>2019-02-24T13:41:27Z</time>
      </trkpt>
      <trkpt lat="46.4686370" lon="6.8263640">
        <ele>383.5</ele>
        <time>2019-02-24T13:41:28Z</time>
      </trkpt>
      <trkpt lat="46.4686340" lon="6.8263110">
        <ele>383.6</ele>
        <time>2019-02-24T13:41:29Z</time>
      </trkpt>
      <trkpt lat="46.4686310" lon="6.8262590">
        <ele>383.7</ele>
        <time>2019-02-24T13:41:30Z</time>
      </trkpt>
      <trkpt lat="46.4686290" lon="6.8262070">
        <ele>383.8</ele>
        <time>2019-02-24T13:41:31Z</time>
      </trkpt>
      <trkpt lat="46.4686260" lon="6.8261550">
        <ele>384.0</ele>
        <time>2019-02-24T13:41:32Z</time>
      </trkpt>
      <trkpt lat="46.4686230" lon="6.8261050">
        <ele>384.1</ele>
        <time>2019-02-24T13:41:33Z</time>
      </trkpt>
      <trkpt lat="46.4686210" lon="6.8260550">
        <ele>384.2</ele>
        <time>2019-02-24T13:41:34Z</time>
      </trkpt>
      <trkpt lat="46.4686190" lon="6.8260060">
        <ele>384.3</ele>
        <time>2019-02-24T13:41:35Z</time>
      </trkpt>
      <trkpt lat="46.4686160" lon="6.8259580">
        <ele>384.4</ele>
        <time>2019-02-24T13:41:36Z</time>
      </trkpt>
      <trkpt lat="46.4686130" lon="6.8259110">
        <ele>384.5</ele>
        <time>2019-02-24T13:41:37Z</time>
      </trkpt>
      <trkpt lat="46.4686110" lon="6.8258640">
        <ele>384.5</ele>
        <time>2019-02-24T13:41:38Z</time>
      </trkpt>
      <trkpt lat="46.4686080" lon="6.8258170">
        <ele>384.6</ele>
        <time>2019-02-24T13:41:39Z</time>
      </trkpt>
      <trkpt lat="46.4686050" lon="6.8257710">
        <ele>384.7</ele>
        <time>2019-02-24T13:41:40Z</time>
      </trkpt>
      <trkpt lat="46.4686010" lon="6.8257250">
        <ele>384.8</ele>
        <time>2019-02-24T13:41:41Z</time>
      </trkpt>
      <trkpt lat="46.4685980" lon="6.8256790">
        <ele>384.9</ele>
        <time>2019-02-24T13:41:42Z</time>
      </trkpt>
      <trkpt lat="46.4685940" lon="6.8256340">
        <ele>385.0</ele>
        <time>2019-02-24T13:41:43Z</time>
      </trkpt>
      <trkpt lat="46.4685900" lon="6.8255880">
        <ele>385.0</ele>
        <time>2019-02-24T13:41:44Z</time>
      </trkpt>
      <trkpt lat="46.4685850" lon="6.8255430">
        <ele>385.1</ele>
        <time>2019-02-24T13:41:45Z</time>
      </trkpt>
      <trkpt lat="46.4685800" lon="6.8254970">
        <ele>385.2</ele>
        <time>2019-02-24T13:41:46Z</time>
      </trkpt>
      <trkpt lat="46.4685750" lon="6.8254520">
        <ele>385.3</ele>
        <time>2019-02-24T13:41:47Z</time>
      </trkpt>
      <trkpt lat="46.4685700" lon="6.8254070">
        <ele>385.3</ele>
        <time>2019-02-24T13:41:48Z</time>
      </trkpt>
      <trkpt lat="46.4685650" lon="6.8253610">
        <ele>385.4</ele>
        <time>2019-02-24T13:41:49Z</time>
      </trkpt>
      <trkpt lat="46.4685590" lon="6.8253160">
        <ele>385.5</ele>
        <time>2019-02-24T13:41:50Z</time>
      </trkpt>
      <trkpt lat="46.4685530" lon="6.8252710">
        <ele>385.6</ele>
        <time>2019-02-24T13:41:51Z</time>
      </trkpt>
      <trkpt lat="46.4685470" lon="6.8252250">
        <ele>385.6</ele>
        <time>2019-02-24T13:41:52Z</time>
      </trkpt>
      <trkpt lat="46.4685410" lon="6.8251800">
        <ele>385.7</ele>
        <time>2019-02-24T13:41:53Z</time>
      </trkpt>
      <trkpt lat="46.4685350" lon="6.8251340">
        <ele>385.8</ele>
        <time>2019-02-24T13:41:54Z</time>
      </trkpt>
      <trkpt lat="46.4685290" lon="6.8250880">
        <ele>385.9</ele>
        <time>2019-02-24T13:41:55Z</time>
      </trkpt>
      <trkpt lat="46.4685220" lon="6.8250420">
        <ele>385.9</ele>
        <time>2019-02-24T13:41:56Z</time>
      </trkpt>
      <trkpt lat="46.4685160" lon="6.8249960">
        <ele>386.0</ele>
        <time>2019-02-24T13:41:57Z</time>
      </trkpt>
      <trkpt lat="46.4685090" lon="6.8249490">
        <ele>386.1</ele>
        <time>2019-02-24T13:41:58Z</time>
      </trkpt>
      <trkpt lat="46.4685030" lon="6.8249020">
        <ele>386.1</ele>
        <time>2019-02-24T13:41:59Z</time>
      </trkpt>
      <trkpt lat="46.4684960" lon="6.8248550">
        <ele>386.2</ele>
        <time>2019-02-24T13:42:00Z</time>
      </trkpt>
      <trkpt lat="46.4684900" lon="6.8248080">
        <ele>386.3</ele>
        <time>2019-02-24T13:42:01Z</time>
      </trkpt>
      <trkpt lat="46.4684840" lon="6.8247610">
        <ele>386.4</ele>
        <time>2019-02-24T13:42:02Z</time>
      </trkpt>
      <trkpt lat="46.4684780" lon="6.8247130">
        <ele>386.4</ele>
        <time>2019-02-24T13:42:03Z</time>
      </trkpt>
      <trkpt lat="46.4684730" lon="6.8246650">
        <ele>386.5</ele>
        <time>2019-02-24T13:42:04Z</time>
      </trkpt>
      <trkpt lat="46.4684670" lon="6.8246180">
        <ele>386.6</ele>
        <time>2019-02-24T13:42:05Z</time>
      </trkpt>
      <trkpt lat="46.4684630" lon="6.8245690">
        <ele>386.6</ele>
        <time>2019-02-24T13:42:06Z</time>
      </trkpt>
      <trkpt lat="46.4684590" lon="6.8245210">
        <ele>386.7</ele>
        <time>2019-02-24T13:42:07Z</time>
      </trkpt>
      <trkpt lat="46.4684550" lon="6.8244730">
        <ele>386.8</ele>
        <time>2019-02-24T13:42:08Z</time>
      </trkpt>
      <trkpt lat="46.4684530" lon="6.8244240">
        <ele>386.9</ele>
        <time>2019-02-24T13:42:09Z</time>
      </trkpt>
      <trkpt lat="46.4684510" lon="6.8243760">
        <ele>386.9</ele>
        <time>2019-02-24T13:42:10Z</time>
      </trkpt>
      <trkpt lat="46.4684500" lon="6.8243270">
        <ele>387.0</ele>
        <time>2019-02-24T13:42:11Z</time>
      </trkpt>
      <trkpt lat="46.4684490" lon="6.8242780">
        <ele>387.1</ele>
        <time>2019-02-24T13:42:12Z</time>
      </trkpt>
      <trkpt lat="46.4684500" lon="6.8242300">
        <ele>387.2</ele>
        <time>2019-02-24T13:42:13Z</time>
      </trkpt>
      <trkpt lat="46.4684520" lon="6.8241810">
        <ele>387.3</ele>
        <time>2019-02-24T13:42:14Z</time>
      </trkpt>
      <trkpt lat="46.4684540" lon="6.8241320">
        <ele>387.3</ele>
        <time>2019-02-24T13:42:15Z</time>
      </trkpt>
      <trkpt lat="46.4684580" lon="6.8240830">
        <ele>387.4</ele>
        <time>2019-02-24T13:42:16Z</time>
      </trkpt>
      <trkpt lat="46.4684630" lon="6.8240350">
        <ele>387.5</ele>
        <time>2019-02-24T13:42:17Z</time>
      </trkpt>
      <trkpt lat="46.4684690" lon="6.8239870">
        <ele>387.6</ele>
        <time>2019-02-24T13:42:18Z</time>
      </trkpt>
      <trkpt lat="46.4684760" lon="6.8239390">
        <ele>387.7</ele>
        <time>2019-02-24T13:42:19Z</time>
      </trkpt>
      <trkpt lat="46.4684840" lon="6.8238930">
        <ele>387.7</ele>
        <time>2019-02-24T13:42:20Z</time>
      </trkpt>
      <trkpt lat="46.4684930" lon="6.8238470">
        <ele>387.8</ele>
        <time>2019-02-24T13:42:21Z</time>
      </trkpt>
      <trkpt lat="46.4685030" lon="6.8238020">
        <ele>387.9</ele>
        <time>2019-02-24T13:42:22Z</time>
      </trkpt>
      <trkpt lat="46.4685140" lon="6.8237580">
        <ele>388.0</ele>
        <time>2019-02-24T13:42:23Z</time>
      </trkpt>
      <trkpt lat="46.4685270" lon="6.8237150">
        <ele>388.1</ele>
        <time>2019-02-24T13:42:24Z</time>
      </trkpt>
      <trkpt lat="46.4685400" lon="6.8236730">
        <ele>388.2</ele>
        <time>2019-02-24T13:42:25Z</time>
      </trkpt>
      <trkpt lat="46.4685540" lon="6.8236320">
        <ele>388.3</ele>
        <time>2019-02-24T13:42:26Z</time>
      </trkpt>
      <trkpt lat="46.4685690" lon="6.8235910">
        <ele>388.4</ele>
        <time>2019-02-24T13:42:27Z</time>
      </trkpt>
      <trkpt lat="46.4685850" lon="6.8235510">
        <ele>388.5</ele>
        <time>2019-02-24T13:42:28Z</time>
      </trkpt>
      <trkpt lat="46.4686010" lon="6.8235120">
        <ele>388.6</ele>
        <time>2019-02-24T13:42:29Z</time>
      </trkpt>
      <trkpt lat="46.4686190" lon="6.8234740">
        <ele>388.8</ele>
        <time>2019-02-24T13:42:30Z</time>
      </trkpt>
      <trkpt lat="46.4686370" lon="6.8234360">
        <ele>389.0</ele>
        <time>2019-02-24T13:42:31Z</time>
      </trkpt>
      <trkpt lat="46.4686550" lon="6.8233990">
        <ele>389.3</ele>
        <time>2019-02-24T13:42:32Z</time>
      </trkpt>
      <trkpt lat="46.4686750" lon="6.8233630">
        <ele>389.5</ele>
        <time>2019-02-24T13:42:33Z</time>
      </trkpt>
      <trkpt lat="46.4686950" lon="6.8233280">
        <ele>389.8</ele>
        <time>2019-02-24T13:42:34Z</time>
      </trkpt>
      <trkpt lat="46.4687150" lon="6.8232940">
        <ele>390.1</ele>
        <time>2019-02-24T13:42:35Z</time>
      </trkpt>
      <trkpt lat="46.4687360" lon="6.8232610">
        <ele>390.3</ele>
        <time>2019-02-24T13:42:36Z</time>
      </trkpt>
      <trkpt lat="46.4687580" lon="6.8232280">
        <ele>390.5</ele>
        <time>2019-02-24T13:42:37Z</time>
      </trkpt>
      <trkpt lat="46.4687800" lon="6.8231970">
        <ele>390.7</ele>
        <time>2019-02-24T13:42:38Z</time>
      </trkpt>
      <trkpt lat="46.4688030" lon="6.8231670">
        <ele>390.9</ele>
        <time>2019-02-24T13:42:39Z</time>
      </trkpt>
      <trkpt lat="46.4688260" lon="6.8231380">
        <ele>391.1</ele>
        <time>2019-02-24T13:42:40Z</time>
      </trkpt>
      <trkpt lat="46.4688490" lon="6.8231100">
        <ele>391.4</ele>
        <time>2019-02-24T13:42:41Z</time>
      </trkpt>
      <trkpt lat="46.4688730" lon="6.8230830">
        <ele>391.7</ele>
        <time>2019-02-24T13:42:42Z</time>
      </trkpt>
      <trkpt lat="46.4688980" lon="6.8230570">
        <ele>392.0</ele>
        <time>2019-02-24T13:42:43Z</time>
      </trkpt>
      <trkpt lat="46.4689230" lon="6.8230330">
        <ele>392.2</ele>
        <time>2019-02-24T13:42:44Z</time>
      </trkpt>
      <trkpt lat="46.4689480" lon="6.8230100">
        <ele>392.4</ele>
        <time>2019-02-24T13:42:45Z</time>
      </trkpt>
      <trkpt lat="46.4689730" lon="6.8229880">
        <ele>392.7</ele>
        <time>2019-02-24T13:42:46Z</time>
      </trkpt>
      <trkpt lat="46.4689990" lon="6.8229680">
        <ele>392.9</ele>
        <time>2019-02-24T13:42:47Z</time>
      </trkpt>
      <trkpt lat="46.4690260" lon="6.8229480">
        <ele>393.1</ele>
        <time>2019-02-24T13:42:48Z</time>
      </trkpt>
      <trkpt lat="46.4690520" lon="6.8229290">
        <ele>393.3</ele>
        <time>2019-02-24T13:42:49Z</time>
      </trkpt>
      <trkpt lat="46.4690790" lon="6.8229120">
        <ele>393.5</ele>
        <time>2019-02-24T13:42:50Z</time>
      </trkpt>
      <trkpt lat="46.4691070" lon="6.8228940">
        <ele>393.7</ele>
        <time>2019-02-24T13:42:51Z</time>
      </trkpt>
      <trkpt lat="46.4691350" lon="6.8228770">
        <ele>393.9</ele>
        <time>2019-02-24T13:42:52Z</time>
      </trkpt>
      <trkpt lat="46.4691630" lon="6.8228610">
        <ele>394.1</ele>
        <time>2019-02-24T13:42:53Z</time>
      </trkpt>
      <trkpt lat="46.4691920" lon="6.8228440">
        <ele>394.3</ele>
        <time>2019-02-24T13:42:54Z</time>
      </trkpt>
      <trkpt lat="46.4692210" lon="6.8228280">
        <ele>394.5</ele>
        <time>2019-02-24T13:42:55Z</time>
      </trkpt>
      <trkpt lat="46.4692510" lon="6.8228110">
        <ele>394.8</ele>
        <time>2019-02-24T13:42:56Z</time>
      </trkpt>
      <trkpt lat="46.4692810" lon="6.8227940">
        <ele>395.1</ele>
        <time>2019-02-24T13:42:57Z</time>
      </trkpt>
      <trkpt lat="46.4693110" lon="6.8227770">
        <ele>395.2</ele>
        <time>2019-02-24T13:42:58Z</time>
      </trkpt>
      <trkpt lat="46.4693420" lon="6.8227590">
        <ele>395.3</ele>
        <time>2019-02-24T13:42:59Z</time>
      </trkpt>
      <trkpt lat="46.4693720" lon="6.8227410">
        <ele>395.4</ele>
        <time>2019-02-24T13:43:00Z</time>
      </trkpt>
      <trkpt lat="46.4694030" lon="6.8227210">
        <ele>395.6</ele>
        <time>2019-02-24T13:43:01Z</time>
      </trkpt>
      <trkpt lat="46.4694330" lon="6.8227010">
        <ele>395.7</ele>
        <time>2019-02-24T13:43:02Z</time>
      </trkpt>
      <trkpt lat="46.4694630" lon="6.8226800">
        <ele>395.8</ele>
        <time>2019-02-24T13:43:03Z</time>
      </trkpt>
      <trkpt lat="46.4694930" lon="6.8226570">
        <ele>395.9</ele>
        <time>2019-02-24T13:43:04Z</time>
      </trkpt>
      <trkpt lat="46.4695230" lon="6.8226330">
        <ele>396.0</ele>
        <time>2019-02-24T13:43:05Z</time>
      </trkpt>
      <trkpt lat="46.4695750" lon="6.8225900">
        <ele>396.2</ele>
        <time>2019-02-24T13:43:06Z</time>
      </trkpt>
      <trkpt lat="46.4695960" lon="6.8225720">
        <ele>396.3</ele>
        <time>2019-02-24T13:43:07Z</time>
      </trkpt>
      <trkpt lat="46.4696170" lon="6.8225540">
        <ele>396.3</ele>
        <time>2019-02-24T13:43:08Z</time>
      </trkpt>
      <trkpt lat="46.4696510" lon="6.8225250">
        <ele>396.5</ele>
        <time>2019-02-24T13:43:09Z</time>
      </trkpt>
      <trkpt lat="46.4696850" lon="6.8224940">
        <ele>396.6</ele>
        <time>2019-02-24T13:43:10Z</time>
      </trkpt>
      <trkpt lat="46.4697210" lon="6.8224610">
        <ele>396.8</ele>
        <time>2019-02-24T13:43:11Z</time>
      </trkpt>
      <trkpt lat="46.4697570" lon="6.8224250">
        <ele>396.6</ele>
        <time>2019-02-24T13:43:12Z</time>
      </trkpt>
      <trkpt lat="46.4697940" lon="6.8223850">
        <ele>396.4</ele>
        <time>2019-02-24T13:43:13Z</time>
      </trkpt>
      <trkpt lat="46.4698290" lon="6.8223390">
        <ele>396.2</ele>
        <time>2019-02-24T13:43:14Z</time>
      </trkpt>
      <trkpt lat="46.4698640" lon="6.8222860">
        <ele>395.9</ele>
        <time>2019-02-24T13:43:15Z</time>
      </trkpt>
      <trkpt lat="46.4699140" lon="6.8221940">
        <ele>395.6</ele>
        <time>2019-02-24T13:43:16Z</time>
      </trkpt>
      <trkpt lat="46.4699300" lon="6.8221610">
        <ele>395.4</ele>
        <time>2019-02-24T13:43:17Z</time>
      </trkpt>
      <trkpt lat="46.4699620" lon="6.8220920">
        <ele>395.2</ele>
        <time>2019-02-24T13:43:18Z</time>
      </trkpt>
      <trkpt lat="46.4699940" lon="6.8220200">
        <ele>394.9</ele>
        <time>2019-02-24T13:43:19Z</time>
      </trkpt>
      <trkpt lat="46.4700260" lon="6.8219450">
        <ele>394.6</ele>
        <time>2019-02-24T13:43:20Z</time>
      </trkpt>
      <trkpt lat="46.4700730" lon="6.8218270">
        <ele>394.2</ele>
        <time>2019-02-24T13:43:21Z</time>
      </trkpt>
      <trkpt lat="46.4700880" lon="6.8217860">
        <ele>394.0</ele>
        <time>2019-02-24T13:43:22Z</time>
      </trkpt>
      <trkpt lat="46.4701190" lon="6.8217030">
        <ele>393.8</ele>
        <time>2019-02-24T13:43:23Z</time>
      </trkpt>
      <trkpt lat="46.4701480" lon="6.8216170">
        <ele>393.5</ele>
        <time>2019-02-24T13:43:24Z</time>
      </trkpt>
      <trkpt lat="46.4701770" lon="6.8215280">
        <ele>393.3</ele>
        <time>2019-02-24T13:43:25Z</time>
      </trkpt>
      <trkpt lat="46.4702050" lon="6.8214380">
        <ele>393.0</ele>
        <time>2019-02-24T13:43:26Z</time>
      </trkpt>
      <trkpt lat="46.4702310" lon="6.8213450">
        <ele>392.7</ele>
        <time>2019-02-24T13:43:27Z</time>
      </trkpt>
      <trkpt lat="46.4702570" lon="6.8212500">
        <ele>392.4</ele>
        <time>2019-02-24T13:43:28Z</time>
      </trkpt>
      <trkpt lat="46.4702810" lon="6.8211530">
        <ele>392.1</ele>
        <time>2019-02-24T13:43:29Z</time>
      </trkpt>
      <trkpt lat="46.4703040" lon="6.8210550">
        <ele>391.7</ele>
        <time>2019-02-24T13:43:30Z</time>
      </trkpt>
      <trkpt lat="46.4703250" lon="6.8209540">
        <ele>391.3</ele>
        <time>2019-02-24T13:43:31Z</time>
      </trkpt>
      <trkpt lat="46.4703440" lon="6.8208520">
        <ele>391.1</ele>
        <time>2019-02-24T13:43:32Z</time>
      </trkpt>
      <trkpt lat="46.4703620" lon="6.8207490">
        <ele>390.7</ele>
        <time>2019-02-24T13:43:33Z</time>
      </trkpt>
      <trkpt lat="46.4703780" lon="6.8206440">
        <ele>390.4</ele>
        <time>2019-02-24T13:43:34Z</time>
      </trkpt>
      <trkpt lat="46.4703910" lon="6.8205380">
        <ele>390.2</ele>
        <time>2019-02-24T13:43:35Z</time>
      </trkpt>
      <trkpt lat="46.4704030" lon="6.8204310">
        <ele>389.9</ele>
        <time>2019-02-24T13:43:36Z</time>
      </trkpt>
      <trkpt lat="46.4704130" lon="6.8203230">
        <ele>389.7</ele>
        <time>2019-02-24T13:43:37Z</time>
      </trkpt>
      <trkpt lat="46.4704220" lon="6.8202150">
        <ele>389.5</ele>
        <time>2019-02-24T13:43:38Z</time>
      </trkpt>
      <trkpt lat="46.4704290" lon="6.8201060">
        <ele>389.3</ele>
        <time>2019-02-24T13:43:39Z</time>
      </trkpt>
      <trkpt lat="46.4704360" lon="6.8199980">
        <ele>389.1</ele>
        <time>2019-02-24T13:43:40Z</time>
      </trkpt>
      <trkpt lat="46.4704410" lon="6.8198890">
        <ele>389.0</ele>
        <time>2019-02-24T13:43:41Z</time>
      </trkpt>
      <trkpt lat="46.4704490" lon="6.8197100">
        <ele>388.8</ele>
        <time>2019-02-24T13:43:42Z</time>
      </trkpt>
      <trkpt lat="46.4704520" lon="6.8196380">
        <ele>388.8</ele>
        <time>2019-02-24T13:43:43Z</time>
      </trkpt>
      <trkpt lat="46.4704550" lon="6.8195670">
        <ele>388.7</ele>
        <time>2019-02-24T13:43:44Z</time>
      </trkpt>
      <trkpt lat="46.4704580" lon="6.8194610">
        <ele>388.6</ele>
        <time>2019-02-24T13:43:45Z</time>
      </trkpt>
      <trkpt lat="46.4704610" lon="6.8193570">
        <ele>388.5</ele>
        <time>2019-02-24T13:43:46Z</time>
      </trkpt>
      <trkpt lat="46.4704670" lon="6.8191870">
        <ele>388.4</ele>
        <time>2019-02-24T13:43:47Z</time>
      </trkpt>
      <trkpt lat="46.4704680" lon="6.8191200">
        <ele>388.3</ele>
        <time>2019-02-24T13:43:48Z</time>
      </trkpt>
      <trkpt lat="46.4704700" lon="6.8190530">
        <ele>388.3</ele>
        <time>2019-02-24T13:43:49Z</time>
      </trkpt>
      <trkpt lat="46.4704730" lon="6.8189560">
        <ele>388.3</ele>
        <time>2019-02-24T13:43:50Z</time>
      </trkpt>
      <trkpt lat="46.4704760" lon="6.8188600">
        <ele>388.3</ele>
        <time>2019-02-24T13:43:51Z</time>
      </trkpt>
      <trkpt lat="46.4704790" lon="6.8187670">
        <ele>388.3</ele>
        <time>2019-02-24T13:43:52Z</time>
      </trkpt>
      <trkpt lat="46.4704810" lon="6.8186760">
        <ele>388.3</ele>
        <time>2019-02-24T13:43:53Z</time>
      </trkpt>
      <trkpt lat="46.4704840" lon="6.8185860">
        <ele>388.3</ele>
        <time>2019-02-24T13:43:54Z</time>
      </trkpt>
      <trkpt lat="46.4704870" lon="6.8184990">
        <ele>388.3</ele>
        <time>2019-02-24T13:43:55Z</time>
      </trkpt>
      <trkpt lat="46.4704900" lon="6.8184140">
        <ele>388.3</ele>
        <time>2019-02-24T13:43:56Z</time>
      </trkpt>
      <trkpt lat="46.4704930" lon="6.8183300">
        <ele>388.3</ele>
        <time>2019-02-24T13:43:57Z</time>
      </trkpt>
      <trkpt lat="46.4704960" lon="6.8182480">
        <ele>388.3</ele>
        <time>2019-02-24T13:43:58Z</time>
      </trkpt>
      <trkpt lat="46.4704990" lon="6.8181670">
        <ele>388.3</ele>
        <time>2019-02-24T13:43:59Z</time>
      </trkpt>
      <trkpt lat="46.4705010" lon="6.8180890">
        <ele>388.2</ele>
        <time>2019-02-24T13:44:00Z</time>
      </trkpt>
      <trkpt lat="46.4705040" lon="6.8180110">
        <ele>388.2</ele>
        <time>2019-02-24T13:44:01Z</time>
      </trkpt>
      <trkpt lat="46.4705070" lon="6.8179350">
        <ele>388.2</ele>
        <time>2019-02-24T13:44:02Z</time>
      </trkpt>
      <trkpt lat="46.4705100" lon="6.8178610">
        <ele>388.1</ele>
        <time>2019-02-24T13:44:03Z</time>
      </trkpt>
      <trkpt lat="46.4705130" lon="6.8177880">
        <ele>388.0</ele>
        <time>2019-02-24T13:44:04Z</time>
      </trkpt>
      <trkpt lat="46.4705160" lon="6.8177160">
        <ele>387.9</ele>
        <time>2019-02-24T13:44:05Z</time>
      </trkpt>
      <trkpt lat="46.4705190" lon="6.8176450">
        <ele>387.8</ele>
        <time>2019-02-24T13:44:06Z</time>
      </trkpt>
      <trkpt lat="46.4705220" lon="6.8175760">
        <ele>387.7</ele>
        <time>2019-02-24T13:44:07Z</time>
      </trkpt>
      <trkpt lat="46.4705250" lon="6.8175070">
        <ele>387.5</ele>
        <time>2019-02-24T13:44:08Z</time>
      </trkpt>
      <trkpt lat="46.4705280" lon="6.8174390">
        <ele>387.4</ele>
        <time>2019-02-24T13:44:09Z</time>
      </trkpt>
      <trkpt lat="46.4705310" lon="6.8173730">
        <ele>387.3</ele>
        <time>2019-02-24T13:44:10Z</time>
      </trkpt>
      <trkpt lat="46.4705340" lon="6.8173070">
        <ele>387.2</ele>
        <time>2019-02-24T13:44:11Z</time>
      </trkpt>
      <trkpt lat="46.4705370" lon="6.8172420">
        <ele>387.1</ele>
        <time>2019-02-24T13:44:12Z</time>
      </trkpt>
      <trkpt lat="46.4705400" lon="6.8171770">
        <ele>387.0</ele>
        <time>2019-02-24T13:44:13Z</time>
      </trkpt>
      <trkpt lat="46.4705430" lon="6.8171140">
        <ele>387.0</ele>
        <time>2019-02-24T13:44:14Z</time>
      </trkpt>
      <trkpt lat="46.4705460" lon="6.8170510">
        <ele>387.0</ele>
        <time>2019-02-24T13:44:15Z</time>
      </trkpt>
      <trkpt lat="46.4705490" lon="6.8169880">
        <ele>387.0</ele>
        <time>2019-02-24T13:44:16Z</time>
      </trkpt>
      <trkpt lat="46.4705520" lon="6.8169260">
        <ele>387.0</ele>
        <time>2019-02-24T13:44:17Z</time>
      </trkpt>
      <trkpt lat="46.4705550" lon="6.8168640">
        <ele>387.1</ele>
        <time>2019-02-24T13:44:18Z</time>
      </trkpt>
      <trkpt lat="46.4705580" lon="6.8168020">
        <ele>387.2</ele>
        <time>2019-02-24T13:44:19Z</time>
      </trkpt>
      <trkpt lat="46.4705610" lon="6.8167410">
        <ele>387.3</ele>
        <time>2019-02-24T13:44:20Z</time>
      </trkpt>
      <trkpt lat="46.4705640" lon="6.8166800">
        <ele>387.5</ele>
        <time>2019-02-24T13:44:21Z</time>
      </trkpt>
      <trkpt lat="46.4705670" lon="6.8166190">
        <ele>387.6</ele>
        <time>2019-02-24T13:44:22Z</time>
      </trkpt>
      <trkpt lat="46.4705700" lon="6.8165580">
        <ele>387.7</ele>
        <time>2019-02-24T13:44:23Z</time>
      </trkpt>
      <trkpt lat="46.4705730" lon="6.8164970">
        <ele>387.8</ele>
        <time>2019-02-24T13:44:24Z</time>
      </trkpt>
      <trkpt lat="46.4705760" lon="6.8164370">
        <ele>388.0</ele>
        <time>2019-02-24T13:44:25Z</time>
      </trkpt>
      <trkpt lat="46.4705790" lon="6.8163760">
        <ele>388.1</ele>
        <time>2019-02-24T13:44:26Z</time>
      </trkpt>
      <trkpt lat="46.4705820" lon="6.8163150">
        <ele>388.1</ele>
        <time>2019-02-24T13:44:27Z</time>
      </trkpt>
      <trkpt lat="46.4705850" lon="6.8162550">
        <ele>388.2</ele>
        <time>2019-02-24T13:44:28Z</time>
      </trkpt>
      <trkpt lat="46.4705890" lon="6.8161940">
        <ele>388.3</ele>
        <time>2019-02-24T13:44:29Z</time>
      </trkpt>
      <trkpt lat="46.4705920" lon="6.8161340">
        <ele>388.3</ele>
        <time>2019-02-24T13:44:30Z</time>
      </trkpt>
      <trkpt lat="46.4705950" lon="6.8160740">
        <ele>388.3</ele>
        <time>2019-02-24T13:44:31Z</time>
      </trkpt>
      <trkpt lat="46.4705990" lon="6.8160150">
        <ele>388.3</ele>
        <time>2019-02-24T13:44:32Z</time>
      </trkpt>
      <trkpt lat="46.4706020" lon="6.8159550">
        <ele>388.3</ele>
        <time>2019-02-24T13:44:33Z</time>
      </trkpt>
      <trkpt lat="46.4706060" lon="6.8158960">
        <ele>388.3</ele>
        <time>2019-02-24T13:44:34Z</time>
      </trkpt>
      <trkpt lat="46.4706100" lon="6.8158370">
        <ele>388.4</ele>
        <time>2019-02-24T13:44:35Z</time>
      </trkpt>
      <trkpt lat="46.4706140" lon="6.8157780">
        <ele>388.4</ele>
        <time>2019-02-24T13:44:36Z</time>
      </trkpt>
      <trkpt lat="46.4706180" lon="6.8157190">
        <ele>388.4</ele>
        <time>2019-02-24T13:44:37Z</time>
      </trkpt>
      <trkpt lat="46.4706220" lon="6.8156610">
        <ele>388.4</ele>
        <time>2019-02-24T13:44:38Z</time>
      </trkpt>
      <trkpt lat="46.4706260" lon="6.8156030">
        <ele>388.4</ele>
        <time>2019-02-24T13:44:39Z</time>
      </trkpt>
      <trkpt lat="46.4706310" lon="6.8155450">
        <ele>388.4</ele>
        <time>2019-02-24T13:44:40Z</time>
      </trkpt>
      <trkpt lat="46.4706350" lon="6.8154880">
        <ele>388.4</ele>
        <time>2019-02-24T13:44:41Z</time>
      </trkpt>
      <trkpt lat="46.4706400" lon="6.8154310">
        <ele>388.4</ele>
        <time>2019-02-24T13:44:42Z</time>
      </trkpt>
      <trkpt lat="46.4706440" lon="6.8153730">
        <ele>388.4</ele>
        <time>2019-02-24T13:44:43Z</time>
      </trkpt>
      <trkpt lat="46.4706490" lon="6.8153160">
        <ele>388.5</ele>
        <time>2019-02-24T13:44:44Z</time>
      </trkpt>
      <trkpt lat="46.4706530" lon="6.8152590">
        <ele>388.5</ele>
        <time>2019-02-24T13:44:45Z</time>
      </trkpt>
      <trkpt lat="46.4706580" lon="6.8152020">
        <ele>388.5</ele>
        <time>2019-02-24T13:44:46Z</time>
      </trkpt>
      <trkpt lat="46.4706620" lon="6.8151440">
        <ele>388.5</ele>
        <time>2019-02-24T13:44:47Z</time>
      </trkpt>
      <trkpt lat="46.4706660" lon="6.8150870">
        <ele>388.5</ele>
        <time>2019-02-24T13:44:48Z</time>
      </trkpt>
      <trkpt lat="46.4706700" lon="6.8150290">
        <ele>388.5</ele>
        <time>2019-02-24T13:44:49Z</time>
      </trkpt>
      <trkpt lat="46.4706740" lon="6.8149710">
        <ele>388.5</ele>
        <time>2019-02-24T13:44:50Z</time>
      </trkpt>
      <trkpt lat="46.4706770" lon="6.8149120">
        <ele>388.5</ele>
        <time>2019-02-24T13:44:51Z</time>
      </trkpt>
      <trkpt lat="46.4706800" lon="6.8148540">
        <ele>388.5</ele>
        <time>2019-02-24T13:44:52Z</time>
      </trkpt>
      <trkpt lat="46.4706830" lon="6.8147940">
        <ele>388.5</ele>
        <time>2019-02-24T13:44:53Z</time>
      </trkpt>
      <trkpt lat="46.4706860" lon="6.8147350">
        <ele>388.5</ele>
        <time>2019-02-24T13:44:54Z</time>
      </trkpt>
      <trkpt lat="46.4706880" lon="6.8146750">
        <ele>388.6</ele>
        <time>2019-02-24T13:44:55Z</time>
      </trkpt>
      <trkpt lat="46.4706900" lon="6.8146140">
        <ele>388.6</ele>
        <time>2019-02-24T13:44:56Z</time>
      </trkpt>
      <trkpt lat="46.4706920" lon="6.8145530">
        <ele>388.6</ele>
        <time>2019-02-24T13:44:57Z</time>
      </trkpt>
      <trkpt lat="46.4706940" lon="6.8144910">
        <ele>388.6</ele>
        <time>2019-02-24T13:44:58Z</time>
      </trkpt>
      <trkpt lat="46.4706960" lon="6.8144300">
        <ele>388.7</ele>
        <time>2019-02-24T13:44:59Z</time>
      </trkpt>
      <trkpt lat="46.4706990" lon="6.8143680">
        <ele>388.7</ele>
        <time>2019-02-24T13:45:00Z</time>
      </trkpt>
      <trkpt lat="46.4707030" lon="6.8143080">
        <ele>389.1</ele>
        <time>2019-02-24T13:45:01Z</time>
      </trkpt>
      <trkpt lat="46.4707070" lon="6.8142480">
        <ele>389.3</ele>
        <time>2019-02-24T13:45:02Z</time>
      </trkpt>
      <trkpt lat="46.4707130" lon="6.8141910">
        <ele>389.5</ele>
        <time>2019-02-24T13:45:03Z</time>
      </trkpt>
      <trkpt lat="46.4707190" lon="6.8141370">
        <ele>389.8</ele>
        <time>2019-02-24T13:45:04Z</time>
      </trkpt>
      <trkpt lat="46.4707260" lon="6.8140870">
        <ele>390.0</ele>
        <time>2019-02-24T13:45:05Z</time>
      </trkpt>
      <trkpt lat="46.4707330" lon="6.8140420">
        <ele>390.2</ele>
        <time>2019-02-24T13:45:06Z</time>
      </trkpt>
      <trkpt lat="46.4707390" lon="6.8139990">
        <ele>390.4</ele>
        <time>2019-02-24T13:45:07Z</time>
      </trkpt>
      <trkpt lat="46.4707430" lon="6.8139560">
        <ele>390.6</ele>
        <time>2019-02-24T13:45:08Z</time>
      </trkpt>
      <trkpt lat="46.4707470" lon="6.8139110">
        <ele>390.9</ele>
        <time>2019-02-24T13:45:09Z</time>
      </trkpt>
      <trkpt lat="46.4707490" lon="6.8138640">
        <ele>391.1</ele>
        <time>2019-02-24T13:45:10Z</time>
      </trkpt>
      <trkpt lat="46.4707510" lon="6.8138150">
        <ele>391.4</ele>
        <time>2019-02-24T13:45:11Z</time>
      </trkpt>
      <trkpt lat="46.4707530" lon="6.8137640">
        <ele>391.7</ele>
        <time>2019-02-24T13:45:12Z</time>
      </trkpt>
      <trkpt lat="46.4707560" lon="6.8137110">
        <ele>392.3</ele>
        <time>2019-02-24T13:45:13Z</time>
      </trkpt>
      <trkpt lat="46.4707590" lon="6.8136570">
        <ele>392.3</ele>
        <time>2019-02-24T13:45:14Z</time>
      </trkpt>
      <trkpt lat="46.4707620" lon="6.8136000">
        <ele>392.2</ele>
        <time>2019-02-24T13:45:15Z</time>
      </trkpt>
      <trkpt lat="46.4707660" lon="6.8135430">
        <ele>392.2</ele>
        <time>2019-02-24T13:45:16Z</time>
      </trkpt>
      <trkpt lat="46.4707690" lon="6.8134840">
        <ele>392.1</ele>
        <time>2019-02-24T13:45:17Z</time>
      </trkpt>
      <trkpt lat="46.4707730" lon="6.8134250">
        <ele>392.1</ele>
        <time>2019-02-24T13:45:18Z</time>
      </trkpt>
      <trkpt lat="46.4707770" lon="6.8133650">
        <ele>392.0</ele>
        <time>2019-02-24T13:45:19Z</time>
      </trkpt>
      <trkpt lat="46.4707800" lon="6.8133050">
        <ele>392.0</ele>
        <time>2019-02-24T13:45:20Z</time>
      </trkpt>
      <trkpt lat="46.4707840" lon="6.8132440">
        <ele>391.9</ele>
        <time>2019-02-24T13:45:21Z</time>
      </trkpt>
      <trkpt lat="46.4707880" lon="6.8131830">
        <ele>391.9</ele>
        <time>2019-02-24T13:45:22Z</time>
      </trkpt>
      <trkpt lat="46.4707910" lon="6.8131220">
        <ele>391.8</ele>
        <time>2019-02-24T13:45:23Z</time>
      </trkpt>
      <trkpt lat="46.4707950" lon="6.8130600">
        <ele>391.8</ele>
        <time>2019-02-24T13:45:24Z</time>
      </trkpt>
      <trkpt lat="46.4707980" lon="6.8129980">
        <ele>391.8</ele>
        <time>2019-02-24T13:45:25Z</time>
      </trkpt>
      <trkpt lat="46.4708020" lon="6.8129360">
        <ele>391.8</ele>
        <time>2019-02-24T13:45:26Z</time>
      </trkpt>
      <trkpt lat="46.4708050" lon="6.8128740">
        <ele>391.8</ele>
        <time>2019-02-24T13:45:27Z</time>
      </trkpt>
      <trkpt lat="46.4708080" lon="6.8128120">
        <ele>391.8</ele>
        <time>2019-02-24T13:45:28Z</time>
      </trkpt>
      <trkpt lat="46.4708110" lon="6.8127500">
        <ele>391.8</ele>
        <time>2019-02-24T13:45:29Z</time>
      </trkpt>
      <trkpt lat="46.4708140" lon="6.8126880">
        <ele>391.8</ele>
        <time>2019-02-24T13:45:30Z</time>
      </trkpt>
      <trkpt lat="46.4708160" lon="6.8126250">
        <ele>391.8</ele>
        <time>2019-02-24T13:45:31Z</time>
      </trkpt>
      <trkpt lat="46.4708190" lon="6.8125630">
        <ele>391.8</ele>
        <time>2019-02-24T13:45:32Z</time>
      </trkpt>
      <trkpt lat="46.4708210" lon="6.8125000">
        <ele>391.8</ele>
        <time>2019-02-24T13:45:33Z</time>
      </trkpt>
      <trkpt lat="46.4708240" lon="6.8124370">
        <ele>391.9</ele>
        <time>2019-02-24T13:45:34Z</time>
      </trkpt>
      <trkpt lat="46.4708260" lon="6.8123730">
        <ele>392.2</ele>
        <time>2019-02-24T13:45:35Z</time>
      </trkpt>
      <trkpt lat="46.4708280" lon="6.8123100">
        <ele>392.4</ele>
        <time>2019-02-24T13:45:36Z</time>
      </trkpt>
      <trkpt lat="46.4708310" lon="6.8122460">
        <ele>392.5</ele>
        <time>2019-02-24T13:45:37Z</time>
      </trkpt>
      <trkpt lat="46.4708330" lon="6.8121820">
        <ele>392.7</ele>
        <time>2019-02-24T13:45:38Z</time>
      </trkpt>
      <trkpt lat="46.4708350" lon="6.8121170">
        <ele>392.8</ele>
        <time>2019-02-24T13:45:39Z</time>
      </trkpt>
      <trkpt lat="46.4708380" lon="6.8120530">
        <ele>392.9</ele>
        <time>2019-02-24T13:45:40Z</time>
      </trkpt>
      <trkpt lat="46.4708400" lon="6.8119870">
        <ele>393.0</ele>
        <time>2019-02-24T13:45:41Z</time>
      </trkpt>
      <trkpt lat="46.4708420" lon="6.8119220">
        <ele>393.1</ele>
        <time>2019-02-24T13:45:42Z</time>
      </trkpt>
      <trkpt lat="46.4708450" lon="6.8118560">
        <ele>393.2</ele>
        <time>2019-02-24T13:45:43Z</time>
      </trkpt>
      <trkpt lat="46.4708480" lon="6.8117900">
        <ele>393.4</ele>
        <time>2019-02-24T13:45:44Z</time>
      </trkpt>
      <trkpt lat="46.4708500" lon="6.8117230">
        <ele>393.5</ele>
        <time>2019-02-24T13:45:45Z</time>
      </trkpt>
      <trkpt lat="46.4708530" lon="6.8116560">
        <ele>393.7</ele>
        <time>2019-02-24T13:45:46Z</time>
      </trkpt>
      <trkpt lat="46.4708560" lon="6.8115890">
        <ele>393.8</ele>
        <time>2019-02-24T13:45:47Z</time>
      </trkpt>
      <trkpt lat="46.4708590" lon="6.8115210">
        <ele>394.0</ele>
        <time>2019-02-24T13:45:48Z</time>
      </trkpt>
      <trkpt lat="46.4708620" lon="6.8114530">
        <ele>394.1</ele>
        <time>2019-02-24T13:45:49Z</time>
      </trkpt>
      <trkpt lat="46.4708650" lon="6.8113850">
        <ele>394.3</ele>
        <time>2019-02-24T13:45:50Z</time>
      </trkpt>
      <trkpt lat="46.4708680" lon="6.8113160">
        <ele>394.4</ele>
        <time>2019-02-24T13:45:51Z</time>
      </trkpt>
      <trkpt lat="46.4708710" lon="6.8112470">
        <ele>394.6</ele>
        <time>2019-02-24T13:45:52Z</time>
      </trkpt>
      <trkpt lat="46.4708740" lon="6.8111780">
        <ele>394.6</ele>
        <time>2019-02-24T13:45:53Z</time>
      </trkpt>
      <trkpt lat="46.4708770" lon="6.8111080">
        <ele>394.7</ele>
        <time>2019-02-24T13:45:54Z</time>
      </trkpt>
      <trkpt lat="46.4708800" lon="6.8110380">
        <ele>394.8</ele>
        <time>2019-02-24T13:45:55Z</time>
      </trkpt>
      <trkpt lat="46.4708830" lon="6.8109680">
        <ele>394.8</ele>
        <time>2019-02-24T13:45:56Z</time>
      </trkpt>
      <trkpt lat="46.4708860" lon="6.8108970">
        <ele>394.9</ele>
        <time>2019-02-24T13:45:57Z</time>
      </trkpt>
      <trkpt lat="46.4708890" lon="6.8108260">
        <ele>395.0</ele>
        <time>2019-02-24T13:45:58Z</time>
      </trkpt>
      <trkpt lat="46.4708920" lon="6.8107550">
        <ele>395.1</ele>
        <time>2019-02-24T13:45:59Z</time>
      </trkpt>
      <trkpt lat="46.4708950" lon="6.8106840">
        <ele>395.3</ele>
        <time>2019-02-24T13:46:00Z</time>
      </trkpt>
      <trkpt lat="46.4708980" lon="6.8106120">
        <ele>395.5</ele>
        <time>2019-02-24T13:46:01Z</time>
      </trkpt>
      <trkpt lat="46.4709010" lon="6.8105400">
        <ele>395.6</ele>
        <time>2019-02-24T13:46:02Z</time>
      </trkpt>
      <trkpt lat="46.4709040" lon="6.8104680">
        <ele>395.7</ele>
        <time>2019-02-24T13:46:03Z</time>
      </trkpt>
      <trkpt lat="46.4709070" lon="6.8103960">
        <ele>395.7</ele>
        <time>2019-02-24T13:46:04Z</time>
      </trkpt>
      <trkpt lat="46.4709100" lon="6.8103230">
        <ele>395.7</ele>
        <time>2019-02-24T13:46:05Z</time>
      </trkpt>
      <trkpt lat="46.4709130" lon="6.8102500">
        <ele>395.7</ele>
        <time>2019-02-24T13:46:06Z</time>
      </trkpt>
      <trkpt lat="46.4709150" lon="6.8101770">
        <ele>395.8</ele>
        <time>2019-02-24T13:46:07Z</time>
      </trkpt>
      <trkpt lat="46.4709180" lon="6.8101040">
        <ele>395.8</ele>
        <time>2019-02-24T13:46:08Z</time>
      </trkpt>
      <trkpt lat="46.4709210" lon="6.8100300">
        <ele>395.9</ele>
        <time>2019-02-24T13:46:09Z</time>
      </trkpt>
      <trkpt lat="46.4709230" lon="6.8099560">
        <ele>396.0</ele>
        <time>2019-02-24T13:46:10Z</time>
      </trkpt>
      <trkpt lat="46.4709260" lon="6.8098820">
        <ele>396.1</ele>
        <time>2019-02-24T13:46:11Z</time>
      </trkpt>
      <trkpt lat="46.4709280" lon="6.8098080">
        <ele>396.2</ele>
        <time>2019-02-24T13:46:12Z</time>
      </trkpt>
      <trkpt lat="46.4709310" lon="6.8097330">
        <ele>396.4</ele>
        <time>2019-02-24T13:46:13Z</time>
      </trkpt>
      <trkpt lat="46.4709330" lon="6.8096590">
        <ele>396.5</ele>
        <time>2019-02-24T13:46:14Z</time>
      </trkpt>
      <trkpt lat="46.4709360" lon="6.8095840">
        <ele>396.6</ele>
        <time>2019-02-24T13:46:15Z</time>
      </trkpt>
      <trkpt lat="46.4709380" lon="6.8095080">
        <ele>396.7</ele>
        <time>2019-02-24T13:46:16Z</time>
      </trkpt>
      <trkpt lat="46.4709410" lon="6.8094330">
        <ele>396.7</ele>
        <time>2019-02-24T13:46:17Z</time>
      </trkpt>
      <trkpt lat="46.4709430" lon="6.8093580">
        <ele>396.7</ele>
        <time>2019-02-24T13:46:18Z</time>
      </trkpt>
      <trkpt lat="46.4709460" lon="6.8092820">
        <ele>396.7</ele>
        <time>2019-02-24T13:46:19Z</time>
      </trkpt>
      <trkpt lat="46.4709480" lon="6.8092060">
        <ele>396.7</ele>
        <time>2019-02-24T13:46:20Z</time>
      </trkpt>
      <trkpt lat="46.4709510" lon="6.8091300">
        <ele>396.7</ele>
        <time>2019-02-24T13:46:21Z</time>
      </trkpt>
      <trkpt lat="46.4709530" lon="6.8090540">
        <ele>396.7</ele>
        <time>2019-02-24T13:46:22Z</time>
      </trkpt>
      <trkpt lat="46.4709560" lon="6.8089780">
        <ele>396.7</ele>
        <time>2019-02-24T13:46:23Z</time>
      </trkpt>
      <trkpt lat="46.4709590" lon="6.8089020">
        <ele>396.7</ele>
        <time>2019-02-24T13:46:24Z</time>
      </trkpt>
      <trkpt lat="46.4709620" lon="6.8088260">
        <ele>396.6</ele>
        <time>2019-02-24T13:46:25Z</time>
      </trkpt>
      <trkpt lat="46.4709660" lon="6.8087500">
        <ele>396.5</ele>
        <time>2019-02-24T13:46:26Z</time>
      </trkpt>
      <trkpt lat="46.4709690" lon="6.8086740">
        <ele>396.4</ele>
        <time>2019-02-24T13:46:27Z</time>
      </trkpt>
      <trkpt lat="46.4709730" lon="6.8085980">
        <ele>396.2</ele>
        <time>2019-02-24T13:46:28Z</time>
      </trkpt>
      <trkpt lat="46.4709770" lon="6.8085220">
        <ele>396.1</ele>
        <time>2019-02-24T13:46:29Z</time>
      </trkpt>
      <trkpt lat="46.4709810" lon="6.8084460">
        <ele>395.9</ele>
        <time>2019-02-24T13:46:30Z</time>
      </trkpt>
      <trkpt lat="46.4709860" lon="6.8083710">
        <ele>395.8</ele>
        <time>2019-02-24T13:46:31Z</time>
      </trkpt>
      <trkpt lat="46.4709910" lon="6.8082960">
        <ele>395.8</ele>
        <time>2019-02-24T13:46:32Z</time>
      </trkpt>
      <trkpt lat="46.4709960" lon="6.8082210">
        <ele>395.7</ele>
        <time>2019-02-24T13:46:33Z</time>
      </trkpt>
      <trkpt lat="46.4710020" lon="6.8081480">
        <ele>395.7</ele>
        <time>2019-02-24T13:46:34Z</time>
      </trkpt>
      <trkpt lat="46.4710080" lon="6.8080760">
        <ele>395.7</ele>
        <time>2019-02-24T13:46:35Z</time>
      </trkpt>
      <trkpt lat="46.4710140" lon="6.8080060">
        <ele>395.7</ele>
        <time>2019-02-24T13:46:36Z</time>
      </trkpt>
      <trkpt lat="46.4710200" lon="6.8079390">
        <ele>395.7</ele>
        <time>2019-02-24T13:46:37Z</time>
      </trkpt>
      <trkpt lat="46.4710260" lon="6.8078750">
        <ele>395.7</ele>
        <time>2019-02-24T13:46:38Z</time>
      </trkpt>
      <trkpt lat="46.4710320" lon="6.8078150">
        <ele>395.7</ele>
        <time>2019-02-24T13:46:39Z</time>
      </trkpt>
      <trkpt lat="46.4710390" lon="6.8077580">
        <ele>395.7</ele>
        <time>2019-02-24T13:46:40Z</time>
      </trkpt>
      <trkpt lat="46.4710450" lon="6.8077040">
        <ele>395.6</ele>
        <time>2019-02-24T13:46:41Z</time>
      </trkpt>
      <trkpt lat="46.4710530" lon="6.8076490">
        <ele>395.6</ele>
        <time>2019-02-24T13:46:42Z</time>
      </trkpt>
      <trkpt lat="46.4710600" lon="6.8075940">
        <ele>395.5</ele>
        <time>2019-02-24T13:46:43Z</time>
      </trkpt>
      <trkpt lat="46.4710690" lon="6.8075350">
        <ele>395.4</ele>
        <time>2019-02-24T13:46:44Z</time>
      </trkpt>
      <trkpt lat="46.4710780" lon="6.8074750">
        <ele>395.3</ele>
        <time>2019-02-24T13:46:45Z</time>
      </trkpt>
      <trkpt lat="46.4710870" lon="6.8074150">
        <ele>395.1</ele>
        <time>2019-02-24T13:46:46Z</time>
      </trkpt>
      <trkpt lat="46.4710970" lon="6.8073560">
        <ele>395.0</ele>
        <time>2019-02-24T13:46:47Z</time>
      </trkpt>
      <trkpt lat="46.4711080" lon="6.8073000">
        <ele>394.9</ele>
        <time>2019-02-24T13:46:48Z</time>
      </trkpt>
      <trkpt lat="46.4711190" lon="6.8072440">
        <ele>394.8</ele>
        <time>2019-02-24T13:46:49Z</time>
      </trkpt>
      <trkpt lat="46.4711300" lon="6.8071870">
        <ele>394.8</ele>
        <time>2019-02-24T13:46:50Z</time>
      </trkpt>
      <trkpt lat="46.4711410" lon="6.8071260">
        <ele>394.7</ele>
        <time>2019-02-24T13:46:51Z</time>
      </trkpt>
      <trkpt lat="46.4711520" lon="6.8070590">
        <ele>394.7</ele>
        <time>2019-02-24T13:46:52Z</time>
      </trkpt>
      <trkpt lat="46.4711640" lon="6.8069860">
        <ele>394.7</ele>
        <time>2019-02-24T13:46:53Z</time>
      </trkpt>
      <trkpt lat="46.4711770" lon="6.8069090">
        <ele>394.7</ele>
        <time>2019-02-24T13:46:54Z</time>
      </trkpt>
      <trkpt lat="46.4711920" lon="6.8068290">
        <ele>394.7</ele>
        <time>2019-02-24T13:46:55Z</time>
      </trkpt>
      <trkpt lat="46.4712080" lon="6.8067460">
        <ele>394.7</ele>
        <time>2019-02-24T13:46:56Z</time>
      </trkpt>
      <trkpt lat="46.4712380" lon="6.8066010">
        <ele>394.6</ele>
        <time>2019-02-24T13:46:57Z</time>
      </trkpt>
      <trkpt lat="46.4712510" lon="6.8065410">
        <ele>394.5</ele>
        <time>2019-02-24T13:46:58Z</time>
      </trkpt>
      <trkpt lat="46.4712640" lon="6.8064820">
        <ele>394.4</ele>
        <time>2019-02-24T13:46:59Z</time>
      </trkpt>
      <trkpt lat="46.4712860" lon="6.8063910">
        <ele>394.3</ele>
        <time>2019-02-24T13:47:00Z</time>
      </trkpt>
      <trkpt lat="46.4713070" lon="6.8062990">
        <ele>394.1</ele>
        <time>2019-02-24T13:47:01Z</time>
      </trkpt>
      <trkpt lat="46.4713300" lon="6.8062060">
        <ele>393.9</ele>
        <time>2019-02-24T13:47:02Z</time>
      </trkpt>
      <trkpt lat="46.4713520" lon="6.8061120">
        <ele>393.8</ele>
        <time>2019-02-24T13:47:03Z</time>
      </trkpt>
      <trkpt lat="46.4713750" lon="6.8060190">
        <ele>393.7</ele>
        <time>2019-02-24T13:47:04Z</time>
      </trkpt>
      <trkpt lat="46.4713980" lon="6.8059250">
        <ele>393.7</ele>
        <time>2019-02-24T13:47:05Z</time>
      </trkpt>
      <trkpt lat="46.4714200" lon="6.8058300">
        <ele>393.7</ele>
        <time>2019-02-24T13:47:06Z</time>
      </trkpt>
      <trkpt lat="46.4714430" lon="6.8057350">
        <ele>393.7</ele>
        <time>2019-02-24T13:47:07Z</time>
      </trkpt>
      <trkpt lat="46.4714650" lon="6.8056390">
        <ele>393.6</ele>
        <time>2019-02-24T13:47:08Z</time>
      </trkpt>
      <trkpt lat="46.4714880" lon="6.8055420">
        <ele>393.6</ele>
        <time>2019-02-24T13:47:09Z</time>
      </trkpt>
      <trkpt lat="46.4715090" lon="6.8054440">
        <ele>393.4</ele>
        <time>2019-02-24T13:47:10Z</time>
      </trkpt>
      <trkpt lat="46.4715310" lon="6.8053450">
        <ele>393.2</ele>
        <time>2019-02-24T13:47:11Z</time>
      </trkpt>
      <trkpt lat="46.4715520" lon="6.8052440">
        <ele>393.0</ele>
        <time>2019-02-24T13:47:12Z</time>
      </trkpt>
      <trkpt lat="46.4715730" lon="6.8051410">
        <ele>392.8</ele>
        <time>2019-02-24T13:47:13Z</time>
      </trkpt>
      <trkpt lat="46.4715930" lon="6.8050380">
        <ele>392.6</ele>
        <time>2019-02-24T13:47:14Z</time>
      </trkpt>
      <trkpt lat="46.4716120" lon="6.8049320">
        <ele>392.4</ele>
        <time>2019-02-24T13:47:15Z</time>
      </trkpt>
      <trkpt lat="46.4716310" lon="6.8048260">
        <ele>392.2</ele>
        <time>2019-02-24T13:47:16Z</time>
      </trkpt>
      <trkpt lat="46.4716480" lon="6.8047190">
        <ele>391.9</ele>
        <time>2019-02-24T13:47:17Z</time>
      </trkpt>
      <trkpt lat="46.4716650" lon="6.8046110">
        <ele>391.8</ele>
        <time>2019-02-24T13:47:18Z</time>
      </trkpt>
      <trkpt lat="46.4716800" lon="6.8045020">
        <ele>391.7</ele>
        <time>2019-02-24T13:47:19Z</time>
      </trkpt>
      <trkpt lat="46.4716940" lon="6.8043930">
        <ele>391.6</ele>
        <time>2019-02-24T13:47:20Z</time>
      </trkpt>
      <trkpt lat="46.4717060" lon="6.8042830">
        <ele>391.4</ele>
        <time>2019-02-24T13:47:21Z</time>
      </trkpt>
      <trkpt lat="46.4717170" lon="6.8041730">
        <ele>391.2</ele>
        <time>2019-02-24T13:47:22Z</time>
      </trkpt>
      <trkpt lat="46.4717270" lon="6.8040630">
        <ele>391.0</ele>
        <time>2019-02-24T13:47:23Z</time>
      </trkpt>
      <trkpt lat="46.4717370" lon="6.8039540">
        <ele>390.8</ele>
        <time>2019-02-24T13:47:24Z</time>
      </trkpt>
      <trkpt lat="46.4717450" lon="6.8038450">
        <ele>390.7</ele>
        <time>2019-02-24T13:47:25Z</time>
      </trkpt>
      <trkpt lat="46.4717530" lon="6.8037360">
        <ele>390.7</ele>
        <time>2019-02-24T13:47:26Z</time>
      </trkpt>
      <trkpt lat="46.4717610" lon="6.8036290">
        <ele>390.7</ele>
        <time>2019-02-24T13:47:27Z</time>
      </trkpt>
      <trkpt lat="46.4717680" lon="6.8035220">
        <ele>390.7</ele>
        <time>2019-02-24T13:47:28Z</time>
      </trkpt>
      <trkpt lat="46.4717760" lon="6.8034170">
        <ele>390.6</ele>
        <time>2019-02-24T13:47:29Z</time>
      </trkpt>
      <trkpt lat="46.4717830" lon="6.8033130">
        <ele>390.5</ele>
        <time>2019-02-24T13:47:30Z</time>
      </trkpt>
      <trkpt lat="46.4717910" lon="6.8032100">
        <ele>390.3</ele>
        <time>2019-02-24T13:47:31Z</time>
      </trkpt>
      <trkpt lat="46.4717980" lon="6.8031090">
        <ele>390.1</ele>
        <time>2019-02-24T13:47:32Z</time>
      </trkpt>
      <trkpt lat="46.4718060" lon="6.8030090">
        <ele>389.9</ele>
        <time>2019-02-24T13:47:33Z</time>
      </trkpt>
      <trkpt lat="46.4718130" lon="6.8029100">
        <ele>389.6</ele>
        <time>2019-02-24T13:47:34Z</time>
      </trkpt>
      <trkpt lat="46.4718200" lon="6.8028120">
        <ele>389.4</ele>
        <time>2019-02-24T13:47:35Z</time>
      </trkpt>
      <trkpt lat="46.4718270" lon="6.8027150">
        <ele>389.2</ele>
        <time>2019-02-24T13:47:36Z</time>
      </trkpt>
      <trkpt lat="46.4718340" lon="6.8026190">
        <ele>389.0</ele>
        <time>2019-02-24T13:47:37Z</time>
      </trkpt>
      <trkpt lat="46.4718400" lon="6.8025250">
        <ele>388.8</ele>
        <time>2019-02-24T13:47:38Z</time>
      </trkpt>
      <trkpt lat="46.4718470" lon="6.8024320">
        <ele>388.7</ele>
        <time>2019-02-24T13:47:39Z</time>
      </trkpt>
      <trkpt lat="46.4718530" lon="6.8023400">
        <ele>388.7</ele>
        <time>2019-02-24T13:47:40Z</time>
      </trkpt>
      <trkpt lat="46.4718600" lon="6.8022490">
        <ele>388.6</ele>
        <time>2019-02-24T13:47:41Z</time>
      </trkpt>
      <trkpt lat="46.4718660" lon="6.8021600">
        <ele>388.6</ele>
        <time>2019-02-24T13:47:42Z</time>
      </trkpt>
      <trkpt lat="46.4718730" lon="6.8020720">
        <ele>388.5</ele>
        <time>2019-02-24T13:47:43Z</time>
      </trkpt>
      <trkpt lat="46.4718800" lon="6.8019860">
        <ele>388.3</ele>
        <time>2019-02-24T13:47:44Z</time>
      </trkpt>
      <trkpt lat="46.4718870" lon="6.8019010">
        <ele>388.1</ele>
        <time>2019-02-24T13:47:45Z</time>
      </trkpt>
      <trkpt lat="46.4718940" lon="6.8018180">
        <ele>387.9</ele>
        <time>2019-02-24T13:47:46Z</time>
      </trkpt>
      <trkpt lat="46.4719010" lon="6.8017370">
        <ele>387.8</ele>
        <time>2019-02-24T13:47:47Z</time>
      </trkpt>
      <trkpt lat="46.4719090" lon="6.8016570">
        <ele>387.7</ele>
        <time>2019-02-24T13:47:48Z</time>
      </trkpt>
      <trkpt lat="46.4719180" lon="6.8015800">
        <ele>387.7</ele>
        <time>2019-02-24T13:47:49Z</time>
      </trkpt>
      <trkpt lat="46.4719270" lon="6.8015040">
        <ele>387.7</ele>
        <time>2019-02-24T13:47:50Z</time>
      </trkpt>
      <trkpt lat="46.4719360" lon="6.8014300">
        <ele>387.7</ele>
        <time>2019-02-24T13:47:51Z</time>
      </trkpt>
      <trkpt lat="46.4719460" lon="6.8013580">
        <ele>387.7</ele>
        <time>2019-02-24T13:47:52Z</time>
      </trkpt>
      <trkpt lat="46.4719560" lon="6.8012880">
        <ele>387.7</ele>
        <time>2019-02-24T13:47:53Z</time>
      </trkpt>
      <trkpt lat="46.4719680" lon="6.8012200">
        <ele>387.7</ele>
        <time>2019-02-24T13:47:54Z</time>
      </trkpt>
      <trkpt lat="46.4719790" lon="6.8011540">
        <ele>387.8</ele>
        <time>2019-02-24T13:47:55Z</time>
      </trkpt>
      <trkpt lat="46.4719920" lon="6.8010900">
        <ele>387.9</ele>
        <time>2019-02-24T13:47:56Z</time>
      </trkpt>
      <trkpt lat="46.4720050" lon="6.8010270">
        <ele>388.0</ele>
        <time>2019-02-24T13:47:57Z</time>
      </trkpt>
      <trkpt lat="46.4720180" lon="6.8009660">
        <ele>388.1</ele>
        <time>2019-02-24T13:47:58Z</time>
      </trkpt>
      <trkpt lat="46.4720320" lon="6.8009060">
        <ele>388.2</ele>
        <time>2019-02-24T13:47:59Z</time>
      </trkpt>
      <trkpt lat="46.4720470" lon="6.8008470">
        <ele>388.3</ele>
        <time>2019-02-24T13:48:00Z</time>
      </trkpt>
      <trkpt lat="46.4720620" lon="6.8007900">
        <ele>388.4</ele>
        <time>2019-02-24T13:48:01Z</time>
      </trkpt>
      <trkpt lat="46.4720770" lon="6.8007340">
        <ele>388.4</ele>
        <time>2019-02-24T13:48:02Z</time>
      </trkpt>
      <trkpt lat="46.4720930" lon="6.8006780">
        <ele>388.4</ele>
        <time>2019-02-24T13:48:03Z</time>
      </trkpt>
      <trkpt lat="46.4721090" lon="6.8006240">
        <ele>388.5</ele>
        <time>2019-02-24T13:48:04Z</time>
      </trkpt>
      <trkpt lat="46.4721260" lon="6.8005700">
        <ele>388.5</ele>
        <time>2019-02-24T13:48:05Z</time>
      </trkpt>
      <trkpt lat="46.4721430" lon="6.8005170">
        <ele>388.6</ele>
        <time>2019-02-24T13:48:06Z</time>
      </trkpt>
      <trkpt lat="46.4721610" lon="6.8004650">
        <ele>388.6</ele>
        <time>2019-02-24T13:48:07Z</time>
      </trkpt>
      <trkpt lat="46.4721780" lon="6.8004130">
        <ele>388.6</ele>
        <time>2019-02-24T13:48:08Z</time>
      </trkpt>
      <trkpt lat="46.4721970" lon="6.8003610">
        <ele>388.6</ele>
        <time>2019-02-24T13:48:09Z</time>
      </trkpt>
      <trkpt lat="46.4722150" lon="6.8003090">
        <ele>388.7</ele>
        <time>2019-02-24T13:48:10Z</time>
      </trkpt>
      <trkpt lat="46.4722340" lon="6.8002580">
        <ele>388.9</ele>
        <time>2019-02-24T13:48:11Z</time>
      </trkpt>
      <trkpt lat="46.4722530" lon="6.8002070">
        <ele>389.1</ele>
        <time>2019-02-24T13:48:12Z</time>
      </trkpt>
      <trkpt lat="46.4722720" lon="6.8001570">
        <ele>389.3</ele>
        <time>2019-02-24T13:48:13Z</time>
      </trkpt>
      <trkpt lat="46.4722920" lon="6.8001070">
        <ele>389.5</ele>
        <time>2019-02-24T13:48:14Z</time>
      </trkpt>
      <trkpt lat="46.4723120" lon="6.8000580">
        <ele>389.7</ele>
        <time>2019-02-24T13:48:15Z</time>
      </trkpt>
      <trkpt lat="46.4723320" lon="6.8000090">
        <ele>389.9</ele>
        <time>2019-02-24T13:48:16Z</time>
      </trkpt>
      <trkpt lat="46.4723520" lon="6.7999600">
        <ele>390.1</ele>
        <time>2019-02-24T13:48:17Z</time>
      </trkpt>
      <trkpt lat="46.4723730" lon="6.7999120">
        <ele>390.3</ele>
        <time>2019-02-24T13:48:18Z</time>
      </trkpt>
      <trkpt lat="46.4723940" lon="6.7998640">
        <ele>390.4</ele>
        <time>2019-02-24T13:48:19Z</time>
      </trkpt>
      <trkpt lat="46.4724150" lon="6.7998170">
        <ele>390.6</ele>
        <time>2019-02-24T13:48:20Z</time>
      </trkpt>
      <trkpt lat="46.4724360" lon="6.7997690">
        <ele>390.7</ele>
        <time>2019-02-24T13:48:21Z</time>
      </trkpt>
      <trkpt lat="46.4724570" lon="6.7997210">
        <ele>390.9</ele>
        <time>2019-02-24T13:48:22Z</time>
      </trkpt>
      <trkpt lat="46.4724770" lon="6.7996730">
        <ele>391.0</ele>
        <time>2019-02-24T13:48:23Z</time>
      </trkpt>
      <trkpt lat="46.4724980" lon="6.7996240">
        <ele>391.1</ele>
        <time>2019-02-24T13:48:24Z</time>
      </trkpt>
      <trkpt lat="46.4725180" lon="6.7995750">
        <ele>391.3</ele>
        <time>2019-02-24T13:48:25Z</time>
      </trkpt>
      <trkpt lat="46.4725380" lon="6.7995250">
        <ele>391.5</ele>
        <time>2019-02-24T13:48:26Z</time>
      </trkpt>
      <trkpt lat="46.4725580" lon="6.7994740">
        <ele>391.6</ele>
        <time>2019-02-24T13:48:27Z</time>
      </trkpt>
      <trkpt lat="46.4725770" lon="6.7994220">
        <ele>391.8</ele>
        <time>2019-02-24T13:48:28Z</time>
      </trkpt>
      <trkpt lat="46.4725950" lon="6.7993690">
        <ele>392.0</ele>
        <time>2019-02-24T13:48:29Z</time>
      </trkpt>
      <trkpt lat="46.4726130" lon="6.7993150">
        <ele>392.1</ele>
        <time>2019-02-24T13:48:30Z</time>
      </trkpt>
      <trkpt lat="46.4726300" lon="6.7992600">
        <ele>392.3</ele>
        <time>2019-02-24T13:48:31Z</time>
      </trkpt>
      <trkpt lat="46.4726460" lon="6.7992030">
        <ele>392.4</ele>
        <time>2019-02-24T13:48:32Z</time>
      </trkpt>
      <trkpt lat="46.4726610" lon="6.7991440">
        <ele>392.6</ele>
        <time>2019-02-24T13:48:33Z</time>
      </trkpt>
      <trkpt lat="46.4726750" lon="6.7990840">
        <ele>392.8</ele>
        <time>2019-02-24T13:48:34Z</time>
      </trkpt>
      <trkpt lat="46.4726880" lon="6.7990230">
        <ele>392.6</ele>
        <time>2019-02-24T13:48:35Z</time>
      </trkpt>
      <trkpt lat="46.4727000" lon="6.7989600">
        <ele>392.5</ele>
        <time>2019-02-24T13:48:36Z</time>
      </trkpt>
      <trkpt lat="46.4727100" lon="6.7988960">
        <ele>392.3</ele>
        <time>2019-02-24T13:48:37Z</time>
      </trkpt>
      <trkpt lat="46.4727200" lon="6.7988310">
        <ele>392.2</ele>
        <time>2019-02-24T13:48:38Z</time>
      </trkpt>
      <trkpt lat="46.4727280" lon="6.7987650">
        <ele>392.0</ele>
        <time>2019-02-24T13:48:39Z</time>
      </trkpt>
      <trkpt lat="46.4727340" lon="6.7986990">
        <ele>391.8</ele>
        <time>2019-02-24T13:48:40Z</time>
      </trkpt>
      <trkpt lat="46.4727400" lon="6.7986310">
        <ele>391.7</ele>
        <time>2019-02-24T13:48:41Z</time>
      </trkpt>
      <trkpt lat="46.4727440" lon="6.7985630">
        <ele>391.5</ele>
        <time>2019-02-24T13:48:42Z</time>
      </trkpt>
      <trkpt lat="46.4727470" lon="6.7984950">
        <ele>391.1</ele>
        <time>2019-02-24T13:48:43Z</time>
      </trkpt>
      <trkpt lat="46.4727500" lon="6.7984250">
        <ele>390.8</ele>
        <time>2019-02-24T13:48:44Z</time>
      </trkpt>
      <trkpt lat="46.4727510" lon="6.7983550">
        <ele>390.6</ele>
        <time>2019-02-24T13:48:45Z</time>
      </trkpt>
      <trkpt lat="46.4727530" lon="6.7982850">
        <ele>390.3</ele>
        <time>2019-02-24T13:48:46Z</time>
      </trkpt>
      <trkpt lat="46.4727540" lon="6.7982140">
        <ele>390.0</ele>
        <time>2019-02-24T13:48:47Z</time>
      </trkpt>
      <trkpt lat="46.4727550" lon="6.7981430">
        <ele>389.7</ele>
        <time>2019-02-24T13:48:48Z</time>
      </trkpt>
      <trkpt lat="46.4727560" lon="6.7980710">
        <ele>389.5</ele>
        <time>2019-02-24T13:48:49Z</time>
      </trkpt>
      <trkpt lat="46.4727580" lon="6.7979990">
        <ele>389.0</ele>
        <time>2019-02-24T13:48:50Z</time>
      </trkpt>
      <trkpt lat="46.4727600" lon="6.7979260">
        <ele>388.7</ele>
        <time>2019-02-24T13:48:51Z</time>
      </trkpt>
      <trkpt lat="46.4727610" lon="6.7978540">
        <ele>388.5</ele>
        <time>2019-02-24T13:48:52Z</time>
      </trkpt>
      <trkpt lat="46.4727630" lon="6.7977810">
        <ele>388.3</ele>
        <time>2019-02-24T13:48:53Z</time>
      </trkpt>
      <trkpt lat="46.4727650" lon="6.7977090">
        <ele>388.2</ele>
        <time>2019-02-24T13:48:54Z</time>
      </trkpt>
      <trkpt lat="46.4727670" lon="6.7976370">
        <ele>388.1</ele>
        <time>2019-02-24T13:48:55Z</time>
      </trkpt>
      <trkpt lat="46.4727700" lon="6.7975650">
        <ele>388.1</ele>
        <time>2019-02-24T13:48:56Z</time>
      </trkpt>
      <trkpt lat="46.4727720" lon="6.7974930">
        <ele>388.0</ele>
        <time>2019-02-24T13:48:57Z</time>
      </trkpt>
      <trkpt lat="46.4727750" lon="6.7974220">
        <ele>387.9</ele>
        <time>2019-02-24T13:48:58Z</time>
      </trkpt>
      <trkpt lat="46.4727770" lon="6.7973520">
        <ele>387.8</ele>
        <time>2019-02-24T13:48:59Z</time>
      </trkpt>
      <trkpt lat="46.4727790" lon="6.7972810">
        <ele>387.7</ele>
        <time>2019-02-24T13:49:00Z</time>
      </trkpt>
      <trkpt lat="46.4727820" lon="6.7972120">
        <ele>387.6</ele>
        <time>2019-02-24T13:49:01Z</time>
      </trkpt>
      <trkpt lat="46.4727840" lon="6.7971420">
        <ele>387.4</ele>
        <time>2019-02-24T13:49:02Z</time>
      </trkpt>
      <trkpt lat="46.4727860" lon="6.7970740">
        <ele>387.2</ele>
        <time>2019-02-24T13:49:03Z</time>
      </trkpt>
      <trkpt lat="46.4727880" lon="6.7970050">
        <ele>387.0</ele>
        <time>2019-02-24T13:49:04Z</time>
      </trkpt>
      <trkpt lat="46.4727900" lon="6.7969370">
        <ele>386.7</ele>
        <time>2019-02-24T13:49:05Z</time>
      </trkpt>
      <trkpt lat="46.4727920" lon="6.7968700">
        <ele>386.3</ele>
        <time>2019-02-24T13:49:06Z</time>
      </trkpt>
      <trkpt lat="46.4727940" lon="6.7968030">
        <ele>385.7</ele>
        <time>2019-02-24T13:49:07Z</time>
      </trkpt>
      <trkpt lat="46.4727950" lon="6.7967360">
        <ele>385.7</ele>
        <time>2019-02-24T13:49:08Z</time>
      </trkpt>
      <trkpt lat="46.4727980" lon="6.7966690">
        <ele>386.7</ele>
        <time>2019-02-24T13:49:09Z</time>
      </trkpt>
      <trkpt lat="46.4728000" lon="6.7966020">
        <ele>387.5</ele>
        <time>2019-02-24T13:49:10Z</time>
      </trkpt>
      <trkpt lat="46.4728030" lon="6.7965350">
        <ele>388.2</ele>
        <time>2019-02-24T13:49:11Z</time>
      </trkpt>
      <trkpt lat="46.4728070" lon="6.7964690">
        <ele>388.6</ele>
        <time>2019-02-24T13:49:12Z</time>
      </trkpt>
      <trkpt lat="46.4728110" lon="6.7964010">
        <ele>388.8</ele>
        <time>2019-02-24T13:49:13Z</time>
      </trkpt>
      <trkpt lat="46.4728160" lon="6.7963340">
        <ele>388.8</ele>
        <time>2019-02-24T13:49:14Z</time>
      </trkpt>
      <trkpt lat="46.4728220" lon="6.7962670">
        <ele>388.8</ele>
        <time>2019-02-24T13:49:15Z</time>
      </trkpt>
      <trkpt lat="46.4728290" lon="6.7962000">
        <ele>388.6</ele>
        <time>2019-02-24T13:49:16Z</time>
      </trkpt>
      <trkpt lat="46.4728370" lon="6.7961340">
        <ele>388.5</ele>
        <time>2019-02-24T13:49:17Z</time>
      </trkpt>
      <trkpt lat="46.4728460" lon="6.7960670">
        <ele>388.3</ele>
        <time>2019-02-24T13:49:18Z</time>
      </trkpt>
      <trkpt lat="46.4728570" lon="6.7960010">
        <ele>388.2</ele>
        <time>2019-02-24T13:49:19Z</time>
      </trkpt>
      <trkpt lat="46.4728690" lon="6.7959360">
        <ele>388.2</ele>
        <time>2019-02-24T13:49:20Z</time>
      </trkpt>
      <trkpt lat="46.4728840" lon="6.7958710">
        <ele>388.1</ele>
        <time>2019-02-24T13:49:21Z</time>
      </trkpt>
      <trkpt lat="46.4729000" lon="6.7958060">
        <ele>388.1</ele>
        <time>2019-02-24T13:49:22Z</time>
      </trkpt>
      <trkpt lat="46.4729180" lon="6.7957420">
        <ele>388.1</ele>
        <time>2019-02-24T13:49:23Z</time>
      </trkpt>
      <trkpt lat="46.4729380" lon="6.7956780">
        <ele>388.1</ele>
        <time>2019-02-24T13:49:24Z</time>
      </trkpt>
      <trkpt lat="46.4729600" lon="6.7956150">
        <ele>388.0</ele>
        <time>2019-02-24T13:49:25Z</time>
      </trkpt>
      <trkpt lat="46.4729830" lon="6.7955520">
        <ele>387.9</ele>
        <time>2019-02-24T13:49:26Z</time>
      </trkpt>
      <trkpt lat="46.4730070" lon="6.7954900">
        <ele>387.8</ele>
        <time>2019-02-24T13:49:27Z</time>
      </trkpt>
      <trkpt lat="46.4730320" lon="6.7954290">
        <ele>387.7</ele>
        <time>2019-02-24T13:49:28Z</time>
      </trkpt>
      <trkpt lat="46.4730590" lon="6.7953690">
        <ele>387.6</ele>
        <time>2019-02-24T13:49:29Z</time>
      </trkpt>
      <trkpt lat="46.4730860" lon="6.7953100">
        <ele>387.6</ele>
        <time>2019-02-24T13:49:30Z</time>
      </trkpt>
      <trkpt lat="46.4731130" lon="6.7952510">
        <ele>387.5</ele>
        <time>2019-02-24T13:49:31Z</time>
      </trkpt>
      <trkpt lat="46.4731410" lon="6.7951930">
        <ele>387.5</ele>
        <time>2019-02-24T13:49:32Z</time>
      </trkpt>
      <trkpt lat="46.4731690" lon="6.7951350">
        <ele>387.6</ele>
        <time>2019-02-24T13:49:33Z</time>
      </trkpt>
      <trkpt lat="46.4731980" lon="6.7950780">
        <ele>387.6</ele>
        <time>2019-02-24T13:49:34Z</time>
      </trkpt>
      <trkpt lat="46.4732270" lon="6.7950210">
        <ele>387.6</ele>
        <time>2019-02-24T13:49:35Z</time>
      </trkpt>
      <trkpt lat="46.4732550" lon="6.7949650">
        <ele>387.6</ele>
        <time>2019-02-24T13:49:36Z</time>
      </trkpt>
      <trkpt lat="46.4732840" lon="6.7949080">
        <ele>387.5</ele>
        <time>2019-02-24T13:49:37Z</time>
      </trkpt>
      <trkpt lat="46.4733130" lon="6.7948510">
        <ele>387.5</ele>
        <time>2019-02-24T13:49:38Z</time>
      </trkpt>
      <trkpt lat="46.4733410" lon="6.7947940">
        <ele>387.4</ele>
        <time>2019-02-24T13:49:39Z</time>
      </trkpt>
      <trkpt lat="46.4733690" lon="6.7947370">
        <ele>387.4</ele>
        <time>2019-02-24T13:49:40Z</time>
      </trkpt>
      <trkpt lat="46.4733970" lon="6.7946800">
        <ele>387.4</ele>
        <time>2019-02-24T13:49:41Z</time>
      </trkpt>
      <trkpt lat="46.4734240" lon="6.7946220">
        <ele>387.4</ele>
        <time>2019-02-24T13:49:42Z</time>
      </trkpt>
      <trkpt lat="46.4734510" lon="6.7945640">
        <ele>387.4</ele>
        <time>2019-02-24T13:49:43Z</time>
      </trkpt>
      <trkpt lat="46.4734770" lon="6.7945060">
        <ele>387.3</ele>
        <time>2019-02-24T13:49:44Z</time>
      </trkpt>
      <trkpt lat="46.4735020" lon="6.7944470">
        <ele>387.3</ele>
        <time>2019-02-24T13:49:45Z</time>
      </trkpt>
      <trkpt lat="46.4735260" lon="6.7943880">
        <ele>387.2</ele>
        <time>2019-02-24T13:49:46Z</time>
      </trkpt>
      <trkpt lat="46.4735500" lon="6.7943290">
        <ele>387.1</ele>
        <time>2019-02-24T13:49:47Z</time>
      </trkpt>
      <trkpt lat="46.4735730" lon="6.7942690">
        <ele>387.1</ele>
        <time>2019-02-24T13:49:48Z</time>
      </trkpt>
      <trkpt lat="46.4735950" lon="6.7942090">
        <ele>387.1</ele>
        <time>2019-02-24T13:49:49Z</time>
      </trkpt>
      <trkpt lat="46.4736170" lon="6.7941480">
        <ele>387.1</ele>
        <time>2019-02-24T13:49:50Z</time>
      </trkpt>
      <trkpt lat="46.4736370" lon="6.7940880">
        <ele>387.2</ele>
        <time>2019-02-24T13:49:51Z</time>
      </trkpt>
      <trkpt lat="46.4736580" lon="6.7940280">
        <ele>387.2</ele>
        <time>2019-02-24T13:49:52Z</time>
      </trkpt>
      <trkpt lat="46.4736780" lon="6.7939670">
        <ele>387.2</ele>
        <time>2019-02-24T13:49:53Z</time>
      </trkpt>
      <trkpt lat="46.4736970" lon="6.7939070">
        <ele>387.2</ele>
        <time>2019-02-24T13:49:54Z</time>
      </trkpt>
      <trkpt lat="46.4737160" lon="6.7938470">
        <ele>387.2</ele>
        <time>2019-02-24T13:49:55Z</time>
      </trkpt>
      <trkpt lat="46.4737340" lon="6.7937870">
        <ele>387.2</ele>
        <time>2019-02-24T13:49:56Z</time>
      </trkpt>
      <trkpt lat="46.4737520" lon="6.7937260">
        <ele>387.2</ele>
        <time>2019-02-24T13:49:57Z</time>
      </trkpt>
      <trkpt lat="46.4737690" lon="6.7936640">
        <ele>387.2</ele>
        <time>2019-02-24T13:49:58Z</time>
      </trkpt>
      <trkpt lat="46.4737850" lon="6.7936020">
        <ele>387.2</ele>
        <time>2019-02-24T13:49:59Z</time>
      </trkpt>
      <trkpt lat="46.4738010" lon="6.7935390">
        <ele>387.1</ele>
        <time>2019-02-24T13:50:00Z</time>
      </trkpt>
      <trkpt lat="46.4738150" lon="6.7934750">
        <ele>387.1</ele>
        <time>2019-02-24T13:50:01Z</time>
      </trkpt>
      <trkpt lat="46.4738290" lon="6.7934090">
        <ele>387.0</ele>
        <time>2019-02-24T13:50:02Z</time>
      </trkpt>
      <trkpt lat="46.4738420" lon="6.7933430">
        <ele>386.9</ele>
        <time>2019-02-24T13:50:03Z</time>
      </trkpt>
      <trkpt lat="46.4738540" lon="6.7932750">
        <ele>386.7</ele>
        <time>2019-02-24T13:50:04Z</time>
      </trkpt>
      <trkpt lat="46.4738660" lon="6.7932070">
        <ele>386.5</ele>
        <time>2019-02-24T13:50:05Z</time>
      </trkpt>
      <trkpt lat="46.4738780" lon="6.7931380">
        <ele>386.1</ele>
        <time>2019-02-24T13:50:06Z</time>
      </trkpt>
      <trkpt lat="46.4738900" lon="6.7930690">
        <ele>385.5</ele>
        <time>2019-02-24T13:50:07Z</time>
      </trkpt>
      <trkpt lat="46.4739020" lon="6.7929990">
        <ele>384.9</ele>
        <time>2019-02-24T13:50:08Z</time>
      </trkpt>
      <trkpt lat="46.4739150" lon="6.7929290">
        <ele>384.0</ele>
        <time>2019-02-24T13:50:09Z</time>
      </trkpt>
      <trkpt lat="46.4739280" lon="6.7928590">
        <ele>383.0</ele>
        <time>2019-02-24T13:50:10Z</time>
      </trkpt>
      <trkpt lat="46.4739420" lon="6.7927890">
        <ele>381.9</ele>
        <time>2019-02-24T13:50:11Z</time>
      </trkpt>
      <trkpt lat="46.4739560" lon="6.7927190">
        <ele>380.7</ele>
        <time>2019-02-24T13:50:12Z</time>
      </trkpt>
      <trkpt lat="46.4739700" lon="6.7926490">
        <ele>380.1</ele>
        <time>2019-02-24T13:50:13Z</time>
      </trkpt>
      <trkpt lat="46.4739850" lon="6.7925790">
        <ele>380.0</ele>
        <time>2019-02-24T13:50:14Z</time>
      </trkpt>
      <trkpt lat="46.4739990" lon="6.7925080">
        <ele>380.0</ele>
        <time>2019-02-24T13:50:15Z</time>
      </trkpt>
      <trkpt lat="46.4740130" lon="6.7924370">
        <ele>379.9</ele>
        <time>2019-02-24T13:50:16Z</time>
      </trkpt>
      <trkpt lat="46.4740270" lon="6.7923660">
        <ele>379.9</ele>
        <time>2019-02-24T13:50:17Z</time>
      </trkpt>
      <trkpt lat="46.4740410" lon="6.7922940">
        <ele>379.8</ele>
        <time>2019-02-24T13:50:18Z</time>
      </trkpt>
      <trkpt lat="46.4740540" lon="6.7922220">
        <ele>379.8</ele>
        <time>2019-02-24T13:50:19Z</time>
      </trkpt>
      <trkpt lat="46.4740670" lon="6.7921490">
        <ele>379.7</ele>
        <time>2019-02-24T13:50:20Z</time>
      </trkpt>
      <trkpt lat="46.4740800" lon="6.7920760">
        <ele>379.6</ele>
        <time>2019-02-24T13:50:21Z</time>
      </trkpt>
      <trkpt lat="46.4740930" lon="6.7920030">
        <ele>379.6</ele>
        <time>2019-02-24T13:50:22Z</time>
      </trkpt>
      <trkpt lat="46.4741060" lon="6.7919300">
        <ele>379.5</ele>
        <time>2019-02-24T13:50:23Z</time>
      </trkpt>
      <trkpt lat="46.4741190" lon="6.7918560">
        <ele>379.5</ele>
        <time>2019-02-24T13:50:24Z</time>
      </trkpt>
      <trkpt lat="46.4741320" lon="6.7917830">
        <ele>379.4</ele>
        <time>2019-02-24T13:50:25Z</time>
      </trkpt>
      <trkpt lat="46.4741450" lon="6.7917090">
        <ele>379.4</ele>
        <time>2019-02-24T13:50:26Z</time>
      </trkpt>
      <trkpt lat="46.4741580" lon="6.7916350">
        <ele>379.4</ele>
        <time>2019-02-24T13:50:27Z</time>
      </trkpt>
      <trkpt lat="46.4741720" lon="6.7915620">
        <ele>379.4</ele>
        <time>2019-02-24T13:50:28Z</time>
      </trkpt>
      <trkpt lat="46.4741870" lon="6.7914880">
        <ele>379.3</ele>
        <time>2019-02-24T13:50:29Z</time>
      </trkpt>
      <trkpt lat="46.4742020" lon="6.7914150">
        <ele>379.3</ele>
        <time>2019-02-24T13:50:30Z</time>
      </trkpt>
      <trkpt lat="46.4742170" lon="6.7913420">
        <ele>379.4</ele>
        <time>2019-02-24T13:50:31Z</time>
      </trkpt>
      <trkpt lat="46.4742330" lon="6.7912690">
        <ele>379.4</ele>
        <time>2019-02-24T13:50:32Z</time>
      </trkpt>
      <trkpt lat="46.4742500" lon="6.7911970">
        <ele>379.4</ele>
        <time>2019-02-24T13:50:33Z</time>
      </trkpt>
      <trkpt lat="46.4742680" lon="6.7911250">
        <ele>379.4</ele>
        <time>2019-02-24T13:50:34Z</time>
      </trkpt>
      <trkpt lat="46.4742870" lon="6.7910530">
        <ele>379.4</ele>
        <time>2019-02-24T13:50:35Z</time>
      </trkpt>
      <trkpt lat="46.4743060" lon="6.7909820">
        <ele>379.5</ele>
        <time>2019-02-24T13:50:36Z</time>
      </trkpt>
      <trkpt lat="46.4743250" lon="6.7909110">
        <ele>379.5</ele>
        <time>2019-02-24T13:50:37Z</time>
      </trkpt>
      <trkpt lat="46.4743460" lon="6.7908400">
        <ele>379.6</ele>
        <time>2019-02-24T13:50:38Z</time>
      </trkpt>
      <trkpt lat="46.4743660" lon="6.7907700">
        <ele>379.6</ele>
        <time>2019-02-24T13:50:39Z</time>
      </trkpt>
      <trkpt lat="46.4743870" lon="6.7906990">
        <ele>379.7</ele>
        <time>2019-02-24T13:50:40Z</time>
      </trkpt>
      <trkpt lat="46.4744080" lon="6.7906290">
        <ele>379.7</ele>
        <time>2019-02-24T13:50:41Z</time>
      </trkpt>
      <trkpt lat="46.4744290" lon="6.7905580">
        <ele>379.8</ele>
        <time>2019-02-24T13:50:42Z</time>
      </trkpt>
      <trkpt lat="46.4744500" lon="6.7904880">
        <ele>379.9</ele>
        <time>2019-02-24T13:50:43Z</time>
      </trkpt>
      <trkpt lat="46.4744710" lon="6.7904170">
        <ele>380.1</ele>
        <time>2019-02-24T13:50:44Z</time>
      </trkpt>
      <trkpt lat="46.4744920" lon="6.7903470">
        <ele>380.2</ele>
        <time>2019-02-24T13:50:45Z</time>
      </trkpt>
      <trkpt lat="46.4745120" lon="6.7902760">
        <ele>380.4</ele>
        <time>2019-02-24T13:50:46Z</time>
      </trkpt>
      <trkpt lat="46.4745320" lon="6.7902050">
        <ele>380.6</ele>
        <time>2019-02-24T13:50:47Z</time>
      </trkpt>
      <trkpt lat="46.4745510" lon="6.7901340">
        <ele>380.8</ele>
        <time>2019-02-24T13:50:48Z</time>
      </trkpt>
      <trkpt lat="46.4745700" lon="6.7900630">
        <ele>381.0</ele>
        <time>2019-02-24T13:50:49Z</time>
      </trkpt>
      <trkpt lat="46.4745880" lon="6.7899920">
        <ele>381.2</ele>
        <time>2019-02-24T13:50:50Z</time>
      </trkpt>
      <trkpt lat="46.4746060" lon="6.7899200">
        <ele>381.4</ele>
        <time>2019-02-24T13:50:51Z</time>
      </trkpt>
      <trkpt lat="46.4746220" lon="6.7898480">
        <ele>381.6</ele>
        <time>2019-02-24T13:50:52Z</time>
      </trkpt>
      <trkpt lat="46.4746380" lon="6.7897750">
        <ele>381.9</ele>
        <time>2019-02-24T13:50:53Z</time>
      </trkpt>
      <trkpt lat="46.4746530" lon="6.7897030">
        <ele>382.1</ele>
        <time>2019-02-24T13:50:54Z</time>
      </trkpt>
      <trkpt lat="46.4746670" lon="6.7896310">
        <ele>382.3</ele>
        <time>2019-02-24T13:50:55Z</time>
      </trkpt>
      <trkpt lat="46.4746810" lon="6.7895580">
        <ele>382.4</ele>
        <time>2019-02-24T13:50:56Z</time>
      </trkpt>
      <trkpt lat="46.4746930" lon="6.7894850">
        <ele>382.6</ele>
        <time>2019-02-24T13:50:57Z</time>
      </trkpt>
      <trkpt lat="46.4747050" lon="6.7894120">
        <ele>382.8</ele>
        <time>2019-02-24T13:50:58Z</time>
      </trkpt>
      <trkpt lat="46.4747150" lon="6.7893400">
        <ele>383.0</ele>
        <time>2019-02-24T13:50:59Z</time>
      </trkpt>
      <trkpt lat="46.4747250" lon="6.7892670">
        <ele>383.1</ele>
        <time>2019-02-24T13:51:00Z</time>
      </trkpt>
      <trkpt lat="46.4747330" lon="6.7891950">
        <ele>383.3</ele>
        <time>2019-02-24T13:51:01Z</time>
      </trkpt>
      <trkpt lat="46.4747410" lon="6.7891220">
        <ele>383.4</ele>
        <time>2019-02-24T13:51:02Z</time>
      </trkpt>
      <trkpt lat="46.4747470" lon="6.7890500">
        <ele>383.6</ele>
        <time>2019-02-24T13:51:03Z</time>
      </trkpt>
      <trkpt lat="46.4747530" lon="6.7889780">
        <ele>383.7</ele>
        <time>2019-02-24T13:51:04Z</time>
      </trkpt>
      <trkpt lat="46.4747570" lon="6.7889060">
        <ele>383.9</ele>
        <time>2019-02-24T13:51:05Z</time>
      </trkpt>
      <trkpt lat="46.4747600" lon="6.7888340">
        <ele>384.0</ele>
        <time>2019-02-24T13:51:06Z</time>
      </trkpt>
      <trkpt lat="46.4747620" lon="6.7887630">
        <ele>384.2</ele>
        <time>2019-02-24T13:51:07Z</time>
      </trkpt>
      <trkpt lat="46.4747630" lon="6.7886920">
        <ele>384.3</ele>
        <time>2019-02-24T13:51:08Z</time>
      </trkpt>
      <trkpt lat="46.4747630" lon="6.7886210">
        <ele>384.5</ele>
        <time>2019-02-24T13:51:09Z</time>
      </trkpt>
      <trkpt lat="46.4747620" lon="6.7885500">
        <ele>384.6</ele>
        <time>2019-02-24T13:51:10Z</time>
      </trkpt>
      <trkpt lat="46.4747610" lon="6.7884800">
        <ele>384.8</ele>
        <time>2019-02-24T13:51:11Z</time>
      </trkpt>
      <trkpt lat="46.4747580" lon="6.7884100">
        <ele>384.9</ele>
        <time>2019-02-24T13:51:12Z</time>
      </trkpt>
      <trkpt lat="46.4747550" lon="6.7883400">
        <ele>385.1</ele>
        <time>2019-02-24T13:51:13Z</time>
      </trkpt>
      <trkpt lat="46.4747520" lon="6.7882700">
        <ele>385.2</ele>
        <time>2019-02-24T13:51:14Z</time>
      </trkpt>
      <trkpt lat="46.4747480" lon="6.7882010">
        <ele>385.4</ele>
        <time>2019-02-24T13:51:15Z</time>
      </trkpt>
      <trkpt lat="46.4747440" lon="6.7881320">
        <ele>385.5</ele>
        <time>2019-02-24T13:51:16Z</time>
      </trkpt>
      <trkpt lat="46.4747390" lon="6.7880620">
        <ele>385.7</ele>
        <time>2019-02-24T13:51:17Z</time>
      </trkpt>
      <trkpt lat="46.4747340" lon="6.7879940">
        <ele>385.8</ele>
        <time>2019-02-24T13:51:18Z</time>
      </trkpt>
      <trkpt lat="46.4747290" lon="6.7879250">
        <ele>386.0</ele>
        <time>2019-02-24T13:51:19Z</time>
      </trkpt>
      <trkpt lat="46.4747240" lon="6.7878560">
        <ele>386.1</ele>
        <time>2019-02-24T13:51:20Z</time>
      </trkpt>
      <trkpt lat="46.4747190" lon="6.7877880">
        <ele>386.3</ele>
        <time>2019-02-24T13:51:21Z</time>
      </trkpt>
      <trkpt lat="46.4747140" lon="6.7877200">
        <ele>386.4</ele>
        <time>2019-02-24T13:51:22Z</time>
      </trkpt>
      <trkpt lat="46.4747090" lon="6.7876520">
        <ele>386.5</ele>
        <time>2019-02-24T13:51:23Z</time>
      </trkpt>
      <trkpt lat="46.4747040" lon="6.7875840">
        <ele>386.7</ele>
        <time>2019-02-24T13:51:24Z</time>
      </trkpt>
      <trkpt lat="46.4746990" lon="6.7875160">
        <ele>386.8</ele>
        <time>2019-02-24T13:51:25Z</time>
      </trkpt>
      <trkpt lat="46.4746940" lon="6.7874480">
        <ele>386.9</ele>
        <time>2019-02-24T13:51:26Z</time>
      </trkpt>
      <trkpt lat="46.4746890" lon="6.7873810">
        <ele>387.1</ele>
        <time>2019-02-24T13:51:27Z</time>
      </trkpt>
      <trkpt lat="46.4746830" lon="6.7873140">
        <ele>387.2</ele>
        <time>2019-02-24T13:51:28Z</time>
      </trkpt>
      <trkpt lat="46.4746780" lon="6.7872460">
        <ele>387.4</ele>
        <time>2019-02-24T13:51:29Z</time>
      </trkpt>
      <trkpt lat="46.4746720" lon="6.7871790">
        <ele>387.5</ele>
        <time>2019-02-24T13:51:30Z</time>
      </trkpt>
      <trkpt lat="46.4746660" lon="6.7871120">
        <ele>387.2</ele>
        <time>2019-02-24T13:51:31Z</time>
      </trkpt>
      <trkpt lat="46.4746590" lon="6.7870450">
        <ele>387.0</ele>
        <time>2019-02-24T13:51:32Z</time>
      </trkpt>
      <trkpt lat="46.4746520" lon="6.7869780">
        <ele>386.8</ele>
        <time>2019-02-24T13:51:33Z</time>
      </trkpt>
      <trkpt lat="46.4746450" lon="6.7869110">
        <ele>386.6</ele>
        <time>2019-02-24T13:51:34Z</time>
      </trkpt>
      <trkpt lat="46.4746360" lon="6.7868430">
        <ele>386.4</ele>
        <time>2019-02-24T13:51:35Z</time>
      </trkpt>
      <trkpt lat="46.4746280" lon="6.7867760">
        <ele>386.2</ele>
        <time>2019-02-24T13:51:36Z</time>
      </trkpt>
      <trkpt lat="46.4746180" lon="6.7867090">
        <ele>385.6</ele>
        <time>2019-02-24T13:51:37Z</time>
      </trkpt>
      <trkpt lat="46.4746070" lon="6.7866410">
        <ele>385.3</ele>
        <time>2019-02-24T13:51:38Z</time>
      </trkpt>
      <trkpt lat="46.4745950" lon="6.7865730">
        <ele>385.0</ele>
        <time>2019-02-24T13:51:39Z</time>
      </trkpt>
      <trkpt lat="46.4745830" lon="6.7865050">
        <ele>384.8</ele>
        <time>2019-02-24T13:51:40Z</time>
      </trkpt>
      <trkpt lat="46.4745710" lon="6.7864370">
        <ele>384.5</ele>
        <time>2019-02-24T13:51:41Z</time>
      </trkpt>
      <trkpt lat="46.4745600" lon="6.7863680">
        <ele>384.2</ele>
        <time>2019-02-24T13:51:42Z</time>
      </trkpt>
      <trkpt lat="46.4745490" lon="6.7862980">
        <ele>384.0</ele>
        <time>2019-02-24T13:51:43Z</time>
      </trkpt>
      <trkpt lat="46.4745400" lon="6.7862280">
        <ele>383.7</ele>
        <time>2019-02-24T13:51:44Z</time>
      </trkpt>
      <trkpt lat="46.4745340" lon="6.7861570">
        <ele>383.4</ele>
        <time>2019-02-24T13:51:45Z</time>
      </trkpt>
      <trkpt lat="46.4745300" lon="6.7860860">
        <ele>383.2</ele>
        <time>2019-02-24T13:51:46Z</time>
      </trkpt>
      <trkpt lat="46.4745290" lon="6.7860130">
        <ele>382.9</ele>
        <time>2019-02-24T13:51:47Z</time>
      </trkpt>
      <trkpt lat="46.4745310" lon="6.7859400">
        <ele>382.6</ele>
        <time>2019-02-24T13:51:48Z</time>
      </trkpt>
      <trkpt lat="46.4745340" lon="6.7858660">
        <ele>382.5</ele>
        <time>2019-02-24T13:51:49Z</time>
      </trkpt>
      <trkpt lat="46.4745390" lon="6.7857910">
        <ele>382.4</ele>
        <time>2019-02-24T13:51:50Z</time>
      </trkpt>
      <trkpt lat="46.4745430" lon="6.7857160">
        <ele>382.4</ele>
        <time>2019-02-24T13:51:51Z</time>
      </trkpt>
      <trkpt lat="46.4745480" lon="6.7856400">
        <ele>382.4</ele>
        <time>2019-02-24T13:51:52Z</time>
      </trkpt>
      <trkpt lat="46.4745510" lon="6.7855640">
        <ele>382.4</ele>
        <time>2019-02-24T13:51:53Z</time>
      </trkpt>
      <trkpt lat="46.4745520" lon="6.7854880">
        <ele>382.5</ele>
        <time>2019-02-24T13:51:54Z</time>
      </trkpt>
      <trkpt lat="46.4745510" lon="6.7854120">
        <ele>382.5</ele>
        <time>2019-02-24T13:51:55Z</time>
      </trkpt>
      <trkpt lat="46.4745480" lon="6.7853360">
        <ele>382.6</ele>
        <time>2019-02-24T13:51:56Z</time>
      </trkpt>
      <trkpt lat="46.4745420" lon="6.7852600">
        <ele>382.7</ele>
        <time>2019-02-24T13:51:57Z</time>
      </trkpt>
      <trkpt lat="46.4745340" lon="6.7851840">
        <ele>382.8</ele>
        <time>2019-02-24T13:51:58Z</time>
      </trkpt>
      <trkpt lat="46.4745240" lon="6.7851090">
        <ele>382.9</ele>
        <time>2019-02-24T13:51:59Z</time>
      </trkpt>
      <trkpt lat="46.4745130" lon="6.7850340">
        <ele>383.0</ele>
        <time>2019-02-24T13:52:00Z</time>
      </trkpt>
      <trkpt lat="46.4745010" lon="6.7849600">
        <ele>383.2</ele>
        <time>2019-02-24T13:52:01Z</time>
      </trkpt>
      <trkpt lat="46.4744870" lon="6.7848870">
        <ele>383.3</ele>
        <time>2019-02-24T13:52:02Z</time>
      </trkpt>
      <trkpt lat="46.4744730" lon="6.7848140">
        <ele>383.5</ele>
        <time>2019-02-24T13:52:03Z</time>
      </trkpt>
      <trkpt lat="46.4744570" lon="6.7847420">
        <ele>383.6</ele>
        <time>2019-02-24T13:52:04Z</time>
      </trkpt>
      <trkpt lat="46.4744420" lon="6.7846710">
        <ele>383.8</ele>
        <time>2019-02-24T13:52:05Z</time>
      </trkpt>
      <trkpt lat="46.4744250" lon="6.7846010">
        <ele>383.9</ele>
        <time>2019-02-24T13:52:06Z</time>
      </trkpt>
      <trkpt lat="46.4744090" lon="6.7845310">
        <ele>384.1</ele>
        <time>2019-02-24T13:52:07Z</time>
      </trkpt>
      <trkpt lat="46.4743920" lon="6.7844630">
        <ele>384.2</ele>
        <time>2019-02-24T13:52:08Z</time>
      </trkpt>
      <trkpt lat="46.4743760" lon="6.7843940">
        <ele>384.3</ele>
        <time>2019-02-24T13:52:09Z</time>
      </trkpt>
      <trkpt lat="46.4743590" lon="6.7843260">
        <ele>384.4</ele>
        <time>2019-02-24T13:52:10Z</time>
      </trkpt>
      <trkpt lat="46.4743430" lon="6.7842590">
        <ele>384.5</ele>
        <time>2019-02-24T13:52:11Z</time>
      </trkpt>
      <trkpt lat="46.4743280" lon="6.7841930">
        <ele>384.6</ele>
        <time>2019-02-24T13:52:12Z</time>
      </trkpt>
      <trkpt lat="46.4743130" lon="6.7841270">
        <ele>384.7</ele>
        <time>2019-02-24T13:52:13Z</time>
      </trkpt>
      <trkpt lat="46.4742990" lon="6.7840620">
        <ele>384.8</ele>
        <time>2019-02-24T13:52:14Z</time>
      </trkpt>
      <trkpt lat="46.4742850" lon="6.7839980">
        <ele>384.9</ele>
        <time>2019-02-24T13:52:15Z</time>
      </trkpt>
      <trkpt lat="46.4742720" lon="6.7839350">
        <ele>385.0</ele>
        <time>2019-02-24T13:52:16Z</time>
      </trkpt>
      <trkpt lat="46.4742600" lon="6.7838730">
        <ele>385.1</ele>
        <time>2019-02-24T13:52:17Z</time>
      </trkpt>
      <trkpt lat="46.4742480" lon="6.7838130">
        <ele>385.2</ele>
        <time>2019-02-24T13:52:18Z</time>
      </trkpt>
      <trkpt lat="46.4742360" lon="6.7837540">
        <ele>385.4</ele>
        <time>2019-02-24T13:52:19Z</time>
      </trkpt>
      <trkpt lat="46.4742250" lon="6.7836960">
        <ele>385.5</ele>
        <time>2019-02-24T13:52:20Z</time>
      </trkpt>
      <trkpt lat="46.4742140" lon="6.7836390">
        <ele>385.6</ele>
        <time>2019-02-24T13:52:21Z</time>
      </trkpt>
      <trkpt lat="46.4742030" lon="6.7835840">
        <ele>385.8</ele>
        <time>2019-02-24T13:52:22Z</time>
      </trkpt>
      <trkpt lat="46.4741900" lon="6.7835300">
        <ele>385.9</ele>
        <time>2019-02-24T13:52:23Z</time>
      </trkpt>
      <trkpt lat="46.4741770" lon="6.7834750">
        <ele>386.0</ele>
        <time>2019-02-24T13:52:24Z</time>
      </trkpt>
      <trkpt lat="46.4741650" lon="6.7834210">
        <ele>386.1</ele>
        <time>2019-02-24T13:52:25Z</time>
      </trkpt>
      <trkpt lat="46.4741530" lon="6.7833650">
        <ele>386.1</ele>
        <time>2019-02-24T13:52:26Z</time>
      </trkpt>
      <trkpt lat="46.4741440" lon="6.7833070">
        <ele>386.2</ele>
        <time>2019-02-24T13:52:27Z</time>
      </trkpt>
      <trkpt lat="46.4741360" lon="6.7832470">
        <ele>386.3</ele>
        <time>2019-02-24T13:52:28Z</time>
      </trkpt>
      <trkpt lat="46.4741300" lon="6.7831860">
        <ele>386.5</ele>
        <time>2019-02-24T13:52:29Z</time>
      </trkpt>
      <trkpt lat="46.4741270" lon="6.7831240">
        <ele>386.6</ele>
        <time>2019-02-24T13:52:30Z</time>
      </trkpt>
      <trkpt lat="46.4741270" lon="6.7830610">
        <ele>386.8</ele>
        <time>2019-02-24T13:52:31Z</time>
      </trkpt>
      <trkpt lat="46.4741290" lon="6.7829980">
        <ele>387.0</ele>
        <time>2019-02-24T13:52:32Z</time>
      </trkpt>
      <trkpt lat="46.4741330" lon="6.7829360">
        <ele>387.1</ele>
        <time>2019-02-24T13:52:33Z</time>
      </trkpt>
      <trkpt lat="46.4741390" lon="6.7828730">
        <ele>387.3</ele>
        <time>2019-02-24T13:52:34Z</time>
      </trkpt>
      <trkpt lat="46.4741460" lon="6.7828120">
        <ele>387.5</ele>
        <time>2019-02-24T13:52:35Z</time>
      </trkpt>
      <trkpt lat="46.4741540" lon="6.7827520">
        <ele>387.6</ele>
        <time>2019-02-24T13:52:36Z</time>
      </trkpt>
      <trkpt lat="46.4741630" lon="6.7826930">
        <ele>387.8</ele>
        <time>2019-02-24T13:52:37Z</time>
      </trkpt>
      <trkpt lat="46.4741730" lon="6.7826340">
        <ele>388.0</ele>
        <time>2019-02-24T13:52:38Z</time>
      </trkpt>
      <trkpt lat="46.4741830" lon="6.7825770">
        <ele>388.2</ele>
        <time>2019-02-24T13:52:39Z</time>
      </trkpt>
      <trkpt lat="46.4741940" lon="6.7825200">
        <ele>388.4</ele>
        <time>2019-02-24T13:52:40Z</time>
      </trkpt>
      <trkpt lat="46.4742060" lon="6.7824640">
        <ele>388.6</ele>
        <time>2019-02-24T13:52:41Z</time>
      </trkpt>
      <trkpt lat="46.4742170" lon="6.7824100">
        <ele>388.8</ele>
        <time>2019-02-24T13:52:42Z</time>
      </trkpt>
      <trkpt lat="46.4742290" lon="6.7823560">
        <ele>389.0</ele>
        <time>2019-02-24T13:52:43Z</time>
      </trkpt>
      <trkpt lat="46.4742410" lon="6.7823020">
        <ele>389.1</ele>
        <time>2019-02-24T13:52:44Z</time>
      </trkpt>
      <trkpt lat="46.4742530" lon="6.7822500">
        <ele>389.3</ele>
        <time>2019-02-24T13:52:45Z</time>
      </trkpt>
      <trkpt lat="46.4742650" lon="6.7821980">
        <ele>389.4</ele>
        <time>2019-02-24T13:52:46Z</time>
      </trkpt>
      <trkpt lat="46.4742760" lon="6.7821470">
        <ele>389.5</ele>
        <time>2019-02-24T13:52:47Z</time>
      </trkpt>
      <trkpt lat="46.4742880" lon="6.7820960">
        <ele>389.6</ele>
        <time>2019-02-24T13:52:48Z</time>
      </trkpt>
      <trkpt lat="46.4743000" lon="6.7820460">
        <ele>389.7</ele>
        <time>2019-02-24T13:52:49Z</time>
      </trkpt>
      <trkpt lat="46.4743120" lon="6.7819960">
        <ele>389.8</ele>
        <time>2019-02-24T13:52:50Z</time>
      </trkpt>
      <trkpt lat="46.4743240" lon="6.7819470">
        <ele>389.9</ele>
        <time>2019-02-24T13:52:51Z</time>
      </trkpt>
      <trkpt lat="46.4743360" lon="6.7818980">
        <ele>389.9</ele>
        <time>2019-02-24T13:52:52Z</time>
      </trkpt>
      <trkpt lat="46.4743470" lon="6.7818490">
        <ele>390.0</ele>
        <time>2019-02-24T13:52:53Z</time>
      </trkpt>
      <trkpt lat="46.4743580" lon="6.7818010">
        <ele>390.2</ele>
        <time>2019-02-24T13:52:54Z</time>
      </trkpt>
      <trkpt lat="46.4743680" lon="6.7817530">
        <ele>390.3</ele>
        <time>2019-02-24T13:52:55Z</time>
      </trkpt>
      <trkpt lat="46.4743770" lon="6.7817050">
        <ele>390.5</ele>
        <time>2019-02-24T13:52:56Z</time>
      </trkpt>
      <trkpt lat="46.4743840" lon="6.7816570">
        <ele>390.6</ele>
        <time>2019-02-24T13:52:57Z</time>
      </trkpt>
      <trkpt lat="46.4743900" lon="6.7816080">
        <ele>390.8</ele>
        <time>2019-02-24T13:52:58Z</time>
      </trkpt>
      <trkpt lat="46.4743950" lon="6.7815600">
        <ele>391.0</ele>
        <time>2019-02-24T13:52:59Z</time>
      </trkpt>
      <trkpt lat="46.4743970" lon="6.7815120">
        <ele>391.2</ele>
        <time>2019-02-24T13:53:00Z</time>
      </trkpt>
      <trkpt lat="46.4743980" lon="6.7814640">
        <ele>391.3</ele>
        <time>2019-02-24T13:53:01Z</time>
      </trkpt>
      <trkpt lat="46.4743980" lon="6.7814150">
        <ele>391.3</ele>
        <time>2019-02-24T13:53:02Z</time>
      </trkpt>
      <trkpt lat="46.4743960" lon="6.7813670">
        <ele>391.3</ele>
        <time>2019-02-24T13:53:03Z</time>
      </trkpt>
      <trkpt lat="46.4743930" lon="6.7813170">
        <ele>391.3</ele>
        <time>2019-02-24T13:53:04Z</time>
      </trkpt>
      <trkpt lat="46.4743890" lon="6.7812680">
        <ele>391.3</ele>
        <time>2019-02-24T13:53:05Z</time>
      </trkpt>
      <trkpt lat="46.4743840" lon="6.7812180">
        <ele>391.3</ele>
        <time>2019-02-24T13:53:06Z</time>
      </trkpt>
      <trkpt lat="46.4743780" lon="6.7811680">
        <ele>391.3</ele>
        <time>2019-02-24T13:53:07Z</time>
      </trkpt>
      <trkpt lat="46.4743720" lon="6.7811170">
        <ele>391.3</ele>
        <time>2019-02-24T13:53:08Z</time>
      </trkpt>
      <trkpt lat="46.4743650" lon="6.7810660">
        <ele>391.3</ele>
        <time>2019-02-24T13:53:09Z</time>
      </trkpt>
      <trkpt lat="46.4743570" lon="6.7810140">
        <ele>391.2</ele>
        <time>2019-02-24T13:53:10Z</time>
      </trkpt>
      <trkpt lat="46.4743490" lon="6.7809620">
        <ele>391.2</ele>
        <time>2019-02-24T13:53:11Z</time>
      </trkpt>
      <trkpt lat="46.4743410" lon="6.7809090">
        <ele>391.2</ele>
        <time>2019-02-24T13:53:12Z</time>
      </trkpt>
      <trkpt lat="46.4743330" lon="6.7808550">
        <ele>391.2</ele>
        <time>2019-02-24T13:53:13Z</time>
      </trkpt>
      <trkpt lat="46.4743240" lon="6.7808000">
        <ele>391.2</ele>
        <time>2019-02-24T13:53:14Z</time>
      </trkpt>
      <trkpt lat="46.4743160" lon="6.7807450">
        <ele>391.1</ele>
        <time>2019-02-24T13:53:15Z</time>
      </trkpt>
      <trkpt lat="46.4743080" lon="6.7806880">
        <ele>391.1</ele>
        <time>2019-02-24T13:53:16Z</time>
      </trkpt>
      <trkpt lat="46.4743010" lon="6.7806310">
        <ele>391.1</ele>
        <time>2019-02-24T13:53:17Z</time>
      </trkpt>
      <trkpt lat="46.4742940" lon="6.7805740">
        <ele>391.0</ele>
        <time>2019-02-24T13:53:18Z</time>
      </trkpt>
      <trkpt lat="46.4742880" lon="6.7805160">
        <ele>390.9</ele>
        <time>2019-02-24T13:53:19Z</time>
      </trkpt>
      <trkpt lat="46.4742820" lon="6.7804570">
        <ele>390.9</ele>
        <time>2019-02-24T13:53:20Z</time>
      </trkpt>
      <trkpt lat="46.4742780" lon="6.7803980">
        <ele>390.8</ele>
        <time>2019-02-24T13:53:21Z</time>
      </trkpt>
      <trkpt lat="46.4742750" lon="6.7803380">
        <ele>390.7</ele>
        <time>2019-02-24T13:53:22Z</time>
      </trkpt>
      <trkpt lat="46.4742730" lon="6.7802780">
        <ele>390.6</ele>
        <time>2019-02-24T13:53:23Z</time>
      </trkpt>
      <trkpt lat="46.4742720" lon="6.7802180">
        <ele>390.5</ele>
        <time>2019-02-24T13:53:24Z</time>
      </trkpt>
      <trkpt lat="46.4742730" lon="6.7801570">
        <ele>390.4</ele>
        <time>2019-02-24T13:53:25Z</time>
      </trkpt>
      <trkpt lat="46.4742760" lon="6.7800960">
        <ele>390.2</ele>
        <time>2019-02-24T13:53:26Z</time>
      </trkpt>
      <trkpt lat="46.4742800" lon="6.7800350">
        <ele>390.1</ele>
        <time>2019-02-24T13:53:27Z</time>
      </trkpt>
      <trkpt lat="46.4742870" lon="6.7799740">
        <ele>389.9</ele>
        <time>2019-02-24T13:53:28Z</time>
      </trkpt>
      <trkpt lat="46.4742950" lon="6.7799130">
        <ele>389.8</ele>
        <time>2019-02-24T13:53:29Z</time>
      </trkpt>
      <trkpt lat="46.4743060" lon="6.7798530">
        <ele>389.7</ele>
        <time>2019-02-24T13:53:30Z</time>
      </trkpt>
      <trkpt lat="46.4743190" lon="6.7797920">
        <ele>389.5</ele>
        <time>2019-02-24T13:53:31Z</time>
      </trkpt>
      <trkpt lat="46.4743350" lon="6.7797310">
        <ele>389.4</ele>
        <time>2019-02-24T13:53:32Z</time>
      </trkpt>
      <trkpt lat="46.4743520" lon="6.7796700">
        <ele>389.2</ele>
        <time>2019-02-24T13:53:33Z</time>
      </trkpt>
      <trkpt lat="46.4743710" lon="6.7796100">
        <ele>389.0</ele>
        <time>2019-02-24T13:53:34Z</time>
      </trkpt>
      <trkpt lat="46.4743920" lon="6.7795490">
        <ele>389.8</ele>
        <time>2019-02-24T13:53:35Z</time>
      </trkpt>
      <trkpt lat="46.4744140" lon="6.7794890">
        <ele>390.6</ele>
        <time>2019-02-24T13:53:36Z</time>
      </trkpt>
      <trkpt lat="46.4744370" lon="6.7794280">
        <ele>391.3</ele>
        <time>2019-02-24T13:53:37Z</time>
      </trkpt>
      <trkpt lat="46.4744610" lon="6.7793680">
        <ele>392.1</ele>
        <time>2019-02-24T13:53:38Z</time>
      </trkpt>
      <trkpt lat="46.4744850" lon="6.7793080">
        <ele>392.1</ele>
        <time>2019-02-24T13:53:39Z</time>
      </trkpt>
      <trkpt lat="46.4745090" lon="6.7792480">
        <ele>392.1</ele>
        <time>2019-02-24T13:53:40Z</time>
      </trkpt>
      <trkpt lat="46.4745340" lon="6.7791880">
        <ele>392.2</ele>
        <time>2019-02-24T13:53:41Z</time>
      </trkpt>
      <trkpt lat="46.4745590" lon="6.7791270">
        <ele>392.2</ele>
        <time>2019-02-24T13:53:42Z</time>
      </trkpt>
      <trkpt lat="46.4745840" lon="6.7790650">
        <ele>392.2</ele>
        <time>2019-02-24T13:53:43Z</time>
      </trkpt>
      <trkpt lat="46.4746080" lon="6.7790030">
        <ele>392.2</ele>
        <time>2019-02-24T13:53:44Z</time>
      </trkpt>
      <trkpt lat="46.4746320" lon="6.7789390">
        <ele>392.3</ele>
        <time>2019-02-24T13:53:45Z</time>
      </trkpt>
      <trkpt lat="46.4746560" lon="6.7788730">
        <ele>392.3</ele>
        <time>2019-02-24T13:53:46Z</time>
      </trkpt>
      <trkpt lat="46.4746780" lon="6.7788050">
        <ele>392.3</ele>
        <time>2019-02-24T13:53:47Z</time>
      </trkpt>
      <trkpt lat="46.4747000" lon="6.7787340">
        <ele>392.4</ele>
        <time>2019-02-24T13:53:48Z</time>
      </trkpt>
      <trkpt lat="46.4747210" lon="6.7786620">
        <ele>392.4</ele>
        <time>2019-02-24T13:53:49Z</time>
      </trkpt>
      <trkpt lat="46.4747410" lon="6.7785870">
        <ele>392.4</ele>
        <time>2019-02-24T13:53:50Z</time>
      </trkpt>
      <trkpt lat="46.4747600" lon="6.7785110">
        <ele>392.5</ele>
        <time>2019-02-24T13:53:51Z</time>
      </trkpt>
      <trkpt lat="46.4747770" lon="6.7784330">
        <ele>392.5</ele>
        <time>2019-02-24T13:53:52Z</time>
      </trkpt>
      <trkpt lat="46.4747930" lon="6.7783530">
        <ele>392.6</ele>
        <time>2019-02-24T13:53:53Z</time>
      </trkpt>
      <trkpt lat="46.4748070" lon="6.7782710">
        <ele>392.6</ele>
        <time>2019-02-24T13:53:54Z</time>
      </trkpt>
      <trkpt lat="46.4748200" lon="6.7781890">
        <ele>392.6</ele>
        <time>2019-02-24T13:53:55Z</time>
      </trkpt>
      <trkpt lat="46.4748310" lon="6.7781050">
        <ele>392.7</ele>
        <time>2019-02-24T13:53:56Z</time>
      </trkpt>
      <trkpt lat="46.4748400" lon="6.7780200">
        <ele>392.8</ele>
        <time>2019-02-24T13:53:57Z</time>
      </trkpt>
      <trkpt lat="46.4748480" lon="6.7779340">
        <ele>392.8</ele>
        <time>2019-02-24T13:53:58Z</time>
      </trkpt>
      <trkpt lat="46.4748550" lon="6.7778470">
        <ele>392.9</ele>
        <time>2019-02-24T13:53:59Z</time>
      </trkpt>
      <trkpt lat="46.4748600" lon="6.7777600">
        <ele>393.0</ele>
        <time>2019-02-24T13:54:00Z</time>
      </trkpt>
      <trkpt lat="46.4748640" lon="6.7776720">
        <ele>392.9</ele>
        <time>2019-02-24T13:54:01Z</time>
      </trkpt>
      <trkpt lat="46.4748680" lon="6.7775840">
        <ele>391.8</ele>
        <time>2019-02-24T13:54:02Z</time>
      </trkpt>
      <trkpt lat="46.4748710" lon="6.7774960">
        <ele>391.5</ele>
        <time>2019-02-24T13:54:03Z</time>
      </trkpt>
      <trkpt lat="46.4748740" lon="6.7774080">
        <ele>391.1</ele>
        <time>2019-02-24T13:54:04Z</time>
      </trkpt>
      <trkpt lat="46.4748760" lon="6.7773200">
        <ele>390.7</ele>
        <time>2019-02-24T13:54:05Z</time>
      </trkpt>
      <trkpt lat="46.4748780" lon="6.7772320">
        <ele>390.3</ele>
        <time>2019-02-24T13:54:06Z</time>
      </trkpt>
      <trkpt lat="46.4748800" lon="6.7771460">
        <ele>389.9</ele>
        <time>2019-02-24T13:54:07Z</time>
      </trkpt>
      <trkpt lat="46.4748820" lon="6.7770610">
        <ele>389.5</ele>
        <time>2019-02-24T13:54:08Z</time>
      </trkpt>
      <trkpt lat="46.4748840" lon="6.7769760">
        <ele>389.1</ele>
        <time>2019-02-24T13:54:09Z</time>
      </trkpt>
      <trkpt lat="46.4748870" lon="6.7768930">
        <ele>388.7</ele>
        <time>2019-02-24T13:54:10Z</time>
      </trkpt>
      <trkpt lat="46.4748910" lon="6.7768100">
        <ele>388.3</ele>
        <time>2019-02-24T13:54:11Z</time>
      </trkpt>
      <trkpt lat="46.4748970" lon="6.7767280">
        <ele>387.9</ele>
        <time>2019-02-24T13:54:12Z</time>
      </trkpt>
      <trkpt lat="46.4749050" lon="6.7766470">
        <ele>387.5</ele>
        <time>2019-02-24T13:54:13Z</time>
      </trkpt>
      <trkpt lat="46.4749150" lon="6.7765680">
        <ele>387.1</ele>
        <time>2019-02-24T13:54:14Z</time>
      </trkpt>
      <trkpt lat="46.4749290" lon="6.7764910">
        <ele>386.8</ele>
        <time>2019-02-24T13:54:15Z</time>
      </trkpt>
      <trkpt lat="46.4749460" lon="6.7764160">
        <ele>386.4</ele>
        <time>2019-02-24T13:54:16Z</time>
      </trkpt>
      <trkpt lat="46.4749650" lon="6.7763440">
        <ele>386.1</ele>
        <time>2019-02-24T13:54:17Z</time>
      </trkpt>
      <trkpt lat="46.4749870" lon="6.7762730">
        <ele>385.8</ele>
        <time>2019-02-24T13:54:18Z</time>
      </trkpt>
      <trkpt lat="46.4750090" lon="6.7762030">
        <ele>385.5</ele>
        <time>2019-02-24T13:54:19Z</time>
      </trkpt>
      <trkpt lat="46.4750320" lon="6.7761330">
        <ele>385.2</ele>
        <time>2019-02-24T13:54:20Z</time>
      </trkpt>
      <trkpt lat="46.4750560" lon="6.7760640">
        <ele>384.9</ele>
        <time>2019-02-24T13:54:21Z</time>
      </trkpt>
      <trkpt lat="46.4750790" lon="6.7759960">
        <ele>384.7</ele>
        <time>2019-02-24T13:54:22Z</time>
      </trkpt>
      <trkpt lat="46.4751030" lon="6.7759280">
        <ele>384.5</ele>
        <time>2019-02-24T13:54:23Z</time>
      </trkpt>
      <trkpt lat="46.4751270" lon="6.7758600">
        <ele>384.3</ele>
        <time>2019-02-24T13:54:24Z</time>
      </trkpt>
      <trkpt lat="46.4751500" lon="6.7757920">
        <ele>384.1</ele>
        <time>2019-02-24T13:54:25Z</time>
      </trkpt>
      <trkpt lat="46.4751740" lon="6.7757240">
        <ele>383.9</ele>
        <time>2019-02-24T13:54:26Z</time>
      </trkpt>
      <trkpt lat="46.4751980" lon="6.7756560">
        <ele>383.7</ele>
        <time>2019-02-24T13:54:27Z</time>
      </trkpt>
      <trkpt lat="46.4752210" lon="6.7755880">
        <ele>383.5</ele>
        <time>2019-02-24T13:54:28Z</time>
      </trkpt>
      <trkpt lat="46.4752450" lon="6.7755200">
        <ele>383.3</ele>
        <time>2019-02-24T13:54:29Z</time>
      </trkpt>
      <trkpt lat="46.4752680" lon="6.7754520">
        <ele>383.1</ele>
        <time>2019-02-24T13:54:30Z</time>
      </trkpt>
      <trkpt lat="46.4752920" lon="6.7753840">
        <ele>382.9</ele>
        <time>2019-02-24T13:54:31Z</time>
      </trkpt>
      <trkpt lat="46.4753150" lon="6.7753160">
        <ele>382.7</ele>
        <time>2019-02-24T13:54:32Z</time>
      </trkpt>
      <trkpt lat="46.4753390" lon="6.7752480">
        <ele>382.5</ele>
        <time>2019-02-24T13:54:33Z</time>
      </trkpt>
      <trkpt lat="46.4753620" lon="6.7751810">
        <ele>382.3</ele>
        <time>2019-02-24T13:54:34Z</time>
      </trkpt>
      <trkpt lat="46.4753860" lon="6.7751140">
        <ele>382.1</ele>
        <time>2019-02-24T13:54:35Z</time>
      </trkpt>
      <trkpt lat="46.4754110" lon="6.7750470">
        <ele>382.0</ele>
        <time>2019-02-24T13:54:36Z</time>
      </trkpt>
      <trkpt lat="46.4754350" lon="6.7749810">
        <ele>381.8</ele>
        <time>2019-02-24T13:54:37Z</time>
      </trkpt>
      <trkpt lat="46.4754600" lon="6.7749150">
        <ele>381.6</ele>
        <time>2019-02-24T13:54:38Z</time>
      </trkpt>
      <trkpt lat="46.4754850" lon="6.7748500">
        <ele>381.4</ele>
        <time>2019-02-24T13:54:39Z</time>
      </trkpt>
      <trkpt lat="46.4755100" lon="6.7747840">
        <ele>381.2</ele>
        <time>2019-02-24T13:54:40Z</time>
      </trkpt>
      <trkpt lat="46.4755350" lon="6.7747200">
        <ele>381.0</ele>
        <time>2019-02-24T13:54:41Z</time>
      </trkpt>
      <trkpt lat="46.4755600" lon="6.7746550">
        <ele>380.8</ele>
        <time>2019-02-24T13:54:42Z</time>
      </trkpt>
      <trkpt lat="46.4755850" lon="6.7745900">
        <ele>380.6</ele>
        <time>2019-02-24T13:54:43Z</time>
      </trkpt>
      <trkpt lat="46.4756110" lon="6.7745260">
        <ele>380.4</ele>
        <time>2019-02-24T13:54:44Z</time>
      </trkpt>
      <trkpt lat="46.4756360" lon="6.7744620">
        <ele>380.2</ele>
        <time>2019-02-24T13:54:45Z</time>
      </trkpt>
      <trkpt lat="46.4756610" lon="6.7743980">
        <ele>380.0</ele>
        <time>2019-02-24T13:54:46Z</time>
      </trkpt>
      <trkpt lat="46.4756860" lon="6.7743340">
        <ele>379.8</ele>
        <time>2019-02-24T13:54:47Z</time>
      </trkpt>
      <trkpt lat="46.4757120" lon="6.7742700">
        <ele>379.6</ele>
        <time>2019-02-24T13:54:48Z</time>
      </trkpt>
      <trkpt lat="46.4757370" lon="6.7742060">
        <ele>379.4</ele>
        <time>2019-02-24T13:54:49Z</time>
      </trkpt>
      <trkpt lat="46.4757620" lon="6.7741420">
        <ele>379.2</ele>
        <time>2019-02-24T13:54:50Z</time>
      </trkpt>
      <trkpt lat="46.4757870" lon="6.7740790">
        <ele>379.0</ele>
        <time>2019-02-24T13:54:51Z</time>
      </trkpt>
      <trkpt lat="46.4758110" lon="6.7740150">
        <ele>378.8</ele>
        <time>2019-02-24T13:54:52Z</time>
      </trkpt>
      <trkpt lat="46.4758360" lon="6.7739510">
        <ele>378.6</ele>
        <time>2019-02-24T13:54:53Z</time>
      </trkpt>
      <trkpt lat="46.4758600" lon="6.7738870">
        <ele>378.4</ele>
        <time>2019-02-24T13:54:54Z</time>
      </trkpt>
      <trkpt lat="46.4758840" lon="6.7738230">
        <ele>378.2</ele>
        <time>2019-02-24T13:54:55Z</time>
      </trkpt>
      <trkpt lat="46.4759080" lon="6.7737590">
        <ele>378.0</ele>
        <time>2019-02-24T13:54:56Z</time>
      </trkpt>
      <trkpt lat="46.4759320" lon="6.7736950">
        <ele>377.8</ele>
        <time>2019-02-24T13:54:57Z</time>
      </trkpt>
      <trkpt lat="46.4759560" lon="6.7736310">
        <ele>377.7</ele>
        <time>2019-02-24T13:54:58Z</time>
      </trkpt>
      <trkpt lat="46.4759790" lon="6.7735670">
        <ele>377.5</ele>
        <time>2019-02-24T13:54:59Z</time>
      </trkpt>
      <trkpt lat="46.4760030" lon="6.7735020">
        <ele>377.3</ele>
        <time>2019-02-24T13:55:00Z</time>
      </trkpt>
      <trkpt lat="46.4760260" lon="6.7734380">
        <ele>377.2</ele>
        <time>2019-02-24T13:55:01Z</time>
      </trkpt>
      <trkpt lat="46.4760490" lon="6.7733740">
        <ele>377.0</ele>
        <time>2019-02-24T13:55:02Z</time>
      </trkpt>
      <trkpt lat="46.4760730" lon="6.7733090">
        <ele>376.8</ele>
        <time>2019-02-24T13:55:03Z</time>
      </trkpt>
      <trkpt lat="46.4760960" lon="6.7732450">
        <ele>376.7</ele>
        <time>2019-02-24T13:55:04Z</time>
      </trkpt>
      <trkpt lat="46.4761190" lon="6.7731800">
        <ele>376.5</ele>
        <time>2019-02-24T13:55:05Z</time>
      </trkpt>
      <trkpt lat="46.4761420" lon="6.7731150">
        <ele>376.3</ele>
        <time>2019-02-24T13:55:06Z</time>
      </trkpt>
      <trkpt lat="46.4761650" lon="6.7730500">
        <ele>376.4</ele>
        <time>2019-02-24T13:55:07Z</time>
      </trkpt>
      <trkpt lat="46.4761880" lon="6.7729850">
        <ele>376.6</ele>
        <time>2019-02-24T13:55:08Z</time>
      </trkpt>
      <trkpt lat="46.4762110" lon="6.7729200">
        <ele>376.7</ele>
        <time>2019-02-24T13:55:09Z</time>
      </trkpt>
      <trkpt lat="46.4762340" lon="6.7728540">
        <ele>376.8</ele>
        <time>2019-02-24T13:55:10Z</time>
      </trkpt>
      <trkpt lat="46.4762570" lon="6.7727890">
        <ele>377.0</ele>
        <time>2019-02-24T13:55:11Z</time>
      </trkpt>
      <trkpt lat="46.4762790" lon="6.7727230">
        <ele>377.1</ele>
        <time>2019-02-24T13:55:12Z</time>
      </trkpt>
      <trkpt lat="46.4763020" lon="6.7726570">
        <ele>377.2</ele>
        <time>2019-02-24T13:55:13Z</time>
      </trkpt>
      <trkpt lat="46.4763260" lon="6.7725900">
        <ele>377.3</ele>
        <time>2019-02-24T13:55:14Z</time>
      </trkpt>
      <trkpt lat="46.4763490" lon="6.7725230">
        <ele>377.4</ele>
        <time>2019-02-24T13:55:15Z</time>
      </trkpt>
      <trkpt lat="46.4763720" lon="6.7724560">
        <ele>377.5</ele>
        <time>2019-02-24T13:55:16Z</time>
      </trkpt>
      <trkpt lat="46.4763950" lon="6.7723880">
        <ele>377.6</ele>
        <time>2019-02-24T13:55:17Z</time>
      </trkpt>
      <trkpt lat="46.4764180" lon="6.7723210">
        <ele>377.8</ele>
        <time>2019-02-24T13:55:18Z</time>
      </trkpt>
      <trkpt lat="46.4764420" lon="6.7722530">
        <ele>378.0</ele>
        <time>2019-02-24T13:55:19Z</time>
      </trkpt>
      <trkpt lat="46.4764650" lon="6.7721850">
        <ele>378.3</ele>
        <time>2019-02-24T13:55:20Z</time>
      </trkpt>
      <trkpt lat="46.4764880" lon="6.7721170">
        <ele>378.7</ele>
        <time>2019-02-24T13:55:21Z</time>
      </trkpt>
      <trkpt lat="46.4765110" lon="6.7720490">
        <ele>379.1</ele>
        <time>2019-02-24T13:55:22Z</time>
      </trkpt>
      <trkpt lat="46.4765340" lon="6.7719820">
        <ele>379.5</ele>
        <time>2019-02-24T13:55:23Z</time>
      </trkpt>
      <trkpt lat="46.4765570" lon="6.7719150">
        <ele>379.9</ele>
        <time>2019-02-24T13:55:24Z</time>
      </trkpt>
      <trkpt lat="46.4765800" lon="6.7718480">
        <ele>380.3</ele>
        <time>2019-02-24T13:55:25Z</time>
      </trkpt>
      <trkpt lat="46.4766020" lon="6.7717820">
        <ele>380.6</ele>
        <time>2019-02-24T13:55:26Z</time>
      </trkpt>
      <trkpt lat="46.4766250" lon="6.7717160">
        <ele>380.9</ele>
        <time>2019-02-24T13:55:27Z</time>
      </trkpt>
      <trkpt lat="46.4766470" lon="6.7716500">
        <ele>381.0</ele>
        <time>2019-02-24T13:55:28Z</time>
      </trkpt>
      <trkpt lat="46.4766700" lon="6.7715850">
        <ele>381.2</ele>
        <time>2019-02-24T13:55:29Z</time>
      </trkpt>
      <trkpt lat="46.4766920" lon="6.7715200">
        <ele>381.3</ele>
        <time>2019-02-24T13:55:30Z</time>
      </trkpt>
      <trkpt lat="46.4767140" lon="6.7714550">
        <ele>381.4</ele>
        <time>2019-02-24T13:55:31Z</time>
      </trkpt>
      <trkpt lat="46.4767360" lon="6.7713910">
        <ele>381.6</ele>
        <time>2019-02-24T13:55:32Z</time>
      </trkpt>
      <trkpt lat="46.4767580" lon="6.7713270">
        <ele>381.7</ele>
        <time>2019-02-24T13:55:33Z</time>
      </trkpt>
      <trkpt lat="46.4767790" lon="6.7712630">
        <ele>381.8</ele>
        <time>2019-02-24T13:55:34Z</time>
      </trkpt>
      <trkpt lat="46.4768010" lon="6.7711990">
        <ele>381.9</ele>
        <time>2019-02-24T13:55:35Z</time>
      </trkpt>
      <trkpt lat="46.4768230" lon="6.7711360">
        <ele>382.0</ele>
        <time>2019-02-24T13:55:36Z</time>
      </trkpt>
      <trkpt lat="46.4768440" lon="6.7710720">
        <ele>382.1</ele>
        <time>2019-02-24T13:55:37Z</time>
      </trkpt>
      <trkpt lat="46.4768650" lon="6.7710090">
        <ele>382.1</ele>
        <time>2019-02-24T13:55:38Z</time>
      </trkpt>
      <trkpt lat="46.4768870" lon="6.7709460">
        <ele>382.2</ele>
        <time>2019-02-24T13:55:39Z</time>
      </trkpt>
      <trkpt lat="46.4769080" lon="6.7708840">
        <ele>382.2</ele>
        <time>2019-02-24T13:55:40Z</time>
      </trkpt>
      <trkpt lat="46.4769290" lon="6.7708210">
        <ele>382.2</ele>
        <time>2019-02-24T13:55:41Z</time>
      </trkpt>
      <trkpt lat="46.4769500" lon="6.7707580">
        <ele>382.2</ele>
        <time>2019-02-24T13:55:42Z</time>
      </trkpt>
      <trkpt lat="46.4769710" lon="6.7706960">
        <ele>382.2</ele>
        <time>2019-02-24T13:55:43Z</time>
      </trkpt>
      <trkpt lat="46.4769920" lon="6.7706330">
        <ele>382.2</ele>
        <time>2019-02-24T13:55:44Z</time>
      </trkpt>
      <trkpt lat="46.4770130" lon="6.7705710">
        <ele>382.2</ele>
        <time>2019-02-24T13:55:45Z</time>
      </trkpt>
      <trkpt lat="46.4770330" lon="6.7705080">
        <ele>382.2</ele>
        <time>2019-02-24T13:55:46Z</time>
      </trkpt>
      <trkpt lat="46.4770540" lon="6.7704460">
        <ele>382.1</ele>
        <time>2019-02-24T13:55:47Z</time>
      </trkpt>
      <trkpt lat="46.4770750" lon="6.7703830">
        <ele>382.1</ele>
        <time>2019-02-24T13:55:48Z</time>
      </trkpt>
      <trkpt lat="46.4770970" lon="6.7703200">
        <ele>382.1</ele>
        <time>2019-02-24T13:55:49Z</time>
      </trkpt>
      <trkpt lat="46.4771180" lon="6.7702580">
        <ele>382.0</ele>
        <time>2019-02-24T13:55:50Z</time>
      </trkpt>
      <trkpt lat="46.4771390" lon="6.7701940">
        <ele>381.9</ele>
        <time>2019-02-24T13:55:51Z</time>
      </trkpt>
      <trkpt lat="46.4771600" lon="6.7701310">
        <ele>381.9</ele>
        <time>2019-02-24T13:55:52Z</time>
      </trkpt>
      <trkpt lat="46.4771810" lon="6.7700670">
        <ele>381.7</ele>
        <time>2019-02-24T13:55:53Z</time>
      </trkpt>
      <trkpt lat="46.4772010" lon="6.7700030">
        <ele>381.6</ele>
        <time>2019-02-24T13:55:54Z</time>
      </trkpt>
      <trkpt lat="46.4772220" lon="6.7699390">
        <ele>381.5</ele>
        <time>2019-02-24T13:55:55Z</time>
      </trkpt>
      <trkpt lat="46.4772420" lon="6.7698740">
        <ele>381.5</ele>
        <time>2019-02-24T13:55:56Z</time>
      </trkpt>
      <trkpt lat="46.4772610" lon="6.7698080">
        <ele>381.4</ele>
        <time>2019-02-24T13:55:57Z</time>
      </trkpt>
      <trkpt lat="46.4772810" lon="6.7697420">
        <ele>381.4</ele>
        <time>2019-02-24T13:55:58Z</time>
      </trkpt>
      <trkpt lat="46.4773000" lon="6.7696760">
        <ele>381.5</ele>
        <time>2019-02-24T13:55:59Z</time>
      </trkpt>
      <trkpt lat="46.4773190" lon="6.7696090">
        <ele>381.6</ele>
        <time>2019-02-24T13:56:00Z</time>
      </trkpt>
      <trkpt lat="46.4773370" lon="6.7695410">
        <ele>381.7</ele>
        <time>2019-02-24T13:56:01Z</time>
      </trkpt>
      <trkpt lat="46.4773560" lon="6.7694730">
        <ele>381.9</ele>
        <time>2019-02-24T13:56:02Z</time>
      </trkpt>
      <trkpt lat="46.4773740" lon="6.7694050">
        <ele>382.1</ele>
        <time>2019-02-24T13:56:03Z</time>
      </trkpt>
      <trkpt lat="46.4773930" lon="6.7693370">
        <ele>382.2</ele>
        <time>2019-02-24T13:56:04Z</time>
      </trkpt>
      <trkpt lat="46.4774110" lon="6.7692680">
        <ele>382.4</ele>
        <time>2019-02-24T13:56:05Z</time>
      </trkpt>
      <trkpt lat="46.4774290" lon="6.7691990">
        <ele>382.6</ele>
        <time>2019-02-24T13:56:06Z</time>
      </trkpt>
      <trkpt lat="46.4774470" lon="6.7691300">
        <ele>382.7</ele>
        <time>2019-02-24T13:56:07Z</time>
      </trkpt>
      <trkpt lat="46.4774660" lon="6.7690610">
        <ele>382.8</ele>
        <time>2019-02-24T13:56:08Z</time>
      </trkpt>
      <trkpt lat="46.4774850" lon="6.7689920">
        <ele>382.9</ele>
        <time>2019-02-24T13:56:09Z</time>
      </trkpt>
      <trkpt lat="46.4775030" lon="6.7689230">
        <ele>382.9</ele>
        <time>2019-02-24T13:56:10Z</time>
      </trkpt>
      <trkpt lat="46.4775220" lon="6.7688530">
        <ele>382.9</ele>
        <time>2019-02-24T13:56:11Z</time>
      </trkpt>
      <trkpt lat="46.4775420" lon="6.7687840">
        <ele>383.0</ele>
        <time>2019-02-24T13:56:12Z</time>
      </trkpt>
      <trkpt lat="46.4775610" lon="6.7687150">
        <ele>383.0</ele>
        <time>2019-02-24T13:56:13Z</time>
      </trkpt>
      <trkpt lat="46.4775810" lon="6.7686460">
        <ele>383.0</ele>
        <time>2019-02-24T13:56:14Z</time>
      </trkpt>
      <trkpt lat="46.4776020" lon="6.7685780">
        <ele>383.1</ele>
        <time>2019-02-24T13:56:15Z</time>
      </trkpt>
      <trkpt lat="46.4776220" lon="6.7685090">
        <ele>383.2</ele>
        <time>2019-02-24T13:56:16Z</time>
      </trkpt>
      <trkpt lat="46.4776430" lon="6.7684410">
        <ele>383.3</ele>
        <time>2019-02-24T13:56:17Z</time>
      </trkpt>
      <trkpt lat="46.4776650" lon="6.7683720">
        <ele>383.4</ele>
        <time>2019-02-24T13:56:18Z</time>
      </trkpt>
      <trkpt lat="46.4776860" lon="6.7683040">
        <ele>383.5</ele>
        <time>2019-02-24T13:56:19Z</time>
      </trkpt>
      <trkpt lat="46.4777080" lon="6.7682360">
        <ele>383.6</ele>
        <time>2019-02-24T13:56:20Z</time>
      </trkpt>
      <trkpt lat="46.4777310" lon="6.7681690">
        <ele>383.8</ele>
        <time>2019-02-24T13:56:21Z</time>
      </trkpt>
      <trkpt lat="46.4777530" lon="6.7681010">
        <ele>383.8</ele>
        <time>2019-02-24T13:56:22Z</time>
      </trkpt>
      <trkpt lat="46.4777770" lon="6.7680340">
        <ele>383.9</ele>
        <time>2019-02-24T13:56:23Z</time>
      </trkpt>
      <trkpt lat="46.4778000" lon="6.7679670">
        <ele>383.9</ele>
        <time>2019-02-24T13:56:24Z</time>
      </trkpt>
      <trkpt lat="46.4778240" lon="6.7679010">
        <ele>383.9</ele>
        <time>2019-02-24T13:56:25Z</time>
      </trkpt>
      <trkpt lat="46.4778480" lon="6.7678350">
        <ele>383.9</ele>
        <time>2019-02-24T13:56:26Z</time>
      </trkpt>
      <trkpt lat="46.4778720" lon="6.7677690">
        <ele>383.9</ele>
        <time>2019-02-24T13:56:27Z</time>
      </trkpt>
      <trkpt lat="46.4778970" lon="6.7677030">
        <ele>383.9</ele>
        <time>2019-02-24T13:56:28Z</time>
      </trkpt>
      <trkpt lat="46.4779220" lon="6.7676380">
        <ele>383.9</ele>
        <time>2019-02-24T13:56:29Z</time>
      </trkpt>
      <trkpt lat="46.4779470" lon="6.7675730">
        <ele>383.9</ele>
        <time>2019-02-24T13:56:30Z</time>
      </trkpt>
      <trkpt lat="46.4779730" lon="6.7675090">
        <ele>383.9</ele>
        <time>2019-02-24T13:56:31Z</time>
      </trkpt>
      <trkpt lat="46.4779990" lon="6.7674440">
        <ele>383.9</ele>
        <time>2019-02-24T13:56:32Z</time>
      </trkpt>
      <trkpt lat="46.4780250" lon="6.7673800">
        <ele>383.9</ele>
        <time>2019-02-24T13:56:33Z</time>
      </trkpt>
      <trkpt lat="46.4780520" lon="6.7673170">
        <ele>383.9</ele>
        <time>2019-02-24T13:56:34Z</time>
      </trkpt>
      <trkpt lat="46.4780780" lon="6.7672530">
        <ele>383.9</ele>
        <time>2019-02-24T13:56:35Z</time>
      </trkpt>
      <trkpt lat="46.4781040" lon="6.7671890">
        <ele>383.9</ele>
        <time>2019-02-24T13:56:36Z</time>
      </trkpt>
      <trkpt lat="46.4781310" lon="6.7671260">
        <ele>383.9</ele>
        <time>2019-02-24T13:56:37Z</time>
      </trkpt>
      <trkpt lat="46.4781570" lon="6.7670630">
        <ele>383.9</ele>
        <time>2019-02-24T13:56:38Z</time>
      </trkpt>
      <trkpt lat="46.4781840" lon="6.7670000">
        <ele>383.9</ele>
        <time>2019-02-24T13:56:39Z</time>
      </trkpt>
      <trkpt lat="46.4782100" lon="6.7669370">
        <ele>383.9</ele>
        <time>2019-02-24T13:56:40Z</time>
      </trkpt>
      <trkpt lat="46.4782360" lon="6.7668730">
        <ele>383.9</ele>
        <time>2019-02-24T13:56:41Z</time>
      </trkpt>
      <trkpt lat="46.4782620" lon="6.7668100">
        <ele>383.9</ele>
        <time>2019-02-24T13:56:42Z</time>
      </trkpt>
      <trkpt lat="46.4782880" lon="6.7667470">
        <ele>383.9</ele>
        <time>2019-02-24T13:56:43Z</time>
      </trkpt>
      <trkpt lat="46.4783130" lon="6.7666840">
        <ele>383.8</ele>
        <time>2019-02-24T13:56:44Z</time>
      </trkpt>
      <trkpt lat="46.4783380" lon="6.7666200">
        <ele>383.8</ele>
        <time>2019-02-24T13:56:45Z</time>
      </trkpt>
      <trkpt lat="46.4783630" lon="6.7665570">
        <ele>383.8</ele>
        <time>2019-02-24T13:56:46Z</time>
      </trkpt>
      <trkpt lat="46.4783870" lon="6.7664930">
        <ele>383.7</ele>
        <time>2019-02-24T13:56:47Z</time>
      </trkpt>
      <trkpt lat="46.4784110" lon="6.7664300">
        <ele>383.7</ele>
        <time>2019-02-24T13:56:48Z</time>
      </trkpt>
      <trkpt lat="46.4784350" lon="6.7663660">
        <ele>383.6</ele>
        <time>2019-02-24T13:56:49Z</time>
      </trkpt>
      <trkpt lat="46.4784590" lon="6.7663020">
        <ele>383.5</ele>
        <time>2019-02-24T13:56:50Z</time>
      </trkpt>
      <trkpt lat="46.4784830" lon="6.7662380">
        <ele>383.3</ele>
        <time>2019-02-24T13:56:51Z</time>
      </trkpt>
      <trkpt lat="46.4785060" lon="6.7661740">
        <ele>383.1</ele>
        <time>2019-02-24T13:56:52Z</time>
      </trkpt>
      <trkpt lat="46.4785290" lon="6.7661100">
        <ele>382.9</ele>
        <time>2019-02-24T13:56:53Z</time>
      </trkpt>
      <trkpt lat="46.4785520" lon="6.7660460">
        <ele>382.7</ele>
        <time>2019-02-24T13:56:54Z</time>
      </trkpt>
      <trkpt lat="46.4785740" lon="6.7659820">
        <ele>382.5</ele>
        <time>2019-02-24T13:56:55Z</time>
      </trkpt>
      <trkpt lat="46.4785970" lon="6.7659180">
        <ele>382.3</ele>
        <time>2019-02-24T13:56:56Z</time>
      </trkpt>
      <trkpt lat="46.4786190" lon="6.7658540">
        <ele>382.1</ele>
        <time>2019-02-24T13:56:57Z</time>
      </trkpt>
      <trkpt lat="46.4786410" lon="6.7657900">
        <ele>382.0</ele>
        <time>2019-02-24T13:56:58Z</time>
      </trkpt>
      <trkpt lat="46.4786630" lon="6.7657260">
        <ele>381.9</ele>
        <time>2019-02-24T13:56:59Z</time>
      </trkpt>
      <trkpt lat="46.4786850" lon="6.7656620">
        <ele>381.7</ele>
        <time>2019-02-24T13:57:00Z</time>
      </trkpt>
      <trkpt lat="46.4787070" lon="6.7655980">
        <ele>381.6</ele>
        <time>2019-02-24T13:57:01Z</time>
      </trkpt>
      <trkpt lat="46.4787280" lon="6.7655340">
        <ele>381.5</ele>
        <time>2019-02-24T13:57:02Z</time>
      </trkpt>
      <trkpt lat="46.4787500" lon="6.7654700">
        <ele>381.4</ele>
        <time>2019-02-24T13:57:03Z</time>
      </trkpt>
      <trkpt lat="46.4787710" lon="6.7654060">
        <ele>381.3</ele>
        <time>2019-02-24T13:57:04Z</time>
      </trkpt>
      <trkpt lat="46.4787930" lon="6.7653430">
        <ele>381.2</ele>
        <time>2019-02-24T13:57:05Z</time>
      </trkpt>
      <trkpt lat="46.4788140" lon="6.7652790">
        <ele>381.1</ele>
        <time>2019-02-24T13:57:06Z</time>
      </trkpt>
      <trkpt lat="46.4788360" lon="6.7652150">
        <ele>380.9</ele>
        <time>2019-02-24T13:57:07Z</time>
      </trkpt>
      <trkpt lat="46.4788570" lon="6.7651520">
        <ele>380.8</ele>
        <time>2019-02-24T13:57:08Z</time>
      </trkpt>
      <trkpt lat="46.4788780" lon="6.7650880">
        <ele>380.8</ele>
        <time>2019-02-24T13:57:09Z</time>
      </trkpt>
      <trkpt lat="46.4789000" lon="6.7650250">
        <ele>380.7</ele>
        <time>2019-02-24T13:57:10Z</time>
      </trkpt>
      <trkpt lat="46.4789210" lon="6.7649620">
        <ele>380.7</ele>
        <time>2019-02-24T13:57:11Z</time>
      </trkpt>
      <trkpt lat="46.4789430" lon="6.7648980">
        <ele>380.6</ele>
        <time>2019-02-24T13:57:12Z</time>
      </trkpt>
      <trkpt lat="46.4789640" lon="6.7648350">
        <ele>380.6</ele>
        <time>2019-02-24T13:57:13Z</time>
      </trkpt>
      <trkpt lat="46.4789860" lon="6.7647730">
        <ele>380.6</ele>
        <time>2019-02-24T13:57:14Z</time>
      </trkpt>
      <trkpt lat="46.4790070" lon="6.7647100">
        <ele>380.6</ele>
        <time>2019-02-24T13:57:15Z</time>
      </trkpt>
      <trkpt lat="46.4790290" lon="6.7646470">
        <ele>380.6</ele>
        <time>2019-02-24T13:57:16Z</time>
      </trkpt>
      <trkpt lat="46.4790510" lon="6.7645850">
        <ele>380.6</ele>
        <time>2019-02-24T13:57:17Z</time>
      </trkpt>
      <trkpt lat="46.4790730" lon="6.7645230">
        <ele>380.7</ele>
        <time>2019-02-24T13:57:18Z</time>
      </trkpt>
      <trkpt lat="46.4790950" lon="6.7644610">
        <ele>380.7</ele>
        <time>2019-02-24T13:57:19Z</time>
      </trkpt>
      <trkpt lat="46.4791170" lon="6.7643990">
        <ele>380.7</ele>
        <time>2019-02-24T13:57:20Z</time>
      </trkpt>
      <trkpt lat="46.4791390" lon="6.7643370">
        <ele>380.8</ele>
        <time>2019-02-24T13:57:21Z</time>
      </trkpt>
      <trkpt lat="46.4791620" lon="6.7642750">
        <ele>380.9</ele>
        <time>2019-02-24T13:57:22Z</time>
      </trkpt>
      <trkpt lat="46.4791840" lon="6.7642130">
        <ele>381.0</ele>
        <time>2019-02-24T13:57:23Z</time>
      </trkpt>
      <trkpt lat="46.4792070" lon="6.7641510">
        <ele>381.1</ele>
        <time>2019-02-24T13:57:24Z</time>
      </trkpt>
      <trkpt lat="46.4792300" lon="6.7640900">
        <ele>381.2</ele>
        <time>2019-02-24T13:57:25Z</time>
      </trkpt>
      <trkpt lat="46.4792530" lon="6.7640280">
        <ele>381.4</ele>
        <time>2019-02-24T13:57:26Z</time>
      </trkpt>
      <trkpt lat="46.4792760" lon="6.7639670">
        <ele>381.4</ele>
        <time>2019-02-24T13:57:27Z</time>
      </trkpt>
      <trkpt lat="46.4792990" lon="6.7639050">
        <ele>381.5</ele>
        <time>2019-02-24T13:57:28Z</time>
      </trkpt>
      <trkpt lat="46.4793230" lon="6.7638430">
        <ele>381.6</ele>
        <time>2019-02-24T13:57:29Z</time>
      </trkpt>
      <trkpt lat="46.4793470" lon="6.7637820">
        <ele>381.7</ele>
        <time>2019-02-24T13:57:30Z</time>
      </trkpt>
      <trkpt lat="46.4793710" lon="6.7637200">
        <ele>381.8</ele>
        <time>2019-02-24T13:57:31Z</time>
      </trkpt>
      <trkpt lat="46.4793950" lon="6.7636580">
        <ele>381.9</ele>
        <time>2019-02-24T13:57:32Z</time>
      </trkpt>
      <trkpt lat="46.4794190" lon="6.7635970">
        <ele>382.0</ele>
        <time>2019-02-24T13:57:33Z</time>
      </trkpt>
      <trkpt lat="46.4794430" lon="6.7635350">
        <ele>382.2</ele>
        <time>2019-02-24T13:57:34Z</time>
      </trkpt>
      <trkpt lat="46.4794680" lon="6.7634730">
        <ele>382.4</ele>
        <time>2019-02-24T13:57:35Z</time>
      </trkpt>
      <trkpt lat="46.4794930" lon="6.7634110">
        <ele>382.6</ele>
        <time>2019-02-24T13:57:36Z</time>
      </trkpt>
      <trkpt lat="46.4795180" lon="6.7633490">
        <ele>382.9</ele>
        <time>2019-02-24T13:57:37Z</time>
      </trkpt>
      <trkpt lat="46.4795430" lon="6.7632870">
        <ele>383.2</ele>
        <time>2019-02-24T13:57:38Z</time>
      </trkpt>
      <trkpt lat="46.4795680" lon="6.7632250">
        <ele>383.4</ele>
        <time>2019-02-24T13:57:39Z</time>
      </trkpt>
      <trkpt lat="46.4795930" lon="6.7631630">
        <ele>383.7</ele>
        <time>2019-02-24T13:57:40Z</time>
      </trkpt>
      <trkpt lat="46.4796180" lon="6.7631010">
        <ele>383.9</ele>
        <time>2019-02-24T13:57:41Z</time>
      </trkpt>
      <trkpt lat="46.4796440" lon="6.7630390">
        <ele>384.1</ele>
        <time>2019-02-24T13:57:42Z</time>
      </trkpt>
      <trkpt lat="46.4796700" lon="6.7629780">
        <ele>384.3</ele>
        <time>2019-02-24T13:57:43Z</time>
      </trkpt>
      <trkpt lat="46.4796950" lon="6.7629160">
        <ele>384.4</ele>
        <time>2019-02-24T13:57:44Z</time>
      </trkpt>
      <trkpt lat="46.4797210" lon="6.7628540">
        <ele>384.6</ele>
        <time>2019-02-24T13:57:45Z</time>
      </trkpt>
      <trkpt lat="46.4797470" lon="6.7627930">
        <ele>384.8</ele>
        <time>2019-02-24T13:57:46Z</time>
      </trkpt>
      <trkpt lat="46.4797720" lon="6.7627310">
        <ele>384.9</ele>
        <time>2019-02-24T13:57:47Z</time>
      </trkpt>
      <trkpt lat="46.4797980" lon="6.7626700">
        <ele>385.0</ele>
        <time>2019-02-24T13:57:48Z</time>
      </trkpt>
      <trkpt lat="46.4798240" lon="6.7626090">
        <ele>385.2</ele>
        <time>2019-02-24T13:57:49Z</time>
      </trkpt>
      <trkpt lat="46.4798500" lon="6.7625470">
        <ele>385.3</ele>
        <time>2019-02-24T13:57:50Z</time>
      </trkpt>
      <trkpt lat="46.4798760" lon="6.7624860">
        <ele>385.3</ele>
        <time>2019-02-24T13:57:51Z</time>
      </trkpt>
      <trkpt lat="46.4799020" lon="6.7624250">
        <ele>385.4</ele>
        <time>2019-02-24T13:57:52Z</time>
      </trkpt>
      <trkpt lat="46.4799280" lon="6.7623630">
        <ele>385.4</ele>
        <time>2019-02-24T13:57:53Z</time>
      </trkpt>
      <trkpt lat="46.4799540" lon="6.7623010">
        <ele>385.4</ele>
        <time>2019-02-24T13:57:54Z</time>
      </trkpt>
      <trkpt lat="46.4799800" lon="6.7622390">
        <ele>385.5</ele>
        <time>2019-02-24T13:57:55Z</time>
      </trkpt>
      <trkpt lat="46.4800070" lon="6.7621760">
        <ele>385.5</ele>
        <time>2019-02-24T13:57:56Z</time>
      </trkpt>
      <trkpt lat="46.4800330" lon="6.7621130">
        <ele>385.5</ele>
        <time>2019-02-24T13:57:57Z</time>
      </trkpt>
      <trkpt lat="46.4800600" lon="6.7620490">
        <ele>385.4</ele>
        <time>2019-02-24T13:57:58Z</time>
      </trkpt>
      <trkpt lat="46.4800870" lon="6.7619840">
        <ele>385.4</ele>
        <time>2019-02-24T13:57:59Z</time>
      </trkpt>
      <trkpt lat="46.4801150" lon="6.7619190">
        <ele>385.4</ele>
        <time>2019-02-24T13:58:00Z</time>
      </trkpt>
      <trkpt lat="46.4801420" lon="6.7618540">
        <ele>385.4</ele>
        <time>2019-02-24T13:58:01Z</time>
      </trkpt>
      <trkpt lat="46.4801700" lon="6.7617900">
        <ele>385.4</ele>
        <time>2019-02-24T13:58:02Z</time>
      </trkpt>
      <trkpt lat="46.4801980" lon="6.7617250">
        <ele>385.4</ele>
        <time>2019-02-24T13:58:03Z</time>
      </trkpt>
      <trkpt lat="46.4802250" lon="6.7616610">
        <ele>385.4</ele>
        <time>2019-02-24T13:58:04Z</time>
      </trkpt>
      <trkpt lat="46.4802530" lon="6.7615970">
        <ele>385.4</ele>
        <time>2019-02-24T13:58:05Z</time>
      </trkpt>
      <trkpt lat="46.4802810" lon="6.7615350">
        <ele>385.4</ele>
        <time>2019-02-24T13:58:06Z</time>
      </trkpt>
      <trkpt lat="46.4803100" lon="6.7614730">
        <ele>385.4</ele>
        <time>2019-02-24T13:58:07Z</time>
      </trkpt>
      <trkpt lat="46.4803380" lon="6.7614110">
        <ele>385.5</ele>
        <time>2019-02-24T13:58:08Z</time>
      </trkpt>
      <trkpt lat="46.4803660" lon="6.7613510">
        <ele>385.6</ele>
        <time>2019-02-24T13:58:09Z</time>
      </trkpt>
      <trkpt lat="46.4803940" lon="6.7612900">
        <ele>385.6</ele>
        <time>2019-02-24T13:58:10Z</time>
      </trkpt>
      <trkpt lat="46.4804220" lon="6.7612300">
        <ele>385.7</ele>
        <time>2019-02-24T13:58:11Z</time>
      </trkpt>
      <trkpt lat="46.4804510" lon="6.7611710">
        <ele>385.8</ele>
        <time>2019-02-24T13:58:12Z</time>
      </trkpt>
      <trkpt lat="46.4804790" lon="6.7611110">
        <ele>385.8</ele>
        <time>2019-02-24T13:58:13Z</time>
      </trkpt>
      <trkpt lat="46.4805070" lon="6.7610510">
        <ele>385.8</ele>
        <time>2019-02-24T13:58:14Z</time>
      </trkpt>
      <trkpt lat="46.4805350" lon="6.7609920">
        <ele>385.9</ele>
        <time>2019-02-24T13:58:15Z</time>
      </trkpt>
      <trkpt lat="46.4805630" lon="6.7609320">
        <ele>385.9</ele>
        <time>2019-02-24T13:58:16Z</time>
      </trkpt>
      <trkpt lat="46.4805920" lon="6.7608730">
        <ele>385.9</ele>
        <time>2019-02-24T13:58:17Z</time>
      </trkpt>
      <trkpt lat="46.4806200" lon="6.7608130">
        <ele>385.9</ele>
        <time>2019-02-24T13:58:18Z</time>
      </trkpt>
      <trkpt lat="46.4806490" lon="6.7607520">
        <ele>385.9</ele>
        <time>2019-02-24T13:58:19Z</time>
      </trkpt>
      <trkpt lat="46.4806790" lon="6.7606920">
        <ele>385.9</ele>
        <time>2019-02-24T13:58:20Z</time>
      </trkpt>
      <trkpt lat="46.4807090" lon="6.7606310">
        <ele>385.8</ele>
        <time>2019-02-24T13:58:21Z</time>
      </trkpt>
      <trkpt lat="46.4807390" lon="6.7605700">
        <ele>385.8</ele>
        <time>2019-02-24T13:58:22Z</time>
      </trkpt>
      <trkpt lat="46.4807700" lon="6.7605080">
        <ele>385.7</ele>
        <time>2019-02-24T13:58:23Z</time>
      </trkpt>
      <trkpt lat="46.4808010" lon="6.7604460">
        <ele>385.7</ele>
        <time>2019-02-24T13:58:24Z</time>
      </trkpt>
      <trkpt lat="46.4808320" lon="6.7603840">
        <ele>385.6</ele>
        <time>2019-02-24T13:58:25Z</time>
      </trkpt>
      <trkpt lat="46.4808640" lon="6.7603220">
        <ele>385.6</ele>
        <time>2019-02-24T13:58:26Z</time>
      </trkpt>
      <trkpt lat="46.4808950" lon="6.7602600">
        <ele>385.6</ele>
        <time>2019-02-24T13:58:27Z</time>
      </trkpt>
      <trkpt lat="46.4809270" lon="6.7601990">
        <ele>385.5</ele>
        <time>2019-02-24T13:58:28Z</time>
      </trkpt>
      <trkpt lat="46.4809590" lon="6.7601380">
        <ele>385.5</ele>
        <time>2019-02-24T13:58:29Z</time>
      </trkpt>
      <trkpt lat="46.4809910" lon="6.7600770">
        <ele>385.4</ele>
        <time>2019-02-24T13:58:30Z</time>
      </trkpt>
      <trkpt lat="46.4810230" lon="6.7600170">
        <ele>385.4</ele>
        <time>2019-02-24T13:58:31Z</time>
      </trkpt>
      <trkpt lat="46.4810550" lon="6.7599570">
        <ele>385.4</ele>
        <time>2019-02-24T13:58:32Z</time>
      </trkpt>
      <trkpt lat="46.4810880" lon="6.7598980">
        <ele>385.3</ele>
        <time>2019-02-24T13:58:33Z</time>
      </trkpt>
      <trkpt lat="46.4811200" lon="6.7598390">
        <ele>385.3</ele>
        <time>2019-02-24T13:58:34Z</time>
      </trkpt>
      <trkpt lat="46.4811530" lon="6.7597800">
        <ele>385.3</ele>
        <time>2019-02-24T13:58:35Z</time>
      </trkpt>
      <trkpt lat="46.4811870" lon="6.7597220">
        <ele>385.3</ele>
        <time>2019-02-24T13:58:36Z</time>
      </trkpt>
      <trkpt lat="46.4812210" lon="6.7596640">
        <ele>385.3</ele>
        <time>2019-02-24T13:58:37Z</time>
      </trkpt>
      <trkpt lat="46.4812550" lon="6.7596060">
        <ele>385.4</ele>
        <time>2019-02-24T13:58:38Z</time>
      </trkpt>
      <trkpt lat="46.4812900" lon="6.7595490">
        <ele>385.5</ele>
        <time>2019-02-24T13:58:39Z</time>
      </trkpt>
      <trkpt lat="46.4813260" lon="6.7594910">
        <ele>385.5</ele>
        <time>2019-02-24T13:58:40Z</time>
      </trkpt>
      <trkpt lat="46.4813620" lon="6.7594350">
        <ele>385.6</ele>
        <time>2019-02-24T13:58:41Z</time>
      </trkpt>
      <trkpt lat="46.4813990" lon="6.7593790">
        <ele>385.7</ele>
        <time>2019-02-24T13:58:42Z</time>
      </trkpt>
      <trkpt lat="46.4814360" lon="6.7593230">
        <ele>385.7</ele>
        <time>2019-02-24T13:58:43Z</time>
      </trkpt>
      <trkpt lat="46.4814740" lon="6.7592680">
        <ele>385.8</ele>
        <time>2019-02-24T13:58:44Z</time>
      </trkpt>
      <trkpt lat="46.4815120" lon="6.7592140">
        <ele>385.9</ele>
        <time>2019-02-24T13:58:45Z</time>
      </trkpt>
      <trkpt lat="46.4815510" lon="6.7591600">
        <ele>385.9</ele>
        <time>2019-02-24T13:58:46Z</time>
      </trkpt>
      <trkpt lat="46.4815910" lon="6.7591080">
        <ele>385.9</ele>
        <time>2019-02-24T13:58:47Z</time>
      </trkpt>
      <trkpt lat="46.4816310" lon="6.7590560">
        <ele>386.0</ele>
        <time>2019-02-24T13:58:48Z</time>
      </trkpt>
      <trkpt lat="46.4816710" lon="6.7590050">
        <ele>386.0</ele>
        <time>2019-02-24T13:58:49Z</time>
      </trkpt>
      <trkpt lat="46.4817120" lon="6.7589550">
        <ele>386.0</ele>
        <time>2019-02-24T13:58:50Z</time>
      </trkpt>
      <trkpt lat="46.4817530" lon="6.7589070">
        <ele>386.1</ele>
        <time>2019-02-24T13:58:51Z</time>
      </trkpt>
      <trkpt lat="46.4817940" lon="6.7588590">
        <ele>386.1</ele>
        <time>2019-02-24T13:58:52Z</time>
      </trkpt>
      <trkpt lat="46.4818360" lon="6.7588130">
        <ele>386.1</ele>
        <time>2019-02-24T13:58:53Z</time>
      </trkpt>
      <trkpt lat="46.4818780" lon="6.7587680">
        <ele>386.1</ele>
        <time>2019-02-24T13:58:54Z</time>
      </trkpt>
      <trkpt lat="46.4819200" lon="6.7587240">
        <ele>386.0</ele>
        <time>2019-02-24T13:58:55Z</time>
      </trkpt>
      <trkpt lat="46.4819630" lon="6.7586810">
        <ele>386.0</ele>
        <time>2019-02-24T13:58:56Z</time>
      </trkpt>
      <trkpt lat="46.4820050" lon="6.7586390">
        <ele>386.0</ele>
        <time>2019-02-24T13:58:57Z</time>
      </trkpt>
      <trkpt lat="46.4820480" lon="6.7585990">
        <ele>385.9</ele>
        <time>2019-02-24T13:58:58Z</time>
      </trkpt>
      <trkpt lat="46.4820910" lon="6.7585590">
        <ele>385.9</ele>
        <time>2019-02-24T13:58:59Z</time>
      </trkpt>
      <trkpt lat="46.4821340" lon="6.7585190">
        <ele>385.9</ele>
        <time>2019-02-24T13:59:00Z</time>
      </trkpt>
      <trkpt lat="46.4821760" lon="6.7584810">
        <ele>385.8</ele>
        <time>2019-02-24T13:59:01Z</time>
      </trkpt>
      <trkpt lat="46.4822190" lon="6.7584430">
        <ele>385.8</ele>
        <time>2019-02-24T13:59:02Z</time>
      </trkpt>
      <trkpt lat="46.4822620" lon="6.7584060">
        <ele>385.7</ele>
        <time>2019-02-24T13:59:03Z</time>
      </trkpt>
      <trkpt lat="46.4823050" lon="6.7583690">
        <ele>385.7</ele>
        <time>2019-02-24T13:59:04Z</time>
      </trkpt>
      <trkpt lat="46.4823480" lon="6.7583330">
        <ele>385.6</ele>
        <time>2019-02-24T13:59:05Z</time>
      </trkpt>
      <trkpt lat="46.4823910" lon="6.7582960">
        <ele>385.5</ele>
        <time>2019-02-24T13:59:06Z</time>
      </trkpt>
      <trkpt lat="46.4824340" lon="6.7582610">
        <ele>385.5</ele>
        <time>2019-02-24T13:59:07Z</time>
      </trkpt>
      <trkpt lat="46.4824770" lon="6.7582250">
        <ele>385.4</ele>
        <time>2019-02-24T13:59:08Z</time>
      </trkpt>
      <trkpt lat="46.4825200" lon="6.7581890">
        <ele>385.4</ele>
        <time>2019-02-24T13:59:09Z</time>
      </trkpt>
      <trkpt lat="46.4825620" lon="6.7581530">
        <ele>385.3</ele>
        <time>2019-02-24T13:59:10Z</time>
      </trkpt>
      <trkpt lat="46.4826040" lon="6.7581180">
        <ele>385.3</ele>
        <time>2019-02-24T13:59:11Z</time>
      </trkpt>
      <trkpt lat="46.4826460" lon="6.7580820">
        <ele>385.4</ele>
        <time>2019-02-24T13:59:12Z</time>
      </trkpt>
      <trkpt lat="46.4826880" lon="6.7580450">
        <ele>385.4</ele>
        <time>2019-02-24T13:59:13Z</time>
      </trkpt>
      <trkpt lat="46.4827300" lon="6.7580080">
        <ele>385.4</ele>
        <time>2019-02-24T13:59:14Z</time>
      </trkpt>
      <trkpt lat="46.4827710" lon="6.7579710">
        <ele>385.5</ele>
        <time>2019-02-24T13:59:15Z</time>
      </trkpt>
      <trkpt lat="46.4828110" lon="6.7579330">
        <ele>385.5</ele>
        <time>2019-02-24T13:59:16Z</time>
      </trkpt>
      <trkpt lat="46.4828510" lon="6.7578940">
        <ele>385.6</ele>
        <time>2019-02-24T13:59:17Z</time>
      </trkpt>
      <trkpt lat="46.4828900" lon="6.7578540">
        <ele>385.6</ele>
        <time>2019-02-24T13:59:18Z</time>
      </trkpt>
      <trkpt lat="46.4829290" lon="6.7578140">
        <ele>385.7</ele>
        <time>2019-02-24T13:59:19Z</time>
      </trkpt>
      <trkpt lat="46.4829680" lon="6.7577730">
        <ele>385.8</ele>
        <time>2019-02-24T13:59:20Z</time>
      </trkpt>
      <trkpt lat="46.4830060" lon="6.7577300">
        <ele>385.8</ele>
        <time>2019-02-24T13:59:21Z</time>
      </trkpt>
      <trkpt lat="46.4830430" lon="6.7576870">
        <ele>385.9</ele>
        <time>2019-02-24T13:59:22Z</time>
      </trkpt>
      <trkpt lat="46.4830810" lon="6.7576430">
        <ele>386.0</ele>
        <time>2019-02-24T13:59:23Z</time>
      </trkpt>
      <trkpt lat="46.4831180" lon="6.7575990">
        <ele>386.1</ele>
        <time>2019-02-24T13:59:24Z</time>
      </trkpt>
      <trkpt lat="46.4831540" lon="6.7575540">
        <ele>386.1</ele>
        <time>2019-02-24T13:59:25Z</time>
      </trkpt>
      <trkpt lat="46.4831910" lon="6.7575070">
        <ele>386.2</ele>
        <time>2019-02-24T13:59:26Z</time>
      </trkpt>
      <trkpt lat="46.4832270" lon="6.7574610">
        <ele>386.2</ele>
        <time>2019-02-24T13:59:27Z</time>
      </trkpt>
      <trkpt lat="46.4832630" lon="6.7574130">
        <ele>386.1</ele>
        <time>2019-02-24T13:59:28Z</time>
      </trkpt>
      <trkpt lat="46.4832990" lon="6.7573650">
        <ele>386.1</ele>
        <time>2019-02-24T13:59:29Z</time>
      </trkpt>
      <trkpt lat="46.4833340" lon="6.7573160">
        <ele>386.1</ele>
        <time>2019-02-24T13:59:30Z</time>
      </trkpt>
      <trkpt lat="46.4833700" lon="6.7572670">
        <ele>386.1</ele>
        <time>2019-02-24T13:59:31Z</time>
      </trkpt>
      <trkpt lat="46.4834050" lon="6.7572180">
        <ele>386.1</ele>
        <time>2019-02-24T13:59:32Z</time>
      </trkpt>
      <trkpt lat="46.4834400" lon="6.7571680">
        <ele>386.1</ele>
        <time>2019-02-24T13:59:33Z</time>
      </trkpt>
      <trkpt lat="46.4834740" lon="6.7571170">
        <ele>386.0</ele>
        <time>2019-02-24T13:59:34Z</time>
      </trkpt>
      <trkpt lat="46.4835090" lon="6.7570660">
        <ele>386.0</ele>
        <time>2019-02-24T13:59:35Z</time>
      </trkpt>
      <trkpt lat="46.4835430" lon="6.7570150">
        <ele>386.1</ele>
        <time>2019-02-24T13:59:36Z</time>
      </trkpt>
      <trkpt lat="46.4835760" lon="6.7569640">
        <ele>386.1</ele>
        <time>2019-02-24T13:59:37Z</time>
      </trkpt>
      <trkpt lat="46.4836100" lon="6.7569120">
        <ele>386.2</ele>
        <time>2019-02-24T13:59:38Z</time>
      </trkpt>
      <trkpt lat="46.4836430" lon="6.7568600">
        <ele>386.2</ele>
        <time>2019-02-24T13:59:39Z</time>
      </trkpt>
      <trkpt lat="46.4836760" lon="6.7568080">
        <ele>386.3</ele>
        <time>2019-02-24T13:59:40Z</time>
      </trkpt>
      <trkpt lat="46.4837080" lon="6.7567560">
        <ele>386.3</ele>
        <time>2019-02-24T13:59:41Z</time>
      </trkpt>
      <trkpt lat="46.4837410" lon="6.7567040">
        <ele>386.2</ele>
        <time>2019-02-24T13:59:42Z</time>
      </trkpt>
      <trkpt lat="46.4837730" lon="6.7566520">
        <ele>386.1</ele>
        <time>2019-02-24T13:59:43Z</time>
      </trkpt>
      <trkpt lat="46.4838040" lon="6.7565990">
        <ele>386.1</ele>
        <time>2019-02-24T13:59:44Z</time>
      </trkpt>
      <trkpt lat="46.4838360" lon="6.7565460">
        <ele>386.2</ele>
        <time>2019-02-24T13:59:45Z</time>
      </trkpt>
      <trkpt lat="46.4838660" lon="6.7564930">
        <ele>386.3</ele>
        <time>2019-02-24T13:59:46Z</time>
      </trkpt>
      <trkpt lat="46.4838970" lon="6.7564390">
        <ele>386.2</ele>
        <time>2019-02-24T13:59:47Z</time>
      </trkpt>
      <trkpt lat="46.4839270" lon="6.7563840">
        <ele>386.3</ele>
        <time>2019-02-24T13:59:48Z</time>
      </trkpt>
      <trkpt lat="46.4839560" lon="6.7563280">
        <ele>386.6</ele>
        <time>2019-02-24T13:59:49Z</time>
      </trkpt>
      <trkpt lat="46.4839860" lon="6.7562710">
        <ele>386.6</ele>
        <time>2019-02-24T13:59:50Z</time>
      </trkpt>
      <trkpt lat="46.4840140" lon="6.7562130">
        <ele>386.6</ele>
        <time>2019-02-24T13:59:51Z</time>
      </trkpt>
      <trkpt lat="46.4840420" lon="6.7561540">
        <ele>386.8</ele>
        <time>2019-02-24T13:59:52Z</time>
      </trkpt>
      <trkpt lat="46.4840700" lon="6.7560930">
        <ele>386.6</ele>
        <time>2019-02-24T13:59:53Z</time>
      </trkpt>
      <trkpt lat="46.4840970" lon="6.7560300">
        <ele>386.3</ele>
        <time>2019-02-24T13:59:54Z</time>
      </trkpt>
      <trkpt lat="46.4841240" lon="6.7559660">
        <ele>386.1</ele>
        <time>2019-02-24T13:59:55Z</time>
      </trkpt>
      <trkpt lat="46.4841500" lon="6.7559010">
        <ele>386.0</ele>
        <time>2019-02-24T13:59:56Z</time>
      </trkpt>
      <trkpt lat="46.4841750" lon="6.7558330">
        <ele>385.8</ele>
        <time>2019-02-24T13:59:57Z</time>
      </trkpt>
      <trkpt lat="46.4842000" lon="6.7557640">
        <ele>385.7</ele>
        <time>2019-02-24T13:59:58Z</time>
      </trkpt>
      <trkpt lat="46.4842250" lon="6.7556920">
        <ele>385.5</ele>
        <time>2019-02-24T13:59:59Z</time>
      </trkpt>
      <trkpt lat="46.4842490" lon="6.7556200">
        <ele>385.4</ele>
        <time>2019-02-24T14:00:00Z</time>
      </trkpt>
      <trkpt lat="46.4842740" lon="6.7555470">
        <ele>385.2</ele>
        <time>2019-02-24T14:00:01Z</time>
      </trkpt>
      <trkpt lat="46.4842980" lon="6.7554740">
        <ele>385.1</ele>
        <time>2019-02-24T14:00:02Z</time>
      </trkpt>
      <trkpt lat="46.4843240" lon="6.7554020">
        <ele>384.9</ele>
        <time>2019-02-24T14:00:03Z</time>
      </trkpt>
      <trkpt lat="46.4843500" lon="6.7553300">
        <ele>384.8</ele>
        <time>2019-02-24T14:00:04Z</time>
      </trkpt>
      <trkpt lat="46.4843780" lon="6.7552590">
        <ele>384.7</ele>
        <time>2019-02-24T14:00:05Z</time>
      </trkpt>
      <trkpt lat="46.4844070" lon="6.7551900">
        <ele>384.6</ele>
        <time>2019-02-24T14:00:06Z</time>
      </trkpt>
      <trkpt lat="46.4844370" lon="6.7551230">
        <ele>384.4</ele>
        <time>2019-02-24T14:00:07Z</time>
      </trkpt>
      <trkpt lat="46.4844690" lon="6.7550590">
        <ele>384.2</ele>
        <time>2019-02-24T14:00:08Z</time>
      </trkpt>
      <trkpt lat="46.4845020" lon="6.7549950">
        <ele>384.0</ele>
        <time>2019-02-24T14:00:09Z</time>
      </trkpt>
      <trkpt lat="46.4845360" lon="6.7549340">
        <ele>383.7</ele>
        <time>2019-02-24T14:00:10Z</time>
      </trkpt>
      <trkpt lat="46.4845720" lon="6.7548740">
        <ele>383.4</ele>
        <time>2019-02-24T14:00:11Z</time>
      </trkpt>
      <trkpt lat="46.4846080" lon="6.7548150">
        <ele>383.1</ele>
        <time>2019-02-24T14:00:12Z</time>
      </trkpt>
      <trkpt lat="46.4846460" lon="6.7547580">
        <ele>382.7</ele>
        <time>2019-02-24T14:00:13Z</time>
      </trkpt>
      <trkpt lat="46.4846840" lon="6.7547010">
        <ele>382.4</ele>
        <time>2019-02-24T14:00:14Z</time>
      </trkpt>
      <trkpt lat="46.4847230" lon="6.7546450">
        <ele>382.0</ele>
        <time>2019-02-24T14:00:15Z</time>
      </trkpt>
      <trkpt lat="46.4847630" lon="6.7545890">
        <ele>381.8</ele>
        <time>2019-02-24T14:00:16Z</time>
      </trkpt>
      <trkpt lat="46.4848040" lon="6.7545350">
        <ele>381.8</ele>
        <time>2019-02-24T14:00:17Z</time>
      </trkpt>
      <trkpt lat="46.4848450" lon="6.7544810">
        <ele>381.8</ele>
        <time>2019-02-24T14:00:18Z</time>
      </trkpt>
      <trkpt lat="46.4848870" lon="6.7544280">
        <ele>381.7</ele>
        <time>2019-02-24T14:00:19Z</time>
      </trkpt>
      <trkpt lat="46.4849290" lon="6.7543760">
        <ele>381.7</ele>
        <time>2019-02-24T14:00:20Z</time>
      </trkpt>
      <trkpt lat="46.4849720" lon="6.7543250">
        <ele>381.7</ele>
        <time>2019-02-24T14:00:21Z</time>
      </trkpt>
      <trkpt lat="46.4850150" lon="6.7542750">
        <ele>381.7</ele>
        <time>2019-02-24T14:00:22Z</time>
      </trkpt>
      <trkpt lat="46.4850590" lon="6.7542260">
        <ele>381.7</ele>
        <time>2019-02-24T14:00:23Z</time>
      </trkpt>
      <trkpt lat="46.4851040" lon="6.7541780">
        <ele>381.7</ele>
        <time>2019-02-24T14:00:24Z</time>
      </trkpt>
      <trkpt lat="46.4851480" lon="6.7541310">
        <ele>381.8</ele>
        <time>2019-02-24T14:00:25Z</time>
      </trkpt>
      <trkpt lat="46.4851930" lon="6.7540840">
        <ele>381.8</ele>
        <time>2019-02-24T14:00:26Z</time>
      </trkpt>
      <trkpt lat="46.4852380" lon="6.7540390">
        <ele>381.9</ele>
        <time>2019-02-24T14:00:27Z</time>
      </trkpt>
      <trkpt lat="46.4852820" lon="6.7539940">
        <ele>381.9</ele>
        <time>2019-02-24T14:00:28Z</time>
      </trkpt>
      <trkpt lat="46.4853270" lon="6.7539490">
        <ele>382.0</ele>
        <time>2019-02-24T14:00:29Z</time>
      </trkpt>
      <trkpt lat="46.4853700" lon="6.7539060">
        <ele>382.0</ele>
        <time>2019-02-24T14:00:30Z</time>
      </trkpt>
      <trkpt lat="46.4854140" lon="6.7538620">
        <ele>382.1</ele>
        <time>2019-02-24T14:00:31Z</time>
      </trkpt>
      <trkpt lat="46.4854560" lon="6.7538190">
        <ele>382.1</ele>
        <time>2019-02-24T14:00:32Z</time>
      </trkpt>
      <trkpt lat="46.4854980" lon="6.7537770">
        <ele>382.2</ele>
        <time>2019-02-24T14:00:33Z</time>
      </trkpt>
      <trkpt lat="46.4855400" lon="6.7537340">
        <ele>381.7</ele>
        <time>2019-02-24T14:00:34Z</time>
      </trkpt>
      <trkpt lat="46.4855810" lon="6.7536920">
        <ele>381.7</ele>
        <time>2019-02-24T14:00:35Z</time>
      </trkpt>
      <trkpt lat="46.4856210" lon="6.7536500">
        <ele>381.7</ele>
        <time>2019-02-24T14:00:36Z</time>
      </trkpt>
      <trkpt lat="46.4856610" lon="6.7536080">
        <ele>381.8</ele>
        <time>2019-02-24T14:00:37Z</time>
      </trkpt>
      <trkpt lat="46.4857010" lon="6.7535650">
        <ele>381.8</ele>
        <time>2019-02-24T14:00:38Z</time>
      </trkpt>
      <trkpt lat="46.4857390" lon="6.7535230">
        <ele>381.7</ele>
        <time>2019-02-24T14:00:39Z</time>
      </trkpt>
      <trkpt lat="46.4857780" lon="6.7534800">
        <ele>381.7</ele>
        <time>2019-02-24T14:00:40Z</time>
      </trkpt>
      <trkpt lat="46.4858150" lon="6.7534370">
        <ele>381.6</ele>
        <time>2019-02-24T14:00:41Z</time>
      </trkpt>
      <trkpt lat="46.4858520" lon="6.7533940">
        <ele>381.6</ele>
        <time>2019-02-24T14:00:42Z</time>
      </trkpt>
      <trkpt lat="46.4858890" lon="6.7533500">
        <ele>381.6</ele>
        <time>2019-02-24T14:00:43Z</time>
      </trkpt>
      <trkpt lat="46.4859250" lon="6.7533050">
        <ele>381.6</ele>
        <time>2019-02-24T14:00:44Z</time>
      </trkpt>
      <trkpt lat="46.4859610" lon="6.7532600">
        <ele>381.6</ele>
        <time>2019-02-24T14:00:45Z</time>
      </trkpt>
      <trkpt lat="46.4859960" lon="6.7532140">
        <ele>381.7</ele>
        <time>2019-02-24T14:00:46Z</time>
      </trkpt>
      <trkpt lat="46.4860310" lon="6.7531670">
        <ele>381.6</ele>
        <time>2019-02-24T14:00:47Z</time>
      </trkpt>
      <trkpt lat="46.4860650" lon="6.7531190">
        <ele>381.5</ele>
        <time>2019-02-24T14:00:48Z</time>
      </trkpt>
      <trkpt lat="46.4860980" lon="6.7530710">
        <ele>381.6</ele>
        <time>2019-02-24T14:00:49Z</time>
      </trkpt>
      <trkpt lat="46.4861310" lon="6.7530210">
        <ele>381.6</ele>
        <time>2019-02-24T14:00:50Z</time>
      </trkpt>
      <trkpt lat="46.4861640" lon="6.7529710">
        <ele>381.4</ele>
        <time>2019-02-24T14:00:51Z</time>
      </trkpt>
      <trkpt lat="46.4861950" lon="6.7529210">
        <ele>381.4</ele>
        <time>2019-02-24T14:00:52Z</time>
      </trkpt>
      <trkpt lat="46.4862270" lon="6.7528690">
        <ele>381.4</ele>
        <time>2019-02-24T14:00:53Z</time>
      </trkpt>
      <trkpt lat="46.4862570" lon="6.7528170">
        <ele>381.3</ele>
        <time>2019-02-24T14:00:54Z</time>
      </trkpt>
      <trkpt lat="46.4862870" lon="6.7527640">
        <ele>381.2</ele>
        <time>2019-02-24T14:00:55Z</time>
      </trkpt>
      <trkpt lat="46.4863170" lon="6.7527110">
        <ele>381.2</ele>
        <time>2019-02-24T14:00:56Z</time>
      </trkpt>
      <trkpt lat="46.4863450" lon="6.7526570">
        <ele>381.3</ele>
        <time>2019-02-24T14:00:57Z</time>
      </trkpt>
      <trkpt lat="46.4863730" lon="6.7526020">
        <ele>381.1</ele>
        <time>2019-02-24T14:00:58Z</time>
      </trkpt>
      <trkpt lat="46.4864010" lon="6.7525470">
        <ele>380.9</ele>
        <time>2019-02-24T14:00:59Z</time>
      </trkpt>
      <trkpt lat="46.4864280" lon="6.7524910">
        <ele>380.9</ele>
        <time>2019-02-24T14:01:00Z</time>
      </trkpt>
      <trkpt lat="46.4864540" lon="6.7524350">
        <ele>380.8</ele>
        <time>2019-02-24T14:01:01Z</time>
      </trkpt>
      <trkpt lat="46.4864790" lon="6.7523780">
        <ele>381.0</ele>
        <time>2019-02-24T14:01:02Z</time>
      </trkpt>
      <trkpt lat="46.4865030" lon="6.7523200">
        <ele>381.2</ele>
        <time>2019-02-24T14:01:03Z</time>
      </trkpt>
      <trkpt lat="46.4865270" lon="6.7522630">
        <ele>381.0</ele>
        <time>2019-02-24T14:01:04Z</time>
      </trkpt>
      <trkpt lat="46.4865510" lon="6.7522040">
        <ele>380.9</ele>
        <time>2019-02-24T14:01:05Z</time>
      </trkpt>
      <trkpt lat="46.4865740" lon="6.7521460">
        <ele>380.6</ele>
        <time>2019-02-24T14:01:06Z</time>
      </trkpt>
      <trkpt lat="46.4865960" lon="6.7520860">
        <ele>380.5</ele>
        <time>2019-02-24T14:01:07Z</time>
      </trkpt>
      <trkpt lat="46.4866190" lon="6.7520270">
        <ele>379.9</ele>
        <time>2019-02-24T14:01:08Z</time>
      </trkpt>
      <trkpt lat="46.4866410" lon="6.7519670">
        <ele>379.9</ele>
        <time>2019-02-24T14:01:09Z</time>
      </trkpt>
      <trkpt lat="46.4866630" lon="6.7519070">
        <ele>379.9</ele>
        <time>2019-02-24T14:01:10Z</time>
      </trkpt>
      <trkpt lat="46.4866850" lon="6.7518460">
        <ele>379.9</ele>
        <time>2019-02-24T14:01:11Z</time>
      </trkpt>
      <trkpt lat="46.4867080" lon="6.7517850">
        <ele>379.9</ele>
        <time>2019-02-24T14:01:12Z</time>
      </trkpt>
      <trkpt lat="46.4867300" lon="6.7517240">
        <ele>379.9</ele>
        <time>2019-02-24T14:01:13Z</time>
      </trkpt>
      <trkpt lat="46.4867530" lon="6.7516630">
        <ele>380.0</ele>
        <time>2019-02-24T14:01:14Z</time>
      </trkpt>
      <trkpt lat="46.4867760" lon="6.7516010">
        <ele>380.0</ele>
        <time>2019-02-24T14:01:15Z</time>
      </trkpt>
      <trkpt lat="46.4867980" lon="6.7515400">
        <ele>380.0</ele>
        <time>2019-02-24T14:01:16Z</time>
      </trkpt>
      <trkpt lat="46.4868210" lon="6.7514780">
        <ele>380.0</ele>
        <time>2019-02-24T14:01:17Z</time>
      </trkpt>
      <trkpt lat="46.4868440" lon="6.7514170">
        <ele>380.0</ele>
        <time>2019-02-24T14:01:18Z</time>
      </trkpt>
      <trkpt lat="46.4868670" lon="6.7513560">
        <ele>380.0</ele>
        <time>2019-02-24T14:01:19Z</time>
      </trkpt>
      <trkpt lat="46.4868890" lon="6.7512950">
        <ele>380.1</ele>
        <time>2019-02-24T14:01:20Z</time>
      </trkpt>
      <trkpt lat="46.4869120" lon="6.7512340">
        <ele>380.1</ele>
        <time>2019-02-24T14:01:21Z</time>
      </trkpt>
      <trkpt lat="46.4869350" lon="6.7511740">
        <ele>380.2</ele>
        <time>2019-02-24T14:01:22Z</time>
      </trkpt>
      <trkpt lat="46.4869570" lon="6.7511140">
        <ele>380.3</ele>
        <time>2019-02-24T14:01:23Z</time>
      </trkpt>
      <trkpt lat="46.4869800" lon="6.7510530">
        <ele>380.4</ele>
        <time>2019-02-24T14:01:24Z</time>
      </trkpt>
      <trkpt lat="46.4870020" lon="6.7509930">
        <ele>380.6</ele>
        <time>2019-02-24T14:01:25Z</time>
      </trkpt>
      <trkpt lat="46.4870250" lon="6.7509330">
        <ele>380.7</ele>
        <time>2019-02-24T14:01:26Z</time>
      </trkpt>
      <trkpt lat="46.4870470" lon="6.7508720">
        <ele>380.8</ele>
        <time>2019-02-24T14:01:27Z</time>
      </trkpt>
      <trkpt lat="46.4870690" lon="6.7508120">
        <ele>381.0</ele>
        <time>2019-02-24T14:01:28Z</time>
      </trkpt>
      <trkpt lat="46.4870910" lon="6.7507510">
        <ele>381.1</ele>
        <time>2019-02-24T14:01:29Z</time>
      </trkpt>
      <trkpt lat="46.4871130" lon="6.7506900">
        <ele>381.2</ele>
        <time>2019-02-24T14:01:30Z</time>
      </trkpt>
      <trkpt lat="46.4871350" lon="6.7506290">
        <ele>381.3</ele>
        <time>2019-02-24T14:01:31Z</time>
      </trkpt>
      <trkpt lat="46.4871570" lon="6.7505680">
        <ele>381.4</ele>
        <time>2019-02-24T14:01:32Z</time>
      </trkpt>
      <trkpt lat="46.4871790" lon="6.7505060">
        <ele>381.5</ele>
        <time>2019-02-24T14:01:33Z</time>
      </trkpt>
      <trkpt lat="46.4872000" lon="6.7504430">
        <ele>381.6</ele>
        <time>2019-02-24T14:01:34Z</time>
      </trkpt>
      <trkpt lat="46.4872220" lon="6.7503810">
        <ele>381.6</ele>
        <time>2019-02-24T14:01:35Z</time>
      </trkpt>
      <trkpt lat="46.4872430" lon="6.7503170">
        <ele>381.7</ele>
        <time>2019-02-24T14:01:36Z</time>
      </trkpt>
      <trkpt lat="46.4872640" lon="6.7502530">
        <ele>381.7</ele>
        <time>2019-02-24T14:01:37Z</time>
      </trkpt>
      <trkpt lat="46.4872860" lon="6.7501890">
        <ele>381.7</ele>
        <time>2019-02-24T14:01:38Z</time>
      </trkpt>
      <trkpt lat="46.4873090" lon="6.7501240">
        <ele>381.7</ele>
        <time>2019-02-24T14:01:39Z</time>
      </trkpt>
      <trkpt lat="46.4873320" lon="6.7500590">
        <ele>381.7</ele>
        <time>2019-02-24T14:01:40Z</time>
      </trkpt>
      <trkpt lat="46.4873560" lon="6.7499940">
        <ele>381.7</ele>
        <time>2019-02-24T14:01:41Z</time>
      </trkpt>
      <trkpt lat="46.4873820" lon="6.7499300">
        <ele>381.6</ele>
        <time>2019-02-24T14:01:42Z</time>
      </trkpt>
      <trkpt lat="46.4874080" lon="6.7498680">
        <ele>381.6</ele>
        <time>2019-02-24T14:01:43Z</time>
      </trkpt>
      <trkpt lat="46.4874360" lon="6.7498090">
        <ele>381.6</ele>
        <time>2019-02-24T14:01:44Z</time>
      </trkpt>
      <trkpt lat="46.4874640" lon="6.7497530">
        <ele>381.6</ele>
        <time>2019-02-24T14:01:45Z</time>
      </trkpt>
      <trkpt lat="46.4874940" lon="6.7497000">
        <ele>381.6</ele>
        <time>2019-02-24T14:01:46Z</time>
      </trkpt>
      <trkpt lat="46.4875250" lon="6.7496490">
        <ele>381.6</ele>
        <time>2019-02-24T14:01:47Z</time>
      </trkpt>
      <trkpt lat="46.4875560" lon="6.7496010">
        <ele>381.6</ele>
        <time>2019-02-24T14:01:48Z</time>
      </trkpt>
      <trkpt lat="46.4875880" lon="6.7495540">
        <ele>381.7</ele>
        <time>2019-02-24T14:01:49Z</time>
      </trkpt>
      <trkpt lat="46.4876210" lon="6.7495100">
        <ele>381.8</ele>
        <time>2019-02-24T14:01:50Z</time>
      </trkpt>
      <trkpt lat="46.4876550" lon="6.7494670">
        <ele>382.0</ele>
        <time>2019-02-24T14:01:51Z</time>
      </trkpt>
      <trkpt lat="46.4876880" lon="6.7494250">
        <ele>382.1</ele>
        <time>2019-02-24T14:01:52Z</time>
      </trkpt>
      <trkpt lat="46.4877220" lon="6.7493850">
        <ele>382.3</ele>
        <time>2019-02-24T14:01:53Z</time>
      </trkpt>
      <trkpt lat="46.4877570" lon="6.7493450">
        <ele>382.5</ele>
        <time>2019-02-24T14:01:54Z</time>
      </trkpt>
      <trkpt lat="46.4877910" lon="6.7493060">
        <ele>382.7</ele>
        <time>2019-02-24T14:01:55Z</time>
      </trkpt>
      <trkpt lat="46.4878250" lon="6.7492660">
        <ele>382.8</ele>
        <time>2019-02-24T14:01:56Z</time>
      </trkpt>
      <trkpt lat="46.4878580" lon="6.7492270">
        <ele>383.0</ele>
        <time>2019-02-24T14:01:57Z</time>
      </trkpt>
      <trkpt lat="46.4878910" lon="6.7491860">
        <ele>383.2</ele>
        <time>2019-02-24T14:01:58Z</time>
      </trkpt>
      <trkpt lat="46.4879240" lon="6.7491450">
        <ele>383.3</ele>
        <time>2019-02-24T14:01:59Z</time>
      </trkpt>
      <trkpt lat="46.4879550" lon="6.7491020">
        <ele>383.4</ele>
        <time>2019-02-24T14:02:00Z</time>
      </trkpt>
      <trkpt lat="46.4879860" lon="6.7490570">
        <ele>383.5</ele>
        <time>2019-02-24T14:02:01Z</time>
      </trkpt>
      <trkpt lat="46.4880150" lon="6.7490110">
        <ele>383.7</ele>
        <time>2019-02-24T14:02:02Z</time>
      </trkpt>
      <trkpt lat="46.4880440" lon="6.7489640">
        <ele>383.8</ele>
        <time>2019-02-24T14:02:03Z</time>
      </trkpt>
      <trkpt lat="46.4880720" lon="6.7489150">
        <ele>383.9</ele>
        <time>2019-02-24T14:02:04Z</time>
      </trkpt>
      <trkpt lat="46.4880990" lon="6.7488640">
        <ele>384.0</ele>
        <time>2019-02-24T14:02:05Z</time>
      </trkpt>
      <trkpt lat="46.4881250" lon="6.7488120">
        <ele>384.1</ele>
        <time>2019-02-24T14:02:06Z</time>
      </trkpt>
      <trkpt lat="46.4881500" lon="6.7487570">
        <ele>384.2</ele>
        <time>2019-02-24T14:02:07Z</time>
      </trkpt>
      <trkpt lat="46.4881750" lon="6.7487020">
        <ele>384.4</ele>
        <time>2019-02-24T14:02:08Z</time>
      </trkpt>
      <trkpt lat="46.4881980" lon="6.7486450">
        <ele>384.5</ele>
        <time>2019-02-24T14:02:09Z</time>
      </trkpt>
      <trkpt lat="46.4882210" lon="6.7485860">
        <ele>384.7</ele>
        <time>2019-02-24T14:02:10Z</time>
      </trkpt>
      <trkpt lat="46.4882440" lon="6.7485270">
        <ele>384.9</ele>
        <time>2019-02-24T14:02:11Z</time>
      </trkpt>
      <trkpt lat="46.4882660" lon="6.7484660">
        <ele>385.0</ele>
        <time>2019-02-24T14:02:12Z</time>
      </trkpt>
      <trkpt lat="46.4882870" lon="6.7484050">
        <ele>385.2</ele>
        <time>2019-02-24T14:02:13Z</time>
      </trkpt>
      <trkpt lat="46.4883090" lon="6.7483430">
        <ele>385.3</ele>
        <time>2019-02-24T14:02:14Z</time>
      </trkpt>
      <trkpt lat="46.4883300" lon="6.7482810">
        <ele>385.4</ele>
        <time>2019-02-24T14:02:15Z</time>
      </trkpt>
      <trkpt lat="46.4883510" lon="6.7482180">
        <ele>385.5</ele>
        <time>2019-02-24T14:02:16Z</time>
      </trkpt>
      <trkpt lat="46.4883730" lon="6.7481560">
        <ele>385.6</ele>
        <time>2019-02-24T14:02:17Z</time>
      </trkpt>
      <trkpt lat="46.4883950" lon="6.7480940">
        <ele>385.6</ele>
        <time>2019-02-24T14:02:18Z</time>
      </trkpt>
      <trkpt lat="46.4884160" lon="6.7480310">
        <ele>385.7</ele>
        <time>2019-02-24T14:02:19Z</time>
      </trkpt>
      <trkpt lat="46.4884380" lon="6.7479690">
        <ele>385.7</ele>
        <time>2019-02-24T14:02:20Z</time>
      </trkpt>
      <trkpt lat="46.4884600" lon="6.7479050">
        <ele>385.7</ele>
        <time>2019-02-24T14:02:21Z</time>
      </trkpt>
      <trkpt lat="46.4884820" lon="6.7478420">
        <ele>385.6</ele>
        <time>2019-02-24T14:02:22Z</time>
      </trkpt>
      <trkpt lat="46.4885050" lon="6.7477780">
        <ele>385.6</ele>
        <time>2019-02-24T14:02:23Z</time>
      </trkpt>
      <trkpt lat="46.4885270" lon="6.7477130">
        <ele>385.5</ele>
        <time>2019-02-24T14:02:24Z</time>
      </trkpt>
      <trkpt lat="46.4885490" lon="6.7476480">
        <ele>385.3</ele>
        <time>2019-02-24T14:02:25Z</time>
      </trkpt>
      <trkpt lat="46.4885720" lon="6.7475820">
        <ele>385.2</ele>
        <time>2019-02-24T14:02:26Z</time>
      </trkpt>
      <trkpt lat="46.4885950" lon="6.7475150">
        <ele>385.0</ele>
        <time>2019-02-24T14:02:27Z</time>
      </trkpt>
      <trkpt lat="46.4886180" lon="6.7474470">
        <ele>384.8</ele>
        <time>2019-02-24T14:02:28Z</time>
      </trkpt>
      <trkpt lat="46.4886410" lon="6.7473790">
        <ele>384.6</ele>
        <time>2019-02-24T14:02:29Z</time>
      </trkpt>
      <trkpt lat="46.4886640" lon="6.7473100">
        <ele>384.3</ele>
        <time>2019-02-24T14:02:30Z</time>
      </trkpt>
      <trkpt lat="46.4886880" lon="6.7472400">
        <ele>384.0</ele>
        <time>2019-02-24T14:02:31Z</time>
      </trkpt>
      <trkpt lat="46.4887120" lon="6.7471690">
        <ele>383.8</ele>
        <time>2019-02-24T14:02:32Z</time>
      </trkpt>
      <trkpt lat="46.4887370" lon="6.7470980">
        <ele>383.5</ele>
        <time>2019-02-24T14:02:33Z</time>
      </trkpt>
      <trkpt lat="46.4887630" lon="6.7470260">
        <ele>383.3</ele>
        <time>2019-02-24T14:02:34Z</time>
      </trkpt>
      <trkpt lat="46.4887900" lon="6.7469540">
        <ele>383.0</ele>
        <time>2019-02-24T14:02:35Z</time>
      </trkpt>
      <trkpt lat="46.4888190" lon="6.7468830">
        <ele>382.8</ele>
        <time>2019-02-24T14:02:36Z</time>
      </trkpt>
      <trkpt lat="46.4888510" lon="6.7468120">
        <ele>382.7</ele>
        <time>2019-02-24T14:02:37Z</time>
      </trkpt>
      <trkpt lat="46.4888840" lon="6.7467420">
        <ele>382.6</ele>
        <time>2019-02-24T14:02:38Z</time>
      </trkpt>
      <trkpt lat="46.4889190" lon="6.7466730">
        <ele>382.5</ele>
        <time>2019-02-24T14:02:39Z</time>
      </trkpt>
      <trkpt lat="46.4889540" lon="6.7466040">
        <ele>382.5</ele>
        <time>2019-02-24T14:02:40Z</time>
      </trkpt>
      <trkpt lat="46.4889900" lon="6.7465350">
        <ele>382.8</ele>
        <time>2019-02-24T14:02:41Z</time>
      </trkpt>
      <trkpt lat="46.4890250" lon="6.7464660">
        <ele>383.0</ele>
        <time>2019-02-24T14:02:42Z</time>
      </trkpt>
      <trkpt lat="46.4890600" lon="6.7463980">
        <ele>383.3</ele>
        <time>2019-02-24T14:02:43Z</time>
      </trkpt>
      <trkpt lat="46.4890950" lon="6.7463290">
        <ele>383.6</ele>
        <time>2019-02-24T14:02:44Z</time>
      </trkpt>
      <trkpt lat="46.4891290" lon="6.7462610">
        <ele>384.0</ele>
        <time>2019-02-24T14:02:45Z</time>
      </trkpt>
      <trkpt lat="46.4891640" lon="6.7461940">
        <ele>384.4</ele>
        <time>2019-02-24T14:02:46Z</time>
      </trkpt>
      <trkpt lat="46.4891990" lon="6.7461260">
        <ele>384.9</ele>
        <time>2019-02-24T14:02:47Z</time>
      </trkpt>
      <trkpt lat="46.4892340" lon="6.7460590">
        <ele>385.4</ele>
        <time>2019-02-24T14:02:48Z</time>
      </trkpt>
      <trkpt lat="46.4892690" lon="6.7459930">
        <ele>386.0</ele>
        <time>2019-02-24T14:02:49Z</time>
      </trkpt>
      <trkpt lat="46.4893030" lon="6.7459260">
        <ele>386.5</ele>
        <time>2019-02-24T14:02:50Z</time>
      </trkpt>
      <trkpt lat="46.4893380" lon="6.7458600">
        <ele>386.9</ele>
        <time>2019-02-24T14:02:51Z</time>
      </trkpt>
      <trkpt lat="46.4893720" lon="6.7457940">
        <ele>387.3</ele>
        <time>2019-02-24T14:02:52Z</time>
      </trkpt>
      <trkpt lat="46.4894060" lon="6.7457270">
        <ele>387.7</ele>
        <time>2019-02-24T14:02:53Z</time>
      </trkpt>
      <trkpt lat="46.4894390" lon="6.7456590">
        <ele>388.0</ele>
        <time>2019-02-24T14:02:54Z</time>
      </trkpt>
      <trkpt lat="46.4894720" lon="6.7455910">
        <ele>388.3</ele>
        <time>2019-02-24T14:02:55Z</time>
      </trkpt>
      <trkpt lat="46.4895030" lon="6.7455220">
        <ele>388.7</ele>
        <time>2019-02-24T14:02:56Z</time>
      </trkpt>
      <trkpt lat="46.4895340" lon="6.7454510">
        <ele>389.2</ele>
        <time>2019-02-24T14:02:57Z</time>
      </trkpt>
      <trkpt lat="46.4895630" lon="6.7453790">
        <ele>389.6</ele>
        <time>2019-02-24T14:02:58Z</time>
      </trkpt>
      <trkpt lat="46.4895910" lon="6.7453060">
        <ele>390.0</ele>
        <time>2019-02-24T14:02:59Z</time>
      </trkpt>
      <trkpt lat="46.4896190" lon="6.7452320">
        <ele>390.3</ele>
        <time>2019-02-24T14:03:00Z</time>
      </trkpt>
      <trkpt lat="46.4896450" lon="6.7451570">
        <ele>390.2</ele>
        <time>2019-02-24T14:03:01Z</time>
      </trkpt>
      <trkpt lat="46.4896700" lon="6.7450810">
        <ele>390.1</ele>
        <time>2019-02-24T14:03:02Z</time>
      </trkpt>
      <trkpt lat="46.4896940" lon="6.7450030">
        <ele>390.0</ele>
        <time>2019-02-24T14:03:03Z</time>
      </trkpt>
      <trkpt lat="46.4897160" lon="6.7449250">
        <ele>389.9</ele>
        <time>2019-02-24T14:03:04Z</time>
      </trkpt>
      <trkpt lat="46.4897380" lon="6.7448450">
        <ele>389.8</ele>
        <time>2019-02-24T14:03:05Z</time>
      </trkpt>
      <trkpt lat="46.4897580" lon="6.7447650">
        <ele>389.6</ele>
        <time>2019-02-24T14:03:06Z</time>
      </trkpt>
      <trkpt lat="46.4897770" lon="6.7446840">
        <ele>389.5</ele>
        <time>2019-02-24T14:03:07Z</time>
      </trkpt>
      <trkpt lat="46.4897940" lon="6.7446010">
        <ele>389.4</ele>
        <time>2019-02-24T14:03:08Z</time>
      </trkpt>
      <trkpt lat="46.4898110" lon="6.7445180">
        <ele>389.3</ele>
        <time>2019-02-24T14:03:09Z</time>
      </trkpt>
      <trkpt lat="46.4898260" lon="6.7444340">
        <ele>389.1</ele>
        <time>2019-02-24T14:03:10Z</time>
      </trkpt>
      <trkpt lat="46.4898390" lon="6.7443500">
        <ele>389.0</ele>
        <time>2019-02-24T14:03:11Z</time>
      </trkpt>
      <trkpt lat="46.4898510" lon="6.7442640">
        <ele>388.8</ele>
        <time>2019-02-24T14:03:12Z</time>
      </trkpt>
      <trkpt lat="46.4898620" lon="6.7441780">
        <ele>388.7</ele>
        <time>2019-02-24T14:03:13Z</time>
      </trkpt>
      <trkpt lat="46.4898720" lon="6.7440910">
        <ele>388.5</ele>
        <time>2019-02-24T14:03:14Z</time>
      </trkpt>
      <trkpt lat="46.4898800" lon="6.7440040">
        <ele>388.4</ele>
        <time>2019-02-24T14:03:15Z</time>
      </trkpt>
      <trkpt lat="46.4898880" lon="6.7439160">
        <ele>388.2</ele>
        <time>2019-02-24T14:03:16Z</time>
      </trkpt>
      <trkpt lat="46.4898940" lon="6.7438270">
        <ele>388.1</ele>
        <time>2019-02-24T14:03:17Z</time>
      </trkpt>
      <trkpt lat="46.4898990" lon="6.7437390">
        <ele>387.9</ele>
        <time>2019-02-24T14:03:18Z</time>
      </trkpt>
      <trkpt lat="46.4899030" lon="6.7436500">
        <ele>387.8</ele>
        <time>2019-02-24T14:03:19Z</time>
      </trkpt>
      <trkpt lat="46.4899060" lon="6.7435610">
        <ele>387.7</ele>
        <time>2019-02-24T14:03:20Z</time>
      </trkpt>
      <trkpt lat="46.4899090" lon="6.7434720">
        <ele>387.5</ele>
        <time>2019-02-24T14:03:21Z</time>
      </trkpt>
      <trkpt lat="46.4899110" lon="6.7433820">
        <ele>387.4</ele>
        <time>2019-02-24T14:03:22Z</time>
      </trkpt>
      <trkpt lat="46.4899120" lon="6.7432930">
        <ele>387.3</ele>
        <time>2019-02-24T14:03:23Z</time>
      </trkpt>
      <trkpt lat="46.4899120" lon="6.7432040">
        <ele>387.2</ele>
        <time>2019-02-24T14:03:24Z</time>
      </trkpt>
      <trkpt lat="46.4899130" lon="6.7431150">
        <ele>387.1</ele>
        <time>2019-02-24T14:03:25Z</time>
      </trkpt>
      <trkpt lat="46.4899120" lon="6.7430270">
        <ele>386.9</ele>
        <time>2019-02-24T14:03:26Z</time>
      </trkpt>
      <trkpt lat="46.4899120" lon="6.7429390">
        <ele>386.8</ele>
        <time>2019-02-24T14:03:27Z</time>
      </trkpt>
      <trkpt lat="46.4899110" lon="6.7428510">
        <ele>386.8</ele>
        <time>2019-02-24T14:03:28Z</time>
      </trkpt>
      <trkpt lat="46.4899100" lon="6.7427640">
        <ele>386.7</ele>
        <time>2019-02-24T14:03:29Z</time>
      </trkpt>
      <trkpt lat="46.4899090" lon="6.7426770">
        <ele>386.6</ele>
        <time>2019-02-24T14:03:30Z</time>
      </trkpt>
      <trkpt lat="46.4899070" lon="6.7425920">
        <ele>386.5</ele>
        <time>2019-02-24T14:03:31Z</time>
      </trkpt>
      <trkpt lat="46.4899060" lon="6.7425070">
        <ele>386.5</ele>
        <time>2019-02-24T14:03:32Z</time>
      </trkpt>
      <trkpt lat="46.4899040" lon="6.7424230">
        <ele>386.5</ele>
        <time>2019-02-24T14:03:33Z</time>
      </trkpt>
      <trkpt lat="46.4899030" lon="6.7423400">
        <ele>386.5</ele>
        <time>2019-02-24T14:03:34Z</time>
      </trkpt>
      <trkpt lat="46.4899010" lon="6.7422580">
        <ele>386.4</ele>
        <time>2019-02-24T14:03:35Z</time>
      </trkpt>
      <trkpt lat="46.4898990" lon="6.7421770">
        <ele>386.3</ele>
        <time>2019-02-24T14:03:36Z</time>
      </trkpt>
      <trkpt lat="46.4898970" lon="6.7420980">
        <ele>386.2</ele>
        <time>2019-02-24T14:03:37Z</time>
      </trkpt>
      <trkpt lat="46.4898960" lon="6.7420200">
        <ele>386.1</ele>
        <time>2019-02-24T14:03:38Z</time>
      </trkpt>
      <trkpt lat="46.4898940" lon="6.7419430">
        <ele>386.0</ele>
        <time>2019-02-24T14:03:39Z</time>
      </trkpt>
      <trkpt lat="46.4898920" lon="6.7418670">
        <ele>386.0</ele>
        <time>2019-02-24T14:03:40Z</time>
      </trkpt>
      <trkpt lat="46.4898910" lon="6.7417910">
        <ele>385.9</ele>
        <time>2019-02-24T14:03:41Z</time>
      </trkpt>
      <trkpt lat="46.4898890" lon="6.7417160">
        <ele>385.9</ele>
        <time>2019-02-24T14:03:42Z</time>
      </trkpt>
      <trkpt lat="46.4898880" lon="6.7416410">
        <ele>385.9</ele>
        <time>2019-02-24T14:03:43Z</time>
      </trkpt>
      <trkpt lat="46.4898860" lon="6.7415670">
        <ele>385.9</ele>
        <time>2019-02-24T14:03:44Z</time>
      </trkpt>
      <trkpt lat="46.4898850" lon="6.7414920">
        <ele>385.8</ele>
        <time>2019-02-24T14:03:45Z</time>
      </trkpt>
      <trkpt lat="46.4898830" lon="6.7414170">
        <ele>385.8</ele>
        <time>2019-02-24T14:03:46Z</time>
      </trkpt>
      <trkpt lat="46.4898820" lon="6.7413430">
        <ele>385.7</ele>
        <time>2019-02-24T14:03:47Z</time>
      </trkpt>
      <trkpt lat="46.4898810" lon="6.7412680">
        <ele>385.7</ele>
        <time>2019-02-24T14:03:48Z</time>
      </trkpt>
      <trkpt lat="46.4898800" lon="6.7411940">
        <ele>385.6</ele>
        <time>2019-02-24T14:03:49Z</time>
      </trkpt>
      <trkpt lat="46.4898790" lon="6.7411200">
        <ele>385.6</ele>
        <time>2019-02-24T14:03:50Z</time>
      </trkpt>
      <trkpt lat="46.4898790" lon="6.7410450">
        <ele>385.5</ele>
        <time>2019-02-24T14:03:51Z</time>
      </trkpt>
      <trkpt lat="46.4898780" lon="6.7409720">
        <ele>385.4</ele>
        <time>2019-02-24T14:03:52Z</time>
      </trkpt>
      <trkpt lat="46.4898790" lon="6.7408980">
        <ele>385.4</ele>
        <time>2019-02-24T14:03:53Z</time>
      </trkpt>
      <trkpt lat="46.4898790" lon="6.7408240">
        <ele>385.3</ele>
        <time>2019-02-24T14:03:54Z</time>
      </trkpt>
      <trkpt lat="46.4898800" lon="6.7407510">
        <ele>385.2</ele>
        <time>2019-02-24T14:03:55Z</time>
      </trkpt>
      <trkpt lat="46.4898810" lon="6.7406780">
        <ele>385.1</ele>
        <time>2019-02-24T14:03:56Z</time>
      </trkpt>
      <trkpt lat="46.4898830" lon="6.7406060">
        <ele>385.0</ele>
        <time>2019-02-24T14:03:57Z</time>
      </trkpt>
      <trkpt lat="46.4898850" lon="6.7405340">
        <ele>384.9</ele>
        <time>2019-02-24T14:03:58Z</time>
      </trkpt>
      <trkpt lat="46.4898880" lon="6.7404620">
        <ele>384.8</ele>
        <time>2019-02-24T14:03:59Z</time>
      </trkpt>
      <trkpt lat="46.4898910" lon="6.7403910">
        <ele>384.7</ele>
        <time>2019-02-24T14:04:00Z</time>
      </trkpt>
      <trkpt lat="46.4898950" lon="6.7403200">
        <ele>384.6</ele>
        <time>2019-02-24T14:04:01Z</time>
      </trkpt>
      <trkpt lat="46.4898990" lon="6.7402500">
        <ele>384.5</ele>
        <time>2019-02-24T14:04:02Z</time>
      </trkpt>
      <trkpt lat="46.4899050" lon="6.7401790">
        <ele>384.3</ele>
        <time>2019-02-24T14:04:03Z</time>
      </trkpt>
      <trkpt lat="46.4899110" lon="6.7401090">
        <ele>384.1</ele>
        <time>2019-02-24T14:04:04Z</time>
      </trkpt>
      <trkpt lat="46.4899180" lon="6.7400380">
        <ele>384.0</ele>
        <time>2019-02-24T14:04:05Z</time>
      </trkpt>
      <trkpt lat="46.4899260" lon="6.7399660">
        <ele>383.8</ele>
        <time>2019-02-24T14:04:06Z</time>
      </trkpt>
      <trkpt lat="46.4899350" lon="6.7398930">
        <ele>383.6</ele>
        <time>2019-02-24T14:04:07Z</time>
      </trkpt>
      <trkpt lat="46.4899460" lon="6.7398200">
        <ele>383.4</ele>
        <time>2019-02-24T14:04:08Z</time>
      </trkpt>
      <trkpt lat="46.4899570" lon="6.7397450">
        <ele>383.2</ele>
        <time>2019-02-24T14:04:09Z</time>
      </trkpt>
      <trkpt lat="46.4899700" lon="6.7396690">
        <ele>383.0</ele>
        <time>2019-02-24T14:04:10Z</time>
      </trkpt>
      <trkpt lat="46.4899840" lon="6.7395920">
        <ele>382.8</ele>
        <time>2019-02-24T14:04:11Z</time>
      </trkpt>
      <trkpt lat="46.4900000" lon="6.7395150">
        <ele>382.6</ele>
        <time>2019-02-24T14:04:12Z</time>
      </trkpt>
      <trkpt lat="46.4900160" lon="6.7394370">
        <ele>382.4</ele>
        <time>2019-02-24T14:04:13Z</time>
      </trkpt>
      <trkpt lat="46.4900340" lon="6.7393600">
        <ele>382.3</ele>
        <time>2019-02-24T14:04:14Z</time>
      </trkpt>
      <trkpt lat="46.4900530" lon="6.7392830">
        <ele>382.1</ele>
        <time>2019-02-24T14:04:15Z</time>
      </trkpt>
      <trkpt lat="46.4900740" lon="6.7392070">
        <ele>382.0</ele>
        <time>2019-02-24T14:04:16Z</time>
      </trkpt>
      <trkpt lat="46.4900950" lon="6.7391310">
        <ele>381.9</ele>
        <time>2019-02-24T14:04:17Z</time>
      </trkpt>
      <trkpt lat="46.4901180" lon="6.7390570">
        <ele>381.8</ele>
        <time>2019-02-24T14:04:18Z</time>
      </trkpt>
      <trkpt lat="46.4901420" lon="6.7389830">
        <ele>381.7</ele>
        <time>2019-02-24T14:04:19Z</time>
      </trkpt>
      <trkpt lat="46.4901660" lon="6.7389100">
        <ele>381.7</ele>
        <time>2019-02-24T14:04:20Z</time>
      </trkpt>
      <trkpt lat="46.4901920" lon="6.7388380">
        <ele>381.6</ele>
        <time>2019-02-24T14:04:21Z</time>
      </trkpt>
      <trkpt lat="46.4902180" lon="6.7387670">
        <ele>381.6</ele>
        <time>2019-02-24T14:04:22Z</time>
      </trkpt>
      <trkpt lat="46.4902450" lon="6.7386960">
        <ele>381.6</ele>
        <time>2019-02-24T14:04:23Z</time>
      </trkpt>
      <trkpt lat="46.4902720" lon="6.7386260">
        <ele>381.6</ele>
        <time>2019-02-24T14:04:24Z</time>
      </trkpt>
      <trkpt lat="46.4903000" lon="6.7385570">
        <ele>381.6</ele>
        <time>2019-02-24T14:04:25Z</time>
      </trkpt>
      <trkpt lat="46.4903290" lon="6.7384880">
        <ele>381.6</ele>
        <time>2019-02-24T14:04:26Z</time>
      </trkpt>
      <trkpt lat="46.4903570" lon="6.7384200">
        <ele>381.5</ele>
        <time>2019-02-24T14:04:27Z</time>
      </trkpt>
      <trkpt lat="46.4903860" lon="6.7383530">
        <ele>381.5</ele>
        <time>2019-02-24T14:04:28Z</time>
      </trkpt>
      <trkpt lat="46.4904150" lon="6.7382860">
        <ele>381.5</ele>
        <time>2019-02-24T14:04:29Z</time>
      </trkpt>
      <trkpt lat="46.4904440" lon="6.7382200">
        <ele>381.6</ele>
        <time>2019-02-24T14:04:30Z</time>
      </trkpt>
      <trkpt lat="46.4904720" lon="6.7381540">
        <ele>381.7</ele>
        <time>2019-02-24T14:04:31Z</time>
      </trkpt>
      <trkpt lat="46.4905010" lon="6.7380900">
        <ele>381.8</ele>
        <time>2019-02-24T14:04:32Z</time>
      </trkpt>
      <trkpt lat="46.4905290" lon="6.7380260">
        <ele>381.9</ele>
        <time>2019-02-24T14:04:33Z</time>
      </trkpt>
      <trkpt lat="46.4905570" lon="6.7379630">
        <ele>382.0</ele>
        <time>2019-02-24T14:04:34Z</time>
      </trkpt>
      <trkpt lat="46.4905840" lon="6.7379010">
        <ele>382.1</ele>
        <time>2019-02-24T14:04:35Z</time>
      </trkpt>
      <trkpt lat="46.4906110" lon="6.7378390">
        <ele>382.3</ele>
        <time>2019-02-24T14:04:36Z</time>
      </trkpt>
      <trkpt lat="46.4906370" lon="6.7377780">
        <ele>382.4</ele>
        <time>2019-02-24T14:04:37Z</time>
      </trkpt>
      <trkpt lat="46.4906630" lon="6.7377170">
        <ele>382.6</ele>
        <time>2019-02-24T14:04:38Z</time>
      </trkpt>
      <trkpt lat="46.4906880" lon="6.7376550">
        <ele>382.7</ele>
        <time>2019-02-24T14:04:39Z</time>
      </trkpt>
      <trkpt lat="46.4907130" lon="6.7375940">
        <ele>382.9</ele>
        <time>2019-02-24T14:04:40Z</time>
      </trkpt>
      <trkpt lat="46.4907360" lon="6.7375320">
        <ele>383.1</ele>
        <time>2019-02-24T14:04:41Z</time>
      </trkpt>
      <trkpt lat="46.4907590" lon="6.7374700">
        <ele>383.3</ele>
        <time>2019-02-24T14:04:42Z</time>
      </trkpt>
      <trkpt lat="46.4907810" lon="6.7374070">
        <ele>383.4</ele>
        <time>2019-02-24T14:04:43Z</time>
      </trkpt>
      <trkpt lat="46.4908030" lon="6.7373430">
        <ele>383.6</ele>
        <time>2019-02-24T14:04:44Z</time>
      </trkpt>
      <trkpt lat="46.4908230" lon="6.7372800">
        <ele>383.8</ele>
        <time>2019-02-24T14:04:45Z</time>
      </trkpt>
      <trkpt lat="46.4908430" lon="6.7372160">
        <ele>384.0</ele>
        <time>2019-02-24T14:04:46Z</time>
      </trkpt>
      <trkpt lat="46.4908620" lon="6.7371520">
        <ele>384.2</ele>
        <time>2019-02-24T14:04:47Z</time>
      </trkpt>
      <trkpt lat="46.4908810" lon="6.7370890">
        <ele>384.3</ele>
        <time>2019-02-24T14:04:48Z</time>
      </trkpt>
      <trkpt lat="46.4908980" lon="6.7370250">
        <ele>384.5</ele>
        <time>2019-02-24T14:04:49Z</time>
      </trkpt>
      <trkpt lat="46.4909150" lon="6.7369620">
        <ele>384.7</ele>
        <time>2019-02-24T14:04:50Z</time>
      </trkpt>
      <trkpt lat="46.4909310" lon="6.7368990">
        <ele>384.9</ele>
        <time>2019-02-24T14:04:51Z</time>
      </trkpt>
      <trkpt lat="46.4909460" lon="6.7368360">
        <ele>385.1</ele>
        <time>2019-02-24T14:04:52Z</time>
      </trkpt>
      <trkpt lat="46.4909600" lon="6.7367740">
        <ele>385.2</ele>
        <time>2019-02-24T14:04:53Z</time>
      </trkpt>
      <trkpt lat="46.4909730" lon="6.7367120">
        <ele>385.4</ele>
        <time>2019-02-24T14:04:54Z</time>
      </trkpt>
      <trkpt lat="46.4909860" lon="6.7366510">
        <ele>385.5</ele>
        <time>2019-02-24T14:04:55Z</time>
      </trkpt>
      <trkpt lat="46.4909980" lon="6.7365890">
        <ele>385.7</ele>
        <time>2019-02-24T14:04:56Z</time>
      </trkpt>
      <trkpt lat="46.4910090" lon="6.7365290">
        <ele>385.8</ele>
        <time>2019-02-24T14:04:57Z</time>
      </trkpt>
      <trkpt lat="46.4910190" lon="6.7364680">
        <ele>386.0</ele>
        <time>2019-02-24T14:04:58Z</time>
      </trkpt>
      <trkpt lat="46.4910280" lon="6.7364080">
        <ele>386.1</ele>
        <time>2019-02-24T14:04:59Z</time>
      </trkpt>
      <trkpt lat="46.4910370" lon="6.7363490">
        <ele>386.2</ele>
        <time>2019-02-24T14:05:00Z</time>
      </trkpt>
      <trkpt lat="46.4910450" lon="6.7362900">
        <ele>386.4</ele>
        <time>2019-02-24T14:05:01Z</time>
      </trkpt>
      <trkpt lat="46.4910520" lon="6.7362310">
        <ele>386.5</ele>
        <time>2019-02-24T14:05:02Z</time>
      </trkpt>
      <trkpt lat="46.4910590" lon="6.7361730">
        <ele>386.6</ele>
        <time>2019-02-24T14:05:03Z</time>
      </trkpt>
      <trkpt lat="46.4910650" lon="6.7361150">
        <ele>386.7</ele>
        <time>2019-02-24T14:05:04Z</time>
      </trkpt>
      <trkpt lat="46.4910700" lon="6.7360580">
        <ele>386.8</ele>
        <time>2019-02-24T14:05:05Z</time>
      </trkpt>
      <trkpt lat="46.4910740" lon="6.7360010">
        <ele>386.9</ele>
        <time>2019-02-24T14:05:06Z</time>
      </trkpt>
      <trkpt lat="46.4910780" lon="6.7359450">
        <ele>387.0</ele>
        <time>2019-02-24T14:05:07Z</time>
      </trkpt>
      <trkpt lat="46.4910810" lon="6.7358890">
        <ele>387.1</ele>
        <time>2019-02-24T14:05:08Z</time>
      </trkpt>
      <trkpt lat="46.4910830" lon="6.7358340">
        <ele>387.2</ele>
        <time>2019-02-24T14:05:09Z</time>
      </trkpt>
      <trkpt lat="46.4910850" lon="6.7357790">
        <ele>387.3</ele>
        <time>2019-02-24T14:05:10Z</time>
      </trkpt>
      <trkpt lat="46.4910860" lon="6.7357250">
        <ele>387.4</ele>
        <time>2019-02-24T14:05:11Z</time>
      </trkpt>
      <trkpt lat="46.4910860" lon="6.7356710">
        <ele>387.5</ele>
        <time>2019-02-24T14:05:12Z</time>
      </trkpt>
      <trkpt lat="46.4910860" lon="6.7356170">
        <ele>387.6</ele>
        <time>2019-02-24T14:05:13Z</time>
      </trkpt>
      <trkpt lat="46.4910860" lon="6.7355640">
        <ele>387.7</ele>
        <time>2019-02-24T14:05:14Z</time>
      </trkpt>
      <trkpt lat="46.4910840" lon="6.7355110">
        <ele>387.9</ele>
        <time>2019-02-24T14:05:15Z</time>
      </trkpt>
      <trkpt lat="46.4910830" lon="6.7354590">
        <ele>388.0</ele>
        <time>2019-02-24T14:05:16Z</time>
      </trkpt>
      <trkpt lat="46.4910810" lon="6.7354060">
        <ele>388.1</ele>
        <time>2019-02-24T14:05:17Z</time>
      </trkpt>
      <trkpt lat="46.4910780" lon="6.7353550">
        <ele>388.2</ele>
        <time>2019-02-24T14:05:18Z</time>
      </trkpt>
      <trkpt lat="46.4910750" lon="6.7353030">
        <ele>388.3</ele>
        <time>2019-02-24T14:05:19Z</time>
      </trkpt>
      <trkpt lat="46.4910710" lon="6.7352510">
        <ele>388.3</ele>
        <time>2019-02-24T14:05:20Z</time>
      </trkpt>
      <trkpt lat="46.4910670" lon="6.7352000">
        <ele>388.3</ele>
        <time>2019-02-24T14:05:21Z</time>
      </trkpt>
      <trkpt lat="46.4910630" lon="6.7351490">
        <ele>388.4</ele>
        <time>2019-02-24T14:05:22Z</time>
      </trkpt>
      <trkpt lat="46.4910580" lon="6.7350980">
        <ele>388.4</ele>
        <time>2019-02-24T14:05:23Z</time>
      </trkpt>
      <trkpt lat="46.4910530" lon="6.7350480">
        <ele>388.4</ele>
        <time>2019-02-24T14:05:24Z</time>
      </trkpt>
      <trkpt lat="46.4910480" lon="6.7349970">
        <ele>388.5</ele>
        <time>2019-02-24T14:05:25Z</time>
      </trkpt>
      <trkpt lat="46.4910420" lon="6.7349470">
        <ele>388.5</ele>
        <time>2019-02-24T14:05:26Z</time>
      </trkpt>
      <trkpt lat="46.4910360" lon="6.7348970">
        <ele>388.5</ele>
        <time>2019-02-24T14:05:27Z</time>
      </trkpt>
      <trkpt lat="46.4910290" lon="6.7348470">
        <ele>388.6</ele>
        <time>2019-02-24T14:05:28Z</time>
      </trkpt>
      <trkpt lat="46.4910220" lon="6.7347980">
        <ele>388.6</ele>
        <time>2019-02-24T14:05:29Z</time>
      </trkpt>
      <trkpt lat="46.4910140" lon="6.7347480">
        <ele>388.6</ele>
        <time>2019-02-24T14:05:30Z</time>
      </trkpt>
      <trkpt lat="46.4910060" lon="6.7346990">
        <ele>388.6</ele>
        <time>2019-02-24T14:05:31Z</time>
      </trkpt>
      <trkpt lat="46.4909980" lon="6.7346500">
        <ele>388.6</ele>
        <time>2019-02-24T14:05:32Z</time>
      </trkpt>
      <trkpt lat="46.4909890" lon="6.7346010">
        <ele>388.7</ele>
        <time>2019-02-24T14:05:33Z</time>
      </trkpt>
      <trkpt lat="46.4909800" lon="6.7345520">
        <ele>388.8</ele>
        <time>2019-02-24T14:05:34Z</time>
      </trkpt>
      <trkpt lat="46.4909700" lon="6.7345040">
        <ele>388.9</ele>
        <time>2019-02-24T14:05:35Z</time>
      </trkpt>
      <trkpt lat="46.4909590" lon="6.7344550">
        <ele>389.0</ele>
        <time>2019-02-24T14:05:36Z</time>
      </trkpt>
      <trkpt lat="46.4909490" lon="6.7344070">
        <ele>389.1</ele>
        <time>2019-02-24T14:05:37Z</time>
      </trkpt>
      <trkpt lat="46.4909370" lon="6.7343590">
        <ele>389.2</ele>
        <time>2019-02-24T14:05:38Z</time>
      </trkpt>
      <trkpt lat="46.4909260" lon="6.7343110">
        <ele>389.3</ele>
        <time>2019-02-24T14:05:39Z</time>
      </trkpt>
      <trkpt lat="46.4909140" lon="6.7342630">
        <ele>389.4</ele>
        <time>2019-02-24T14:05:40Z</time>
      </trkpt>
      <trkpt lat="46.4909010" lon="6.7342150">
        <ele>389.5</ele>
        <time>2019-02-24T14:05:41Z</time>
      </trkpt>
      <trkpt lat="46.4908880" lon="6.7341670">
        <ele>389.6</ele>
        <time>2019-02-24T14:05:42Z</time>
      </trkpt>
      <trkpt lat="46.4908750" lon="6.7341190">
        <ele>389.7</ele>
        <time>2019-02-24T14:05:43Z</time>
      </trkpt>
      <trkpt lat="46.4908610" lon="6.7340720">
        <ele>389.8</ele>
        <time>2019-02-24T14:05:44Z</time>
      </trkpt>
      <trkpt lat="46.4908480" lon="6.7340240">
        <ele>389.9</ele>
        <time>2019-02-24T14:05:45Z</time>
      </trkpt>
      <trkpt lat="46.4908330" lon="6.7339770">
        <ele>389.9</ele>
        <time>2019-02-24T14:05:46Z</time>
      </trkpt>
      <trkpt lat="46.4908190" lon="6.7339290">
        <ele>390.0</ele>
        <time>2019-02-24T14:05:47Z</time>
      </trkpt>
      <trkpt lat="46.4908040" lon="6.7338810">
        <ele>390.0</ele>
        <time>2019-02-24T14:05:48Z</time>
      </trkpt>
      <trkpt lat="46.4907890" lon="6.7338340">
        <ele>390.1</ele>
        <time>2019-02-24T14:05:49Z</time>
      </trkpt>
      <trkpt lat="46.4907740" lon="6.7337860">
        <ele>390.2</ele>
        <time>2019-02-24T14:05:50Z</time>
      </trkpt>
      <trkpt lat="46.4907590" lon="6.7337390">
        <ele>390.2</ele>
        <time>2019-02-24T14:05:51Z</time>
      </trkpt>
      <trkpt lat="46.4907440" lon="6.7336910">
        <ele>390.3</ele>
        <time>2019-02-24T14:05:52Z</time>
      </trkpt>
      <trkpt lat="46.4907280" lon="6.7336430">
        <ele>390.3</ele>
        <time>2019-02-24T14:05:53Z</time>
      </trkpt>
      <trkpt lat="46.4907130" lon="6.7335950">
        <ele>390.4</ele>
        <time>2019-02-24T14:05:54Z</time>
      </trkpt>
      <trkpt lat="46.4906970" lon="6.7335470">
        <ele>390.4</ele>
        <time>2019-02-24T14:05:55Z</time>
      </trkpt>
      <trkpt lat="46.4906810" lon="6.7334990">
        <ele>390.4</ele>
        <time>2019-02-24T14:05:56Z</time>
      </trkpt>
      <trkpt lat="46.4906660" lon="6.7334510">
        <ele>390.4</ele>
        <time>2019-02-24T14:05:57Z</time>
      </trkpt>
      <trkpt lat="46.4906500" lon="6.7334030">
        <ele>390.5</ele>
        <time>2019-02-24T14:05:58Z</time>
      </trkpt>
      <trkpt lat="46.4906340" lon="6.7333540">
        <ele>390.5</ele>
        <time>2019-02-24T14:05:59Z</time>
      </trkpt>
      <trkpt lat="46.4906190" lon="6.7333060">
        <ele>390.5</ele>
        <time>2019-02-24T14:06:00Z</time>
      </trkpt>
      <trkpt lat="46.4906030" lon="6.7332570">
        <ele>390.5</ele>
        <time>2019-02-24T14:06:01Z</time>
      </trkpt>
      <trkpt lat="46.4905880" lon="6.7332090">
        <ele>390.5</ele>
        <time>2019-02-24T14:06:02Z</time>
      </trkpt>
      <trkpt lat="46.4905730" lon="6.7331600">
        <ele>390.5</ele>
        <time>2019-02-24T14:06:03Z</time>
      </trkpt>
      <trkpt lat="46.4905570" lon="6.7331110">
        <ele>390.5</ele>
        <time>2019-02-24T14:06:04Z</time>
      </trkpt>
      <trkpt lat="46.4905420" lon="6.7330620">
        <ele>390.5</ele>
        <time>2019-02-24T14:06:05Z</time>
      </trkpt>
      <trkpt lat="46.4905260" lon="6.7330120">
        <ele>390.5</ele>
        <time>2019-02-24T14:06:06Z</time>
      </trkpt>
      <trkpt lat="46.4905110" lon="6.7329620">
        <ele>390.5</ele>
        <time>2019-02-24T14:06:07Z</time>
      </trkpt>
      <trkpt lat="46.4904950" lon="6.7329120">
        <ele>390.4</ele>
        <time>2019-02-24T14:06:08Z</time>
      </trkpt>
      <trkpt lat="46.4904780" lon="6.7328600">
        <ele>390.4</ele>
        <time>2019-02-24T14:06:09Z</time>
      </trkpt>
      <trkpt lat="46.4904610" lon="6.7328090">
        <ele>390.4</ele>
        <time>2019-02-24T14:06:10Z</time>
      </trkpt>
      <trkpt lat="46.4904440" lon="6.7327560">
        <ele>390.4</ele>
        <time>2019-02-24T14:06:11Z</time>
      </trkpt>
      <trkpt lat="46.4904260" lon="6.7327030">
        <ele>390.3</ele>
        <time>2019-02-24T14:06:12Z</time>
      </trkpt>
      <trkpt lat="46.4904090" lon="6.7326480">
        <ele>390.2</ele>
        <time>2019-02-24T14:06:13Z</time>
      </trkpt>
      <trkpt lat="46.4903900" lon="6.7325920">
        <ele>390.2</ele>
        <time>2019-02-24T14:06:14Z</time>
      </trkpt>
      <trkpt lat="46.4903720" lon="6.7325360">
        <ele>390.1</ele>
        <time>2019-02-24T14:06:15Z</time>
      </trkpt>
      <trkpt lat="46.4903530" lon="6.7324770">
        <ele>390.0</ele>
        <time>2019-02-24T14:06:16Z</time>
      </trkpt>
      <trkpt lat="46.4903330" lon="6.7324180">
        <ele>389.9</ele>
        <time>2019-02-24T14:06:17Z</time>
      </trkpt>
      <trkpt lat="46.4903140" lon="6.7323560">
        <ele>389.8</ele>
        <time>2019-02-24T14:06:18Z</time>
      </trkpt>
      <trkpt lat="46.4902940" lon="6.7322940">
        <ele>389.7</ele>
        <time>2019-02-24T14:06:19Z</time>
      </trkpt>
      <trkpt lat="46.4902740" lon="6.7322290">
        <ele>389.6</ele>
        <time>2019-02-24T14:06:20Z</time>
      </trkpt>
      <trkpt lat="46.4902540" lon="6.7321640">
        <ele>389.5</ele>
        <time>2019-02-24T14:06:21Z</time>
      </trkpt>
      <trkpt lat="46.4902330" lon="6.7320970">
        <ele>389.9</ele>
        <time>2019-02-24T14:06:22Z</time>
      </trkpt>
      <trkpt lat="46.4902110" lon="6.7320290">
        <ele>390.1</ele>
        <time>2019-02-24T14:06:23Z</time>
      </trkpt>
      <trkpt lat="46.4901890" lon="6.7319600">
        <ele>390.3</ele>
        <time>2019-02-24T14:06:24Z</time>
      </trkpt>
      <trkpt lat="46.4901670" lon="6.7318910">
        <ele>390.4</ele>
        <time>2019-02-24T14:06:25Z</time>
      </trkpt>
      <trkpt lat="46.4901440" lon="6.7318200">
        <ele>390.5</ele>
        <time>2019-02-24T14:06:26Z</time>
      </trkpt>
      <trkpt lat="46.4901200" lon="6.7317480">
        <ele>390.6</ele>
        <time>2019-02-24T14:06:27Z</time>
      </trkpt>
      <trkpt lat="46.4900960" lon="6.7316760">
        <ele>390.7</ele>
        <time>2019-02-24T14:06:28Z</time>
      </trkpt>
      <trkpt lat="46.4900710" lon="6.7316030">
        <ele>390.8</ele>
        <time>2019-02-24T14:06:29Z</time>
      </trkpt>
      <trkpt lat="46.4900460" lon="6.7315300">
        <ele>390.7</ele>
        <time>2019-02-24T14:06:30Z</time>
      </trkpt>
      <trkpt lat="46.4900200" lon="6.7314560">
        <ele>390.7</ele>
        <time>2019-02-24T14:06:31Z</time>
      </trkpt>
      <trkpt lat="46.4899940" lon="6.7313810">
        <ele>390.6</ele>
        <time>2019-02-24T14:06:32Z</time>
      </trkpt>
      <trkpt lat="46.4899680" lon="6.7313060">
        <ele>390.6</ele>
        <time>2019-02-24T14:06:33Z</time>
      </trkpt>
      <trkpt lat="46.4899410" lon="6.7312310">
        <ele>390.5</ele>
        <time>2019-02-24T14:06:34Z</time>
      </trkpt>
      <trkpt lat="46.4899140" lon="6.7311550">
        <ele>390.5</ele>
        <time>2019-02-24T14:06:35Z</time>
      </trkpt>
      <trkpt lat="46.4898870" lon="6.7310790">
        <ele>390.5</ele>
        <time>2019-02-24T14:06:36Z</time>
      </trkpt>
      <trkpt lat="46.4898590" lon="6.7310030">
        <ele>390.4</ele>
        <time>2019-02-24T14:06:37Z</time>
      </trkpt>
      <trkpt lat="46.4898310" lon="6.7309270">
        <ele>390.4</ele>
        <time>2019-02-24T14:06:38Z</time>
      </trkpt>
      <trkpt lat="46.4898030" lon="6.7308500">
        <ele>390.4</ele>
        <time>2019-02-24T14:06:39Z</time>
      </trkpt>
      <trkpt lat="46.4897750" lon="6.7307740">
        <ele>390.4</ele>
        <time>2019-02-24T14:06:40Z</time>
      </trkpt>
      <trkpt lat="46.4897470" lon="6.7306980">
        <ele>390.4</ele>
        <time>2019-02-24T14:06:41Z</time>
      </trkpt>
      <trkpt lat="46.4897180" lon="6.7306210">
        <ele>390.4</ele>
        <time>2019-02-24T14:06:42Z</time>
      </trkpt>
      <trkpt lat="46.4896900" lon="6.7305450">
        <ele>390.5</ele>
        <time>2019-02-24T14:06:43Z</time>
      </trkpt>
      <trkpt lat="46.4896610" lon="6.7304690">
        <ele>390.5</ele>
        <time>2019-02-24T14:06:44Z</time>
      </trkpt>
      <trkpt lat="46.4896330" lon="6.7303940">
        <ele>390.5</ele>
        <time>2019-02-24T14:06:45Z</time>
      </trkpt>
      <trkpt lat="46.4896050" lon="6.7303180">
        <ele>390.6</ele>
        <time>2019-02-24T14:06:46Z</time>
      </trkpt>
      <trkpt lat="46.4895760" lon="6.7302430">
        <ele>390.6</ele>
        <time>2019-02-24T14:06:47Z</time>
      </trkpt>
      <trkpt lat="46.4895480" lon="6.7301690">
        <ele>390.7</ele>
        <time>2019-02-24T14:06:48Z</time>
      </trkpt>
      <trkpt lat="46.4895200" lon="6.7300950">
        <ele>390.8</ele>
        <time>2019-02-24T14:06:49Z</time>
      </trkpt>
      <trkpt lat="46.4894920" lon="6.7300210">
        <ele>390.9</ele>
        <time>2019-02-24T14:06:50Z</time>
      </trkpt>
      <trkpt lat="46.4894640" lon="6.7299480">
        <ele>391.0</ele>
        <time>2019-02-24T14:06:51Z</time>
      </trkpt>
      <trkpt lat="46.4894360" lon="6.7298760">
        <ele>391.1</ele>
        <time>2019-02-24T14:06:52Z</time>
      </trkpt>
      <trkpt lat="46.4894090" lon="6.7298040">
        <ele>391.1</ele>
        <time>2019-02-24T14:06:53Z</time>
      </trkpt>
      <trkpt lat="46.4893820" lon="6.7297340">
        <ele>391.2</ele>
        <time>2019-02-24T14:06:54Z</time>
      </trkpt>
      <trkpt lat="46.4893550" lon="6.7296640">
        <ele>391.3</ele>
        <time>2019-02-24T14:06:55Z</time>
      </trkpt>
      <trkpt lat="46.4893290" lon="6.7295950">
        <ele>391.4</ele>
        <time>2019-02-24T14:06:56Z</time>
      </trkpt>
      <trkpt lat="46.4893030" lon="6.7295270">
        <ele>391.4</ele>
        <time>2019-02-24T14:06:57Z</time>
      </trkpt>
      <trkpt lat="46.4892780" lon="6.7294590">
        <ele>391.5</ele>
        <time>2019-02-24T14:06:58Z</time>
      </trkpt>
      <trkpt lat="46.4892530" lon="6.7293930">
        <ele>391.4</ele>
        <time>2019-02-24T14:06:59Z</time>
      </trkpt>
      <trkpt lat="46.4892280" lon="6.7293280">
        <ele>391.3</ele>
        <time>2019-02-24T14:07:00Z</time>
      </trkpt>
      <trkpt lat="46.4892030" lon="6.7292640">
        <ele>391.2</ele>
        <time>2019-02-24T14:07:01Z</time>
      </trkpt>
      <trkpt lat="46.4891790" lon="6.7292010">
        <ele>391.1</ele>
        <time>2019-02-24T14:07:02Z</time>
      </trkpt>
      <trkpt lat="46.4891560" lon="6.7291390">
        <ele>390.9</ele>
        <time>2019-02-24T14:07:03Z</time>
      </trkpt>
      <trkpt lat="46.4891320" lon="6.7290770">
        <ele>390.8</ele>
        <time>2019-02-24T14:07:04Z</time>
      </trkpt>
      <trkpt lat="46.4891090" lon="6.7290160">
        <ele>390.7</ele>
        <time>2019-02-24T14:07:05Z</time>
      </trkpt>
      <trkpt lat="46.4890850" lon="6.7289550">
        <ele>390.6</ele>
        <time>2019-02-24T14:07:06Z</time>
      </trkpt>
      <trkpt lat="46.4890620" lon="6.7288950">
        <ele>390.5</ele>
        <time>2019-02-24T14:07:07Z</time>
      </trkpt>
      <trkpt lat="46.4890390" lon="6.7288360">
        <ele>390.4</ele>
        <time>2019-02-24T14:07:08Z</time>
      </trkpt>
      <trkpt lat="46.4890150" lon="6.7287770">
        <ele>390.2</ele>
        <time>2019-02-24T14:07:09Z</time>
      </trkpt>
      <trkpt lat="46.4889920" lon="6.7287180">
        <ele>390.1</ele>
        <time>2019-02-24T14:07:10Z</time>
      </trkpt>
      <trkpt lat="46.4889680" lon="6.7286600">
        <ele>390.0</ele>
        <time>2019-02-24T14:07:11Z</time>
      </trkpt>
      <trkpt lat="46.4889450" lon="6.7286020">
        <ele>389.9</ele>
        <time>2019-02-24T14:07:12Z</time>
      </trkpt>
      <trkpt lat="46.4889210" lon="6.7285440">
        <ele>389.8</ele>
        <time>2019-02-24T14:07:13Z</time>
      </trkpt>
      <trkpt lat="46.4888970" lon="6.7284880">
        <ele>389.7</ele>
        <time>2019-02-24T14:07:14Z</time>
      </trkpt>
      <trkpt lat="46.4888720" lon="6.7284310">
        <ele>389.5</ele>
        <time>2019-02-24T14:07:15Z</time>
      </trkpt>
      <trkpt lat="46.4888480" lon="6.7283750">
        <ele>389.4</ele>
        <time>2019-02-24T14:07:16Z</time>
      </trkpt>
      <trkpt lat="46.4888230" lon="6.7283190">
        <ele>389.2</ele>
        <time>2019-02-24T14:07:17Z</time>
      </trkpt>
      <trkpt lat="46.4887980" lon="6.7282630">
        <ele>389.0</ele>
        <time>2019-02-24T14:07:18Z</time>
      </trkpt>
      <trkpt lat="46.4887720" lon="6.7282070">
        <ele>388.7</ele>
        <time>2019-02-24T14:07:19Z</time>
      </trkpt>
      <trkpt lat="46.4887460" lon="6.7281520">
        <ele>388.5</ele>
        <time>2019-02-24T14:07:20Z</time>
      </trkpt>
      <trkpt lat="46.4887200" lon="6.7280960">
        <ele>388.2</ele>
        <time>2019-02-24T14:07:21Z</time>
      </trkpt>
      <trkpt lat="46.4886940" lon="6.7280400">
        <ele>388.2</ele>
        <time>2019-02-24T14:07:22Z</time>
      </trkpt>
      <trkpt lat="46.4886670" lon="6.7279840">
        <ele>388.2</ele>
        <time>2019-02-24T14:07:23Z</time>
      </trkpt>
      <trkpt lat="46.4886400" lon="6.7279280">
        <ele>388.2</ele>
        <time>2019-02-24T14:07:24Z</time>
      </trkpt>
      <trkpt lat="46.4886130" lon="6.7278720">
        <ele>388.2</ele>
        <time>2019-02-24T14:07:25Z</time>
      </trkpt>
      <trkpt lat="46.4885850" lon="6.7278160">
        <ele>388.2</ele>
        <time>2019-02-24T14:07:26Z</time>
      </trkpt>
      <trkpt lat="46.4885570" lon="6.7277590">
        <ele>388.2</ele>
        <time>2019-02-24T14:07:27Z</time>
      </trkpt>
      <trkpt lat="46.4885290" lon="6.7277020">
        <ele>388.1</ele>
        <time>2019-02-24T14:07:28Z</time>
      </trkpt>
      <trkpt lat="46.4885010" lon="6.7276450">
        <ele>388.1</ele>
        <time>2019-02-24T14:07:29Z</time>
      </trkpt>
      <trkpt lat="46.4884720" lon="6.7275880">
        <ele>388.0</ele>
        <time>2019-02-24T14:07:30Z</time>
      </trkpt>
      <trkpt lat="46.4884430" lon="6.7275310">
        <ele>387.9</ele>
        <time>2019-02-24T14:07:31Z</time>
      </trkpt>
      <trkpt lat="46.4884150" lon="6.7274740">
        <ele>387.7</ele>
        <time>2019-02-24T14:07:32Z</time>
      </trkpt>
      <trkpt lat="46.4883860" lon="6.7274160">
        <ele>387.5</ele>
        <time>2019-02-24T14:07:33Z</time>
      </trkpt>
      <trkpt lat="46.4883570" lon="6.7273580">
        <ele>387.3</ele>
        <time>2019-02-24T14:07:34Z</time>
      </trkpt>
      <trkpt lat="46.4883280" lon="6.7273000">
        <ele>387.1</ele>
        <time>2019-02-24T14:07:35Z</time>
      </trkpt>
      <trkpt lat="46.4882990" lon="6.7272410">
        <ele>386.8</ele>
        <time>2019-02-24T14:07:36Z</time>
      </trkpt>
      <trkpt lat="46.4882700" lon="6.7271810">
        <ele>386.6</ele>
        <time>2019-02-24T14:07:37Z</time>
      </trkpt>
      <trkpt lat="46.4882410" lon="6.7271210">
        <ele>386.5</ele>
        <time>2019-02-24T14:07:38Z</time>
      </trkpt>
      <trkpt lat="46.4882130" lon="6.7270610">
        <ele>386.4</ele>
        <time>2019-02-24T14:07:39Z</time>
      </trkpt>
      <trkpt lat="46.4881850" lon="6.7270000">
        <ele>386.3</ele>
        <time>2019-02-24T14:07:40Z</time>
      </trkpt>
      <trkpt lat="46.4881570" lon="6.7269380">
        <ele>386.3</ele>
        <time>2019-02-24T14:07:41Z</time>
      </trkpt>
      <trkpt lat="46.4881300" lon="6.7268750">
        <ele>386.2</ele>
        <time>2019-02-24T14:07:42Z</time>
      </trkpt>
      <trkpt lat="46.4881020" lon="6.7268120">
        <ele>386.2</ele>
        <time>2019-02-24T14:07:43Z</time>
      </trkpt>
      <trkpt lat="46.4880760" lon="6.7267470">
        <ele>386.2</ele>
        <time>2019-02-24T14:07:44Z</time>
      </trkpt>
      <trkpt lat="46.4880500" lon="6.7266820">
        <ele>386.2</ele>
        <time>2019-02-24T14:07:45Z</time>
      </trkpt>
      <trkpt lat="46.4880240" lon="6.7266160">
        <ele>386.2</ele>
        <time>2019-02-24T14:07:46Z</time>
      </trkpt>
      <trkpt lat="46.4879990" lon="6.7265480">
        <ele>386.2</ele>
        <time>2019-02-24T14:07:47Z</time>
      </trkpt>
      <trkpt lat="46.4879750" lon="6.7264800">
        <ele>386.2</ele>
        <time>2019-02-24T14:07:48Z</time>
      </trkpt>
      <trkpt lat="46.4879510" lon="6.7264100">
        <ele>386.1</ele>
        <time>2019-02-24T14:07:49Z</time>
      </trkpt>
      <trkpt lat="46.4879270" lon="6.7263390">
        <ele>386.0</ele>
        <time>2019-02-24T14:07:50Z</time>
      </trkpt>
      <trkpt lat="46.4879030" lon="6.7262670">
        <ele>385.9</ele>
        <time>2019-02-24T14:07:51Z</time>
      </trkpt>
      <trkpt lat="46.4878800" lon="6.7261940">
        <ele>385.7</ele>
        <time>2019-02-24T14:07:52Z</time>
      </trkpt>
      <trkpt lat="46.4878570" lon="6.7261200">
        <ele>385.5</ele>
        <time>2019-02-24T14:07:53Z</time>
      </trkpt>
      <trkpt lat="46.4878340" lon="6.7260440">
        <ele>385.4</ele>
        <time>2019-02-24T14:07:54Z</time>
      </trkpt>
      <trkpt lat="46.4878110" lon="6.7259670">
        <ele>385.3</ele>
        <time>2019-02-24T14:07:55Z</time>
      </trkpt>
      <trkpt lat="46.4877880" lon="6.7258890">
        <ele>385.1</ele>
        <time>2019-02-24T14:07:56Z</time>
      </trkpt>
      <trkpt lat="46.4877650" lon="6.7258100">
        <ele>385.0</ele>
        <time>2019-02-24T14:07:57Z</time>
      </trkpt>
      <trkpt lat="46.4877420" lon="6.7257290">
        <ele>384.9</ele>
        <time>2019-02-24T14:07:58Z</time>
      </trkpt>
      <trkpt lat="46.4877200" lon="6.7256480">
        <ele>384.7</ele>
        <time>2019-02-24T14:07:59Z</time>
      </trkpt>
      <trkpt lat="46.4876980" lon="6.7255650">
        <ele>384.6</ele>
        <time>2019-02-24T14:08:00Z</time>
      </trkpt>
      <trkpt lat="46.4876770" lon="6.7254810">
        <ele>384.3</ele>
        <time>2019-02-24T14:08:01Z</time>
      </trkpt>
      <trkpt lat="46.4876570" lon="6.7253960">
        <ele>384.0</ele>
        <time>2019-02-24T14:08:02Z</time>
      </trkpt>
      <trkpt lat="46.4876370" lon="6.7253100">
        <ele>383.7</ele>
        <time>2019-02-24T14:08:03Z</time>
      </trkpt>
      <trkpt lat="46.4876190" lon="6.7252230">
        <ele>383.5</ele>
        <time>2019-02-24T14:08:04Z</time>
      </trkpt>
      <trkpt lat="46.4876010" lon="6.7251350">
        <ele>383.2</ele>
        <time>2019-02-24T14:08:05Z</time>
      </trkpt>
      <trkpt lat="46.4875840" lon="6.7250460">
        <ele>383.0</ele>
        <time>2019-02-24T14:08:06Z</time>
      </trkpt>
      <trkpt lat="46.4875670" lon="6.7249560">
        <ele>382.9</ele>
        <time>2019-02-24T14:08:07Z</time>
      </trkpt>
      <trkpt lat="46.4875520" lon="6.7248650">
        <ele>382.7</ele>
        <time>2019-02-24T14:08:08Z</time>
      </trkpt>
      <trkpt lat="46.4875370" lon="6.7247720">
        <ele>382.6</ele>
        <time>2019-02-24T14:08:09Z</time>
      </trkpt>
      <trkpt lat="46.4875220" lon="6.7246790">
        <ele>382.4</ele>
        <time>2019-02-24T14:08:10Z</time>
      </trkpt>
      <trkpt lat="46.4875090" lon="6.7245840">
        <ele>382.3</ele>
        <time>2019-02-24T14:08:11Z</time>
      </trkpt>
      <trkpt lat="46.4874960" lon="6.7244880">
        <ele>382.1</ele>
        <time>2019-02-24T14:08:12Z</time>
      </trkpt>
      <trkpt lat="46.4874830" lon="6.7243910">
        <ele>382.0</ele>
        <time>2019-02-24T14:08:13Z</time>
      </trkpt>
      <trkpt lat="46.4874710" lon="6.7242920">
        <ele>382.0</ele>
        <time>2019-02-24T14:08:14Z</time>
      </trkpt>
      <trkpt lat="46.4874600" lon="6.7241920">
        <ele>382.1</ele>
        <time>2019-02-24T14:08:15Z</time>
      </trkpt>
      <trkpt lat="46.4874490" lon="6.7240910">
        <ele>382.2</ele>
        <time>2019-02-24T14:08:16Z</time>
      </trkpt>
      <trkpt lat="46.4874380" lon="6.7239880">
        <ele>382.3</ele>
        <time>2019-02-24T14:08:17Z</time>
      </trkpt>
      <trkpt lat="46.4874280" lon="6.7238830">
        <ele>382.4</ele>
        <time>2019-02-24T14:08:18Z</time>
      </trkpt>
      <trkpt lat="46.4874180" lon="6.7237770">
        <ele>382.5</ele>
        <time>2019-02-24T14:08:19Z</time>
      </trkpt>
      <trkpt lat="46.4874080" lon="6.7236700">
        <ele>382.7</ele>
        <time>2019-02-24T14:08:20Z</time>
      </trkpt>
      <trkpt lat="46.4873990" lon="6.7235620">
        <ele>382.8</ele>
        <time>2019-02-24T14:08:21Z</time>
      </trkpt>
      <trkpt lat="46.4873890" lon="6.7234540">
        <ele>383.0</ele>
        <time>2019-02-24T14:08:22Z</time>
      </trkpt>
      <trkpt lat="46.4873800" lon="6.7233460">
        <ele>383.1</ele>
        <time>2019-02-24T14:08:23Z</time>
      </trkpt>
      <trkpt lat="46.4873720" lon="6.7232380">
        <ele>383.3</ele>
        <time>2019-02-24T14:08:24Z</time>
      </trkpt>
      <trkpt lat="46.4873630" lon="6.7231320">
        <ele>383.4</ele>
        <time>2019-02-24T14:08:25Z</time>
      </trkpt>
      <trkpt lat="46.4873540" lon="6.7230260">
        <ele>383.3</ele>
        <time>2019-02-24T14:08:26Z</time>
      </trkpt>
      <trkpt lat="46.4873450" lon="6.7229220">
        <ele>383.2</ele>
        <time>2019-02-24T14:08:27Z</time>
      </trkpt>
      <trkpt lat="46.4873360" lon="6.7228180">
        <ele>383.2</ele>
        <time>2019-02-24T14:08:28Z</time>
      </trkpt>
      <trkpt lat="46.4873270" lon="6.7227170">
        <ele>383.1</ele>
        <time>2019-02-24T14:08:29Z</time>
      </trkpt>
      <trkpt lat="46.4873180" lon="6.7226180">
        <ele>383.2</ele>
        <time>2019-02-24T14:08:30Z</time>
      </trkpt>
      <trkpt lat="46.4873100" lon="6.7225210">
        <ele>383.2</ele>
        <time>2019-02-24T14:08:31Z</time>
      </trkpt>
      <trkpt lat="46.4873040" lon="6.7224260">
        <ele>383.2</ele>
        <time>2019-02-24T14:08:32Z</time>
      </trkpt>
      <trkpt lat="46.4872990" lon="6.7223330">
        <ele>383.3</ele>
        <time>2019-02-24T14:08:33Z</time>
      </trkpt>
      <trkpt lat="46.4872960" lon="6.7222430">
        <ele>383.3</ele>
        <time>2019-02-24T14:08:34Z</time>
      </trkpt>
      <trkpt lat="46.4872960" lon="6.7221550">
        <ele>383.3</ele>
        <time>2019-02-24T14:08:35Z</time>
      </trkpt>
      <trkpt lat="46.4872980" lon="6.7220680">
        <ele>383.3</ele>
        <time>2019-02-24T14:08:36Z</time>
      </trkpt>
      <trkpt lat="46.4873030" lon="6.7219830">
        <ele>383.3</ele>
        <time>2019-02-24T14:08:37Z</time>
      </trkpt>
      <trkpt lat="46.4873100" lon="6.7219000">
        <ele>383.3</ele>
        <time>2019-02-24T14:08:38Z</time>
      </trkpt>
      <trkpt lat="46.4873190" lon="6.7218190">
        <ele>383.3</ele>
        <time>2019-02-24T14:08:39Z</time>
      </trkpt>
      <trkpt lat="46.4873300" lon="6.7217400">
        <ele>383.3</ele>
        <time>2019-02-24T14:08:40Z</time>
      </trkpt>
      <trkpt lat="46.4873430" lon="6.7216620">
        <ele>383.3</ele>
        <time>2019-02-24T14:08:41Z</time>
      </trkpt>
      <trkpt lat="46.4873570" lon="6.7215850">
        <ele>383.3</ele>
        <time>2019-02-24T14:08:42Z</time>
      </trkpt>
      <trkpt lat="46.4873720" lon="6.7215090">
        <ele>383.3</ele>
        <time>2019-02-24T14:08:43Z</time>
      </trkpt>
      <trkpt lat="46.4873890" lon="6.7214350">
        <ele>383.2</ele>
        <time>2019-02-24T14:08:44Z</time>
      </trkpt>
      <trkpt lat="46.4874070" lon="6.7213620">
        <ele>383.2</ele>
        <time>2019-02-24T14:08:45Z</time>
      </trkpt>
      <trkpt lat="46.4874270" lon="6.7212900">
        <ele>383.2</ele>
        <time>2019-02-24T14:08:46Z</time>
      </trkpt>
      <trkpt lat="46.4874470" lon="6.7212180">
        <ele>383.1</ele>
        <time>2019-02-24T14:08:47Z</time>
      </trkpt>
      <trkpt lat="46.4874690" lon="6.7211480">
        <ele>383.1</ele>
        <time>2019-02-24T14:08:48Z</time>
      </trkpt>
      <trkpt lat="46.4874920" lon="6.7210790">
        <ele>383.1</ele>
        <time>2019-02-24T14:08:49Z</time>
      </trkpt>
      <trkpt lat="46.4875170" lon="6.7210100">
        <ele>383.0</ele>
        <time>2019-02-24T14:08:50Z</time>
      </trkpt>
      <trkpt lat="46.4875430" lon="6.7209420">
        <ele>383.0</ele>
        <time>2019-02-24T14:08:51Z</time>
      </trkpt>
      <trkpt lat="46.4875700" lon="6.7208740">
        <ele>383.1</ele>
        <time>2019-02-24T14:08:52Z</time>
      </trkpt>
      <trkpt lat="46.4875980" lon="6.7208070">
        <ele>383.1</ele>
        <time>2019-02-24T14:08:53Z</time>
      </trkpt>
      <trkpt lat="46.4876280" lon="6.7207400">
        <ele>383.2</ele>
        <time>2019-02-24T14:08:54Z</time>
      </trkpt>
      <trkpt lat="46.4876580" lon="6.7206740">
        <ele>383.3</ele>
        <time>2019-02-24T14:08:55Z</time>
      </trkpt>
      <trkpt lat="46.4876890" lon="6.7206070">
        <ele>383.3</ele>
        <time>2019-02-24T14:08:56Z</time>
      </trkpt>
      <trkpt lat="46.4877210" lon="6.7205410">
        <ele>383.3</ele>
        <time>2019-02-24T14:08:57Z</time>
      </trkpt>
      <trkpt lat="46.4877530" lon="6.7204740">
        <ele>383.4</ele>
        <time>2019-02-24T14:08:58Z</time>
      </trkpt>
      <trkpt lat="46.4877850" lon="6.7204070">
        <ele>383.4</ele>
        <time>2019-02-24T14:08:59Z</time>
      </trkpt>
      <trkpt lat="46.4878170" lon="6.7203390">
        <ele>383.4</ele>
        <time>2019-02-24T14:09:00Z</time>
      </trkpt>
      <trkpt lat="46.4878500" lon="6.7202720">
        <ele>383.4</ele>
        <time>2019-02-24T14:09:01Z</time>
      </trkpt>
      <trkpt lat="46.4878830" lon="6.7202040">
        <ele>383.4</ele>
        <time>2019-02-24T14:09:02Z</time>
      </trkpt>
      <trkpt lat="46.4879160" lon="6.7201350">
        <ele>383.3</ele>
        <time>2019-02-24T14:09:03Z</time>
      </trkpt>
      <trkpt lat="46.4879500" lon="6.7200670">
        <ele>383.3</ele>
        <time>2019-02-24T14:09:04Z</time>
      </trkpt>
      <trkpt lat="46.4879840" lon="6.7199990">
        <ele>383.3</ele>
        <time>2019-02-24T14:09:05Z</time>
      </trkpt>
      <trkpt lat="46.4880190" lon="6.7199320">
        <ele>383.2</ele>
        <time>2019-02-24T14:09:06Z</time>
      </trkpt>
      <trkpt lat="46.4880560" lon="6.7198640">
        <ele>383.2</ele>
        <time>2019-02-24T14:09:07Z</time>
      </trkpt>
      <trkpt lat="46.4880930" lon="6.7197970">
        <ele>383.1</ele>
        <time>2019-02-24T14:09:08Z</time>
      </trkpt>
      <trkpt lat="46.4881310" lon="6.7197300">
        <ele>383.0</ele>
        <time>2019-02-24T14:09:09Z</time>
      </trkpt>
      <trkpt lat="46.4881700" lon="6.7196640">
        <ele>383.0</ele>
        <time>2019-02-24T14:09:10Z</time>
      </trkpt>
      <trkpt lat="46.4882100" lon="6.7195970">
        <ele>382.9</ele>
        <time>2019-02-24T14:09:11Z</time>
      </trkpt>
      <trkpt lat="46.4882510" lon="6.7195310">
        <ele>382.8</ele>
        <time>2019-02-24T14:09:12Z</time>
      </trkpt>
      <trkpt lat="46.4882920" lon="6.7194650">
        <ele>382.7</ele>
        <time>2019-02-24T14:09:13Z</time>
      </trkpt>
      <trkpt lat="46.4883340" lon="6.7193990">
        <ele>382.7</ele>
        <time>2019-02-24T14:09:14Z</time>
      </trkpt>
      <trkpt lat="46.4883760" lon="6.7193320">
        <ele>382.6</ele>
        <time>2019-02-24T14:09:15Z</time>
      </trkpt>
      <trkpt lat="46.4884180" lon="6.7192650">
        <ele>382.5</ele>
        <time>2019-02-24T14:09:16Z</time>
      </trkpt>
      <trkpt lat="46.4884610" lon="6.7191980">
        <ele>382.4</ele>
        <time>2019-02-24T14:09:17Z</time>
      </trkpt>
      <trkpt lat="46.4885040" lon="6.7191300">
        <ele>382.3</ele>
        <time>2019-02-24T14:09:18Z</time>
      </trkpt>
      <trkpt lat="46.4885470" lon="6.7190620">
        <ele>382.3</ele>
        <time>2019-02-24T14:09:19Z</time>
      </trkpt>
      <trkpt lat="46.4885890" lon="6.7189930">
        <ele>382.2</ele>
        <time>2019-02-24T14:09:20Z</time>
      </trkpt>
      <trkpt lat="46.4886320" lon="6.7189230">
        <ele>382.2</ele>
        <time>2019-02-24T14:09:21Z</time>
      </trkpt>
      <trkpt lat="46.4886750" lon="6.7188530">
        <ele>382.1</ele>
        <time>2019-02-24T14:09:22Z</time>
      </trkpt>
      <trkpt lat="46.4887170" lon="6.7187810">
        <ele>382.1</ele>
        <time>2019-02-24T14:09:23Z</time>
      </trkpt>
      <trkpt lat="46.4887580" lon="6.7187090">
        <ele>382.0</ele>
        <time>2019-02-24T14:09:24Z</time>
      </trkpt>
      <trkpt lat="46.4887990" lon="6.7186350">
        <ele>382.0</ele>
        <time>2019-02-24T14:09:25Z</time>
      </trkpt>
      <trkpt lat="46.4888400" lon="6.7185610">
        <ele>381.9</ele>
        <time>2019-02-24T14:09:26Z</time>
      </trkpt>
      <trkpt lat="46.4888810" lon="6.7184870">
        <ele>381.8</ele>
        <time>2019-02-24T14:09:27Z</time>
      </trkpt>
      <trkpt lat="46.4889200" lon="6.7184120">
        <ele>381.7</ele>
        <time>2019-02-24T14:09:28Z</time>
      </trkpt>
      <trkpt lat="46.4889600" lon="6.7183360">
        <ele>381.5</ele>
        <time>2019-02-24T14:09:29Z</time>
      </trkpt>
      <trkpt lat="46.4889990" lon="6.7182610">
        <ele>381.4</ele>
        <time>2019-02-24T14:09:30Z</time>
      </trkpt>
      <trkpt lat="46.4890370" lon="6.7181850">
        <ele>381.3</ele>
        <time>2019-02-24T14:09:31Z</time>
      </trkpt>
      <trkpt lat="46.4890760" lon="6.7181100">
        <ele>381.1</ele>
        <time>2019-02-24T14:09:32Z</time>
      </trkpt>
      <trkpt lat="46.4891130" lon="6.7180340">
        <ele>381.0</ele>
        <time>2019-02-24T14:09:33Z</time>
      </trkpt>
      <trkpt lat="46.4891500" lon="6.7179590">
        <ele>380.9</ele>
        <time>2019-02-24T14:09:34Z</time>
      </trkpt>
      <trkpt lat="46.4891870" lon="6.7178850">
        <ele>380.8</ele>
        <time>2019-02-24T14:09:35Z</time>
      </trkpt>
      <trkpt lat="46.4892240" lon="6.7178110">
        <ele>380.8</ele>
        <time>2019-02-24T14:09:36Z</time>
      </trkpt>
      <trkpt lat="46.4892590" lon="6.7177380">
        <ele>380.7</ele>
        <time>2019-02-24T14:09:37Z</time>
      </trkpt>
      <trkpt lat="46.4892950" lon="6.7176670">
        <ele>380.7</ele>
        <time>2019-02-24T14:09:38Z</time>
      </trkpt>
      <trkpt lat="46.4893300" lon="6.7175960">
        <ele>380.7</ele>
        <time>2019-02-24T14:09:39Z</time>
      </trkpt>
      <trkpt lat="46.4893640" lon="6.7175260">
        <ele>380.7</ele>
        <time>2019-02-24T14:09:40Z</time>
      </trkpt>
      <trkpt lat="46.4893980" lon="6.7174570">
        <ele>380.8</ele>
        <time>2019-02-24T14:09:41Z</time>
      </trkpt>
      <trkpt lat="46.4894320" lon="6.7173900">
        <ele>380.8</ele>
        <time>2019-02-24T14:09:42Z</time>
      </trkpt>
      <trkpt lat="46.4894650" lon="6.7173240">
        <ele>380.8</ele>
        <time>2019-02-24T14:09:43Z</time>
      </trkpt>
      <trkpt lat="46.4894970" lon="6.7172590">
        <ele>380.9</ele>
        <time>2019-02-24T14:09:44Z</time>
      </trkpt>
      <trkpt lat="46.4895290" lon="6.7171950">
        <ele>380.9</ele>
        <time>2019-02-24T14:09:45Z</time>
      </trkpt>
      <trkpt lat="46.4895610" lon="6.7171320">
        <ele>380.9</ele>
        <time>2019-02-24T14:09:46Z</time>
      </trkpt>
      <trkpt lat="46.4895920" lon="6.7170700">
        <ele>380.9</ele>
        <time>2019-02-24T14:09:47Z</time>
      </trkpt>
      <trkpt lat="46.4896220" lon="6.7170090">
        <ele>381.0</ele>
        <time>2019-02-24T14:09:48Z</time>
      </trkpt>
      <trkpt lat="46.4896520" lon="6.7169490">
        <ele>381.0</ele>
        <time>2019-02-24T14:09:49Z</time>
      </trkpt>
      <trkpt lat="46.4896820" lon="6.7168890">
        <ele>381.0</ele>
        <time>2019-02-24T14:09:50Z</time>
      </trkpt>
      <trkpt lat="46.4897110" lon="6.7168300">
        <ele>381.0</ele>
        <time>2019-02-24T14:09:51Z</time>
      </trkpt>
      <trkpt lat="46.4897410" lon="6.7167700">
        <ele>381.1</ele>
        <time>2019-02-24T14:09:52Z</time>
      </trkpt>
      <trkpt lat="46.4897700" lon="6.7167110">
        <ele>381.1</ele>
        <time>2019-02-24T14:09:53Z</time>
      </trkpt>
      <trkpt lat="46.4898000" lon="6.7166510">
        <ele>381.1</ele>
        <time>2019-02-24T14:09:54Z</time>
      </trkpt>
      <trkpt lat="46.4898300" lon="6.7165900">
        <ele>381.1</ele>
        <time>2019-02-24T14:09:55Z</time>
      </trkpt>
      <trkpt lat="46.4898610" lon="6.7165280">
        <ele>381.2</ele>
        <time>2019-02-24T14:09:56Z</time>
      </trkpt>
      <trkpt lat="46.4898920" lon="6.7164650">
        <ele>381.2</ele>
        <time>2019-02-24T14:09:57Z</time>
      </trkpt>
      <trkpt lat="46.4899230" lon="6.7164010">
        <ele>381.2</ele>
        <time>2019-02-24T14:09:58Z</time>
      </trkpt>
      <trkpt lat="46.4899550" lon="6.7163370">
        <ele>381.2</ele>
        <time>2019-02-24T14:09:59Z</time>
      </trkpt>
      <trkpt lat="46.4899870" lon="6.7162720">
        <ele>381.2</ele>
        <time>2019-02-24T14:10:00Z</time>
      </trkpt>
      <trkpt lat="46.4900200" lon="6.7162070">
        <ele>381.2</ele>
        <time>2019-02-24T14:10:01Z</time>
      </trkpt>
      <trkpt lat="46.4900540" lon="6.7161410">
        <ele>381.2</ele>
        <time>2019-02-24T14:10:02Z</time>
      </trkpt>
      <trkpt lat="46.4900870" lon="6.7160750">
        <ele>381.2</ele>
        <time>2019-02-24T14:10:03Z</time>
      </trkpt>
      <trkpt lat="46.4901210" lon="6.7160090">
        <ele>381.2</ele>
        <time>2019-02-24T14:10:04Z</time>
      </trkpt>
      <trkpt lat="46.4901560" lon="6.7159440">
        <ele>381.2</ele>
        <time>2019-02-24T14:10:05Z</time>
      </trkpt>
      <trkpt lat="46.4901900" lon="6.7158780">
        <ele>381.1</ele>
        <time>2019-02-24T14:10:06Z</time>
      </trkpt>
      <trkpt lat="46.4902260" lon="6.7158130">
        <ele>381.1</ele>
        <time>2019-02-24T14:10:07Z</time>
      </trkpt>
      <trkpt lat="46.4902610" lon="6.7157480">
        <ele>381.1</ele>
        <time>2019-02-24T14:10:08Z</time>
      </trkpt>
      <trkpt lat="46.4902970" lon="6.7156840">
        <ele>381.0</ele>
        <time>2019-02-24T14:10:09Z</time>
      </trkpt>
      <trkpt lat="46.4903330" lon="6.7156200">
        <ele>381.0</ele>
        <time>2019-02-24T14:10:10Z</time>
      </trkpt>
      <trkpt lat="46.4903690" lon="6.7155580">
        <ele>380.9</ele>
        <time>2019-02-24T14:10:11Z</time>
      </trkpt>
      <trkpt lat="46.4904060" lon="6.7154960">
        <ele>380.9</ele>
        <time>2019-02-24T14:10:12Z</time>
      </trkpt>
      <trkpt lat="46.4904420" lon="6.7154350">
        <ele>380.9</ele>
        <time>2019-02-24T14:10:13Z</time>
      </trkpt>
      <trkpt lat="46.4904790" lon="6.7153760">
        <ele>380.9</ele>
        <time>2019-02-24T14:10:14Z</time>
      </trkpt>
      <trkpt lat="46.4905150" lon="6.7153170">
        <ele>380.9</ele>
        <time>2019-02-24T14:10:15Z</time>
      </trkpt>
      <trkpt lat="46.4905510" lon="6.7152590">
        <ele>380.9</ele>
        <time>2019-02-24T14:10:16Z</time>
      </trkpt>
      <trkpt lat="46.4905860" lon="6.7152020">
        <ele>380.9</ele>
        <time>2019-02-24T14:10:17Z</time>
      </trkpt>
      <trkpt lat="46.4906200" lon="6.7151460">
        <ele>380.9</ele>
        <time>2019-02-24T14:10:18Z</time>
      </trkpt>
      <trkpt lat="46.4906530" lon="6.7150910">
        <ele>380.9</ele>
        <time>2019-02-24T14:10:19Z</time>
      </trkpt>
      <trkpt lat="46.4906850" lon="6.7150360">
        <ele>381.0</ele>
        <time>2019-02-24T14:10:20Z</time>
      </trkpt>
      <trkpt lat="46.4907150" lon="6.7149820">
        <ele>381.0</ele>
        <time>2019-02-24T14:10:21Z</time>
      </trkpt>
      <trkpt lat="46.4907450" lon="6.7149290">
        <ele>381.1</ele>
        <time>2019-02-24T14:10:22Z</time>
      </trkpt>
      <trkpt lat="46.4907730" lon="6.7148770">
        <ele>381.2</ele>
        <time>2019-02-24T14:10:23Z</time>
      </trkpt>
      <trkpt lat="46.4908010" lon="6.7148250">
        <ele>381.2</ele>
        <time>2019-02-24T14:10:24Z</time>
      </trkpt>
      <trkpt lat="46.4908280" lon="6.7147740">
        <ele>381.3</ele>
        <time>2019-02-24T14:10:25Z</time>
      </trkpt>
      <trkpt lat="46.4908540" lon="6.7147240">
        <ele>381.4</ele>
        <time>2019-02-24T14:10:26Z</time>
      </trkpt>
      <trkpt lat="46.4908790" lon="6.7146740">
        <ele>381.5</ele>
        <time>2019-02-24T14:10:27Z</time>
      </trkpt>
      <trkpt lat="46.4909040" lon="6.7146250">
        <ele>381.6</ele>
        <time>2019-02-24T14:10:28Z</time>
      </trkpt>
      <trkpt lat="46.4909290" lon="6.7145760">
        <ele>381.7</ele>
        <time>2019-02-24T14:10:29Z</time>
      </trkpt>
      <trkpt lat="46.4909530" lon="6.7145270">
        <ele>381.8</ele>
        <time>2019-02-24T14:10:30Z</time>
      </trkpt>
      <trkpt lat="46.4909760" lon="6.7144790">
        <ele>381.9</ele>
        <time>2019-02-24T14:10:31Z</time>
      </trkpt>
      <trkpt lat="46.4909990" lon="6.7144310">
        <ele>382.0</ele>
        <time>2019-02-24T14:10:32Z</time>
      </trkpt>
      <trkpt lat="46.4910220" lon="6.7143840">
        <ele>382.2</ele>
        <time>2019-02-24T14:10:33Z</time>
      </trkpt>
      <trkpt lat="46.4910440" lon="6.7143370">
        <ele>382.4</ele>
        <time>2019-02-24T14:10:34Z</time>
      </trkpt>
      <trkpt lat="46.4910660" lon="6.7142900">
        <ele>382.5</ele>
        <time>2019-02-24T14:10:35Z</time>
      </trkpt>
      <trkpt lat="46.4910870" lon="6.7142440">
        <ele>382.5</ele>
        <time>2019-02-24T14:10:36Z</time>
      </trkpt>
      <trkpt lat="46.4911090" lon="6.7141970">
        <ele>382.5</ele>
        <time>2019-02-24T14:10:37Z</time>
      </trkpt>
      <trkpt lat="46.4911300" lon="6.7141510">
        <ele>382.5</ele>
        <time>2019-02-24T14:10:38Z</time>
      </trkpt>
      <trkpt lat="46.4911500" lon="6.7141050">
        <ele>382.5</ele>
        <time>2019-02-24T14:10:39Z</time>
      </trkpt>
      <trkpt lat="46.4911710" lon="6.7140590">
        <ele>382.5</ele>
        <time>2019-02-24T14:10:40Z</time>
      </trkpt>
      <trkpt lat="46.4911910" lon="6.7140130">
        <ele>382.5</ele>
        <time>2019-02-24T14:10:41Z</time>
      </trkpt>
      <trkpt lat="46.4912110" lon="6.7139680">
        <ele>382.6</ele>
        <time>2019-02-24T14:10:42Z</time>
      </trkpt>
      <trkpt lat="46.4912310" lon="6.7139220">
        <ele>382.6</ele>
        <time>2019-02-24T14:10:43Z</time>
      </trkpt>
      <trkpt lat="46.4912510" lon="6.7138760">
        <ele>382.6</ele>
        <time>2019-02-24T14:10:44Z</time>
      </trkpt>
      <trkpt lat="46.4912710" lon="6.7138300">
        <ele>382.7</ele>
        <time>2019-02-24T14:10:45Z</time>
      </trkpt>
      <trkpt lat="46.4912910" lon="6.7137850">
        <ele>382.8</ele>
        <time>2019-02-24T14:10:46Z</time>
      </trkpt>
      <trkpt lat="46.4913110" lon="6.7137390">
        <ele>382.9</ele>
        <time>2019-02-24T14:10:47Z</time>
      </trkpt>
      <trkpt lat="46.4913310" lon="6.7136930">
        <ele>383.0</ele>
        <time>2019-02-24T14:10:48Z</time>
      </trkpt>
      <trkpt lat="46.4913510" lon="6.7136480">
        <ele>383.0</ele>
        <time>2019-02-24T14:10:49Z</time>
      </trkpt>
      <trkpt lat="46.4913710" lon="6.7136020">
        <ele>383.1</ele>
        <time>2019-02-24T14:10:50Z</time>
      </trkpt>
      <trkpt lat="46.4913910" lon="6.7135570">
        <ele>383.2</ele>
        <time>2019-02-24T14:10:51Z</time>
      </trkpt>
      <trkpt lat="46.4914120" lon="6.7135120">
        <ele>383.3</ele>
        <time>2019-02-24T14:10:52Z</time>
      </trkpt>
      <trkpt lat="46.4914320" lon="6.7134680">
        <ele>383.4</ele>
        <time>2019-02-24T14:10:53Z</time>
      </trkpt>
      <trkpt lat="46.4914530" lon="6.7134230">
        <ele>383.5</ele>
        <time>2019-02-24T14:10:54Z</time>
      </trkpt>
      <trkpt lat="46.4914740" lon="6.7133790">
        <ele>383.5</ele>
        <time>2019-02-24T14:10:55Z</time>
      </trkpt>
      <trkpt lat="46.4914950" lon="6.7133350">
        <ele>383.6</ele>
        <time>2019-02-24T14:10:56Z</time>
      </trkpt>
      <trkpt lat="46.4915170" lon="6.7132920">
        <ele>383.7</ele>
        <time>2019-02-24T14:10:57Z</time>
      </trkpt>
      <trkpt lat="46.4915390" lon="6.7132490">
        <ele>383.8</ele>
        <time>2019-02-24T14:10:58Z</time>
      </trkpt>
      <trkpt lat="46.4915610" lon="6.7132060">
        <ele>383.8</ele>
        <time>2019-02-24T14:10:59Z</time>
      </trkpt>
      <trkpt lat="46.4915840" lon="6.7131640">
        <ele>383.9</ele>
        <time>2019-02-24T14:11:00Z</time>
      </trkpt>
      <trkpt lat="46.4916070" lon="6.7131220">
        <ele>383.9</ele>
        <time>2019-02-24T14:11:01Z</time>
      </trkpt>
      <trkpt lat="46.4916310" lon="6.7130810">
        <ele>384.0</ele>
        <time>2019-02-24T14:11:02Z</time>
      </trkpt>
      <trkpt lat="46.4916550" lon="6.7130400">
        <ele>384.0</ele>
        <time>2019-02-24T14:11:03Z</time>
      </trkpt>
      <trkpt lat="46.4916790" lon="6.7129990">
        <ele>384.1</ele>
        <time>2019-02-24T14:11:04Z</time>
      </trkpt>
      <trkpt lat="46.4917040" lon="6.7129590">
        <ele>384.1</ele>
        <time>2019-02-24T14:11:05Z</time>
      </trkpt>
      <trkpt lat="46.4917290" lon="6.7129190">
        <ele>384.1</ele>
        <time>2019-02-24T14:11:06Z</time>
      </trkpt>
      <trkpt lat="46.4917540" lon="6.7128800">
        <ele>384.1</ele>
        <time>2019-02-24T14:11:07Z</time>
      </trkpt>
      <trkpt lat="46.4917800" lon="6.7128410">
        <ele>384.1</ele>
        <time>2019-02-24T14:11:08Z</time>
      </trkpt>
      <trkpt lat="46.4918050" lon="6.7128020">
        <ele>384.1</ele>
        <time>2019-02-24T14:11:09Z</time>
      </trkpt>
      <trkpt lat="46.4918310" lon="6.7127630">
        <ele>384.1</ele>
        <time>2019-02-24T14:11:10Z</time>
      </trkpt>
      <trkpt lat="46.4918580" lon="6.7127240">
        <ele>384.1</ele>
        <time>2019-02-24T14:11:11Z</time>
      </trkpt>
      <trkpt lat="46.4918840" lon="6.7126860">
        <ele>384.1</ele>
        <time>2019-02-24T14:11:12Z</time>
      </trkpt>
      <trkpt lat="46.4919110" lon="6.7126470">
        <ele>384.1</ele>
        <time>2019-02-24T14:11:13Z</time>
      </trkpt>
      <trkpt lat="46.4919370" lon="6.7126090">
        <ele>384.0</ele>
        <time>2019-02-24T14:11:14Z</time>
      </trkpt>
      <trkpt lat="46.4919640" lon="6.7125710">
        <ele>384.0</ele>
        <time>2019-02-24T14:11:15Z</time>
      </trkpt>
      <trkpt lat="46.4919910" lon="6.7125330">
        <ele>383.9</ele>
        <time>2019-02-24T14:11:16Z</time>
      </trkpt>
      <trkpt lat="46.4920180" lon="6.7124950">
        <ele>383.9</ele>
        <time>2019-02-24T14:11:17Z</time>
      </trkpt>
      <trkpt lat="46.4920450" lon="6.7124570">
        <ele>383.9</ele>
        <time>2019-02-24T14:11:18Z</time>
      </trkpt>
      <trkpt lat="46.4920720" lon="6.7124190">
        <ele>383.9</ele>
        <time>2019-02-24T14:11:19Z</time>
      </trkpt>
      <trkpt lat="46.4920990" lon="6.7123810">
        <ele>383.8</ele>
        <time>2019-02-24T14:11:20Z</time>
      </trkpt>
      <trkpt lat="46.4921260" lon="6.7123430">
        <ele>383.8</ele>
        <time>2019-02-24T14:11:21Z</time>
      </trkpt>
      <trkpt lat="46.4921530" lon="6.7123050">
        <ele>383.8</ele>
        <time>2019-02-24T14:11:22Z</time>
      </trkpt>
      <trkpt lat="46.4921800" lon="6.7122670">
        <ele>383.8</ele>
        <time>2019-02-24T14:11:23Z</time>
      </trkpt>
      <trkpt lat="46.4922070" lon="6.7122290">
        <ele>383.8</ele>
        <time>2019-02-24T14:11:24Z</time>
      </trkpt>
      <trkpt lat="46.4922340" lon="6.7121910">
        <ele>383.8</ele>
        <time>2019-02-24T14:11:25Z</time>
      </trkpt>
      <trkpt lat="46.4922610" lon="6.7121530">
        <ele>383.8</ele>
        <time>2019-02-24T14:11:26Z</time>
      </trkpt>
      <trkpt lat="46.4922880" lon="6.7121140">
        <ele>383.8</ele>
        <time>2019-02-24T14:11:27Z</time>
      </trkpt>
      <trkpt lat="46.4923160" lon="6.7120750">
        <ele>383.8</ele>
        <time>2019-02-24T14:11:28Z</time>
      </trkpt>
      <trkpt lat="46.4923440" lon="6.7120350">
        <ele>383.7</ele>
        <time>2019-02-24T14:11:29Z</time>
      </trkpt>
      <trkpt lat="46.4923730" lon="6.7119930">
        <ele>383.7</ele>
        <time>2019-02-24T14:11:30Z</time>
      </trkpt>
      <trkpt lat="46.4924030" lon="6.7119510">
        <ele>383.7</ele>
        <time>2019-02-24T14:11:31Z</time>
      </trkpt>
      <trkpt lat="46.4924340" lon="6.7119070">
        <ele>383.6</ele>
        <time>2019-02-24T14:11:32Z</time>
      </trkpt>
      <trkpt lat="46.4924660" lon="6.7118610">
        <ele>383.5</ele>
        <time>2019-02-24T14:11:33Z</time>
      </trkpt>
      <trkpt lat="46.4924990" lon="6.7118140">
        <ele>383.4</ele>
        <time>2019-02-24T14:11:34Z</time>
      </trkpt>
      <trkpt lat="46.4925330" lon="6.7117650">
        <ele>383.2</ele>
        <time>2019-02-24T14:11:35Z</time>
      </trkpt>
      <trkpt lat="46.4925680" lon="6.7117150">
        <ele>383.1</ele>
        <time>2019-02-24T14:11:36Z</time>
      </trkpt>
      <trkpt lat="46.4926040" lon="6.7116630">
        <ele>382.9</ele>
        <time>2019-02-24T14:11:37Z</time>
      </trkpt>
      <trkpt lat="46.4926420" lon="6.7116100">
        <ele>382.7</ele>
        <time>2019-02-24T14:11:38Z</time>
      </trkpt>
      <trkpt lat="46.4926790" lon="6.7115570">
        <ele>382.6</ele>
        <time>2019-02-24T14:11:39Z</time>
      </trkpt>
      <trkpt lat="46.4927180" lon="6.7115020">
        <ele>382.4</ele>
        <time>2019-02-24T14:11:40Z</time>
      </trkpt>
      <trkpt lat="46.4927570" lon="6.7114460">
        <ele>382.2</ele>
        <time>2019-02-24T14:11:41Z</time>
      </trkpt>
      <trkpt lat="46.4927970" lon="6.7113890">
        <ele>382.1</ele>
        <time>2019-02-24T14:11:42Z</time>
      </trkpt>
      <trkpt lat="46.4928370" lon="6.7113320">
        <ele>381.9</ele>
        <time>2019-02-24T14:11:43Z</time>
      </trkpt>
      <trkpt lat="46.4928780" lon="6.7112730">
        <ele>381.6</ele>
        <time>2019-02-24T14:11:44Z</time>
      </trkpt>
      <trkpt lat="46.4929200" lon="6.7112130">
        <ele>381.4</ele>
        <time>2019-02-24T14:11:45Z</time>
      </trkpt>
      <trkpt lat="46.4929630" lon="6.7111520">
        <ele>381.2</ele>
        <time>2019-02-24T14:11:46Z</time>
      </trkpt>
      <trkpt lat="46.4930060" lon="6.7110900">
        <ele>380.9</ele>
        <time>2019-02-24T14:11:47Z</time>
      </trkpt>
      <trkpt lat="46.4930500" lon="6.7110270">
        <ele>380.7</ele>
        <time>2019-02-24T14:11:48Z</time>
      </trkpt>
      <trkpt lat="46.4930950" lon="6.7109630">
        <ele>380.4</ele>
        <time>2019-02-24T14:11:49Z</time>
      </trkpt>
      <trkpt lat="46.4931410" lon="6.7108980">
        <ele>380.2</ele>
        <time>2019-02-24T14:11:50Z</time>
      </trkpt>
      <trkpt lat="46.4931870" lon="6.7108310">
        <ele>379.9</ele>
        <time>2019-02-24T14:11:51Z</time>
      </trkpt>
      <trkpt lat="46.4932340" lon="6.7107640">
        <ele>379.7</ele>
        <time>2019-02-24T14:11:52Z</time>
      </trkpt>
      <trkpt lat="46.4932810" lon="6.7106970">
        <ele>379.4</ele>
        <time>2019-02-24T14:11:53Z</time>
      </trkpt>
      <trkpt lat="46.4933290" lon="6.7106290">
        <ele>379.1</ele>
        <time>2019-02-24T14:11:54Z</time>
      </trkpt>
      <trkpt lat="46.4933760" lon="6.7105600">
        <ele>378.9</ele>
        <time>2019-02-24T14:11:55Z</time>
      </trkpt>
      <trkpt lat="46.4934240" lon="6.7104910">
        <ele>378.6</ele>
        <time>2019-02-24T14:11:56Z</time>
      </trkpt>
      <trkpt lat="46.4934720" lon="6.7104220">
        <ele>378.4</ele>
        <time>2019-02-24T14:11:57Z</time>
      </trkpt>
      <trkpt lat="46.4935210" lon="6.7103530">
        <ele>378.2</ele>
        <time>2019-02-24T14:11:58Z</time>
      </trkpt>
      <trkpt lat="46.4935690" lon="6.7102840">
        <ele>378.1</ele>
        <time>2019-02-24T14:11:59Z</time>
      </trkpt>
      <trkpt lat="46.4936170" lon="6.7102160">
        <ele>377.9</ele>
        <time>2019-02-24T14:12:00Z</time>
      </trkpt>
      <trkpt lat="46.4936640" lon="6.7101470">
        <ele>377.8</ele>
        <time>2019-02-24T14:12:01Z</time>
      </trkpt>
      <trkpt lat="46.4937110" lon="6.7100790">
        <ele>377.6</ele>
        <time>2019-02-24T14:12:02Z</time>
      </trkpt>
      <trkpt lat="46.4937580" lon="6.7100120">
        <ele>377.4</ele>
        <time>2019-02-24T14:12:03Z</time>
      </trkpt>
      <trkpt lat="46.4938050" lon="6.7099460">
        <ele>377.3</ele>
        <time>2019-02-24T14:12:04Z</time>
      </trkpt>
      <trkpt lat="46.4938510" lon="6.7098800">
        <ele>377.0</ele>
        <time>2019-02-24T14:12:05Z</time>
      </trkpt>
      <trkpt lat="46.4938960" lon="6.7098160">
        <ele>377.0</ele>
        <time>2019-02-24T14:12:06Z</time>
      </trkpt>
      <trkpt lat="46.4939400" lon="6.7097520">
        <ele>377.0</ele>
        <time>2019-02-24T14:12:07Z</time>
      </trkpt>
      <trkpt lat="46.4939840" lon="6.7096890">
        <ele>377.0</ele>
        <time>2019-02-24T14:12:08Z</time>
      </trkpt>
      <trkpt lat="46.4940280" lon="6.7096270">
        <ele>377.0</ele>
        <time>2019-02-24T14:12:09Z</time>
      </trkpt>
      <trkpt lat="46.4940710" lon="6.7095650">
        <ele>377.0</ele>
        <time>2019-02-24T14:12:10Z</time>
      </trkpt>
      <trkpt lat="46.4941130" lon="6.7095040">
        <ele>377.0</ele>
        <time>2019-02-24T14:12:11Z</time>
      </trkpt>
      <trkpt lat="46.4941550" lon="6.7094450">
        <ele>377.0</ele>
        <time>2019-02-24T14:12:12Z</time>
      </trkpt>
      <trkpt lat="46.4941970" lon="6.7093850">
        <ele>377.0</ele>
        <time>2019-02-24T14:12:13Z</time>
      </trkpt>
      <trkpt lat="46.4942380" lon="6.7093270">
        <ele>377.0</ele>
        <time>2019-02-24T14:12:14Z</time>
      </trkpt>
      <trkpt lat="46.4942780" lon="6.7092690">
        <ele>377.1</ele>
        <time>2019-02-24T14:12:15Z</time>
      </trkpt>
      <trkpt lat="46.4943180" lon="6.7092120">
        <ele>377.1</ele>
        <time>2019-02-24T14:12:16Z</time>
      </trkpt>
      <trkpt lat="46.4943570" lon="6.7091560">
        <ele>377.2</ele>
        <time>2019-02-24T14:12:17Z</time>
      </trkpt>
      <trkpt lat="46.4943960" lon="6.7091000">
        <ele>377.2</ele>
        <time>2019-02-24T14:12:18Z</time>
      </trkpt>
      <trkpt lat="46.4944350" lon="6.7090450">
        <ele>377.3</ele>
        <time>2019-02-24T14:12:19Z</time>
      </trkpt>
      <trkpt lat="46.4944730" lon="6.7089910">
        <ele>377.3</ele>
        <time>2019-02-24T14:12:20Z</time>
      </trkpt>
      <trkpt lat="46.4945110" lon="6.7089370">
        <ele>377.4</ele>
        <time>2019-02-24T14:12:21Z</time>
      </trkpt>
      <trkpt lat="46.4945480" lon="6.7088840">
        <ele>377.4</ele>
        <time>2019-02-24T14:12:22Z</time>
      </trkpt>
      <trkpt lat="46.4945850" lon="6.7088310">
        <ele>377.4</ele>
        <time>2019-02-24T14:12:23Z</time>
      </trkpt>
      <trkpt lat="46.4946220" lon="6.7087780">
        <ele>377.4</ele>
        <time>2019-02-24T14:12:24Z</time>
      </trkpt>
      <trkpt lat="46.4946580" lon="6.7087260">
        <ele>377.5</ele>
        <time>2019-02-24T14:12:25Z</time>
      </trkpt>
      <trkpt lat="46.4946940" lon="6.7086740">
        <ele>377.5</ele>
        <time>2019-02-24T14:12:26Z</time>
      </trkpt>
      <trkpt lat="46.4947300" lon="6.7086220">
        <ele>377.5</ele>
        <time>2019-02-24T14:12:27Z</time>
      </trkpt>
      <trkpt lat="46.4947660" lon="6.7085690">
        <ele>377.1</ele>
        <time>2019-02-24T14:12:28Z</time>
      </trkpt>
      <trkpt lat="46.4948020" lon="6.7085170">
        <ele>376.9</ele>
        <time>2019-02-24T14:12:29Z</time>
      </trkpt>
      <trkpt lat="46.4948370" lon="6.7084640">
        <ele>376.6</ele>
        <time>2019-02-24T14:12:30Z</time>
      </trkpt>
      <trkpt lat="46.4948720" lon="6.7084110">
        <ele>376.4</ele>
        <time>2019-02-24T14:12:31Z</time>
      </trkpt>
      <trkpt lat="46.4949070" lon="6.7083580">
        <ele>376.2</ele>
        <time>2019-02-24T14:12:32Z</time>
      </trkpt>
      <trkpt lat="46.4949410" lon="6.7083030">
        <ele>375.9</ele>
        <time>2019-02-24T14:12:33Z</time>
      </trkpt>
      <trkpt lat="46.4949750" lon="6.7082490">
        <ele>375.7</ele>
        <time>2019-02-24T14:12:34Z</time>
      </trkpt>
      <trkpt lat="46.4950080" lon="6.7081930">
        <ele>375.5</ele>
        <time>2019-02-24T14:12:35Z</time>
      </trkpt>
      <trkpt lat="46.4950390" lon="6.7081370">
        <ele>375.3</ele>
        <time>2019-02-24T14:12:36Z</time>
      </trkpt>
      <trkpt lat="46.4950700" lon="6.7080790">
        <ele>375.1</ele>
        <time>2019-02-24T14:12:37Z</time>
      </trkpt>
      <trkpt lat="46.4951000" lon="6.7080210">
        <ele>374.9</ele>
        <time>2019-02-24T14:12:38Z</time>
      </trkpt>
      <trkpt lat="46.4951290" lon="6.7079620">
        <ele>374.7</ele>
        <time>2019-02-24T14:12:39Z</time>
      </trkpt>
      <trkpt lat="46.4951580" lon="6.7079020">
        <ele>374.5</ele>
        <time>2019-02-24T14:12:40Z</time>
      </trkpt>
      <trkpt lat="46.4951850" lon="6.7078420">
        <ele>374.2</ele>
        <time>2019-02-24T14:12:41Z</time>
      </trkpt>
      <trkpt lat="46.4952120" lon="6.7077800">
        <ele>374.0</ele>
        <time>2019-02-24T14:12:42Z</time>
      </trkpt>
      <trkpt lat="46.4952390" lon="6.7077190">
        <ele>373.5</ele>
        <time>2019-02-24T14:12:43Z</time>
      </trkpt>
      <trkpt lat="46.4952650" lon="6.7076560">
        <ele>373.3</ele>
        <time>2019-02-24T14:12:44Z</time>
      </trkpt>
      <trkpt lat="46.4952910" lon="6.7075930">
        <ele>373.1</ele>
        <time>2019-02-24T14:12:45Z</time>
      </trkpt>
      <trkpt lat="46.4953160" lon="6.7075300">
        <ele>372.9</ele>
        <time>2019-02-24T14:12:46Z</time>
      </trkpt>
      <trkpt lat="46.4953410" lon="6.7074660">
        <ele>372.7</ele>
        <time>2019-02-24T14:12:47Z</time>
      </trkpt>
      <trkpt lat="46.4953670" lon="6.7074020">
        <ele>372.5</ele>
        <time>2019-02-24T14:12:48Z</time>
      </trkpt>
      <trkpt lat="46.4953920" lon="6.7073370">
        <ele>372.3</ele>
        <time>2019-02-24T14:12:49Z</time>
      </trkpt>
      <trkpt lat="46.4954170" lon="6.7072720">
        <ele>372.1</ele>
        <time>2019-02-24T14:12:50Z</time>
      </trkpt>
      <trkpt lat="46.4954420" lon="6.7072080">
        <ele>372.0</ele>
        <time>2019-02-24T14:12:51Z</time>
      </trkpt>
      <trkpt lat="46.4954670" lon="6.7071430">
        <ele>371.9</ele>
        <time>2019-02-24T14:12:52Z</time>
      </trkpt>
      <trkpt lat="46.4954930" lon="6.7070770">
        <ele>371.7</ele>
        <time>2019-02-24T14:12:53Z</time>
      </trkpt>
      <trkpt lat="46.4955190" lon="6.7070120">
        <ele>371.7</ele>
        <time>2019-02-24T14:12:54Z</time>
      </trkpt>
      <trkpt lat="46.4955450" lon="6.7069470">
        <ele>371.7</ele>
        <time>2019-02-24T14:12:55Z</time>
      </trkpt>
      <trkpt lat="46.4955720" lon="6.7068820">
        <ele>371.8</ele>
        <time>2019-02-24T14:12:56Z</time>
      </trkpt>
      <trkpt lat="46.4955980" lon="6.7068170">
        <ele>371.9</ele>
        <time>2019-02-24T14:12:57Z</time>
      </trkpt>
      <trkpt lat="46.4956250" lon="6.7067520">
        <ele>372.1</ele>
        <time>2019-02-24T14:12:58Z</time>
      </trkpt>
      <trkpt lat="46.4956520" lon="6.7066870">
        <ele>372.5</ele>
        <time>2019-02-24T14:12:59Z</time>
      </trkpt>
      <trkpt lat="46.4956800" lon="6.7066220">
        <ele>372.8</ele>
        <time>2019-02-24T14:13:00Z</time>
      </trkpt>
      <trkpt lat="46.4957080" lon="6.7065570">
        <ele>373.0</ele>
        <time>2019-02-24T14:13:01Z</time>
      </trkpt>
      <trkpt lat="46.4957360" lon="6.7064930">
        <ele>373.0</ele>
        <time>2019-02-24T14:13:02Z</time>
      </trkpt>
      <trkpt lat="46.4957640" lon="6.7064290">
        <ele>372.8</ele>
        <time>2019-02-24T14:13:03Z</time>
      </trkpt>
      <trkpt lat="46.4957930" lon="6.7063650">
        <ele>372.6</ele>
        <time>2019-02-24T14:13:04Z</time>
      </trkpt>
      <trkpt lat="46.4958220" lon="6.7063010">
        <ele>372.4</ele>
        <time>2019-02-24T14:13:05Z</time>
      </trkpt>
      <trkpt lat="46.4958510" lon="6.7062370">
        <ele>372.3</ele>
        <time>2019-02-24T14:13:06Z</time>
      </trkpt>
      <trkpt lat="46.4958800" lon="6.7061740">
        <ele>372.1</ele>
        <time>2019-02-24T14:13:07Z</time>
      </trkpt>
      <trkpt lat="46.4959100" lon="6.7061110">
        <ele>372.0</ele>
        <time>2019-02-24T14:13:08Z</time>
      </trkpt>
      <trkpt lat="46.4959400" lon="6.7060490">
        <ele>371.9</ele>
        <time>2019-02-24T14:13:09Z</time>
      </trkpt>
      <trkpt lat="46.4959700" lon="6.7059870">
        <ele>371.8</ele>
        <time>2019-02-24T14:13:10Z</time>
      </trkpt>
      <trkpt lat="46.4960000" lon="6.7059250">
        <ele>371.7</ele>
        <time>2019-02-24T14:13:11Z</time>
      </trkpt>
      <trkpt lat="46.4960310" lon="6.7058640">
        <ele>371.6</ele>
        <time>2019-02-24T14:13:12Z</time>
      </trkpt>
      <trkpt lat="46.4960610" lon="6.7058030">
        <ele>371.5</ele>
        <time>2019-02-24T14:13:13Z</time>
      </trkpt>
      <trkpt lat="46.4960920" lon="6.7057420">
        <ele>371.4</ele>
        <time>2019-02-24T14:13:14Z</time>
      </trkpt>
      <trkpt lat="46.4961240" lon="6.7056810">
        <ele>371.2</ele>
        <time>2019-02-24T14:13:15Z</time>
      </trkpt>
      <trkpt lat="46.4961550" lon="6.7056210">
        <ele>371.1</ele>
        <time>2019-02-24T14:13:16Z</time>
      </trkpt>
      <trkpt lat="46.4961860" lon="6.7055610">
        <ele>371.0</ele>
        <time>2019-02-24T14:13:17Z</time>
      </trkpt>
      <trkpt lat="46.4962180" lon="6.7055010">
        <ele>370.8</ele>
        <time>2019-02-24T14:13:18Z</time>
      </trkpt>
      <trkpt lat="46.4962490" lon="6.7054410">
        <ele>370.9</ele>
        <time>2019-02-24T14:13:19Z</time>
      </trkpt>
      <trkpt lat="46.4962810" lon="6.7053810">
        <ele>370.9</ele>
        <time>2019-02-24T14:13:20Z</time>
      </trkpt>
      <trkpt lat="46.4963130" lon="6.7053210">
        <ele>371.0</ele>
        <time>2019-02-24T14:13:21Z</time>
      </trkpt>
      <trkpt lat="46.4963440" lon="6.7052620">
        <ele>371.0</ele>
        <time>2019-02-24T14:13:22Z</time>
      </trkpt>
      <trkpt lat="46.4963760" lon="6.7052020">
        <ele>371.1</ele>
        <time>2019-02-24T14:13:23Z</time>
      </trkpt>
      <trkpt lat="46.4964080" lon="6.7051420">
        <ele>371.1</ele>
        <time>2019-02-24T14:13:24Z</time>
      </trkpt>
      <trkpt lat="46.4964400" lon="6.7050820">
        <ele>371.1</ele>
        <time>2019-02-24T14:13:25Z</time>
      </trkpt>
      <trkpt lat="46.4964710" lon="6.7050220">
        <ele>371.4</ele>
        <time>2019-02-24T14:13:26Z</time>
      </trkpt>
      <trkpt lat="46.4965030" lon="6.7049620">
        <ele>371.5</ele>
        <time>2019-02-24T14:13:27Z</time>
      </trkpt>
      <trkpt lat="46.4965340" lon="6.7049020">
        <ele>371.7</ele>
        <time>2019-02-24T14:13:28Z</time>
      </trkpt>
      <trkpt lat="46.4965660" lon="6.7048420">
        <ele>371.9</ele>
        <time>2019-02-24T14:13:29Z</time>
      </trkpt>
      <trkpt lat="46.4965970" lon="6.7047820">
        <ele>372.1</ele>
        <time>2019-02-24T14:13:30Z</time>
      </trkpt>
      <trkpt lat="46.4966290" lon="6.7047210">
        <ele>372.3</ele>
        <time>2019-02-24T14:13:31Z</time>
      </trkpt>
      <trkpt lat="46.4966600" lon="6.7046600">
        <ele>372.5</ele>
        <time>2019-02-24T14:13:32Z</time>
      </trkpt>
      <trkpt lat="46.4966920" lon="6.7045990">
        <ele>372.6</ele>
        <time>2019-02-24T14:13:33Z</time>
      </trkpt>
      <trkpt lat="46.4967230" lon="6.7045380">
        <ele>372.6</ele>
        <time>2019-02-24T14:13:34Z</time>
      </trkpt>
      <trkpt lat="46.4967550" lon="6.7044760">
        <ele>372.7</ele>
        <time>2019-02-24T14:13:35Z</time>
      </trkpt>
      <trkpt lat="46.4967860" lon="6.7044150">
        <ele>373.4</ele>
        <time>2019-02-24T14:13:36Z</time>
      </trkpt>
      <trkpt lat="46.4968180" lon="6.7043530">
        <ele>374.5</ele>
        <time>2019-02-24T14:13:37Z</time>
      </trkpt>
      <trkpt lat="46.4968500" lon="6.7042910">
        <ele>376.0</ele>
        <time>2019-02-24T14:13:38Z</time>
      </trkpt>
      <trkpt lat="46.4968810" lon="6.7042280">
        <ele>377.6</ele>
        <time>2019-02-24T14:13:39Z</time>
      </trkpt>
      <trkpt lat="46.4969130" lon="6.7041650">
        <ele>379.2</ele>
        <time>2019-02-24T14:13:40Z</time>
      </trkpt>
      <trkpt lat="46.4969450" lon="6.7041020">
        <ele>380.8</ele>
        <time>2019-02-24T14:13:41Z</time>
      </trkpt>
      <trkpt lat="46.4969770" lon="6.7040390">
        <ele>382.4</ele>
        <time>2019-02-24T14:13:42Z</time>
      </trkpt>
      <trkpt lat="46.4970080" lon="6.7039750">
        <ele>384.0</ele>
        <time>2019-02-24T14:13:43Z</time>
      </trkpt>
      <trkpt lat="46.4970400" lon="6.7039100">
        <ele>385.6</ele>
        <time>2019-02-24T14:13:44Z</time>
      </trkpt>
      <trkpt lat="46.4970710" lon="6.7038450">
        <ele>387.2</ele>
        <time>2019-02-24T14:13:45Z</time>
      </trkpt>
      <trkpt lat="46.4971010" lon="6.7037790">
        <ele>388.8</ele>
        <time>2019-02-24T14:13:46Z</time>
      </trkpt>
      <trkpt lat="46.4971300" lon="6.7037120">
        <ele>390.4</ele>
        <time>2019-02-24T14:13:47Z</time>
      </trkpt>
      <trkpt lat="46.4971590" lon="6.7036430">
        <ele>389.9</ele>
        <time>2019-02-24T14:13:48Z</time>
      </trkpt>
      <trkpt lat="46.4971860" lon="6.7035730">
        <ele>389.5</ele>
        <time>2019-02-24T14:13:49Z</time>
      </trkpt>
      <trkpt lat="46.4972120" lon="6.7035020">
        <ele>389.1</ele>
        <time>2019-02-24T14:13:50Z</time>
      </trkpt>
      <trkpt lat="46.4972380" lon="6.7034290">
        <ele>388.6</ele>
        <time>2019-02-24T14:13:51Z</time>
      </trkpt>
      <trkpt lat="46.4972630" lon="6.7033550">
        <ele>388.2</ele>
        <time>2019-02-24T14:13:52Z</time>
      </trkpt>
      <trkpt lat="46.4972890" lon="6.7032810">
        <ele>387.9</ele>
        <time>2019-02-24T14:13:53Z</time>
      </trkpt>
      <trkpt lat="46.4973160" lon="6.7032060">
        <ele>387.6</ele>
        <time>2019-02-24T14:13:54Z</time>
      </trkpt>
      <trkpt lat="46.4973450" lon="6.7031300">
        <ele>387.2</ele>
        <time>2019-02-24T14:13:55Z</time>
      </trkpt>
      <trkpt lat="46.4973740" lon="6.7030530">
        <ele>386.9</ele>
        <time>2019-02-24T14:13:56Z</time>
      </trkpt>
      <trkpt lat="46.4974030" lon="6.7029760">
        <ele>386.6</ele>
        <time>2019-02-24T14:13:57Z</time>
      </trkpt>
      <trkpt lat="46.4974330" lon="6.7028980">
        <ele>386.3</ele>
        <time>2019-02-24T14:13:58Z</time>
      </trkpt>
      <trkpt lat="46.4974630" lon="6.7028190">
        <ele>386.0</ele>
        <time>2019-02-24T14:13:59Z</time>
      </trkpt>
      <trkpt lat="46.4974920" lon="6.7027400">
        <ele>385.6</ele>
        <time>2019-02-24T14:14:00Z</time>
      </trkpt>
      <trkpt lat="46.4975220" lon="6.7026610">
        <ele>385.3</ele>
        <time>2019-02-24T14:14:01Z</time>
      </trkpt>
      <trkpt lat="46.4975510" lon="6.7025840">
        <ele>384.9</ele>
        <time>2019-02-24T14:14:02Z</time>
      </trkpt>
      <trkpt lat="46.4975810" lon="6.7025070">
        <ele>384.6</ele>
        <time>2019-02-24T14:14:03Z</time>
      </trkpt>
      <trkpt lat="46.4976100" lon="6.7024310">
        <ele>384.3</ele>
        <time>2019-02-24T14:14:04Z</time>
      </trkpt>
      <trkpt lat="46.4976400" lon="6.7023550">
        <ele>384.0</ele>
        <time>2019-02-24T14:14:05Z</time>
      </trkpt>
      <trkpt lat="46.4976710" lon="6.7022790">
        <ele>383.6</ele>
        <time>2019-02-24T14:14:06Z</time>
      </trkpt>
      <trkpt lat="46.4977020" lon="6.7022030">
        <ele>383.3</ele>
        <time>2019-02-24T14:14:07Z</time>
      </trkpt>
      <trkpt lat="46.4977350" lon="6.7021290">
        <ele>383.0</ele>
        <time>2019-02-24T14:14:08Z</time>
      </trkpt>
      <trkpt lat="46.4977680" lon="6.7020570">
        <ele>382.6</ele>
        <time>2019-02-24T14:14:09Z</time>
      </trkpt>
      <trkpt lat="46.4978030" lon="6.7019880">
        <ele>382.3</ele>
        <time>2019-02-24T14:14:10Z</time>
      </trkpt>
      <trkpt lat="46.4978400" lon="6.7019220">
        <ele>381.9</ele>
        <time>2019-02-24T14:14:11Z</time>
      </trkpt>
      <trkpt lat="46.4978770" lon="6.7018580">
        <ele>381.5</ele>
        <time>2019-02-24T14:14:12Z</time>
      </trkpt>
      <trkpt lat="46.4979160" lon="6.7017960">
        <ele>381.2</ele>
        <time>2019-02-24T14:14:13Z</time>
      </trkpt>
      <trkpt lat="46.4979560" lon="6.7017350">
        <ele>380.9</ele>
        <time>2019-02-24T14:14:14Z</time>
      </trkpt>
      <trkpt lat="46.4979970" lon="6.7016760">
        <ele>380.5</ele>
        <time>2019-02-24T14:14:15Z</time>
      </trkpt>
      <trkpt lat="46.4980380" lon="6.7016170">
        <ele>380.2</ele>
        <time>2019-02-24T14:14:16Z</time>
      </trkpt>
      <trkpt lat="46.4980790" lon="6.7015600">
        <ele>379.9</ele>
        <time>2019-02-24T14:14:17Z</time>
      </trkpt>
      <trkpt lat="46.4981200" lon="6.7015030">
        <ele>380.2</ele>
        <time>2019-02-24T14:14:18Z</time>
      </trkpt>
      <trkpt lat="46.4981600" lon="6.7014470">
        <ele>380.4</ele>
        <time>2019-02-24T14:14:19Z</time>
      </trkpt>
      <trkpt lat="46.4982000" lon="6.7013910">
        <ele>380.6</ele>
        <time>2019-02-24T14:14:20Z</time>
      </trkpt>
      <trkpt lat="46.4982390" lon="6.7013350">
        <ele>380.8</ele>
        <time>2019-02-24T14:14:21Z</time>
      </trkpt>
      <trkpt lat="46.4982770" lon="6.7012790">
        <ele>382.8</ele>
        <time>2019-02-24T14:14:22Z</time>
      </trkpt>
      <trkpt lat="46.4983140" lon="6.7012220">
        <ele>385.0</ele>
        <time>2019-02-24T14:14:23Z</time>
      </trkpt>
      <trkpt lat="46.4983490" lon="6.7011650">
        <ele>385.2</ele>
        <time>2019-02-24T14:14:24Z</time>
      </trkpt>
      <trkpt lat="46.4983830" lon="6.7011080">
        <ele>387.4</ele>
        <time>2019-02-24T14:14:25Z</time>
      </trkpt>
      <trkpt lat="46.4984170" lon="6.7010490">
        <ele>387.4</ele>
        <time>2019-02-24T14:14:26Z</time>
      </trkpt>
      <trkpt lat="46.4984490" lon="6.7009880">
        <ele>387.4</ele>
        <time>2019-02-24T14:14:27Z</time>
      </trkpt>
      <trkpt lat="46.4984810" lon="6.7009260">
        <ele>391.5</ele>
        <time>2019-02-24T14:14:28Z</time>
      </trkpt>
      <trkpt lat="46.4985120" lon="6.7008630">
        <ele>393.3</ele>
        <time>2019-02-24T14:14:29Z</time>
      </trkpt>
      <trkpt lat="46.4985420" lon="6.7007970">
        <ele>395.2</ele>
        <time>2019-02-24T14:14:30Z</time>
      </trkpt>
      <trkpt lat="46.4985710" lon="6.7007290">
        <ele>397.2</ele>
        <time>2019-02-24T14:14:31Z</time>
      </trkpt>
      <trkpt lat="46.4985990" lon="6.7006590">
        <ele>399.1</ele>
        <time>2019-02-24T14:14:32Z</time>
      </trkpt>
      <trkpt lat="46.4986260" lon="6.7005880">
        <ele>401.1</ele>
        <time>2019-02-24T14:14:33Z</time>
      </trkpt>
      <trkpt lat="46.4986520" lon="6.7005150">
        <ele>400.8</ele>
        <time>2019-02-24T14:14:34Z</time>
      </trkpt>
      <trkpt lat="46.4986770" lon="6.7004420">
        <ele>400.6</ele>
        <time>2019-02-24T14:14:35Z</time>
      </trkpt>
      <trkpt lat="46.4987000" lon="6.7003670">
        <ele>400.4</ele>
        <time>2019-02-24T14:14:36Z</time>
      </trkpt>
      <trkpt lat="46.4987220" lon="6.7002920">
        <ele>400.2</ele>
        <time>2019-02-24T14:14:37Z</time>
      </trkpt>
      <trkpt lat="46.4987430" lon="6.7002160">
        <ele>400.0</ele>
        <time>2019-02-24T14:14:38Z</time>
      </trkpt>
      <trkpt lat="46.4987630" lon="6.7001400">
        <ele>399.7</ele>
        <time>2019-02-24T14:14:39Z</time>
      </trkpt>
      <trkpt lat="46.4987810" lon="6.7000640">
        <ele>399.4</ele>
        <time>2019-02-24T14:14:40Z</time>
      </trkpt>
      <trkpt lat="46.4987990" lon="6.6999870">
        <ele>399.0</ele>
        <time>2019-02-24T14:14:41Z</time>
      </trkpt>
      <trkpt lat="46.4988160" lon="6.6999090">
        <ele>399.2</ele>
        <time>2019-02-24T14:14:42Z</time>
      </trkpt>
      <trkpt lat="46.4988320" lon="6.6998310">
        <ele>399.3</ele>
        <time>2019-02-24T14:14:43Z</time>
      </trkpt>
      <trkpt lat="46.4988480" lon="6.6997530">
        <ele>399.4</ele>
        <time>2019-02-24T14:14:44Z</time>
      </trkpt>
      <trkpt lat="46.4988640" lon="6.6996740">
        <ele>399.6</ele>
        <time>2019-02-24T14:14:45Z</time>
      </trkpt>
      <trkpt lat="46.4988800" lon="6.6995950">
        <ele>399.8</ele>
        <time>2019-02-24T14:14:46Z</time>
      </trkpt>
      <trkpt lat="46.4988970" lon="6.6995150">
        <ele>400.0</ele>
        <time>2019-02-24T14:14:47Z</time>
      </trkpt>
      <trkpt lat="46.4989130" lon="6.6994360">
        <ele>400.3</ele>
        <time>2019-02-24T14:14:48Z</time>
      </trkpt>
      <trkpt lat="46.4989310" lon="6.6993560">
        <ele>400.6</ele>
        <time>2019-02-24T14:14:49Z</time>
      </trkpt>
      <trkpt lat="46.4989490" lon="6.6992770">
        <ele>400.9</ele>
        <time>2019-02-24T14:14:50Z</time>
      </trkpt>
      <trkpt lat="46.4989670" lon="6.6991990">
        <ele>401.1</ele>
        <time>2019-02-24T14:14:51Z</time>
      </trkpt>
      <trkpt lat="46.4989870" lon="6.6991210">
        <ele>398.4</ele>
        <time>2019-02-24T14:14:52Z</time>
      </trkpt>
      <trkpt lat="46.4990080" lon="6.6990440">
        <ele>397.0</ele>
        <time>2019-02-24T14:14:53Z</time>
      </trkpt>
      <trkpt lat="46.4990310" lon="6.6989680">
        <ele>395.7</ele>
        <time>2019-02-24T14:14:54Z</time>
      </trkpt>
      <trkpt lat="46.4990540" lon="6.6988930">
        <ele>394.6</ele>
        <time>2019-02-24T14:14:55Z</time>
      </trkpt>
      <trkpt lat="46.4990790" lon="6.6988180">
        <ele>393.5</ele>
        <time>2019-02-24T14:14:56Z</time>
      </trkpt>
      <trkpt lat="46.4991040" lon="6.6987440">
        <ele>392.3</ele>
        <time>2019-02-24T14:14:57Z</time>
      </trkpt>
      <trkpt lat="46.4991310" lon="6.6986700">
        <ele>391.0</ele>
        <time>2019-02-24T14:14:58Z</time>
      </trkpt>
      <trkpt lat="46.4991580" lon="6.6985950">
        <ele>389.6</ele>
        <time>2019-02-24T14:14:59Z</time>
      </trkpt>
      <trkpt lat="46.4991860" lon="6.6985190">
        <ele>388.4</ele>
        <time>2019-02-24T14:15:00Z</time>
      </trkpt>
      <trkpt lat="46.4992150" lon="6.6984430">
        <ele>387.4</ele>
        <time>2019-02-24T14:15:01Z</time>
      </trkpt>
      <trkpt lat="46.4992440" lon="6.6983650">
        <ele>386.3</ele>
        <time>2019-02-24T14:15:02Z</time>
      </trkpt>
      <trkpt lat="46.4992740" lon="6.6982860">
        <ele>385.1</ele>
        <time>2019-02-24T14:15:03Z</time>
      </trkpt>
      <trkpt lat="46.4993040" lon="6.6982060">
        <ele>383.7</ele>
        <time>2019-02-24T14:15:04Z</time>
      </trkpt>
      <trkpt lat="46.4993350" lon="6.6981250">
        <ele>382.0</ele>
        <time>2019-02-24T14:15:05Z</time>
      </trkpt>
      <trkpt lat="46.4993650" lon="6.6980440">
        <ele>380.5</ele>
        <time>2019-02-24T14:15:06Z</time>
      </trkpt>
      <trkpt lat="46.4993960" lon="6.6979620">
        <ele>379.4</ele>
        <time>2019-02-24T14:15:07Z</time>
      </trkpt>
      <trkpt lat="46.4994270" lon="6.6978800">
        <ele>378.1</ele>
        <time>2019-02-24T14:15:08Z</time>
      </trkpt>
      <trkpt lat="46.4994580" lon="6.6977980">
        <ele>376.8</ele>
        <time>2019-02-24T14:15:09Z</time>
      </trkpt>
      <trkpt lat="46.4994880" lon="6.6977160">
        <ele>375.6</ele>
        <time>2019-02-24T14:15:10Z</time>
      </trkpt>
      <trkpt lat="46.4995190" lon="6.6976340">
        <ele>373.8</ele>
        <time>2019-02-24T14:15:11Z</time>
      </trkpt>
      <trkpt lat="46.4995500" lon="6.6975520">
        <ele>373.4</ele>
        <time>2019-02-24T14:15:12Z</time>
      </trkpt>
      <trkpt lat="46.4995800" lon="6.6974710">
        <ele>373.0</ele>
        <time>2019-02-24T14:15:13Z</time>
      </trkpt>
      <trkpt lat="46.4996100" lon="6.6973910">
        <ele>372.6</ele>
        <time>2019-02-24T14:15:14Z</time>
      </trkpt>
      <trkpt lat="46.4996390" lon="6.6973110">
        <ele>372.1</ele>
        <time>2019-02-24T14:15:15Z</time>
      </trkpt>
      <trkpt lat="46.4996680" lon="6.6972330">
        <ele>371.6</ele>
        <time>2019-02-24T14:15:16Z</time>
      </trkpt>
      <trkpt lat="46.4996970" lon="6.6971560">
        <ele>371.1</ele>
        <time>2019-02-24T14:15:17Z</time>
      </trkpt>
      <trkpt lat="46.4997250" lon="6.6970800">
        <ele>370.6</ele>
        <time>2019-02-24T14:15:18Z</time>
      </trkpt>
      <trkpt lat="46.4997520" lon="6.6970050">
        <ele>370.1</ele>
        <time>2019-02-24T14:15:19Z</time>
      </trkpt>
      <trkpt lat="46.4997790" lon="6.6969320">
        <ele>369.7</ele>
        <time>2019-02-24T14:15:20Z</time>
      </trkpt>
      <trkpt lat="46.4998050" lon="6.6968600">
        <ele>369.3</ele>
        <time>2019-02-24T14:15:21Z</time>
      </trkpt>
      <trkpt lat="46.4998310" lon="6.6967890">
        <ele>368.9</ele>
        <time>2019-02-24T14:15:22Z</time>
      </trkpt>
      <trkpt lat="46.4998560" lon="6.6967190">
        <ele>368.8</ele>
        <time>2019-02-24T14:15:23Z</time>
      </trkpt>
      <trkpt lat="46.4998810" lon="6.6966500">
        <ele>368.8</ele>
        <time>2019-02-24T14:15:24Z</time>
      </trkpt>
      <trkpt lat="46.4999060" lon="6.6965810">
        <ele>368.7</ele>
        <time>2019-02-24T14:15:25Z</time>
      </trkpt>
      <trkpt lat="46.4999310" lon="6.6965120">
        <ele>368.7</ele>
        <time>2019-02-24T14:15:26Z</time>
      </trkpt>
      <trkpt lat="46.4999560" lon="6.6964440">
        <ele>368.9</ele>
        <time>2019-02-24T14:15:27Z</time>
      </trkpt>
      <trkpt lat="46.4999800" lon="6.6963760">
        <ele>369.5</ele>
        <time>2019-02-24T14:15:28Z</time>
      </trkpt>
      <trkpt lat="46.5000060" lon="6.6963090">
        <ele>370.0</ele>
        <time>2019-02-24T14:15:29Z</time>
      </trkpt>
      <trkpt lat="46.5000320" lon="6.6962430">
        <ele>370.6</ele>
        <time>2019-02-24T14:15:30Z</time>
      </trkpt>
      <trkpt lat="46.5000590" lon="6.6961790">
        <ele>371.6</ele>
        <time>2019-02-24T14:15:31Z</time>
      </trkpt>
      <trkpt lat="46.5000860" lon="6.6961160">
        <ele>372.2</ele>
        <time>2019-02-24T14:15:32Z</time>
      </trkpt>
      <trkpt lat="46.5001120" lon="6.6960520">
        <ele>372.8</ele>
        <time>2019-02-24T14:15:33Z</time>
      </trkpt>
      <trkpt lat="46.5001370" lon="6.6959880">
        <ele>373.4</ele>
        <time>2019-02-24T14:15:34Z</time>
      </trkpt>
      <trkpt lat="46.5001600" lon="6.6959230">
        <ele>373.9</ele>
        <time>2019-02-24T14:15:35Z</time>
      </trkpt>
      <trkpt lat="46.5001810" lon="6.6958560">
        <ele>374.5</ele>
        <time>2019-02-24T14:15:36Z</time>
      </trkpt>
      <trkpt lat="46.5002010" lon="6.6957880">
        <ele>375.3</ele>
        <time>2019-02-24T14:15:37Z</time>
      </trkpt>
      <trkpt lat="46.5002190" lon="6.6957180">
        <ele>375.4</ele>
        <time>2019-02-24T14:15:38Z</time>
      </trkpt>
      <trkpt lat="46.5002360" lon="6.6956480">
        <ele>375.4</ele>
        <time>2019-02-24T14:15:39Z</time>
      </trkpt>
      <trkpt lat="46.5002510" lon="6.6955770">
        <ele>375.4</ele>
        <time>2019-02-24T14:15:40Z</time>
      </trkpt>
      <trkpt lat="46.5002670" lon="6.6955060">
        <ele>375.5</ele>
        <time>2019-02-24T14:15:41Z</time>
      </trkpt>
      <trkpt lat="46.5002810" lon="6.6954340">
        <ele>375.5</ele>
        <time>2019-02-24T14:15:42Z</time>
      </trkpt>
      <trkpt lat="46.5002960" lon="6.6953620">
        <ele>375.6</ele>
        <time>2019-02-24T14:15:43Z</time>
      </trkpt>
      <trkpt lat="46.5003100" lon="6.6952900">
        <ele>375.6</ele>
        <time>2019-02-24T14:15:44Z</time>
      </trkpt>
      <trkpt lat="46.5003240" lon="6.6952170">
        <ele>375.7</ele>
        <time>2019-02-24T14:15:45Z</time>
      </trkpt>
      <trkpt lat="46.5003380" lon="6.6951450">
        <ele>375.7</ele>
        <time>2019-02-24T14:15:46Z</time>
      </trkpt>
      <trkpt lat="46.5003520" lon="6.6950720">
        <ele>375.8</ele>
        <time>2019-02-24T14:15:47Z</time>
      </trkpt>
      <trkpt lat="46.5003660" lon="6.6949990">
        <ele>375.9</ele>
        <time>2019-02-24T14:15:48Z</time>
      </trkpt>
      <trkpt lat="46.5003790" lon="6.6949260">
        <ele>376.0</ele>
        <time>2019-02-24T14:15:49Z</time>
      </trkpt>
      <trkpt lat="46.5003930" lon="6.6948530">
        <ele>376.1</ele>
        <time>2019-02-24T14:15:50Z</time>
      </trkpt>
      <trkpt lat="46.5004060" lon="6.6947800">
        <ele>376.2</ele>
        <time>2019-02-24T14:15:51Z</time>
      </trkpt>
      <trkpt lat="46.5004200" lon="6.6947060">
        <ele>375.2</ele>
        <time>2019-02-24T14:15:52Z</time>
      </trkpt>
      <trkpt lat="46.5004330" lon="6.6946330">
        <ele>374.7</ele>
        <time>2019-02-24T14:15:53Z</time>
      </trkpt>
      <trkpt lat="46.5004460" lon="6.6945600">
        <ele>374.1</ele>
        <time>2019-02-24T14:15:54Z</time>
      </trkpt>
      <trkpt lat="46.5004590" lon="6.6944860">
        <ele>373.1</ele>
        <time>2019-02-24T14:15:55Z</time>
      </trkpt>
      <trkpt lat="46.5004710" lon="6.6944120">
        <ele>372.9</ele>
        <time>2019-02-24T14:15:56Z</time>
      </trkpt>
      <trkpt lat="46.5004830" lon="6.6943380">
        <ele>372.7</ele>
        <time>2019-02-24T14:15:57Z</time>
      </trkpt>
      <trkpt lat="46.5004950" lon="6.6942640">
        <ele>372.5</ele>
        <time>2019-02-24T14:15:58Z</time>
      </trkpt>
      <trkpt lat="46.5005060" lon="6.6941900">
        <ele>372.3</ele>
        <time>2019-02-24T14:15:59Z</time>
      </trkpt>
      <trkpt lat="46.5005160" lon="6.6941150">
        <ele>372.1</ele>
        <time>2019-02-24T14:16:00Z</time>
      </trkpt>
      <trkpt lat="46.5005260" lon="6.6940400">
        <ele>372.0</ele>
        <time>2019-02-24T14:16:01Z</time>
      </trkpt>
      <trkpt lat="46.5005350" lon="6.6939640">
        <ele>371.8</ele>
        <time>2019-02-24T14:16:02Z</time>
      </trkpt>
      <trkpt lat="46.5005440" lon="6.6938880">
        <ele>371.4</ele>
        <time>2019-02-24T14:16:03Z</time>
      </trkpt>
      <trkpt lat="46.5005520" lon="6.6938120">
        <ele>371.6</ele>
        <time>2019-02-24T14:16:04Z</time>
      </trkpt>
      <trkpt lat="46.5005580" lon="6.6937350">
        <ele>371.8</ele>
        <time>2019-02-24T14:16:05Z</time>
      </trkpt>
      <trkpt lat="46.5005640" lon="6.6936580">
        <ele>372.0</ele>
        <time>2019-02-24T14:16:06Z</time>
      </trkpt>
      <trkpt lat="46.5005690" lon="6.6935800">
        <ele>372.1</ele>
        <time>2019-02-24T14:16:07Z</time>
      </trkpt>
      <trkpt lat="46.5005730" lon="6.6935020">
        <ele>372.3</ele>
        <time>2019-02-24T14:16:08Z</time>
      </trkpt>
      <trkpt lat="46.5005770" lon="6.6934240">
        <ele>372.5</ele>
        <time>2019-02-24T14:16:09Z</time>
      </trkpt>
      <trkpt lat="46.5005800" lon="6.6933460">
        <ele>372.6</ele>
        <time>2019-02-24T14:16:10Z</time>
      </trkpt>
      <trkpt lat="46.5005830" lon="6.6932680">
        <ele>372.7</ele>
        <time>2019-02-24T14:16:11Z</time>
      </trkpt>
      <trkpt lat="46.5005850" lon="6.6931900">
        <ele>372.9</ele>
        <time>2019-02-24T14:16:12Z</time>
      </trkpt>
      <trkpt lat="46.5005880" lon="6.6931130">
        <ele>373.0</ele>
        <time>2019-02-24T14:16:13Z</time>
      </trkpt>
      <trkpt lat="46.5005910" lon="6.6930370">
        <ele>373.1</ele>
        <time>2019-02-24T14:16:14Z</time>
      </trkpt>
      <trkpt lat="46.5005940" lon="6.6929610">
        <ele>373.2</ele>
        <time>2019-02-24T14:16:15Z</time>
      </trkpt>
      <trkpt lat="46.5005970" lon="6.6928860">
        <ele>373.2</ele>
        <time>2019-02-24T14:16:16Z</time>
      </trkpt>
      <trkpt lat="46.5006010" lon="6.6928120">
        <ele>373.3</ele>
        <time>2019-02-24T14:16:17Z</time>
      </trkpt>
      <trkpt lat="46.5006050" lon="6.6927390">
        <ele>373.8</ele>
        <time>2019-02-24T14:16:18Z</time>
      </trkpt>
      <trkpt lat="46.5006090" lon="6.6926650">
        <ele>374.2</ele>
        <time>2019-02-24T14:16:19Z</time>
      </trkpt>
      <trkpt lat="46.5006140" lon="6.6925920">
        <ele>374.7</ele>
        <time>2019-02-24T14:16:20Z</time>
      </trkpt>
      <trkpt lat="46.5006190" lon="6.6925190">
        <ele>375.0</ele>
        <time>2019-02-24T14:16:21Z</time>
      </trkpt>
      <trkpt lat="46.5006230" lon="6.6924470">
        <ele>374.8</ele>
        <time>2019-02-24T14:16:22Z</time>
      </trkpt>
      <trkpt lat="46.5006280" lon="6.6923730">
        <ele>374.5</ele>
        <time>2019-02-24T14:16:23Z</time>
      </trkpt>
      <trkpt lat="46.5006330" lon="6.6923000">
        <ele>374.3</ele>
        <time>2019-02-24T14:16:24Z</time>
      </trkpt>
      <trkpt lat="46.5006390" lon="6.6922270">
        <ele>374.0</ele>
        <time>2019-02-24T14:16:25Z</time>
      </trkpt>
      <trkpt lat="46.5006450" lon="6.6921540">
        <ele>373.7</ele>
        <time>2019-02-24T14:16:26Z</time>
      </trkpt>
      <trkpt lat="46.5006530" lon="6.6920810">
        <ele>373.4</ele>
        <time>2019-02-24T14:16:27Z</time>
      </trkpt>
      <trkpt lat="46.5006610" lon="6.6920080">
        <ele>373.4</ele>
        <time>2019-02-24T14:16:28Z</time>
      </trkpt>
      <trkpt lat="46.5006710" lon="6.6919350">
        <ele>373.3</ele>
        <time>2019-02-24T14:16:29Z</time>
      </trkpt>
      <trkpt lat="46.5006820" lon="6.6918630">
        <ele>373.3</ele>
        <time>2019-02-24T14:16:30Z</time>
      </trkpt>
      <trkpt lat="46.5006950" lon="6.6917910">
        <ele>373.3</ele>
        <time>2019-02-24T14:16:31Z</time>
      </trkpt>
      <trkpt lat="46.5007090" lon="6.6917190">
        <ele>373.2</ele>
        <time>2019-02-24T14:16:32Z</time>
      </trkpt>
      <trkpt lat="46.5007250" lon="6.6916460">
        <ele>373.2</ele>
        <time>2019-02-24T14:16:33Z</time>
      </trkpt>
      <trkpt lat="46.5007420" lon="6.6915740">
        <ele>373.1</ele>
        <time>2019-02-24T14:16:34Z</time>
      </trkpt>
      <trkpt lat="46.5007590" lon="6.6915010">
        <ele>373.0</ele>
        <time>2019-02-24T14:16:35Z</time>
      </trkpt>
      <trkpt lat="46.5007770" lon="6.6914280">
        <ele>373.0</ele>
        <time>2019-02-24T14:16:36Z</time>
      </trkpt>
      <trkpt lat="46.5007950" lon="6.6913540">
        <ele>372.9</ele>
        <time>2019-02-24T14:16:37Z</time>
      </trkpt>
      <trkpt lat="46.5008130" lon="6.6912800">
        <ele>372.7</ele>
        <time>2019-02-24T14:16:38Z</time>
      </trkpt>
      <trkpt lat="46.5008300" lon="6.6912040">
        <ele>372.6</ele>
        <time>2019-02-24T14:16:39Z</time>
      </trkpt>
      <trkpt lat="46.5008480" lon="6.6911290">
        <ele>372.6</ele>
        <time>2019-02-24T14:16:40Z</time>
      </trkpt>
      <trkpt lat="46.5008660" lon="6.6910550">
        <ele>372.6</ele>
        <time>2019-02-24T14:16:41Z</time>
      </trkpt>
      <trkpt lat="46.5008840" lon="6.6909840">
        <ele>372.6</ele>
        <time>2019-02-24T14:16:42Z</time>
      </trkpt>
      <trkpt lat="46.5009040" lon="6.6909170">
        <ele>372.6</ele>
        <time>2019-02-24T14:16:43Z</time>
      </trkpt>
      <trkpt lat="46.5009240" lon="6.6908540">
        <ele>372.7</ele>
        <time>2019-02-24T14:16:44Z</time>
      </trkpt>
      <trkpt lat="46.5009440" lon="6.6907920">
        <ele>372.7</ele>
        <time>2019-02-24T14:16:45Z</time>
      </trkpt>
      <trkpt lat="46.5009660" lon="6.6907310">
        <ele>372.7</ele>
        <time>2019-02-24T14:16:46Z</time>
      </trkpt>
      <trkpt lat="46.5009880" lon="6.6906710">
        <ele>372.8</ele>
        <time>2019-02-24T14:16:47Z</time>
      </trkpt>
      <trkpt lat="46.5010110" lon="6.6906110">
        <ele>372.8</ele>
        <time>2019-02-24T14:16:48Z</time>
      </trkpt>
      <trkpt lat="46.5010350" lon="6.6905520">
        <ele>372.9</ele>
        <time>2019-02-24T14:16:49Z</time>
      </trkpt>
      <trkpt lat="46.5010610" lon="6.6904940">
        <ele>372.9</ele>
        <time>2019-02-24T14:16:50Z</time>
      </trkpt>
      <trkpt lat="46.5010890" lon="6.6904370">
        <ele>373.0</ele>
        <time>2019-02-24T14:16:51Z</time>
      </trkpt>
      <trkpt lat="46.5011190" lon="6.6903830">
        <ele>373.0</ele>
        <time>2019-02-24T14:16:52Z</time>
      </trkpt>
      <trkpt lat="46.5011500" lon="6.6903310">
        <ele>372.9</ele>
        <time>2019-02-24T14:16:53Z</time>
      </trkpt>
      <trkpt lat="46.5011820" lon="6.6902800">
        <ele>372.8</ele>
        <time>2019-02-24T14:16:54Z</time>
      </trkpt>
      <trkpt lat="46.5012140" lon="6.6902320">
        <ele>372.7</ele>
        <time>2019-02-24T14:16:55Z</time>
      </trkpt>
      <trkpt lat="46.5012470" lon="6.6901860">
        <ele>372.5</ele>
        <time>2019-02-24T14:16:56Z</time>
      </trkpt>
      <trkpt lat="46.5012790" lon="6.6901420">
        <ele>372.4</ele>
        <time>2019-02-24T14:16:57Z</time>
      </trkpt>
      <trkpt lat="46.5013120" lon="6.6901000">
        <ele>372.2</ele>
        <time>2019-02-24T14:16:58Z</time>
      </trkpt>
      <trkpt lat="46.5013440" lon="6.6900580">
        <ele>372.0</ele>
        <time>2019-02-24T14:16:59Z</time>
      </trkpt>
      <trkpt lat="46.5013760" lon="6.6900190">
        <ele>371.8</ele>
        <time>2019-02-24T14:17:00Z</time>
      </trkpt>
      <trkpt lat="46.5014080" lon="6.6899830">
        <ele>371.8</ele>
        <time>2019-02-24T14:17:01Z</time>
      </trkpt>
      <trkpt lat="46.5014380" lon="6.6899520">
        <ele>371.8</ele>
        <time>2019-02-24T14:17:02Z</time>
      </trkpt>
      <trkpt lat="46.5014680" lon="6.6899270">
        <ele>371.9</ele>
        <time>2019-02-24T14:17:03Z</time>
      </trkpt>
      <trkpt lat="46.5014970" lon="6.6899050">
        <ele>372.0</ele>
        <time>2019-02-24T14:17:04Z</time>
      </trkpt>
      <trkpt lat="46.5015260" lon="6.6898880">
        <ele>372.0</ele>
        <time>2019-02-24T14:17:05Z</time>
      </trkpt>
      <trkpt lat="46.5015550" lon="6.6898720">
        <ele>372.0</ele>
        <time>2019-02-24T14:17:06Z</time>
      </trkpt>
      <trkpt lat="46.5015840" lon="6.6898570">
        <ele>372.1</ele>
        <time>2019-02-24T14:17:07Z</time>
      </trkpt>
      <trkpt lat="46.5016120" lon="6.6898390">
        <ele>372.1</ele>
        <time>2019-02-24T14:17:08Z</time>
      </trkpt>
      <trkpt lat="46.5016380" lon="6.6898180">
        <ele>372.1</ele>
        <time>2019-02-24T14:17:09Z</time>
      </trkpt>
      <trkpt lat="46.5016620" lon="6.6897880">
        <ele>372.1</ele>
        <time>2019-02-24T14:17:10Z</time>
      </trkpt>
      <trkpt lat="46.5016820" lon="6.6897490">
        <ele>372.1</ele>
        <time>2019-02-24T14:17:11Z</time>
      </trkpt>
      <trkpt lat="46.5017000" lon="6.6897030">
        <ele>372.1</ele>
        <time>2019-02-24T14:17:12Z</time>
      </trkpt>
      <trkpt lat="46.5017170" lon="6.6896510">
        <ele>372.1</ele>
        <time>2019-02-24T14:17:13Z</time>
      </trkpt>
      <trkpt lat="46.5017500" lon="6.6895600">
        <ele>372.1</ele>
        <time>2019-02-24T14:17:14Z</time>
      </trkpt>
      <trkpt lat="46.5017650" lon="6.6895240">
        <ele>372.1</ele>
        <time>2019-02-24T14:17:15Z</time>
      </trkpt>
      <trkpt lat="46.5017800" lon="6.6894880">
        <ele>372.3</ele>
        <time>2019-02-24T14:17:16Z</time>
      </trkpt>
      <trkpt lat="46.5018060" lon="6.6894360">
        <ele>372.4</ele>
        <time>2019-02-24T14:17:17Z</time>
      </trkpt>
      <trkpt lat="46.5018350" lon="6.6893870">
        <ele>372.5</ele>
        <time>2019-02-24T14:17:18Z</time>
      </trkpt>
      <trkpt lat="46.5018840" lon="6.6893100">
        <ele>372.7</ele>
        <time>2019-02-24T14:17:19Z</time>
      </trkpt>
      <trkpt lat="46.5019050" lon="6.6892800">
        <ele>372.7</ele>
        <time>2019-02-24T14:17:20Z</time>
      </trkpt>
      <trkpt lat="46.5019250" lon="6.6892500">
        <ele>372.8</ele>
        <time>2019-02-24T14:17:21Z</time>
      </trkpt>
      <trkpt lat="46.5019550" lon="6.6892060">
        <ele>372.8</ele>
        <time>2019-02-24T14:17:22Z</time>
      </trkpt>
      <trkpt lat="46.5019860" lon="6.6891630">
        <ele>372.8</ele>
        <time>2019-02-24T14:17:23Z</time>
      </trkpt>
      <trkpt lat="46.5020160" lon="6.6891180">
        <ele>372.9</ele>
        <time>2019-02-24T14:17:24Z</time>
      </trkpt>
      <trkpt lat="46.5020470" lon="6.6890730">
        <ele>372.9</ele>
        <time>2019-02-24T14:17:25Z</time>
      </trkpt>
      <trkpt lat="46.5020780" lon="6.6890270">
        <ele>372.9</ele>
        <time>2019-02-24T14:17:26Z</time>
      </trkpt>
      <trkpt lat="46.5021080" lon="6.6889810">
        <ele>372.9</ele>
        <time>2019-02-24T14:17:27Z</time>
      </trkpt>
      <trkpt lat="46.5021390" lon="6.6889350">
        <ele>373.1</ele>
        <time>2019-02-24T14:17:28Z</time>
      </trkpt>
      <trkpt lat="46.5021700" lon="6.6888890">
        <ele>373.3</ele>
        <time>2019-02-24T14:17:29Z</time>
      </trkpt>
      <trkpt lat="46.5022010" lon="6.6888430">
        <ele>373.6</ele>
        <time>2019-02-24T14:17:30Z</time>
      </trkpt>
      <trkpt lat="46.5022330" lon="6.6887970">
        <ele>373.8</ele>
        <time>2019-02-24T14:17:31Z</time>
      </trkpt>
      <trkpt lat="46.5022640" lon="6.6887510">
        <ele>374.0</ele>
        <time>2019-02-24T14:17:32Z</time>
      </trkpt>
      <trkpt lat="46.5022950" lon="6.6887050">
        <ele>374.2</ele>
        <time>2019-02-24T14:17:33Z</time>
      </trkpt>
      <trkpt lat="46.5023270" lon="6.6886590">
        <ele>374.4</ele>
        <time>2019-02-24T14:17:34Z</time>
      </trkpt>
      <trkpt lat="46.5023580" lon="6.6886120">
        <ele>374.6</ele>
        <time>2019-02-24T14:17:35Z</time>
      </trkpt>
      <trkpt lat="46.5023900" lon="6.6885660">
        <ele>374.8</ele>
        <time>2019-02-24T14:17:36Z</time>
      </trkpt>
      <trkpt lat="46.5024210" lon="6.6885200">
        <ele>375.0</ele>
        <time>2019-02-24T14:17:37Z</time>
      </trkpt>
      <trkpt lat="46.5024530" lon="6.6884740">
        <ele>375.2</ele>
        <time>2019-02-24T14:17:38Z</time>
      </trkpt>
      <trkpt lat="46.5024840" lon="6.6884280">
        <ele>375.7</ele>
        <time>2019-02-24T14:17:39Z</time>
      </trkpt>
      <trkpt lat="46.5025160" lon="6.6883820">
        <ele>376.1</ele>
        <time>2019-02-24T14:17:40Z</time>
      </trkpt>
      <trkpt lat="46.5025470" lon="6.6883350">
        <ele>376.5</ele>
        <time>2019-02-24T14:17:41Z</time>
      </trkpt>
      <trkpt lat="46.5025780" lon="6.6882890">
        <ele>376.9</ele>
        <time>2019-02-24T14:17:42Z</time>
      </trkpt>
      <trkpt lat="46.5026100" lon="6.6882430">
        <ele>377.3</ele>
        <time>2019-02-24T14:17:43Z</time>
      </trkpt>
      <trkpt lat="46.5026410" lon="6.6881980">
        <ele>377.7</ele>
        <time>2019-02-24T14:17:44Z</time>
      </trkpt>
      <trkpt lat="46.5026720" lon="6.6881520">
        <ele>378.2</ele>
        <time>2019-02-24T14:17:45Z</time>
      </trkpt>
      <trkpt lat="46.5027020" lon="6.6881060">
        <ele>378.6</ele>
        <time>2019-02-24T14:17:46Z</time>
      </trkpt>
      <trkpt lat="46.5027330" lon="6.6880600">
        <ele>379.1</ele>
        <time>2019-02-24T14:17:47Z</time>
      </trkpt>
      <trkpt lat="46.5027640" lon="6.6880150">
        <ele>379.5</ele>
        <time>2019-02-24T14:17:48Z</time>
      </trkpt>
      <trkpt lat="46.5027940" lon="6.6879700">
        <ele>379.8</ele>
        <time>2019-02-24T14:17:49Z</time>
      </trkpt>
      <trkpt lat="46.5028250" lon="6.6879240">
        <ele>380.3</ele>
        <time>2019-02-24T14:17:50Z</time>
      </trkpt>
      <trkpt lat="46.5028550" lon="6.6878790">
        <ele>380.7</ele>
        <time>2019-02-24T14:17:51Z</time>
      </trkpt>
      <trkpt lat="46.5028860" lon="6.6878340">
        <ele>381.2</ele>
        <time>2019-02-24T14:17:52Z</time>
      </trkpt>
      <trkpt lat="46.5029160" lon="6.6877900">
        <ele>381.8</ele>
        <time>2019-02-24T14:17:53Z</time>
      </trkpt>
      <trkpt lat="46.5029460" lon="6.6877450">
        <ele>382.4</ele>
        <time>2019-02-24T14:17:54Z</time>
      </trkpt>
      <trkpt lat="46.5029760" lon="6.6877000">
        <ele>383.0</ele>
        <time>2019-02-24T14:17:55Z</time>
      </trkpt>
      <trkpt lat="46.5030060" lon="6.6876560">
        <ele>383.6</ele>
        <time>2019-02-24T14:17:56Z</time>
      </trkpt>
      <trkpt lat="46.5030360" lon="6.6876120">
        <ele>384.3</ele>
        <time>2019-02-24T14:17:57Z</time>
      </trkpt>
      <trkpt lat="46.5030660" lon="6.6875680">
        <ele>385.0</ele>
        <time>2019-02-24T14:17:58Z</time>
      </trkpt>
      <trkpt lat="46.5030960" lon="6.6875250">
        <ele>385.7</ele>
        <time>2019-02-24T14:17:59Z</time>
      </trkpt>
      <trkpt lat="46.5031250" lon="6.6874810">
        <ele>386.3</ele>
        <time>2019-02-24T14:18:00Z</time>
      </trkpt>
      <trkpt lat="46.5031550" lon="6.6874380">
        <ele>387.0</ele>
        <time>2019-02-24T14:18:01Z</time>
      </trkpt>
      <trkpt lat="46.5031850" lon="6.6873950">
        <ele>387.6</ele>
        <time>2019-02-24T14:18:02Z</time>
      </trkpt>
      <trkpt lat="46.5032140" lon="6.6873520">
        <ele>388.2</ele>
        <time>2019-02-24T14:18:03Z</time>
      </trkpt>
      <trkpt lat="46.5032440" lon="6.6873090">
        <ele>388.8</ele>
        <time>2019-02-24T14:18:04Z</time>
      </trkpt>
      <trkpt lat="46.5032730" lon="6.6872660">
        <ele>389.4</ele>
        <time>2019-02-24T14:18:05Z</time>
      </trkpt>
      <trkpt lat="46.5033010" lon="6.6872230">
        <ele>390.0</ele>
        <time>2019-02-24T14:18:06Z</time>
      </trkpt>
      <trkpt lat="46.5033300" lon="6.6871800">
        <ele>390.4</ele>
        <time>2019-02-24T14:18:07Z</time>
      </trkpt>
      <trkpt lat="46.5033580" lon="6.6871360">
        <ele>390.8</ele>
        <time>2019-02-24T14:18:08Z</time>
      </trkpt>
      <trkpt lat="46.5033860" lon="6.6870930">
        <ele>390.6</ele>
        <time>2019-02-24T14:18:09Z</time>
      </trkpt>
      <trkpt lat="46.5034140" lon="6.6870490">
        <ele>390.4</ele>
        <time>2019-02-24T14:18:10Z</time>
      </trkpt>
      <trkpt lat="46.5034410" lon="6.6870050">
        <ele>390.3</ele>
        <time>2019-02-24T14:18:11Z</time>
      </trkpt>
      <trkpt lat="46.5034680" lon="6.6869600">
        <ele>390.1</ele>
        <time>2019-02-24T14:18:12Z</time>
      </trkpt>
      <trkpt lat="46.5034940" lon="6.6869150">
        <ele>390.3</ele>
        <time>2019-02-24T14:18:13Z</time>
      </trkpt>
      <trkpt lat="46.5035200" lon="6.6868690">
        <ele>390.4</ele>
        <time>2019-02-24T14:18:14Z</time>
      </trkpt>
      <trkpt lat="46.5035460" lon="6.6868230">
        <ele>390.6</ele>
        <time>2019-02-24T14:18:15Z</time>
      </trkpt>
      <trkpt lat="46.5035700" lon="6.6867770">
        <ele>390.7</ele>
        <time>2019-02-24T14:18:16Z</time>
      </trkpt>
      <trkpt lat="46.5035950" lon="6.6867290">
        <ele>390.9</ele>
        <time>2019-02-24T14:18:17Z</time>
      </trkpt>
      <trkpt lat="46.5036180" lon="6.6866810">
        <ele>390.6</ele>
        <time>2019-02-24T14:18:18Z</time>
      </trkpt>
      <trkpt lat="46.5036420" lon="6.6866330">
        <ele>390.4</ele>
        <time>2019-02-24T14:18:19Z</time>
      </trkpt>
      <trkpt lat="46.5036640" lon="6.6865830">
        <ele>390.2</ele>
        <time>2019-02-24T14:18:20Z</time>
      </trkpt>
      <trkpt lat="46.5036860" lon="6.6865330">
        <ele>390.0</ele>
        <time>2019-02-24T14:18:21Z</time>
      </trkpt>
      <trkpt lat="46.5037070" lon="6.6864820">
        <ele>389.8</ele>
        <time>2019-02-24T14:18:22Z</time>
      </trkpt>
      <trkpt lat="46.5037270" lon="6.6864310">
        <ele>389.6</ele>
        <time>2019-02-24T14:18:23Z</time>
      </trkpt>
      <trkpt lat="46.5037470" lon="6.6863780">
        <ele>389.2</ele>
        <time>2019-02-24T14:18:24Z</time>
      </trkpt>
      <trkpt lat="46.5037660" lon="6.6863250">
        <ele>388.8</ele>
        <time>2019-02-24T14:18:25Z</time>
      </trkpt>
      <trkpt lat="46.5037860" lon="6.6862710">
        <ele>388.3</ele>
        <time>2019-02-24T14:18:26Z</time>
      </trkpt>
      <trkpt lat="46.5038050" lon="6.6862180">
        <ele>387.9</ele>
        <time>2019-02-24T14:18:27Z</time>
      </trkpt>
      <trkpt lat="46.5038250" lon="6.6861650">
        <ele>387.4</ele>
        <time>2019-02-24T14:18:28Z</time>
      </trkpt>
      <trkpt lat="46.5038440" lon="6.6861160">
        <ele>387.0</ele>
        <time>2019-02-24T14:18:29Z</time>
      </trkpt>
      <trkpt lat="46.5038600" lon="6.6860730">
        <ele>386.7</ele>
        <time>2019-02-24T14:18:30Z</time>
      </trkpt>
      <trkpt lat="46.5038720" lon="6.6860410">
        <ele>386.4</ele>
        <time>2019-02-24T14:18:31Z</time>
      </trkpt>
      <trkpt lat="46.5038810" lon="6.6860170">
        <ele>386.2</ele>
        <time>2019-02-24T14:18:32Z</time>
      </trkpt>
      <trkpt lat="46.5038830" lon="6.6860140">
        <ele>386.2</ele>
        <time>2019-02-24T14:18:33Z</time>
      </trkpt>
      <trkpt lat="46.5038840" lon="6.6860100">
        <ele>386.1</ele>
        <time>2019-02-24T14:18:34Z</time>
      </trkpt>
      <trkpt lat="46.5038840" lon="6.6860080">
        <ele>386.1</ele>
        <time>2019-02-24T14:18:35Z</time>
      </trkpt>
      <trkpt lat="46.5038830" lon="6.6860080">
        <ele>386.1</ele>
        <time>2019-02-24T14:18:36Z</time>
      </trkpt>
      <trkpt lat="46.5038830" lon="6.6860080">
        <ele>386.1</ele>
        <time>2019-02-24T14:18:37Z</time>
      </trkpt>
      <trkpt lat="46.5038830" lon="6.6860080">
        <ele>386.1</ele>
        <time>2019-02-24T14:18:38Z</time>
      </trkpt>
      <trkpt lat="46.5038830" lon="6.6860080">
        <ele>386.1</ele>
        <time>2019-02-24T14:18:39Z</time>
      </trkpt>
      <trkpt lat="46.5038840" lon="6.6860080">
        <ele>386.1</ele>
        <time>2019-02-24T14:18:40Z</time>
      </trkpt>
      <trkpt lat="46.5038840" lon="6.6860080">
        <ele>386.1</ele>
        <time>2019-02-24T14:18:41Z</time>
      </trkpt>
      <trkpt lat="46.5038840" lon="6.6860080">
        <ele>386.1</ele>
        <time>2019-02-24T14:18:42Z</time>
      </trkpt>
      <trkpt lat="46.5038840" lon="6.6860080">
        <ele>386.1</ele>
        <time>2019-02-24T14:18:43Z</time>
      </trkpt>
      <trkpt lat="46.5038840" lon="6.6860080">
        <ele>386.1</ele>
        <time>2019-02-24T14:18:44Z</time>
      </trkpt>
      <trkpt lat="46.5038840" lon="6.6860080">
        <ele>386.1</ele>
        <time>2019-02-24T14:18:45Z</time>
      </trkpt>
      <trkpt lat="46.5038840" lon="6.6860080">
        <ele>386.1</ele>
        <time>2019-02-24T14:18:46Z</time>
      </trkpt>
      <trkpt lat="46.5038840" lon="6.6860080">
        <ele>386.1</ele>
        <time>2019-02-24T14:18:47Z</time>
      </trkpt>
      <trkpt lat="46.5038840" lon="6.6860080">
        <ele>386.1</ele>
        <time>2019-02-24T14:18:48Z</time>
      </trkpt>
      <trkpt lat="46.5038840" lon="6.6860080">
        <ele>386.1</ele>
        <time>2019-02-24T14:18:49Z</time>
      </trkpt>
      <trkpt lat="46.5038840" lon="6.6860080">
        <ele>386.1</ele>
        <time>2019-02-24T14:18:50Z</time>
      </trkpt>
      <trkpt lat="46.5038840" lon="6.6860080">
        <ele>386.1</ele>
        <time>2019-02-24T14:18:51Z</time>
      </trkpt>
      <trkpt lat="46.5038840" lon="6.6860080">
        <ele>386.1</ele>
        <time>2019-02-24T14:18:52Z</time>
      </trkpt>
      <trkpt lat="46.5038840" lon="6.6860080">
        <ele>386.1</ele>
        <time>2019-02-24T14:18:53Z</time>
      </trkpt>
      <trkpt lat="46.5038840" lon="6.6860080">
        <ele>386.1</ele>
        <time>2019-02-24T14:18:54Z</time>
      </trkpt>
      <trkpt lat="46.5038840" lon="6.6860080">
        <ele>386.1</ele>
        <time>2019-02-24T14:18:55Z</time>
      </trkpt>
      <trkpt lat="46.5038840" lon="6.6860080">
        <ele>386.1</ele>
        <time>2019-02-24T14:18:56Z</time>
      </trkpt>
      <trkpt lat="46.5038840" lon="6.6860080">
        <ele>386.1</ele>
        <time>2019-02-24T14:18:57Z</time>
      </trkpt>
      <trkpt lat="46.5038840" lon="6.6860080">
        <ele>386.1</ele>
        <time>2019-02-24T14:18:58Z</time>
      </trkpt>
      <trkpt lat="46.5038840" lon="6.6860080">
        <ele>386.1</ele>
        <time>2019-02-24T14:18:59Z</time>
      </trkpt>
      <trkpt lat="46.5038840" lon="6.6860080">
        <ele>386.1</ele>
        <time>2019-02-24T14:19:00Z</time>
      </trkpt>
      <trkpt lat="46.5038840" lon="6.6860080">
        <ele>386.1</ele>
        <time>2019-02-24T14:19:01Z</time>
      </trkpt>
      <trkpt lat="46.5038840" lon="6.6860080">
        <ele>386.1</ele>
        <time>2019-02-24T14:19:02Z</time>
      </trkpt>
      <trkpt lat="46.5038840" lon="6.6860080">
        <ele>386.1</ele>
        <time>2019-02-24T14:19:03Z</time>
      </trkpt>
      <trkpt lat="46.5038840" lon="6.6860080">
        <ele>386.1</ele>
        <time>2019-02-24T14:19:04Z</time>
      </trkpt>
      <trkpt lat="46.5038840" lon="6.6860080">
        <ele>386.1</ele>
        <time>2019-02-24T14:19:05Z</time>
      </trkpt>
      <trkpt lat="46.5038840" lon="6.6860080">
        <ele>386.1</ele>
        <time>2019-02-24T14:19:06Z</time>
      </trkpt>
      <trkpt lat="46.5038840" lon="6.6860080">
        <ele>386.1</ele>
        <time>2019-02-24T14:19:07Z</time>
      </trkpt>
      <trkpt lat="46.5038840" lon="6.6860080">
        <ele>386.1</ele>
        <time>2019-02-24T14:19:08Z</time>
      </trkpt>
      <trkpt lat="46.5038840" lon="6.6860080">
        <ele>386.1</ele>
        <time>2019-02-24T14:19:09Z</time>
      </trkpt>
      <trkpt lat="46.5038840" lon="6.6860080">
        <ele>386.1</ele>
        <time>2019-02-24T14:19:10Z</time>
      </trkpt>
      <trkpt lat="46.5038840" lon="6.6860080">
        <ele>386.1</ele>
        <time>2019-02-24T14:19:11Z</time>
      </trkpt>
      <trkpt lat="46.5038840" lon="6.6860080">
        <ele>386.1</ele>
        <time>2019-02-24T14:19:12Z</time>
      </trkpt>
      <trkpt lat="46.5038840" lon="6.6860080">
        <ele>386.1</ele>
        <time>2019-02-24T14:19:13Z</time>
      </trkpt>
      <trkpt lat="46.5038840" lon="6.6860080">
        <ele>386.1</ele>
        <time>2019-02-24T14:19:14Z</time>
      </trkpt>
      <trkpt lat="46.5038840" lon="6.6860080">
        <ele>386.1</ele>
        <time>2019-02-24T14:19:15Z</time>
      </trkpt>
      <trkpt lat="46.5038840" lon="6.6860080">
        <ele>386.1</ele>
        <time>2019-02-24T14:19:16Z</time>
      </trkpt>
      <trkpt lat="46.5038840" lon="6.6860080">
        <ele>386.1</ele>
        <time>2019-02-24T14:19:17Z</time>
      </trkpt>
      <trkpt lat="46.5038840" lon="6.6860080">
        <ele>386.1</ele>
        <time>2019-02-24T14:19:18Z</time>
      </trkpt>
      <trkpt lat="46.5038840" lon="6.6860080">
        <ele>386.1</ele>
        <time>2019-02-24T14:19:19Z</time>
      </trkpt>
      <trkpt lat="46.5038840" lon="6.6860080">
        <ele>386.1</ele>
        <time>2019-02-24T14:19:20Z</time>
      </trkpt>
      <trkpt lat="46.5038840" lon="6.6860080">
        <ele>386.1</ele>
        <time>2019-02-24T14:19:21Z</time>
      </trkpt>
      <trkpt lat="46.5038840" lon="6.6860080">
        <ele>386.1</ele>
        <time>2019-02-24T14:19:22Z</time>
      </trkpt>
      <trkpt lat="46.5038840" lon="6.6860080">
        <ele>386.1</ele>
        <time>2019-02-24T14:19:23Z</time>
      </trkpt>
      <trkpt lat="46.5038840" lon="6.6860080">
        <ele>386.1</ele>
        <time>2019-02-24T14:19:24Z</time>
      </trkpt>
      <trkpt lat="46.5038840" lon="6.6860080">
        <ele>386.1</ele>
        <time>2019-02-24T14:19:25Z</time>
      </trkpt>
      <trkpt lat="46.5038840" lon="6.6860080">
        <ele>386.1</ele>
        <time>2019-02-24T14:19:26Z</time>
      </trkpt>
      <trkpt lat="46.5038840" lon="6.6860080">
        <ele>386.1</ele>
        <time>2019-02-24T14:19:27Z</time>
      </trkpt>
      <trkpt lat="46.5038840" lon="6.6860080">
        <ele>386.1</ele>
        <time>2019-02-24T14:19:28Z</time>
      </trkpt>
      <trkpt lat="46.5038840" lon="6.6860080">
        <ele>386.1</ele>
        <time>2019-02-24T14:19:29Z</time>
      </trkpt>
      <trkpt lat="46.5038840" lon="6.6860080">
        <ele>386.1</ele>
        <time>2019-02-24T14:19:30Z</time>
      </trkpt>
      <trkpt lat="46.5038840" lon="6.6860080">
        <ele>386.1</ele>
        <time>2019-02-24T14:19:31Z</time>
      </trkpt>
      <trkpt lat="46.5038840" lon="6.6860080">
        <ele>386.1</ele>
        <time>2019-02-24T14:19:32Z</time>
      </trkpt>
      <trkpt lat="46.5038840" lon="6.6860080">
        <ele>386.1</ele>
        <time>2019-02-24T14:19:33Z</time>
      </trkpt>
      <trkpt lat="46.5038840" lon="6.6860080">
        <ele>386.1</ele>
        <time>2019-02-24T14:19:34Z</time>
      </trkpt>
      <trkpt lat="46.5038840" lon="6.6860080">
        <ele>386.1</ele>
        <time>2019-02-24T14:19:35Z</time>
      </trkpt>
      <trkpt lat="46.5038840" lon="6.6860080">
        <ele>386.1</ele>
        <time>2019-02-24T14:19:36Z</time>
      </trkpt>
      <trkpt lat="46.5038840" lon="6.6860070">
        <ele>386.1</ele>
        <time>2019-02-24T14:19:37Z</time>
      </trkpt>
      <trkpt lat="46.5038840" lon="6.6860070">
        <ele>386.1</ele>
        <time>2019-02-24T14:19:38Z</time>
      </trkpt>
      <trkpt lat="46.5038840" lon="6.6860080">
        <ele>386.1</ele>
        <time>2019-02-24T14:19:39Z</time>
      </trkpt>
      <trkpt lat="46.5038840" lon="6.6860080">
        <ele>386.1</ele>
        <time>2019-02-24T14:19:40Z</time>
      </trkpt>
      <trkpt lat="46.5038840" lon="6.6860070">
        <ele>386.1</ele>
        <time>2019-02-24T14:19:41Z</time>
      </trkpt>
      <trkpt lat="46.5038850" lon="6.6860030">
        <ele>386.1</ele>
        <time>2019-02-24T14:19:42Z</time>
      </trkpt>
      <trkpt lat="46.5038880" lon="6.6859910">
        <ele>386.0</ele>
        <time>2019-02-24T14:19:43Z</time>
      </trkpt>
      <trkpt lat="46.5038930" lon="6.6859710">
        <ele>385.1</ele>
        <time>2019-02-24T14:19:44Z</time>
      </trkpt>
      <trkpt lat="46.5039000" lon="6.6859430">
        <ele>384.6</ele>
        <time>2019-02-24T14:19:45Z</time>
      </trkpt>
      <trkpt lat="46.5039090" lon="6.6859060">
        <ele>383.9</ele>
        <time>2019-02-24T14:19:46Z</time>
      </trkpt>
      <trkpt lat="46.5039200" lon="6.6858620">
        <ele>383.0</ele>
        <time>2019-02-24T14:19:47Z</time>
      </trkpt>
      <trkpt lat="46.5039320" lon="6.6858120">
        <ele>382.3</ele>
        <time>2019-02-24T14:19:48Z</time>
      </trkpt>
      <trkpt lat="46.5039460" lon="6.6857570">
        <ele>381.7</ele>
        <time>2019-02-24T14:19:49Z</time>
      </trkpt>
      <trkpt lat="46.5039610" lon="6.6856980">
        <ele>381.0</ele>
        <time>2019-02-24T14:19:50Z</time>
      </trkpt>
      <trkpt lat="46.5039760" lon="6.6856360">
        <ele>380.3</ele>
        <time>2019-02-24T14:19:51Z</time>
      </trkpt>
      <trkpt lat="46.5039920" lon="6.6855730">
        <ele>379.5</ele>
        <time>2019-02-24T14:19:52Z</time>
      </trkpt>
      <trkpt lat="46.5040190" lon="6.6854640">
        <ele>378.3</ele>
        <time>2019-02-24T14:19:53Z</time>
      </trkpt>
      <trkpt lat="46.5040300" lon="6.6854210">
        <ele>377.8</ele>
        <time>2019-02-24T14:19:54Z</time>
      </trkpt>
      <trkpt lat="46.5040410" lon="6.6853770">
        <ele>377.2</ele>
        <time>2019-02-24T14:19:55Z</time>
      </trkpt>
      <trkpt lat="46.5040580" lon="6.6853100">
        <ele>377.3</ele>
        <time>2019-02-24T14:19:56Z</time>
      </trkpt>
      <trkpt lat="46.5040750" lon="6.6852420">
        <ele>377.3</ele>
        <time>2019-02-24T14:19:57Z</time>
      </trkpt>
      <trkpt lat="46.5041050" lon="6.6851270">
        <ele>377.4</ele>
        <time>2019-02-24T14:19:58Z</time>
      </trkpt>
      <trkpt lat="46.5041160" lon="6.6850800">
        <ele>377.4</ele>
        <time>2019-02-24T14:19:59Z</time>
      </trkpt>
      <trkpt lat="46.5041280" lon="6.6850340">
        <ele>377.5</ele>
        <time>2019-02-24T14:20:00Z</time>
      </trkpt>
      <trkpt lat="46.5041460" lon="6.6849640">
        <ele>377.6</ele>
        <time>2019-02-24T14:20:01Z</time>
      </trkpt>
      <trkpt lat="46.5041640" lon="6.6848920">
        <ele>377.8</ele>
        <time>2019-02-24T14:20:02Z</time>
      </trkpt>
      <trkpt lat="46.5041820" lon="6.6848200">
        <ele>377.9</ele>
        <time>2019-02-24T14:20:03Z</time>
      </trkpt>
      <trkpt lat="46.5042010" lon="6.6847470">
        <ele>378.1</ele>
        <time>2019-02-24T14:20:04Z</time>
      </trkpt>
      <trkpt lat="46.5042200" lon="6.6846740">
        <ele>378.2</ele>
        <time>2019-02-24T14:20:05Z</time>
      </trkpt>
      <trkpt lat="46.5042390" lon="6.6846000">
        <ele>378.3</ele>
        <time>2019-02-24T14:20:06Z</time>
      </trkpt>
      <trkpt lat="46.5042580" lon="6.6845250">
        <ele>378.4</ele>
        <time>2019-02-24T14:20:07Z</time>
      </trkpt>
      <trkpt lat="46.5042770" lon="6.6844500">
        <ele>378.4</ele>
        <time>2019-02-24T14:20:08Z</time>
      </trkpt>
      <trkpt lat="46.5042960" lon="6.6843740">
        <ele>378.4</ele>
        <time>2019-02-24T14:20:09Z</time>
      </trkpt>
      <trkpt lat="46.5043160" lon="6.6842980">
        <ele>378.5</ele>
        <time>2019-02-24T14:20:10Z</time>
      </trkpt>
      <trkpt lat="46.5043350" lon="6.6842210">
        <ele>378.5</ele>
        <time>2019-02-24T14:20:11Z</time>
      </trkpt>
      <trkpt lat="46.5043540" lon="6.6841440">
        <ele>378.6</ele>
        <time>2019-02-24T14:20:12Z</time>
      </trkpt>
      <trkpt lat="46.5043730" lon="6.6840670">
        <ele>378.8</ele>
        <time>2019-02-24T14:20:13Z</time>
      </trkpt>
      <trkpt lat="46.5043920" lon="6.6839900">
        <ele>379.0</ele>
        <time>2019-02-24T14:20:14Z</time>
      </trkpt>
      <trkpt lat="46.5044100" lon="6.6839140">
        <ele>379.2</ele>
        <time>2019-02-24T14:20:15Z</time>
      </trkpt>
      <trkpt lat="46.5044270" lon="6.6838370">
        <ele>379.4</ele>
        <time>2019-02-24T14:20:16Z</time>
      </trkpt>
      <trkpt lat="46.5044430" lon="6.6837610">
        <ele>379.6</ele>
        <time>2019-02-24T14:20:17Z</time>
      </trkpt>
      <trkpt lat="46.5044590" lon="6.6836850">
        <ele>379.8</ele>
        <time>2019-02-24T14:20:18Z</time>
      </trkpt>
      <trkpt lat="46.5044740" lon="6.6836090">
        <ele>380.0</ele>
        <time>2019-02-24T14:20:19Z</time>
      </trkpt>
      <trkpt lat="46.5044870" lon="6.6835320">
        <ele>380.0</ele>
        <time>2019-02-24T14:20:20Z</time>
      </trkpt>
      <trkpt lat="46.5044990" lon="6.6834550">
        <ele>380.0</ele>
        <time>2019-02-24T14:20:21Z</time>
      </trkpt>
      <trkpt lat="46.5045100" lon="6.6833770">
        <ele>380.0</ele>
        <time>2019-02-24T14:20:22Z</time>
      </trkpt>
      <trkpt lat="46.5045190" lon="6.6832980">
        <ele>380.0</ele>
        <time>2019-02-24T14:20:23Z</time>
      </trkpt>
      <trkpt lat="46.5045260" lon="6.6832170">
        <ele>380.0</ele>
        <time>2019-02-24T14:20:24Z</time>
      </trkpt>
      <trkpt lat="46.5045310" lon="6.6831350">
        <ele>380.0</ele>
        <time>2019-02-24T14:20:25Z</time>
      </trkpt>
      <trkpt lat="46.5045330" lon="6.6830490">
        <ele>379.6</ele>
        <time>2019-02-24T14:20:26Z</time>
      </trkpt>
      <trkpt lat="46.5045320" lon="6.6829610">
        <ele>379.4</ele>
        <time>2019-02-24T14:20:27Z</time>
      </trkpt>
      <trkpt lat="46.5045270" lon="6.6828680">
        <ele>379.1</ele>
        <time>2019-02-24T14:20:28Z</time>
      </trkpt>
      <trkpt lat="46.5045190" lon="6.6827710">
        <ele>378.8</ele>
        <time>2019-02-24T14:20:29Z</time>
      </trkpt>
      <trkpt lat="46.5045060" lon="6.6826690">
        <ele>378.8</ele>
        <time>2019-02-24T14:20:30Z</time>
      </trkpt>
      <trkpt lat="46.5044910" lon="6.6825640">
        <ele>378.7</ele>
        <time>2019-02-24T14:20:31Z</time>
      </trkpt>
      <trkpt lat="46.5044740" lon="6.6824560">
        <ele>378.2</ele>
        <time>2019-02-24T14:20:32Z</time>
      </trkpt>
      <trkpt lat="46.5044450" lon="6.6822900">
        <ele>377.3</ele>
        <time>2019-02-24T14:20:33Z</time>
      </trkpt>
      <trkpt lat="46.5044350" lon="6.6822340">
        <ele>376.9</ele>
        <time>2019-02-24T14:20:34Z</time>
      </trkpt>
      <trkpt lat="46.5044130" lon="6.6821210">
        <ele>376.2</ele>
        <time>2019-02-24T14:20:35Z</time>
      </trkpt>
      <trkpt lat="46.5043890" lon="6.6820070">
        <ele>375.5</ele>
        <time>2019-02-24T14:20:36Z</time>
      </trkpt>
      <trkpt lat="46.5043620" lon="6.6818920">
        <ele>374.8</ele>
        <time>2019-02-24T14:20:37Z</time>
      </trkpt>
      <trkpt lat="46.5043330" lon="6.6817770">
        <ele>374.2</ele>
        <time>2019-02-24T14:20:38Z</time>
      </trkpt>
      <trkpt lat="46.5043040" lon="6.6816630">
        <ele>373.7</ele>
        <time>2019-02-24T14:20:39Z</time>
      </trkpt>
      <trkpt lat="46.5042760" lon="6.6815490">
        <ele>373.3</ele>
        <time>2019-02-24T14:20:40Z</time>
      </trkpt>
      <trkpt lat="46.5042500" lon="6.6814360">
        <ele>372.9</ele>
        <time>2019-02-24T14:20:41Z</time>
      </trkpt>
      <trkpt lat="46.5042260" lon="6.6813240">
        <ele>372.7</ele>
        <time>2019-02-24T14:20:42Z</time>
      </trkpt>
      <trkpt lat="46.5042050" lon="6.6812130">
        <ele>372.7</ele>
        <time>2019-02-24T14:20:43Z</time>
      </trkpt>
      <trkpt lat="46.5041880" lon="6.6811010">
        <ele>372.7</ele>
        <time>2019-02-24T14:20:44Z</time>
      </trkpt>
      <trkpt lat="46.5041740" lon="6.6809890">
        <ele>372.7</ele>
        <time>2019-02-24T14:20:45Z</time>
      </trkpt>
      <trkpt lat="46.5041650" lon="6.6808780">
        <ele>372.7</ele>
        <time>2019-02-24T14:20:46Z</time>
      </trkpt>
      <trkpt lat="46.5041600" lon="6.6807700">
        <ele>372.5</ele>
        <time>2019-02-24T14:20:47Z</time>
      </trkpt>
      <trkpt lat="46.5041590" lon="6.6806660">
        <ele>372.4</ele>
        <time>2019-02-24T14:20:48Z</time>
      </trkpt>
      <trkpt lat="46.5041620" lon="6.6805680">
        <ele>372.3</ele>
        <time>2019-02-24T14:20:49Z</time>
      </trkpt>
      <trkpt lat="46.5041690" lon="6.6804740">
        <ele>372.2</ele>
        <time>2019-02-24T14:20:50Z</time>
      </trkpt>
      <trkpt lat="46.5041780" lon="6.6803860">
        <ele>372.1</ele>
        <time>2019-02-24T14:20:51Z</time>
      </trkpt>
      <trkpt lat="46.5041890" lon="6.6803030">
        <ele>372.0</ele>
        <time>2019-02-24T14:20:52Z</time>
      </trkpt>
      <trkpt lat="46.5042010" lon="6.6802230">
        <ele>371.9</ele>
        <time>2019-02-24T14:20:53Z</time>
      </trkpt>
      <trkpt lat="46.5042120" lon="6.6801480">
        <ele>371.8</ele>
        <time>2019-02-24T14:20:54Z</time>
      </trkpt>
      <trkpt lat="46.5042240" lon="6.6800780">
        <ele>371.7</ele>
        <time>2019-02-24T14:20:55Z</time>
      </trkpt>
      <trkpt lat="46.5042360" lon="6.6800130">
        <ele>371.7</ele>
        <time>2019-02-24T14:20:56Z</time>
      </trkpt>
      <trkpt lat="46.5042460" lon="6.6799540">
        <ele>371.6</ele>
        <time>2019-02-24T14:20:57Z</time>
      </trkpt>
      <trkpt lat="46.5042560" lon="6.6799010">
        <ele>371.5</ele>
        <time>2019-02-24T14:20:58Z</time>
      </trkpt>
      <trkpt lat="46.5042660" lon="6.6798580">
        <ele>371.5</ele>
        <time>2019-02-24T14:20:59Z</time>
      </trkpt>
      <trkpt lat="46.5042760" lon="6.6798240">
        <ele>371.5</ele>
        <time>2019-02-24T14:21:00Z</time>
      </trkpt>
      <trkpt lat="46.5042850" lon="6.6798010">
        <ele>371.4</ele>
        <time>2019-02-24T14:21:01Z</time>
      </trkpt>
      <trkpt lat="46.5042940" lon="6.6797800">
        <ele>371.4</ele>
        <time>2019-02-24T14:21:02Z</time>
      </trkpt>
      <trkpt lat="46.5043040" lon="6.6797500">
        <ele>371.4</ele>
        <time>2019-02-24T14:21:03Z</time>
      </trkpt>
      <trkpt lat="46.5043140" lon="6.6797190">
        <ele>371.4</ele>
        <time>2019-02-24T14:21:04Z</time>
      </trkpt>
      <trkpt lat="46.5043250" lon="6.6796800">
        <ele>371.3</ele>
        <time>2019-02-24T14:21:05Z</time>
      </trkpt>
      <trkpt lat="46.5043360" lon="6.6796370">
        <ele>371.3</ele>
        <time>2019-02-24T14:21:06Z</time>
      </trkpt>
      <trkpt lat="46.5043470" lon="6.6795910">
        <ele>371.2</ele>
        <time>2019-02-24T14:21:07Z</time>
      </trkpt>
      <trkpt lat="46.5043590" lon="6.6795420">
        <ele>371.2</ele>
        <time>2019-02-24T14:21:08Z</time>
      </trkpt>
      <trkpt lat="46.5043710" lon="6.6794910">
        <ele>371.1</ele>
        <time>2019-02-24T14:21:09Z</time>
      </trkpt>
      <trkpt lat="46.5043840" lon="6.6794400">
        <ele>371.1</ele>
        <time>2019-02-24T14:21:10Z</time>
      </trkpt>
      <trkpt lat="46.5043960" lon="6.6793880">
        <ele>371.2</ele>
        <time>2019-02-24T14:21:11Z</time>
      </trkpt>
      <trkpt lat="46.5044090" lon="6.6793360">
        <ele>371.7</ele>
        <time>2019-02-24T14:21:12Z</time>
      </trkpt>
      <trkpt lat="46.5044210" lon="6.6792860">
        <ele>372.2</ele>
        <time>2019-02-24T14:21:13Z</time>
      </trkpt>
      <trkpt lat="46.5044340" lon="6.6792360">
        <ele>372.7</ele>
        <time>2019-02-24T14:21:14Z</time>
      </trkpt>
      <trkpt lat="46.5044460" lon="6.6791880">
        <ele>373.2</ele>
        <time>2019-02-24T14:21:15Z</time>
      </trkpt>
      <trkpt lat="46.5044590" lon="6.6791390">
        <ele>373.7</ele>
        <time>2019-02-24T14:21:16Z</time>
      </trkpt>
      <trkpt lat="46.5044710" lon="6.6790920">
        <ele>374.2</ele>
        <time>2019-02-24T14:21:17Z</time>
      </trkpt>
      <trkpt lat="46.5044840" lon="6.6790440">
        <ele>374.7</ele>
        <time>2019-02-24T14:21:18Z</time>
      </trkpt>
      <trkpt lat="46.5044960" lon="6.6789960">
        <ele>375.1</ele>
        <time>2019-02-24T14:21:19Z</time>
      </trkpt>
      <trkpt lat="46.5045090" lon="6.6789480">
        <ele>375.2</ele>
        <time>2019-02-24T14:21:20Z</time>
      </trkpt>
      <trkpt lat="46.5045220" lon="6.6788990">
        <ele>375.2</ele>
        <time>2019-02-24T14:21:21Z</time>
      </trkpt>
      <trkpt lat="46.5045350" lon="6.6788500">
        <ele>375.2</ele>
        <time>2019-02-24T14:21:22Z</time>
      </trkpt>
      <trkpt lat="46.5045480" lon="6.6788010">
        <ele>374.9</ele>
        <time>2019-02-24T14:21:23Z</time>
      </trkpt>
      <trkpt lat="46.5045610" lon="6.6787520">
        <ele>374.8</ele>
        <time>2019-02-24T14:21:24Z</time>
      </trkpt>
      <trkpt lat="46.5045750" lon="6.6787030">
        <ele>374.7</ele>
        <time>2019-02-24T14:21:25Z</time>
      </trkpt>
      <trkpt lat="46.5045890" lon="6.6786540">
        <ele>374.6</ele>
        <time>2019-02-24T14:21:26Z</time>
      </trkpt>
      <trkpt lat="46.5046030" lon="6.6786060">
        <ele>374.5</ele>
        <time>2019-02-24T14:21:27Z</time>
      </trkpt>
      <trkpt lat="46.5046180" lon="6.6785590">
        <ele>374.4</ele>
        <time>2019-02-24T14:21:28Z</time>
      </trkpt>
      <trkpt lat="46.5046330" lon="6.6785130">
        <ele>374.5</ele>
        <time>2019-02-24T14:21:29Z</time>
      </trkpt>
      <trkpt lat="46.5046490" lon="6.6784680">
        <ele>374.5</ele>
        <time>2019-02-24T14:21:30Z</time>
      </trkpt>
      <trkpt lat="46.5046650" lon="6.6784240">
        <ele>374.6</ele>
        <time>2019-02-24T14:21:31Z</time>
      </trkpt>
      <trkpt lat="46.5046820" lon="6.6783800">
        <ele>374.6</ele>
        <time>2019-02-24T14:21:32Z</time>
      </trkpt>
      <trkpt lat="46.5046980" lon="6.6783360">
        <ele>374.7</ele>
        <time>2019-02-24T14:21:33Z</time>
      </trkpt>
      <trkpt lat="46.5047150" lon="6.6782930">
        <ele>374.7</ele>
        <time>2019-02-24T14:21:34Z</time>
      </trkpt>
      <trkpt lat="46.5047320" lon="6.6782500">
        <ele>374.8</ele>
        <time>2019-02-24T14:21:35Z</time>
      </trkpt>
      <trkpt lat="46.5047490" lon="6.6782060">
        <ele>374.8</ele>
        <time>2019-02-24T14:21:36Z</time>
      </trkpt>
      <trkpt lat="46.5047670" lon="6.6781630">
        <ele>374.9</ele>
        <time>2019-02-24T14:21:37Z</time>
      </trkpt>
      <trkpt lat="46.5047840" lon="6.6781190">
        <ele>375.0</ele>
        <time>2019-02-24T14:21:38Z</time>
      </trkpt>
      <trkpt lat="46.5048010" lon="6.6780740">
        <ele>375.1</ele>
        <time>2019-02-24T14:21:39Z</time>
      </trkpt>
      <trkpt lat="46.5048180" lon="6.6780290">
        <ele>375.2</ele>
        <time>2019-02-24T14:21:40Z</time>
      </trkpt>
      <trkpt lat="46.5048350" lon="6.6779840">
        <ele>375.2</ele>
        <time>2019-02-24T14:21:41Z</time>
      </trkpt>
      <trkpt lat="46.5048530" lon="6.6779390">
        <ele>375.4</ele>
        <time>2019-02-24T14:21:42Z</time>
      </trkpt>
      <trkpt lat="46.5048700" lon="6.6778940">
        <ele>375.5</ele>
        <time>2019-02-24T14:21:43Z</time>
      </trkpt>
      <trkpt lat="46.5048870" lon="6.6778490">
        <ele>375.7</ele>
        <time>2019-02-24T14:21:44Z</time>
      </trkpt>
      <trkpt lat="46.5049040" lon="6.6778030">
        <ele>375.7</ele>
        <time>2019-02-24T14:21:45Z</time>
      </trkpt>
      <trkpt lat="46.5049200" lon="6.6777590">
        <ele>375.8</ele>
        <time>2019-02-24T14:21:46Z</time>
      </trkpt>
      <trkpt lat="46.5049370" lon="6.6777140">
        <ele>375.9</ele>
        <time>2019-02-24T14:21:47Z</time>
      </trkpt>
      <trkpt lat="46.5049540" lon="6.6776690">
        <ele>376.0</ele>
        <time>2019-02-24T14:21:48Z</time>
      </trkpt>
      <trkpt lat="46.5049700" lon="6.6776250">
        <ele>376.1</ele>
        <time>2019-02-24T14:21:49Z</time>
      </trkpt>
      <trkpt lat="46.5049870" lon="6.6775810">
        <ele>376.2</ele>
        <time>2019-02-24T14:21:50Z</time>
      </trkpt>
      <trkpt lat="46.5050030" lon="6.6775370">
        <ele>376.2</ele>
        <time>2019-02-24T14:21:51Z</time>
      </trkpt>
      <trkpt lat="46.5050200" lon="6.6774930">
        <ele>376.3</ele>
        <time>2019-02-24T14:21:52Z</time>
      </trkpt>
      <trkpt lat="46.5050360" lon="6.6774490">
        <ele>376.4</ele>
        <time>2019-02-24T14:21:53Z</time>
      </trkpt>
      <trkpt lat="46.5050520" lon="6.6774050">
        <ele>376.4</ele>
        <time>2019-02-24T14:21:54Z</time>
      </trkpt>
      <trkpt lat="46.5050690" lon="6.6773610">
        <ele>376.4</ele>
        <time>2019-02-24T14:21:55Z</time>
      </trkpt>
      <trkpt lat="46.5050850" lon="6.6773170">
        <ele>376.5</ele>
        <time>2019-02-24T14:21:56Z</time>
      </trkpt>
      <trkpt lat="46.5051010" lon="6.6772730">
        <ele>376.7</ele>
        <time>2019-02-24T14:21:57Z</time>
      </trkpt>
      <trkpt lat="46.5051170" lon="6.6772290">
        <ele>376.9</ele>
        <time>2019-02-24T14:21:58Z</time>
      </trkpt>
      <trkpt lat="46.5051330" lon="6.6771850">
        <ele>377.0</ele>
        <time>2019-02-24T14:21:59Z</time>
      </trkpt>
      <trkpt lat="46.5051500" lon="6.6771410">
        <ele>377.2</ele>
        <time>2019-02-24T14:22:00Z</time>
      </trkpt>
      <trkpt lat="46.5051660" lon="6.6770960">
        <ele>377.4</ele>
        <time>2019-02-24T14:22:01Z</time>
      </trkpt>
      <trkpt lat="46.5051820" lon="6.6770520">
        <ele>377.5</ele>
        <time>2019-02-24T14:22:02Z</time>
      </trkpt>
      <trkpt lat="46.5051980" lon="6.6770070">
        <ele>377.7</ele>
        <time>2019-02-24T14:22:03Z</time>
      </trkpt>
      <trkpt lat="46.5052140" lon="6.6769630">
        <ele>377.9</ele>
        <time>2019-02-24T14:22:04Z</time>
      </trkpt>
      <trkpt lat="46.5052290" lon="6.6769190">
        <ele>378.1</ele>
        <time>2019-02-24T14:22:05Z</time>
      </trkpt>
      <trkpt lat="46.5052440" lon="6.6768750">
        <ele>378.5</ele>
        <time>2019-02-24T14:22:06Z</time>
      </trkpt>
      <trkpt lat="46.5052590" lon="6.6768320">
        <ele>378.9</ele>
        <time>2019-02-24T14:22:07Z</time>
      </trkpt>
      <trkpt lat="46.5052730" lon="6.6767880">
        <ele>379.2</ele>
        <time>2019-02-24T14:22:08Z</time>
      </trkpt>
      <trkpt lat="46.5052890" lon="6.6767440">
        <ele>379.4</ele>
        <time>2019-02-24T14:22:09Z</time>
      </trkpt>
      <trkpt lat="46.5053040" lon="6.6766990">
        <ele>379.5</ele>
        <time>2019-02-24T14:22:10Z</time>
      </trkpt>
      <trkpt lat="46.5053210" lon="6.6766540">
        <ele>379.7</ele>
        <time>2019-02-24T14:22:11Z</time>
      </trkpt>
      <trkpt lat="46.5053370" lon="6.6766090">
        <ele>379.8</ele>
        <time>2019-02-24T14:22:12Z</time>
      </trkpt>
      <trkpt lat="46.5053550" lon="6.6765630">
        <ele>380.0</ele>
        <time>2019-02-24T14:22:13Z</time>
      </trkpt>
      <trkpt lat="46.5053720" lon="6.6765160">
        <ele>380.1</ele>
        <time>2019-02-24T14:22:14Z</time>
      </trkpt>
      <trkpt lat="46.5053890" lon="6.6764700">
        <ele>380.3</ele>
        <time>2019-02-24T14:22:15Z</time>
      </trkpt>
      <trkpt lat="46.5054070" lon="6.6764240">
        <ele>380.4</ele>
        <time>2019-02-24T14:22:16Z</time>
      </trkpt>
      <trkpt lat="46.5054240" lon="6.6763780">
        <ele>380.6</ele>
        <time>2019-02-24T14:22:17Z</time>
      </trkpt>
      <trkpt lat="46.5054410" lon="6.6763320">
        <ele>380.7</ele>
        <time>2019-02-24T14:22:18Z</time>
      </trkpt>
      <trkpt lat="46.5054580" lon="6.6762870">
        <ele>380.8</ele>
        <time>2019-02-24T14:22:19Z</time>
      </trkpt>
      <trkpt lat="46.5054750" lon="6.6762420">
        <ele>381.0</ele>
        <time>2019-02-24T14:22:20Z</time>
      </trkpt>
      <trkpt lat="46.5054910" lon="6.6761970">
        <ele>381.3</ele>
        <time>2019-02-24T14:22:21Z</time>
      </trkpt>
      <trkpt lat="46.5055080" lon="6.6761520">
        <ele>381.5</ele>
        <time>2019-02-24T14:22:22Z</time>
      </trkpt>
      <trkpt lat="46.5055240" lon="6.6761080">
        <ele>381.7</ele>
        <time>2019-02-24T14:22:23Z</time>
      </trkpt>
      <trkpt lat="46.5055400" lon="6.6760640">
        <ele>382.0</ele>
        <time>2019-02-24T14:22:24Z</time>
      </trkpt>
      <trkpt lat="46.5055560" lon="6.6760200">
        <ele>382.2</ele>
        <time>2019-02-24T14:22:25Z</time>
      </trkpt>
      <trkpt lat="46.5055720" lon="6.6759760">
        <ele>382.4</ele>
        <time>2019-02-24T14:22:26Z</time>
      </trkpt>
      <trkpt lat="46.5055880" lon="6.6759330">
        <ele>382.7</ele>
        <time>2019-02-24T14:22:27Z</time>
      </trkpt>
      <trkpt lat="46.5056040" lon="6.6758900">
        <ele>382.9</ele>
        <time>2019-02-24T14:22:28Z</time>
      </trkpt>
      <trkpt lat="46.5056200" lon="6.6758480">
        <ele>383.1</ele>
        <time>2019-02-24T14:22:29Z</time>
      </trkpt>
      <trkpt lat="46.5056360" lon="6.6758050">
        <ele>383.0</ele>
        <time>2019-02-24T14:22:30Z</time>
      </trkpt>
      <trkpt lat="46.5056520" lon="6.6757630">
        <ele>382.9</ele>
        <time>2019-02-24T14:22:31Z</time>
      </trkpt>
      <trkpt lat="46.5056680" lon="6.6757210">
        <ele>383.4</ele>
        <time>2019-02-24T14:22:32Z</time>
      </trkpt>
      <trkpt lat="46.5056840" lon="6.6756800">
        <ele>383.8</ele>
        <time>2019-02-24T14:22:33Z</time>
      </trkpt>
      <trkpt lat="46.5057000" lon="6.6756380">
        <ele>384.2</ele>
        <time>2019-02-24T14:22:34Z</time>
      </trkpt>
      <trkpt lat="46.5057150" lon="6.6755970">
        <ele>384.4</ele>
        <time>2019-02-24T14:22:35Z</time>
      </trkpt>
      <trkpt lat="46.5057310" lon="6.6755560">
        <ele>384.3</ele>
        <time>2019-02-24T14:22:36Z</time>
      </trkpt>
      <trkpt lat="46.5057470" lon="6.6755160">
        <ele>384.2</ele>
        <time>2019-02-24T14:22:37Z</time>
      </trkpt>
      <trkpt lat="46.5057630" lon="6.6754750">
        <ele>384.8</ele>
        <time>2019-02-24T14:22:38Z</time>
      </trkpt>
      <trkpt lat="46.5057790" lon="6.6754350">
        <ele>385.2</ele>
        <time>2019-02-24T14:22:39Z</time>
      </trkpt>
      <trkpt lat="46.5057940" lon="6.6753950">
        <ele>385.6</ele>
        <time>2019-02-24T14:22:40Z</time>
      </trkpt>
      <trkpt lat="46.5058090" lon="6.6753550">
        <ele>386.0</ele>
        <time>2019-02-24T14:22:41Z</time>
      </trkpt>
      <trkpt lat="46.5058240" lon="6.6753150">
        <ele>386.4</ele>
        <time>2019-02-24T14:22:42Z</time>
      </trkpt>
      <trkpt lat="46.5058390" lon="6.6752750">
        <ele>386.7</ele>
        <time>2019-02-24T14:22:43Z</time>
      </trkpt>
      <trkpt lat="46.5058540" lon="6.6752350">
        <ele>387.1</ele>
        <time>2019-02-24T14:22:44Z</time>
      </trkpt>
      <trkpt lat="46.5058680" lon="6.6751950">
        <ele>387.5</ele>
        <time>2019-02-24T14:22:45Z</time>
      </trkpt>
      <trkpt lat="46.5058820" lon="6.6751550">
        <ele>387.9</ele>
        <time>2019-02-24T14:22:46Z</time>
      </trkpt>
      <trkpt lat="46.5058970" lon="6.6751150">
        <ele>388.3</ele>
        <time>2019-02-24T14:22:47Z</time>
      </trkpt>
      <trkpt lat="46.5059110" lon="6.6750750">
        <ele>388.6</ele>
        <time>2019-02-24T14:22:48Z</time>
      </trkpt>
      <trkpt lat="46.5059250" lon="6.6750340">
        <ele>389.0</ele>
        <time>2019-02-24T14:22:49Z</time>
      </trkpt>
      <trkpt lat="46.5059400" lon="6.6749940">
        <ele>389.5</ele>
        <time>2019-02-24T14:22:50Z</time>
      </trkpt>
      <trkpt lat="46.5059550" lon="6.6749530">
        <ele>389.9</ele>
        <time>2019-02-24T14:22:51Z</time>
      </trkpt>
      <trkpt lat="46.5059700" lon="6.6749120">
        <ele>390.3</ele>
        <time>2019-02-24T14:22:52Z</time>
      </trkpt>
      <trkpt lat="46.5059850" lon="6.6748710">
        <ele>390.8</ele>
        <time>2019-02-24T14:22:53Z</time>
      </trkpt>
      <trkpt lat="46.5060000" lon="6.6748300">
        <ele>391.2</ele>
        <time>2019-02-24T14:22:54Z</time>
      </trkpt>
      <trkpt lat="46.5060150" lon="6.6747890">
        <ele>391.7</ele>
        <time>2019-02-24T14:22:55Z</time>
      </trkpt>
      <trkpt lat="46.5060300" lon="6.6747480">
        <ele>392.2</ele>
        <time>2019-02-24T14:22:56Z</time>
      </trkpt>
      <trkpt lat="46.5060450" lon="6.6747060">
        <ele>392.7</ele>
        <time>2019-02-24T14:22:57Z</time>
      </trkpt>
      <trkpt lat="46.5060610" lon="6.6746650">
        <ele>393.2</ele>
        <time>2019-02-24T14:22:58Z</time>
      </trkpt>
      <trkpt lat="46.5060760" lon="6.6746230">
        <ele>393.5</ele>
        <time>2019-02-24T14:22:59Z</time>
      </trkpt>
      <trkpt lat="46.5060920" lon="6.6745820">
        <ele>393.7</ele>
        <time>2019-02-24T14:23:00Z</time>
      </trkpt>
      <trkpt lat="46.5061070" lon="6.6745410">
        <ele>393.9</ele>
        <time>2019-02-24T14:23:01Z</time>
      </trkpt>
      <trkpt lat="46.5061230" lon="6.6744990">
        <ele>394.1</ele>
        <time>2019-02-24T14:23:02Z</time>
      </trkpt>
      <trkpt lat="46.5061380" lon="6.6744580">
        <ele>394.3</ele>
        <time>2019-02-24T14:23:03Z</time>
      </trkpt>
      <trkpt lat="46.5061540" lon="6.6744160">
        <ele>394.5</ele>
        <time>2019-02-24T14:23:04Z</time>
      </trkpt>
      <trkpt lat="46.5061690" lon="6.6743750">
        <ele>394.9</ele>
        <time>2019-02-24T14:23:05Z</time>
      </trkpt>
      <trkpt lat="46.5061850" lon="6.6743340">
        <ele>395.1</ele>
        <time>2019-02-24T14:23:06Z</time>
      </trkpt>
      <trkpt lat="46.5062000" lon="6.6742930">
        <ele>395.3</ele>
        <time>2019-02-24T14:23:07Z</time>
      </trkpt>
      <trkpt lat="46.5062160" lon="6.6742510">
        <ele>395.6</ele>
        <time>2019-02-24T14:23:08Z</time>
      </trkpt>
      <trkpt lat="46.5062310" lon="6.6742100">
        <ele>395.8</ele>
        <time>2019-02-24T14:23:09Z</time>
      </trkpt>
      <trkpt lat="46.5062470" lon="6.6741680">
        <ele>396.0</ele>
        <time>2019-02-24T14:23:10Z</time>
      </trkpt>
      <trkpt lat="46.5062630" lon="6.6741260">
        <ele>396.2</ele>
        <time>2019-02-24T14:23:11Z</time>
      </trkpt>
      <trkpt lat="46.5062790" lon="6.6740840">
        <ele>396.4</ele>
        <time>2019-02-24T14:23:12Z</time>
      </trkpt>
      <trkpt lat="46.5062950" lon="6.6740410">
        <ele>396.7</ele>
        <time>2019-02-24T14:23:13Z</time>
      </trkpt>
      <trkpt lat="46.5063110" lon="6.6739980">
        <ele>397.1</ele>
        <time>2019-02-24T14:23:14Z</time>
      </trkpt>
      <trkpt lat="46.5063270" lon="6.6739540">
        <ele>397.4</ele>
        <time>2019-02-24T14:23:15Z</time>
      </trkpt>
      <trkpt lat="46.5063440" lon="6.6739100">
        <ele>397.7</ele>
        <time>2019-02-24T14:23:16Z</time>
      </trkpt>
      <trkpt lat="46.5063600" lon="6.6738660">
        <ele>397.9</ele>
        <time>2019-02-24T14:23:17Z</time>
      </trkpt>
      <trkpt lat="46.5063770" lon="6.6738220">
        <ele>398.2</ele>
        <time>2019-02-24T14:23:18Z</time>
      </trkpt>
      <trkpt lat="46.5063940" lon="6.6737770">
        <ele>398.4</ele>
        <time>2019-02-24T14:23:19Z</time>
      </trkpt>
      <trkpt lat="46.5064110" lon="6.6737330">
        <ele>398.7</ele>
        <time>2019-02-24T14:23:20Z</time>
      </trkpt>
      <trkpt lat="46.5064280" lon="6.6736890">
        <ele>399.0</ele>
        <time>2019-02-24T14:23:21Z</time>
      </trkpt>
      <trkpt lat="46.5064450" lon="6.6736450">
        <ele>399.3</ele>
        <time>2019-02-24T14:23:22Z</time>
      </trkpt>
      <trkpt lat="46.5064630" lon="6.6736010">
        <ele>399.7</ele>
        <time>2019-02-24T14:23:23Z</time>
      </trkpt>
      <trkpt lat="46.5064800" lon="6.6735570">
        <ele>400.0</ele>
        <time>2019-02-24T14:23:24Z</time>
      </trkpt>
      <trkpt lat="46.5064970" lon="6.6735130">
        <ele>400.3</ele>
        <time>2019-02-24T14:23:25Z</time>
      </trkpt>
      <trkpt lat="46.5065140" lon="6.6734680">
        <ele>400.6</ele>
        <time>2019-02-24T14:23:26Z</time>
      </trkpt>
      <trkpt lat="46.5065310" lon="6.6734240">
        <ele>400.9</ele>
        <time>2019-02-24T14:23:27Z</time>
      </trkpt>
      <trkpt lat="46.5065470" lon="6.6733790">
        <ele>401.2</ele>
        <time>2019-02-24T14:23:28Z</time>
      </trkpt>
      <trkpt lat="46.5065640" lon="6.6733330">
        <ele>401.5</ele>
        <time>2019-02-24T14:23:29Z</time>
      </trkpt>
      <trkpt lat="46.5065800" lon="6.6732860">
        <ele>401.8</ele>
        <time>2019-02-24T14:23:30Z</time>
      </trkpt>
      <trkpt lat="46.5065950" lon="6.6732380">
        <ele>402.1</ele>
        <time>2019-02-24T14:23:31Z</time>
      </trkpt>
      <trkpt lat="46.5066110" lon="6.6731900">
        <ele>402.5</ele>
        <time>2019-02-24T14:23:32Z</time>
      </trkpt>
      <trkpt lat="46.5066270" lon="6.6731410">
        <ele>402.8</ele>
        <time>2019-02-24T14:23:33Z</time>
      </trkpt>
      <trkpt lat="46.5066430" lon="6.6730920">
        <ele>403.1</ele>
        <time>2019-02-24T14:23:34Z</time>
      </trkpt>
      <trkpt lat="46.5066600" lon="6.6730410">
        <ele>403.1</ele>
        <time>2019-02-24T14:23:35Z</time>
      </trkpt>
      <trkpt lat="46.5066770" lon="6.6729900">
        <ele>402.8</ele>
        <time>2019-02-24T14:23:36Z</time>
      </trkpt>
      <trkpt lat="46.5066950" lon="6.6729380">
        <ele>402.5</ele>
        <time>2019-02-24T14:23:37Z</time>
      </trkpt>
      <trkpt lat="46.5067140" lon="6.6728860">
        <ele>402.2</ele>
        <time>2019-02-24T14:23:38Z</time>
      </trkpt>
      <trkpt lat="46.5067340" lon="6.6728330">
        <ele>401.9</ele>
        <time>2019-02-24T14:23:39Z</time>
      </trkpt>
      <trkpt lat="46.5067540" lon="6.6727800">
        <ele>401.6</ele>
        <time>2019-02-24T14:23:40Z</time>
      </trkpt>
      <trkpt lat="46.5067750" lon="6.6727270">
        <ele>401.2</ele>
        <time>2019-02-24T14:23:41Z</time>
      </trkpt>
      <trkpt lat="46.5067980" lon="6.6726730">
        <ele>400.9</ele>
        <time>2019-02-24T14:23:42Z</time>
      </trkpt>
      <trkpt lat="46.5068200" lon="6.6726200">
        <ele>400.5</ele>
        <time>2019-02-24T14:23:43Z</time>
      </trkpt>
      <trkpt lat="46.5068440" lon="6.6725670">
        <ele>400.2</ele>
        <time>2019-02-24T14:23:44Z</time>
      </trkpt>
      <trkpt lat="46.5068680" lon="6.6725140">
        <ele>399.8</ele>
        <time>2019-02-24T14:23:45Z</time>
      </trkpt>
      <trkpt lat="46.5068930" lon="6.6724630">
        <ele>399.4</ele>
        <time>2019-02-24T14:23:46Z</time>
      </trkpt>
      <trkpt lat="46.5069190" lon="6.6724110">
        <ele>399.0</ele>
        <time>2019-02-24T14:23:47Z</time>
      </trkpt>
      <trkpt lat="46.5069450" lon="6.6723610">
        <ele>398.6</ele>
        <time>2019-02-24T14:23:48Z</time>
      </trkpt>
      <trkpt lat="46.5069720" lon="6.6723110">
        <ele>398.2</ele>
        <time>2019-02-24T14:23:49Z</time>
      </trkpt>
      <trkpt lat="46.5069990" lon="6.6722610">
        <ele>397.5</ele>
        <time>2019-02-24T14:23:50Z</time>
      </trkpt>
      <trkpt lat="46.5070260" lon="6.6722120">
        <ele>397.3</ele>
        <time>2019-02-24T14:23:51Z</time>
      </trkpt>
      <trkpt lat="46.5070540" lon="6.6721640">
        <ele>397.2</ele>
        <time>2019-02-24T14:23:52Z</time>
      </trkpt>
      <trkpt lat="46.5070820" lon="6.6721150">
        <ele>397.1</ele>
        <time>2019-02-24T14:23:53Z</time>
      </trkpt>
      <trkpt lat="46.5071110" lon="6.6720670">
        <ele>396.9</ele>
        <time>2019-02-24T14:23:54Z</time>
      </trkpt>
      <trkpt lat="46.5071390" lon="6.6720190">
        <ele>396.8</ele>
        <time>2019-02-24T14:23:55Z</time>
      </trkpt>
      <trkpt lat="46.5071670" lon="6.6719710">
        <ele>396.8</ele>
        <time>2019-02-24T14:23:56Z</time>
      </trkpt>
      <trkpt lat="46.5071960" lon="6.6719220">
        <ele>396.8</ele>
        <time>2019-02-24T14:23:57Z</time>
      </trkpt>
      <trkpt lat="46.5072250" lon="6.6718750">
        <ele>396.8</ele>
        <time>2019-02-24T14:23:58Z</time>
      </trkpt>
      <trkpt lat="46.5072540" lon="6.6718270">
        <ele>396.8</ele>
        <time>2019-02-24T14:23:59Z</time>
      </trkpt>
      <trkpt lat="46.5072840" lon="6.6717790">
        <ele>396.8</ele>
        <time>2019-02-24T14:24:00Z</time>
      </trkpt>
      <trkpt lat="46.5073140" lon="6.6717310">
        <ele>396.7</ele>
        <time>2019-02-24T14:24:01Z</time>
      </trkpt>
      <trkpt lat="46.5073440" lon="6.6716830">
        <ele>396.7</ele>
        <time>2019-02-24T14:24:02Z</time>
      </trkpt>
      <trkpt lat="46.5073750" lon="6.6716350">
        <ele>396.7</ele>
        <time>2019-02-24T14:24:03Z</time>
      </trkpt>
      <trkpt lat="46.5074060" lon="6.6715880">
        <ele>396.6</ele>
        <time>2019-02-24T14:24:04Z</time>
      </trkpt>
      <trkpt lat="46.5074370" lon="6.6715400">
        <ele>396.5</ele>
        <time>2019-02-24T14:24:05Z</time>
      </trkpt>
      <trkpt lat="46.5074690" lon="6.6714930">
        <ele>396.4</ele>
        <time>2019-02-24T14:24:06Z</time>
      </trkpt>
      <trkpt lat="46.5075010" lon="6.6714450">
        <ele>396.4</ele>
        <time>2019-02-24T14:24:07Z</time>
      </trkpt>
      <trkpt lat="46.5075330" lon="6.6713970">
        <ele>396.4</ele>
        <time>2019-02-24T14:24:08Z</time>
      </trkpt>
      <trkpt lat="46.5075650" lon="6.6713500">
        <ele>396.4</ele>
        <time>2019-02-24T14:24:09Z</time>
      </trkpt>
      <trkpt lat="46.5075980" lon="6.6713020">
        <ele>396.4</ele>
        <time>2019-02-24T14:24:10Z</time>
      </trkpt>
      <trkpt lat="46.5076300" lon="6.6712550">
        <ele>396.3</ele>
        <time>2019-02-24T14:24:11Z</time>
      </trkpt>
      <trkpt lat="46.5076630" lon="6.6712080">
        <ele>396.3</ele>
        <time>2019-02-24T14:24:12Z</time>
      </trkpt>
      <trkpt lat="46.5076950" lon="6.6711610">
        <ele>396.2</ele>
        <time>2019-02-24T14:24:13Z</time>
      </trkpt>
      <trkpt lat="46.5077270" lon="6.6711140">
        <ele>396.1</ele>
        <time>2019-02-24T14:24:14Z</time>
      </trkpt>
      <trkpt lat="46.5077590" lon="6.6710670">
        <ele>396.0</ele>
        <time>2019-02-24T14:24:15Z</time>
      </trkpt>
      <trkpt lat="46.5077910" lon="6.6710210">
        <ele>395.9</ele>
        <time>2019-02-24T14:24:16Z</time>
      </trkpt>
      <trkpt lat="46.5078220" lon="6.6709750">
        <ele>395.9</ele>
        <time>2019-02-24T14:24:17Z</time>
      </trkpt>
      <trkpt lat="46.5078520" lon="6.6709300">
        <ele>395.8</ele>
        <time>2019-02-24T14:24:18Z</time>
      </trkpt>
      <trkpt lat="46.5078810" lon="6.6708850">
        <ele>395.7</ele>
        <time>2019-02-24T14:24:19Z</time>
      </trkpt>
      <trkpt lat="46.5079100" lon="6.6708410">
        <ele>395.8</ele>
        <time>2019-02-24T14:24:20Z</time>
      </trkpt>
      <trkpt lat="46.5079380" lon="6.6707980">
        <ele>395.9</ele>
        <time>2019-02-24T14:24:21Z</time>
      </trkpt>
      <trkpt lat="46.5079650" lon="6.6707560">
        <ele>396.0</ele>
        <time>2019-02-24T14:24:22Z</time>
      </trkpt>
      <trkpt lat="46.5079920" lon="6.6707160">
        <ele>396.1</ele>
        <time>2019-02-24T14:24:23Z</time>
      </trkpt>
      <trkpt lat="46.5080170" lon="6.6706760">
        <ele>396.2</ele>
        <time>2019-02-24T14:24:24Z</time>
      </trkpt>
      <trkpt lat="46.5080420" lon="6.6706380">
        <ele>396.4</ele>
        <time>2019-02-24T14:24:25Z</time>
      </trkpt>
      <trkpt lat="46.5080650" lon="6.6706020">
        <ele>396.6</ele>
        <time>2019-02-24T14:24:26Z</time>
      </trkpt>
      <trkpt lat="46.5080880" lon="6.6705690">
        <ele>397.0</ele>
        <time>2019-02-24T14:24:27Z</time>
      </trkpt>
      <trkpt lat="46.5081090" lon="6.6705380">
        <ele>397.4</ele>
        <time>2019-02-24T14:24:28Z</time>
      </trkpt>
      <trkpt lat="46.5081260" lon="6.6705120">
        <ele>397.6</ele>
        <time>2019-02-24T14:24:29Z</time>
      </trkpt>
      <trkpt lat="46.5081400" lon="6.6704920">
        <ele>397.8</ele>
        <time>2019-02-24T14:24:30Z</time>
      </trkpt>
      <trkpt lat="46.5081520" lon="6.6704740">
        <ele>398.0</ele>
        <time>2019-02-24T14:24:31Z</time>
      </trkpt>
      <trkpt lat="46.5081540" lon="6.6704710">
        <ele>398.0</ele>
        <time>2019-02-24T14:24:32Z</time>
      </trkpt>
      <trkpt lat="46.5081570" lon="6.6704670">
        <ele>398.0</ele>
        <time>2019-02-24T14:24:33Z</time>
      </trkpt>
      <trkpt lat="46.5081580" lon="6.6704650">
        <ele>398.0</ele>
        <time>2019-02-24T14:24:34Z</time>
      </trkpt>
      <trkpt lat="46.5081580" lon="6.6704650">
        <ele>398.0</ele>
        <time>2019-02-24T14:24:35Z</time>
      </trkpt>
      <trkpt lat="46.5081590" lon="6.6704640">
        <ele>398.0</ele>
        <time>2019-02-24T14:24:36Z</time>
      </trkpt>
      <trkpt lat="46.5081590" lon="6.6704640">
        <ele>398.0</ele>
        <time>2019-02-24T14:24:37Z</time>
      </trkpt>
      <trkpt lat="46.5081580" lon="6.6704640">
        <ele>398.0</ele>
        <time>2019-02-24T14:24:38Z</time>
      </trkpt>
      <trkpt lat="46.5081590" lon="6.6704630">
        <ele>398.1</ele>
        <time>2019-02-24T14:24:39Z</time>
      </trkpt>
      <trkpt lat="46.5081640" lon="6.6704560">
        <ele>398.1</ele>
        <time>2019-02-24T14:24:40Z</time>
      </trkpt>
      <trkpt lat="46.5081760" lon="6.6704390">
        <ele>398.3</ele>
        <time>2019-02-24T14:24:41Z</time>
      </trkpt>
      <trkpt lat="46.5081930" lon="6.6704140">
        <ele>398.5</ele>
        <time>2019-02-24T14:24:42Z</time>
      </trkpt>
      <trkpt lat="46.5082130" lon="6.6703840">
        <ele>398.7</ele>
        <time>2019-02-24T14:24:43Z</time>
      </trkpt>
      <trkpt lat="46.5082360" lon="6.6703510">
        <ele>399.0</ele>
        <time>2019-02-24T14:24:44Z</time>
      </trkpt>
      <trkpt lat="46.5082610" lon="6.6703160">
        <ele>399.4</ele>
        <time>2019-02-24T14:24:45Z</time>
      </trkpt>
      <trkpt lat="46.5082870" lon="6.6702790">
        <ele>399.8</ele>
        <time>2019-02-24T14:24:46Z</time>
      </trkpt>
      <trkpt lat="46.5083140" lon="6.6702400">
        <ele>400.2</ele>
        <time>2019-02-24T14:24:47Z</time>
      </trkpt>
      <trkpt lat="46.5083420" lon="6.6702000">
        <ele>400.7</ele>
        <time>2019-02-24T14:24:48Z</time>
      </trkpt>
      <trkpt lat="46.5083880" lon="6.6701340">
        <ele>401.6</ele>
        <time>2019-02-24T14:24:49Z</time>
      </trkpt>
      <trkpt lat="46.5084050" lon="6.6701070">
        <ele>402.0</ele>
        <time>2019-02-24T14:24:50Z</time>
      </trkpt>
      <trkpt lat="46.5084230" lon="6.6700810">
        <ele>402.4</ele>
        <time>2019-02-24T14:24:51Z</time>
      </trkpt>
      <trkpt lat="46.5084480" lon="6.6700430">
        <ele>403.3</ele>
        <time>2019-02-24T14:24:52Z</time>
      </trkpt>
      <trkpt lat="46.5084730" lon="6.6700060">
        <ele>403.6</ele>
        <time>2019-02-24T14:24:53Z</time>
      </trkpt>
      <trkpt lat="46.5084970" lon="6.6699690">
        <ele>403.9</ele>
        <time>2019-02-24T14:24:54Z</time>
      </trkpt>
      <trkpt lat="46.5085200" lon="6.6699330">
        <ele>404.1</ele>
        <time>2019-02-24T14:24:55Z</time>
      </trkpt>
      <trkpt lat="46.5085440" lon="6.6698970">
        <ele>404.2</ele>
        <time>2019-02-24T14:24:56Z</time>
      </trkpt>
      <trkpt lat="46.5085680" lon="6.6698610">
        <ele>404.3</ele>
        <time>2019-02-24T14:24:57Z</time>
      </trkpt>
      <trkpt lat="46.5085920" lon="6.6698260">
        <ele>404.4</ele>
        <time>2019-02-24T14:24:58Z</time>
      </trkpt>
      <trkpt lat="46.5086160" lon="6.6697900">
        <ele>404.4</ele>
        <time>2019-02-24T14:24:59Z</time>
      </trkpt>
      <trkpt lat="46.5086400" lon="6.6697550">
        <ele>404.3</ele>
        <time>2019-02-24T14:25:00Z</time>
      </trkpt>
      <trkpt lat="46.5086650" lon="6.6697190">
        <ele>404.3</ele>
        <time>2019-02-24T14:25:01Z</time>
      </trkpt>
      <trkpt lat="46.5086890" lon="6.6696830">
        <ele>404.3</ele>
        <time>2019-02-24T14:25:02Z</time>
      </trkpt>
      <trkpt lat="46.5087130" lon="6.6696470">
        <ele>404.3</ele>
        <time>2019-02-24T14:25:03Z</time>
      </trkpt>
      <trkpt lat="46.5087360" lon="6.6696100">
        <ele>404.2</ele>
        <time>2019-02-24T14:25:04Z</time>
      </trkpt>
      <trkpt lat="46.5087580" lon="6.6695730">
        <ele>404.2</ele>
        <time>2019-02-24T14:25:05Z</time>
      </trkpt>
      <trkpt lat="46.5087800" lon="6.6695350">
        <ele>404.2</ele>
        <time>2019-02-24T14:25:06Z</time>
      </trkpt>
      <trkpt lat="46.5088000" lon="6.6694960">
        <ele>404.2</ele>
        <time>2019-02-24T14:25:07Z</time>
      </trkpt>
      <trkpt lat="46.5088190" lon="6.6694570">
        <ele>404.2</ele>
        <time>2019-02-24T14:25:08Z</time>
      </trkpt>
      <trkpt lat="46.5088370" lon="6.6694170">
        <ele>404.3</ele>
        <time>2019-02-24T14:25:09Z</time>
      </trkpt>
      <trkpt lat="46.5088540" lon="6.6693760">
        <ele>404.3</ele>
        <time>2019-02-24T14:25:10Z</time>
      </trkpt>
      <trkpt lat="46.5088710" lon="6.6693350">
        <ele>404.3</ele>
        <time>2019-02-24T14:25:11Z</time>
      </trkpt>
      <trkpt lat="46.5088860" lon="6.6692940">
        <ele>404.4</ele>
        <time>2019-02-24T14:25:12Z</time>
      </trkpt>
      <trkpt lat="46.5089010" lon="6.6692530">
        <ele>404.4</ele>
        <time>2019-02-24T14:25:13Z</time>
      </trkpt>
      <trkpt lat="46.5089150" lon="6.6692110">
        <ele>404.5</ele>
        <time>2019-02-24T14:25:14Z</time>
      </trkpt>
      <trkpt lat="46.5089290" lon="6.6691690">
        <ele>404.6</ele>
        <time>2019-02-24T14:25:15Z</time>
      </trkpt>
      <trkpt lat="46.5089420" lon="6.6691270">
        <ele>404.6</ele>
        <time>2019-02-24T14:25:16Z</time>
      </trkpt>
      <trkpt lat="46.5089540" lon="6.6690860">
        <ele>404.7</ele>
        <time>2019-02-24T14:25:17Z</time>
      </trkpt>
      <trkpt lat="46.5089660" lon="6.6690430">
        <ele>404.8</ele>
        <time>2019-02-24T14:25:18Z</time>
      </trkpt>
      <trkpt lat="46.5089770" lon="6.6690010">
        <ele>404.8</ele>
        <time>2019-02-24T14:25:19Z</time>
      </trkpt>
      <trkpt lat="46.5089870" lon="6.6689590">
        <ele>404.9</ele>
        <time>2019-02-24T14:25:20Z</time>
      </trkpt>
      <trkpt lat="46.5089970" lon="6.6689160">
        <ele>405.0</ele>
        <time>2019-02-24T14:25:21Z</time>
      </trkpt>
      <trkpt lat="46.5090060" lon="6.6688740">
        <ele>405.0</ele>
        <time>2019-02-24T14:25:22Z</time>
      </trkpt>
      <trkpt lat="46.5090150" lon="6.6688310">
        <ele>405.1</ele>
        <time>2019-02-24T14:25:23Z</time>
      </trkpt>
      <trkpt lat="46.5090220" lon="6.6687880">
        <ele>405.2</ele>
        <time>2019-02-24T14:25:24Z</time>
      </trkpt>
      <trkpt lat="46.5090290" lon="6.6687440">
        <ele>405.3</ele>
        <time>2019-02-24T14:25:25Z</time>
      </trkpt>
      <trkpt lat="46.5090350" lon="6.6687010">
        <ele>405.4</ele>
        <time>2019-02-24T14:25:26Z</time>
      </trkpt>
      <trkpt lat="46.5090410" lon="6.6686570">
        <ele>405.6</ele>
        <time>2019-02-24T14:25:27Z</time>
      </trkpt>
      <trkpt lat="46.5090450" lon="6.6686130">
        <ele>405.7</ele>
        <time>2019-02-24T14:25:28Z</time>
      </trkpt>
      <trkpt lat="46.5090480" lon="6.6685690">
        <ele>405.8</ele>
        <time>2019-02-24T14:25:29Z</time>
      </trkpt>
      <trkpt lat="46.5090510" lon="6.6685240">
        <ele>405.9</ele>
        <time>2019-02-24T14:25:30Z</time>
      </trkpt>
      <trkpt lat="46.5090530" lon="6.6684790">
        <ele>406.0</ele>
        <time>2019-02-24T14:25:31Z</time>
      </trkpt>
      <trkpt lat="46.5090530" lon="6.6684340">
        <ele>406.0</ele>
        <time>2019-02-24T14:25:32Z</time>
      </trkpt>
      <trkpt lat="46.5090530" lon="6.6683890">
        <ele>406.1</ele>
        <time>2019-02-24T14:25:33Z</time>
      </trkpt>
      <trkpt lat="46.5090530" lon="6.6683430">
        <ele>406.1</ele>
        <time>2019-02-24T14:25:34Z</time>
      </trkpt>
      <trkpt lat="46.5090510" lon="6.6682980">
        <ele>406.2</ele>
        <time>2019-02-24T14:25:35Z</time>
      </trkpt>
      <trkpt lat="46.5090490" lon="6.6682520">
        <ele>406.2</ele>
        <time>2019-02-24T14:25:36Z</time>
      </trkpt>
      <trkpt lat="46.5090470" lon="6.6682070">
        <ele>406.3</ele>
        <time>2019-02-24T14:25:37Z</time>
      </trkpt>
      <trkpt lat="46.5090440" lon="6.6681620">
        <ele>406.3</ele>
        <time>2019-02-24T14:25:38Z</time>
      </trkpt>
      <trkpt lat="46.5090400" lon="6.6681160">
        <ele>406.4</ele>
        <time>2019-02-24T14:25:39Z</time>
      </trkpt>
      <trkpt lat="46.5090360" lon="6.6680710">
        <ele>406.6</ele>
        <time>2019-02-24T14:25:40Z</time>
      </trkpt>
      <trkpt lat="46.5090320" lon="6.6680270">
        <ele>406.7</ele>
        <time>2019-02-24T14:25:41Z</time>
      </trkpt>
      <trkpt lat="46.5090280" lon="6.6679820">
        <ele>406.8</ele>
        <time>2019-02-24T14:25:42Z</time>
      </trkpt>
      <trkpt lat="46.5090230" lon="6.6679380">
        <ele>406.9</ele>
        <time>2019-02-24T14:25:43Z</time>
      </trkpt>
      <trkpt lat="46.5090190" lon="6.6678950">
        <ele>407.0</ele>
        <time>2019-02-24T14:25:44Z</time>
      </trkpt>
      <trkpt lat="46.5090140" lon="6.6678520">
        <ele>407.1</ele>
        <time>2019-02-24T14:25:45Z</time>
      </trkpt>
      <trkpt lat="46.5090090" lon="6.6678090">
        <ele>407.2</ele>
        <time>2019-02-24T14:25:46Z</time>
      </trkpt>
      <trkpt lat="46.5090050" lon="6.6677670">
        <ele>407.3</ele>
        <time>2019-02-24T14:25:47Z</time>
      </trkpt>
      <trkpt lat="46.5090020" lon="6.6677260">
        <ele>407.4</ele>
        <time>2019-02-24T14:25:48Z</time>
      </trkpt>
      <trkpt lat="46.5090030" lon="6.6676870">
        <ele>407.5</ele>
        <time>2019-02-24T14:25:49Z</time>
      </trkpt>
      <trkpt lat="46.5090060" lon="6.6676490">
        <ele>407.6</ele>
        <time>2019-02-24T14:25:50Z</time>
      </trkpt>
      <trkpt lat="46.5090120" lon="6.6676180">
        <ele>407.7</ele>
        <time>2019-02-24T14:25:51Z</time>
      </trkpt>
      <trkpt lat="46.5090160" lon="6.6675940">
        <ele>407.8</ele>
        <time>2019-02-24T14:25:52Z</time>
      </trkpt>
      <trkpt lat="46.5090180" lon="6.6675740">
        <ele>407.8</ele>
        <time>2019-02-24T14:25:53Z</time>
      </trkpt>
      <trkpt lat="46.5090180" lon="6.6675690">
        <ele>407.8</ele>
        <time>2019-02-24T14:25:54Z</time>
      </trkpt>
      <trkpt lat="46.5090150" lon="6.6675640">
        <ele>407.8</ele>
        <time>2019-02-24T14:25:55Z</time>
      </trkpt>
      <trkpt lat="46.5090140" lon="6.6675610">
        <ele>407.9</ele>
        <time>2019-02-24T14:25:56Z</time>
      </trkpt>
      <trkpt lat="46.5090130" lon="6.6675600">
        <ele>407.9</ele>
        <time>2019-02-24T14:25:57Z</time>
      </trkpt>
      <trkpt lat="46.5090130" lon="6.6675590">
        <ele>407.9</ele>
        <time>2019-02-24T14:25:58Z</time>
      </trkpt>
      <trkpt lat="46.5090130" lon="6.6675590">
        <ele>407.9</ele>
        <time>2019-02-24T14:25:59Z</time>
      </trkpt>
      <trkpt lat="46.5090130" lon="6.6675590">
        <ele>407.9</ele>
        <time>2019-02-24T14:26:00Z</time>
      </trkpt>
      <trkpt lat="46.5090130" lon="6.6675590">
        <ele>407.9</ele>
        <time>2019-02-24T14:26:01Z</time>
      </trkpt>
      <trkpt lat="46.5090130" lon="6.6675590">
        <ele>407.9</ele>
        <time>2019-02-24T14:26:02Z</time>
      </trkpt>
      <trkpt lat="46.5090130" lon="6.6675590">
        <ele>407.9</ele>
        <time>2019-02-24T14:26:03Z</time>
      </trkpt>
      <trkpt lat="46.5090130" lon="6.6675590">
        <ele>407.9</ele>
        <time>2019-02-24T14:26:04Z</time>
      </trkpt>
      <trkpt lat="46.5090130" lon="6.6675590">
        <ele>407.9</ele>
        <time>2019-02-24T14:26:05Z</time>
      </trkpt>
      <trkpt lat="46.5090130" lon="6.6675590">
        <ele>407.9</ele>
        <time>2019-02-24T14:26:06Z</time>
      </trkpt>
      <trkpt lat="46.5090130" lon="6.6675590">
        <ele>407.9</ele>
        <time>2019-02-24T14:26:07Z</time>
      </trkpt>
      <trkpt lat="46.5090130" lon="6.6675590">
        <ele>407.9</ele>
        <time>2019-02-24T14:26:08Z</time>
      </trkpt>
      <trkpt lat="46.5090130" lon="6.6675590">
        <ele>407.9</ele>
        <time>2019-02-24T14:26:09Z</time>
      </trkpt>
      <trkpt lat="46.5090130" lon="6.6675590">
        <ele>407.9</ele>
        <time>2019-02-24T14:26:10Z</time>
      </trkpt>
      <trkpt lat="46.5090130" lon="6.6675590">
        <ele>407.9</ele>
        <time>2019-02-24T14:26:11Z</time>
      </trkpt>
      <trkpt lat="46.5090130" lon="6.6675590">
        <ele>407.9</ele>
        <time>2019-02-24T14:26:12Z</time>
      </trkpt>
      <trkpt lat="46.5090130" lon="6.6675590">
        <ele>407.9</ele>
        <time>2019-02-24T14:26:13Z</time>
      </trkpt>
      <trkpt lat="46.5090130" lon="6.6675590">
        <ele>407.9</ele>
        <time>2019-02-24T14:26:14Z</time>
      </trkpt>
      <trkpt lat="46.5090130" lon="6.6675590">
        <ele>407.9</ele>
        <time>2019-02-24T14:26:15Z</time>
      </trkpt>
      <trkpt lat="46.5090130" lon="6.6675590">
        <ele>407.9</ele>
        <time>2019-02-24T14:26:16Z</time>
      </trkpt>
      <trkpt lat="46.5090130" lon="6.6675590">
        <ele>407.9</ele>
        <time>2019-02-24T14:26:17Z</time>
      </trkpt>
      <trkpt lat="46.5090130" lon="6.6675590">
        <ele>407.9</ele>
        <time>2019-02-24T14:26:18Z</time>
      </trkpt>
      <trkpt lat="46.5090130" lon="6.6675590">
        <ele>407.9</ele>
        <time>2019-02-24T14:26:19Z</time>
      </trkpt>
      <trkpt lat="46.5090130" lon="6.6675590">
        <ele>407.9</ele>
        <time>2019-02-24T14:26:20Z</time>
      </trkpt>
      <trkpt lat="46.5090130" lon="6.6675590">
        <ele>407.9</ele>
        <time>2019-02-24T14:26:21Z</time>
      </trkpt>
      <trkpt lat="46.5090130" lon="6.6675590">
        <ele>407.9</ele>
        <time>2019-02-24T14:26:22Z</time>
      </trkpt>
      <trkpt lat="46.5090130" lon="6.6675590">
        <ele>407.9</ele>
        <time>2019-02-24T14:26:23Z</time>
      </trkpt>
      <trkpt lat="46.5090130" lon="6.6675590">
        <ele>407.9</ele>
        <time>2019-02-24T14:26:24Z</time>
      </trkpt>
      <trkpt lat="46.5090130" lon="6.6675590">
        <ele>407.9</ele>
        <time>2019-02-24T14:26:25Z</time>
      </trkpt>
      <trkpt lat="46.5090130" lon="6.6675590">
        <ele>407.9</ele>
        <time>2019-02-24T14:26:26Z</time>
      </trkpt>
      <trkpt lat="46.5090130" lon="6.6675590">
        <ele>407.9</ele>
        <time>2019-02-24T14:26:27Z</time>
      </trkpt>
      <trkpt lat="46.5090130" lon="6.6675590">
        <ele>407.9</ele>
        <time>2019-02-24T14:26:28Z</time>
      </trkpt>
      <trkpt lat="46.5090130" lon="6.6675590">
        <ele>407.9</ele>
        <time>2019-02-24T14:26:29Z</time>
      </trkpt>
      <trkpt lat="46.5090130" lon="6.6675590">
        <ele>407.9</ele>
        <time>2019-02-24T14:26:30Z</time>
      </trkpt>
      <trkpt lat="46.5090130" lon="6.6675590">
        <ele>407.9</ele>
        <time>2019-02-24T14:26:31Z</time>
      </trkpt>
      <trkpt lat="46.5090130" lon="6.6675590">
        <ele>407.9</ele>
        <time>2019-02-24T14:26:32Z</time>
      </trkpt>
      <trkpt lat="46.5090130" lon="6.6675590">
        <ele>407.9</ele>
        <time>2019-02-24T14:26:33Z</time>
      </trkpt>
      <trkpt lat="46.5090130" lon="6.6675590">
        <ele>407.9</ele>
        <time>2019-02-24T14:26:34Z</time>
      </trkpt>
      <trkpt lat="46.5090130" lon="6.6675590">
        <ele>407.9</ele>
        <time>2019-02-24T14:26:35Z</time>
      </trkpt>
      <trkpt lat="46.5090130" lon="6.6675590">
        <ele>407.9</ele>
        <time>2019-02-24T14:26:36Z</time>
      </trkpt>
      <trkpt lat="46.5090130" lon="6.6675590">
        <ele>407.9</ele>
        <time>2019-02-24T14:26:37Z</time>
      </trkpt>
      <trkpt lat="46.5090130" lon="6.6675590">
        <ele>407.9</ele>
        <time>2019-02-24T14:26:38Z</time>
      </trkpt>
      <trkpt lat="46.5090130" lon="6.6675590">
        <ele>407.9</ele>
        <time>2019-02-24T14:26:39Z</time>
      </trkpt>
      <trkpt lat="46.5090130" lon="6.6675580">
        <ele>407.9</ele>
        <time>2019-02-24T14:26:40Z</time>
      </trkpt>
      <trkpt lat="46.5090130" lon="6.6675580">
        <ele>407.9</ele>
        <time>2019-02-24T14:26:41Z</time>
      </trkpt>
      <trkpt lat="46.5090130" lon="6.6675580">
        <ele>407.9</ele>
        <time>2019-02-24T14:26:42Z</time>
      </trkpt>
      <trkpt lat="46.5090130" lon="6.6675580">
        <ele>407.9</ele>
        <time>2019-02-24T14:26:43Z</time>
      </trkpt>
      <trkpt lat="46.5090130" lon="6.6675580">
        <ele>407.9</ele>
        <time>2019-02-24T14:26:44Z</time>
      </trkpt>
      <trkpt lat="46.5090130" lon="6.6675580">
        <ele>407.9</ele>
        <time>2019-02-24T14:26:45Z</time>
      </trkpt>
      <trkpt lat="46.5090130" lon="6.6675580">
        <ele>407.9</ele>
        <time>2019-02-24T14:26:46Z</time>
      </trkpt>
      <trkpt lat="46.5090130" lon="6.6675580">
        <ele>407.9</ele>
        <time>2019-02-24T14:26:47Z</time>
      </trkpt>
      <trkpt lat="46.5090130" lon="6.6675580">
        <ele>407.9</ele>
        <time>2019-02-24T14:26:48Z</time>
      </trkpt>
      <trkpt lat="46.5090130" lon="6.6675580">
        <ele>407.9</ele>
        <time>2019-02-24T14:26:49Z</time>
      </trkpt>
      <trkpt lat="46.5090130" lon="6.6675580">
        <ele>407.9</ele>
        <time>2019-02-24T14:26:50Z</time>
      </trkpt>
      <trkpt lat="46.5090130" lon="6.6675580">
        <ele>407.9</ele>
        <time>2019-02-24T14:26:51Z</time>
      </trkpt>
      <trkpt lat="46.5090130" lon="6.6675580">
        <ele>407.9</ele>
        <time>2019-02-24T14:26:52Z</time>
      </trkpt>
      <trkpt lat="46.5090130" lon="6.6675580">
        <ele>407.9</ele>
        <time>2019-02-24T14:26:53Z</time>
      </trkpt>
      <trkpt lat="46.5090130" lon="6.6675580">
        <ele>407.9</ele>
        <time>2019-02-24T14:26:54Z</time>
      </trkpt>
      <trkpt lat="46.5090130" lon="6.6675580">
        <ele>407.9</ele>
        <time>2019-02-24T14:26:55Z</time>
      </trkpt>
      <trkpt lat="46.5090130" lon="6.6675580">
        <ele>407.9</ele>
        <time>2019-02-24T14:26:56Z</time>
      </trkpt>
      <trkpt lat="46.5090130" lon="6.6675580">
        <ele>407.9</ele>
        <time>2019-02-24T14:26:57Z</time>
      </trkpt>
      <trkpt lat="46.5090130" lon="6.6675580">
        <ele>407.9</ele>
        <time>2019-02-24T14:26:58Z</time>
      </trkpt>
      <trkpt lat="46.5090130" lon="6.6675580">
        <ele>407.9</ele>
        <time>2019-02-24T14:26:59Z</time>
      </trkpt>
      <trkpt lat="46.5090130" lon="6.6675580">
        <ele>407.9</ele>
        <time>2019-02-24T14:27:00Z</time>
      </trkpt>
      <trkpt lat="46.5090130" lon="6.6675580">
        <ele>407.9</ele>
        <time>2019-02-24T14:27:01Z</time>
      </trkpt>
      <trkpt lat="46.5090130" lon="6.6675580">
        <ele>407.9</ele>
        <time>2019-02-24T14:27:02Z</time>
      </trkpt>
      <trkpt lat="46.5090130" lon="6.6675580">
        <ele>407.9</ele>
        <time>2019-02-24T14:27:03Z</time>
      </trkpt>
      <trkpt lat="46.5090130" lon="6.6675580">
        <ele>407.9</ele>
        <time>2019-02-24T14:27:04Z</time>
      </trkpt>
      <trkpt lat="46.5090130" lon="6.6675580">
        <ele>407.9</ele>
        <time>2019-02-24T14:27:05Z</time>
      </trkpt>
      <trkpt lat="46.5090130" lon="6.6675580">
        <ele>407.9</ele>
        <time>2019-02-24T14:27:06Z</time>
      </trkpt>
      <trkpt lat="46.5090130" lon="6.6675580">
        <ele>407.9</ele>
        <time>2019-02-24T14:27:07Z</time>
      </trkpt>
      <trkpt lat="46.5090130" lon="6.6675580">
        <ele>407.9</ele>
        <time>2019-02-24T14:27:08Z</time>
      </trkpt>
      <trkpt lat="46.5090130" lon="6.6675580">
        <ele>407.9</ele>
        <time>2019-02-24T14:27:09Z</time>
      </trkpt>
      <trkpt lat="46.5090130" lon="6.6675580">
        <ele>407.9</ele>
        <time>2019-02-24T14:27:10Z</time>
      </trkpt>
      <trkpt lat="46.5090130" lon="6.6675580">
        <ele>407.9</ele>
        <time>2019-02-24T14:27:11Z</time>
      </trkpt>
      <trkpt lat="46.5090130" lon="6.6675580">
        <ele>407.9</ele>
        <time>2019-02-24T14:27:12Z</time>
      </trkpt>
      <trkpt lat="46.5090130" lon="6.6675580">
        <ele>407.9</ele>
        <time>2019-02-24T14:27:13Z</time>
      </trkpt>
      <trkpt lat="46.5090130" lon="6.6675580">
        <ele>407.9</ele>
        <time>2019-02-24T14:27:14Z</time>
      </trkpt>
      <trkpt lat="46.5090130" lon="6.6675580">
        <ele>407.9</ele>
        <time>2019-02-24T14:27:15Z</time>
      </trkpt>
      <trkpt lat="46.5090130" lon="6.6675580">
        <ele>407.9</ele>
        <time>2019-02-24T14:27:16Z</time>
      </trkpt>
      <trkpt lat="46.5090130" lon="6.6675590">
        <ele>407.9</ele>
        <time>2019-02-24T14:27:17Z</time>
      </trkpt>
      <trkpt lat="46.5090130" lon="6.6675590">
        <ele>407.9</ele>
        <time>2019-02-24T14:27:18Z</time>
      </trkpt>
      <trkpt lat="46.5090130" lon="6.6675590">
        <ele>407.9</ele>
        <time>2019-02-24T14:27:19Z</time>
      </trkpt>
      <trkpt lat="46.5090130" lon="6.6675590">
        <ele>407.9</ele>
        <time>2019-02-24T14:27:20Z</time>
      </trkpt>
      <trkpt lat="46.5090130" lon="6.6675590">
        <ele>407.9</ele>
        <time>2019-02-24T14:27:21Z</time>
      </trkpt>
      <trkpt lat="46.5090130" lon="6.6675590">
        <ele>407.9</ele>
        <time>2019-02-24T14:27:22Z</time>
      </trkpt>
      <trkpt lat="46.5090130" lon="6.6675590">
        <ele>407.9</ele>
        <time>2019-02-24T14:27:23Z</time>
      </trkpt>
      <trkpt lat="46.5090130" lon="6.6675590">
        <ele>407.9</ele>
        <time>2019-02-24T14:27:24Z</time>
      </trkpt>
      <trkpt lat="46.5090130" lon="6.6675590">
        <ele>407.9</ele>
        <time>2019-02-24T14:27:25Z</time>
      </trkpt>
      <trkpt lat="46.5090130" lon="6.6675590">
        <ele>407.9</ele>
        <time>2019-02-24T14:27:26Z</time>
      </trkpt>
      <trkpt lat="46.5090130" lon="6.6675590">
        <ele>407.9</ele>
        <time>2019-02-24T14:27:27Z</time>
      </trkpt>
      <trkpt lat="46.5090130" lon="6.6675590">
        <ele>407.9</ele>
        <time>2019-02-24T14:27:28Z</time>
      </trkpt>
      <trkpt lat="46.5090120" lon="6.6675590">
        <ele>407.9</ele>
        <time>2019-02-24T14:27:29Z</time>
      </trkpt>
      <trkpt lat="46.5090120" lon="6.6675590">
        <ele>407.9</ele>
        <time>2019-02-24T14:27:30Z</time>
      </trkpt>
      <trkpt lat="46.5090120" lon="6.6675590">
        <ele>407.9</ele>
        <time>2019-02-24T14:27:31Z</time>
      </trkpt>
      <trkpt lat="46.5090120" lon="6.6675590">
        <ele>407.9</ele>
        <time>2019-02-24T14:27:32Z</time>
      </trkpt>
      <trkpt lat="46.5090120" lon="6.6675590">
        <ele>407.9</ele>
        <time>2019-02-24T14:27:33Z</time>
      </trkpt>
      <trkpt lat="46.5090120" lon="6.6675590">
        <ele>407.9</ele>
        <time>2019-02-24T14:27:34Z</time>
      </trkpt>
      <trkpt lat="46.5090120" lon="6.6675590">
        <ele>407.9</ele>
        <time>2019-02-24T14:27:35Z</time>
      </trkpt>
      <trkpt lat="46.5090120" lon="6.6675590">
        <ele>407.9</ele>
        <time>2019-02-24T14:27:36Z</time>
      </trkpt>
      <trkpt lat="46.5090120" lon="6.6675590">
        <ele>407.9</ele>
        <time>2019-02-24T14:27:37Z</time>
      </trkpt>
      <trkpt lat="46.5090120" lon="6.6675590">
        <ele>407.9</ele>
        <time>2019-02-24T14:27:38Z</time>
      </trkpt>
      <trkpt lat="46.5090120" lon="6.6675590">
        <ele>407.9</ele>
        <time>2019-02-24T14:27:39Z</time>
      </trkpt>
      <trkpt lat="46.5090120" lon="6.6675590">
        <ele>407.9</ele>
        <time>2019-02-24T14:27:40Z</time>
      </trkpt>
      <trkpt lat="46.5090120" lon="6.6675590">
        <ele>407.9</ele>
        <time>2019-02-24T14:27:41Z</time>
      </trkpt>
      <trkpt lat="46.5090120" lon="6.6675590">
        <ele>407.9</ele>
        <time>2019-02-24T14:27:42Z</time>
      </trkpt>
      <trkpt lat="46.5090120" lon="6.6675590">
        <ele>407.9</ele>
        <time>2019-02-24T14:27:43Z</time>
      </trkpt>
      <trkpt lat="46.5090120" lon="6.6675590">
        <ele>407.9</ele>
        <time>2019-02-24T14:27:44Z</time>
      </trkpt>
      <trkpt lat="46.5090120" lon="6.6675580">
        <ele>407.9</ele>
        <time>2019-02-24T14:27:45Z</time>
      </trkpt>
      <trkpt lat="46.5090120" lon="6.6675580">
        <ele>407.9</ele>
        <time>2019-02-24T14:27:46Z</time>
      </trkpt>
      <trkpt lat="46.5090120" lon="6.6675580">
        <ele>407.9</ele>
        <time>2019-02-24T14:27:47Z</time>
      </trkpt>
      <trkpt lat="46.5090120" lon="6.6675580">
        <ele>407.9</ele>
        <time>2019-02-24T14:27:48Z</time>
      </trkpt>
      <trkpt lat="46.5090120" lon="6.6675580">
        <ele>407.9</ele>
        <time>2019-02-24T14:27:49Z</time>
      </trkpt>
      <trkpt lat="46.5090120" lon="6.6675580">
        <ele>407.9</ele>
        <time>2019-02-24T14:27:50Z</time>
      </trkpt>
      <trkpt lat="46.5090120" lon="6.6675580">
        <ele>407.9</ele>
        <time>2019-02-24T14:27:51Z</time>
      </trkpt>
      <trkpt lat="46.5090120" lon="6.6675580">
        <ele>407.9</ele>
        <time>2019-02-24T14:27:52Z</time>
      </trkpt>
      <trkpt lat="46.5090120" lon="6.6675580">
        <ele>407.9</ele>
        <time>2019-02-24T14:27:53Z</time>
      </trkpt>
      <trkpt lat="46.5090120" lon="6.6675580">
        <ele>407.9</ele>
        <time>2019-02-24T14:27:54Z</time>
      </trkpt>
      <trkpt lat="46.5090120" lon="6.6675580">
        <ele>407.9</ele>
        <time>2019-02-24T14:27:55Z</time>
      </trkpt>
      <trkpt lat="46.5090120" lon="6.6675580">
        <ele>407.9</ele>
        <time>2019-02-24T14:27:56Z</time>
      </trkpt>
      <trkpt lat="46.5090120" lon="6.6675580">
        <ele>407.9</ele>
        <time>2019-02-24T14:27:57Z</time>
      </trkpt>
      <trkpt lat="46.5090120" lon="6.6675580">
        <ele>407.9</ele>
        <time>2019-02-24T14:27:58Z</time>
      </trkpt>
      <trkpt lat="46.5090120" lon="6.6675580">
        <ele>407.9</ele>
        <time>2019-02-24T14:27:59Z</time>
      </trkpt>
      <trkpt lat="46.5090120" lon="6.6675580">
        <ele>407.9</ele>
        <time>2019-02-24T14:28:00Z</time>
      </trkpt>
      <trkpt lat="46.5090120" lon="6.6675580">
        <ele>407.9</ele>
        <time>2019-02-24T14:28:01Z</time>
      </trkpt>
      <trkpt lat="46.5090120" lon="6.6675580">
        <ele>407.9</ele>
        <time>2019-02-24T14:28:02Z</time>
      </trkpt>
      <trkpt lat="46.5090120" lon="6.6675580">
        <ele>407.9</ele>
        <time>2019-02-24T14:28:03Z</time>
      </trkpt>
      <trkpt lat="46.5090130" lon="6.6675580">
        <ele>407.9</ele>
        <time>2019-02-24T14:28:04Z</time>
      </trkpt>
      <trkpt lat="46.5090130" lon="6.6675580">
        <ele>407.9</ele>
        <time>2019-02-24T14:28:05Z</time>
      </trkpt>
      <trkpt lat="46.5090130" lon="6.6675580">
        <ele>407.9</ele>
        <time>2019-02-24T14:28:06Z</time>
      </trkpt>
      <trkpt lat="46.5090130" lon="6.6675580">
        <ele>407.9</ele>
        <time>2019-02-24T14:28:07Z</time>
      </trkpt>
      <trkpt lat="46.5090130" lon="6.6675580">
        <ele>407.9</ele>
        <time>2019-02-24T14:28:08Z</time>
      </trkpt>
      <trkpt lat="46.5090130" lon="6.6675580">
        <ele>407.9</ele>
        <time>2019-02-24T14:28:09Z</time>
      </trkpt>
      <trkpt lat="46.5090130" lon="6.6675580">
        <ele>407.9</ele>
        <time>2019-02-24T14:28:10Z</time>
      </trkpt>
      <trkpt lat="46.5090130" lon="6.6675580">
        <ele>407.9</ele>
        <time>2019-02-24T14:28:11Z</time>
      </trkpt>
      <trkpt lat="46.5090130" lon="6.6675580">
        <ele>407.9</ele>
        <time>2019-02-24T14:28:12Z</time>
      </trkpt>
      <trkpt lat="46.5090130" lon="6.6675580">
        <ele>407.9</ele>
        <time>2019-02-24T14:28:13Z</time>
      </trkpt>
      <trkpt lat="46.5090130" lon="6.6675590">
        <ele>407.9</ele>
        <time>2019-02-24T14:28:14Z</time>
      </trkpt>
      <trkpt lat="46.5090130" lon="6.6675590">
        <ele>407.9</ele>
        <time>2019-02-24T14:28:15Z</time>
      </trkpt>
      <trkpt lat="46.5090130" lon="6.6675590">
        <ele>407.9</ele>
        <time>2019-02-24T14:28:16Z</time>
      </trkpt>
      <trkpt lat="46.5090130" lon="6.6675590">
        <ele>407.9</ele>
        <time>2019-02-24T14:28:17Z</time>
      </trkpt>
      <trkpt lat="46.5090130" lon="6.6675590">
        <ele>407.9</ele>
        <time>2019-02-24T14:28:18Z</time>
      </trkpt>
      <trkpt lat="46.5090130" lon="6.6675590">
        <ele>407.9</ele>
        <time>2019-02-24T14:28:19Z</time>
      </trkpt>
      <trkpt lat="46.5090130" lon="6.6675590">
        <ele>407.9</ele>
        <time>2019-02-24T14:28:20Z</time>
      </trkpt>
      <trkpt lat="46.5090130" lon="6.6675590">
        <ele>407.9</ele>
        <time>2019-02-24T14:28:21Z</time>
      </trkpt>
      <trkpt lat="46.5090130" lon="6.6675590">
        <ele>407.9</ele>
        <time>2019-02-24T14:28:22Z</time>
      </trkpt>
      <trkpt lat="46.5090130" lon="6.6675590">
        <ele>407.9</ele>
        <time>2019-02-24T14:28:23Z</time>
      </trkpt>
      <trkpt lat="46.5090130" lon="6.6675590">
        <ele>407.9</ele>
        <time>2019-02-24T14:28:24Z</time>
      </trkpt>
      <trkpt lat="46.5090130" lon="6.6675590">
        <ele>407.9</ele>
        <time>2019-02-24T14:28:25Z</time>
      </trkpt>
      <trkpt lat="46.5090130" lon="6.6675590">
        <ele>407.9</ele>
        <time>2019-02-24T14:28:26Z</time>
      </trkpt>
      <trkpt lat="46.5090120" lon="6.6675590">
        <ele>407.9</ele>
        <time>2019-02-24T14:28:27Z</time>
      </trkpt>
      <trkpt lat="46.5090120" lon="6.6675590">
        <ele>407.9</ele>
        <time>2019-02-24T14:28:28Z</time>
      </trkpt>
      <trkpt lat="46.5090120" lon="6.6675590">
        <ele>407.9</ele>
        <time>2019-02-24T14:28:29Z</time>
      </trkpt>
      <trkpt lat="46.5090120" lon="6.6675590">
        <ele>407.9</ele>
        <time>2019-02-24T14:28:30Z</time>
      </trkpt>
      <trkpt lat="46.5090120" lon="6.6675590">
        <ele>407.9</ele>
        <time>2019-02-24T14:28:31Z</time>
      </trkpt>
      <trkpt lat="46.5090120" lon="6.6675590">
        <ele>407.9</ele>
        <time>2019-02-24T14:28:32Z</time>
      </trkpt>
      <trkpt lat="46.5090120" lon="6.6675590">
        <ele>407.9</ele>
        <time>2019-02-24T14:28:33Z</time>
      </trkpt>
      <trkpt lat="46.5090120" lon="6.6675590">
        <ele>407.9</ele>
        <time>2019-02-24T14:28:34Z</time>
      </trkpt>
      <trkpt lat="46.5090120" lon="6.6675580">
        <ele>407.9</ele>
        <time>2019-02-24T14:28:35Z</time>
      </trkpt>
      <trkpt lat="46.5090120" lon="6.6675580">
        <ele>407.9</ele>
        <time>2019-02-24T14:28:36Z</time>
      </trkpt>
      <trkpt lat="46.5090120" lon="6.6675580">
        <ele>407.9</ele>
        <time>2019-02-24T14:28:37Z</time>
      </trkpt>
      <trkpt lat="46.5090120" lon="6.6675580">
        <ele>407.9</ele>
        <time>2019-02-24T14:28:38Z</time>
      </trkpt>
      <trkpt lat="46.5090120" lon="6.6675580">
        <ele>407.9</ele>
        <time>2019-02-24T14:28:39Z</time>
      </trkpt>
      <trkpt lat="46.5090100" lon="6.6675540">
        <ele>407.9</ele>
        <time>2019-02-24T14:28:40Z</time>
      </trkpt>
      <trkpt lat="46.5090060" lon="6.6675460">
        <ele>407.9</ele>
        <time>2019-02-24T14:28:41Z</time>
      </trkpt>
      <trkpt lat="46.5090010" lon="6.6675380">
        <ele>407.9</ele>
        <time>2019-02-24T14:28:42Z</time>
      </trkpt>
      <trkpt lat="46.5089970" lon="6.6675310">
        <ele>408.0</ele>
        <time>2019-02-24T14:28:43Z</time>
      </trkpt>
      <trkpt lat="46.5090020" lon="6.6675100">
        <ele>408.0</ele>
        <time>2019-02-24T14:28:44Z</time>
      </trkpt>
      <trkpt lat="46.5090040" lon="6.6674850">
        <ele>408.1</ele>
        <time>2019-02-24T14:28:45Z</time>
      </trkpt>
      <trkpt lat="46.5090030" lon="6.6674590">
        <ele>408.1</ele>
        <time>2019-02-24T14:28:46Z</time>
      </trkpt>
      <trkpt lat="46.5090020" lon="6.6674290">
        <ele>408.2</ele>
        <time>2019-02-24T14:28:47Z</time>
      </trkpt>
      <trkpt lat="46.5090000" lon="6.6673970">
        <ele>408.3</ele>
        <time>2019-02-24T14:28:48Z</time>
      </trkpt>
      <trkpt lat="46.5089980" lon="6.6673660">
        <ele>408.5</ele>
        <time>2019-02-24T14:28:49Z</time>
      </trkpt>
      <trkpt lat="46.5089950" lon="6.6673350">
        <ele>408.6</ele>
        <time>2019-02-24T14:28:50Z</time>
      </trkpt>
      <trkpt lat="46.5089930" lon="6.6673040">
        <ele>408.7</ele>
        <time>2019-02-24T14:28:51Z</time>
      </trkpt>
      <trkpt lat="46.5089900" lon="6.6672730">
        <ele>408.8</ele>
        <time>2019-02-24T14:28:52Z</time>
      </trkpt>
      <trkpt lat="46.5089870" lon="6.6672400">
        <ele>409.0</ele>
        <time>2019-02-24T14:28:53Z</time>
      </trkpt>
      <trkpt lat="46.5089850" lon="6.6672070">
        <ele>409.1</ele>
        <time>2019-02-24T14:28:54Z</time>
      </trkpt>
      <trkpt lat="46.5089820" lon="6.6671730">
        <ele>409.2</ele>
        <time>2019-02-24T14:28:55Z</time>
      </trkpt>
      <trkpt lat="46.5089800" lon="6.6671390">
        <ele>409.4</ele>
        <time>2019-02-24T14:28:56Z</time>
      </trkpt>
      <trkpt lat="46.5089780" lon="6.6671040">
        <ele>409.5</ele>
        <time>2019-02-24T14:28:57Z</time>
      </trkpt>
      <trkpt lat="46.5089770" lon="6.6670700">
        <ele>409.8</ele>
        <time>2019-02-24T14:28:58Z</time>
      </trkpt>
      <trkpt lat="46.5089770" lon="6.6670350">
        <ele>409.8</ele>
        <time>2019-02-24T14:28:59Z</time>
      </trkpt>
      <trkpt lat="46.5089770" lon="6.6670010">
        <ele>409.9</ele>
        <time>2019-02-24T14:29:00Z</time>
      </trkpt>
      <trkpt lat="46.5089790" lon="6.6669670">
        <ele>410.0</ele>
        <time>2019-02-24T14:29:01Z</time>
      </trkpt>
      <trkpt lat="46.5089810" lon="6.6669340">
        <ele>410.1</ele>
        <time>2019-02-24T14:29:02Z</time>
      </trkpt>
      <trkpt lat="46.5089840" lon="6.6669000">
        <ele>410.2</ele>
        <time>2019-02-24T14:29:03Z</time>
      </trkpt>
      <trkpt lat="46.5089880" lon="6.6668670">
        <ele>410.3</ele>
        <time>2019-02-24T14:29:04Z</time>
      </trkpt>
      <trkpt lat="46.5089930" lon="6.6668350">
        <ele>410.4</ele>
        <time>2019-02-24T14:29:05Z</time>
      </trkpt>
      <trkpt lat="46.5089990" lon="6.6668020">
        <ele>410.5</ele>
        <time>2019-02-24T14:29:06Z</time>
      </trkpt>
      <trkpt lat="46.5090050" lon="6.6667690">
        <ele>410.7</ele>
        <time>2019-02-24T14:29:07Z</time>
      </trkpt>
      <trkpt lat="46.5090110" lon="6.6667350">
        <ele>410.8</ele>
        <time>2019-02-24T14:29:08Z</time>
      </trkpt>
      <trkpt lat="46.5090180" lon="6.6667020">
        <ele>410.9</ele>
        <time>2019-02-24T14:29:09Z</time>
      </trkpt>
      <trkpt lat="46.5090260" lon="6.6666680">
        <ele>411.0</ele>
        <time>2019-02-24T14:29:10Z</time>
      </trkpt>
      <trkpt lat="46.5090340" lon="6.6666340">
        <ele>411.2</ele>
        <time>2019-02-24T14:29:11Z</time>
      </trkpt>
      <trkpt lat="46.5090420" lon="6.6666000">
        <ele>411.3</ele>
        <time>2019-02-24T14:29:12Z</time>
      </trkpt>
      <trkpt lat="46.5090500" lon="6.6665660">
        <ele>411.5</ele>
        <time>2019-02-24T14:29:13Z</time>
      </trkpt>
      <trkpt lat="46.5090580" lon="6.6665320">
        <ele>411.6</ele>
        <time>2019-02-24T14:29:14Z</time>
      </trkpt>
      <trkpt lat="46.5090660" lon="6.6664980">
        <ele>411.7</ele>
        <time>2019-02-24T14:29:15Z</time>
      </trkpt>
      <trkpt lat="46.5090740" lon="6.6664650">
        <ele>411.9</ele>
        <time>2019-02-24T14:29:16Z</time>
      </trkpt>
      <trkpt lat="46.5090820" lon="6.6664310">
        <ele>412.0</ele>
        <time>2019-02-24T14:29:17Z</time>
      </trkpt>
      <trkpt lat="46.5090900" lon="6.6663990">
        <ele>412.2</ele>
        <time>2019-02-24T14:29:18Z</time>
      </trkpt>
      <trkpt lat="46.5090980" lon="6.6663660">
        <ele>412.3</ele>
        <time>2019-02-24T14:29:19Z</time>
      </trkpt>
      <trkpt lat="46.5091060" lon="6.6663340">
        <ele>412.4</ele>
        <time>2019-02-24T14:29:20Z</time>
      </trkpt>
      <trkpt lat="46.5091150" lon="6.6663010">
        <ele>412.8</ele>
        <time>2019-02-24T14:29:21Z</time>
      </trkpt>
      <trkpt lat="46.5091230" lon="6.6662690">
        <ele>413.1</ele>
        <time>2019-02-24T14:29:22Z</time>
      </trkpt>
      <trkpt lat="46.5091320" lon="6.6662360">
        <ele>413.3</ele>
        <time>2019-02-24T14:29:23Z</time>
      </trkpt>
      <trkpt lat="46.5091410" lon="6.6662030">
        <ele>413.5</ele>
        <time>2019-02-24T14:29:24Z</time>
      </trkpt>
      <trkpt lat="46.5091510" lon="6.6661700">
        <ele>413.7</ele>
        <time>2019-02-24T14:29:25Z</time>
      </trkpt>
      <trkpt lat="46.5091610" lon="6.6661360">
        <ele>413.9</ele>
        <time>2019-02-24T14:29:26Z</time>
      </trkpt>
      <trkpt lat="46.5091710" lon="6.6661030">
        <ele>414.1</ele>
        <time>2019-02-24T14:29:27Z</time>
      </trkpt>
      <trkpt lat="46.5091810" lon="6.6660700">
        <ele>414.4</ele>
        <time>2019-02-24T14:29:28Z</time>
      </trkpt>
      <trkpt lat="46.5091910" lon="6.6660370">
        <ele>414.6</ele>
        <time>2019-02-24T14:29:29Z</time>
      </trkpt>
      <trkpt lat="46.5092010" lon="6.6660050">
        <ele>414.8</ele>
        <time>2019-02-24T14:29:30Z</time>
      </trkpt>
      <trkpt lat="46.5092100" lon="6.6659730">
        <ele>415.0</ele>
        <time>2019-02-24T14:29:31Z</time>
      </trkpt>
      <trkpt lat="46.5092190" lon="6.6659420">
        <ele>415.2</ele>
        <time>2019-02-24T14:29:32Z</time>
      </trkpt>
      <trkpt lat="46.5092270" lon="6.6659130">
        <ele>415.4</ele>
        <time>2019-02-24T14:29:33Z</time>
      </trkpt>
      <trkpt lat="46.5092350" lon="6.6658840">
        <ele>415.6</ele>
        <time>2019-02-24T14:29:34Z</time>
      </trkpt>
      <trkpt lat="46.5092440" lon="6.6658580">
        <ele>415.8</ele>
        <time>2019-02-24T14:29:35Z</time>
      </trkpt>
      <trkpt lat="46.5092560" lon="6.6658340">
        <ele>415.9</ele>
        <time>2019-02-24T14:29:36Z</time>
      </trkpt>
      <trkpt lat="46.5092700" lon="6.6658130">
        <ele>416.1</ele>
        <time>2019-02-24T14:29:37Z</time>
      </trkpt>
      <trkpt lat="46.5092870" lon="6.6657920">
        <ele>416.2</ele>
        <time>2019-02-24T14:29:38Z</time>
      </trkpt>
      <trkpt lat="46.5093040" lon="6.6657720">
        <ele>416.5</ele>
        <time>2019-02-24T14:29:39Z</time>
      </trkpt>
      <trkpt lat="46.5093200" lon="6.6657500">
        <ele>416.6</ele>
        <time>2019-02-24T14:29:40Z</time>
      </trkpt>
      <trkpt lat="46.5093350" lon="6.6657250">
        <ele>416.7</ele>
        <time>2019-02-24T14:29:41Z</time>
      </trkpt>
      <trkpt lat="46.5093490" lon="6.6656990">
        <ele>416.9</ele>
        <time>2019-02-24T14:29:42Z</time>
      </trkpt>
      <trkpt lat="46.5093610" lon="6.6656700">
        <ele>417.0</ele>
        <time>2019-02-24T14:29:43Z</time>
      </trkpt>
      <trkpt lat="46.5093710" lon="6.6656400">
        <ele>417.3</ele>
        <time>2019-02-24T14:29:44Z</time>
      </trkpt>
      <trkpt lat="46.5093810" lon="6.6656090">
        <ele>417.5</ele>
        <time>2019-02-24T14:29:45Z</time>
      </trkpt>
      <trkpt lat="46.5093910" lon="6.6655780">
        <ele>417.7</ele>
        <time>2019-02-24T14:29:46Z</time>
      </trkpt>
      <trkpt lat="46.5094010" lon="6.6655480">
        <ele>417.9</ele>
        <time>2019-02-24T14:29:47Z</time>
      </trkpt>
      <trkpt lat="46.5094120" lon="6.6655200">
        <ele>418.0</ele>
        <time>2019-02-24T14:29:48Z</time>
      </trkpt>
      <trkpt lat="46.5094260" lon="6.6654950">
        <ele>418.3</ele>
        <time>2019-02-24T14:29:49Z</time>
      </trkpt>
      <trkpt lat="46.5094410" lon="6.6654710">
        <ele>418.4</ele>
        <time>2019-02-24T14:29:50Z</time>
      </trkpt>
      <trkpt lat="46.5094570" lon="6.6654500">
        <ele>418.5</ele>
        <time>2019-02-24T14:29:51Z</time>
      </trkpt>
      <trkpt lat="46.5094750" lon="6.6654290">
        <ele>418.9</ele>
        <time>2019-02-24T14:29:52Z</time>
      </trkpt>
      <trkpt lat="46.5094930" lon="6.6654090">
        <ele>419.0</ele>
        <time>2019-02-24T14:29:53Z</time>
      </trkpt>
      <trkpt lat="46.5095110" lon="6.6653880">
        <ele>419.1</ele>
        <time>2019-02-24T14:29:54Z</time>
      </trkpt>
      <trkpt lat="46.5095290" lon="6.6653670">
        <ele>419.2</ele>
        <time>2019-02-24T14:29:55Z</time>
      </trkpt>
      <trkpt lat="46.5095460" lon="6.6653440">
        <ele>419.3</ele>
        <time>2019-02-24T14:29:56Z</time>
      </trkpt>
      <trkpt lat="46.5095630" lon="6.6653190">
        <ele>419.4</ele>
        <time>2019-02-24T14:29:57Z</time>
      </trkpt>
      <trkpt lat="46.5095790" lon="6.6652930">
        <ele>419.5</ele>
        <time>2019-02-24T14:29:58Z</time>
      </trkpt>
      <trkpt lat="46.5095930" lon="6.6652660">
        <ele>419.7</ele>
        <time>2019-02-24T14:29:59Z</time>
      </trkpt>
      <trkpt lat="46.5096070" lon="6.6652390">
        <ele>419.8</ele>
        <time>2019-02-24T14:30:00Z</time>
      </trkpt>
      <trkpt lat="46.5096210" lon="6.6652130">
        <ele>420.0</ele>
        <time>2019-02-24T14:30:01Z</time>
      </trkpt>
      <trkpt lat="46.5096340" lon="6.6651870">
        <ele>420.1</ele>
        <time>2019-02-24T14:30:02Z</time>
      </trkpt>
      <trkpt lat="46.5096460" lon="6.6651630">
        <ele>420.2</ele>
        <time>2019-02-24T14:30:03Z</time>
      </trkpt>
      <trkpt lat="46.5096580" lon="6.6651420">
        <ele>420.3</ele>
        <time>2019-02-24T14:30:04Z</time>
      </trkpt>
      <trkpt lat="46.5096690" lon="6.6651230">
        <ele>420.4</ele>
        <time>2019-02-24T14:30:05Z</time>
      </trkpt>
      <trkpt lat="46.5096810" lon="6.6651050">
        <ele>420.6</ele>
        <time>2019-02-24T14:30:06Z</time>
      </trkpt>
      <trkpt lat="46.5096940" lon="6.6650880">
        <ele>420.7</ele>
        <time>2019-02-24T14:30:07Z</time>
      </trkpt>
      <trkpt lat="46.5097070" lon="6.6650700">
        <ele>420.8</ele>
        <time>2019-02-24T14:30:08Z</time>
      </trkpt>
      <trkpt lat="46.5097230" lon="6.6650500">
        <ele>420.9</ele>
        <time>2019-02-24T14:30:09Z</time>
      </trkpt>
      <trkpt lat="46.5097400" lon="6.6650260">
        <ele>421.1</ele>
        <time>2019-02-24T14:30:10Z</time>
      </trkpt>
      <trkpt lat="46.5097560" lon="6.6650020">
        <ele>421.2</ele>
        <time>2019-02-24T14:30:11Z</time>
      </trkpt>
      <trkpt lat="46.5097700" lon="6.6649770">
        <ele>421.4</ele>
        <time>2019-02-24T14:30:12Z</time>
      </trkpt>
      <trkpt lat="46.5097840" lon="6.6649520">
        <ele>421.5</ele>
        <time>2019-02-24T14:30:13Z</time>
      </trkpt>
      <trkpt lat="46.5097990" lon="6.6649230">
        <ele>421.7</ele>
        <time>2019-02-24T14:30:14Z</time>
      </trkpt>
      <trkpt lat="46.5098160" lon="6.6648920">
        <ele>422.0</ele>
        <time>2019-02-24T14:30:15Z</time>
      </trkpt>
      <trkpt lat="46.5098340" lon="6.6648590">
        <ele>422.2</ele>
        <time>2019-02-24T14:30:16Z</time>
      </trkpt>
      <trkpt lat="46.5098530" lon="6.6648240">
        <ele>422.5</ele>
        <time>2019-02-24T14:30:17Z</time>
      </trkpt>
      <trkpt lat="46.5098730" lon="6.6647880">
        <ele>422.7</ele>
        <time>2019-02-24T14:30:18Z</time>
      </trkpt>
      <trkpt lat="46.5098930" lon="6.6647520">
        <ele>422.9</ele>
        <time>2019-02-24T14:30:19Z</time>
      </trkpt>
      <trkpt lat="46.5099130" lon="6.6647160">
        <ele>423.1</ele>
        <time>2019-02-24T14:30:20Z</time>
      </trkpt>
      <trkpt lat="46.5099330" lon="6.6646810">
        <ele>423.4</ele>
        <time>2019-02-24T14:30:21Z</time>
      </trkpt>
      <trkpt lat="46.5099520" lon="6.6646480">
        <ele>423.6</ele>
        <time>2019-02-24T14:30:22Z</time>
      </trkpt>
      <trkpt lat="46.5099690" lon="6.6646150">
        <ele>423.8</ele>
        <time>2019-02-24T14:30:23Z</time>
      </trkpt>
      <trkpt lat="46.5099870" lon="6.6645840">
        <ele>423.9</ele>
        <time>2019-02-24T14:30:24Z</time>
      </trkpt>
      <trkpt lat="46.5100030" lon="6.6645540">
        <ele>424.1</ele>
        <time>2019-02-24T14:30:25Z</time>
      </trkpt>
      <trkpt lat="46.5100190" lon="6.6645250">
        <ele>424.2</ele>
        <time>2019-02-24T14:30:26Z</time>
      </trkpt>
      <trkpt lat="46.5100350" lon="6.6644960">
        <ele>424.3</ele>
        <time>2019-02-24T14:30:27Z</time>
      </trkpt>
      <trkpt lat="46.5100500" lon="6.6644680">
        <ele>424.5</ele>
        <time>2019-02-24T14:30:28Z</time>
      </trkpt>
      <trkpt lat="46.5100650" lon="6.6644410">
        <ele>424.7</ele>
        <time>2019-02-24T14:30:29Z</time>
      </trkpt>
      <trkpt lat="46.5100800" lon="6.6644140">
        <ele>424.9</ele>
        <time>2019-02-24T14:30:30Z</time>
      </trkpt>
      <trkpt lat="46.5100950" lon="6.6643860">
        <ele>425.1</ele>
        <time>2019-02-24T14:30:31Z</time>
      </trkpt>
      <trkpt lat="46.5101090" lon="6.6643590">
        <ele>425.2</ele>
        <time>2019-02-24T14:30:32Z</time>
      </trkpt>
      <trkpt lat="46.5101240" lon="6.6643320">
        <ele>425.4</ele>
        <time>2019-02-24T14:30:33Z</time>
      </trkpt>
      <trkpt lat="46.5101390" lon="6.6643050">
        <ele>425.6</ele>
        <time>2019-02-24T14:30:34Z</time>
      </trkpt>
      <trkpt lat="46.5101530" lon="6.6642780">
        <ele>425.9</ele>
        <time>2019-02-24T14:30:35Z</time>
      </trkpt>
      <trkpt lat="46.5101680" lon="6.6642510">
        <ele>426.1</ele>
        <time>2019-02-24T14:30:36Z</time>
      </trkpt>
      <trkpt lat="46.5101830" lon="6.6642240">
        <ele>426.2</ele>
        <time>2019-02-24T14:30:37Z</time>
      </trkpt>
      <trkpt lat="46.5101980" lon="6.6641960">
        <ele>426.3</ele>
        <time>2019-02-24T14:30:38Z</time>
      </trkpt>
      <trkpt lat="46.5102140" lon="6.6641680">
        <ele>426.3</ele>
        <time>2019-02-24T14:30:39Z</time>
      </trkpt>
      <trkpt lat="46.5102290" lon="6.6641400">
        <ele>426.4</ele>
        <time>2019-02-24T14:30:40Z</time>
      </trkpt>
      <trkpt lat="46.5102440" lon="6.6641100">
        <ele>426.4</ele>
        <time>2019-02-24T14:30:41Z</time>
      </trkpt>
      <trkpt lat="46.5102590" lon="6.6640800">
        <ele>426.5</ele>
        <time>2019-02-24T14:30:42Z</time>
      </trkpt>
      <trkpt lat="46.5102730" lon="6.6640490">
        <ele>426.6</ele>
        <time>2019-02-24T14:30:43Z</time>
      </trkpt>
      <trkpt lat="46.5102880" lon="6.6640180">
        <ele>426.6</ele>
        <time>2019-02-24T14:30:44Z</time>
      </trkpt>
      <trkpt lat="46.5103010" lon="6.6639880">
        <ele>426.7</ele>
        <time>2019-02-24T14:30:45Z</time>
      </trkpt>
      <trkpt lat="46.5103150" lon="6.6639570">
        <ele>426.7</ele>
        <time>2019-02-24T14:30:46Z</time>
      </trkpt>
      <trkpt lat="46.5103280" lon="6.6639280">
        <ele>426.8</ele>
        <time>2019-02-24T14:30:47Z</time>
      </trkpt>
      <trkpt lat="46.5103410" lon="6.6638980">
        <ele>426.8</ele>
        <time>2019-02-24T14:30:48Z</time>
      </trkpt>
      <trkpt lat="46.5103530" lon="6.6638670">
        <ele>426.9</ele>
        <time>2019-02-24T14:30:49Z</time>
      </trkpt>
      <trkpt lat="46.5103660" lon="6.6638360">
        <ele>427.0</ele>
        <time>2019-02-24T14:30:50Z</time>
      </trkpt>
      <trkpt lat="46.5103790" lon="6.6638050">
        <ele>427.0</ele>
        <time>2019-02-24T14:30:51Z</time>
      </trkpt>
      <trkpt lat="46.5103920" lon="6.6637730">
        <ele>427.1</ele>
        <time>2019-02-24T14:30:52Z</time>
      </trkpt>
      <trkpt lat="46.5104050" lon="6.6637410">
        <ele>427.1</ele>
        <time>2019-02-24T14:30:53Z</time>
      </trkpt>
      <trkpt lat="46.5104190" lon="6.6637100">
        <ele>427.2</ele>
        <time>2019-02-24T14:30:54Z</time>
      </trkpt>
      <trkpt lat="46.5104330" lon="6.6636790">
        <ele>427.2</ele>
        <time>2019-02-24T14:30:55Z</time>
      </trkpt>
      <trkpt lat="46.5104460" lon="6.6636480">
        <ele>427.3</ele>
        <time>2019-02-24T14:30:56Z</time>
      </trkpt>
      <trkpt lat="46.5104600" lon="6.6636170">
        <ele>427.4</ele>
        <time>2019-02-24T14:30:57Z</time>
      </trkpt>
      <trkpt lat="46.5104730" lon="6.6635870">
        <ele>427.5</ele>
        <time>2019-02-24T14:30:58Z</time>
      </trkpt>
      <trkpt lat="46.5104870" lon="6.6635570">
        <ele>427.6</ele>
        <time>2019-02-24T14:30:59Z</time>
      </trkpt>
      <trkpt lat="46.5105000" lon="6.6635260">
        <ele>427.7</ele>
        <time>2019-02-24T14:31:00Z</time>
      </trkpt>
      <trkpt lat="46.5105130" lon="6.6634940">
        <ele>427.7</ele>
        <time>2019-02-24T14:31:01Z</time>
      </trkpt>
      <trkpt lat="46.5105270" lon="6.6634610">
        <ele>427.9</ele>
        <time>2019-02-24T14:31:02Z</time>
      </trkpt>
      <trkpt lat="46.5105400" lon="6.6634280">
        <ele>427.9</ele>
        <time>2019-02-24T14:31:03Z</time>
      </trkpt>
      <trkpt lat="46.5105530" lon="6.6633940">
        <ele>427.9</ele>
        <time>2019-02-24T14:31:04Z</time>
      </trkpt>
      <trkpt lat="46.5105670" lon="6.6633600">
        <ele>427.9</ele>
        <time>2019-02-24T14:31:05Z</time>
      </trkpt>
      <trkpt lat="46.5105800" lon="6.6633260">
        <ele>427.9</ele>
        <time>2019-02-24T14:31:06Z</time>
      </trkpt>
      <trkpt lat="46.5105940" lon="6.6632930">
        <ele>427.9</ele>
        <time>2019-02-24T14:31:07Z</time>
      </trkpt>
      <trkpt lat="46.5106080" lon="6.6632600">
        <ele>428.0</ele>
        <time>2019-02-24T14:31:08Z</time>
      </trkpt>
      <trkpt lat="46.5106220" lon="6.6632290">
        <ele>428.0</ele>
        <time>2019-02-24T14:31:09Z</time>
      </trkpt>
      <trkpt lat="46.5106360" lon="6.6631990">
        <ele>428.1</ele>
        <time>2019-02-24T14:31:10Z</time>
      </trkpt>
      <trkpt lat="46.5106510" lon="6.6631700">
        <ele>428.1</ele>
        <time>2019-02-24T14:31:11Z</time>
      </trkpt>
      <trkpt lat="46.5106650" lon="6.6631420">
        <ele>428.2</ele>
        <time>2019-02-24T14:31:12Z</time>
      </trkpt>
      <trkpt lat="46.5106800" lon="6.6631130">
        <ele>428.3</ele>
        <time>2019-02-24T14:31:13Z</time>
      </trkpt>
      <trkpt lat="46.5106940" lon="6.6630850">
        <ele>428.3</ele>
        <time>2019-02-24T14:31:14Z</time>
      </trkpt>
      <trkpt lat="46.5107080" lon="6.6630550">
        <ele>428.4</ele>
        <time>2019-02-24T14:31:15Z</time>
      </trkpt>
      <trkpt lat="46.5107230" lon="6.6630260">
        <ele>428.5</ele>
        <time>2019-02-24T14:31:16Z</time>
      </trkpt>
      <trkpt lat="46.5107370" lon="6.6629960">
        <ele>428.6</ele>
        <time>2019-02-24T14:31:17Z</time>
      </trkpt>
      <trkpt lat="46.5107510" lon="6.6629660">
        <ele>428.6</ele>
        <time>2019-02-24T14:31:18Z</time>
      </trkpt>
      <trkpt lat="46.5107660" lon="6.6629360">
        <ele>428.7</ele>
        <time>2019-02-24T14:31:19Z</time>
      </trkpt>
      <trkpt lat="46.5107800" lon="6.6629060">
        <ele>428.8</ele>
        <time>2019-02-24T14:31:20Z</time>
      </trkpt>
      <trkpt lat="46.5107950" lon="6.6628760">
        <ele>428.9</ele>
        <time>2019-02-24T14:31:21Z</time>
      </trkpt>
      <trkpt lat="46.5108090" lon="6.6628460">
        <ele>429.1</ele>
        <time>2019-02-24T14:31:22Z</time>
      </trkpt>
      <trkpt lat="46.5108240" lon="6.6628170">
        <ele>429.2</ele>
        <time>2019-02-24T14:31:23Z</time>
      </trkpt>
      <trkpt lat="46.5108380" lon="6.6627880">
        <ele>429.3</ele>
        <time>2019-02-24T14:31:24Z</time>
      </trkpt>
      <trkpt lat="46.5108520" lon="6.6627600">
        <ele>429.4</ele>
        <time>2019-02-24T14:31:25Z</time>
      </trkpt>
      <trkpt lat="46.5108660" lon="6.6627320">
        <ele>429.4</ele>
        <time>2019-02-24T14:31:26Z</time>
      </trkpt>
      <trkpt lat="46.5108810" lon="6.6627050">
        <ele>429.5</ele>
        <time>2019-02-24T14:31:27Z</time>
      </trkpt>
      <trkpt lat="46.5108950" lon="6.6626780">
        <ele>429.6</ele>
        <time>2019-02-24T14:31:28Z</time>
      </trkpt>
      <trkpt lat="46.5109090" lon="6.6626520">
        <ele>429.7</ele>
        <time>2019-02-24T14:31:29Z</time>
      </trkpt>
      <trkpt lat="46.5109230" lon="6.6626250">
        <ele>429.9</ele>
        <time>2019-02-24T14:31:30Z</time>
      </trkpt>
      <trkpt lat="46.5109370" lon="6.6625990">
        <ele>430.0</ele>
        <time>2019-02-24T14:31:31Z</time>
      </trkpt>
      <trkpt lat="46.5109510" lon="6.6625720">
        <ele>430.1</ele>
        <time>2019-02-24T14:31:32Z</time>
      </trkpt>
      <trkpt lat="46.5109660" lon="6.6625460">
        <ele>430.2</ele>
        <time>2019-02-24T14:31:33Z</time>
      </trkpt>
      <trkpt lat="46.5109800" lon="6.6625180">
        <ele>430.3</ele>
        <time>2019-02-24T14:31:34Z</time>
      </trkpt>
      <trkpt lat="46.5109950" lon="6.6624910">
        <ele>430.5</ele>
        <time>2019-02-24T14:31:35Z</time>
      </trkpt>
      <trkpt lat="46.5110100" lon="6.6624630">
        <ele>430.5</ele>
        <time>2019-02-24T14:31:36Z</time>
      </trkpt>
      <trkpt lat="46.5110250" lon="6.6624350">
        <ele>430.5</ele>
        <time>2019-02-24T14:31:37Z</time>
      </trkpt>
      <trkpt lat="46.5110400" lon="6.6624050">
        <ele>430.5</ele>
        <time>2019-02-24T14:31:38Z</time>
      </trkpt>
      <trkpt lat="46.5110550" lon="6.6623760">
        <ele>430.5</ele>
        <time>2019-02-24T14:31:39Z</time>
      </trkpt>
      <trkpt lat="46.5110710" lon="6.6623450">
        <ele>430.6</ele>
        <time>2019-02-24T14:31:40Z</time>
      </trkpt>
      <trkpt lat="46.5110860" lon="6.6623140">
        <ele>430.6</ele>
        <time>2019-02-24T14:31:41Z</time>
      </trkpt>
      <trkpt lat="46.5111020" lon="6.6622820">
        <ele>430.6</ele>
        <time>2019-02-24T14:31:42Z</time>
      </trkpt>
      <trkpt lat="46.5111180" lon="6.6622500">
        <ele>430.7</ele>
        <time>2019-02-24T14:31:43Z</time>
      </trkpt>
      <trkpt lat="46.5111340" lon="6.6622160">
        <ele>430.7</ele>
        <time>2019-02-24T14:31:44Z</time>
      </trkpt>
      <trkpt lat="46.5111500" lon="6.6621830">
        <ele>430.8</ele>
        <time>2019-02-24T14:31:45Z</time>
      </trkpt>
      <trkpt lat="46.5111660" lon="6.6621490">
        <ele>430.8</ele>
        <time>2019-02-24T14:31:46Z</time>
      </trkpt>
      <trkpt lat="46.5111810" lon="6.6621150">
        <ele>430.8</ele>
        <time>2019-02-24T14:31:47Z</time>
      </trkpt>
      <trkpt lat="46.5111970" lon="6.6620820">
        <ele>430.9</ele>
        <time>2019-02-24T14:31:48Z</time>
      </trkpt>
      <trkpt lat="46.5112130" lon="6.6620490">
        <ele>430.9</ele>
        <time>2019-02-24T14:31:49Z</time>
      </trkpt>
      <trkpt lat="46.5112290" lon="6.6620160">
        <ele>431.0</ele>
        <time>2019-02-24T14:31:50Z</time>
      </trkpt>
      <trkpt lat="46.5112450" lon="6.6619840">
        <ele>431.1</ele>
        <time>2019-02-24T14:31:51Z</time>
      </trkpt>
      <trkpt lat="46.5112610" lon="6.6619520">
        <ele>431.1</ele>
        <time>2019-02-24T14:31:52Z</time>
      </trkpt>
      <trkpt lat="46.5112770" lon="6.6619200">
        <ele>431.2</ele>
        <time>2019-02-24T14:31:53Z</time>
      </trkpt>
      <trkpt lat="46.5112930" lon="6.6618880">
        <ele>431.3</ele>
        <time>2019-02-24T14:31:54Z</time>
      </trkpt>
      <trkpt lat="46.5113090" lon="6.6618560">
        <ele>431.4</ele>
        <time>2019-02-24T14:31:55Z</time>
      </trkpt>
      <trkpt lat="46.5113250" lon="6.6618230">
        <ele>431.5</ele>
        <time>2019-02-24T14:31:56Z</time>
      </trkpt>
      <trkpt lat="46.5113420" lon="6.6617910">
        <ele>431.6</ele>
        <time>2019-02-24T14:31:57Z</time>
      </trkpt>
      <trkpt lat="46.5113600" lon="6.6617580">
        <ele>431.6</ele>
        <time>2019-02-24T14:31:58Z</time>
      </trkpt>
      <trkpt lat="46.5113770" lon="6.6617240">
        <ele>431.7</ele>
        <time>2019-02-24T14:31:59Z</time>
      </trkpt>
      <trkpt lat="46.5113950" lon="6.6616910">
        <ele>431.8</ele>
        <time>2019-02-24T14:32:00Z</time>
      </trkpt>
      <trkpt lat="46.5114120" lon="6.6616570">
        <ele>431.8</ele>
        <time>2019-02-24T14:32:01Z</time>
      </trkpt>
      <trkpt lat="46.5114300" lon="6.6616240">
        <ele>431.9</ele>
        <time>2019-02-24T14:32:02Z</time>
      </trkpt>
      <trkpt lat="46.5114460" lon="6.6615900">
        <ele>432.0</ele>
        <time>2019-02-24T14:32:03Z</time>
      </trkpt>
      <trkpt lat="46.5114630" lon="6.6615570">
        <ele>432.0</ele>
        <time>2019-02-24T14:32:04Z</time>
      </trkpt>
      <trkpt lat="46.5114780" lon="6.6615240">
        <ele>432.1</ele>
        <time>2019-02-24T14:32:05Z</time>
      </trkpt>
      <trkpt lat="46.5114930" lon="6.6614910">
        <ele>432.2</ele>
        <time>2019-02-24T14:32:06Z</time>
      </trkpt>
      <trkpt lat="46.5115070" lon="6.6614590">
        <ele>432.3</ele>
        <time>2019-02-24T14:32:07Z</time>
      </trkpt>
      <trkpt lat="46.5115210" lon="6.6614280">
        <ele>432.4</ele>
        <time>2019-02-24T14:32:08Z</time>
      </trkpt>
      <trkpt lat="46.5115350" lon="6.6613960">
        <ele>432.6</ele>
        <time>2019-02-24T14:32:09Z</time>
      </trkpt>
      <trkpt lat="46.5115500" lon="6.6613650">
        <ele>432.7</ele>
        <time>2019-02-24T14:32:10Z</time>
      </trkpt>
      <trkpt lat="46.5115660" lon="6.6613340">
        <ele>432.8</ele>
        <time>2019-02-24T14:32:11Z</time>
      </trkpt>
      <trkpt lat="46.5115820" lon="6.6613030">
        <ele>432.9</ele>
        <time>2019-02-24T14:32:12Z</time>
      </trkpt>
      <trkpt lat="46.5115980" lon="6.6612720">
        <ele>433.0</ele>
        <time>2019-02-24T14:32:13Z</time>
      </trkpt>
      <trkpt lat="46.5116130" lon="6.6612410">
        <ele>433.1</ele>
        <time>2019-02-24T14:32:14Z</time>
      </trkpt>
      <trkpt lat="46.5116290" lon="6.6612100">
        <ele>433.2</ele>
        <time>2019-02-24T14:32:15Z</time>
      </trkpt>
      <trkpt lat="46.5116440" lon="6.6611780">
        <ele>433.4</ele>
        <time>2019-02-24T14:32:16Z</time>
      </trkpt>
      <trkpt lat="46.5116590" lon="6.6611460">
        <ele>433.5</ele>
        <time>2019-02-24T14:32:17Z</time>
      </trkpt>
      <trkpt lat="46.5116740" lon="6.6611150">
        <ele>433.6</ele>
        <time>2019-02-24T14:32:18Z</time>
      </trkpt>
      <trkpt lat="46.5116890" lon="6.6610830">
        <ele>433.7</ele>
        <time>2019-02-24T14:32:19Z</time>
      </trkpt>
      <trkpt lat="46.5117040" lon="6.6610510">
        <ele>433.9</ele>
        <time>2019-02-24T14:32:20Z</time>
      </trkpt>
      <trkpt lat="46.5117180" lon="6.6610190">
        <ele>434.1</ele>
        <time>2019-02-24T14:32:21Z</time>
      </trkpt>
      <trkpt lat="46.5117330" lon="6.6609870">
        <ele>434.2</ele>
        <time>2019-02-24T14:32:22Z</time>
      </trkpt>
      <trkpt lat="46.5117480" lon="6.6609540">
        <ele>434.4</ele>
        <time>2019-02-24T14:32:23Z</time>
      </trkpt>
      <trkpt lat="46.5117620" lon="6.6609220">
        <ele>434.6</ele>
        <time>2019-02-24T14:32:24Z</time>
      </trkpt>
      <trkpt lat="46.5117770" lon="6.6608900">
        <ele>434.8</ele>
        <time>2019-02-24T14:32:25Z</time>
      </trkpt>
      <trkpt lat="46.5117910" lon="6.6608580">
        <ele>434.9</ele>
        <time>2019-02-24T14:32:26Z</time>
      </trkpt>
      <trkpt lat="46.5118060" lon="6.6608260">
        <ele>435.1</ele>
        <time>2019-02-24T14:32:27Z</time>
      </trkpt>
      <trkpt lat="46.5118200" lon="6.6607940">
        <ele>435.3</ele>
        <time>2019-02-24T14:32:28Z</time>
      </trkpt>
      <trkpt lat="46.5118350" lon="6.6607620">
        <ele>435.5</ele>
        <time>2019-02-24T14:32:29Z</time>
      </trkpt>
      <trkpt lat="46.5118500" lon="6.6607300">
        <ele>435.6</ele>
        <time>2019-02-24T14:32:30Z</time>
      </trkpt>
      <trkpt lat="46.5118650" lon="6.6606990">
        <ele>435.8</ele>
        <time>2019-02-24T14:32:31Z</time>
      </trkpt>
      <trkpt lat="46.5118800" lon="6.6606670">
        <ele>436.0</ele>
        <time>2019-02-24T14:32:32Z</time>
      </trkpt>
      <trkpt lat="46.5118950" lon="6.6606360">
        <ele>436.1</ele>
        <time>2019-02-24T14:32:33Z</time>
      </trkpt>
      <trkpt lat="46.5119100" lon="6.6606040">
        <ele>436.3</ele>
        <time>2019-02-24T14:32:34Z</time>
      </trkpt>
      <trkpt lat="46.5119250" lon="6.6605730">
        <ele>436.5</ele>
        <time>2019-02-24T14:32:35Z</time>
      </trkpt>
      <trkpt lat="46.5119400" lon="6.6605420">
        <ele>436.6</ele>
        <time>2019-02-24T14:32:36Z</time>
      </trkpt>
      <trkpt lat="46.5119550" lon="6.6605110">
        <ele>436.8</ele>
        <time>2019-02-24T14:32:37Z</time>
      </trkpt>
      <trkpt lat="46.5119700" lon="6.6604810">
        <ele>436.9</ele>
        <time>2019-02-24T14:32:38Z</time>
      </trkpt>
      <trkpt lat="46.5119840" lon="6.6604500">
        <ele>437.1</ele>
        <time>2019-02-24T14:32:39Z</time>
      </trkpt>
      <trkpt lat="46.5119990" lon="6.6604200">
        <ele>437.3</ele>
        <time>2019-02-24T14:32:40Z</time>
      </trkpt>
      <trkpt lat="46.5120140" lon="6.6603890">
        <ele>437.4</ele>
        <time>2019-02-24T14:32:41Z</time>
      </trkpt>
      <trkpt lat="46.5120280" lon="6.6603590">
        <ele>437.6</ele>
        <time>2019-02-24T14:32:42Z</time>
      </trkpt>
      <trkpt lat="46.5120430" lon="6.6603280">
        <ele>437.7</ele>
        <time>2019-02-24T14:32:43Z</time>
      </trkpt>
      <trkpt lat="46.5120570" lon="6.6602980">
        <ele>437.9</ele>
        <time>2019-02-24T14:32:44Z</time>
      </trkpt>
      <trkpt lat="46.5120720" lon="6.6602670">
        <ele>438.0</ele>
        <time>2019-02-24T14:32:45Z</time>
      </trkpt>
      <trkpt lat="46.5120860" lon="6.6602360">
        <ele>438.2</ele>
        <time>2019-02-24T14:32:46Z</time>
      </trkpt>
      <trkpt lat="46.5121000" lon="6.6602040">
        <ele>438.3</ele>
        <time>2019-02-24T14:32:47Z</time>
      </trkpt>
      <trkpt lat="46.5121150" lon="6.6601730">
        <ele>438.4</ele>
        <time>2019-02-24T14:32:48Z</time>
      </trkpt>
      <trkpt lat="46.5121290" lon="6.6601410">
        <ele>438.5</ele>
        <time>2019-02-24T14:32:49Z</time>
      </trkpt>
      <trkpt lat="46.5121430" lon="6.6601090">
        <ele>438.7</ele>
        <time>2019-02-24T14:32:50Z</time>
      </trkpt>
      <trkpt lat="46.5121570" lon="6.6600770">
        <ele>438.8</ele>
        <time>2019-02-24T14:32:51Z</time>
      </trkpt>
      <trkpt lat="46.5121710" lon="6.6600450">
        <ele>439.0</ele>
        <time>2019-02-24T14:32:52Z</time>
      </trkpt>
      <trkpt lat="46.5121850" lon="6.6600130">
        <ele>439.1</ele>
        <time>2019-02-24T14:32:53Z</time>
      </trkpt>
      <trkpt lat="46.5121980" lon="6.6599810">
        <ele>439.3</ele>
        <time>2019-02-24T14:32:54Z</time>
      </trkpt>
      <trkpt lat="46.5122110" lon="6.6599490">
        <ele>439.5</ele>
        <time>2019-02-24T14:32:55Z</time>
      </trkpt>
      <trkpt lat="46.5122230" lon="6.6599180">
        <ele>439.6</ele>
        <time>2019-02-24T14:32:56Z</time>
      </trkpt>
      <trkpt lat="46.5122350" lon="6.6598880">
        <ele>439.7</ele>
        <time>2019-02-24T14:32:57Z</time>
      </trkpt>
      <trkpt lat="46.5122440" lon="6.6598600">
        <ele>439.8</ele>
        <time>2019-02-24T14:32:58Z</time>
      </trkpt>
      <trkpt lat="46.5122530" lon="6.6598340">
        <ele>439.8</ele>
        <time>2019-02-24T14:32:59Z</time>
      </trkpt>
      <trkpt lat="46.5122600" lon="6.6598100">
        <ele>439.9</ele>
        <time>2019-02-24T14:33:00Z</time>
      </trkpt>
      <trkpt lat="46.5122670" lon="6.6597850">
        <ele>440.0</ele>
        <time>2019-02-24T14:33:01Z</time>
      </trkpt>
      <trkpt lat="46.5122740" lon="6.6597580">
        <ele>440.1</ele>
        <time>2019-02-24T14:33:02Z</time>
      </trkpt>
      <trkpt lat="46.5122820" lon="6.6597270">
        <ele>440.2</ele>
        <time>2019-02-24T14:33:03Z</time>
      </trkpt>
      <trkpt lat="46.5122900" lon="6.6596940">
        <ele>440.6</ele>
        <time>2019-02-24T14:33:04Z</time>
      </trkpt>
      <trkpt lat="46.5122990" lon="6.6596600">
        <ele>440.8</ele>
        <time>2019-02-24T14:33:05Z</time>
      </trkpt>
      <trkpt lat="46.5123090" lon="6.6596240">
        <ele>441.1</ele>
        <time>2019-02-24T14:33:06Z</time>
      </trkpt>
      <trkpt lat="46.5123180" lon="6.6595880">
        <ele>441.4</ele>
        <time>2019-02-24T14:33:07Z</time>
      </trkpt>
      <trkpt lat="46.5123270" lon="6.6595510">
        <ele>441.5</ele>
        <time>2019-02-24T14:33:08Z</time>
      </trkpt>
      <trkpt lat="46.5123360" lon="6.6595140">
        <ele>441.7</ele>
        <time>2019-02-24T14:33:09Z</time>
      </trkpt>
      <trkpt lat="46.5123440" lon="6.6594780">
        <ele>441.8</ele>
        <time>2019-02-24T14:33:10Z</time>
      </trkpt>
      <trkpt lat="46.5123520" lon="6.6594410">
        <ele>441.9</ele>
        <time>2019-02-24T14:33:11Z</time>
      </trkpt>
      <trkpt lat="46.5123600" lon="6.6594040">
        <ele>442.1</ele>
        <time>2019-02-24T14:33:12Z</time>
      </trkpt>
      <trkpt lat="46.5123660" lon="6.6593670">
        <ele>442.2</ele>
        <time>2019-02-24T14:33:13Z</time>
      </trkpt>
      <trkpt lat="46.5123730" lon="6.6593300">
        <ele>442.3</ele>
        <time>2019-02-24T14:33:14Z</time>
      </trkpt>
      <trkpt lat="46.5123790" lon="6.6592920">
        <ele>442.8</ele>
        <time>2019-02-24T14:33:15Z</time>
      </trkpt>
      <trkpt lat="46.5123840" lon="6.6592550">
        <ele>442.9</ele>
        <time>2019-02-24T14:33:16Z</time>
      </trkpt>
      <trkpt lat="46.5123900" lon="6.6592160">
        <ele>443.1</ele>
        <time>2019-02-24T14:33:17Z</time>
      </trkpt>
      <trkpt lat="46.5123950" lon="6.6591770">
        <ele>443.3</ele>
        <time>2019-02-24T14:33:18Z</time>
      </trkpt>
      <trkpt lat="46.5124000" lon="6.6591370">
        <ele>443.4</ele>
        <time>2019-02-24T14:33:19Z</time>
      </trkpt>
      <trkpt lat="46.5124050" lon="6.6590970">
        <ele>443.6</ele>
        <time>2019-02-24T14:33:20Z</time>
      </trkpt>
      <trkpt lat="46.5124100" lon="6.6590570">
        <ele>443.7</ele>
        <time>2019-02-24T14:33:21Z</time>
      </trkpt>
      <trkpt lat="46.5124140" lon="6.6590160">
        <ele>443.9</ele>
        <time>2019-02-24T14:33:22Z</time>
      </trkpt>
      <trkpt lat="46.5124190" lon="6.6589760">
        <ele>444.1</ele>
        <time>2019-02-24T14:33:23Z</time>
      </trkpt>
      <trkpt lat="46.5124230" lon="6.6589360">
        <ele>444.2</ele>
        <time>2019-02-24T14:33:24Z</time>
      </trkpt>
      <trkpt lat="46.5124270" lon="6.6588960">
        <ele>444.4</ele>
        <time>2019-02-24T14:33:25Z</time>
      </trkpt>
      <trkpt lat="46.5124310" lon="6.6588570">
        <ele>444.6</ele>
        <time>2019-02-24T14:33:26Z</time>
      </trkpt>
      <trkpt lat="46.5124350" lon="6.6588190">
        <ele>444.7</ele>
        <time>2019-02-24T14:33:27Z</time>
      </trkpt>
      <trkpt lat="46.5124380" lon="6.6587820">
        <ele>444.9</ele>
        <time>2019-02-24T14:33:28Z</time>
      </trkpt>
      <trkpt lat="46.5124420" lon="6.6587450">
        <ele>445.1</ele>
        <time>2019-02-24T14:33:29Z</time>
      </trkpt>
      <trkpt lat="46.5124450" lon="6.6587080">
        <ele>445.2</ele>
        <time>2019-02-24T14:33:30Z</time>
      </trkpt>
      <trkpt lat="46.5124480" lon="6.6586720">
        <ele>445.4</ele>
        <time>2019-02-24T14:33:31Z</time>
      </trkpt>
      <trkpt lat="46.5124510" lon="6.6586350">
        <ele>445.5</ele>
        <time>2019-02-24T14:33:32Z</time>
      </trkpt>
      <trkpt lat="46.5124540" lon="6.6585980">
        <ele>445.7</ele>
        <time>2019-02-24T14:33:33Z</time>
      </trkpt>
      <trkpt lat="46.5124560" lon="6.6585600">
        <ele>445.8</ele>
        <time>2019-02-24T14:33:34Z</time>
      </trkpt>
      <trkpt lat="46.5124590" lon="6.6585220">
        <ele>446.0</ele>
        <time>2019-02-24T14:33:35Z</time>
      </trkpt>
      <trkpt lat="46.5124610" lon="6.6584830">
        <ele>446.2</ele>
        <time>2019-02-24T14:33:36Z</time>
      </trkpt>
      <trkpt lat="46.5124630" lon="6.6584430">
        <ele>446.3</ele>
        <time>2019-02-24T14:33:37Z</time>
      </trkpt>
      <trkpt lat="46.5124650" lon="6.6584030">
        <ele>446.5</ele>
        <time>2019-02-24T14:33:38Z</time>
      </trkpt>
      <trkpt lat="46.5124660" lon="6.6583630">
        <ele>446.7</ele>
        <time>2019-02-24T14:33:39Z</time>
      </trkpt>
      <trkpt lat="46.5124670" lon="6.6583220">
        <ele>446.8</ele>
        <time>2019-02-24T14:33:40Z</time>
      </trkpt>
      <trkpt lat="46.5124670" lon="6.6582810">
        <ele>447.0</ele>
        <time>2019-02-24T14:33:41Z</time>
      </trkpt>
      <trkpt lat="46.5124670" lon="6.6582400">
        <ele>447.2</ele>
        <time>2019-02-24T14:33:42Z</time>
      </trkpt>
      <trkpt lat="46.5124660" lon="6.6581990">
        <ele>447.3</ele>
        <time>2019-02-24T14:33:43Z</time>
      </trkpt>
      <trkpt lat="46.5124650" lon="6.6581570">
        <ele>447.5</ele>
        <time>2019-02-24T14:33:44Z</time>
      </trkpt>
      <trkpt lat="46.5124630" lon="6.6581160">
        <ele>447.7</ele>
        <time>2019-02-24T14:33:45Z</time>
      </trkpt>
      <trkpt lat="46.5124610" lon="6.6580750">
        <ele>448.0</ele>
        <time>2019-02-24T14:33:46Z</time>
      </trkpt>
      <trkpt lat="46.5124580" lon="6.6580340">
        <ele>448.7</ele>
        <time>2019-02-24T14:33:47Z</time>
      </trkpt>
      <trkpt lat="46.5124550" lon="6.6579930">
        <ele>448.8</ele>
        <time>2019-02-24T14:33:48Z</time>
      </trkpt>
      <trkpt lat="46.5124510" lon="6.6579520">
        <ele>449.0</ele>
        <time>2019-02-24T14:33:49Z</time>
      </trkpt>
      <trkpt lat="46.5124470" lon="6.6579110">
        <ele>449.2</ele>
        <time>2019-02-24T14:33:50Z</time>
      </trkpt>
      <trkpt lat="46.5124430" lon="6.6578700">
        <ele>449.3</ele>
        <time>2019-02-24T14:33:51Z</time>
      </trkpt>
      <trkpt lat="46.5124390" lon="6.6578300">
        <ele>449.5</ele>
        <time>2019-02-24T14:33:52Z</time>
      </trkpt>
      <trkpt lat="46.5124350" lon="6.6577890">
        <ele>449.7</ele>
        <time>2019-02-24T14:33:53Z</time>
      </trkpt>
      <trkpt lat="46.5124310" lon="6.6577480">
        <ele>449.9</ele>
        <time>2019-02-24T14:33:54Z</time>
      </trkpt>
      <trkpt lat="46.5124260" lon="6.6577080">
        <ele>450.0</ele>
        <time>2019-02-24T14:33:55Z</time>
      </trkpt>
      <trkpt lat="46.5124220" lon="6.6576670">
        <ele>450.2</ele>
        <time>2019-02-24T14:33:56Z</time>
      </trkpt>
      <trkpt lat="46.5124180" lon="6.6576260">
        <ele>450.4</ele>
        <time>2019-02-24T14:33:57Z</time>
      </trkpt>
      <trkpt lat="46.5124140" lon="6.6575850">
        <ele>450.5</ele>
        <time>2019-02-24T14:33:58Z</time>
      </trkpt>
      <trkpt lat="46.5124110" lon="6.6575440">
        <ele>450.7</ele>
        <time>2019-02-24T14:33:59Z</time>
      </trkpt>
      <trkpt lat="46.5124070" lon="6.6575030">
        <ele>450.9</ele>
        <time>2019-02-24T14:34:00Z</time>
      </trkpt>
      <trkpt lat="46.5124040" lon="6.6574620">
        <ele>451.0</ele>
        <time>2019-02-24T14:34:01Z</time>
      </trkpt>
      <trkpt lat="46.5124020" lon="6.6574210">
        <ele>451.2</ele>
        <time>2019-02-24T14:34:02Z</time>
      </trkpt>
      <trkpt lat="46.5123990" lon="6.6573790">
        <ele>451.6</ele>
        <time>2019-02-24T14:34:03Z</time>
      </trkpt>
      <trkpt lat="46.5123960" lon="6.6573380">
        <ele>451.6</ele>
        <time>2019-02-24T14:34:04Z</time>
      </trkpt>
      <trkpt lat="46.5123940" lon="6.6572960">
        <ele>451.6</ele>
        <time>2019-02-24T14:34:05Z</time>
      </trkpt>
      <trkpt lat="46.5123910" lon="6.6572550">
        <ele>451.6</ele>
        <time>2019-02-24T14:34:06Z</time>
      </trkpt>
      <trkpt lat="46.5123880" lon="6.6572130">
        <ele>451.6</ele>
        <time>2019-02-24T14:34:07Z</time>
      </trkpt>
      <trkpt lat="46.5123850" lon="6.6571720">
        <ele>451.6</ele>
        <time>2019-02-24T14:34:08Z</time>
      </trkpt>
      <trkpt lat="46.5123820" lon="6.6571300">
        <ele>451.6</ele>
        <time>2019-02-24T14:34:09Z</time>
      </trkpt>
      <trkpt lat="46.5123790" lon="6.6570890">
        <ele>451.6</ele>
        <time>2019-02-24T14:34:10Z</time>
      </trkpt>
      <trkpt lat="46.5123760" lon="6.6570480">
        <ele>451.7</ele>
        <time>2019-02-24T14:34:11Z</time>
      </trkpt>
      <trkpt lat="46.5123730" lon="6.6570070">
        <ele>451.7</ele>
        <time>2019-02-24T14:34:12Z</time>
      </trkpt>
      <trkpt lat="46.5123690" lon="6.6569660">
        <ele>451.7</ele>
        <time>2019-02-24T14:34:13Z</time>
      </trkpt>
      <trkpt lat="46.5123660" lon="6.6569260">
        <ele>451.8</ele>
        <time>2019-02-24T14:34:14Z</time>
      </trkpt>
      <trkpt lat="46.5123620" lon="6.6568850">
        <ele>451.8</ele>
        <time>2019-02-24T14:34:15Z</time>
      </trkpt>
      <trkpt lat="46.5123590" lon="6.6568450">
        <ele>451.9</ele>
        <time>2019-02-24T14:34:16Z</time>
      </trkpt>
      <trkpt lat="46.5123560" lon="6.6568050">
        <ele>451.9</ele>
        <time>2019-02-24T14:34:17Z</time>
      </trkpt>
      <trkpt lat="46.5123530" lon="6.6567660">
        <ele>451.9</ele>
        <time>2019-02-24T14:34:18Z</time>
      </trkpt>
      <trkpt lat="46.5123500" lon="6.6567260">
        <ele>452.0</ele>
        <time>2019-02-24T14:34:19Z</time>
      </trkpt>
      <trkpt lat="46.5123480" lon="6.6566870">
        <ele>452.0</ele>
        <time>2019-02-24T14:34:20Z</time>
      </trkpt>
      <trkpt lat="46.5123460" lon="6.6566480">
        <ele>452.1</ele>
        <time>2019-02-24T14:34:21Z</time>
      </trkpt>
      <trkpt lat="46.5123450" lon="6.6566090">
        <ele>452.1</ele>
        <time>2019-02-24T14:34:22Z</time>
      </trkpt>
      <trkpt lat="46.5123450" lon="6.6565700">
        <ele>452.2</ele>
        <time>2019-02-24T14:34:23Z</time>
      </trkpt>
      <trkpt lat="46.5123460" lon="6.6565320">
        <ele>452.2</ele>
        <time>2019-02-24T14:34:24Z</time>
      </trkpt>
      <trkpt lat="46.5123470" lon="6.6564940">
        <ele>452.3</ele>
        <time>2019-02-24T14:34:25Z</time>
      </trkpt>
      <trkpt lat="46.5123500" lon="6.6564560">
        <ele>452.3</ele>
        <time>2019-02-24T14:34:26Z</time>
      </trkpt>
      <trkpt lat="46.5123530" lon="6.6564180">
        <ele>452.4</ele>
        <time>2019-02-24T14:34:27Z</time>
      </trkpt>
      <trkpt lat="46.5123580" lon="6.6563810">
        <ele>452.5</ele>
        <time>2019-02-24T14:34:28Z</time>
      </trkpt>
      <trkpt lat="46.5123630" lon="6.6563440">
        <ele>452.5</ele>
        <time>2019-02-24T14:34:29Z</time>
      </trkpt>
      <trkpt lat="46.5123690" lon="6.6563080">
        <ele>452.6</ele>
        <time>2019-02-24T14:34:30Z</time>
      </trkpt>
      <trkpt lat="46.5123760" lon="6.6562730">
        <ele>452.7</ele>
        <time>2019-02-24T14:34:31Z</time>
      </trkpt>
      <trkpt lat="46.5123840" lon="6.6562380">
        <ele>452.7</ele>
        <time>2019-02-24T14:34:32Z</time>
      </trkpt>
      <trkpt lat="46.5123930" lon="6.6562030">
        <ele>452.8</ele>
        <time>2019-02-24T14:34:33Z</time>
      </trkpt>
      <trkpt lat="46.5124030" lon="6.6561690">
        <ele>452.9</ele>
        <time>2019-02-24T14:34:34Z</time>
      </trkpt>
      <trkpt lat="46.5124140" lon="6.6561360">
        <ele>453.3</ele>
        <time>2019-02-24T14:34:35Z</time>
      </trkpt>
      <trkpt lat="46.5124250" lon="6.6561040">
        <ele>453.5</ele>
        <time>2019-02-24T14:34:36Z</time>
      </trkpt>
      <trkpt lat="46.5124370" lon="6.6560720">
        <ele>453.8</ele>
        <time>2019-02-24T14:34:37Z</time>
      </trkpt>
      <trkpt lat="46.5124490" lon="6.6560410">
        <ele>454.0</ele>
        <time>2019-02-24T14:34:38Z</time>
      </trkpt>
      <trkpt lat="46.5124620" lon="6.6560110">
        <ele>454.3</ele>
        <time>2019-02-24T14:34:39Z</time>
      </trkpt>
      <trkpt lat="46.5124760" lon="6.6559810">
        <ele>454.5</ele>
        <time>2019-02-24T14:34:40Z</time>
      </trkpt>
      <trkpt lat="46.5124900" lon="6.6559520">
        <ele>454.8</ele>
        <time>2019-02-24T14:34:41Z</time>
      </trkpt>
      <trkpt lat="46.5125050" lon="6.6559240">
        <ele>455.0</ele>
        <time>2019-02-24T14:34:42Z</time>
      </trkpt>
      <trkpt lat="46.5125200" lon="6.6558970">
        <ele>455.2</ele>
        <time>2019-02-24T14:34:43Z</time>
      </trkpt>
      <trkpt lat="46.5125360" lon="6.6558700">
        <ele>455.4</ele>
        <time>2019-02-24T14:34:44Z</time>
      </trkpt>
      <trkpt lat="46.5125520" lon="6.6558440">
        <ele>455.5</ele>
        <time>2019-02-24T14:34:45Z</time>
      </trkpt>
      <trkpt lat="46.5125690" lon="6.6558180">
        <ele>455.7</ele>
        <time>2019-02-24T14:34:46Z</time>
      </trkpt>
      <trkpt lat="46.5125860" lon="6.6557940">
        <ele>455.8</ele>
        <time>2019-02-24T14:34:47Z</time>
      </trkpt>
      <trkpt lat="46.5126040" lon="6.6557690">
        <ele>456.0</ele>
        <time>2019-02-24T14:34:48Z</time>
      </trkpt>
      <trkpt lat="46.5126220" lon="6.6557460">
        <ele>456.1</ele>
        <time>2019-02-24T14:34:49Z</time>
      </trkpt>
      <trkpt lat="46.5126410" lon="6.6557230">
        <ele>456.4</ele>
        <time>2019-02-24T14:34:50Z</time>
      </trkpt>
      <trkpt lat="46.5126600" lon="6.6557000">
        <ele>456.6</ele>
        <time>2019-02-24T14:34:51Z</time>
      </trkpt>
      <trkpt lat="46.5126790" lon="6.6556770">
        <ele>456.8</ele>
        <time>2019-02-24T14:34:52Z</time>
      </trkpt>
      <trkpt lat="46.5126980" lon="6.6556550">
        <ele>457.1</ele>
        <time>2019-02-24T14:34:53Z</time>
      </trkpt>
      <trkpt lat="46.5127180" lon="6.6556330">
        <ele>457.4</ele>
        <time>2019-02-24T14:34:54Z</time>
      </trkpt>
      <trkpt lat="46.5127370" lon="6.6556110">
        <ele>457.6</ele>
        <time>2019-02-24T14:34:55Z</time>
      </trkpt>
      <trkpt lat="46.5127560" lon="6.6555890">
        <ele>457.8</ele>
        <time>2019-02-24T14:34:56Z</time>
      </trkpt>
      <trkpt lat="46.5127750" lon="6.6555670">
        <ele>457.9</ele>
        <time>2019-02-24T14:34:57Z</time>
      </trkpt>
      <trkpt lat="46.5127940" lon="6.6555450">
        <ele>458.1</ele>
        <time>2019-02-24T14:34:58Z</time>
      </trkpt>
      <trkpt lat="46.5128130" lon="6.6555230">
        <ele>458.3</ele>
        <time>2019-02-24T14:34:59Z</time>
      </trkpt>
      <trkpt lat="46.5128320" lon="6.6555010">
        <ele>458.4</ele>
        <time>2019-02-24T14:35:00Z</time>
      </trkpt>
      <trkpt lat="46.5128510" lon="6.6554790">
        <ele>458.6</ele>
        <time>2019-02-24T14:35:01Z</time>
      </trkpt>
      <trkpt lat="46.5128700" lon="6.6554570">
        <ele>458.7</ele>
        <time>2019-02-24T14:35:02Z</time>
      </trkpt>
      <trkpt lat="46.5128900" lon="6.6554340">
        <ele>458.9</ele>
        <time>2019-02-24T14:35:03Z</time>
      </trkpt>
      <trkpt lat="46.5129090" lon="6.6554120">
        <ele>459.1</ele>
        <time>2019-02-24T14:35:04Z</time>
      </trkpt>
      <trkpt lat="46.5129280" lon="6.6553900">
        <ele>459.3</ele>
        <time>2019-02-24T14:35:05Z</time>
      </trkpt>
      <trkpt lat="46.5129480" lon="6.6553680">
        <ele>459.5</ele>
        <time>2019-02-24T14:35:06Z</time>
      </trkpt>
      <trkpt lat="46.5129680" lon="6.6553450">
        <ele>459.7</ele>
        <time>2019-02-24T14:35:07Z</time>
      </trkpt>
      <trkpt lat="46.5129880" lon="6.6553230">
        <ele>459.8</ele>
        <time>2019-02-24T14:35:08Z</time>
      </trkpt>
      <trkpt lat="46.5130080" lon="6.6553000">
        <ele>460.0</ele>
        <time>2019-02-24T14:35:09Z</time>
      </trkpt>
      <trkpt lat="46.5130290" lon="6.6552770">
        <ele>460.2</ele>
        <time>2019-02-24T14:35:10Z</time>
      </trkpt>
      <trkpt lat="46.5130500" lon="6.6552550">
        <ele>460.4</ele>
        <time>2019-02-24T14:35:11Z</time>
      </trkpt>
      <trkpt lat="46.5130720" lon="6.6552320">
        <ele>460.6</ele>
        <time>2019-02-24T14:35:12Z</time>
      </trkpt>
      <trkpt lat="46.5130930" lon="6.6552090">
        <ele>460.8</ele>
        <time>2019-02-24T14:35:13Z</time>
      </trkpt>
      <trkpt lat="46.5131150" lon="6.6551860">
        <ele>461.0</ele>
        <time>2019-02-24T14:35:14Z</time>
      </trkpt>
      <trkpt lat="46.5131370" lon="6.6551640">
        <ele>461.2</ele>
        <time>2019-02-24T14:35:15Z</time>
      </trkpt>
      <trkpt lat="46.5131590" lon="6.6551420">
        <ele>461.4</ele>
        <time>2019-02-24T14:35:16Z</time>
      </trkpt>
      <trkpt lat="46.5131810" lon="6.6551200">
        <ele>461.5</ele>
        <time>2019-02-24T14:35:17Z</time>
      </trkpt>
      <trkpt lat="46.5132030" lon="6.6550980">
        <ele>461.6</ele>
        <time>2019-02-24T14:35:18Z</time>
      </trkpt>
      <trkpt lat="46.5132240" lon="6.6550780">
        <ele>461.7</ele>
        <time>2019-02-24T14:35:19Z</time>
      </trkpt>
      <trkpt lat="46.5132450" lon="6.6550580">
        <ele>461.8</ele>
        <time>2019-02-24T14:35:20Z</time>
      </trkpt>
      <trkpt lat="46.5132650" lon="6.6550380">
        <ele>461.9</ele>
        <time>2019-02-24T14:35:21Z</time>
      </trkpt>
      <trkpt lat="46.5132860" lon="6.6550190">
        <ele>462.0</ele>
        <time>2019-02-24T14:35:22Z</time>
      </trkpt>
      <trkpt lat="46.5133060" lon="6.6550000">
        <ele>462.1</ele>
        <time>2019-02-24T14:35:23Z</time>
      </trkpt>
      <trkpt lat="46.5133270" lon="6.6549820">
        <ele>462.2</ele>
        <time>2019-02-24T14:35:24Z</time>
      </trkpt>
      <trkpt lat="46.5133480" lon="6.6549630">
        <ele>462.3</ele>
        <time>2019-02-24T14:35:25Z</time>
      </trkpt>
      <trkpt lat="46.5133690" lon="6.6549440">
        <ele>462.4</ele>
        <time>2019-02-24T14:35:26Z</time>
      </trkpt>
      <trkpt lat="46.5133910" lon="6.6549250">
        <ele>462.5</ele>
        <time>2019-02-24T14:35:27Z</time>
      </trkpt>
      <trkpt lat="46.5134140" lon="6.6549050">
        <ele>462.6</ele>
        <time>2019-02-24T14:35:28Z</time>
      </trkpt>
      <trkpt lat="46.5134370" lon="6.6548850">
        <ele>462.8</ele>
        <time>2019-02-24T14:35:29Z</time>
      </trkpt>
      <trkpt lat="46.5134600" lon="6.6548650">
        <ele>462.9</ele>
        <time>2019-02-24T14:35:30Z</time>
      </trkpt>
      <trkpt lat="46.5134840" lon="6.6548460">
        <ele>463.0</ele>
        <time>2019-02-24T14:35:31Z</time>
      </trkpt>
      <trkpt lat="46.5135060" lon="6.6548270">
        <ele>463.1</ele>
        <time>2019-02-24T14:35:32Z</time>
      </trkpt>
      <trkpt lat="46.5135290" lon="6.6548090">
        <ele>463.2</ele>
        <time>2019-02-24T14:35:33Z</time>
      </trkpt>
      <trkpt lat="46.5135500" lon="6.6547930">
        <ele>463.3</ele>
        <time>2019-02-24T14:35:34Z</time>
      </trkpt>
      <trkpt lat="46.5135700" lon="6.6547780">
        <ele>463.4</ele>
        <time>2019-02-24T14:35:35Z</time>
      </trkpt>
      <trkpt lat="46.5135880" lon="6.6547640">
        <ele>463.5</ele>
        <time>2019-02-24T14:35:36Z</time>
      </trkpt>
      <trkpt lat="46.5136100" lon="6.6547480">
        <ele>463.7</ele>
        <time>2019-02-24T14:35:37Z</time>
      </trkpt>
      <trkpt lat="46.5136160" lon="6.6547440">
        <ele>463.8</ele>
        <time>2019-02-24T14:35:38Z</time>
      </trkpt>
      <trkpt lat="46.5136220" lon="6.6547390">
        <ele>464.1</ele>
        <time>2019-02-24T14:35:39Z</time>
      </trkpt>
      <trkpt lat="46.5136280" lon="6.6547340">
        <ele>464.1</ele>
        <time>2019-02-24T14:35:40Z</time>
      </trkpt>
      <trkpt lat="46.5136320" lon="6.6547320">
        <ele>464.1</ele>
        <time>2019-02-24T14:35:41Z</time>
      </trkpt>
      <trkpt lat="46.5136370" lon="6.6547320">
        <ele>464.1</ele>
        <time>2019-02-24T14:35:42Z</time>
      </trkpt>
      <trkpt lat="46.5136420" lon="6.6547320">
        <ele>464.2</ele>
        <time>2019-02-24T14:35:43Z</time>
      </trkpt>
      <trkpt lat="46.5136470" lon="6.6547310">
        <ele>464.2</ele>
        <time>2019-02-24T14:35:44Z</time>
      </trkpt>
      <trkpt lat="46.5136520" lon="6.6547310">
        <ele>464.2</ele>
        <time>2019-02-24T14:35:45Z</time>
      </trkpt>
      <trkpt lat="46.5136570" lon="6.6547310">
        <ele>464.2</ele>
        <time>2019-02-24T14:35:46Z</time>
      </trkpt>
      <trkpt lat="46.5136760" lon="6.6547260">
        <ele>464.2</ele>
        <time>2019-02-24T14:35:47Z</time>
      </trkpt>
      <trkpt lat="46.5136990" lon="6.6547180">
        <ele>464.2</ele>
        <time>2019-02-24T14:35:48Z</time>
      </trkpt>
      <trkpt lat="46.5137250" lon="6.6547070">
        <ele>464.2</ele>
        <time>2019-02-24T14:35:49Z</time>
      </trkpt>
      <trkpt lat="46.5137530" lon="6.6546920">
        <ele>464.3</ele>
        <time>2019-02-24T14:35:50Z</time>
      </trkpt>
      <trkpt lat="46.5137810" lon="6.6546730">
        <ele>464.3</ele>
        <time>2019-02-24T14:35:51Z</time>
      </trkpt>
      <trkpt lat="46.5138090" lon="6.6546510">
        <ele>464.4</ele>
        <time>2019-02-24T14:35:52Z</time>
      </trkpt>
      <trkpt lat="46.5138350" lon="6.6546260">
        <ele>464.4</ele>
        <time>2019-02-24T14:35:53Z</time>
      </trkpt>
      <trkpt lat="46.5138600" lon="6.6545990">
        <ele>464.4</ele>
        <time>2019-02-24T14:35:54Z</time>
      </trkpt>
      <trkpt lat="46.5138860" lon="6.6545690">
        <ele>464.5</ele>
        <time>2019-02-24T14:35:55Z</time>
      </trkpt>
      <trkpt lat="46.5139110" lon="6.6545390">
        <ele>464.5</ele>
        <time>2019-02-24T14:35:56Z</time>
      </trkpt>
      <trkpt lat="46.5139370" lon="6.6545090">
        <ele>464.5</ele>
        <time>2019-02-24T14:35:57Z</time>
      </trkpt>
      <trkpt lat="46.5139820" lon="6.6544620">
        <ele>464.6</ele>
        <time>2019-02-24T14:35:58Z</time>
      </trkpt>
      <trkpt lat="46.5140000" lon="6.6544430">
        <ele>464.6</ele>
        <time>2019-02-24T14:35:59Z</time>
      </trkpt>
      <trkpt lat="46.5140190" lon="6.6544250">
        <ele>464.6</ele>
        <time>2019-02-24T14:36:00Z</time>
      </trkpt>
      <trkpt lat="46.5140480" lon="6.6543990">
        <ele>464.6</ele>
        <time>2019-02-24T14:36:01Z</time>
      </trkpt>
      <trkpt lat="46.5140780" lon="6.6543740">
        <ele>464.6</ele>
        <time>2019-02-24T14:36:02Z</time>
      </trkpt>
      <trkpt lat="46.5141070" lon="6.6543480">
        <ele>464.6</ele>
        <time>2019-02-24T14:36:03Z</time>
      </trkpt>
      <trkpt lat="46.5141350" lon="6.6543210">
        <ele>464.6</ele>
        <time>2019-02-24T14:36:04Z</time>
      </trkpt>
      <trkpt lat="46.5141640" lon="6.6542940">
        <ele>464.6</ele>
        <time>2019-02-24T14:36:05Z</time>
      </trkpt>
      <trkpt lat="46.5141920" lon="6.6542720">
        <ele>464.6</ele>
        <time>2019-02-24T14:36:06Z</time>
      </trkpt>
      <trkpt lat="46.5142200" lon="6.6542560">
        <ele>464.6</ele>
        <time>2019-02-24T14:36:07Z</time>
      </trkpt>
      <trkpt lat="46.5142490" lon="6.6542470">
        <ele>464.6</ele>
        <time>2019-02-24T14:36:08Z</time>
      </trkpt>
      <trkpt lat="46.5142770" lon="6.6542410">
        <ele>464.6</ele>
        <time>2019-02-24T14:36:09Z</time>
      </trkpt>
      <trkpt lat="46.5143030" lon="6.6542320">
        <ele>464.7</ele>
        <time>2019-02-24T14:36:10Z</time>
      </trkpt>
      <trkpt lat="46.5143250" lon="6.6542110">
        <ele>464.8</ele>
        <time>2019-02-24T14:36:11Z</time>
      </trkpt>
      <trkpt lat="46.5143420" lon="6.6541760">
        <ele>464.8</ele>
        <time>2019-02-24T14:36:12Z</time>
      </trkpt>
      <trkpt lat="46.5143560" lon="6.6541280">
        <ele>464.9</ele>
        <time>2019-02-24T14:36:13Z</time>
      </trkpt>
      <trkpt lat="46.5143670" lon="6.6540740">
        <ele>464.9</ele>
        <time>2019-02-24T14:36:14Z</time>
      </trkpt>
      <trkpt lat="46.5143760" lon="6.6540160">
        <ele>465.0</ele>
        <time>2019-02-24T14:36:15Z</time>
      </trkpt>
      <trkpt lat="46.5143850" lon="6.6539600">
        <ele>465.1</ele>
        <time>2019-02-24T14:36:16Z</time>
      </trkpt>
      <trkpt lat="46.5144040" lon="6.6538750">
        <ele>465.2</ele>
        <time>2019-02-24T14:36:17Z</time>
      </trkpt>
      <trkpt lat="46.5144120" lon="6.6538440">
        <ele>465.3</ele>
        <time>2019-02-24T14:36:18Z</time>
      </trkpt>
      <trkpt lat="46.5144210" lon="6.6538120">
        <ele>465.3</ele>
        <time>2019-02-24T14:36:19Z</time>
      </trkpt>
      <trkpt lat="46.5144380" lon="6.6537700">
        <ele>465.4</ele>
        <time>2019-02-24T14:36:20Z</time>
      </trkpt>
      <trkpt lat="46.5144570" lon="6.6537320">
        <ele>465.5</ele>
        <time>2019-02-24T14:36:21Z</time>
      </trkpt>
      <trkpt lat="46.5144750" lon="6.6536960">
        <ele>465.6</ele>
        <time>2019-02-24T14:36:22Z</time>
      </trkpt>
      <trkpt lat="46.5144920" lon="6.6536620">
        <ele>465.7</ele>
        <time>2019-02-24T14:36:23Z</time>
      </trkpt>
      <trkpt lat="46.5145040" lon="6.6536280">
        <ele>465.7</ele>
        <time>2019-02-24T14:36:24Z</time>
      </trkpt>
      <trkpt lat="46.5145140" lon="6.6535960">
        <ele>465.8</ele>
        <time>2019-02-24T14:36:25Z</time>
      </trkpt>
      <trkpt lat="46.5145200" lon="6.6535680">
        <ele>465.9</ele>
        <time>2019-02-24T14:36:26Z</time>
      </trkpt>
      <trkpt lat="46.5145250" lon="6.6535470">
        <ele>465.9</ele>
        <time>2019-02-24T14:36:27Z</time>
      </trkpt>
      <trkpt lat="46.5145290" lon="6.6535280">
        <ele>465.9</ele>
        <time>2019-02-24T14:36:28Z</time>
      </trkpt>
      <trkpt lat="46.5145290" lon="6.6535240">
        <ele>465.9</ele>
        <time>2019-02-24T14:36:29Z</time>
      </trkpt>
      <trkpt lat="46.5145300" lon="6.6535200">
        <ele>465.9</ele>
        <time>2019-02-24T14:36:30Z</time>
      </trkpt>
      <trkpt lat="46.5145310" lon="6.6535190">
        <ele>466.0</ele>
        <time>2019-02-24T14:36:31Z</time>
      </trkpt>
      <trkpt lat="46.5145300" lon="6.6535190">
        <ele>466.0</ele>
        <time>2019-02-24T14:36:32Z</time>
      </trkpt>
      <trkpt lat="46.5145300" lon="6.6535190">
        <ele>466.0</ele>
        <time>2019-02-24T14:36:33Z</time>
      </trkpt>
      <trkpt lat="46.5145300" lon="6.6535180">
        <ele>466.0</ele>
        <time>2019-02-24T14:36:34Z</time>
      </trkpt>
      <trkpt lat="46.5145300" lon="6.6535130">
        <ele>466.0</ele>
        <time>2019-02-24T14:36:35Z</time>
      </trkpt>
      <trkpt lat="46.5145290" lon="6.6535040">
        <ele>466.0</ele>
        <time>2019-02-24T14:36:36Z</time>
      </trkpt>
      <trkpt lat="46.5145290" lon="6.6534900">
        <ele>466.0</ele>
        <time>2019-02-24T14:36:37Z</time>
      </trkpt>
      <trkpt lat="46.5145310" lon="6.6534680">
        <ele>466.0</ele>
        <time>2019-02-24T14:36:38Z</time>
      </trkpt>
      <trkpt lat="46.5145350" lon="6.6534370">
        <ele>466.0</ele>
        <time>2019-02-24T14:36:39Z</time>
      </trkpt>
      <trkpt lat="46.5145400" lon="6.6534000">
        <ele>466.1</ele>
        <time>2019-02-24T14:36:40Z</time>
      </trkpt>
      <trkpt lat="46.5145420" lon="6.6533620">
        <ele>466.1</ele>
        <time>2019-02-24T14:36:41Z</time>
      </trkpt>
      <trkpt lat="46.5145430" lon="6.6533240">
        <ele>466.3</ele>
        <time>2019-02-24T14:36:42Z</time>
      </trkpt>
      <trkpt lat="46.5145420" lon="6.6532860">
        <ele>466.4</ele>
        <time>2019-02-24T14:36:43Z</time>
      </trkpt>
      <trkpt lat="46.5145390" lon="6.6532470">
        <ele>466.5</ele>
        <time>2019-02-24T14:36:44Z</time>
      </trkpt>
      <trkpt lat="46.5145360" lon="6.6532090">
        <ele>466.6</ele>
        <time>2019-02-24T14:36:45Z</time>
      </trkpt>
      <trkpt lat="46.5145320" lon="6.6531700">
        <ele>466.7</ele>
        <time>2019-02-24T14:36:46Z</time>
      </trkpt>
      <trkpt lat="46.5145280" lon="6.6531320">
        <ele>466.8</ele>
        <time>2019-02-24T14:36:47Z</time>
      </trkpt>
      <trkpt lat="46.5145240" lon="6.6530930">
        <ele>466.9</ele>
        <time>2019-02-24T14:36:48Z</time>
      </trkpt>
      <trkpt lat="46.5145210" lon="6.6530550">
        <ele>467.0</ele>
        <time>2019-02-24T14:36:49Z</time>
      </trkpt>
      <trkpt lat="46.5145180" lon="6.6530170">
        <ele>467.1</ele>
        <time>2019-02-24T14:36:50Z</time>
      </trkpt>
      <trkpt lat="46.5145160" lon="6.6529800">
        <ele>467.2</ele>
        <time>2019-02-24T14:36:51Z</time>
      </trkpt>
      <trkpt lat="46.5145150" lon="6.6529430">
        <ele>467.3</ele>
        <time>2019-02-24T14:36:52Z</time>
      </trkpt>
      <trkpt lat="46.5145150" lon="6.6529070">
        <ele>467.4</ele>
        <time>2019-02-24T14:36:53Z</time>
      </trkpt>
      <trkpt lat="46.5145160" lon="6.6528720">
        <ele>467.4</ele>
        <time>2019-02-24T14:36:54Z</time>
      </trkpt>
      <trkpt lat="46.5145180" lon="6.6528370">
        <ele>467.5</ele>
        <time>2019-02-24T14:36:55Z</time>
      </trkpt>
      <trkpt lat="46.5145210" lon="6.6528020">
        <ele>467.6</ele>
        <time>2019-02-24T14:36:56Z</time>
      </trkpt>
      <trkpt lat="46.5145250" lon="6.6527670">
        <ele>467.6</ele>
        <time>2019-02-24T14:36:57Z</time>
      </trkpt>
      <trkpt lat="46.5145290" lon="6.6527330">
        <ele>467.7</ele>
        <time>2019-02-24T14:36:58Z</time>
      </trkpt>
      <trkpt lat="46.5145310" lon="6.6526970">
        <ele>467.8</ele>
        <time>2019-02-24T14:36:59Z</time>
      </trkpt>
      <trkpt lat="46.5145320" lon="6.6526610">
        <ele>467.8</ele>
        <time>2019-02-24T14:37:00Z</time>
      </trkpt>
      <trkpt lat="46.5145310" lon="6.6526230">
        <ele>467.9</ele>
        <time>2019-02-24T14:37:01Z</time>
      </trkpt>
      <trkpt lat="46.5145280" lon="6.6525850">
        <ele>467.9</ele>
        <time>2019-02-24T14:37:02Z</time>
      </trkpt>
      <trkpt lat="46.5145240" lon="6.6525460">
        <ele>468.0</ele>
        <time>2019-02-24T14:37:03Z</time>
      </trkpt>
      <trkpt lat="46.5145210" lon="6.6525080">
        <ele>468.0</ele>
        <time>2019-02-24T14:37:04Z</time>
      </trkpt>
      <trkpt lat="46.5145200" lon="6.6524710">
        <ele>468.1</ele>
        <time>2019-02-24T14:37:05Z</time>
      </trkpt>
      <trkpt lat="46.5145200" lon="6.6524340">
        <ele>468.1</ele>
        <time>2019-02-24T14:37:06Z</time>
      </trkpt>
      <trkpt lat="46.5145210" lon="6.6523970">
        <ele>468.1</ele>
        <time>2019-02-24T14:37:07Z</time>
      </trkpt>
      <trkpt lat="46.5145230" lon="6.6523610">
        <ele>468.2</ele>
        <time>2019-02-24T14:37:08Z</time>
      </trkpt>
      <trkpt lat="46.5145260" lon="6.6523250">
        <ele>468.2</ele>
        <time>2019-02-24T14:37:09Z</time>
      </trkpt>
      <trkpt lat="46.5145290" lon="6.6522890">
        <ele>468.3</ele>
        <time>2019-02-24T14:37:10Z</time>
      </trkpt>
      <trkpt lat="46.5145320" lon="6.6522520">
        <ele>468.3</ele>
        <time>2019-02-24T14:37:11Z</time>
      </trkpt>
      <trkpt lat="46.5145350" lon="6.6522150">
        <ele>468.3</ele>
        <time>2019-02-24T14:37:12Z</time>
      </trkpt>
      <trkpt lat="46.5145380" lon="6.6521770">
        <ele>468.4</ele>
        <time>2019-02-24T14:37:13Z</time>
      </trkpt>
      <trkpt lat="46.5145410" lon="6.6521390">
        <ele>468.4</ele>
        <time>2019-02-24T14:37:14Z</time>
      </trkpt>
      <trkpt lat="46.5145430" lon="6.6521010">
        <ele>468.5</ele>
        <time>2019-02-24T14:37:15Z</time>
      </trkpt>
      <trkpt lat="46.5145460" lon="6.6520630">
        <ele>468.5</ele>
        <time>2019-02-24T14:37:16Z</time>
      </trkpt>
      <trkpt lat="46.5145480" lon="6.6520260">
        <ele>468.6</ele>
        <time>2019-02-24T14:37:17Z</time>
      </trkpt>
      <trkpt lat="46.5145520" lon="6.6519900">
        <ele>468.6</ele>
        <time>2019-02-24T14:37:18Z</time>
      </trkpt>
      <trkpt lat="46.5145550" lon="6.6519550">
        <ele>468.7</ele>
        <time>2019-02-24T14:37:19Z</time>
      </trkpt>
      <trkpt lat="46.5145590" lon="6.6519200">
        <ele>468.7</ele>
        <time>2019-02-24T14:37:20Z</time>
      </trkpt>
      <trkpt lat="46.5145630" lon="6.6518860">
        <ele>468.7</ele>
        <time>2019-02-24T14:37:21Z</time>
      </trkpt>
      <trkpt lat="46.5145670" lon="6.6518530">
        <ele>468.8</ele>
        <time>2019-02-24T14:37:22Z</time>
      </trkpt>
      <trkpt lat="46.5145720" lon="6.6518190">
        <ele>468.8</ele>
        <time>2019-02-24T14:37:23Z</time>
      </trkpt>
      <trkpt lat="46.5145770" lon="6.6517860">
        <ele>468.9</ele>
        <time>2019-02-24T14:37:24Z</time>
      </trkpt>
      <trkpt lat="46.5145830" lon="6.6517530">
        <ele>468.9</ele>
        <time>2019-02-24T14:37:25Z</time>
      </trkpt>
      <trkpt lat="46.5145890" lon="6.6517200">
        <ele>469.0</ele>
        <time>2019-02-24T14:37:26Z</time>
      </trkpt>
      <trkpt lat="46.5145950" lon="6.6516870">
        <ele>469.0</ele>
        <time>2019-02-24T14:37:27Z</time>
      </trkpt>
      <trkpt lat="46.5146020" lon="6.6516530">
        <ele>469.1</ele>
        <time>2019-02-24T14:37:28Z</time>
      </trkpt>
      <trkpt lat="46.5146090" lon="6.6516190">
        <ele>469.1</ele>
        <time>2019-02-24T14:37:29Z</time>
      </trkpt>
      <trkpt lat="46.5146160" lon="6.6515850">
        <ele>469.2</ele>
        <time>2019-02-24T14:37:30Z</time>
      </trkpt>
      <trkpt lat="46.5146240" lon="6.6515510">
        <ele>469.2</ele>
        <time>2019-02-24T14:37:31Z</time>
      </trkpt>
      <trkpt lat="46.5146330" lon="6.6515170">
        <ele>469.3</ele>
        <time>2019-02-24T14:37:32Z</time>
      </trkpt>
      <trkpt lat="46.5146420" lon="6.6514830">
        <ele>469.4</ele>
        <time>2019-02-24T14:37:33Z</time>
      </trkpt>
      <trkpt lat="46.5146520" lon="6.6514490">
        <ele>469.4</ele>
        <time>2019-02-24T14:37:34Z</time>
      </trkpt>
      <trkpt lat="46.5146620" lon="6.6514160">
        <ele>469.5</ele>
        <time>2019-02-24T14:37:35Z</time>
      </trkpt>
      <trkpt lat="46.5146730" lon="6.6513830">
        <ele>469.5</ele>
        <time>2019-02-24T14:37:36Z</time>
      </trkpt>
      <trkpt lat="46.5146860" lon="6.6513510">
        <ele>469.6</ele>
        <time>2019-02-24T14:37:37Z</time>
      </trkpt>
      <trkpt lat="46.5146980" lon="6.6513200">
        <ele>469.6</ele>
        <time>2019-02-24T14:37:38Z</time>
      </trkpt>
      <trkpt lat="46.5147110" lon="6.6512900">
        <ele>469.7</ele>
        <time>2019-02-24T14:37:39Z</time>
      </trkpt>
      <trkpt lat="46.5147230" lon="6.6512620">
        <ele>469.7</ele>
        <time>2019-02-24T14:37:40Z</time>
      </trkpt>
      <trkpt lat="46.5147360" lon="6.6512370">
        <ele>469.8</ele>
        <time>2019-02-24T14:37:41Z</time>
      </trkpt>
      <trkpt lat="46.5147470" lon="6.6512140">
        <ele>469.9</ele>
        <time>2019-02-24T14:37:42Z</time>
      </trkpt>
      <trkpt lat="46.5147570" lon="6.6511940">
        <ele>470.0</ele>
        <time>2019-02-24T14:37:43Z</time>
      </trkpt>
      <trkpt lat="46.5147690" lon="6.6511700">
        <ele>470.1</ele>
        <time>2019-02-24T14:37:44Z</time>
      </trkpt>
      <trkpt lat="46.5147730" lon="6.6511620">
        <ele>470.1</ele>
        <time>2019-02-24T14:37:45Z</time>
      </trkpt>
      <trkpt lat="46.5147770" lon="6.6511550">
        <ele>470.2</ele>
        <time>2019-02-24T14:37:46Z</time>
      </trkpt>
      <trkpt lat="46.5147810" lon="6.6511470">
        <ele>470.2</ele>
        <time>2019-02-24T14:37:47Z</time>
      </trkpt>
      <trkpt lat="46.5147830" lon="6.6511420">
        <ele>470.2</ele>
        <time>2019-02-24T14:37:48Z</time>
      </trkpt>
      <trkpt lat="46.5147840" lon="6.6511390">
        <ele>470.2</ele>
        <time>2019-02-24T14:37:49Z</time>
      </trkpt>
      <trkpt lat="46.5147850" lon="6.6511380">
        <ele>470.3</ele>
        <time>2019-02-24T14:37:50Z</time>
      </trkpt>
      <trkpt lat="46.5147850" lon="6.6511380">
        <ele>470.3</ele>
        <time>2019-02-24T14:37:51Z</time>
      </trkpt>
      <trkpt lat="46.5147860" lon="6.6511380">
        <ele>470.3</ele>
        <time>2019-02-24T14:37:52Z</time>
      </trkpt>
      <trkpt lat="46.5147860" lon="6.6511380">
        <ele>470.3</ele>
        <time>2019-02-24T14:37:53Z</time>
      </trkpt>
      <trkpt lat="46.5147860" lon="6.6511380">
        <ele>470.3</ele>
        <time>2019-02-24T14:37:54Z</time>
      </trkpt>
      <trkpt lat="46.5147860" lon="6.6511380">
        <ele>470.3</ele>
        <time>2019-02-24T14:37:55Z</time>
      </trkpt>
      <trkpt lat="46.5147860" lon="6.6511380">
        <ele>470.3</ele>
        <time>2019-02-24T14:37:56Z</time>
      </trkpt>
      <trkpt lat="46.5147860" lon="6.6511380">
        <ele>470.3</ele>
        <time>2019-02-24T14:37:57Z</time>
      </trkpt>
      <trkpt lat="46.5147860" lon="6.6511380">
        <ele>470.3</ele>
        <time>2019-02-24T14:37:58Z</time>
      </trkpt>
      <trkpt lat="46.5147860" lon="6.6511380">
        <ele>470.3</ele>
        <time>2019-02-24T14:37:59Z</time>
      </trkpt>
      <trkpt lat="46.5147860" lon="6.6511380">
        <ele>470.3</ele>
        <time>2019-02-24T14:38:00Z</time>
      </trkpt>
      <trkpt lat="46.5147860" lon="6.6511380">
        <ele>470.3</ele>
        <time>2019-02-24T14:38:01Z</time>
      </trkpt>
      <trkpt lat="46.5147860" lon="6.6511380">
        <ele>470.3</ele>
        <time>2019-02-24T14:38:02Z</time>
      </trkpt>
      <trkpt lat="46.5147860" lon="6.6511380">
        <ele>470.3</ele>
        <time>2019-02-24T14:38:03Z</time>
      </trkpt>
      <trkpt lat="46.5147860" lon="6.6511380">
        <ele>470.3</ele>
        <time>2019-02-24T14:38:04Z</time>
      </trkpt>
      <trkpt lat="46.5147850" lon="6.6511380">
        <ele>470.3</ele>
        <time>2019-02-24T14:38:05Z</time>
      </trkpt>
      <trkpt lat="46.5147850" lon="6.6511380">
        <ele>470.3</ele>
        <time>2019-02-24T14:38:06Z</time>
      </trkpt>
      <trkpt lat="46.5147850" lon="6.6511380">
        <ele>470.3</ele>
        <time>2019-02-24T14:38:07Z</time>
      </trkpt>
      <trkpt lat="46.5147850" lon="6.6511380">
        <ele>470.3</ele>
        <time>2019-02-24T14:38:08Z</time>
      </trkpt>
      <trkpt lat="46.5147850" lon="6.6511380">
        <ele>470.3</ele>
        <time>2019-02-24T14:38:09Z</time>
      </trkpt>
      <trkpt lat="46.5147850" lon="6.6511380">
        <ele>470.3</ele>
        <time>2019-02-24T14:38:10Z</time>
      </trkpt>
      <trkpt lat="46.5147850" lon="6.6511380">
        <ele>470.3</ele>
        <time>2019-02-24T14:38:11Z</time>
      </trkpt>
      <trkpt lat="46.5147850" lon="6.6511380">
        <ele>470.3</ele>
        <time>2019-02-24T14:38:12Z</time>
      </trkpt>
      <trkpt lat="46.5147850" lon="6.6511380">
        <ele>470.3</ele>
        <time>2019-02-24T14:38:13Z</time>
      </trkpt>
      <trkpt lat="46.5147850" lon="6.6511380">
        <ele>470.3</ele>
        <time>2019-02-24T14:38:14Z</time>
      </trkpt>
      <trkpt lat="46.5147850" lon="6.6511380">
        <ele>470.3</ele>
        <time>2019-02-24T14:38:15Z</time>
      </trkpt>
      <trkpt lat="46.5147850" lon="6.6511380">
        <ele>470.3</ele>
        <time>2019-02-24T14:38:16Z</time>
      </trkpt>
      <trkpt lat="46.5147850" lon="6.6511380">
        <ele>470.3</ele>
        <time>2019-02-24T14:38:17Z</time>
      </trkpt>
      <trkpt lat="46.5147850" lon="6.6511380">
        <ele>470.3</ele>
        <time>2019-02-24T14:38:18Z</time>
      </trkpt>
      <trkpt lat="46.5147850" lon="6.6511380">
        <ele>470.3</ele>
        <time>2019-02-24T14:38:19Z</time>
      </trkpt>
      <trkpt lat="46.5147850" lon="6.6511380">
        <ele>470.3</ele>
        <time>2019-02-24T14:38:20Z</time>
      </trkpt>
      <trkpt lat="46.5147850" lon="6.6511380">
        <ele>470.3</ele>
        <time>2019-02-24T14:38:21Z</time>
      </trkpt>
      <trkpt lat="46.5147850" lon="6.6511380">
        <ele>470.3</ele>
        <time>2019-02-24T14:38:22Z</time>
      </trkpt>
      <trkpt lat="46.5147850" lon="6.6511380">
        <ele>470.3</ele>
        <time>2019-02-24T14:38:23Z</time>
      </trkpt>
      <trkpt lat="46.5147850" lon="6.6511380">
        <ele>470.3</ele>
        <time>2019-02-24T14:38:24Z</time>
      </trkpt>
      <trkpt lat="46.5147850" lon="6.6511380">
        <ele>470.3</ele>
        <time>2019-02-24T14:38:25Z</time>
      </trkpt>
      <trkpt lat="46.5147850" lon="6.6511380">
        <ele>470.3</ele>
        <time>2019-02-24T14:38:26Z</time>
      </trkpt>
      <trkpt lat="46.5147850" lon="6.6511380">
        <ele>470.3</ele>
        <time>2019-02-24T14:38:27Z</time>
      </trkpt>
      <trkpt lat="46.5147850" lon="6.6511380">
        <ele>470.3</ele>
        <time>2019-02-24T14:38:28Z</time>
      </trkpt>
      <trkpt lat="46.5147850" lon="6.6511380">
        <ele>470.3</ele>
        <time>2019-02-24T14:38:29Z</time>
      </trkpt>
      <trkpt lat="46.5147850" lon="6.6511380">
        <ele>470.3</ele>
        <time>2019-02-24T14:38:30Z</time>
      </trkpt>
      <trkpt lat="46.5147850" lon="6.6511380">
        <ele>470.3</ele>
        <time>2019-02-24T14:38:31Z</time>
      </trkpt>
      <trkpt lat="46.5147850" lon="6.6511380">
        <ele>470.3</ele>
        <time>2019-02-24T14:38:32Z</time>
      </trkpt>
      <trkpt lat="46.5147860" lon="6.6511380">
        <ele>470.3</ele>
        <time>2019-02-24T14:38:33Z</time>
      </trkpt>
      <trkpt lat="46.5147860" lon="6.6511380">
        <ele>470.3</ele>
        <time>2019-02-24T14:38:34Z</time>
      </trkpt>
      <trkpt lat="46.5147860" lon="6.6511380">
        <ele>470.3</ele>
        <time>2019-02-24T14:38:35Z</time>
      </trkpt>
      <trkpt lat="46.5147860" lon="6.6511380">
        <ele>470.3</ele>
        <time>2019-02-24T14:38:36Z</time>
      </trkpt>
      <trkpt lat="46.5147860" lon="6.6511380">
        <ele>470.3</ele>
        <time>2019-02-24T14:38:37Z</time>
      </trkpt>
      <trkpt lat="46.5147860" lon="6.6511380">
        <ele>470.3</ele>
        <time>2019-02-24T14:38:38Z</time>
      </trkpt>
      <trkpt lat="46.5147860" lon="6.6511380">
        <ele>470.3</ele>
        <time>2019-02-24T14:38:39Z</time>
      </trkpt>
      <trkpt lat="46.5147860" lon="6.6511380">
        <ele>470.3</ele>
        <time>2019-02-24T14:38:40Z</time>
      </trkpt>
      <trkpt lat="46.5147860" lon="6.6511380">
        <ele>470.3</ele>
        <time>2019-02-24T14:38:41Z</time>
      </trkpt>
      <trkpt lat="46.5147860" lon="6.6511380">
        <ele>470.3</ele>
        <time>2019-02-24T14:38:42Z</time>
      </trkpt>
      <trkpt lat="46.5147860" lon="6.6511380">
        <ele>470.3</ele>
        <time>2019-02-24T14:38:43Z</time>
      </trkpt>
      <trkpt lat="46.5147860" lon="6.6511380">
        <ele>470.3</ele>
        <time>2019-02-24T14:38:44Z</time>
      </trkpt>
      <trkpt lat="46.5147860" lon="6.6511380">
        <ele>470.3</ele>
        <time>2019-02-24T14:38:45Z</time>
      </trkpt>
      <trkpt lat="46.5147860" lon="6.6511380">
        <ele>470.3</ele>
        <time>2019-02-24T14:38:46Z</time>
      </trkpt>
      <trkpt lat="46.5147860" lon="6.6511380">
        <ele>470.3</ele>
        <time>2019-02-24T14:38:47Z</time>
      </trkpt>
      <trkpt lat="46.5147860" lon="6.6511380">
        <ele>470.3</ele>
        <time>2019-02-24T14:38:48Z</time>
      </trkpt>
      <trkpt lat="46.5147860" lon="6.6511380">
        <ele>470.3</ele>
        <time>2019-02-24T14:38:49Z</time>
      </trkpt>
      <trkpt lat="46.5147860" lon="6.6511380">
        <ele>470.3</ele>
        <time>2019-02-24T14:38:50Z</time>
      </trkpt>
      <trkpt lat="46.5147860" lon="6.6511380">
        <ele>470.3</ele>
        <time>2019-02-24T14:38:51Z</time>
      </trkpt>
      <trkpt lat="46.5147860" lon="6.6511380">
        <ele>470.3</ele>
        <time>2019-02-24T14:38:52Z</time>
      </trkpt>
      <trkpt lat="46.5147860" lon="6.6511380">
        <ele>470.3</ele>
        <time>2019-02-24T14:38:53Z</time>
      </trkpt>
      <trkpt lat="46.5147860" lon="6.6511380">
        <ele>470.3</ele>
        <time>2019-02-24T14:38:54Z</time>
      </trkpt>
      <trkpt lat="46.5147860" lon="6.6511380">
        <ele>470.3</ele>
        <time>2019-02-24T14:38:55Z</time>
      </trkpt>
      <trkpt lat="46.5147860" lon="6.6511380">
        <ele>470.3</ele>
        <time>2019-02-24T14:38:56Z</time>
      </trkpt>
      <trkpt lat="46.5147860" lon="6.6511380">
        <ele>470.3</ele>
        <time>2019-02-24T14:38:57Z</time>
      </trkpt>
      <trkpt lat="46.5147860" lon="6.6511380">
        <ele>470.3</ele>
        <time>2019-02-24T14:38:58Z</time>
      </trkpt>
      <trkpt lat="46.5147860" lon="6.6511380">
        <ele>470.3</ele>
        <time>2019-02-24T14:38:59Z</time>
      </trkpt>
      <trkpt lat="46.5147860" lon="6.6511380">
        <ele>470.3</ele>
        <time>2019-02-24T14:39:00Z</time>
      </trkpt>
      <trkpt lat="46.5147860" lon="6.6511380">
        <ele>470.3</ele>
        <time>2019-02-24T14:39:01Z</time>
      </trkpt>
      <trkpt lat="46.5147860" lon="6.6511380">
        <ele>470.3</ele>
        <time>2019-02-24T14:39:02Z</time>
      </trkpt>
      <trkpt lat="46.5147850" lon="6.6511380">
        <ele>470.3</ele>
        <time>2019-02-24T14:39:03Z</time>
      </trkpt>
      <trkpt lat="46.5147850" lon="6.6511380">
        <ele>470.3</ele>
        <time>2019-02-24T14:39:04Z</time>
      </trkpt>
      <trkpt lat="46.5147850" lon="6.6511380">
        <ele>470.3</ele>
        <time>2019-02-24T14:39:05Z</time>
      </trkpt>
      <trkpt lat="46.5147850" lon="6.6511380">
        <ele>470.3</ele>
        <time>2019-02-24T14:39:06Z</time>
      </trkpt>
      <trkpt lat="46.5147850" lon="6.6511380">
        <ele>470.3</ele>
        <time>2019-02-24T14:39:07Z</time>
      </trkpt>
      <trkpt lat="46.5147850" lon="6.6511380">
        <ele>470.3</ele>
        <time>2019-02-24T14:39:08Z</time>
      </trkpt>
      <trkpt lat="46.5147850" lon="6.6511380">
        <ele>470.3</ele>
        <time>2019-02-24T14:39:09Z</time>
      </trkpt>
      <trkpt lat="46.5147850" lon="6.6511380">
        <ele>470.3</ele>
        <time>2019-02-24T14:39:10Z</time>
      </trkpt>
      <trkpt lat="46.5147850" lon="6.6511380">
        <ele>470.3</ele>
        <time>2019-02-24T14:39:11Z</time>
      </trkpt>
      <trkpt lat="46.5147850" lon="6.6511380">
        <ele>470.3</ele>
        <time>2019-02-24T14:39:12Z</time>
      </trkpt>
      <trkpt lat="46.5147850" lon="6.6511380">
        <ele>470.3</ele>
        <time>2019-02-24T14:39:13Z</time>
      </trkpt>
      <trkpt lat="46.5147850" lon="6.6511380">
        <ele>470.3</ele>
        <time>2019-02-24T14:39:14Z</time>
      </trkpt>
      <trkpt lat="46.5147850" lon="6.6511380">
        <ele>470.3</ele>
        <time>2019-02-24T14:39:15Z</time>
      </trkpt>
      <trkpt lat="46.5147850" lon="6.6511380">
        <ele>470.3</ele>
        <time>2019-02-24T14:39:16Z</time>
      </trkpt>
      <trkpt lat="46.5147850" lon="6.6511380">
        <ele>470.3</ele>
        <time>2019-02-24T14:39:17Z</time>
      </trkpt>
      <trkpt lat="46.5147850" lon="6.6511380">
        <ele>470.3</ele>
        <time>2019-02-24T14:39:18Z</time>
      </trkpt>
      <trkpt lat="46.5147850" lon="6.6511380">
        <ele>470.3</ele>
        <time>2019-02-24T14:39:19Z</time>
      </trkpt>
      <trkpt lat="46.5147850" lon="6.6511380">
        <ele>470.3</ele>
        <time>2019-02-24T14:39:20Z</time>
      </trkpt>
      <trkpt lat="46.5147850" lon="6.6511380">
        <ele>470.3</ele>
        <time>2019-02-24T14:39:21Z</time>
      </trkpt>
      <trkpt lat="46.5147850" lon="6.6511380">
        <ele>470.3</ele>
        <time>2019-02-24T14:39:22Z</time>
      </trkpt>
      <trkpt lat="46.5147850" lon="6.6511380">
        <ele>470.3</ele>
        <time>2019-02-24T14:39:23Z</time>
      </trkpt>
      <trkpt lat="46.5147850" lon="6.6511380">
        <ele>470.3</ele>
        <time>2019-02-24T14:39:24Z</time>
      </trkpt>
      <trkpt lat="46.5147850" lon="6.6511380">
        <ele>470.3</ele>
        <time>2019-02-24T14:39:25Z</time>
      </trkpt>
      <trkpt lat="46.5147850" lon="6.6511380">
        <ele>470.3</ele>
        <time>2019-02-24T14:39:26Z</time>
      </trkpt>
      <trkpt lat="46.5147850" lon="6.6511380">
        <ele>470.3</ele>
        <time>2019-02-24T14:39:27Z</time>
      </trkpt>
      <trkpt lat="46.5147850" lon="6.6511380">
        <ele>470.3</ele>
        <time>2019-02-24T14:39:28Z</time>
      </trkpt>
      <trkpt lat="46.5147850" lon="6.6511380">
        <ele>470.3</ele>
        <time>2019-02-24T14:39:29Z</time>
      </trkpt>
      <trkpt lat="46.5147850" lon="6.6511380">
        <ele>470.3</ele>
        <time>2019-02-24T14:39:30Z</time>
      </trkpt>
      <trkpt lat="46.5147850" lon="6.6511380">
        <ele>470.3</ele>
        <time>2019-02-24T14:39:31Z</time>
      </trkpt>
      <trkpt lat="46.5147850" lon="6.6511380">
        <ele>470.3</ele>
        <time>2019-02-24T14:39:32Z</time>
      </trkpt>
      <trkpt lat="46.5147850" lon="6.6511380">
        <ele>470.3</ele>
        <time>2019-02-24T14:39:33Z</time>
      </trkpt>
      <trkpt lat="46.5147850" lon="6.6511380">
        <ele>470.3</ele>
        <time>2019-02-24T14:39:34Z</time>
      </trkpt>
      <trkpt lat="46.5147850" lon="6.6511380">
        <ele>470.3</ele>
        <time>2019-02-24T14:39:35Z</time>
      </trkpt>
      <trkpt lat="46.5147850" lon="6.6511380">
        <ele>470.3</ele>
        <time>2019-02-24T14:39:36Z</time>
      </trkpt>
      <trkpt lat="46.5147850" lon="6.6511380">
        <ele>470.3</ele>
        <time>2019-02-24T14:39:37Z</time>
      </trkpt>
      <trkpt lat="46.5147850" lon="6.6511380">
        <ele>470.3</ele>
        <time>2019-02-24T14:39:38Z</time>
      </trkpt>
      <trkpt lat="46.5147850" lon="6.6511380">
        <ele>470.3</ele>
        <time>2019-02-24T14:39:39Z</time>
      </trkpt>
      <trkpt lat="46.5147850" lon="6.6511380">
        <ele>470.3</ele>
        <time>2019-02-24T14:39:40Z</time>
      </trkpt>
      <trkpt lat="46.5147850" lon="6.6511380">
        <ele>470.3</ele>
        <time>2019-02-24T14:39:41Z</time>
      </trkpt>
      <trkpt lat="46.5147850" lon="6.6511380">
        <ele>470.3</ele>
        <time>2019-02-24T14:39:42Z</time>
      </trkpt>
      <trkpt lat="46.5147850" lon="6.6511380">
        <ele>470.3</ele>
        <time>2019-02-24T14:39:43Z</time>
      </trkpt>
      <trkpt lat="46.5147850" lon="6.6511380">
        <ele>470.3</ele>
        <time>2019-02-24T14:39:44Z</time>
      </trkpt>
      <trkpt lat="46.5147850" lon="6.6511380">
        <ele>470.3</ele>
        <time>2019-02-24T14:39:45Z</time>
      </trkpt>
      <trkpt lat="46.5147850" lon="6.6511380">
        <ele>470.3</ele>
        <time>2019-02-24T14:39:46Z</time>
      </trkpt>
      <trkpt lat="46.5147850" lon="6.6511380">
        <ele>470.3</ele>
        <time>2019-02-24T14:39:47Z</time>
      </trkpt>
      <trkpt lat="46.5147850" lon="6.6511380">
        <ele>470.3</ele>
        <time>2019-02-24T14:39:48Z</time>
      </trkpt>
      <trkpt lat="46.5147850" lon="6.6511380">
        <ele>470.3</ele>
        <time>2019-02-24T14:39:49Z</time>
      </trkpt>
      <trkpt lat="46.5147850" lon="6.6511380">
        <ele>470.3</ele>
        <time>2019-02-24T14:39:50Z</time>
      </trkpt>
      <trkpt lat="46.5147850" lon="6.6511380">
        <ele>470.3</ele>
        <time>2019-02-24T14:39:51Z</time>
      </trkpt>
      <trkpt lat="46.5147850" lon="6.6511380">
        <ele>470.3</ele>
        <time>2019-02-24T14:39:52Z</time>
      </trkpt>
      <trkpt lat="46.5147850" lon="6.6511380">
        <ele>470.3</ele>
        <time>2019-02-24T14:39:53Z</time>
      </trkpt>
      <trkpt lat="46.5147850" lon="6.6511380">
        <ele>470.3</ele>
        <time>2019-02-24T14:39:54Z</time>
      </trkpt>
      <trkpt lat="46.5147850" lon="6.6511380">
        <ele>470.3</ele>
        <time>2019-02-24T14:39:55Z</time>
      </trkpt>
      <trkpt lat="46.5147850" lon="6.6511380">
        <ele>470.3</ele>
        <time>2019-02-24T14:39:56Z</time>
      </trkpt>
      <trkpt lat="46.5147850" lon="6.6511380">
        <ele>470.3</ele>
        <time>2019-02-24T14:39:57Z</time>
      </trkpt>
      <trkpt lat="46.5147850" lon="6.6511380">
        <ele>470.3</ele>
        <time>2019-02-24T14:39:58Z</time>
      </trkpt>
      <trkpt lat="46.5147850" lon="6.6511380">
        <ele>470.3</ele>
        <time>2019-02-24T14:39:59Z</time>
      </trkpt>
      <trkpt lat="46.5147850" lon="6.6511380">
        <ele>470.3</ele>
        <time>2019-02-24T14:40:00Z</time>
      </trkpt>
      <trkpt lat="46.5147850" lon="6.6511380">
        <ele>470.3</ele>
        <time>2019-02-24T14:40:01Z</time>
      </trkpt>
      <trkpt lat="46.5147850" lon="6.6511380">
        <ele>470.3</ele>
        <time>2019-02-24T14:40:02Z</time>
      </trkpt>
      <trkpt lat="46.5147860" lon="6.6511360">
        <ele>470.3</ele>
        <time>2019-02-24T14:40:03Z</time>
      </trkpt>
      <trkpt lat="46.5147870" lon="6.6511300">
        <ele>470.3</ele>
        <time>2019-02-24T14:40:04Z</time>
      </trkpt>
      <trkpt lat="46.5147900" lon="6.6511200">
        <ele>470.4</ele>
        <time>2019-02-24T14:40:05Z</time>
      </trkpt>
      <trkpt lat="46.5147950" lon="6.6511030">
        <ele>470.4</ele>
        <time>2019-02-24T14:40:06Z</time>
      </trkpt>
      <trkpt lat="46.5148020" lon="6.6510810">
        <ele>470.6</ele>
        <time>2019-02-24T14:40:07Z</time>
      </trkpt>
      <trkpt lat="46.5148090" lon="6.6510550">
        <ele>470.8</ele>
        <time>2019-02-24T14:40:08Z</time>
      </trkpt>
      <trkpt lat="46.5148180" lon="6.6510260">
        <ele>470.9</ele>
        <time>2019-02-24T14:40:09Z</time>
      </trkpt>
      <trkpt lat="46.5148270" lon="6.6509960">
        <ele>471.1</ele>
        <time>2019-02-24T14:40:10Z</time>
      </trkpt>
      <trkpt lat="46.5148370" lon="6.6509640">
        <ele>471.2</ele>
        <time>2019-02-24T14:40:11Z</time>
      </trkpt>
      <trkpt lat="46.5148480" lon="6.6509340">
        <ele>471.4</ele>
        <time>2019-02-24T14:40:12Z</time>
      </trkpt>
      <trkpt lat="46.5148610" lon="6.6509050">
        <ele>471.6</ele>
        <time>2019-02-24T14:40:13Z</time>
      </trkpt>
      <trkpt lat="46.5148750" lon="6.6508780">
        <ele>471.7</ele>
        <time>2019-02-24T14:40:14Z</time>
      </trkpt>
      <trkpt lat="46.5148900" lon="6.6508530">
        <ele>472.1</ele>
        <time>2019-02-24T14:40:15Z</time>
      </trkpt>
      <trkpt lat="46.5149070" lon="6.6508300">
        <ele>472.3</ele>
        <time>2019-02-24T14:40:16Z</time>
      </trkpt>
      <trkpt lat="46.5149230" lon="6.6508060">
        <ele>472.6</ele>
        <time>2019-02-24T14:40:17Z</time>
      </trkpt>
      <trkpt lat="46.5149390" lon="6.6507830">
        <ele>472.8</ele>
        <time>2019-02-24T14:40:18Z</time>
      </trkpt>
      <trkpt lat="46.5149550" lon="6.6507590">
        <ele>473.1</ele>
        <time>2019-02-24T14:40:19Z</time>
      </trkpt>
      <trkpt lat="46.5149710" lon="6.6507340">
        <ele>473.3</ele>
        <time>2019-02-24T14:40:20Z</time>
      </trkpt>
      <trkpt lat="46.5149860" lon="6.6507100">
        <ele>473.6</ele>
        <time>2019-02-24T14:40:21Z</time>
      </trkpt>
      <trkpt lat="46.5150020" lon="6.6506840">
        <ele>473.8</ele>
        <time>2019-02-24T14:40:22Z</time>
      </trkpt>
      <trkpt lat="46.5150170" lon="6.6506590">
        <ele>474.1</ele>
        <time>2019-02-24T14:40:23Z</time>
      </trkpt>
      <trkpt lat="46.5150320" lon="6.6506320">
        <ele>474.3</ele>
        <time>2019-02-24T14:40:24Z</time>
      </trkpt>
      <trkpt lat="46.5150480" lon="6.6506050">
        <ele>474.6</ele>
        <time>2019-02-24T14:40:25Z</time>
      </trkpt>
      <trkpt lat="46.5150630" lon="6.6505780">
        <ele>474.8</ele>
        <time>2019-02-24T14:40:26Z</time>
      </trkpt>
      <trkpt lat="46.5150790" lon="6.6505500">
        <ele>475.1</ele>
        <time>2019-02-24T14:40:27Z</time>
      </trkpt>
      <trkpt lat="46.5150940" lon="6.6505220">
        <ele>475.4</ele>
        <time>2019-02-24T14:40:28Z</time>
      </trkpt>
      <trkpt lat="46.5151100" lon="6.6504940">
        <ele>475.7</ele>
        <time>2019-02-24T14:40:29Z</time>
      </trkpt>
      <trkpt lat="46.5151260" lon="6.6504660">
        <ele>475.9</ele>
        <time>2019-02-24T14:40:30Z</time>
      </trkpt>
      <trkpt lat="46.5151410" lon="6.6504370">
        <ele>476.4</ele>
        <time>2019-02-24T14:40:31Z</time>
      </trkpt>
      <trkpt lat="46.5151570" lon="6.6504090">
        <ele>476.7</ele>
        <time>2019-02-24T14:40:32Z</time>
      </trkpt>
      <trkpt lat="46.5151720" lon="6.6503810">
        <ele>476.9</ele>
        <time>2019-02-24T14:40:33Z</time>
      </trkpt>
      <trkpt lat="46.5151880" lon="6.6503540">
        <ele>477.2</ele>
        <time>2019-02-24T14:40:34Z</time>
      </trkpt>
      <trkpt lat="46.5152030" lon="6.6503270">
        <ele>477.5</ele>
        <time>2019-02-24T14:40:35Z</time>
      </trkpt>
      <trkpt lat="46.5152180" lon="6.6503010">
        <ele>477.8</ele>
        <time>2019-02-24T14:40:36Z</time>
      </trkpt>
      <trkpt lat="46.5152330" lon="6.6502740">
        <ele>478.0</ele>
        <time>2019-02-24T14:40:37Z</time>
      </trkpt>
      <trkpt lat="46.5152480" lon="6.6502480">
        <ele>478.3</ele>
        <time>2019-02-24T14:40:38Z</time>
      </trkpt>
      <trkpt lat="46.5152630" lon="6.6502220">
        <ele>478.6</ele>
        <time>2019-02-24T14:40:39Z</time>
      </trkpt>
      <trkpt lat="46.5152780" lon="6.6501970">
        <ele>478.8</ele>
        <time>2019-02-24T14:40:40Z</time>
      </trkpt>
      <trkpt lat="46.5152930" lon="6.6501710">
        <ele>479.1</ele>
        <time>2019-02-24T14:40:41Z</time>
      </trkpt>
      <trkpt lat="46.5153080" lon="6.6501460">
        <ele>479.4</ele>
        <time>2019-02-24T14:40:42Z</time>
      </trkpt>
      <trkpt lat="46.5153230" lon="6.6501200">
        <ele>479.6</ele>
        <time>2019-02-24T14:40:43Z</time>
      </trkpt>
      <trkpt lat="46.5153380" lon="6.6500950">
        <ele>479.9</ele>
        <time>2019-02-24T14:40:44Z</time>
      </trkpt>
      <trkpt lat="46.5153530" lon="6.6500700">
        <ele>480.2</ele>
        <time>2019-02-24T14:40:45Z</time>
      </trkpt>
      <trkpt lat="46.5153670" lon="6.6500460">
        <ele>480.5</ele>
        <time>2019-02-24T14:40:46Z</time>
      </trkpt>
      <trkpt lat="46.5153820" lon="6.6500220">
        <ele>480.8</ele>
        <time>2019-02-24T14:40:47Z</time>
      </trkpt>
      <trkpt lat="46.5153960" lon="6.6499980">
        <ele>481.1</ele>
        <time>2019-02-24T14:40:48Z</time>
      </trkpt>
      <trkpt lat="46.5154090" lon="6.6499750">
        <ele>481.4</ele>
        <time>2019-02-24T14:40:49Z</time>
      </trkpt>
      <trkpt lat="46.5154220" lon="6.6499520">
        <ele>481.6</ele>
        <time>2019-02-24T14:40:50Z</time>
      </trkpt>
      <trkpt lat="46.5154350" lon="6.6499300">
        <ele>481.9</ele>
        <time>2019-02-24T14:40:51Z</time>
      </trkpt>
      <trkpt lat="46.5154480" lon="6.6499080">
        <ele>482.2</ele>
        <time>2019-02-24T14:40:52Z</time>
      </trkpt>
      <trkpt lat="46.5154620" lon="6.6498870">
        <ele>482.5</ele>
        <time>2019-02-24T14:40:53Z</time>
      </trkpt>
      <trkpt lat="46.5154750" lon="6.6498640">
        <ele>482.8</ele>
        <time>2019-02-24T14:40:54Z</time>
      </trkpt>
      <trkpt lat="46.5154900" lon="6.6498420">
        <ele>483.1</ele>
        <time>2019-02-24T14:40:55Z</time>
      </trkpt>
      <trkpt lat="46.5155050" lon="6.6498190">
        <ele>483.5</ele>
        <time>2019-02-24T14:40:56Z</time>
      </trkpt>
      <trkpt lat="46.5155190" lon="6.6497960">
        <ele>483.8</ele>
        <time>2019-02-24T14:40:57Z</time>
      </trkpt>
      <trkpt lat="46.5155340" lon="6.6497720">
        <ele>484.2</ele>
        <time>2019-02-24T14:40:58Z</time>
      </trkpt>
      <trkpt lat="46.5155470" lon="6.6497480">
        <ele>484.5</ele>
        <time>2019-02-24T14:40:59Z</time>
      </trkpt>
      <trkpt lat="46.5155600" lon="6.6497230">
        <ele>484.8</ele>
        <time>2019-02-24T14:41:00Z</time>
      </trkpt>
      <trkpt lat="46.5155720" lon="6.6496990">
        <ele>485.1</ele>
        <time>2019-02-24T14:41:01Z</time>
      </trkpt>
      <trkpt lat="46.5155840" lon="6.6496730">
        <ele>485.4</ele>
        <time>2019-02-24T14:41:02Z</time>
      </trkpt>
      <trkpt lat="46.5155950" lon="6.6496470">
        <ele>485.4</ele>
        <time>2019-02-24T14:41:03Z</time>
      </trkpt>
      <trkpt lat="46.5156070" lon="6.6496210">
        <ele>485.7</ele>
        <time>2019-02-24T14:41:04Z</time>
      </trkpt>
      <trkpt lat="46.5156190" lon="6.6495940">
        <ele>486.0</ele>
        <time>2019-02-24T14:41:05Z</time>
      </trkpt>
      <trkpt lat="46.5156310" lon="6.6495660">
        <ele>486.3</ele>
        <time>2019-02-24T14:41:06Z</time>
      </trkpt>
      <trkpt lat="46.5156430" lon="6.6495370">
        <ele>486.6</ele>
        <time>2019-02-24T14:41:07Z</time>
      </trkpt>
      <trkpt lat="46.5156560" lon="6.6495070">
        <ele>486.9</ele>
        <time>2019-02-24T14:41:08Z</time>
      </trkpt>
      <trkpt lat="46.5156680" lon="6.6494770">
        <ele>487.2</ele>
        <time>2019-02-24T14:41:09Z</time>
      </trkpt>
      <trkpt lat="46.5156810" lon="6.6494460">
        <ele>487.5</ele>
        <time>2019-02-24T14:41:10Z</time>
      </trkpt>
      <trkpt lat="46.5156920" lon="6.6494140">
        <ele>487.8</ele>
        <time>2019-02-24T14:41:11Z</time>
      </trkpt>
      <trkpt lat="46.5157030" lon="6.6493810">
        <ele>488.1</ele>
        <time>2019-02-24T14:41:12Z</time>
      </trkpt>
      <trkpt lat="46.5157130" lon="6.6493480">
        <ele>488.3</ele>
        <time>2019-02-24T14:41:13Z</time>
      </trkpt>
      <trkpt lat="46.5157210" lon="6.6493140">
        <ele>488.6</ele>
        <time>2019-02-24T14:41:14Z</time>
      </trkpt>
      <trkpt lat="46.5157280" lon="6.6492790">
        <ele>488.8</ele>
        <time>2019-02-24T14:41:15Z</time>
      </trkpt>
      <trkpt lat="46.5157330" lon="6.6492440">
        <ele>489.1</ele>
        <time>2019-02-24T14:41:16Z</time>
      </trkpt>
      <trkpt lat="46.5157380" lon="6.6492080">
        <ele>489.3</ele>
        <time>2019-02-24T14:41:17Z</time>
      </trkpt>
      <trkpt lat="46.5157430" lon="6.6491720">
        <ele>489.6</ele>
        <time>2019-02-24T14:41:18Z</time>
      </trkpt>
      <trkpt lat="46.5157480" lon="6.6491350">
        <ele>489.9</ele>
        <time>2019-02-24T14:41:19Z</time>
      </trkpt>
      <trkpt lat="46.5157530" lon="6.6490980">
        <ele>490.1</ele>
        <time>2019-02-24T14:41:20Z</time>
      </trkpt>
      <trkpt lat="46.5157590" lon="6.6490620">
        <ele>490.3</ele>
        <time>2019-02-24T14:41:21Z</time>
      </trkpt>
      <trkpt lat="46.5157650" lon="6.6490270">
        <ele>490.6</ele>
        <time>2019-02-24T14:41:22Z</time>
      </trkpt>
      <trkpt lat="46.5157710" lon="6.6489940">
        <ele>490.8</ele>
        <time>2019-02-24T14:41:23Z</time>
      </trkpt>
      <trkpt lat="46.5157770" lon="6.6489620">
        <ele>491.0</ele>
        <time>2019-02-24T14:41:24Z</time>
      </trkpt>
      <trkpt lat="46.5157800" lon="6.6489300">
        <ele>491.2</ele>
        <time>2019-02-24T14:41:25Z</time>
      </trkpt>
      <trkpt lat="46.5157800" lon="6.6488990">
        <ele>491.3</ele>
        <time>2019-02-24T14:41:26Z</time>
      </trkpt>
      <trkpt lat="46.5157770" lon="6.6488670">
        <ele>491.5</ele>
        <time>2019-02-24T14:41:27Z</time>
      </trkpt>
      <trkpt lat="46.5157710" lon="6.6488340">
        <ele>491.7</ele>
        <time>2019-02-24T14:41:28Z</time>
      </trkpt>
      <trkpt lat="46.5157660" lon="6.6487990">
        <ele>491.9</ele>
        <time>2019-02-24T14:41:29Z</time>
      </trkpt>
      <trkpt lat="46.5157640" lon="6.6487630">
        <ele>492.2</ele>
        <time>2019-02-24T14:41:30Z</time>
      </trkpt>
      <trkpt lat="46.5157660" lon="6.6487250">
        <ele>492.4</ele>
        <time>2019-02-24T14:41:31Z</time>
      </trkpt>
      <trkpt lat="46.5157730" lon="6.6486860">
        <ele>492.6</ele>
        <time>2019-02-24T14:41:32Z</time>
      </trkpt>
      <trkpt lat="46.5157810" lon="6.6486480">
        <ele>492.9</ele>
        <time>2019-02-24T14:41:33Z</time>
      </trkpt>
      <trkpt lat="46.5157910" lon="6.6486120">
        <ele>493.1</ele>
        <time>2019-02-24T14:41:34Z</time>
      </trkpt>
      <trkpt lat="46.5158000" lon="6.6485790">
        <ele>493.4</ele>
        <time>2019-02-24T14:41:35Z</time>
      </trkpt>
      <trkpt lat="46.5158070" lon="6.6485480">
        <ele>493.6</ele>
        <time>2019-02-24T14:41:36Z</time>
      </trkpt>
      <trkpt lat="46.5158130" lon="6.6485160">
        <ele>493.8</ele>
        <time>2019-02-24T14:41:37Z</time>
      </trkpt>
      <trkpt lat="46.5158170" lon="6.6484820">
        <ele>493.9</ele>
        <time>2019-02-24T14:41:38Z</time>
      </trkpt>
      <trkpt lat="46.5158200" lon="6.6484430">
        <ele>494.1</ele>
        <time>2019-02-24T14:41:39Z</time>
      </trkpt>
      <trkpt lat="46.5158210" lon="6.6484020">
        <ele>494.3</ele>
        <time>2019-02-24T14:41:40Z</time>
      </trkpt>
      <trkpt lat="46.5158210" lon="6.6483600">
        <ele>494.5</ele>
        <time>2019-02-24T14:41:41Z</time>
      </trkpt>
      <trkpt lat="46.5158230" lon="6.6483200">
        <ele>494.7</ele>
        <time>2019-02-24T14:41:42Z</time>
      </trkpt>
      <trkpt lat="46.5158250" lon="6.6482840">
        <ele>494.8</ele>
        <time>2019-02-24T14:41:43Z</time>
      </trkpt>
      <trkpt lat="46.5158290" lon="6.6482500">
        <ele>495.0</ele>
        <time>2019-02-24T14:41:44Z</time>
      </trkpt>
      <trkpt lat="46.5158330" lon="6.6482190">
        <ele>495.1</ele>
        <time>2019-02-24T14:41:45Z</time>
      </trkpt>
      <trkpt lat="46.5158380" lon="6.6481870">
        <ele>495.3</ele>
        <time>2019-02-24T14:41:46Z</time>
      </trkpt>
      <trkpt lat="46.5158430" lon="6.6481530">
        <ele>495.4</ele>
        <time>2019-02-24T14:41:47Z</time>
      </trkpt>
      <trkpt lat="46.5158480" lon="6.6481190">
        <ele>495.5</ele>
        <time>2019-02-24T14:41:48Z</time>
      </trkpt>
      <trkpt lat="46.5158530" lon="6.6480830">
        <ele>495.4</ele>
        <time>2019-02-24T14:41:49Z</time>
      </trkpt>
      <trkpt lat="46.5158580" lon="6.6480470">
        <ele>495.4</ele>
        <time>2019-02-24T14:41:50Z</time>
      </trkpt>
      <trkpt lat="46.5158620" lon="6.6480100">
        <ele>495.4</ele>
        <time>2019-02-24T14:41:51Z</time>
      </trkpt>
      <trkpt lat="46.5158670" lon="6.6479730">
        <ele>495.6</ele>
        <time>2019-02-24T14:41:52Z</time>
      </trkpt>
      <trkpt lat="46.5158710" lon="6.6479360">
        <ele>495.7</ele>
        <time>2019-02-24T14:41:53Z</time>
      </trkpt>
      <trkpt lat="46.5158750" lon="6.6478980">
        <ele>495.9</ele>
        <time>2019-02-24T14:41:54Z</time>
      </trkpt>
      <trkpt lat="46.5158780" lon="6.6478620">
        <ele>496.0</ele>
        <time>2019-02-24T14:41:55Z</time>
      </trkpt>
      <trkpt lat="46.5158810" lon="6.6478250">
        <ele>496.1</ele>
        <time>2019-02-24T14:41:56Z</time>
      </trkpt>
      <trkpt lat="46.5158840" lon="6.6477880">
        <ele>496.2</ele>
        <time>2019-02-24T14:41:57Z</time>
      </trkpt>
      <trkpt lat="46.5158870" lon="6.6477520">
        <ele>496.3</ele>
        <time>2019-02-24T14:41:58Z</time>
      </trkpt>
      <trkpt lat="46.5158890" lon="6.6477160">
        <ele>496.4</ele>
        <time>2019-02-24T14:41:59Z</time>
      </trkpt>
      <trkpt lat="46.5158910" lon="6.6476800">
        <ele>496.5</ele>
        <time>2019-02-24T14:42:00Z</time>
      </trkpt>
      <trkpt lat="46.5158930" lon="6.6476450">
        <ele>496.6</ele>
        <time>2019-02-24T14:42:01Z</time>
      </trkpt>
      <trkpt lat="46.5158950" lon="6.6476090">
        <ele>496.7</ele>
        <time>2019-02-24T14:42:02Z</time>
      </trkpt>
      <trkpt lat="46.5158960" lon="6.6475730">
        <ele>496.8</ele>
        <time>2019-02-24T14:42:03Z</time>
      </trkpt>
      <trkpt lat="46.5158980" lon="6.6475380">
        <ele>496.9</ele>
        <time>2019-02-24T14:42:04Z</time>
      </trkpt>
      <trkpt lat="46.5158990" lon="6.6475020">
        <ele>497.0</ele>
        <time>2019-02-24T14:42:05Z</time>
      </trkpt>
      <trkpt lat="46.5159010" lon="6.6474660">
        <ele>497.1</ele>
        <time>2019-02-24T14:42:06Z</time>
      </trkpt>
      <trkpt lat="46.5159030" lon="6.6474310">
        <ele>497.2</ele>
        <time>2019-02-24T14:42:07Z</time>
      </trkpt>
      <trkpt lat="46.5159050" lon="6.6473950">
        <ele>497.2</ele>
        <time>2019-02-24T14:42:08Z</time>
      </trkpt>
      <trkpt lat="46.5159070" lon="6.6473590">
        <ele>497.2</ele>
        <time>2019-02-24T14:42:09Z</time>
      </trkpt>
      <trkpt lat="46.5159090" lon="6.6473220">
        <ele>497.2</ele>
        <time>2019-02-24T14:42:10Z</time>
      </trkpt>
      <trkpt lat="46.5159110" lon="6.6472860">
        <ele>497.3</ele>
        <time>2019-02-24T14:42:11Z</time>
      </trkpt>
      <trkpt lat="46.5159140" lon="6.6472490">
        <ele>497.3</ele>
        <time>2019-02-24T14:42:12Z</time>
      </trkpt>
      <trkpt lat="46.5159170" lon="6.6472120">
        <ele>497.3</ele>
        <time>2019-02-24T14:42:13Z</time>
      </trkpt>
      <trkpt lat="46.5159200" lon="6.6471750">
        <ele>497.3</ele>
        <time>2019-02-24T14:42:14Z</time>
      </trkpt>
      <trkpt lat="46.5159230" lon="6.6471380">
        <ele>497.3</ele>
        <time>2019-02-24T14:42:15Z</time>
      </trkpt>
      <trkpt lat="46.5159260" lon="6.6471000">
        <ele>497.4</ele>
        <time>2019-02-24T14:42:16Z</time>
      </trkpt>
      <trkpt lat="46.5159290" lon="6.6470630">
        <ele>497.4</ele>
        <time>2019-02-24T14:42:17Z</time>
      </trkpt>
      <trkpt lat="46.5159320" lon="6.6470260">
        <ele>497.4</ele>
        <time>2019-02-24T14:42:18Z</time>
      </trkpt>
      <trkpt lat="46.5159350" lon="6.6469880">
        <ele>497.4</ele>
        <time>2019-02-24T14:42:19Z</time>
      </trkpt>
      <trkpt lat="46.5159380" lon="6.6469510">
        <ele>497.5</ele>
        <time>2019-02-24T14:42:20Z</time>
      </trkpt>
      <trkpt lat="46.5159400" lon="6.6469130">
        <ele>497.5</ele>
        <time>2019-02-24T14:42:21Z</time>
      </trkpt>
      <trkpt lat="46.5159430" lon="6.6468760">
        <ele>497.5</ele>
        <time>2019-02-24T14:42:22Z</time>
      </trkpt>
      <trkpt lat="46.5159450" lon="6.6468390">
        <ele>497.6</ele>
        <time>2019-02-24T14:42:23Z</time>
      </trkpt>
      <trkpt lat="46.5159470" lon="6.6468020">
        <ele>497.5</ele>
        <time>2019-02-24T14:42:24Z</time>
      </trkpt>
      <trkpt lat="46.5159490" lon="6.6467650">
        <ele>497.5</ele>
        <time>2019-02-24T14:42:25Z</time>
      </trkpt>
      <trkpt lat="46.5159500" lon="6.6467290">
        <ele>497.5</ele>
        <time>2019-02-24T14:42:26Z</time>
      </trkpt>
      <trkpt lat="46.5159510" lon="6.6466920">
        <ele>497.4</ele>
        <time>2019-02-24T14:42:27Z</time>
      </trkpt>
      <trkpt lat="46.5159520" lon="6.6466560">
        <ele>497.4</ele>
        <time>2019-02-24T14:42:28Z</time>
      </trkpt>
      <trkpt lat="46.5159520" lon="6.6466210">
        <ele>497.4</ele>
        <time>2019-02-24T14:42:29Z</time>
      </trkpt>
      <trkpt lat="46.5159520" lon="6.6465860">
        <ele>497.3</ele>
        <time>2019-02-24T14:42:30Z</time>
      </trkpt>
      <trkpt lat="46.5159520" lon="6.6465510">
        <ele>497.3</ele>
        <time>2019-02-24T14:42:31Z</time>
      </trkpt>
      <trkpt lat="46.5159510" lon="6.6465180">
        <ele>497.3</ele>
        <time>2019-02-24T14:42:32Z</time>
      </trkpt>
      <trkpt lat="46.5159500" lon="6.6464850">
        <ele>497.3</ele>
        <time>2019-02-24T14:42:33Z</time>
      </trkpt>
      <trkpt lat="46.5159490" lon="6.6464540">
        <ele>497.2</ele>
        <time>2019-02-24T14:42:34Z</time>
      </trkpt>
      <trkpt lat="46.5159480" lon="6.6464240">
        <ele>497.2</ele>
        <time>2019-02-24T14:42:35Z</time>
      </trkpt>
      <trkpt lat="46.5159460" lon="6.6463940">
        <ele>497.2</ele>
        <time>2019-02-24T14:42:36Z</time>
      </trkpt>
      <trkpt lat="46.5159450" lon="6.6463640">
        <ele>497.2</ele>
        <time>2019-02-24T14:42:37Z</time>
      </trkpt>
      <trkpt lat="46.5159430" lon="6.6463350">
        <ele>497.1</ele>
        <time>2019-02-24T14:42:38Z</time>
      </trkpt>
      <trkpt lat="46.5159400" lon="6.6463040">
        <ele>497.1</ele>
        <time>2019-02-24T14:42:39Z</time>
      </trkpt>
      <trkpt lat="46.5159370" lon="6.6462730">
        <ele>497.1</ele>
        <time>2019-02-24T14:42:40Z</time>
      </trkpt>
      <trkpt lat="46.5159330" lon="6.6462400">
        <ele>497.1</ele>
        <time>2019-02-24T14:42:41Z</time>
      </trkpt>
      <trkpt lat="46.5159290" lon="6.6462060">
        <ele>497.0</ele>
        <time>2019-02-24T14:42:42Z</time>
      </trkpt>
      <trkpt lat="46.5159240" lon="6.6461690">
        <ele>496.8</ele>
        <time>2019-02-24T14:42:43Z</time>
      </trkpt>
      <trkpt lat="46.5159190" lon="6.6461300">
        <ele>496.7</ele>
        <time>2019-02-24T14:42:44Z</time>
      </trkpt>
      <trkpt lat="46.5159130" lon="6.6460880">
        <ele>496.4</ele>
        <time>2019-02-24T14:42:45Z</time>
      </trkpt>
      <trkpt lat="46.5159050" lon="6.6460450">
        <ele>496.3</ele>
        <time>2019-02-24T14:42:46Z</time>
      </trkpt>
      <trkpt lat="46.5158970" lon="6.6459990">
        <ele>496.1</ele>
        <time>2019-02-24T14:42:47Z</time>
      </trkpt>
      <trkpt lat="46.5158880" lon="6.6459510">
        <ele>495.8</ele>
        <time>2019-02-24T14:42:48Z</time>
      </trkpt>
      <trkpt lat="46.5158780" lon="6.6459020">
        <ele>495.7</ele>
        <time>2019-02-24T14:42:49Z</time>
      </trkpt>
      <trkpt lat="46.5158660" lon="6.6458510">
        <ele>495.6</ele>
        <time>2019-02-24T14:42:50Z</time>
      </trkpt>
      <trkpt lat="46.5158530" lon="6.6457980">
        <ele>495.5</ele>
        <time>2019-02-24T14:42:51Z</time>
      </trkpt>
      <trkpt lat="46.5158390" lon="6.6457430">
        <ele>495.3</ele>
        <time>2019-02-24T14:42:52Z</time>
      </trkpt>
      <trkpt lat="46.5158240" lon="6.6456870">
        <ele>495.2</ele>
        <time>2019-02-24T14:42:53Z</time>
      </trkpt>
      <trkpt lat="46.5158080" lon="6.6456300">
        <ele>495.0</ele>
        <time>2019-02-24T14:42:54Z</time>
      </trkpt>
      <trkpt lat="46.5157920" lon="6.6455710">
        <ele>494.9</ele>
        <time>2019-02-24T14:42:55Z</time>
      </trkpt>
      <trkpt lat="46.5157750" lon="6.6455120">
        <ele>494.7</ele>
        <time>2019-02-24T14:42:56Z</time>
      </trkpt>
      <trkpt lat="46.5157490" lon="6.6454200">
        <ele>494.5</ele>
        <time>2019-02-24T14:42:57Z</time>
      </trkpt>
      <trkpt lat="46.5157400" lon="6.6453890">
        <ele>494.4</ele>
        <time>2019-02-24T14:42:58Z</time>
      </trkpt>
      <trkpt lat="46.5157230" lon="6.6453260">
        <ele>494.3</ele>
        <time>2019-02-24T14:42:59Z</time>
      </trkpt>
      <trkpt lat="46.5157060" lon="6.6452620">
        <ele>494.1</ele>
        <time>2019-02-24T14:43:00Z</time>
      </trkpt>
      <trkpt lat="46.5156910" lon="6.6451960">
        <ele>493.9</ele>
        <time>2019-02-24T14:43:01Z</time>
      </trkpt>
      <trkpt lat="46.5156770" lon="6.6451280">
        <ele>493.6</ele>
        <time>2019-02-24T14:43:02Z</time>
      </trkpt>
      <trkpt lat="46.5156650" lon="6.6450580">
        <ele>493.4</ele>
        <time>2019-02-24T14:43:03Z</time>
      </trkpt>
      <trkpt lat="46.5156570" lon="6.6449860">
        <ele>493.2</ele>
        <time>2019-02-24T14:43:04Z</time>
      </trkpt>
      <trkpt lat="46.5156510" lon="6.6449110">
        <ele>493.0</ele>
        <time>2019-02-24T14:43:05Z</time>
      </trkpt>
      <trkpt lat="46.5156460" lon="6.6448320">
        <ele>492.8</ele>
        <time>2019-02-24T14:43:06Z</time>
      </trkpt>
      <trkpt lat="46.5156410" lon="6.6447510">
        <ele>492.7</ele>
        <time>2019-02-24T14:43:07Z</time>
      </trkpt>
      <trkpt lat="46.5156360" lon="6.6446650">
        <ele>492.5</ele>
        <time>2019-02-24T14:43:08Z</time>
      </trkpt>
      <trkpt lat="46.5156320" lon="6.6445770">
        <ele>492.3</ele>
        <time>2019-02-24T14:43:09Z</time>
      </trkpt>
      <trkpt lat="46.5156290" lon="6.6444880">
        <ele>492.1</ele>
        <time>2019-02-24T14:43:10Z</time>
      </trkpt>
      <trkpt lat="46.5156280" lon="6.6443990">
        <ele>492.0</ele>
        <time>2019-02-24T14:43:11Z</time>
      </trkpt>
      <trkpt lat="46.5156320" lon="6.6443110">
        <ele>491.8</ele>
        <time>2019-02-24T14:43:12Z</time>
      </trkpt>
      <trkpt lat="46.5156380" lon="6.6442240">
        <ele>491.7</ele>
        <time>2019-02-24T14:43:13Z</time>
      </trkpt>
      <trkpt lat="46.5156470" lon="6.6441370">
        <ele>491.6</ele>
        <time>2019-02-24T14:43:14Z</time>
      </trkpt>
      <trkpt lat="46.5156570" lon="6.6440500">
        <ele>491.4</ele>
        <time>2019-02-24T14:43:15Z</time>
      </trkpt>
      <trkpt lat="46.5156690" lon="6.6439620">
        <ele>491.3</ele>
        <time>2019-02-24T14:43:16Z</time>
      </trkpt>
      <trkpt lat="46.5156830" lon="6.6438740">
        <ele>491.3</ele>
        <time>2019-02-24T14:43:17Z</time>
      </trkpt>
      <trkpt lat="46.5156980" lon="6.6437860">
        <ele>491.2</ele>
        <time>2019-02-24T14:43:18Z</time>
      </trkpt>
      <trkpt lat="46.5157150" lon="6.6436980">
        <ele>491.2</ele>
        <time>2019-02-24T14:43:19Z</time>
      </trkpt>
      <trkpt lat="46.5157330" lon="6.6436120">
        <ele>491.3</ele>
        <time>2019-02-24T14:43:20Z</time>
      </trkpt>
      <trkpt lat="46.5157530" lon="6.6435270">
        <ele>491.4</ele>
        <time>2019-02-24T14:43:21Z</time>
      </trkpt>
      <trkpt lat="46.5157750" lon="6.6434450">
        <ele>491.4</ele>
        <time>2019-02-24T14:43:22Z</time>
      </trkpt>
      <trkpt lat="46.5157980" lon="6.6433640">
        <ele>491.5</ele>
        <time>2019-02-24T14:43:23Z</time>
      </trkpt>
      <trkpt lat="46.5158220" lon="6.6432860">
        <ele>491.9</ele>
        <time>2019-02-24T14:43:24Z</time>
      </trkpt>
      <trkpt lat="46.5158460" lon="6.6432100">
        <ele>492.3</ele>
        <time>2019-02-24T14:43:25Z</time>
      </trkpt>
      <trkpt lat="46.5158710" lon="6.6431360">
        <ele>492.7</ele>
        <time>2019-02-24T14:43:26Z</time>
      </trkpt>
      <trkpt lat="46.5158970" lon="6.6430630">
        <ele>492.9</ele>
        <time>2019-02-24T14:43:27Z</time>
      </trkpt>
      <trkpt lat="46.5159230" lon="6.6429930">
        <ele>493.1</ele>
        <time>2019-02-24T14:43:28Z</time>
      </trkpt>
      <trkpt lat="46.5159490" lon="6.6429240">
        <ele>493.3</ele>
        <time>2019-02-24T14:43:29Z</time>
      </trkpt>
      <trkpt lat="46.5159750" lon="6.6428560">
        <ele>493.4</ele>
        <time>2019-02-24T14:43:30Z</time>
      </trkpt>
      <trkpt lat="46.5160010" lon="6.6427890">
        <ele>493.5</ele>
        <time>2019-02-24T14:43:31Z</time>
      </trkpt>
      <trkpt lat="46.5160270" lon="6.6427230">
        <ele>493.4</ele>
        <time>2019-02-24T14:43:32Z</time>
      </trkpt>
      <trkpt lat="46.5160530" lon="6.6426580">
        <ele>493.3</ele>
        <time>2019-02-24T14:43:33Z</time>
      </trkpt>
      <trkpt lat="46.5160780" lon="6.6425960">
        <ele>493.0</ele>
        <time>2019-02-24T14:43:34Z</time>
      </trkpt>
      <trkpt lat="46.5161020" lon="6.6425350">
        <ele>492.0</ele>
        <time>2019-02-24T14:43:35Z</time>
      </trkpt>
      <trkpt lat="46.5161250" lon="6.6424770">
        <ele>492.0</ele>
        <time>2019-02-24T14:43:36Z</time>
      </trkpt>
      <trkpt lat="46.5161470" lon="6.6424220">
        <ele>492.0</ele>
        <time>2019-02-24T14:43:37Z</time>
      </trkpt>
      <trkpt lat="46.5161680" lon="6.6423710">
        <ele>492.0</ele>
        <time>2019-02-24T14:43:38Z</time>
      </trkpt>
      <trkpt lat="46.5161870" lon="6.6423240">
        <ele>492.0</ele>
        <time>2019-02-24T14:43:39Z</time>
      </trkpt>
      <trkpt lat="46.5162040" lon="6.6422810">
        <ele>492.0</ele>
        <time>2019-02-24T14:43:40Z</time>
      </trkpt>
      <trkpt lat="46.5162190" lon="6.6422450">
        <ele>492.0</ele>
        <time>2019-02-24T14:43:41Z</time>
      </trkpt>
      <trkpt lat="46.5162310" lon="6.6422150">
        <ele>492.0</ele>
        <time>2019-02-24T14:43:42Z</time>
      </trkpt>
      <trkpt lat="46.5162400" lon="6.6421920">
        <ele>492.0</ele>
        <time>2019-02-24T14:43:43Z</time>
      </trkpt>
      <trkpt lat="46.5162450" lon="6.6421790">
        <ele>492.0</ele>
        <time>2019-02-24T14:43:44Z</time>
      </trkpt>
      <trkpt lat="46.5162480" lon="6.6421720">
        <ele>492.0</ele>
        <time>2019-02-24T14:43:45Z</time>
      </trkpt>
      <trkpt lat="46.5162490" lon="6.6421700">
        <ele>492.0</ele>
        <time>2019-02-24T14:43:46Z</time>
      </trkpt>
      <trkpt lat="46.5162490" lon="6.6421700">
        <ele>492.0</ele>
        <time>2019-02-24T14:43:47Z</time>
      </trkpt>
      <trkpt lat="46.5162480" lon="6.6421700">
        <ele>492.0</ele>
        <time>2019-02-24T14:43:48Z</time>
      </trkpt>
      <trkpt lat="46.5162480" lon="6.6421700">
        <ele>492.0</ele>
        <time>2019-02-24T14:43:49Z</time>
      </trkpt>
      <trkpt lat="46.5162490" lon="6.6421700">
        <ele>492.0</ele>
        <time>2019-02-24T14:43:50Z</time>
      </trkpt>
      <trkpt lat="46.5162490" lon="6.6421700">
        <ele>492.0</ele>
        <time>2019-02-24T14:43:51Z</time>
      </trkpt>
      <trkpt lat="46.5162490" lon="6.6421700">
        <ele>492.0</ele>
        <time>2019-02-24T14:43:52Z</time>
      </trkpt>
      <trkpt lat="46.5162490" lon="6.6421690">
        <ele>492.0</ele>
        <time>2019-02-24T14:43:53Z</time>
      </trkpt>
      <trkpt lat="46.5162490" lon="6.6421690">
        <ele>492.0</ele>
        <time>2019-02-24T14:43:54Z</time>
      </trkpt>
      <trkpt lat="46.5162490" lon="6.6421690">
        <ele>492.0</ele>
        <time>2019-02-24T14:43:55Z</time>
      </trkpt>
      <trkpt lat="46.5162490" lon="6.6421690">
        <ele>492.0</ele>
        <time>2019-02-24T14:43:56Z</time>
      </trkpt>
      <trkpt lat="46.5162510" lon="6.6421690">
        <ele>492.0</ele>
        <time>2019-02-24T14:43:57Z</time>
      </trkpt>
      <trkpt lat="46.5162520" lon="6.6421640">
        <ele>492.0</ele>
        <time>2019-02-24T14:43:58Z</time>
      </trkpt>
      <trkpt lat="46.5162490" lon="6.6421370">
        <ele>492.0</ele>
        <time>2019-02-24T14:43:59Z</time>
      </trkpt>
      <trkpt lat="46.5162550" lon="6.6420990">
        <ele>492.0</ele>
        <time>2019-02-24T14:44:00Z</time>
      </trkpt>
      <trkpt lat="46.5162670" lon="6.6420630">
        <ele>492.1</ele>
        <time>2019-02-24T14:44:01Z</time>
      </trkpt>
      <trkpt lat="46.5162780" lon="6.6420330">
        <ele>492.1</ele>
        <time>2019-02-24T14:44:02Z</time>
      </trkpt>
      <trkpt lat="46.5162900" lon="6.6420020">
        <ele>492.1</ele>
        <time>2019-02-24T14:44:03Z</time>
      </trkpt>
      <trkpt lat="46.5163050" lon="6.6419600">
        <ele>492.1</ele>
        <time>2019-02-24T14:44:04Z</time>
      </trkpt>
      <trkpt lat="46.5163250" lon="6.6419110">
        <ele>492.1</ele>
        <time>2019-02-24T14:44:05Z</time>
      </trkpt>
      <trkpt lat="46.5163490" lon="6.6418590">
        <ele>492.1</ele>
        <time>2019-02-24T14:44:06Z</time>
      </trkpt>
      <trkpt lat="46.5163750" lon="6.6418080">
        <ele>492.2</ele>
        <time>2019-02-24T14:44:07Z</time>
      </trkpt>
      <trkpt lat="46.5164030" lon="6.6417630">
        <ele>492.5</ele>
        <time>2019-02-24T14:44:08Z</time>
      </trkpt>
      <trkpt lat="46.5164320" lon="6.6417180">
        <ele>492.7</ele>
        <time>2019-02-24T14:44:09Z</time>
      </trkpt>
      <trkpt lat="46.5164610" lon="6.6416680">
        <ele>493.0</ele>
        <time>2019-02-24T14:44:10Z</time>
      </trkpt>
      <trkpt lat="46.5164900" lon="6.6416130">
        <ele>493.3</ele>
        <time>2019-02-24T14:44:11Z</time>
      </trkpt>
      <trkpt lat="46.5165360" lon="6.6415190">
        <ele>493.8</ele>
        <time>2019-02-24T14:44:12Z</time>
      </trkpt>
      <trkpt lat="46.5165530" lon="6.6414800">
        <ele>494.0</ele>
        <time>2019-02-24T14:44:13Z</time>
      </trkpt>
      <trkpt lat="46.5165710" lon="6.6414420">
        <ele>494.2</ele>
        <time>2019-02-24T14:44:14Z</time>
      </trkpt>
      <trkpt lat="46.5165960" lon="6.6413840">
        <ele>494.4</ele>
        <time>2019-02-24T14:44:15Z</time>
      </trkpt>
      <trkpt lat="46.5166210" lon="6.6413240">
        <ele>494.5</ele>
        <time>2019-02-24T14:44:16Z</time>
      </trkpt>
      <trkpt lat="46.5166450" lon="6.6412650">
        <ele>494.7</ele>
        <time>2019-02-24T14:44:17Z</time>
      </trkpt>
      <trkpt lat="46.5166690" lon="6.6412050">
        <ele>494.8</ele>
        <time>2019-02-24T14:44:18Z</time>
      </trkpt>
      <trkpt lat="46.5166930" lon="6.6411450">
        <ele>495.0</ele>
        <time>2019-02-24T14:44:19Z</time>
      </trkpt>
      <trkpt lat="46.5167170" lon="6.6410860">
        <ele>495.2</ele>
        <time>2019-02-24T14:44:20Z</time>
      </trkpt>
      <trkpt lat="46.5167420" lon="6.6410270">
        <ele>495.3</ele>
        <time>2019-02-24T14:44:21Z</time>
      </trkpt>
      <trkpt lat="46.5167660" lon="6.6409680">
        <ele>495.5</ele>
        <time>2019-02-24T14:44:22Z</time>
      </trkpt>
      <trkpt lat="46.5167910" lon="6.6409090">
        <ele>495.7</ele>
        <time>2019-02-24T14:44:23Z</time>
      </trkpt>
      <trkpt lat="46.5168150" lon="6.6408500">
        <ele>495.9</ele>
        <time>2019-02-24T14:44:24Z</time>
      </trkpt>
      <trkpt lat="46.5168400" lon="6.6407910">
        <ele>496.1</ele>
        <time>2019-02-24T14:44:25Z</time>
      </trkpt>
      <trkpt lat="46.5168640" lon="6.6407320">
        <ele>496.2</ele>
        <time>2019-02-24T14:44:26Z</time>
      </trkpt>
      <trkpt lat="46.5168880" lon="6.6406740">
        <ele>496.4</ele>
        <time>2019-02-24T14:44:27Z</time>
      </trkpt>
      <trkpt lat="46.5169110" lon="6.6406150">
        <ele>496.4</ele>
        <time>2019-02-24T14:44:28Z</time>
      </trkpt>
      <trkpt lat="46.5169350" lon="6.6405570">
        <ele>496.3</ele>
        <time>2019-02-24T14:44:29Z</time>
      </trkpt>
      <trkpt lat="46.5169580" lon="6.6404990">
        <ele>496.3</ele>
        <time>2019-02-24T14:44:30Z</time>
      </trkpt>
      <trkpt lat="46.5169810" lon="6.6404420">
        <ele>496.2</ele>
        <time>2019-02-24T14:44:31Z</time>
      </trkpt>
      <trkpt lat="46.5170030" lon="6.6403860">
        <ele>496.1</ele>
        <time>2019-02-24T14:44:32Z</time>
      </trkpt>
      <trkpt lat="46.5170250" lon="6.6403310">
        <ele>496.0</ele>
        <time>2019-02-24T14:44:33Z</time>
      </trkpt>
      <trkpt lat="46.5170470" lon="6.6402770">
        <ele>495.9</ele>
        <time>2019-02-24T14:44:34Z</time>
      </trkpt>
      <trkpt lat="46.5170690" lon="6.6402250">
        <ele>495.8</ele>
        <time>2019-02-24T14:44:35Z</time>
      </trkpt>
      <trkpt lat="46.5170900" lon="6.6401740">
        <ele>495.7</ele>
        <time>2019-02-24T14:44:36Z</time>
      </trkpt>
      <trkpt lat="46.5171110" lon="6.6401260">
        <ele>495.6</ele>
        <time>2019-02-24T14:44:37Z</time>
      </trkpt>
      <trkpt lat="46.5171290" lon="6.6400830">
        <ele>495.5</ele>
        <time>2019-02-24T14:44:38Z</time>
      </trkpt>
      <trkpt lat="46.5171460" lon="6.6400440">
        <ele>495.4</ele>
        <time>2019-02-24T14:44:39Z</time>
      </trkpt>
      <trkpt lat="46.5171600" lon="6.6400110">
        <ele>495.3</ele>
        <time>2019-02-24T14:44:40Z</time>
      </trkpt>
      <trkpt lat="46.5171720" lon="6.6399840">
        <ele>495.3</ele>
        <time>2019-02-24T14:44:41Z</time>
      </trkpt>
      <trkpt lat="46.5171800" lon="6.6399630">
        <ele>495.2</ele>
        <time>2019-02-24T14:44:42Z</time>
      </trkpt>
      <trkpt lat="46.5171860" lon="6.6399490">
        <ele>495.2</ele>
        <time>2019-02-24T14:44:43Z</time>
      </trkpt>
      <trkpt lat="46.5171890" lon="6.6399410">
        <ele>495.2</ele>
        <time>2019-02-24T14:44:44Z</time>
      </trkpt>
      <trkpt lat="46.5171910" lon="6.6399380">
        <ele>495.1</ele>
        <time>2019-02-24T14:44:45Z</time>
      </trkpt>
      <trkpt lat="46.5171900" lon="6.6399370">
        <ele>495.1</ele>
        <time>2019-02-24T14:44:46Z</time>
      </trkpt>
      <trkpt lat="46.5171900" lon="6.6399380">
        <ele>495.1</ele>
        <time>2019-02-24T14:44:47Z</time>
      </trkpt>
      <trkpt lat="46.5171900" lon="6.6399390">
        <ele>495.1</ele>
        <time>2019-02-24T14:44:48Z</time>
      </trkpt>
      <trkpt lat="46.5171890" lon="6.6399390">
        <ele>495.1</ele>
        <time>2019-02-24T14:44:49Z</time>
      </trkpt>
      <trkpt lat="46.5171890" lon="6.6399380">
        <ele>495.1</ele>
        <time>2019-02-24T14:44:50Z</time>
      </trkpt>
      <trkpt lat="46.5171900" lon="6.6399380">
        <ele>495.1</ele>
        <time>2019-02-24T14:44:51Z</time>
      </trkpt>
      <trkpt lat="46.5171900" lon="6.6399380">
        <ele>495.1</ele>
        <time>2019-02-24T14:44:52Z</time>
      </trkpt>
      <trkpt lat="46.5171900" lon="6.6399380">
        <ele>495.1</ele>
        <time>2019-02-24T14:44:53Z</time>
      </trkpt>
      <trkpt lat="46.5171900" lon="6.6399380">
        <ele>495.1</ele>
        <time>2019-02-24T14:44:54Z</time>
      </trkpt>
      <trkpt lat="46.5171900" lon="6.6399380">
        <ele>495.1</ele>
        <time>2019-02-24T14:44:55Z</time>
      </trkpt>
      <trkpt lat="46.5171900" lon="6.6399380">
        <ele>495.1</ele>
        <time>2019-02-24T14:44:56Z</time>
      </trkpt>
      <trkpt lat="46.5171900" lon="6.6399380">
        <ele>495.1</ele>
        <time>2019-02-24T14:44:57Z</time>
      </trkpt>
      <trkpt lat="46.5171890" lon="6.6399380">
        <ele>495.1</ele>
        <time>2019-02-24T14:44:58Z</time>
      </trkpt>
      <trkpt lat="46.5171890" lon="6.6399370">
        <ele>495.1</ele>
        <time>2019-02-24T14:44:59Z</time>
      </trkpt>
      <trkpt lat="46.5171890" lon="6.6399370">
        <ele>495.1</ele>
        <time>2019-02-24T14:45:00Z</time>
      </trkpt>
      <trkpt lat="46.5171890" lon="6.6399340">
        <ele>495.1</ele>
        <time>2019-02-24T14:45:01Z</time>
      </trkpt>
      <trkpt lat="46.5171910" lon="6.6399270">
        <ele>495.1</ele>
        <time>2019-02-24T14:45:02Z</time>
      </trkpt>
      <trkpt lat="46.5171950" lon="6.6399150">
        <ele>495.1</ele>
        <time>2019-02-24T14:45:03Z</time>
      </trkpt>
      <trkpt lat="46.5172030" lon="6.6398950">
        <ele>495.0</ele>
        <time>2019-02-24T14:45:04Z</time>
      </trkpt>
      <trkpt lat="46.5172130" lon="6.6398690">
        <ele>494.9</ele>
        <time>2019-02-24T14:45:05Z</time>
      </trkpt>
      <trkpt lat="46.5172260" lon="6.6398370">
        <ele>494.8</ele>
        <time>2019-02-24T14:45:06Z</time>
      </trkpt>
      <trkpt lat="46.5172400" lon="6.6398000">
        <ele>494.7</ele>
        <time>2019-02-24T14:45:07Z</time>
      </trkpt>
      <trkpt lat="46.5172570" lon="6.6397590">
        <ele>494.4</ele>
        <time>2019-02-24T14:45:08Z</time>
      </trkpt>
      <trkpt lat="46.5172760" lon="6.6397150">
        <ele>494.2</ele>
        <time>2019-02-24T14:45:09Z</time>
      </trkpt>
      <trkpt lat="46.5173100" lon="6.6396320">
        <ele>493.8</ele>
        <time>2019-02-24T14:45:10Z</time>
      </trkpt>
      <trkpt lat="46.5173250" lon="6.6395970">
        <ele>493.7</ele>
        <time>2019-02-24T14:45:11Z</time>
      </trkpt>
      <trkpt lat="46.5173390" lon="6.6395610">
        <ele>493.5</ele>
        <time>2019-02-24T14:45:12Z</time>
      </trkpt>
      <trkpt lat="46.5173630" lon="6.6395020">
        <ele>493.2</ele>
        <time>2019-02-24T14:45:13Z</time>
      </trkpt>
      <trkpt lat="46.5173870" lon="6.6394400">
        <ele>493.0</ele>
        <time>2019-02-24T14:45:14Z</time>
      </trkpt>
      <trkpt lat="46.5174310" lon="6.6393310">
        <ele>492.6</ele>
        <time>2019-02-24T14:45:15Z</time>
      </trkpt>
      <trkpt lat="46.5174480" lon="6.6392870">
        <ele>492.6</ele>
        <time>2019-02-24T14:45:16Z</time>
      </trkpt>
      <trkpt lat="46.5174660" lon="6.6392420">
        <ele>492.5</ele>
        <time>2019-02-24T14:45:17Z</time>
      </trkpt>
      <trkpt lat="46.5174940" lon="6.6391740">
        <ele>492.4</ele>
        <time>2019-02-24T14:45:18Z</time>
      </trkpt>
      <trkpt lat="46.5175210" lon="6.6391050">
        <ele>492.4</ele>
        <time>2019-02-24T14:45:19Z</time>
      </trkpt>
      <trkpt lat="46.5175480" lon="6.6390380">
        <ele>492.4</ele>
        <time>2019-02-24T14:45:20Z</time>
      </trkpt>
      <trkpt lat="46.5175730" lon="6.6389730">
        <ele>492.3</ele>
        <time>2019-02-24T14:45:21Z</time>
      </trkpt>
      <trkpt lat="46.5175980" lon="6.6389070">
        <ele>492.4</ele>
        <time>2019-02-24T14:45:22Z</time>
      </trkpt>
      <trkpt lat="46.5176240" lon="6.6388400">
        <ele>492.4</ele>
        <time>2019-02-24T14:45:23Z</time>
      </trkpt>
      <trkpt lat="46.5176510" lon="6.6387690">
        <ele>492.5</ele>
        <time>2019-02-24T14:45:24Z</time>
      </trkpt>
      <trkpt lat="46.5176800" lon="6.6386950">
        <ele>492.6</ele>
        <time>2019-02-24T14:45:25Z</time>
      </trkpt>
      <trkpt lat="46.5177110" lon="6.6386170">
        <ele>492.7</ele>
        <time>2019-02-24T14:45:26Z</time>
      </trkpt>
      <trkpt lat="46.5177430" lon="6.6385350">
        <ele>492.8</ele>
        <time>2019-02-24T14:45:27Z</time>
      </trkpt>
      <trkpt lat="46.5177770" lon="6.6384510">
        <ele>492.9</ele>
        <time>2019-02-24T14:45:28Z</time>
      </trkpt>
      <trkpt lat="46.5178110" lon="6.6383650">
        <ele>493.0</ele>
        <time>2019-02-24T14:45:29Z</time>
      </trkpt>
      <trkpt lat="46.5178640" lon="6.6382330">
        <ele>493.2</ele>
        <time>2019-02-24T14:45:30Z</time>
      </trkpt>
      <trkpt lat="46.5178810" lon="6.6381890">
        <ele>493.3</ele>
        <time>2019-02-24T14:45:31Z</time>
      </trkpt>
      <trkpt lat="46.5179150" lon="6.6381010">
        <ele>493.4</ele>
        <time>2019-02-24T14:45:32Z</time>
      </trkpt>
      <trkpt lat="46.5179490" lon="6.6380140">
        <ele>493.4</ele>
        <time>2019-02-24T14:45:33Z</time>
      </trkpt>
      <trkpt lat="46.5179830" lon="6.6379270">
        <ele>493.6</ele>
        <time>2019-02-24T14:45:34Z</time>
      </trkpt>
      <trkpt lat="46.5180150" lon="6.6378420">
        <ele>493.6</ele>
        <time>2019-02-24T14:45:35Z</time>
      </trkpt>
      <trkpt lat="46.5180480" lon="6.6377590">
        <ele>493.6</ele>
        <time>2019-02-24T14:45:36Z</time>
      </trkpt>
      <trkpt lat="46.5180790" lon="6.6376770">
        <ele>493.6</ele>
        <time>2019-02-24T14:45:37Z</time>
      </trkpt>
      <trkpt lat="46.5181100" lon="6.6375990">
        <ele>493.6</ele>
        <time>2019-02-24T14:45:38Z</time>
      </trkpt>
      <trkpt lat="46.5181410" lon="6.6375230">
        <ele>493.5</ele>
        <time>2019-02-24T14:45:39Z</time>
      </trkpt>
      <trkpt lat="46.5181700" lon="6.6374500">
        <ele>493.6</ele>
        <time>2019-02-24T14:45:40Z</time>
      </trkpt>
      <trkpt lat="46.5181990" lon="6.6373800">
        <ele>493.8</ele>
        <time>2019-02-24T14:45:41Z</time>
      </trkpt>
      <trkpt lat="46.5182270" lon="6.6373140">
        <ele>493.9</ele>
        <time>2019-02-24T14:45:42Z</time>
      </trkpt>
      <trkpt lat="46.5182550" lon="6.6372510">
        <ele>494.0</ele>
        <time>2019-02-24T14:45:43Z</time>
      </trkpt>
      <trkpt lat="46.5182810" lon="6.6371900">
        <ele>494.1</ele>
        <time>2019-02-24T14:45:44Z</time>
      </trkpt>
      <trkpt lat="46.5183050" lon="6.6371320">
        <ele>494.2</ele>
        <time>2019-02-24T14:45:45Z</time>
      </trkpt>
      <trkpt lat="46.5183290" lon="6.6370760">
        <ele>494.3</ele>
        <time>2019-02-24T14:45:46Z</time>
      </trkpt>
      <trkpt lat="46.5183510" lon="6.6370210">
        <ele>494.4</ele>
        <time>2019-02-24T14:45:47Z</time>
      </trkpt>
      <trkpt lat="46.5183710" lon="6.6369680">
        <ele>494.5</ele>
        <time>2019-02-24T14:45:48Z</time>
      </trkpt>
      <trkpt lat="46.5183890" lon="6.6369160">
        <ele>494.6</ele>
        <time>2019-02-24T14:45:49Z</time>
      </trkpt>
      <trkpt lat="46.5184060" lon="6.6368660">
        <ele>494.7</ele>
        <time>2019-02-24T14:45:50Z</time>
      </trkpt>
      <trkpt lat="46.5184220" lon="6.6368180">
        <ele>494.7</ele>
        <time>2019-02-24T14:45:51Z</time>
      </trkpt>
      <trkpt lat="46.5184390" lon="6.6367740">
        <ele>494.8</ele>
        <time>2019-02-24T14:45:52Z</time>
      </trkpt>
      <trkpt lat="46.5184560" lon="6.6367340">
        <ele>494.9</ele>
        <time>2019-02-24T14:45:53Z</time>
      </trkpt>
      <trkpt lat="46.5184720" lon="6.6366960">
        <ele>495.2</ele>
        <time>2019-02-24T14:45:54Z</time>
      </trkpt>
      <trkpt lat="46.5184880" lon="6.6366600">
        <ele>495.4</ele>
        <time>2019-02-24T14:45:55Z</time>
      </trkpt>
      <trkpt lat="46.5185020" lon="6.6366240">
        <ele>495.7</ele>
        <time>2019-02-24T14:45:56Z</time>
      </trkpt>
      <trkpt lat="46.5185160" lon="6.6365880">
        <ele>496.0</ele>
        <time>2019-02-24T14:45:57Z</time>
      </trkpt>
      <trkpt lat="46.5185300" lon="6.6365540">
        <ele>496.2</ele>
        <time>2019-02-24T14:45:58Z</time>
      </trkpt>
      <trkpt lat="46.5185430" lon="6.6365200">
        <ele>496.4</ele>
        <time>2019-02-24T14:45:59Z</time>
      </trkpt>
      <trkpt lat="46.5185560" lon="6.6364870">
        <ele>496.6</ele>
        <time>2019-02-24T14:46:00Z</time>
      </trkpt>
      <trkpt lat="46.5185690" lon="6.6364540">
        <ele>496.8</ele>
        <time>2019-02-24T14:46:01Z</time>
      </trkpt>
      <trkpt lat="46.5185820" lon="6.6364220">
        <ele>497.0</ele>
        <time>2019-02-24T14:46:02Z</time>
      </trkpt>
      <trkpt lat="46.5185950" lon="6.6363900">
        <ele>497.2</ele>
        <time>2019-02-24T14:46:03Z</time>
      </trkpt>
      <trkpt lat="46.5186070" lon="6.6363590">
        <ele>497.3</ele>
        <time>2019-02-24T14:46:04Z</time>
      </trkpt>
      <trkpt lat="46.5186190" lon="6.6363280">
        <ele>497.5</ele>
        <time>2019-02-24T14:46:05Z</time>
      </trkpt>
      <trkpt lat="46.5186300" lon="6.6362970">
        <ele>497.7</ele>
        <time>2019-02-24T14:46:06Z</time>
      </trkpt>
      <trkpt lat="46.5186420" lon="6.6362670">
        <ele>497.8</ele>
        <time>2019-02-24T14:46:07Z</time>
      </trkpt>
      <trkpt lat="46.5186530" lon="6.6362370">
        <ele>498.0</ele>
        <time>2019-02-24T14:46:08Z</time>
      </trkpt>
      <trkpt lat="46.5186650" lon="6.6362070">
        <ele>498.2</ele>
        <time>2019-02-24T14:46:09Z</time>
      </trkpt>
      <trkpt lat="46.5186760" lon="6.6361770">
        <ele>498.2</ele>
        <time>2019-02-24T14:46:10Z</time>
      </trkpt>
      <trkpt lat="46.5186870" lon="6.6361480">
        <ele>498.3</ele>
        <time>2019-02-24T14:46:11Z</time>
      </trkpt>
      <trkpt lat="46.5186970" lon="6.6361190">
        <ele>498.4</ele>
        <time>2019-02-24T14:46:12Z</time>
      </trkpt>
      <trkpt lat="46.5187080" lon="6.6360890">
        <ele>498.6</ele>
        <time>2019-02-24T14:46:13Z</time>
      </trkpt>
      <trkpt lat="46.5187180" lon="6.6360600">
        <ele>498.7</ele>
        <time>2019-02-24T14:46:14Z</time>
      </trkpt>
      <trkpt lat="46.5187290" lon="6.6360310">
        <ele>498.8</ele>
        <time>2019-02-24T14:46:15Z</time>
      </trkpt>
      <trkpt lat="46.5187390" lon="6.6360020">
        <ele>498.9</ele>
        <time>2019-02-24T14:46:16Z</time>
      </trkpt>
      <trkpt lat="46.5187490" lon="6.6359730">
        <ele>499.0</ele>
        <time>2019-02-24T14:46:17Z</time>
      </trkpt>
      <trkpt lat="46.5187600" lon="6.6359440">
        <ele>499.1</ele>
        <time>2019-02-24T14:46:18Z</time>
      </trkpt>
      <trkpt lat="46.5187700" lon="6.6359150">
        <ele>499.2</ele>
        <time>2019-02-24T14:46:19Z</time>
      </trkpt>
      <trkpt lat="46.5187800" lon="6.6358860">
        <ele>499.4</ele>
        <time>2019-02-24T14:46:20Z</time>
      </trkpt>
      <trkpt lat="46.5187900" lon="6.6358580">
        <ele>499.5</ele>
        <time>2019-02-24T14:46:21Z</time>
      </trkpt>
      <trkpt lat="46.5188000" lon="6.6358290">
        <ele>499.7</ele>
        <time>2019-02-24T14:46:22Z</time>
      </trkpt>
      <trkpt lat="46.5188100" lon="6.6358010">
        <ele>499.8</ele>
        <time>2019-02-24T14:46:23Z</time>
      </trkpt>
      <trkpt lat="46.5188210" lon="6.6357730">
        <ele>500.0</ele>
        <time>2019-02-24T14:46:24Z</time>
      </trkpt>
      <trkpt lat="46.5188310" lon="6.6357440">
        <ele>500.1</ele>
        <time>2019-02-24T14:46:25Z</time>
      </trkpt>
      <trkpt lat="46.5188420" lon="6.6357160">
        <ele>500.3</ele>
        <time>2019-02-24T14:46:26Z</time>
      </trkpt>
      <trkpt lat="46.5188520" lon="6.6356880">
        <ele>500.4</ele>
        <time>2019-02-24T14:46:27Z</time>
      </trkpt>
      <trkpt lat="46.5188630" lon="6.6356600">
        <ele>500.6</ele>
        <time>2019-02-24T14:46:28Z</time>
      </trkpt>
      <trkpt lat="46.5188740" lon="6.6356330">
        <ele>500.8</ele>
        <time>2019-02-24T14:46:29Z</time>
      </trkpt>
      <trkpt lat="46.5188850" lon="6.6356050">
        <ele>501.1</ele>
        <time>2019-02-24T14:46:30Z</time>
      </trkpt>
      <trkpt lat="46.5188960" lon="6.6355770">
        <ele>501.4</ele>
        <time>2019-02-24T14:46:31Z</time>
      </trkpt>
      <trkpt lat="46.5189070" lon="6.6355500">
        <ele>501.6</ele>
        <time>2019-02-24T14:46:32Z</time>
      </trkpt>
      <trkpt lat="46.5189190" lon="6.6355220">
        <ele>501.9</ele>
        <time>2019-02-24T14:46:33Z</time>
      </trkpt>
      <trkpt lat="46.5189300" lon="6.6354940">
        <ele>502.2</ele>
        <time>2019-02-24T14:46:34Z</time>
      </trkpt>
      <trkpt lat="46.5189420" lon="6.6354670">
        <ele>502.5</ele>
        <time>2019-02-24T14:46:35Z</time>
      </trkpt>
      <trkpt lat="46.5189540" lon="6.6354390">
        <ele>502.8</ele>
        <time>2019-02-24T14:46:36Z</time>
      </trkpt>
      <trkpt lat="46.5189650" lon="6.6354110">
        <ele>503.1</ele>
        <time>2019-02-24T14:46:37Z</time>
      </trkpt>
      <trkpt lat="46.5189770" lon="6.6353830">
        <ele>503.4</ele>
        <time>2019-02-24T14:46:38Z</time>
      </trkpt>
      <trkpt lat="46.5189890" lon="6.6353550">
        <ele>503.7</ele>
        <time>2019-02-24T14:46:39Z</time>
      </trkpt>
      <trkpt lat="46.5190010" lon="6.6353270">
        <ele>504.0</ele>
        <time>2019-02-24T14:46:40Z</time>
      </trkpt>
      <trkpt lat="46.5190130" lon="6.6352990">
        <ele>504.3</ele>
        <time>2019-02-24T14:46:41Z</time>
      </trkpt>
      <trkpt lat="46.5190250" lon="6.6352700">
        <ele>504.7</ele>
        <time>2019-02-24T14:46:42Z</time>
      </trkpt>
      <trkpt lat="46.5190360" lon="6.6352410">
        <ele>504.9</ele>
        <time>2019-02-24T14:46:43Z</time>
      </trkpt>
      <trkpt lat="46.5190480" lon="6.6352120">
        <ele>505.0</ele>
        <time>2019-02-24T14:46:44Z</time>
      </trkpt>
      <trkpt lat="46.5190600" lon="6.6351820">
        <ele>505.2</ele>
        <time>2019-02-24T14:46:45Z</time>
      </trkpt>
      <trkpt lat="46.5190720" lon="6.6351530">
        <ele>505.3</ele>
        <time>2019-02-24T14:46:46Z</time>
      </trkpt>
      <trkpt lat="46.5190830" lon="6.6351240">
        <ele>505.5</ele>
        <time>2019-02-24T14:46:47Z</time>
      </trkpt>
      <trkpt lat="46.5190940" lon="6.6350970">
        <ele>505.7</ele>
        <time>2019-02-24T14:46:48Z</time>
      </trkpt>
      <trkpt lat="46.5191040" lon="6.6350700">
        <ele>505.8</ele>
        <time>2019-02-24T14:46:49Z</time>
      </trkpt>
      <trkpt lat="46.5191140" lon="6.6350460">
        <ele>506.0</ele>
        <time>2019-02-24T14:46:50Z</time>
      </trkpt>
      <trkpt lat="46.5191220" lon="6.6350240">
        <ele>506.1</ele>
        <time>2019-02-24T14:46:51Z</time>
      </trkpt>
      <trkpt lat="46.5191300" lon="6.6350050">
        <ele>506.1</ele>
        <time>2019-02-24T14:46:52Z</time>
      </trkpt>
      <trkpt lat="46.5191360" lon="6.6349900">
        <ele>506.2</ele>
        <time>2019-02-24T14:46:53Z</time>
      </trkpt>
      <trkpt lat="46.5191410" lon="6.6349770">
        <ele>506.3</ele>
        <time>2019-02-24T14:46:54Z</time>
      </trkpt>
      <trkpt lat="46.5191450" lon="6.6349670">
        <ele>506.3</ele>
        <time>2019-02-24T14:46:55Z</time>
      </trkpt>
      <trkpt lat="46.5191480" lon="6.6349600">
        <ele>506.3</ele>
        <time>2019-02-24T14:46:56Z</time>
      </trkpt>
      <trkpt lat="46.5191490" lon="6.6349560">
        <ele>506.4</ele>
        <time>2019-02-24T14:46:57Z</time>
      </trkpt>
      <trkpt lat="46.5191500" lon="6.6349540">
        <ele>506.4</ele>
        <time>2019-02-24T14:46:58Z</time>
      </trkpt>
      <trkpt lat="46.5191500" lon="6.6349540">
        <ele>506.4</ele>
        <time>2019-02-24T14:46:59Z</time>
      </trkpt>
      <trkpt lat="46.5191500" lon="6.6349540">
        <ele>506.4</ele>
        <time>2019-02-24T14:47:00Z</time>
      </trkpt>
      <trkpt lat="46.5191500" lon="6.6349540">
        <ele>506.4</ele>
        <time>2019-02-24T14:47:01Z</time>
      </trkpt>
      <trkpt lat="46.5191500" lon="6.6349540">
        <ele>506.4</ele>
        <time>2019-02-24T14:47:02Z</time>
      </trkpt>
      <trkpt lat="46.5191500" lon="6.6349540">
        <ele>506.4</ele>
        <time>2019-02-24T14:47:03Z</time>
      </trkpt>
      <trkpt lat="46.5191500" lon="6.6349540">
        <ele>506.4</ele>
        <time>2019-02-24T14:47:04Z</time>
      </trkpt>
      <trkpt lat="46.5191500" lon="6.6349540">
        <ele>506.4</ele>
        <time>2019-02-24T14:47:05Z</time>
      </trkpt>
      <trkpt lat="46.5191500" lon="6.6349540">
        <ele>506.4</ele>
        <time>2019-02-24T14:47:06Z</time>
      </trkpt>
      <trkpt lat="46.5191500" lon="6.6349540">
        <ele>506.4</ele>
        <time>2019-02-24T14:47:07Z</time>
      </trkpt>
      <trkpt lat="46.5191500" lon="6.6349540">
        <ele>506.4</ele>
        <time>2019-02-24T14:47:08Z</time>
      </trkpt>
      <trkpt lat="46.5191500" lon="6.6349530">
        <ele>506.4</ele>
        <time>2019-02-24T14:47:09Z</time>
      </trkpt>
      <trkpt lat="46.5191500" lon="6.6349530">
        <ele>506.4</ele>
        <time>2019-02-24T14:47:10Z</time>
      </trkpt>
      <trkpt lat="46.5191500" lon="6.6349530">
        <ele>506.4</ele>
        <time>2019-02-24T14:47:11Z</time>
      </trkpt>
      <trkpt lat="46.5191500" lon="6.6349530">
        <ele>506.4</ele>
        <time>2019-02-24T14:47:12Z</time>
      </trkpt>
      <trkpt lat="46.5191500" lon="6.6349530">
        <ele>506.4</ele>
        <time>2019-02-24T14:47:13Z</time>
      </trkpt>
      <trkpt lat="46.5191500" lon="6.6349530">
        <ele>506.4</ele>
        <time>2019-02-24T14:47:14Z</time>
      </trkpt>
      <trkpt lat="46.5191500" lon="6.6349530">
        <ele>506.4</ele>
        <time>2019-02-24T14:47:15Z</time>
      </trkpt>
      <trkpt lat="46.5191500" lon="6.6349540">
        <ele>506.4</ele>
        <time>2019-02-24T14:47:16Z</time>
      </trkpt>
      <trkpt lat="46.5191500" lon="6.6349530">
        <ele>506.4</ele>
        <time>2019-02-24T14:47:17Z</time>
      </trkpt>
      <trkpt lat="46.5191510" lon="6.6349510">
        <ele>506.4</ele>
        <time>2019-02-24T14:47:18Z</time>
      </trkpt>
      <trkpt lat="46.5191550" lon="6.6349460">
        <ele>506.4</ele>
        <time>2019-02-24T14:47:19Z</time>
      </trkpt>
      <trkpt lat="46.5191610" lon="6.6349360">
        <ele>506.8</ele>
        <time>2019-02-24T14:47:20Z</time>
      </trkpt>
      <trkpt lat="46.5191690" lon="6.6349220">
        <ele>506.8</ele>
        <time>2019-02-24T14:47:21Z</time>
      </trkpt>
      <trkpt lat="46.5191790" lon="6.6349050">
        <ele>506.9</ele>
        <time>2019-02-24T14:47:22Z</time>
      </trkpt>
      <trkpt lat="46.5191900" lon="6.6348840">
        <ele>506.9</ele>
        <time>2019-02-24T14:47:23Z</time>
      </trkpt>
      <trkpt lat="46.5192020" lon="6.6348620">
        <ele>506.9</ele>
        <time>2019-02-24T14:47:24Z</time>
      </trkpt>
      <trkpt lat="46.5192170" lon="6.6348390">
        <ele>507.0</ele>
        <time>2019-02-24T14:47:25Z</time>
      </trkpt>
      <trkpt lat="46.5192350" lon="6.6348150">
        <ele>507.0</ele>
        <time>2019-02-24T14:47:26Z</time>
      </trkpt>
      <trkpt lat="46.5192540" lon="6.6347910">
        <ele>507.1</ele>
        <time>2019-02-24T14:47:27Z</time>
      </trkpt>
      <trkpt lat="46.5192750" lon="6.6347650">
        <ele>507.2</ele>
        <time>2019-02-24T14:47:28Z</time>
      </trkpt>
      <trkpt lat="46.5192970" lon="6.6347370">
        <ele>507.2</ele>
        <time>2019-02-24T14:47:29Z</time>
      </trkpt>
      <trkpt lat="46.5193190" lon="6.6347060">
        <ele>507.3</ele>
        <time>2019-02-24T14:47:30Z</time>
      </trkpt>
      <trkpt lat="46.5193400" lon="6.6346730">
        <ele>507.4</ele>
        <time>2019-02-24T14:47:31Z</time>
      </trkpt>
      <trkpt lat="46.5193720" lon="6.6346060">
        <ele>507.5</ele>
        <time>2019-02-24T14:47:32Z</time>
      </trkpt>
      <trkpt lat="46.5193830" lon="6.6345770">
        <ele>507.5</ele>
        <time>2019-02-24T14:47:33Z</time>
      </trkpt>
      <trkpt lat="46.5193950" lon="6.6345480">
        <ele>507.6</ele>
        <time>2019-02-24T14:47:34Z</time>
      </trkpt>
      <trkpt lat="46.5194090" lon="6.6344980">
        <ele>507.7</ele>
        <time>2019-02-24T14:47:35Z</time>
      </trkpt>
      <trkpt lat="46.5194210" lon="6.6344450">
        <ele>507.7</ele>
        <time>2019-02-24T14:47:36Z</time>
      </trkpt>
      <trkpt lat="46.5194360" lon="6.6343610">
        <ele>507.5</ele>
        <time>2019-02-24T14:47:37Z</time>
      </trkpt>
      <trkpt lat="46.5194400" lon="6.6343320">
        <ele>507.4</ele>
        <time>2019-02-24T14:47:38Z</time>
      </trkpt>
      <trkpt lat="46.5194470" lon="6.6342720">
        <ele>507.2</ele>
        <time>2019-02-24T14:47:39Z</time>
      </trkpt>
      <trkpt lat="46.5194530" lon="6.6342130">
        <ele>507.0</ele>
        <time>2019-02-24T14:47:40Z</time>
      </trkpt>
      <trkpt lat="46.5194580" lon="6.6341530">
        <ele>506.8</ele>
        <time>2019-02-24T14:47:41Z</time>
      </trkpt>
      <trkpt lat="46.5194640" lon="6.6340650">
        <ele>506.4</ele>
        <time>2019-02-24T14:47:42Z</time>
      </trkpt>
      <trkpt lat="46.5194660" lon="6.6340350">
        <ele>506.3</ele>
        <time>2019-02-24T14:47:43Z</time>
      </trkpt>
      <trkpt lat="46.5194700" lon="6.6339760">
        <ele>506.0</ele>
        <time>2019-02-24T14:47:44Z</time>
      </trkpt>
      <trkpt lat="46.5194740" lon="6.6339160">
        <ele>505.7</ele>
        <time>2019-02-24T14:47:45Z</time>
      </trkpt>
      <trkpt lat="46.5194780" lon="6.6338550">
        <ele>505.3</ele>
        <time>2019-02-24T14:47:46Z</time>
      </trkpt>
      <trkpt lat="46.5194830" lon="6.6337930">
        <ele>505.0</ele>
        <time>2019-02-24T14:47:47Z</time>
      </trkpt>
      <trkpt lat="46.5194890" lon="6.6337290">
        <ele>504.6</ele>
        <time>2019-02-24T14:47:48Z</time>
      </trkpt>
      <trkpt lat="46.5194970" lon="6.6336630">
        <ele>504.1</ele>
        <time>2019-02-24T14:47:49Z</time>
      </trkpt>
      <trkpt lat="46.5195060" lon="6.6335940">
        <ele>503.7</ele>
        <time>2019-02-24T14:47:50Z</time>
      </trkpt>
      <trkpt lat="46.5195160" lon="6.6335230">
        <ele>503.3</ele>
        <time>2019-02-24T14:47:51Z</time>
      </trkpt>
      <trkpt lat="46.5195310" lon="6.6334170">
        <ele>502.6</ele>
        <time>2019-02-24T14:47:52Z</time>
      </trkpt>
      <trkpt lat="46.5195350" lon="6.6333810">
        <ele>502.4</ele>
        <time>2019-02-24T14:47:53Z</time>
      </trkpt>
      <trkpt lat="46.5195440" lon="6.6333120">
        <ele>502.0</ele>
        <time>2019-02-24T14:47:54Z</time>
      </trkpt>
      <trkpt lat="46.5195520" lon="6.6332440">
        <ele>501.7</ele>
        <time>2019-02-24T14:47:55Z</time>
      </trkpt>
      <trkpt lat="46.5195590" lon="6.6331770">
        <ele>501.3</ele>
        <time>2019-02-24T14:47:56Z</time>
      </trkpt>
      <trkpt lat="46.5195680" lon="6.6331090">
        <ele>501.1</ele>
        <time>2019-02-24T14:47:57Z</time>
      </trkpt>
      <trkpt lat="46.5195780" lon="6.6330410">
        <ele>500.8</ele>
        <time>2019-02-24T14:47:58Z</time>
      </trkpt>
      <trkpt lat="46.5195890" lon="6.6329730">
        <ele>500.6</ele>
        <time>2019-02-24T14:47:59Z</time>
      </trkpt>
      <trkpt lat="46.5196020" lon="6.6329030">
        <ele>500.3</ele>
        <time>2019-02-24T14:48:00Z</time>
      </trkpt>
      <trkpt lat="46.5196150" lon="6.6328330">
        <ele>500.0</ele>
        <time>2019-02-24T14:48:01Z</time>
      </trkpt>
      <trkpt lat="46.5196300" lon="6.6327620">
        <ele>499.7</ele>
        <time>2019-02-24T14:48:02Z</time>
      </trkpt>
      <trkpt lat="46.5196460" lon="6.6326890">
        <ele>499.5</ele>
        <time>2019-02-24T14:48:03Z</time>
      </trkpt>
      <trkpt lat="46.5196630" lon="6.6326140">
        <ele>499.2</ele>
        <time>2019-02-24T14:48:04Z</time>
      </trkpt>
      <trkpt lat="46.5196820" lon="6.6325370">
        <ele>498.9</ele>
        <time>2019-02-24T14:48:05Z</time>
      </trkpt>
      <trkpt lat="46.5197010" lon="6.6324590">
        <ele>498.6</ele>
        <time>2019-02-24T14:48:06Z</time>
      </trkpt>
      <trkpt lat="46.5197220" lon="6.6323820">
        <ele>498.4</ele>
        <time>2019-02-24T14:48:07Z</time>
      </trkpt>
      <trkpt lat="46.5197460" lon="6.6323060">
        <ele>498.2</ele>
        <time>2019-02-24T14:48:08Z</time>
      </trkpt>
      <trkpt lat="46.5197720" lon="6.6322360">
        <ele>498.0</ele>
        <time>2019-02-24T14:48:09Z</time>
      </trkpt>
      <trkpt lat="46.5198020" lon="6.6321710">
        <ele>497.9</ele>
        <time>2019-02-24T14:48:10Z</time>
      </trkpt>
      <trkpt lat="46.5198340" lon="6.6321130">
        <ele>497.6</ele>
        <time>2019-02-24T14:48:11Z</time>
      </trkpt>
      <trkpt lat="46.5198680" lon="6.6320600">
        <ele>497.4</ele>
        <time>2019-02-24T14:48:12Z</time>
      </trkpt>
      <trkpt lat="46.5199050" lon="6.6320100">
        <ele>497.2</ele>
        <time>2019-02-24T14:48:13Z</time>
      </trkpt>
      <trkpt lat="46.5199420" lon="6.6319640">
        <ele>496.9</ele>
        <time>2019-02-24T14:48:14Z</time>
      </trkpt>
      <trkpt lat="46.5199800" lon="6.6319200">
        <ele>496.7</ele>
        <time>2019-02-24T14:48:15Z</time>
      </trkpt>
      <trkpt lat="46.5200190" lon="6.6318780">
        <ele>496.5</ele>
        <time>2019-02-24T14:48:16Z</time>
      </trkpt>
      <trkpt lat="46.5200590" lon="6.6318370">
        <ele>496.3</ele>
        <time>2019-02-24T14:48:17Z</time>
      </trkpt>
      <trkpt lat="46.5200980" lon="6.6317980">
        <ele>496.0</ele>
        <time>2019-02-24T14:48:18Z</time>
      </trkpt>
      <trkpt lat="46.5201380" lon="6.6317600">
        <ele>495.4</ele>
        <time>2019-02-24T14:48:19Z</time>
      </trkpt>
      <trkpt lat="46.5201780" lon="6.6317230">
        <ele>495.0</ele>
        <time>2019-02-24T14:48:20Z</time>
      </trkpt>
      <trkpt lat="46.5202180" lon="6.6316850">
        <ele>494.7</ele>
        <time>2019-02-24T14:48:21Z</time>
      </trkpt>
      <trkpt lat="46.5202570" lon="6.6316480">
        <ele>494.3</ele>
        <time>2019-02-24T14:48:22Z</time>
      </trkpt>
      <trkpt lat="46.5202970" lon="6.6316110">
        <ele>493.8</ele>
        <time>2019-02-24T14:48:23Z</time>
      </trkpt>
      <trkpt lat="46.5203360" lon="6.6315740">
        <ele>493.4</ele>
        <time>2019-02-24T14:48:24Z</time>
      </trkpt>
      <trkpt lat="46.5203750" lon="6.6315370">
        <ele>493.1</ele>
        <time>2019-02-24T14:48:25Z</time>
      </trkpt>
      <trkpt lat="46.5204130" lon="6.6314990">
        <ele>492.7</ele>
        <time>2019-02-24T14:48:26Z</time>
      </trkpt>
      <trkpt lat="46.5204510" lon="6.6314620">
        <ele>492.2</ele>
        <time>2019-02-24T14:48:27Z</time>
      </trkpt>
      <trkpt lat="46.5204890" lon="6.6314250">
        <ele>491.8</ele>
        <time>2019-02-24T14:48:28Z</time>
      </trkpt>
      <trkpt lat="46.5205270" lon="6.6313890">
        <ele>491.4</ele>
        <time>2019-02-24T14:48:29Z</time>
      </trkpt>
      <trkpt lat="46.5205650" lon="6.6313520">
        <ele>491.0</ele>
        <time>2019-02-24T14:48:30Z</time>
      </trkpt>
      <trkpt lat="46.5206020" lon="6.6313150">
        <ele>490.6</ele>
        <time>2019-02-24T14:48:31Z</time>
      </trkpt>
      <trkpt lat="46.5206390" lon="6.6312790">
        <ele>490.2</ele>
        <time>2019-02-24T14:48:32Z</time>
      </trkpt>
      <trkpt lat="46.5206750" lon="6.6312430">
        <ele>489.7</ele>
        <time>2019-02-24T14:48:33Z</time>
      </trkpt>
      <trkpt lat="46.5207360" lon="6.6311840">
        <ele>489.0</ele>
        <time>2019-02-24T14:48:34Z</time>
      </trkpt>
      <trkpt lat="46.5207590" lon="6.6311610">
        <ele>488.7</ele>
        <time>2019-02-24T14:48:35Z</time>
      </trkpt>
      <trkpt lat="46.5207830" lon="6.6311370">
        <ele>488.3</ele>
        <time>2019-02-24T14:48:36Z</time>
      </trkpt>
      <trkpt lat="46.5208190" lon="6.6311030">
        <ele>487.8</ele>
        <time>2019-02-24T14:48:37Z</time>
      </trkpt>
      <trkpt lat="46.5208540" lon="6.6310680">
        <ele>487.4</ele>
        <time>2019-02-24T14:48:38Z</time>
      </trkpt>
      <trkpt lat="46.5209080" lon="6.6310080">
        <ele>486.6</ele>
        <time>2019-02-24T14:48:39Z</time>
      </trkpt>
      <trkpt lat="46.5209270" lon="6.6309820">
        <ele>486.4</ele>
        <time>2019-02-24T14:48:40Z</time>
      </trkpt>
      <trkpt lat="46.5209470" lon="6.6309570">
        <ele>486.2</ele>
        <time>2019-02-24T14:48:41Z</time>
      </trkpt>
      <trkpt lat="46.5209700" lon="6.6309150">
        <ele>485.8</ele>
        <time>2019-02-24T14:48:42Z</time>
      </trkpt>
      <trkpt lat="46.5209910" lon="6.6308720">
        <ele>485.5</ele>
        <time>2019-02-24T14:48:43Z</time>
      </trkpt>
      <trkpt lat="46.5210100" lon="6.6308320">
        <ele>485.3</ele>
        <time>2019-02-24T14:48:44Z</time>
      </trkpt>
      <trkpt lat="46.5210300" lon="6.6307970">
        <ele>485.1</ele>
        <time>2019-02-24T14:48:45Z</time>
      </trkpt>
      <trkpt lat="46.5210510" lon="6.6307710">
        <ele>484.9</ele>
        <time>2019-02-24T14:48:46Z</time>
      </trkpt>
      <trkpt lat="46.5210720" lon="6.6307530">
        <ele>484.7</ele>
        <time>2019-02-24T14:48:47Z</time>
      </trkpt>
      <trkpt lat="46.5210900" lon="6.6307420">
        <ele>484.6</ele>
        <time>2019-02-24T14:48:48Z</time>
      </trkpt>
      <trkpt lat="46.5211040" lon="6.6307350">
        <ele>484.3</ele>
        <time>2019-02-24T14:48:49Z</time>
      </trkpt>
      <trkpt lat="46.5211120" lon="6.6307320">
        <ele>484.4</ele>
        <time>2019-02-24T14:48:50Z</time>
      </trkpt>
      <trkpt lat="46.5211140" lon="6.6307320">
        <ele>484.5</ele>
        <time>2019-02-24T14:48:51Z</time>
      </trkpt>
      <trkpt lat="46.5211140" lon="6.6307320">
        <ele>484.5</ele>
        <time>2019-02-24T14:48:52Z</time>
      </trkpt>
      <trkpt lat="46.5211130" lon="6.6307310">
        <ele>484.5</ele>
        <time>2019-02-24T14:48:53Z</time>
      </trkpt>
      <trkpt lat="46.5211140" lon="6.6307300">
        <ele>484.5</ele>
        <time>2019-02-24T14:48:54Z</time>
      </trkpt>
      <trkpt lat="46.5211190" lon="6.6307300">
        <ele>484.6</ele>
        <time>2019-02-24T14:48:55Z</time>
      </trkpt>
      <trkpt lat="46.5211320" lon="6.6307350">
        <ele>484.7</ele>
        <time>2019-02-24T14:48:56Z</time>
      </trkpt>
      <trkpt lat="46.5211480" lon="6.6307380">
        <ele>484.9</ele>
        <time>2019-02-24T14:48:57Z</time>
      </trkpt>
      <trkpt lat="46.5211670" lon="6.6307310">
        <ele>485.2</ele>
        <time>2019-02-24T14:48:58Z</time>
      </trkpt>
      <trkpt lat="46.5211860" lon="6.6307160">
        <ele>485.4</ele>
        <time>2019-02-24T14:48:59Z</time>
      </trkpt>
      <trkpt lat="46.5212060" lon="6.6306940">
        <ele>485.7</ele>
        <time>2019-02-24T14:49:00Z</time>
      </trkpt>
      <trkpt lat="46.5212290" lon="6.6306690">
        <ele>486.1</ele>
        <time>2019-02-24T14:49:01Z</time>
      </trkpt>
      <trkpt lat="46.5212530" lon="6.6306440">
        <ele>486.4</ele>
        <time>2019-02-24T14:49:02Z</time>
      </trkpt>
      <trkpt lat="46.5212800" lon="6.6306170">
        <ele>486.8</ele>
        <time>2019-02-24T14:49:03Z</time>
      </trkpt>
      <trkpt lat="46.5213080" lon="6.6305900">
        <ele>487.2</ele>
        <time>2019-02-24T14:49:04Z</time>
      </trkpt>
      <trkpt lat="46.5213370" lon="6.6305630">
        <ele>487.6</ele>
        <time>2019-02-24T14:49:05Z</time>
      </trkpt>
      <trkpt lat="46.5213680" lon="6.6305340">
        <ele>488.0</ele>
        <time>2019-02-24T14:49:06Z</time>
      </trkpt>
      <trkpt lat="46.5214000" lon="6.6305040">
        <ele>488.5</ele>
        <time>2019-02-24T14:49:07Z</time>
      </trkpt>
      <trkpt lat="46.5214540" lon="6.6304520">
        <ele>489.4</ele>
        <time>2019-02-24T14:49:08Z</time>
      </trkpt>
      <trkpt lat="46.5214760" lon="6.6304310">
        <ele>489.7</ele>
        <time>2019-02-24T14:49:09Z</time>
      </trkpt>
      <trkpt lat="46.5214980" lon="6.6304090">
        <ele>490.1</ele>
        <time>2019-02-24T14:49:10Z</time>
      </trkpt>
      <trkpt lat="46.5215310" lon="6.6303740">
        <ele>490.6</ele>
        <time>2019-02-24T14:49:11Z</time>
      </trkpt>
      <trkpt lat="46.5215630" lon="6.6303390">
        <ele>491.1</ele>
        <time>2019-02-24T14:49:12Z</time>
      </trkpt>
      <trkpt lat="46.5215960" lon="6.6303030">
        <ele>491.6</ele>
        <time>2019-02-24T14:49:13Z</time>
      </trkpt>
      <trkpt lat="46.5216290" lon="6.6302660">
        <ele>492.2</ele>
        <time>2019-02-24T14:49:14Z</time>
      </trkpt>
      <trkpt lat="46.5216620" lon="6.6302290">
        <ele>492.7</ele>
        <time>2019-02-24T14:49:15Z</time>
      </trkpt>
      <trkpt lat="46.5216940" lon="6.6301910">
        <ele>493.4</ele>
        <time>2019-02-24T14:49:16Z</time>
      </trkpt>
      <trkpt lat="46.5217260" lon="6.6301520">
        <ele>494.1</ele>
        <time>2019-02-24T14:49:17Z</time>
      </trkpt>
      <trkpt lat="46.5217580" lon="6.6301140">
        <ele>494.8</ele>
        <time>2019-02-24T14:49:18Z</time>
      </trkpt>
      <trkpt lat="46.5217900" lon="6.6300750">
        <ele>495.5</ele>
        <time>2019-02-24T14:49:19Z</time>
      </trkpt>
      <trkpt lat="46.5218210" lon="6.6300370">
        <ele>496.2</ele>
        <time>2019-02-24T14:49:20Z</time>
      </trkpt>
      <trkpt lat="46.5218520" lon="6.6299990">
        <ele>497.0</ele>
        <time>2019-02-24T14:49:21Z</time>
      </trkpt>
      <trkpt lat="46.5218830" lon="6.6299610">
        <ele>497.8</ele>
        <time>2019-02-24T14:49:22Z</time>
      </trkpt>
      <trkpt lat="46.5219130" lon="6.6299230">
        <ele>498.6</ele>
        <time>2019-02-24T14:49:23Z</time>
      </trkpt>
      <trkpt lat="46.5219420" lon="6.6298870">
        <ele>499.2</ele>
        <time>2019-02-24T14:49:24Z</time>
      </trkpt>
      <trkpt lat="46.5219710" lon="6.6298510">
        <ele>499.8</ele>
        <time>2019-02-24T14:49:25Z</time>
      </trkpt>
      <trkpt lat="46.5219990" lon="6.6298150">
        <ele>500.5</ele>
        <time>2019-02-24T14:49:26Z</time>
      </trkpt>
      <trkpt lat="46.5220270" lon="6.6297800">
        <ele>501.0</ele>
        <time>2019-02-24T14:49:27Z</time>
      </trkpt>
      <trkpt lat="46.5220530" lon="6.6297440">
        <ele>501.5</ele>
        <time>2019-02-24T14:49:28Z</time>
      </trkpt>
      <trkpt lat="46.5220790" lon="6.6297070">
        <ele>502.0</ele>
        <time>2019-02-24T14:49:29Z</time>
      </trkpt>
      <trkpt lat="46.5221040" lon="6.6296660">
        <ele>502.5</ele>
        <time>2019-02-24T14:49:30Z</time>
      </trkpt>
      <trkpt lat="46.5221420" lon="6.6295910">
        <ele>503.3</ele>
        <time>2019-02-24T14:49:31Z</time>
      </trkpt>
      <trkpt lat="46.5221560" lon="6.6295590">
        <ele>503.5</ele>
        <time>2019-02-24T14:49:32Z</time>
      </trkpt>
      <trkpt lat="46.5221710" lon="6.6295270">
        <ele>503.7</ele>
        <time>2019-02-24T14:49:33Z</time>
      </trkpt>
      <trkpt lat="46.5221920" lon="6.6294760">
        <ele>504.0</ele>
        <time>2019-02-24T14:49:34Z</time>
      </trkpt>
      <trkpt lat="46.5222140" lon="6.6294220">
        <ele>504.4</ele>
        <time>2019-02-24T14:49:35Z</time>
      </trkpt>
      <trkpt lat="46.5222350" lon="6.6293660">
        <ele>504.7</ele>
        <time>2019-02-24T14:49:36Z</time>
      </trkpt>
      <trkpt lat="46.5222560" lon="6.6293080">
        <ele>505.1</ele>
        <time>2019-02-24T14:49:37Z</time>
      </trkpt>
      <trkpt lat="46.5222780" lon="6.6292480">
        <ele>505.5</ele>
        <time>2019-02-24T14:49:38Z</time>
      </trkpt>
      <trkpt lat="46.5222990" lon="6.6291870">
        <ele>505.6</ele>
        <time>2019-02-24T14:49:39Z</time>
      </trkpt>
      <trkpt lat="46.5223190" lon="6.6291260">
        <ele>505.7</ele>
        <time>2019-02-24T14:49:40Z</time>
      </trkpt>
      <trkpt lat="46.5223400" lon="6.6290630">
        <ele>505.8</ele>
        <time>2019-02-24T14:49:41Z</time>
      </trkpt>
      <trkpt lat="46.5223610" lon="6.6289990">
        <ele>505.9</ele>
        <time>2019-02-24T14:49:42Z</time>
      </trkpt>
      <trkpt lat="46.5223810" lon="6.6289360">
        <ele>506.0</ele>
        <time>2019-02-24T14:49:43Z</time>
      </trkpt>
      <trkpt lat="46.5224010" lon="6.6288710">
        <ele>505.6</ele>
        <time>2019-02-24T14:49:44Z</time>
      </trkpt>
      <trkpt lat="46.5224210" lon="6.6288070">
        <ele>505.3</ele>
        <time>2019-02-24T14:49:45Z</time>
      </trkpt>
      <trkpt lat="46.5224420" lon="6.6287430">
        <ele>505.1</ele>
        <time>2019-02-24T14:49:46Z</time>
      </trkpt>
      <trkpt lat="46.5224620" lon="6.6286780">
        <ele>504.9</ele>
        <time>2019-02-24T14:49:47Z</time>
      </trkpt>
      <trkpt lat="46.5224830" lon="6.6286140">
        <ele>504.6</ele>
        <time>2019-02-24T14:49:48Z</time>
      </trkpt>
      <trkpt lat="46.5225040" lon="6.6285500">
        <ele>504.4</ele>
        <time>2019-02-24T14:49:49Z</time>
      </trkpt>
      <trkpt lat="46.5225260" lon="6.6284860">
        <ele>504.1</ele>
        <time>2019-02-24T14:49:50Z</time>
      </trkpt>
      <trkpt lat="46.5225480" lon="6.6284230">
        <ele>503.9</ele>
        <time>2019-02-24T14:49:51Z</time>
      </trkpt>
      <trkpt lat="46.5225710" lon="6.6283600">
        <ele>503.3</ele>
        <time>2019-02-24T14:49:52Z</time>
      </trkpt>
      <trkpt lat="46.5225940" lon="6.6282970">
        <ele>503.0</ele>
        <time>2019-02-24T14:49:53Z</time>
      </trkpt>
      <trkpt lat="46.5226170" lon="6.6282350">
        <ele>502.6</ele>
        <time>2019-02-24T14:49:54Z</time>
      </trkpt>
      <trkpt lat="46.5226410" lon="6.6281730">
        <ele>502.3</ele>
        <time>2019-02-24T14:49:55Z</time>
      </trkpt>
      <trkpt lat="46.5226640" lon="6.6281110">
        <ele>501.9</ele>
        <time>2019-02-24T14:49:56Z</time>
      </trkpt>
      <trkpt lat="46.5226880" lon="6.6280500">
        <ele>501.6</ele>
        <time>2019-02-24T14:49:57Z</time>
      </trkpt>
      <trkpt lat="46.5227110" lon="6.6279880">
        <ele>501.4</ele>
        <time>2019-02-24T14:49:58Z</time>
      </trkpt>
      <trkpt lat="46.5227350" lon="6.6279270">
        <ele>501.1</ele>
        <time>2019-02-24T14:49:59Z</time>
      </trkpt>
      <trkpt lat="46.5227580" lon="6.6278660">
        <ele>500.9</ele>
        <time>2019-02-24T14:50:00Z</time>
      </trkpt>
      <trkpt lat="46.5227800" lon="6.6278050">
        <ele>500.6</ele>
        <time>2019-02-24T14:50:01Z</time>
      </trkpt>
      <trkpt lat="46.5228030" lon="6.6277430">
        <ele>500.4</ele>
        <time>2019-02-24T14:50:02Z</time>
      </trkpt>
      <trkpt lat="46.5228250" lon="6.6276820">
        <ele>500.2</ele>
        <time>2019-02-24T14:50:03Z</time>
      </trkpt>
      <trkpt lat="46.5228460" lon="6.6276190">
        <ele>500.0</ele>
        <time>2019-02-24T14:50:04Z</time>
      </trkpt>
      <trkpt lat="46.5228680" lon="6.6275560">
        <ele>499.9</ele>
        <time>2019-02-24T14:50:05Z</time>
      </trkpt>
      <trkpt lat="46.5228880" lon="6.6274930">
        <ele>499.8</ele>
        <time>2019-02-24T14:50:06Z</time>
      </trkpt>
      <trkpt lat="46.5229090" lon="6.6274280">
        <ele>499.6</ele>
        <time>2019-02-24T14:50:07Z</time>
      </trkpt>
      <trkpt lat="46.5229290" lon="6.6273640">
        <ele>499.6</ele>
        <time>2019-02-24T14:50:08Z</time>
      </trkpt>
      <trkpt lat="46.5229490" lon="6.6272990">
        <ele>499.5</ele>
        <time>2019-02-24T14:50:09Z</time>
      </trkpt>
      <trkpt lat="46.5229700" lon="6.6272340">
        <ele>499.5</ele>
        <time>2019-02-24T14:50:10Z</time>
      </trkpt>
      <trkpt lat="46.5229910" lon="6.6271710">
        <ele>499.5</ele>
        <time>2019-02-24T14:50:11Z</time>
      </trkpt>
      <trkpt lat="46.5230140" lon="6.6271090">
        <ele>499.5</ele>
        <time>2019-02-24T14:50:12Z</time>
      </trkpt>
      <trkpt lat="46.5230370" lon="6.6270480">
        <ele>499.5</ele>
        <time>2019-02-24T14:50:13Z</time>
      </trkpt>
      <trkpt lat="46.5230630" lon="6.6269900">
        <ele>499.5</ele>
        <time>2019-02-24T14:50:14Z</time>
      </trkpt>
      <trkpt lat="46.5230900" lon="6.6269350">
        <ele>499.6</ele>
        <time>2019-02-24T14:50:15Z</time>
      </trkpt>
      <trkpt lat="46.5231190" lon="6.6268810">
        <ele>499.6</ele>
        <time>2019-02-24T14:50:16Z</time>
      </trkpt>
      <trkpt lat="46.5231490" lon="6.6268290">
        <ele>499.6</ele>
        <time>2019-02-24T14:50:17Z</time>
      </trkpt>
      <trkpt lat="46.5231800" lon="6.6267780">
        <ele>499.8</ele>
        <time>2019-02-24T14:50:18Z</time>
      </trkpt>
      <trkpt lat="46.5232110" lon="6.6267280">
        <ele>500.0</ele>
        <time>2019-02-24T14:50:19Z</time>
      </trkpt>
      <trkpt lat="46.5232410" lon="6.6266780">
        <ele>500.1</ele>
        <time>2019-02-24T14:50:20Z</time>
      </trkpt>
      <trkpt lat="46.5232710" lon="6.6266270">
        <ele>500.2</ele>
        <time>2019-02-24T14:50:21Z</time>
      </trkpt>
      <trkpt lat="46.5232990" lon="6.6265750">
        <ele>500.4</ele>
        <time>2019-02-24T14:50:22Z</time>
      </trkpt>
      <trkpt lat="46.5233260" lon="6.6265220">
        <ele>500.6</ele>
        <time>2019-02-24T14:50:23Z</time>
      </trkpt>
      <trkpt lat="46.5233510" lon="6.6264670">
        <ele>500.7</ele>
        <time>2019-02-24T14:50:24Z</time>
      </trkpt>
      <trkpt lat="46.5233740" lon="6.6264110">
        <ele>500.9</ele>
        <time>2019-02-24T14:50:25Z</time>
      </trkpt>
      <trkpt lat="46.5233960" lon="6.6263530">
        <ele>500.9</ele>
        <time>2019-02-24T14:50:26Z</time>
      </trkpt>
      <trkpt lat="46.5234160" lon="6.6262930">
        <ele>500.9</ele>
        <time>2019-02-24T14:50:27Z</time>
      </trkpt>
      <trkpt lat="46.5234350" lon="6.6262320">
        <ele>500.9</ele>
        <time>2019-02-24T14:50:28Z</time>
      </trkpt>
      <trkpt lat="46.5234530" lon="6.6261690">
        <ele>500.9</ele>
        <time>2019-02-24T14:50:29Z</time>
      </trkpt>
      <trkpt lat="46.5234690" lon="6.6261040">
        <ele>500.9</ele>
        <time>2019-02-24T14:50:30Z</time>
      </trkpt>
      <trkpt lat="46.5234840" lon="6.6260380">
        <ele>500.9</ele>
        <time>2019-02-24T14:50:31Z</time>
      </trkpt>
      <trkpt lat="46.5234980" lon="6.6259710">
        <ele>500.9</ele>
        <time>2019-02-24T14:50:32Z</time>
      </trkpt>
      <trkpt lat="46.5235100" lon="6.6259050">
        <ele>501.0</ele>
        <time>2019-02-24T14:50:33Z</time>
      </trkpt>
      <trkpt lat="46.5235220" lon="6.6258410">
        <ele>501.0</ele>
        <time>2019-02-24T14:50:34Z</time>
      </trkpt>
      <trkpt lat="46.5235320" lon="6.6257800">
        <ele>501.0</ele>
        <time>2019-02-24T14:50:35Z</time>
      </trkpt>
      <trkpt lat="46.5235410" lon="6.6257240">
        <ele>501.0</ele>
        <time>2019-02-24T14:50:36Z</time>
      </trkpt>
      <trkpt lat="46.5235500" lon="6.6256730">
        <ele>501.1</ele>
        <time>2019-02-24T14:50:37Z</time>
      </trkpt>
      <trkpt lat="46.5235570" lon="6.6256290">
        <ele>501.1</ele>
        <time>2019-02-24T14:50:38Z</time>
      </trkpt>
      <trkpt lat="46.5235630" lon="6.6255930">
        <ele>501.1</ele>
        <time>2019-02-24T14:50:39Z</time>
      </trkpt>
      <trkpt lat="46.5235690" lon="6.6255640">
        <ele>501.1</ele>
        <time>2019-02-24T14:50:40Z</time>
      </trkpt>
      <trkpt lat="46.5235730" lon="6.6255420">
        <ele>501.1</ele>
        <time>2019-02-24T14:50:41Z</time>
      </trkpt>
      <trkpt lat="46.5235770" lon="6.6255210">
        <ele>501.2</ele>
        <time>2019-02-24T14:50:42Z</time>
      </trkpt>
      <trkpt lat="46.5235780" lon="6.6255160">
        <ele>501.2</ele>
        <time>2019-02-24T14:50:43Z</time>
      </trkpt>
      <trkpt lat="46.5235790" lon="6.6255110">
        <ele>501.2</ele>
        <time>2019-02-24T14:50:44Z</time>
      </trkpt>
      <trkpt lat="46.5235800" lon="6.6255060">
        <ele>501.2</ele>
        <time>2019-02-24T14:50:45Z</time>
      </trkpt>
      <trkpt lat="46.5235810" lon="6.6255010">
        <ele>501.2</ele>
        <time>2019-02-24T14:50:46Z</time>
      </trkpt>
      <trkpt lat="46.5235820" lon="6.6254960">
        <ele>501.2</ele>
        <time>2019-02-24T14:50:47Z</time>
      </trkpt>
      <trkpt lat="46.5235830" lon="6.6254910">
        <ele>501.2</ele>
        <time>2019-02-24T14:50:48Z</time>
      </trkpt>
      <trkpt lat="46.5235840" lon="6.6254850">
        <ele>501.2</ele>
        <time>2019-02-24T14:50:49Z</time>
      </trkpt>
      <trkpt lat="46.5235850" lon="6.6254800">
        <ele>501.2</ele>
        <time>2019-02-24T14:50:50Z</time>
      </trkpt>
      <trkpt lat="46.5235860" lon="6.6254750">
        <ele>501.2</ele>
        <time>2019-02-24T14:50:51Z</time>
      </trkpt>
      <trkpt lat="46.5235870" lon="6.6254700">
        <ele>501.2</ele>
        <time>2019-02-24T14:50:52Z</time>
      </trkpt>
      <trkpt lat="46.5235880" lon="6.6254650">
        <ele>501.2</ele>
        <time>2019-02-24T14:50:53Z</time>
      </trkpt>
      <trkpt lat="46.5235890" lon="6.6254600">
        <ele>501.2</ele>
        <time>2019-02-24T14:50:54Z</time>
      </trkpt>
      <trkpt lat="46.5235900" lon="6.6254550">
        <ele>501.2</ele>
        <time>2019-02-24T14:50:55Z</time>
      </trkpt>
      <trkpt lat="46.5235940" lon="6.6254290">
        <ele>501.2</ele>
        <time>2019-02-24T14:50:56Z</time>
      </trkpt>
      <trkpt lat="46.5236000" lon="6.6253970">
        <ele>501.2</ele>
        <time>2019-02-24T14:50:57Z</time>
      </trkpt>
      <trkpt lat="46.5236060" lon="6.6253620">
        <ele>501.3</ele>
        <time>2019-02-24T14:50:58Z</time>
      </trkpt>
      <trkpt lat="46.5236150" lon="6.6253240">
        <ele>501.4</ele>
        <time>2019-02-24T14:50:59Z</time>
      </trkpt>
      <trkpt lat="46.5236240" lon="6.6252870">
        <ele>501.5</ele>
        <time>2019-02-24T14:51:00Z</time>
      </trkpt>
      <trkpt lat="46.5236320" lon="6.6252540">
        <ele>501.6</ele>
        <time>2019-02-24T14:51:01Z</time>
      </trkpt>
      <trkpt lat="46.5236400" lon="6.6252290">
        <ele>501.6</ele>
        <time>2019-02-24T14:51:02Z</time>
      </trkpt>
      <trkpt lat="46.5236450" lon="6.6252140">
        <ele>501.7</ele>
        <time>2019-02-24T14:51:03Z</time>
      </trkpt>
      <trkpt lat="46.5236480" lon="6.6252070">
        <ele>501.7</ele>
        <time>2019-02-24T14:51:04Z</time>
      </trkpt>
      <trkpt lat="46.5236500" lon="6.6252060">
        <ele>501.7</ele>
        <time>2019-02-24T14:51:05Z</time>
      </trkpt>
      <trkpt lat="46.5236510" lon="6.6252070">
        <ele>501.7</ele>
        <time>2019-02-24T14:51:06Z</time>
      </trkpt>
      <trkpt lat="46.5236510" lon="6.6252080">
        <ele>501.7</ele>
        <time>2019-02-24T14:51:07Z</time>
      </trkpt>
      <trkpt lat="46.5236520" lon="6.6252090">
        <ele>501.7</ele>
        <time>2019-02-24T14:51:08Z</time>
      </trkpt>
      <trkpt lat="46.5236520" lon="6.6252080">
        <ele>501.7</ele>
        <time>2019-02-24T14:51:09Z</time>
      </trkpt>
      <trkpt lat="46.5236520" lon="6.6252080">
        <ele>501.7</ele>
        <time>2019-02-24T14:51:10Z</time>
      </trkpt>
      <trkpt lat="46.5236520" lon="6.6252080">
        <ele>501.7</ele>
        <time>2019-02-24T14:51:11Z</time>
      </trkpt>
      <trkpt lat="46.5236520" lon="6.6252080">
        <ele>501.7</ele>
        <time>2019-02-24T14:51:12Z</time>
      </trkpt>
      <trkpt lat="46.5236520" lon="6.6252080">
        <ele>501.7</ele>
        <time>2019-02-24T14:51:13Z</time>
      </trkpt>
      <trkpt lat="46.5236520" lon="6.6252080">
        <ele>501.7</ele>
        <time>2019-02-24T14:51:14Z</time>
      </trkpt>
      <trkpt lat="46.5236520" lon="6.6252080">
        <ele>501.7</ele>
        <time>2019-02-24T14:51:15Z</time>
      </trkpt>
      <trkpt lat="46.5236520" lon="6.6252080">
        <ele>501.7</ele>
        <time>2019-02-24T14:51:16Z</time>
      </trkpt>
      <trkpt lat="46.5236520" lon="6.6252080">
        <ele>501.7</ele>
        <time>2019-02-24T14:51:17Z</time>
      </trkpt>
      <trkpt lat="46.5236520" lon="6.6252080">
        <ele>501.7</ele>
        <time>2019-02-24T14:51:18Z</time>
      </trkpt>
      <trkpt lat="46.5236520" lon="6.6252080">
        <ele>501.7</ele>
        <time>2019-02-24T14:51:19Z</time>
      </trkpt>
      <trkpt lat="46.5236520" lon="6.6252080">
        <ele>501.7</ele>
        <time>2019-02-24T14:51:20Z</time>
      </trkpt>
      <trkpt lat="46.5236520" lon="6.6252080">
        <ele>501.7</ele>
        <time>2019-02-24T14:51:21Z</time>
      </trkpt>
      <trkpt lat="46.5236520" lon="6.6252080">
        <ele>501.7</ele>
        <time>2019-02-24T14:51:22Z</time>
      </trkpt>
      <trkpt lat="46.5236520" lon="6.6252080">
        <ele>501.7</ele>
        <time>2019-02-24T14:51:23Z</time>
      </trkpt>
      <trkpt lat="46.5236520" lon="6.6252080">
        <ele>501.7</ele>
        <time>2019-02-24T14:51:24Z</time>
      </trkpt>
      <trkpt lat="46.5236520" lon="6.6252080">
        <ele>501.7</ele>
        <time>2019-02-24T14:51:25Z</time>
      </trkpt>
      <trkpt lat="46.5236520" lon="6.6252080">
        <ele>501.7</ele>
        <time>2019-02-24T14:51:26Z</time>
      </trkpt>
      <trkpt lat="46.5236520" lon="6.6252080">
        <ele>501.7</ele>
        <time>2019-02-24T14:51:27Z</time>
      </trkpt>
      <trkpt lat="46.5236520" lon="6.6252080">
        <ele>501.7</ele>
        <time>2019-02-24T14:51:28Z</time>
      </trkpt>
      <trkpt lat="46.5236520" lon="6.6252080">
        <ele>501.7</ele>
        <time>2019-02-24T14:51:29Z</time>
      </trkpt>
      <trkpt lat="46.5236520" lon="6.6252080">
        <ele>501.7</ele>
        <time>2019-02-24T14:51:30Z</time>
      </trkpt>
      <trkpt lat="46.5236520" lon="6.6252080">
        <ele>501.7</ele>
        <time>2019-02-24T14:51:31Z</time>
      </trkpt>
      <trkpt lat="46.5236520" lon="6.6252080">
        <ele>501.7</ele>
        <time>2019-02-24T14:51:32Z</time>
      </trkpt>
      <trkpt lat="46.5236520" lon="6.6252080">
        <ele>501.7</ele>
        <time>2019-02-24T14:51:33Z</time>
      </trkpt>
      <trkpt lat="46.5236520" lon="6.6252080">
        <ele>501.7</ele>
        <time>2019-02-24T14:51:34Z</time>
      </trkpt>
      <trkpt lat="46.5236520" lon="6.6252080">
        <ele>501.7</ele>
        <time>2019-02-24T14:51:35Z</time>
      </trkpt>
      <trkpt lat="46.5236520" lon="6.6252080">
        <ele>501.7</ele>
        <time>2019-02-24T14:51:36Z</time>
      </trkpt>
      <trkpt lat="46.5236520" lon="6.6252080">
        <ele>501.7</ele>
        <time>2019-02-24T14:51:37Z</time>
      </trkpt>
      <trkpt lat="46.5236520" lon="6.6252080">
        <ele>501.7</ele>
        <time>2019-02-24T14:51:38Z</time>
      </trkpt>
      <trkpt lat="46.5236520" lon="6.6252080">
        <ele>501.7</ele>
        <time>2019-02-24T14:51:39Z</time>
      </trkpt>
      <trkpt lat="46.5236520" lon="6.6252080">
        <ele>501.7</ele>
        <time>2019-02-24T14:51:40Z</time>
      </trkpt>
      <trkpt lat="46.5236520" lon="6.6252080">
        <ele>501.7</ele>
        <time>2019-02-24T14:51:41Z</time>
      </trkpt>
      <trkpt lat="46.5236520" lon="6.6252080">
        <ele>501.7</ele>
        <time>2019-02-24T14:51:42Z</time>
      </trkpt>
      <trkpt lat="46.5236520" lon="6.6252080">
        <ele>501.7</ele>
        <time>2019-02-24T14:51:43Z</time>
      </trkpt>
      <trkpt lat="46.5236520" lon="6.6252080">
        <ele>501.7</ele>
        <time>2019-02-24T14:51:44Z</time>
      </trkpt>
      <trkpt lat="46.5236520" lon="6.6252080">
        <ele>501.7</ele>
        <time>2019-02-24T14:51:45Z</time>
      </trkpt>
      <trkpt lat="46.5236520" lon="6.6252080">
        <ele>501.7</ele>
        <time>2019-02-24T14:51:46Z</time>
      </trkpt>
      <trkpt lat="46.5236520" lon="6.6252080">
        <ele>501.7</ele>
        <time>2019-02-24T14:51:47Z</time>
      </trkpt>
      <trkpt lat="46.5236520" lon="6.6252080">
        <ele>501.7</ele>
        <time>2019-02-24T14:51:48Z</time>
      </trkpt>
      <trkpt lat="46.5236520" lon="6.6252080">
        <ele>501.7</ele>
        <time>2019-02-24T14:51:49Z</time>
      </trkpt>
      <trkpt lat="46.5236520" lon="6.6252080">
        <ele>501.7</ele>
        <time>2019-02-24T14:51:50Z</time>
      </trkpt>
      <trkpt lat="46.5236520" lon="6.6252080">
        <ele>501.7</ele>
        <time>2019-02-24T14:51:51Z</time>
      </trkpt>
      <trkpt lat="46.5236520" lon="6.6252080">
        <ele>501.7</ele>
        <time>2019-02-24T14:51:52Z</time>
      </trkpt>
      <trkpt lat="46.5236520" lon="6.6252080">
        <ele>501.7</ele>
        <time>2019-02-24T14:51:53Z</time>
      </trkpt>
      <trkpt lat="46.5236520" lon="6.6252080">
        <ele>501.7</ele>
        <time>2019-02-24T14:51:54Z</time>
      </trkpt>
      <trkpt lat="46.5236520" lon="6.6252080">
        <ele>501.7</ele>
        <time>2019-02-24T14:51:55Z</time>
      </trkpt>
      <trkpt lat="46.5236520" lon="6.6252080">
        <ele>501.7</ele>
        <time>2019-02-24T14:51:56Z</time>
      </trkpt>
      <trkpt lat="46.5236520" lon="6.6252080">
        <ele>501.7</ele>
        <time>2019-02-24T14:51:57Z</time>
      </trkpt>
      <trkpt lat="46.5236520" lon="6.6252080">
        <ele>501.7</ele>
        <time>2019-02-24T14:51:58Z</time>
      </trkpt>
      <trkpt lat="46.5236520" lon="6.6252080">
        <ele>501.7</ele>
        <time>2019-02-24T14:51:59Z</time>
      </trkpt>
      <trkpt lat="46.5236520" lon="6.6252080">
        <ele>501.7</ele>
        <time>2019-02-24T14:52:00Z</time>
      </trkpt>
      <trkpt lat="46.5236520" lon="6.6252080">
        <ele>501.7</ele>
        <time>2019-02-24T14:52:01Z</time>
      </trkpt>
      <trkpt lat="46.5236520" lon="6.6252080">
        <ele>501.7</ele>
        <time>2019-02-24T14:52:02Z</time>
      </trkpt>
      <trkpt lat="46.5236520" lon="6.6252080">
        <ele>501.7</ele>
        <time>2019-02-24T14:52:03Z</time>
      </trkpt>
      <trkpt lat="46.5236520" lon="6.6252080">
        <ele>501.7</ele>
        <time>2019-02-24T14:52:04Z</time>
      </trkpt>
      <trkpt lat="46.5236520" lon="6.6252080">
        <ele>501.7</ele>
        <time>2019-02-24T14:52:05Z</time>
      </trkpt>
      <trkpt lat="46.5236520" lon="6.6252080">
        <ele>501.7</ele>
        <time>2019-02-24T14:52:06Z</time>
      </trkpt>
      <trkpt lat="46.5236520" lon="6.6252080">
        <ele>501.7</ele>
        <time>2019-02-24T14:52:07Z</time>
      </trkpt>
      <trkpt lat="46.5236520" lon="6.6252080">
        <ele>501.7</ele>
        <time>2019-02-24T14:52:08Z</time>
      </trkpt>
      <trkpt lat="46.5236520" lon="6.6252050">
        <ele>501.7</ele>
        <time>2019-02-24T14:52:09Z</time>
      </trkpt>
      <trkpt lat="46.5236530" lon="6.6251960">
        <ele>501.8</ele>
        <time>2019-02-24T14:52:10Z</time>
      </trkpt>
      <trkpt lat="46.5236560" lon="6.6251740">
        <ele>501.8</ele>
        <time>2019-02-24T14:52:11Z</time>
      </trkpt>
      <trkpt lat="46.5236620" lon="6.6251340">
        <ele>501.8</ele>
        <time>2019-02-24T14:52:12Z</time>
      </trkpt>
      <trkpt lat="46.5236690" lon="6.6250840">
        <ele>501.7</ele>
        <time>2019-02-24T14:52:13Z</time>
      </trkpt>
      <trkpt lat="46.5236760" lon="6.6250310">
        <ele>501.5</ele>
        <time>2019-02-24T14:52:14Z</time>
      </trkpt>
      <trkpt lat="46.5236810" lon="6.6249770">
        <ele>501.4</ele>
        <time>2019-02-24T14:52:15Z</time>
      </trkpt>
      <trkpt lat="46.5236870" lon="6.6248840">
        <ele>501.2</ele>
        <time>2019-02-24T14:52:16Z</time>
      </trkpt>
      <trkpt lat="46.5236890" lon="6.6248460">
        <ele>501.1</ele>
        <time>2019-02-24T14:52:17Z</time>
      </trkpt>
      <trkpt lat="46.5236910" lon="6.6248080">
        <ele>500.8</ele>
        <time>2019-02-24T14:52:18Z</time>
      </trkpt>
      <trkpt lat="46.5236940" lon="6.6247470">
        <ele>500.6</ele>
        <time>2019-02-24T14:52:19Z</time>
      </trkpt>
      <trkpt lat="46.5236960" lon="6.6246820">
        <ele>500.4</ele>
        <time>2019-02-24T14:52:20Z</time>
      </trkpt>
      <trkpt lat="46.5236970" lon="6.6246160">
        <ele>500.1</ele>
        <time>2019-02-24T14:52:21Z</time>
      </trkpt>
      <trkpt lat="46.5237000" lon="6.6245060">
        <ele>499.7</ele>
        <time>2019-02-24T14:52:22Z</time>
      </trkpt>
      <trkpt lat="46.5237000" lon="6.6244620">
        <ele>499.6</ele>
        <time>2019-02-24T14:52:23Z</time>
      </trkpt>
      <trkpt lat="46.5237010" lon="6.6244190">
        <ele>499.4</ele>
        <time>2019-02-24T14:52:24Z</time>
      </trkpt>
      <trkpt lat="46.5237010" lon="6.6243580">
        <ele>499.2</ele>
        <time>2019-02-24T14:52:25Z</time>
      </trkpt>
      <trkpt lat="46.5237010" lon="6.6242980">
        <ele>499.0</ele>
        <time>2019-02-24T14:52:26Z</time>
      </trkpt>
      <trkpt lat="46.5237020" lon="6.6242400">
        <ele>498.7</ele>
        <time>2019-02-24T14:52:27Z</time>
      </trkpt>
      <trkpt lat="46.5237030" lon="6.6241840">
        <ele>498.5</ele>
        <time>2019-02-24T14:52:28Z</time>
      </trkpt>
      <trkpt lat="46.5237040" lon="6.6241280">
        <ele>498.5</ele>
        <time>2019-02-24T14:52:29Z</time>
      </trkpt>
      <trkpt lat="46.5237060" lon="6.6240720">
        <ele>498.5</ele>
        <time>2019-02-24T14:52:30Z</time>
      </trkpt>
      <trkpt lat="46.5237080" lon="6.6240170">
        <ele>498.3</ele>
        <time>2019-02-24T14:52:31Z</time>
      </trkpt>
      <trkpt lat="46.5237120" lon="6.6239620">
        <ele>498.1</ele>
        <time>2019-02-24T14:52:32Z</time>
      </trkpt>
      <trkpt lat="46.5237160" lon="6.6239080">
        <ele>497.9</ele>
        <time>2019-02-24T14:52:33Z</time>
      </trkpt>
      <trkpt lat="46.5237200" lon="6.6238570">
        <ele>497.7</ele>
        <time>2019-02-24T14:52:34Z</time>
      </trkpt>
      <trkpt lat="46.5237250" lon="6.6238090">
        <ele>497.5</ele>
        <time>2019-02-24T14:52:35Z</time>
      </trkpt>
      <trkpt lat="46.5237290" lon="6.6237660">
        <ele>497.3</ele>
        <time>2019-02-24T14:52:36Z</time>
      </trkpt>
      <trkpt lat="46.5237330" lon="6.6237290">
        <ele>497.2</ele>
        <time>2019-02-24T14:52:37Z</time>
      </trkpt>
      <trkpt lat="46.5237360" lon="6.6237000">
        <ele>497.2</ele>
        <time>2019-02-24T14:52:38Z</time>
      </trkpt>
      <trkpt lat="46.5237400" lon="6.6236760">
        <ele>497.1</ele>
        <time>2019-02-24T14:52:39Z</time>
      </trkpt>
      <trkpt lat="46.5237400" lon="6.6236720">
        <ele>497.1</ele>
        <time>2019-02-24T14:52:40Z</time>
      </trkpt>
      <trkpt lat="46.5237410" lon="6.6236690">
        <ele>497.1</ele>
        <time>2019-02-24T14:52:41Z</time>
      </trkpt>
      <trkpt lat="46.5237410" lon="6.6236650">
        <ele>497.1</ele>
        <time>2019-02-24T14:52:42Z</time>
      </trkpt>
      <trkpt lat="46.5237420" lon="6.6236620">
        <ele>497.1</ele>
        <time>2019-02-24T14:52:43Z</time>
      </trkpt>
      <trkpt lat="46.5237420" lon="6.6236580">
        <ele>497.1</ele>
        <time>2019-02-24T14:52:44Z</time>
      </trkpt>
      <trkpt lat="46.5237430" lon="6.6236550">
        <ele>497.1</ele>
        <time>2019-02-24T14:52:45Z</time>
      </trkpt>
      <trkpt lat="46.5237440" lon="6.6236510">
        <ele>497.1</ele>
        <time>2019-02-24T14:52:46Z</time>
      </trkpt>
      <trkpt lat="46.5237440" lon="6.6236480">
        <ele>497.1</ele>
        <time>2019-02-24T14:52:47Z</time>
      </trkpt>
      <trkpt lat="46.5237450" lon="6.6236440">
        <ele>497.1</ele>
        <time>2019-02-24T14:52:48Z</time>
      </trkpt>
      <trkpt lat="46.5237450" lon="6.6236410">
        <ele>497.1</ele>
        <time>2019-02-24T14:52:49Z</time>
      </trkpt>
      <trkpt lat="46.5237460" lon="6.6236370">
        <ele>497.1</ele>
        <time>2019-02-24T14:52:50Z</time>
      </trkpt>
      <trkpt lat="46.5237460" lon="6.6236340">
        <ele>497.1</ele>
        <time>2019-02-24T14:52:51Z</time>
      </trkpt>
      <trkpt lat="46.5237470" lon="6.6236300">
        <ele>497.1</ele>
        <time>2019-02-24T14:52:52Z</time>
      </trkpt>
      <trkpt lat="46.5237500" lon="6.6236060">
        <ele>497.1</ele>
        <time>2019-02-24T14:52:53Z</time>
      </trkpt>
      <trkpt lat="46.5237550" lon="6.6235700">
        <ele>497.0</ele>
        <time>2019-02-24T14:52:54Z</time>
      </trkpt>
      <trkpt lat="46.5237600" lon="6.6235270">
        <ele>497.0</ele>
        <time>2019-02-24T14:52:55Z</time>
      </trkpt>
      <trkpt lat="46.5237640" lon="6.6234790">
        <ele>497.0</ele>
        <time>2019-02-24T14:52:56Z</time>
      </trkpt>
      <trkpt lat="46.5237710" lon="6.6233890">
        <ele>496.4</ele>
        <time>2019-02-24T14:52:57Z</time>
      </trkpt>
      <trkpt lat="46.5237730" lon="6.6233510">
        <ele>496.1</ele>
        <time>2019-02-24T14:52:58Z</time>
      </trkpt>
      <trkpt lat="46.5237760" lon="6.6233130">
        <ele>495.9</ele>
        <time>2019-02-24T14:52:59Z</time>
      </trkpt>
      <trkpt lat="46.5237800" lon="6.6232520">
        <ele>495.5</ele>
        <time>2019-02-24T14:53:00Z</time>
      </trkpt>
      <trkpt lat="46.5237830" lon="6.6231890">
        <ele>495.1</ele>
        <time>2019-02-24T14:53:01Z</time>
      </trkpt>
      <trkpt lat="46.5237900" lon="6.6230790">
        <ele>494.6</ele>
        <time>2019-02-24T14:53:02Z</time>
      </trkpt>
      <trkpt lat="46.5237930" lon="6.6230340">
        <ele>494.3</ele>
        <time>2019-02-24T14:53:03Z</time>
      </trkpt>
      <trkpt lat="46.5237960" lon="6.6229890">
        <ele>494.1</ele>
        <time>2019-02-24T14:53:04Z</time>
      </trkpt>
      <trkpt lat="46.5238010" lon="6.6229210">
        <ele>493.8</ele>
        <time>2019-02-24T14:53:05Z</time>
      </trkpt>
      <trkpt lat="46.5238070" lon="6.6228510">
        <ele>493.5</ele>
        <time>2019-02-24T14:53:06Z</time>
      </trkpt>
      <trkpt lat="46.5238150" lon="6.6227800">
        <ele>493.1</ele>
        <time>2019-02-24T14:53:07Z</time>
      </trkpt>
      <trkpt lat="46.5238230" lon="6.6227070">
        <ele>492.8</ele>
        <time>2019-02-24T14:53:08Z</time>
      </trkpt>
      <trkpt lat="46.5238330" lon="6.6226340">
        <ele>492.7</ele>
        <time>2019-02-24T14:53:09Z</time>
      </trkpt>
      <trkpt lat="46.5238450" lon="6.6225580">
        <ele>492.5</ele>
        <time>2019-02-24T14:53:10Z</time>
      </trkpt>
      <trkpt lat="46.5238590" lon="6.6224810">
        <ele>492.3</ele>
        <time>2019-02-24T14:53:11Z</time>
      </trkpt>
      <trkpt lat="46.5238750" lon="6.6224030">
        <ele>492.1</ele>
        <time>2019-02-24T14:53:12Z</time>
      </trkpt>
      <trkpt lat="46.5238930" lon="6.6223220">
        <ele>491.9</ele>
        <time>2019-02-24T14:53:13Z</time>
      </trkpt>
      <trkpt lat="46.5239130" lon="6.6222400">
        <ele>491.7</ele>
        <time>2019-02-24T14:53:14Z</time>
      </trkpt>
      <trkpt lat="46.5239350" lon="6.6221560">
        <ele>491.5</ele>
        <time>2019-02-24T14:53:15Z</time>
      </trkpt>
      <trkpt lat="46.5239580" lon="6.6220690">
        <ele>491.3</ele>
        <time>2019-02-24T14:53:16Z</time>
      </trkpt>
      <trkpt lat="46.5239940" lon="6.6219350">
        <ele>491.1</ele>
        <time>2019-02-24T14:53:17Z</time>
      </trkpt>
      <trkpt lat="46.5240060" lon="6.6218900">
        <ele>491.0</ele>
        <time>2019-02-24T14:53:18Z</time>
      </trkpt>
      <trkpt lat="46.5240320" lon="6.6217960">
        <ele>490.7</ele>
        <time>2019-02-24T14:53:19Z</time>
      </trkpt>
      <trkpt lat="46.5240580" lon="6.6217010">
        <ele>490.5</ele>
        <time>2019-02-24T14:53:20Z</time>
      </trkpt>
      <trkpt lat="46.5240830" lon="6.6216030">
        <ele>490.1</ele>
        <time>2019-02-24T14:53:21Z</time>
      </trkpt>
      <trkpt lat="46.5241180" lon="6.6214510">
        <ele>489.6</ele>
        <time>2019-02-24T14:53:22Z</time>
      </trkpt>
      <trkpt lat="46.5241280" lon="6.6214000">
        <ele>489.4</ele>
        <time>2019-02-24T14:53:23Z</time>
      </trkpt>
      <trkpt lat="46.5241470" lon="6.6212970">
        <ele>489.1</ele>
        <time>2019-02-24T14:53:24Z</time>
      </trkpt>
      <trkpt lat="46.5241640" lon="6.6211920">
        <ele>488.8</ele>
        <time>2019-02-24T14:53:25Z</time>
      </trkpt>
      <trkpt lat="46.5241820" lon="6.6210870">
        <ele>488.5</ele>
        <time>2019-02-24T14:53:26Z</time>
      </trkpt>
      <trkpt lat="46.5242020" lon="6.6209820">
        <ele>488.2</ele>
        <time>2019-02-24T14:53:27Z</time>
      </trkpt>
      <trkpt lat="46.5242270" lon="6.6208770">
        <ele>488.0</ele>
        <time>2019-02-24T14:53:28Z</time>
      </trkpt>
      <trkpt lat="46.5242550" lon="6.6207740">
        <ele>487.8</ele>
        <time>2019-02-24T14:53:29Z</time>
      </trkpt>
      <trkpt lat="46.5242870" lon="6.6206720">
        <ele>487.6</ele>
        <time>2019-02-24T14:53:30Z</time>
      </trkpt>
      <trkpt lat="46.5243230" lon="6.6205710">
        <ele>487.4</ele>
        <time>2019-02-24T14:53:31Z</time>
      </trkpt>
      <trkpt lat="46.5243610" lon="6.6204720">
        <ele>486.7</ele>
        <time>2019-02-24T14:53:32Z</time>
      </trkpt>
      <trkpt lat="46.5244020" lon="6.6203740">
        <ele>486.2</ele>
        <time>2019-02-24T14:53:33Z</time>
      </trkpt>
      <trkpt lat="46.5244450" lon="6.6202780">
        <ele>485.9</ele>
        <time>2019-02-24T14:53:34Z</time>
      </trkpt>
      <trkpt lat="46.5244880" lon="6.6201830">
        <ele>485.6</ele>
        <time>2019-02-24T14:53:35Z</time>
      </trkpt>
      <trkpt lat="46.5245330" lon="6.6200910">
        <ele>485.3</ele>
        <time>2019-02-24T14:53:36Z</time>
      </trkpt>
      <trkpt lat="46.5245790" lon="6.6199990">
        <ele>484.7</ele>
        <time>2019-02-24T14:53:37Z</time>
      </trkpt>
      <trkpt lat="46.5246250" lon="6.6199090">
        <ele>484.2</ele>
        <time>2019-02-24T14:53:38Z</time>
      </trkpt>
      <trkpt lat="46.5246710" lon="6.6198200">
        <ele>483.2</ele>
        <time>2019-02-24T14:53:39Z</time>
      </trkpt>
      <trkpt lat="46.5247160" lon="6.6197310">
        <ele>483.0</ele>
        <time>2019-02-24T14:53:40Z</time>
      </trkpt>
      <trkpt lat="46.5247600" lon="6.6196430">
        <ele>482.8</ele>
        <time>2019-02-24T14:53:41Z</time>
      </trkpt>
      <trkpt lat="46.5248040" lon="6.6195540">
        <ele>482.5</ele>
        <time>2019-02-24T14:53:42Z</time>
      </trkpt>
      <trkpt lat="46.5248460" lon="6.6194640">
        <ele>482.4</ele>
        <time>2019-02-24T14:53:43Z</time>
      </trkpt>
      <trkpt lat="46.5248860" lon="6.6193740">
        <ele>482.2</ele>
        <time>2019-02-24T14:53:44Z</time>
      </trkpt>
      <trkpt lat="46.5249250" lon="6.6192830">
        <ele>482.0</ele>
        <time>2019-02-24T14:53:45Z</time>
      </trkpt>
      <trkpt lat="46.5249640" lon="6.6191930">
        <ele>481.8</ele>
        <time>2019-02-24T14:53:46Z</time>
      </trkpt>
      <trkpt lat="46.5250040" lon="6.6191030">
        <ele>481.5</ele>
        <time>2019-02-24T14:53:47Z</time>
      </trkpt>
      <trkpt lat="46.5250450" lon="6.6190150">
        <ele>481.2</ele>
        <time>2019-02-24T14:53:48Z</time>
      </trkpt>
      <trkpt lat="46.5250890" lon="6.6189300">
        <ele>481.0</ele>
        <time>2019-02-24T14:53:49Z</time>
      </trkpt>
      <trkpt lat="46.5251340" lon="6.6188460">
        <ele>480.8</ele>
        <time>2019-02-24T14:53:50Z</time>
      </trkpt>
      <trkpt lat="46.5251790" lon="6.6187620">
        <ele>480.6</ele>
        <time>2019-02-24T14:53:51Z</time>
      </trkpt>
      <trkpt lat="46.5252240" lon="6.6186800">
        <ele>480.5</ele>
        <time>2019-02-24T14:53:52Z</time>
      </trkpt>
      <trkpt lat="46.5252670" lon="6.6185960">
        <ele>480.3</ele>
        <time>2019-02-24T14:53:53Z</time>
      </trkpt>
      <trkpt lat="46.5253090" lon="6.6185130">
        <ele>480.2</ele>
        <time>2019-02-24T14:53:54Z</time>
      </trkpt>
      <trkpt lat="46.5253510" lon="6.6184280">
        <ele>480.1</ele>
        <time>2019-02-24T14:53:55Z</time>
      </trkpt>
      <trkpt lat="46.5253950" lon="6.6183440">
        <ele>479.8</ele>
        <time>2019-02-24T14:53:56Z</time>
      </trkpt>
      <trkpt lat="46.5254410" lon="6.6182590">
        <ele>479.5</ele>
        <time>2019-02-24T14:53:57Z</time>
      </trkpt>
      <trkpt lat="46.5254880" lon="6.6181740">
        <ele>479.3</ele>
        <time>2019-02-24T14:53:58Z</time>
      </trkpt>
      <trkpt lat="46.5255350" lon="6.6180890">
        <ele>479.3</ele>
        <time>2019-02-24T14:53:59Z</time>
      </trkpt>
      <trkpt lat="46.5255830" lon="6.6180040">
        <ele>479.3</ele>
        <time>2019-02-24T14:54:00Z</time>
      </trkpt>
      <trkpt lat="46.5256290" lon="6.6179200">
        <ele>479.4</ele>
        <time>2019-02-24T14:54:01Z</time>
      </trkpt>
      <trkpt lat="46.5256730" lon="6.6178380">
        <ele>479.4</ele>
        <time>2019-02-24T14:54:02Z</time>
      </trkpt>
      <trkpt lat="46.5257150" lon="6.6177600">
        <ele>479.4</ele>
        <time>2019-02-24T14:54:03Z</time>
      </trkpt>
      <trkpt lat="46.5257540" lon="6.6176860">
        <ele>479.3</ele>
        <time>2019-02-24T14:54:04Z</time>
      </trkpt>
      <trkpt lat="46.5257900" lon="6.6176200">
        <ele>479.3</ele>
        <time>2019-02-24T14:54:05Z</time>
      </trkpt>
      <trkpt lat="46.5258220" lon="6.6175610">
        <ele>479.2</ele>
        <time>2019-02-24T14:54:06Z</time>
      </trkpt>
      <trkpt lat="46.5258500" lon="6.6175090">
        <ele>479.2</ele>
        <time>2019-02-24T14:54:07Z</time>
      </trkpt>
      <trkpt lat="46.5258720" lon="6.6174670">
        <ele>479.1</ele>
        <time>2019-02-24T14:54:08Z</time>
      </trkpt>
      <trkpt lat="46.5258900" lon="6.6174330">
        <ele>479.1</ele>
        <time>2019-02-24T14:54:09Z</time>
      </trkpt>
      <trkpt lat="46.5259020" lon="6.6174070">
        <ele>479.0</ele>
        <time>2019-02-24T14:54:10Z</time>
      </trkpt>
      <trkpt lat="46.5259140" lon="6.6173840">
        <ele>479.0</ele>
        <time>2019-02-24T14:54:11Z</time>
      </trkpt>
      <trkpt lat="46.5259160" lon="6.6173790">
        <ele>479.0</ele>
        <time>2019-02-24T14:54:12Z</time>
      </trkpt>
      <trkpt lat="46.5259200" lon="6.6173690">
        <ele>479.0</ele>
        <time>2019-02-24T14:54:13Z</time>
      </trkpt>
      <trkpt lat="46.5259220" lon="6.6173650">
        <ele>479.0</ele>
        <time>2019-02-24T14:54:14Z</time>
      </trkpt>
      <trkpt lat="46.5259220" lon="6.6173640">
        <ele>479.0</ele>
        <time>2019-02-24T14:54:15Z</time>
      </trkpt>
      <trkpt lat="46.5259220" lon="6.6173640">
        <ele>479.0</ele>
        <time>2019-02-24T14:54:16Z</time>
      </trkpt>
      <trkpt lat="46.5259220" lon="6.6173640">
        <ele>479.0</ele>
        <time>2019-02-24T14:54:17Z</time>
      </trkpt>
      <trkpt lat="46.5259220" lon="6.6173640">
        <ele>479.0</ele>
        <time>2019-02-24T14:54:18Z</time>
      </trkpt>
      <trkpt lat="46.5259220" lon="6.6173640">
        <ele>479.0</ele>
        <time>2019-02-24T14:54:19Z</time>
      </trkpt>
      <trkpt lat="46.5259220" lon="6.6173640">
        <ele>479.0</ele>
        <time>2019-02-24T14:54:20Z</time>
      </trkpt>
      <trkpt lat="46.5259220" lon="6.6173640">
        <ele>479.0</ele>
        <time>2019-02-24T14:54:21Z</time>
      </trkpt>
      <trkpt lat="46.5259220" lon="6.6173640">
        <ele>479.0</ele>
        <time>2019-02-24T14:54:22Z</time>
      </trkpt>
      <trkpt lat="46.5259220" lon="6.6173640">
        <ele>479.0</ele>
        <time>2019-02-24T14:54:23Z</time>
      </trkpt>
      <trkpt lat="46.5259220" lon="6.6173640">
        <ele>479.0</ele>
        <time>2019-02-24T14:54:24Z</time>
      </trkpt>
      <trkpt lat="46.5259220" lon="6.6173640">
        <ele>479.0</ele>
        <time>2019-02-24T14:54:25Z</time>
      </trkpt>
      <trkpt lat="46.5259220" lon="6.6173640">
        <ele>479.0</ele>
        <time>2019-02-24T14:54:26Z</time>
      </trkpt>
      <trkpt lat="46.5259220" lon="6.6173640">
        <ele>479.0</ele>
        <time>2019-02-24T14:54:27Z</time>
      </trkpt>
      <trkpt lat="46.5259220" lon="6.6173640">
        <ele>479.0</ele>
        <time>2019-02-24T14:54:28Z</time>
      </trkpt>
      <trkpt lat="46.5259220" lon="6.6173640">
        <ele>479.0</ele>
        <time>2019-02-24T14:54:29Z</time>
      </trkpt>
      <trkpt lat="46.5259220" lon="6.6173640">
        <ele>479.0</ele>
        <time>2019-02-24T14:54:30Z</time>
      </trkpt>
      <trkpt lat="46.5259220" lon="6.6173640">
        <ele>479.0</ele>
        <time>2019-02-24T14:54:31Z</time>
      </trkpt>
      <trkpt lat="46.5259220" lon="6.6173640">
        <ele>479.0</ele>
        <time>2019-02-24T14:54:32Z</time>
      </trkpt>
      <trkpt lat="46.5259220" lon="6.6173640">
        <ele>479.0</ele>
        <time>2019-02-24T14:54:33Z</time>
      </trkpt>
      <trkpt lat="46.5259220" lon="6.6173640">
        <ele>479.0</ele>
        <time>2019-02-24T14:54:34Z</time>
      </trkpt>
      <trkpt lat="46.5259220" lon="6.6173640">
        <ele>479.0</ele>
        <time>2019-02-24T14:54:35Z</time>
      </trkpt>
      <trkpt lat="46.5259220" lon="6.6173640">
        <ele>479.0</ele>
        <time>2019-02-24T14:54:36Z</time>
      </trkpt>
      <trkpt lat="46.5259220" lon="6.6173640">
        <ele>479.0</ele>
        <time>2019-02-24T14:54:37Z</time>
      </trkpt>
      <trkpt lat="46.5259220" lon="6.6173640">
        <ele>479.0</ele>
        <time>2019-02-24T14:54:38Z</time>
      </trkpt>
      <trkpt lat="46.5259220" lon="6.6173640">
        <ele>479.0</ele>
        <time>2019-02-24T14:54:39Z</time>
      </trkpt>
      <trkpt lat="46.5259220" lon="6.6173640">
        <ele>479.0</ele>
        <time>2019-02-24T14:54:40Z</time>
      </trkpt>
      <trkpt lat="46.5259220" lon="6.6173640">
        <ele>479.0</ele>
        <time>2019-02-24T14:54:41Z</time>
      </trkpt>
      <trkpt lat="46.5259220" lon="6.6173640">
        <ele>479.0</ele>
        <time>2019-02-24T14:54:42Z</time>
      </trkpt>
      <trkpt lat="46.5259220" lon="6.6173640">
        <ele>479.0</ele>
        <time>2019-02-24T14:54:43Z</time>
      </trkpt>
      <trkpt lat="46.5259220" lon="6.6173640">
        <ele>479.0</ele>
        <time>2019-02-24T14:54:44Z</time>
      </trkpt>
      <trkpt lat="46.5259220" lon="6.6173640">
        <ele>479.0</ele>
        <time>2019-02-24T14:54:45Z</time>
      </trkpt>
      <trkpt lat="46.5259220" lon="6.6173640">
        <ele>479.0</ele>
        <time>2019-02-24T14:54:46Z</time>
      </trkpt>
      <trkpt lat="46.5259220" lon="6.6173640">
        <ele>479.0</ele>
        <time>2019-02-24T14:54:47Z</time>
      </trkpt>
      <trkpt lat="46.5259220" lon="6.6173640">
        <ele>479.0</ele>
        <time>2019-02-24T14:54:48Z</time>
      </trkpt>
      <trkpt lat="46.5259220" lon="6.6173630">
        <ele>479.0</ele>
        <time>2019-02-24T14:54:49Z</time>
      </trkpt>
      <trkpt lat="46.5259230" lon="6.6173590">
        <ele>479.0</ele>
        <time>2019-02-24T14:54:50Z</time>
      </trkpt>
      <trkpt lat="46.5259280" lon="6.6173470">
        <ele>479.0</ele>
        <time>2019-02-24T14:54:51Z</time>
      </trkpt>
      <trkpt lat="46.5259390" lon="6.6173240">
        <ele>478.9</ele>
        <time>2019-02-24T14:54:52Z</time>
      </trkpt>
      <trkpt lat="46.5259570" lon="6.6172890">
        <ele>478.8</ele>
        <time>2019-02-24T14:54:53Z</time>
      </trkpt>
      <trkpt lat="46.5259790" lon="6.6172450">
        <ele>478.7</ele>
        <time>2019-02-24T14:54:54Z</time>
      </trkpt>
      <trkpt lat="46.5260030" lon="6.6171980">
        <ele>478.5</ele>
        <time>2019-02-24T14:54:55Z</time>
      </trkpt>
      <trkpt lat="46.5260270" lon="6.6171490">
        <ele>478.4</ele>
        <time>2019-02-24T14:54:56Z</time>
      </trkpt>
      <trkpt lat="46.5260510" lon="6.6170960">
        <ele>478.2</ele>
        <time>2019-02-24T14:54:57Z</time>
      </trkpt>
      <trkpt lat="46.5260750" lon="6.6170400">
        <ele>478.1</ele>
        <time>2019-02-24T14:54:58Z</time>
      </trkpt>
      <trkpt lat="46.5261150" lon="6.6169370">
        <ele>477.7</ele>
        <time>2019-02-24T14:54:59Z</time>
      </trkpt>
      <trkpt lat="46.5261300" lon="6.6168930">
        <ele>477.6</ele>
        <time>2019-02-24T14:55:00Z</time>
      </trkpt>
      <trkpt lat="46.5261460" lon="6.6168500">
        <ele>477.4</ele>
        <time>2019-02-24T14:55:01Z</time>
      </trkpt>
      <trkpt lat="46.5261680" lon="6.6167800">
        <ele>477.2</ele>
        <time>2019-02-24T14:55:02Z</time>
      </trkpt>
      <trkpt lat="46.5261880" lon="6.6167070">
        <ele>476.9</ele>
        <time>2019-02-24T14:55:03Z</time>
      </trkpt>
      <trkpt lat="46.5262190" lon="6.6165770">
        <ele>476.5</ele>
        <time>2019-02-24T14:55:04Z</time>
      </trkpt>
      <trkpt lat="46.5262310" lon="6.6165230">
        <ele>476.3</ele>
        <time>2019-02-24T14:55:05Z</time>
      </trkpt>
      <trkpt lat="46.5262420" lon="6.6164690">
        <ele>476.1</ele>
        <time>2019-02-24T14:55:06Z</time>
      </trkpt>
      <trkpt lat="46.5262550" lon="6.6163830">
        <ele>475.8</ele>
        <time>2019-02-24T14:55:07Z</time>
      </trkpt>
      <trkpt lat="46.5262670" lon="6.6162960">
        <ele>475.3</ele>
        <time>2019-02-24T14:55:08Z</time>
      </trkpt>
      <trkpt lat="46.5262750" lon="6.6162060">
        <ele>475.0</ele>
        <time>2019-02-24T14:55:09Z</time>
      </trkpt>
      <trkpt lat="46.5262820" lon="6.6161140">
        <ele>474.7</ele>
        <time>2019-02-24T14:55:10Z</time>
      </trkpt>
      <trkpt lat="46.5262860" lon="6.6160200">
        <ele>474.5</ele>
        <time>2019-02-24T14:55:11Z</time>
      </trkpt>
      <trkpt lat="46.5262900" lon="6.6159250">
        <ele>474.2</ele>
        <time>2019-02-24T14:55:12Z</time>
      </trkpt>
      <trkpt lat="46.5262930" lon="6.6158290">
        <ele>473.9</ele>
        <time>2019-02-24T14:55:13Z</time>
      </trkpt>
      <trkpt lat="46.5262950" lon="6.6157320">
        <ele>473.6</ele>
        <time>2019-02-24T14:55:14Z</time>
      </trkpt>
      <trkpt lat="46.5262980" lon="6.6156340">
        <ele>473.0</ele>
        <time>2019-02-24T14:55:15Z</time>
      </trkpt>
      <trkpt lat="46.5262990" lon="6.6155360">
        <ele>472.5</ele>
        <time>2019-02-24T14:55:16Z</time>
      </trkpt>
      <trkpt lat="46.5263010" lon="6.6154370">
        <ele>472.0</ele>
        <time>2019-02-24T14:55:17Z</time>
      </trkpt>
      <trkpt lat="46.5263020" lon="6.6153390">
        <ele>471.8</ele>
        <time>2019-02-24T14:55:18Z</time>
      </trkpt>
      <trkpt lat="46.5263040" lon="6.6152400">
        <ele>471.5</ele>
        <time>2019-02-24T14:55:19Z</time>
      </trkpt>
      <trkpt lat="46.5263050" lon="6.6151410">
        <ele>471.3</ele>
        <time>2019-02-24T14:55:20Z</time>
      </trkpt>
      <trkpt lat="46.5263070" lon="6.6150420">
        <ele>470.9</ele>
        <time>2019-02-24T14:55:21Z</time>
      </trkpt>
      <trkpt lat="46.5263080" lon="6.6149440">
        <ele>470.2</ele>
        <time>2019-02-24T14:55:22Z</time>
      </trkpt>
      <trkpt lat="46.5263100" lon="6.6148450">
        <ele>469.5</ele>
        <time>2019-02-24T14:55:23Z</time>
      </trkpt>
      <trkpt lat="46.5263120" lon="6.6147460">
        <ele>468.8</ele>
        <time>2019-02-24T14:55:24Z</time>
      </trkpt>
      <trkpt lat="46.5263140" lon="6.6146470">
        <ele>468.2</ele>
        <time>2019-02-24T14:55:25Z</time>
      </trkpt>
      <trkpt lat="46.5263160" lon="6.6145460">
        <ele>467.5</ele>
        <time>2019-02-24T14:55:26Z</time>
      </trkpt>
      <trkpt lat="46.5263180" lon="6.6144450">
        <ele>466.9</ele>
        <time>2019-02-24T14:55:27Z</time>
      </trkpt>
      <trkpt lat="46.5263210" lon="6.6143420">
        <ele>466.2</ele>
        <time>2019-02-24T14:55:28Z</time>
      </trkpt>
      <trkpt lat="46.5263250" lon="6.6142380">
        <ele>465.6</ele>
        <time>2019-02-24T14:55:29Z</time>
      </trkpt>
      <trkpt lat="46.5263280" lon="6.6141330">
        <ele>464.7</ele>
        <time>2019-02-24T14:55:30Z</time>
      </trkpt>
      <trkpt lat="46.5263320" lon="6.6140290">
        <ele>464.4</ele>
        <time>2019-02-24T14:55:31Z</time>
      </trkpt>
      <trkpt lat="46.5263350" lon="6.6139250">
        <ele>464.0</ele>
        <time>2019-02-24T14:55:32Z</time>
      </trkpt>
      <trkpt lat="46.5263380" lon="6.6138230">
        <ele>463.7</ele>
        <time>2019-02-24T14:55:33Z</time>
      </trkpt>
      <trkpt lat="46.5263400" lon="6.6137240">
        <ele>463.4</ele>
        <time>2019-02-24T14:55:34Z</time>
      </trkpt>
      <trkpt lat="46.5263420" lon="6.6136280">
        <ele>463.1</ele>
        <time>2019-02-24T14:55:35Z</time>
      </trkpt>
      <trkpt lat="46.5263430" lon="6.6135350">
        <ele>462.9</ele>
        <time>2019-02-24T14:55:36Z</time>
      </trkpt>
      <trkpt lat="46.5263430" lon="6.6134480">
        <ele>462.6</ele>
        <time>2019-02-24T14:55:37Z</time>
      </trkpt>
      <trkpt lat="46.5263420" lon="6.6133690">
        <ele>462.4</ele>
        <time>2019-02-24T14:55:38Z</time>
      </trkpt>
      <trkpt lat="46.5263400" lon="6.6133030">
        <ele>462.2</ele>
        <time>2019-02-24T14:55:39Z</time>
      </trkpt>
      <trkpt lat="46.5263380" lon="6.6132510">
        <ele>462.1</ele>
        <time>2019-02-24T14:55:40Z</time>
      </trkpt>
      <trkpt lat="46.5263350" lon="6.6132180">
        <ele>462.0</ele>
        <time>2019-02-24T14:55:41Z</time>
      </trkpt>
      <trkpt lat="46.5263330" lon="6.6131990">
        <ele>462.0</ele>
        <time>2019-02-24T14:55:42Z</time>
      </trkpt>
      <trkpt lat="46.5263300" lon="6.6131900">
        <ele>461.9</ele>
        <time>2019-02-24T14:55:43Z</time>
      </trkpt>
      <trkpt lat="46.5263280" lon="6.6131870">
        <ele>461.9</ele>
        <time>2019-02-24T14:55:44Z</time>
      </trkpt>
      <trkpt lat="46.5263270" lon="6.6131850">
        <ele>461.9</ele>
        <time>2019-02-24T14:55:45Z</time>
      </trkpt>
      <trkpt lat="46.5263270" lon="6.6131850">
        <ele>461.9</ele>
        <time>2019-02-24T14:55:46Z</time>
      </trkpt>
      <trkpt lat="46.5263260" lon="6.6131840">
        <ele>461.9</ele>
        <time>2019-02-24T14:55:47Z</time>
      </trkpt>
      <trkpt lat="46.5263260" lon="6.6131840">
        <ele>461.9</ele>
        <time>2019-02-24T14:55:48Z</time>
      </trkpt>
      <trkpt lat="46.5263260" lon="6.6131840">
        <ele>461.9</ele>
        <time>2019-02-24T14:55:49Z</time>
      </trkpt>
      <trkpt lat="46.5263260" lon="6.6131840">
        <ele>461.9</ele>
        <time>2019-02-24T14:55:50Z</time>
      </trkpt>
      <trkpt lat="46.5263260" lon="6.6131840">
        <ele>461.9</ele>
        <time>2019-02-24T14:55:51Z</time>
      </trkpt>
      <trkpt lat="46.5263260" lon="6.6131840">
        <ele>461.9</ele>
        <time>2019-02-24T14:55:52Z</time>
      </trkpt>
      <trkpt lat="46.5263260" lon="6.6131840">
        <ele>461.9</ele>
        <time>2019-02-24T14:55:53Z</time>
      </trkpt>
      <trkpt lat="46.5263260" lon="6.6131840">
        <ele>461.9</ele>
        <time>2019-02-24T14:55:54Z</time>
      </trkpt>
      <trkpt lat="46.5263260" lon="6.6131840">
        <ele>461.9</ele>
        <time>2019-02-24T14:55:55Z</time>
      </trkpt>
      <trkpt lat="46.5263260" lon="6.6131840">
        <ele>461.9</ele>
        <time>2019-02-24T14:55:56Z</time>
      </trkpt>
      <trkpt lat="46.5263260" lon="6.6131840">
        <ele>461.9</ele>
        <time>2019-02-24T14:55:57Z</time>
      </trkpt>
      <trkpt lat="46.5263270" lon="6.6131840">
        <ele>461.9</ele>
        <time>2019-02-24T14:55:58Z</time>
      </trkpt>
      <trkpt lat="46.5263270" lon="6.6131840">
        <ele>461.9</ele>
        <time>2019-02-24T14:55:59Z</time>
      </trkpt>
      <trkpt lat="46.5263270" lon="6.6131840">
        <ele>461.9</ele>
        <time>2019-02-24T14:56:00Z</time>
      </trkpt>
      <trkpt lat="46.5263270" lon="6.6131840">
        <ele>461.9</ele>
        <time>2019-02-24T14:56:01Z</time>
      </trkpt>
      <trkpt lat="46.5263270" lon="6.6131840">
        <ele>461.9</ele>
        <time>2019-02-24T14:56:02Z</time>
      </trkpt>
      <trkpt lat="46.5263270" lon="6.6131840">
        <ele>461.9</ele>
        <time>2019-02-24T14:56:03Z</time>
      </trkpt>
      <trkpt lat="46.5263270" lon="6.6131840">
        <ele>461.9</ele>
        <time>2019-02-24T14:56:04Z</time>
      </trkpt>
      <trkpt lat="46.5263270" lon="6.6131840">
        <ele>461.9</ele>
        <time>2019-02-24T14:56:05Z</time>
      </trkpt>
      <trkpt lat="46.5263270" lon="6.6131840">
        <ele>461.9</ele>
        <time>2019-02-24T14:56:06Z</time>
      </trkpt>
      <trkpt lat="46.5263270" lon="6.6131840">
        <ele>461.9</ele>
        <time>2019-02-24T14:56:07Z</time>
      </trkpt>
      <trkpt lat="46.5263270" lon="6.6131840">
        <ele>461.9</ele>
        <time>2019-02-24T14:56:08Z</time>
      </trkpt>
      <trkpt lat="46.5263270" lon="6.6131840">
        <ele>461.9</ele>
        <time>2019-02-24T14:56:09Z</time>
      </trkpt>
      <trkpt lat="46.5263270" lon="6.6131840">
        <ele>461.9</ele>
        <time>2019-02-24T14:56:10Z</time>
      </trkpt>
      <trkpt lat="46.5263270" lon="6.6131840">
        <ele>461.9</ele>
        <time>2019-02-24T14:56:11Z</time>
      </trkpt>
      <trkpt lat="46.5263270" lon="6.6131840">
        <ele>461.9</ele>
        <time>2019-02-24T14:56:12Z</time>
      </trkpt>
      <trkpt lat="46.5263270" lon="6.6131840">
        <ele>461.9</ele>
        <time>2019-02-24T14:56:13Z</time>
      </trkpt>
      <trkpt lat="46.5263270" lon="6.6131840">
        <ele>461.9</ele>
        <time>2019-02-24T14:56:14Z</time>
      </trkpt>
      <trkpt lat="46.5263280" lon="6.6131860">
        <ele>461.9</ele>
        <time>2019-02-24T14:56:15Z</time>
      </trkpt>
      <trkpt lat="46.5263310" lon="6.6131850">
        <ele>461.9</ele>
        <time>2019-02-24T14:56:16Z</time>
      </trkpt>
      <trkpt lat="46.5263360" lon="6.6131580">
        <ele>461.8</ele>
        <time>2019-02-24T14:56:17Z</time>
      </trkpt>
      <trkpt lat="46.5263420" lon="6.6131170">
        <ele>461.7</ele>
        <time>2019-02-24T14:56:18Z</time>
      </trkpt>
      <trkpt lat="46.5263470" lon="6.6130660">
        <ele>461.6</ele>
        <time>2019-02-24T14:56:19Z</time>
      </trkpt>
      <trkpt lat="46.5263520" lon="6.6130080">
        <ele>461.5</ele>
        <time>2019-02-24T14:56:20Z</time>
      </trkpt>
      <trkpt lat="46.5263570" lon="6.6129440">
        <ele>461.5</ele>
        <time>2019-02-24T14:56:21Z</time>
      </trkpt>
      <trkpt lat="46.5263610" lon="6.6128760">
        <ele>461.4</ele>
        <time>2019-02-24T14:56:22Z</time>
      </trkpt>
      <trkpt lat="46.5263650" lon="6.6128030">
        <ele>461.3</ele>
        <time>2019-02-24T14:56:23Z</time>
      </trkpt>
      <trkpt lat="46.5263690" lon="6.6127280">
        <ele>461.2</ele>
        <time>2019-02-24T14:56:24Z</time>
      </trkpt>
      <trkpt lat="46.5263740" lon="6.6126490">
        <ele>461.1</ele>
        <time>2019-02-24T14:56:25Z</time>
      </trkpt>
      <trkpt lat="46.5263780" lon="6.6125680">
        <ele>461.1</ele>
        <time>2019-02-24T14:56:26Z</time>
      </trkpt>
      <trkpt lat="46.5263810" lon="6.6124860">
        <ele>461.0</ele>
        <time>2019-02-24T14:56:27Z</time>
      </trkpt>
      <trkpt lat="46.5263840" lon="6.6123440">
        <ele>460.6</ele>
        <time>2019-02-24T14:56:28Z</time>
      </trkpt>
      <trkpt lat="46.5263850" lon="6.6122860">
        <ele>460.5</ele>
        <time>2019-02-24T14:56:29Z</time>
      </trkpt>
      <trkpt lat="46.5263850" lon="6.6122290">
        <ele>460.4</ele>
        <time>2019-02-24T14:56:30Z</time>
      </trkpt>
      <trkpt lat="46.5263820" lon="6.6121400">
        <ele>460.4</ele>
        <time>2019-02-24T14:56:31Z</time>
      </trkpt>
      <trkpt lat="46.5263770" lon="6.6120520">
        <ele>460.3</ele>
        <time>2019-02-24T14:56:32Z</time>
      </trkpt>
      <trkpt lat="46.5263680" lon="6.6119620">
        <ele>460.3</ele>
        <time>2019-02-24T14:56:33Z</time>
      </trkpt>
      <trkpt lat="46.5263570" lon="6.6118720">
        <ele>460.2</ele>
        <time>2019-02-24T14:56:34Z</time>
      </trkpt>
      <trkpt lat="46.5263440" lon="6.6117820">
        <ele>460.3</ele>
        <time>2019-02-24T14:56:35Z</time>
      </trkpt>
      <trkpt lat="46.5263320" lon="6.6116900">
        <ele>460.3</ele>
        <time>2019-02-24T14:56:36Z</time>
      </trkpt>
      <trkpt lat="46.5263230" lon="6.6115960">
        <ele>460.3</ele>
        <time>2019-02-24T14:56:37Z</time>
      </trkpt>
      <trkpt lat="46.5263200" lon="6.6115000">
        <ele>460.4</ele>
        <time>2019-02-24T14:56:38Z</time>
      </trkpt>
      <trkpt lat="46.5263210" lon="6.6114020">
        <ele>460.3</ele>
        <time>2019-02-24T14:56:39Z</time>
      </trkpt>
      <trkpt lat="46.5263260" lon="6.6113020">
        <ele>460.1</ele>
        <time>2019-02-24T14:56:40Z</time>
      </trkpt>
      <trkpt lat="46.5263310" lon="6.6112030">
        <ele>459.8</ele>
        <time>2019-02-24T14:56:41Z</time>
      </trkpt>
      <trkpt lat="46.5263370" lon="6.6111020">
        <ele>459.6</ele>
        <time>2019-02-24T14:56:42Z</time>
      </trkpt>
      <trkpt lat="46.5263430" lon="6.6110020">
        <ele>459.4</ele>
        <time>2019-02-24T14:56:43Z</time>
      </trkpt>
      <trkpt lat="46.5263480" lon="6.6109010">
        <ele>459.2</ele>
        <time>2019-02-24T14:56:44Z</time>
      </trkpt>
      <trkpt lat="46.5263530" lon="6.6107980">
        <ele>459.1</ele>
        <time>2019-02-24T14:56:45Z</time>
      </trkpt>
      <trkpt lat="46.5263570" lon="6.6106940">
        <ele>458.9</ele>
        <time>2019-02-24T14:56:46Z</time>
      </trkpt>
      <trkpt lat="46.5263600" lon="6.6105900">
        <ele>458.8</ele>
        <time>2019-02-24T14:56:47Z</time>
      </trkpt>
      <trkpt lat="46.5263630" lon="6.6104870">
        <ele>458.6</ele>
        <time>2019-02-24T14:56:48Z</time>
      </trkpt>
      <trkpt lat="46.5263670" lon="6.6103850">
        <ele>458.4</ele>
        <time>2019-02-24T14:56:49Z</time>
      </trkpt>
      <trkpt lat="46.5263720" lon="6.6102860">
        <ele>458.1</ele>
        <time>2019-02-24T14:56:50Z</time>
      </trkpt>
      <trkpt lat="46.5263770" lon="6.6101890">
        <ele>457.8</ele>
        <time>2019-02-24T14:56:51Z</time>
      </trkpt>
      <trkpt lat="46.5263840" lon="6.6100930">
        <ele>457.5</ele>
        <time>2019-02-24T14:56:52Z</time>
      </trkpt>
      <trkpt lat="46.5263900" lon="6.6099970">
        <ele>457.1</ele>
        <time>2019-02-24T14:56:53Z</time>
      </trkpt>
      <trkpt lat="46.5263970" lon="6.6099010">
        <ele>456.7</ele>
        <time>2019-02-24T14:56:54Z</time>
      </trkpt>
      <trkpt lat="46.5264040" lon="6.6098080">
        <ele>456.3</ele>
        <time>2019-02-24T14:56:55Z</time>
      </trkpt>
      <trkpt lat="46.5264110" lon="6.6097180">
        <ele>456.0</ele>
        <time>2019-02-24T14:56:56Z</time>
      </trkpt>
      <trkpt lat="46.5264170" lon="6.6096340">
        <ele>455.6</ele>
        <time>2019-02-24T14:56:57Z</time>
      </trkpt>
      <trkpt lat="46.5264230" lon="6.6095570">
        <ele>455.2</ele>
        <time>2019-02-24T14:56:58Z</time>
      </trkpt>
      <trkpt lat="46.5264280" lon="6.6094880">
        <ele>454.8</ele>
        <time>2019-02-24T14:56:59Z</time>
      </trkpt>
      <trkpt lat="46.5264330" lon="6.6094250">
        <ele>454.4</ele>
        <time>2019-02-24T14:57:00Z</time>
      </trkpt>
      <trkpt lat="46.5264370" lon="6.6093670">
        <ele>454.1</ele>
        <time>2019-02-24T14:57:01Z</time>
      </trkpt>
      <trkpt lat="46.5264410" lon="6.6093120">
        <ele>453.9</ele>
        <time>2019-02-24T14:57:02Z</time>
      </trkpt>
      <trkpt lat="46.5264450" lon="6.6092620">
        <ele>453.7</ele>
        <time>2019-02-24T14:57:03Z</time>
      </trkpt>
      <trkpt lat="46.5264480" lon="6.6092120">
        <ele>453.5</ele>
        <time>2019-02-24T14:57:04Z</time>
      </trkpt>
      <trkpt lat="46.5264520" lon="6.6091650">
        <ele>453.3</ele>
        <time>2019-02-24T14:57:05Z</time>
      </trkpt>
      <trkpt lat="46.5264550" lon="6.6091190">
        <ele>453.1</ele>
        <time>2019-02-24T14:57:06Z</time>
      </trkpt>
      <trkpt lat="46.5264590" lon="6.6090720">
        <ele>452.9</ele>
        <time>2019-02-24T14:57:07Z</time>
      </trkpt>
      <trkpt lat="46.5264640" lon="6.6090220">
        <ele>452.7</ele>
        <time>2019-02-24T14:57:08Z</time>
      </trkpt>
      <trkpt lat="46.5264690" lon="6.6089640">
        <ele>452.5</ele>
        <time>2019-02-24T14:57:09Z</time>
      </trkpt>
      <trkpt lat="46.5264740" lon="6.6088980">
        <ele>452.3</ele>
        <time>2019-02-24T14:57:10Z</time>
      </trkpt>
      <trkpt lat="46.5264810" lon="6.6088260">
        <ele>452.0</ele>
        <time>2019-02-24T14:57:11Z</time>
      </trkpt>
      <trkpt lat="46.5264900" lon="6.6087480">
        <ele>451.7</ele>
        <time>2019-02-24T14:57:12Z</time>
      </trkpt>
      <trkpt lat="46.5265090" lon="6.6086140">
        <ele>451.3</ele>
        <time>2019-02-24T14:57:13Z</time>
      </trkpt>
      <trkpt lat="46.5265180" lon="6.6085600">
        <ele>451.2</ele>
        <time>2019-02-24T14:57:14Z</time>
      </trkpt>
      <trkpt lat="46.5265270" lon="6.6085060">
        <ele>451.1</ele>
        <time>2019-02-24T14:57:15Z</time>
      </trkpt>
      <trkpt lat="46.5265440" lon="6.6084240">
        <ele>450.9</ele>
        <time>2019-02-24T14:57:16Z</time>
      </trkpt>
      <trkpt lat="46.5265620" lon="6.6083420">
        <ele>450.5</ele>
        <time>2019-02-24T14:57:17Z</time>
      </trkpt>
      <trkpt lat="46.5265830" lon="6.6082600">
        <ele>450.3</ele>
        <time>2019-02-24T14:57:18Z</time>
      </trkpt>
      <trkpt lat="46.5266050" lon="6.6081770">
        <ele>450.1</ele>
        <time>2019-02-24T14:57:19Z</time>
      </trkpt>
      <trkpt lat="46.5266290" lon="6.6080930">
        <ele>450.0</ele>
        <time>2019-02-24T14:57:20Z</time>
      </trkpt>
      <trkpt lat="46.5266550" lon="6.6080090">
        <ele>449.8</ele>
        <time>2019-02-24T14:57:21Z</time>
      </trkpt>
      <trkpt lat="46.5266820" lon="6.6079240">
        <ele>449.6</ele>
        <time>2019-02-24T14:57:22Z</time>
      </trkpt>
      <trkpt lat="46.5267100" lon="6.6078390">
        <ele>449.4</ele>
        <time>2019-02-24T14:57:23Z</time>
      </trkpt>
      <trkpt lat="46.5267400" lon="6.6077530">
        <ele>449.1</ele>
        <time>2019-02-24T14:57:24Z</time>
      </trkpt>
      <trkpt lat="46.5267710" lon="6.6076660">
        <ele>448.9</ele>
        <time>2019-02-24T14:57:25Z</time>
      </trkpt>
      <trkpt lat="46.5268030" lon="6.6075790">
        <ele>448.6</ele>
        <time>2019-02-24T14:57:26Z</time>
      </trkpt>
      <trkpt lat="46.5268360" lon="6.6074900">
        <ele>448.3</ele>
        <time>2019-02-24T14:57:27Z</time>
      </trkpt>
      <trkpt lat="46.5268700" lon="6.6074010">
        <ele>448.1</ele>
        <time>2019-02-24T14:57:28Z</time>
      </trkpt>
      <trkpt lat="46.5269040" lon="6.6073110">
        <ele>448.0</ele>
        <time>2019-02-24T14:57:29Z</time>
      </trkpt>
      <trkpt lat="46.5269400" lon="6.6072210">
        <ele>447.9</ele>
        <time>2019-02-24T14:57:30Z</time>
      </trkpt>
      <trkpt lat="46.5269760" lon="6.6071290">
        <ele>447.7</ele>
        <time>2019-02-24T14:57:31Z</time>
      </trkpt>
      <trkpt lat="46.5270120" lon="6.6070370">
        <ele>447.5</ele>
        <time>2019-02-24T14:57:32Z</time>
      </trkpt>
      <trkpt lat="46.5270490" lon="6.6069440">
        <ele>447.3</ele>
        <time>2019-02-24T14:57:33Z</time>
      </trkpt>
      <trkpt lat="46.5270860" lon="6.6068520">
        <ele>447.2</ele>
        <time>2019-02-24T14:57:34Z</time>
      </trkpt>
      <trkpt lat="46.5271230" lon="6.6067580">
        <ele>446.8</ele>
        <time>2019-02-24T14:57:35Z</time>
      </trkpt>
      <trkpt lat="46.5271600" lon="6.6066650">
        <ele>446.3</ele>
        <time>2019-02-24T14:57:36Z</time>
      </trkpt>
      <trkpt lat="46.5271960" lon="6.6065720">
        <ele>445.9</ele>
        <time>2019-02-24T14:57:37Z</time>
      </trkpt>
      <trkpt lat="46.5272330" lon="6.6064790">
        <ele>445.4</ele>
        <time>2019-02-24T14:57:38Z</time>
      </trkpt>
      <trkpt lat="46.5272680" lon="6.6063870">
        <ele>445.0</ele>
        <time>2019-02-24T14:57:39Z</time>
      </trkpt>
      <trkpt lat="46.5273040" lon="6.6062950">
        <ele>444.5</ele>
        <time>2019-02-24T14:57:40Z</time>
      </trkpt>
      <trkpt lat="46.5273390" lon="6.6062030">
        <ele>444.2</ele>
        <time>2019-02-24T14:57:41Z</time>
      </trkpt>
      <trkpt lat="46.5273750" lon="6.6061120">
        <ele>443.9</ele>
        <time>2019-02-24T14:57:42Z</time>
      </trkpt>
      <trkpt lat="46.5274110" lon="6.6060210">
        <ele>443.6</ele>
        <time>2019-02-24T14:57:43Z</time>
      </trkpt>
      <trkpt lat="46.5274470" lon="6.6059310">
        <ele>443.3</ele>
        <time>2019-02-24T14:57:44Z</time>
      </trkpt>
      <trkpt lat="46.5274830" lon="6.6058400">
        <ele>442.9</ele>
        <time>2019-02-24T14:57:45Z</time>
      </trkpt>
      <trkpt lat="46.5275200" lon="6.6057480">
        <ele>442.2</ele>
        <time>2019-02-24T14:57:46Z</time>
      </trkpt>
      <trkpt lat="46.5275580" lon="6.6056570">
        <ele>441.3</ele>
        <time>2019-02-24T14:57:47Z</time>
      </trkpt>
      <trkpt lat="46.5275960" lon="6.6055660">
        <ele>440.6</ele>
        <time>2019-02-24T14:57:48Z</time>
      </trkpt>
      <trkpt lat="46.5276340" lon="6.6054750">
        <ele>440.0</ele>
        <time>2019-02-24T14:57:49Z</time>
      </trkpt>
      <trkpt lat="46.5276720" lon="6.6053850">
        <ele>439.5</ele>
        <time>2019-02-24T14:57:50Z</time>
      </trkpt>
      <trkpt lat="46.5277100" lon="6.6052970">
        <ele>439.1</ele>
        <time>2019-02-24T14:57:51Z</time>
      </trkpt>
      <trkpt lat="46.5277470" lon="6.6052090">
        <ele>438.7</ele>
        <time>2019-02-24T14:57:52Z</time>
      </trkpt>
      <trkpt lat="46.5277830" lon="6.6051240">
        <ele>438.3</ele>
        <time>2019-02-24T14:57:53Z</time>
      </trkpt>
      <trkpt lat="46.5278190" lon="6.6050410">
        <ele>438.0</ele>
        <time>2019-02-24T14:57:54Z</time>
      </trkpt>
      <trkpt lat="46.5278540" lon="6.6049590">
        <ele>437.7</ele>
        <time>2019-02-24T14:57:55Z</time>
      </trkpt>
      <trkpt lat="46.5278880" lon="6.6048760">
        <ele>437.4</ele>
        <time>2019-02-24T14:57:56Z</time>
      </trkpt>
      <trkpt lat="46.5279230" lon="6.6047920">
        <ele>437.1</ele>
        <time>2019-02-24T14:57:57Z</time>
      </trkpt>
      <trkpt lat="46.5279590" lon="6.6047060">
        <ele>436.7</ele>
        <time>2019-02-24T14:57:58Z</time>
      </trkpt>
      <trkpt lat="46.5279950" lon="6.6046180">
        <ele>436.3</ele>
        <time>2019-02-24T14:57:59Z</time>
      </trkpt>
      <trkpt lat="46.5280310" lon="6.6045300">
        <ele>435.7</ele>
        <time>2019-02-24T14:58:00Z</time>
      </trkpt>
      <trkpt lat="46.5280670" lon="6.6044410">
        <ele>435.1</ele>
        <time>2019-02-24T14:58:01Z</time>
      </trkpt>
      <trkpt lat="46.5281030" lon="6.6043520">
        <ele>434.4</ele>
        <time>2019-02-24T14:58:02Z</time>
      </trkpt>
      <trkpt lat="46.5281390" lon="6.6042650">
        <ele>433.9</ele>
        <time>2019-02-24T14:58:03Z</time>
      </trkpt>
      <trkpt lat="46.5281740" lon="6.6041780">
        <ele>433.6</ele>
        <time>2019-02-24T14:58:04Z</time>
      </trkpt>
      <trkpt lat="46.5282090" lon="6.6040920">
        <ele>433.4</ele>
        <time>2019-02-24T14:58:05Z</time>
      </trkpt>
      <trkpt lat="46.5282440" lon="6.6040060">
        <ele>433.0</ele>
        <time>2019-02-24T14:58:06Z</time>
      </trkpt>
      <trkpt lat="46.5282780" lon="6.6039210">
        <ele>432.8</ele>
        <time>2019-02-24T14:58:07Z</time>
      </trkpt>
      <trkpt lat="46.5283120" lon="6.6038370">
        <ele>432.4</ele>
        <time>2019-02-24T14:58:08Z</time>
      </trkpt>
      <trkpt lat="46.5283450" lon="6.6037540">
        <ele>432.3</ele>
        <time>2019-02-24T14:58:09Z</time>
      </trkpt>
      <trkpt lat="46.5283770" lon="6.6036710">
        <ele>432.4</ele>
        <time>2019-02-24T14:58:10Z</time>
      </trkpt>
      <trkpt lat="46.5284090" lon="6.6035890">
        <ele>432.4</ele>
        <time>2019-02-24T14:58:11Z</time>
      </trkpt>
      <trkpt lat="46.5284410" lon="6.6035080">
        <ele>432.4</ele>
        <time>2019-02-24T14:58:12Z</time>
      </trkpt>
      <trkpt lat="46.5284720" lon="6.6034280">
        <ele>432.5</ele>
        <time>2019-02-24T14:58:13Z</time>
      </trkpt>
      <trkpt lat="46.5285030" lon="6.6033480">
        <ele>432.5</ele>
        <time>2019-02-24T14:58:14Z</time>
      </trkpt>
      <trkpt lat="46.5285330" lon="6.6032690">
        <ele>432.5</ele>
        <time>2019-02-24T14:58:15Z</time>
      </trkpt>
      <trkpt lat="46.5285640" lon="6.6031910">
        <ele>432.6</ele>
        <time>2019-02-24T14:58:16Z</time>
      </trkpt>
      <trkpt lat="46.5285940" lon="6.6031130">
        <ele>432.7</ele>
        <time>2019-02-24T14:58:17Z</time>
      </trkpt>
      <trkpt lat="46.5286230" lon="6.6030360">
        <ele>432.8</ele>
        <time>2019-02-24T14:58:18Z</time>
      </trkpt>
      <trkpt lat="46.5286530" lon="6.6029600">
        <ele>433.0</ele>
        <time>2019-02-24T14:58:19Z</time>
      </trkpt>
      <trkpt lat="46.5286820" lon="6.6028840">
        <ele>433.3</ele>
        <time>2019-02-24T14:58:20Z</time>
      </trkpt>
      <trkpt lat="46.5287110" lon="6.6028090">
        <ele>433.5</ele>
        <time>2019-02-24T14:58:21Z</time>
      </trkpt>
      <trkpt lat="46.5287400" lon="6.6027350">
        <ele>433.8</ele>
        <time>2019-02-24T14:58:22Z</time>
      </trkpt>
      <trkpt lat="46.5287670" lon="6.6026630">
        <ele>434.0</ele>
        <time>2019-02-24T14:58:23Z</time>
      </trkpt>
      <trkpt lat="46.5287950" lon="6.6025910">
        <ele>434.3</ele>
        <time>2019-02-24T14:58:24Z</time>
      </trkpt>
      <trkpt lat="46.5288210" lon="6.6025210">
        <ele>434.8</ele>
        <time>2019-02-24T14:58:25Z</time>
      </trkpt>
      <trkpt lat="46.5288460" lon="6.6024520">
        <ele>435.0</ele>
        <time>2019-02-24T14:58:26Z</time>
      </trkpt>
      <trkpt lat="46.5288710" lon="6.6023850">
        <ele>435.1</ele>
        <time>2019-02-24T14:58:27Z</time>
      </trkpt>
      <trkpt lat="46.5288940" lon="6.6023190">
        <ele>435.3</ele>
        <time>2019-02-24T14:58:28Z</time>
      </trkpt>
      <trkpt lat="46.5289170" lon="6.6022540">
        <ele>435.5</ele>
        <time>2019-02-24T14:58:29Z</time>
      </trkpt>
      <trkpt lat="46.5289380" lon="6.6021900">
        <ele>435.7</ele>
        <time>2019-02-24T14:58:30Z</time>
      </trkpt>
      <trkpt lat="46.5289580" lon="6.6021270">
        <ele>435.9</ele>
        <time>2019-02-24T14:58:31Z</time>
      </trkpt>
      <trkpt lat="46.5289780" lon="6.6020640">
        <ele>435.9</ele>
        <time>2019-02-24T14:58:32Z</time>
      </trkpt>
      <trkpt lat="46.5289960" lon="6.6020010">
        <ele>436.0</ele>
        <time>2019-02-24T14:58:33Z</time>
      </trkpt>
      <trkpt lat="46.5290130" lon="6.6019370">
        <ele>436.1</ele>
        <time>2019-02-24T14:58:34Z</time>
      </trkpt>
      <trkpt lat="46.5290300" lon="6.6018740">
        <ele>436.2</ele>
        <time>2019-02-24T14:58:35Z</time>
      </trkpt>
      <trkpt lat="46.5290450" lon="6.6018100">
        <ele>436.3</ele>
        <time>2019-02-24T14:58:36Z</time>
      </trkpt>
      <trkpt lat="46.5290610" lon="6.6017470">
        <ele>436.4</ele>
        <time>2019-02-24T14:58:37Z</time>
      </trkpt>
      <trkpt lat="46.5290750" lon="6.6016840">
        <ele>436.5</ele>
        <time>2019-02-24T14:58:38Z</time>
      </trkpt>
      <trkpt lat="46.5290900" lon="6.6016220">
        <ele>436.6</ele>
        <time>2019-02-24T14:58:39Z</time>
      </trkpt>
      <trkpt lat="46.5291050" lon="6.6015620">
        <ele>436.7</ele>
        <time>2019-02-24T14:58:40Z</time>
      </trkpt>
      <trkpt lat="46.5291200" lon="6.6015030">
        <ele>436.8</ele>
        <time>2019-02-24T14:58:41Z</time>
      </trkpt>
      <trkpt lat="46.5291350" lon="6.6014450">
        <ele>436.9</ele>
        <time>2019-02-24T14:58:42Z</time>
      </trkpt>
      <trkpt lat="46.5291520" lon="6.6013900">
        <ele>437.1</ele>
        <time>2019-02-24T14:58:43Z</time>
      </trkpt>
      <trkpt lat="46.5291680" lon="6.6013370">
        <ele>437.2</ele>
        <time>2019-02-24T14:58:44Z</time>
      </trkpt>
      <trkpt lat="46.5291860" lon="6.6012850">
        <ele>437.2</ele>
        <time>2019-02-24T14:58:45Z</time>
      </trkpt>
      <trkpt lat="46.5292030" lon="6.6012340">
        <ele>437.3</ele>
        <time>2019-02-24T14:58:46Z</time>
      </trkpt>
      <trkpt lat="46.5292210" lon="6.6011840">
        <ele>437.3</ele>
        <time>2019-02-24T14:58:47Z</time>
      </trkpt>
      <trkpt lat="46.5292390" lon="6.6011340">
        <ele>437.4</ele>
        <time>2019-02-24T14:58:48Z</time>
      </trkpt>
      <trkpt lat="46.5292570" lon="6.6010850">
        <ele>437.4</ele>
        <time>2019-02-24T14:58:49Z</time>
      </trkpt>
      <trkpt lat="46.5292750" lon="6.6010340">
        <ele>437.5</ele>
        <time>2019-02-24T14:58:50Z</time>
      </trkpt>
      <trkpt lat="46.5292920" lon="6.6009830">
        <ele>437.5</ele>
        <time>2019-02-24T14:58:51Z</time>
      </trkpt>
      <trkpt lat="46.5293090" lon="6.6009310">
        <ele>437.6</ele>
        <time>2019-02-24T14:58:52Z</time>
      </trkpt>
      <trkpt lat="46.5293260" lon="6.6008790">
        <ele>437.6</ele>
        <time>2019-02-24T14:58:53Z</time>
      </trkpt>
      <trkpt lat="46.5293440" lon="6.6008270">
        <ele>437.7</ele>
        <time>2019-02-24T14:58:54Z</time>
      </trkpt>
      <trkpt lat="46.5293610" lon="6.6007740">
        <ele>437.7</ele>
        <time>2019-02-24T14:58:55Z</time>
      </trkpt>
      <trkpt lat="46.5293790" lon="6.6007220">
        <ele>437.8</ele>
        <time>2019-02-24T14:58:56Z</time>
      </trkpt>
      <trkpt lat="46.5293980" lon="6.6006690">
        <ele>437.8</ele>
        <time>2019-02-24T14:58:57Z</time>
      </trkpt>
      <trkpt lat="46.5294180" lon="6.6006180">
        <ele>437.9</ele>
        <time>2019-02-24T14:58:58Z</time>
      </trkpt>
      <trkpt lat="46.5294380" lon="6.6005670">
        <ele>438.0</ele>
        <time>2019-02-24T14:58:59Z</time>
      </trkpt>
      <trkpt lat="46.5294580" lon="6.6005160">
        <ele>438.1</ele>
        <time>2019-02-24T14:59:00Z</time>
      </trkpt>
      <trkpt lat="46.5294790" lon="6.6004660">
        <ele>438.3</ele>
        <time>2019-02-24T14:59:01Z</time>
      </trkpt>
      <trkpt lat="46.5294990" lon="6.6004160">
        <ele>438.4</ele>
        <time>2019-02-24T14:59:02Z</time>
      </trkpt>
      <trkpt lat="46.5295170" lon="6.6003670">
        <ele>438.6</ele>
        <time>2019-02-24T14:59:03Z</time>
      </trkpt>
      <trkpt lat="46.5295350" lon="6.6003180">
        <ele>438.7</ele>
        <time>2019-02-24T14:59:04Z</time>
      </trkpt>
      <trkpt lat="46.5295520" lon="6.6002680">
        <ele>438.6</ele>
        <time>2019-02-24T14:59:05Z</time>
      </trkpt>
      <trkpt lat="46.5295690" lon="6.6002190">
        <ele>438.4</ele>
        <time>2019-02-24T14:59:06Z</time>
      </trkpt>
      <trkpt lat="46.5295850" lon="6.6001690">
        <ele>438.3</ele>
        <time>2019-02-24T14:59:07Z</time>
      </trkpt>
      <trkpt lat="46.5296020" lon="6.6001190">
        <ele>438.2</ele>
        <time>2019-02-24T14:59:08Z</time>
      </trkpt>
      <trkpt lat="46.5296180" lon="6.6000690">
        <ele>438.1</ele>
        <time>2019-02-24T14:59:09Z</time>
      </trkpt>
      <trkpt lat="46.5296350" lon="6.6000180">
        <ele>437.9</ele>
        <time>2019-02-24T14:59:10Z</time>
      </trkpt>
      <trkpt lat="46.5296510" lon="6.5999680">
        <ele>437.9</ele>
        <time>2019-02-24T14:59:11Z</time>
      </trkpt>
      <trkpt lat="46.5296680" lon="6.5999170">
        <ele>437.8</ele>
        <time>2019-02-24T14:59:12Z</time>
      </trkpt>
      <trkpt lat="46.5296840" lon="6.5998670">
        <ele>437.7</ele>
        <time>2019-02-24T14:59:13Z</time>
      </trkpt>
      <trkpt lat="46.5297000" lon="6.5998160">
        <ele>437.6</ele>
        <time>2019-02-24T14:59:14Z</time>
      </trkpt>
      <trkpt lat="46.5297160" lon="6.5997650">
        <ele>437.6</ele>
        <time>2019-02-24T14:59:15Z</time>
      </trkpt>
      <trkpt lat="46.5297320" lon="6.5997130">
        <ele>437.5</ele>
        <time>2019-02-24T14:59:16Z</time>
      </trkpt>
      <trkpt lat="46.5297480" lon="6.5996620">
        <ele>437.5</ele>
        <time>2019-02-24T14:59:17Z</time>
      </trkpt>
      <trkpt lat="46.5297640" lon="6.5996110">
        <ele>437.4</ele>
        <time>2019-02-24T14:59:18Z</time>
      </trkpt>
      <trkpt lat="46.5297800" lon="6.5995600">
        <ele>437.4</ele>
        <time>2019-02-24T14:59:19Z</time>
      </trkpt>
      <trkpt lat="46.5297960" lon="6.5995080">
        <ele>437.4</ele>
        <time>2019-02-24T14:59:20Z</time>
      </trkpt>
      <trkpt lat="46.5298120" lon="6.5994570">
        <ele>437.3</ele>
        <time>2019-02-24T14:59:21Z</time>
      </trkpt>
      <trkpt lat="46.5298280" lon="6.5994060">
        <ele>437.3</ele>
        <time>2019-02-24T14:59:22Z</time>
      </trkpt>
      <trkpt lat="46.5298430" lon="6.5993540">
        <ele>437.3</ele>
        <time>2019-02-24T14:59:23Z</time>
      </trkpt>
      <trkpt lat="46.5298590" lon="6.5993010">
        <ele>437.3</ele>
        <time>2019-02-24T14:59:24Z</time>
      </trkpt>
      <trkpt lat="46.5298750" lon="6.5992460">
        <ele>437.3</ele>
        <time>2019-02-24T14:59:25Z</time>
      </trkpt>
      <trkpt lat="46.5298920" lon="6.5991860">
        <ele>437.3</ele>
        <time>2019-02-24T14:59:26Z</time>
      </trkpt>
      <trkpt lat="46.5299110" lon="6.5991220">
        <ele>437.2</ele>
        <time>2019-02-24T14:59:27Z</time>
      </trkpt>
      <trkpt lat="46.5299300" lon="6.5990530">
        <ele>437.2</ele>
        <time>2019-02-24T14:59:28Z</time>
      </trkpt>
      <trkpt lat="46.5299490" lon="6.5989810">
        <ele>437.2</ele>
        <time>2019-02-24T14:59:29Z</time>
      </trkpt>
      <trkpt lat="46.5299700" lon="6.5989060">
        <ele>437.2</ele>
        <time>2019-02-24T14:59:30Z</time>
      </trkpt>
      <trkpt lat="46.5299910" lon="6.5988310">
        <ele>437.2</ele>
        <time>2019-02-24T14:59:31Z</time>
      </trkpt>
      <trkpt lat="46.5300130" lon="6.5987550">
        <ele>437.5</ele>
        <time>2019-02-24T14:59:32Z</time>
      </trkpt>
      <trkpt lat="46.5300470" lon="6.5986300">
        <ele>438.2</ele>
        <time>2019-02-24T14:59:33Z</time>
      </trkpt>
      <trkpt lat="46.5300600" lon="6.5985810">
        <ele>438.4</ele>
        <time>2019-02-24T14:59:34Z</time>
      </trkpt>
      <trkpt lat="46.5300730" lon="6.5985320">
        <ele>438.6</ele>
        <time>2019-02-24T14:59:35Z</time>
      </trkpt>
      <trkpt lat="46.5300910" lon="6.5984600">
        <ele>438.8</ele>
        <time>2019-02-24T14:59:36Z</time>
      </trkpt>
      <trkpt lat="46.5301090" lon="6.5983890">
        <ele>438.9</ele>
        <time>2019-02-24T14:59:37Z</time>
      </trkpt>
      <trkpt lat="46.5301260" lon="6.5983180">
        <ele>439.0</ele>
        <time>2019-02-24T14:59:38Z</time>
      </trkpt>
      <trkpt lat="46.5301440" lon="6.5982460">
        <ele>439.0</ele>
        <time>2019-02-24T14:59:39Z</time>
      </trkpt>
      <trkpt lat="46.5301620" lon="6.5981730">
        <ele>439.1</ele>
        <time>2019-02-24T14:59:40Z</time>
      </trkpt>
      <trkpt lat="46.5301800" lon="6.5980990">
        <ele>439.1</ele>
        <time>2019-02-24T14:59:41Z</time>
      </trkpt>
      <trkpt lat="46.5301990" lon="6.5980240">
        <ele>439.1</ele>
        <time>2019-02-24T14:59:42Z</time>
      </trkpt>
      <trkpt lat="46.5302180" lon="6.5979490">
        <ele>439.1</ele>
        <time>2019-02-24T14:59:43Z</time>
      </trkpt>
      <trkpt lat="46.5302370" lon="6.5978740">
        <ele>439.1</ele>
        <time>2019-02-24T14:59:44Z</time>
      </trkpt>
      <trkpt lat="46.5302580" lon="6.5977980">
        <ele>439.1</ele>
        <time>2019-02-24T14:59:45Z</time>
      </trkpt>
      <trkpt lat="46.5302790" lon="6.5977220">
        <ele>439.0</ele>
        <time>2019-02-24T14:59:46Z</time>
      </trkpt>
      <trkpt lat="46.5303000" lon="6.5976460">
        <ele>439.0</ele>
        <time>2019-02-24T14:59:47Z</time>
      </trkpt>
      <trkpt lat="46.5303230" lon="6.5975700">
        <ele>439.0</ele>
        <time>2019-02-24T14:59:48Z</time>
      </trkpt>
      <trkpt lat="46.5303450" lon="6.5974940">
        <ele>439.0</ele>
        <time>2019-02-24T14:59:49Z</time>
      </trkpt>
      <trkpt lat="46.5303690" lon="6.5974180">
        <ele>439.0</ele>
        <time>2019-02-24T14:59:50Z</time>
      </trkpt>
      <trkpt lat="46.5303920" lon="6.5973410">
        <ele>439.0</ele>
        <time>2019-02-24T14:59:51Z</time>
      </trkpt>
      <trkpt lat="46.5304160" lon="6.5972640">
        <ele>439.0</ele>
        <time>2019-02-24T14:59:52Z</time>
      </trkpt>
      <trkpt lat="46.5304400" lon="6.5971870">
        <ele>439.0</ele>
        <time>2019-02-24T14:59:53Z</time>
      </trkpt>
      <trkpt lat="46.5304640" lon="6.5971100">
        <ele>439.0</ele>
        <time>2019-02-24T14:59:54Z</time>
      </trkpt>
      <trkpt lat="46.5304880" lon="6.5970310">
        <ele>439.0</ele>
        <time>2019-02-24T14:59:55Z</time>
      </trkpt>
      <trkpt lat="46.5305120" lon="6.5969530">
        <ele>439.0</ele>
        <time>2019-02-24T14:59:56Z</time>
      </trkpt>
      <trkpt lat="46.5305370" lon="6.5968730">
        <ele>438.6</ele>
        <time>2019-02-24T14:59:57Z</time>
      </trkpt>
      <trkpt lat="46.5305610" lon="6.5967930">
        <ele>438.5</ele>
        <time>2019-02-24T14:59:58Z</time>
      </trkpt>
      <trkpt lat="46.5305860" lon="6.5967120">
        <ele>438.5</ele>
        <time>2019-02-24T14:59:59Z</time>
      </trkpt>
      <trkpt lat="46.5306110" lon="6.5966310">
        <ele>437.9</ele>
        <time>2019-02-24T15:00:00Z</time>
      </trkpt>
      <trkpt lat="46.5306360" lon="6.5965480">
        <ele>437.9</ele>
        <time>2019-02-24T15:00:01Z</time>
      </trkpt>
      <trkpt lat="46.5306620" lon="6.5964640">
        <ele>437.8</ele>
        <time>2019-02-24T15:00:02Z</time>
      </trkpt>
      <trkpt lat="46.5306890" lon="6.5963790">
        <ele>437.8</ele>
        <time>2019-02-24T15:00:03Z</time>
      </trkpt>
      <trkpt lat="46.5307160" lon="6.5962940">
        <ele>437.9</ele>
        <time>2019-02-24T15:00:04Z</time>
      </trkpt>
      <trkpt lat="46.5307440" lon="6.5962070">
        <ele>437.5</ele>
        <time>2019-02-24T15:00:05Z</time>
      </trkpt>
      <trkpt lat="46.5307730" lon="6.5961200">
        <ele>437.0</ele>
        <time>2019-02-24T15:00:06Z</time>
      </trkpt>
      <trkpt lat="46.5308020" lon="6.5960330">
        <ele>436.4</ele>
        <time>2019-02-24T15:00:07Z</time>
      </trkpt>
      <trkpt lat="46.5308320" lon="6.5959470">
        <ele>435.8</ele>
        <time>2019-02-24T15:00:08Z</time>
      </trkpt>
      <trkpt lat="46.5308620" lon="6.5958600">
        <ele>436.0</ele>
        <time>2019-02-24T15:00:09Z</time>
      </trkpt>
      <trkpt lat="46.5308940" lon="6.5957740">
        <ele>436.1</ele>
        <time>2019-02-24T15:00:10Z</time>
      </trkpt>
      <trkpt lat="46.5309260" lon="6.5956880">
        <ele>436.4</ele>
        <time>2019-02-24T15:00:11Z</time>
      </trkpt>
      <trkpt lat="46.5309580" lon="6.5956030">
        <ele>436.1</ele>
        <time>2019-02-24T15:00:12Z</time>
      </trkpt>
      <trkpt lat="46.5309910" lon="6.5955190">
        <ele>435.7</ele>
        <time>2019-02-24T15:00:13Z</time>
      </trkpt>
      <trkpt lat="46.5310230" lon="6.5954340">
        <ele>435.5</ele>
        <time>2019-02-24T15:00:14Z</time>
      </trkpt>
      <trkpt lat="46.5310550" lon="6.5953490">
        <ele>435.3</ele>
        <time>2019-02-24T15:00:15Z</time>
      </trkpt>
      <trkpt lat="46.5310860" lon="6.5952630">
        <ele>435.0</ele>
        <time>2019-02-24T15:00:16Z</time>
      </trkpt>
      <trkpt lat="46.5311170" lon="6.5951770">
        <ele>434.7</ele>
        <time>2019-02-24T15:00:17Z</time>
      </trkpt>
      <trkpt lat="46.5311470" lon="6.5950900">
        <ele>434.3</ele>
        <time>2019-02-24T15:00:18Z</time>
      </trkpt>
      <trkpt lat="46.5311780" lon="6.5950040">
        <ele>433.9</ele>
        <time>2019-02-24T15:00:19Z</time>
      </trkpt>
      <trkpt lat="46.5312090" lon="6.5949170">
        <ele>433.4</ele>
        <time>2019-02-24T15:00:20Z</time>
      </trkpt>
      <trkpt lat="46.5312410" lon="6.5948300">
        <ele>433.1</ele>
        <time>2019-02-24T15:00:21Z</time>
      </trkpt>
      <trkpt lat="46.5312740" lon="6.5947440">
        <ele>432.7</ele>
        <time>2019-02-24T15:00:22Z</time>
      </trkpt>
      <trkpt lat="46.5313070" lon="6.5946570">
        <ele>432.4</ele>
        <time>2019-02-24T15:00:23Z</time>
      </trkpt>
      <trkpt lat="46.5313420" lon="6.5945720">
        <ele>432.2</ele>
        <time>2019-02-24T15:00:24Z</time>
      </trkpt>
      <trkpt lat="46.5313780" lon="6.5944870">
        <ele>432.0</ele>
        <time>2019-02-24T15:00:25Z</time>
      </trkpt>
      <trkpt lat="46.5314140" lon="6.5944030">
        <ele>431.8</ele>
        <time>2019-02-24T15:00:26Z</time>
      </trkpt>
      <trkpt lat="46.5314510" lon="6.5943210">
        <ele>431.6</ele>
        <time>2019-02-24T15:00:27Z</time>
      </trkpt>
      <trkpt lat="46.5314880" lon="6.5942410">
        <ele>431.4</ele>
        <time>2019-02-24T15:00:28Z</time>
      </trkpt>
      <trkpt lat="46.5315250" lon="6.5941630">
        <ele>431.2</ele>
        <time>2019-02-24T15:00:29Z</time>
      </trkpt>
      <trkpt lat="46.5315620" lon="6.5940870">
        <ele>431.1</ele>
        <time>2019-02-24T15:00:30Z</time>
      </trkpt>
      <trkpt lat="46.5316000" lon="6.5940130">
        <ele>430.9</ele>
        <time>2019-02-24T15:00:31Z</time>
      </trkpt>
      <trkpt lat="46.5316380" lon="6.5939400">
        <ele>430.7</ele>
        <time>2019-02-24T15:00:32Z</time>
      </trkpt>
      <trkpt lat="46.5316770" lon="6.5938690">
        <ele>430.5</ele>
        <time>2019-02-24T15:00:33Z</time>
      </trkpt>
      <trkpt lat="46.5317150" lon="6.5938000">
        <ele>430.3</ele>
        <time>2019-02-24T15:00:34Z</time>
      </trkpt>
      <trkpt lat="46.5317540" lon="6.5937320">
        <ele>430.1</ele>
        <time>2019-02-24T15:00:35Z</time>
      </trkpt>
      <trkpt lat="46.5317940" lon="6.5936640">
        <ele>429.8</ele>
        <time>2019-02-24T15:00:36Z</time>
      </trkpt>
      <trkpt lat="46.5318340" lon="6.5935990">
        <ele>429.6</ele>
        <time>2019-02-24T15:00:37Z</time>
      </trkpt>
      <trkpt lat="46.5318740" lon="6.5935340">
        <ele>429.4</ele>
        <time>2019-02-24T15:00:38Z</time>
      </trkpt>
      <trkpt lat="46.5319140" lon="6.5934690">
        <ele>429.3</ele>
        <time>2019-02-24T15:00:39Z</time>
      </trkpt>
      <trkpt lat="46.5319560" lon="6.5934060">
        <ele>429.1</ele>
        <time>2019-02-24T15:00:40Z</time>
      </trkpt>
      <trkpt lat="46.5319970" lon="6.5933430">
        <ele>428.9</ele>
        <time>2019-02-24T15:00:41Z</time>
      </trkpt>
      <trkpt lat="46.5320390" lon="6.5932810">
        <ele>428.7</ele>
        <time>2019-02-24T15:00:42Z</time>
      </trkpt>
      <trkpt lat="46.5320820" lon="6.5932190">
        <ele>428.5</ele>
        <time>2019-02-24T15:00:43Z</time>
      </trkpt>
      <trkpt lat="46.5321250" lon="6.5931570">
        <ele>428.2</ele>
        <time>2019-02-24T15:00:44Z</time>
      </trkpt>
      <trkpt lat="46.5321680" lon="6.5930950">
        <ele>427.9</ele>
        <time>2019-02-24T15:00:45Z</time>
      </trkpt>
      <trkpt lat="46.5322120" lon="6.5930330">
        <ele>427.7</ele>
        <time>2019-02-24T15:00:46Z</time>
      </trkpt>
      <trkpt lat="46.5322550" lon="6.5929720">
        <ele>427.6</ele>
        <time>2019-02-24T15:00:47Z</time>
      </trkpt>
      <trkpt lat="46.5322990" lon="6.5929100">
        <ele>427.5</ele>
        <time>2019-02-24T15:00:48Z</time>
      </trkpt>
      <trkpt lat="46.5323430" lon="6.5928480">
        <ele>427.4</ele>
        <time>2019-02-24T15:00:49Z</time>
      </trkpt>
      <trkpt lat="46.5323860" lon="6.5927860">
        <ele>427.3</ele>
        <time>2019-02-24T15:00:50Z</time>
      </trkpt>
      <trkpt lat="46.5324280" lon="6.5927230">
        <ele>427.2</ele>
        <time>2019-02-24T15:00:51Z</time>
      </trkpt>
      <trkpt lat="46.5324700" lon="6.5926600">
        <ele>427.1</ele>
        <time>2019-02-24T15:00:52Z</time>
      </trkpt>
      <trkpt lat="46.5325120" lon="6.5925960">
        <ele>427.0</ele>
        <time>2019-02-24T15:00:53Z</time>
      </trkpt>
      <trkpt lat="46.5325530" lon="6.5925320">
        <ele>426.8</ele>
        <time>2019-02-24T15:00:54Z</time>
      </trkpt>
      <trkpt lat="46.5325940" lon="6.5924670">
        <ele>426.7</ele>
        <time>2019-02-24T15:00:55Z</time>
      </trkpt>
      <trkpt lat="46.5326360" lon="6.5924030">
        <ele>426.5</ele>
        <time>2019-02-24T15:00:56Z</time>
      </trkpt>
      <trkpt lat="46.5326770" lon="6.5923370">
        <ele>426.4</ele>
        <time>2019-02-24T15:00:57Z</time>
      </trkpt>
      <trkpt lat="46.5327190" lon="6.5922720">
        <ele>426.2</ele>
        <time>2019-02-24T15:00:58Z</time>
      </trkpt>
      <trkpt lat="46.5327620" lon="6.5922060">
        <ele>426.0</ele>
        <time>2019-02-24T15:00:59Z</time>
      </trkpt>
      <trkpt lat="46.5328060" lon="6.5921400">
        <ele>425.9</ele>
        <time>2019-02-24T15:01:00Z</time>
      </trkpt>
      <trkpt lat="46.5328500" lon="6.5920740">
        <ele>425.7</ele>
        <time>2019-02-24T15:01:01Z</time>
      </trkpt>
      <trkpt lat="46.5328940" lon="6.5920090">
        <ele>425.6</ele>
        <time>2019-02-24T15:01:02Z</time>
      </trkpt>
      <trkpt lat="46.5329390" lon="6.5919430">
        <ele>425.4</ele>
        <time>2019-02-24T15:01:03Z</time>
      </trkpt>
      <trkpt lat="46.5329840" lon="6.5918780">
        <ele>425.3</ele>
        <time>2019-02-24T15:01:04Z</time>
      </trkpt>
      <trkpt lat="46.5330290" lon="6.5918130">
        <ele>425.1</ele>
        <time>2019-02-24T15:01:05Z</time>
      </trkpt>
      <trkpt lat="46.5330730" lon="6.5917490">
        <ele>424.9</ele>
        <time>2019-02-24T15:01:06Z</time>
      </trkpt>
      <trkpt lat="46.5331160" lon="6.5916870">
        <ele>424.7</ele>
        <time>2019-02-24T15:01:07Z</time>
      </trkpt>
      <trkpt lat="46.5331590" lon="6.5916250">
        <ele>424.5</ele>
        <time>2019-02-24T15:01:08Z</time>
      </trkpt>
      <trkpt lat="46.5332000" lon="6.5915660">
        <ele>424.4</ele>
        <time>2019-02-24T15:01:09Z</time>
      </trkpt>
      <trkpt lat="46.5332390" lon="6.5915100">
        <ele>424.3</ele>
        <time>2019-02-24T15:01:10Z</time>
      </trkpt>
      <trkpt lat="46.5332740" lon="6.5914580">
        <ele>424.1</ele>
        <time>2019-02-24T15:01:11Z</time>
      </trkpt>
      <trkpt lat="46.5333060" lon="6.5914130">
        <ele>424.0</ele>
        <time>2019-02-24T15:01:12Z</time>
      </trkpt>
      <trkpt lat="46.5333330" lon="6.5913740">
        <ele>423.9</ele>
        <time>2019-02-24T15:01:13Z</time>
      </trkpt>
      <trkpt lat="46.5333550" lon="6.5913430">
        <ele>423.8</ele>
        <time>2019-02-24T15:01:14Z</time>
      </trkpt>
      <trkpt lat="46.5333700" lon="6.5913210">
        <ele>423.7</ele>
        <time>2019-02-24T15:01:15Z</time>
      </trkpt>
      <trkpt lat="46.5333800" lon="6.5913070">
        <ele>423.7</ele>
        <time>2019-02-24T15:01:16Z</time>
      </trkpt>
      <trkpt lat="46.5333800" lon="6.5913060">
        <ele>423.7</ele>
        <time>2019-02-24T15:01:17Z</time>
      </trkpt>
      <trkpt lat="46.5333810" lon="6.5913050">
        <ele>423.7</ele>
        <time>2019-02-24T15:01:18Z</time>
      </trkpt>
      <trkpt lat="46.5333800" lon="6.5913060">
        <ele>423.7</ele>
        <time>2019-02-24T15:01:19Z</time>
      </trkpt>
      <trkpt lat="46.5333790" lon="6.5913080">
        <ele>423.6</ele>
        <time>2019-02-24T15:01:20Z</time>
      </trkpt>
      <trkpt lat="46.5333780" lon="6.5913080">
        <ele>423.6</ele>
        <time>2019-02-24T15:01:21Z</time>
      </trkpt>
      <trkpt lat="46.5333800" lon="6.5913040">
        <ele>423.6</ele>
        <time>2019-02-24T15:01:22Z</time>
      </trkpt>
      <trkpt lat="46.5333860" lon="6.5912960">
        <ele>423.6</ele>
        <time>2019-02-24T15:01:23Z</time>
      </trkpt>
      <trkpt lat="46.5333970" lon="6.5912810">
        <ele>423.6</ele>
        <time>2019-02-24T15:01:24Z</time>
      </trkpt>
      <trkpt lat="46.5334120" lon="6.5912600">
        <ele>423.5</ele>
        <time>2019-02-24T15:01:25Z</time>
      </trkpt>
      <trkpt lat="46.5334310" lon="6.5912340">
        <ele>423.4</ele>
        <time>2019-02-24T15:01:26Z</time>
      </trkpt>
      <trkpt lat="46.5334520" lon="6.5912010">
        <ele>423.2</ele>
        <time>2019-02-24T15:01:27Z</time>
      </trkpt>
      <trkpt lat="46.5334760" lon="6.5911640">
        <ele>423.0</ele>
        <time>2019-02-24T15:01:28Z</time>
      </trkpt>
      <trkpt lat="46.5335010" lon="6.5911220">
        <ele>422.9</ele>
        <time>2019-02-24T15:01:29Z</time>
      </trkpt>
      <trkpt lat="46.5335290" lon="6.5910760">
        <ele>422.9</ele>
        <time>2019-02-24T15:01:30Z</time>
      </trkpt>
      <trkpt lat="46.5335590" lon="6.5910280">
        <ele>422.9</ele>
        <time>2019-02-24T15:01:31Z</time>
      </trkpt>
      <trkpt lat="46.5335910" lon="6.5909790">
        <ele>422.9</ele>
        <time>2019-02-24T15:01:32Z</time>
      </trkpt>
      <trkpt lat="46.5336490" lon="6.5908910">
        <ele>422.8</ele>
        <time>2019-02-24T15:01:33Z</time>
      </trkpt>
      <trkpt lat="46.5336740" lon="6.5908550">
        <ele>422.7</ele>
        <time>2019-02-24T15:01:34Z</time>
      </trkpt>
      <trkpt lat="46.5336980" lon="6.5908190">
        <ele>422.6</ele>
        <time>2019-02-24T15:01:35Z</time>
      </trkpt>
      <trkpt lat="46.5337370" lon="6.5907630">
        <ele>422.5</ele>
        <time>2019-02-24T15:01:36Z</time>
      </trkpt>
      <trkpt lat="46.5337760" lon="6.5907040">
        <ele>422.4</ele>
        <time>2019-02-24T15:01:37Z</time>
      </trkpt>
      <trkpt lat="46.5338370" lon="6.5906140">
        <ele>422.2</ele>
        <time>2019-02-24T15:01:38Z</time>
      </trkpt>
      <trkpt lat="46.5338570" lon="6.5905830">
        <ele>422.2</ele>
        <time>2019-02-24T15:01:39Z</time>
      </trkpt>
      <trkpt lat="46.5338980" lon="6.5905200">
        <ele>422.0</ele>
        <time>2019-02-24T15:01:40Z</time>
      </trkpt>
      <trkpt lat="46.5339400" lon="6.5904550">
        <ele>421.9</ele>
        <time>2019-02-24T15:01:41Z</time>
      </trkpt>
      <trkpt lat="46.5339810" lon="6.5903890">
        <ele>421.7</ele>
        <time>2019-02-24T15:01:42Z</time>
      </trkpt>
      <trkpt lat="46.5340240" lon="6.5903210">
        <ele>421.5</ele>
        <time>2019-02-24T15:01:43Z</time>
      </trkpt>
      <trkpt lat="46.5340670" lon="6.5902520">
        <ele>421.3</ele>
        <time>2019-02-24T15:01:44Z</time>
      </trkpt>
      <trkpt lat="46.5341100" lon="6.5901810">
        <ele>421.1</ele>
        <time>2019-02-24T15:01:45Z</time>
      </trkpt>
      <trkpt lat="46.5341550" lon="6.5901080">
        <ele>420.8</ele>
        <time>2019-02-24T15:01:46Z</time>
      </trkpt>
      <trkpt lat="46.5342020" lon="6.5900350">
        <ele>420.6</ele>
        <time>2019-02-24T15:01:47Z</time>
      </trkpt>
      <trkpt lat="46.5342490" lon="6.5899600">
        <ele>420.3</ele>
        <time>2019-02-24T15:01:48Z</time>
      </trkpt>
      <trkpt lat="46.5342970" lon="6.5898840">
        <ele>420.0</ele>
        <time>2019-02-24T15:01:49Z</time>
      </trkpt>
      <trkpt lat="46.5343460" lon="6.5898090">
        <ele>419.8</ele>
        <time>2019-02-24T15:01:50Z</time>
      </trkpt>
      <trkpt lat="46.5343960" lon="6.5897330">
        <ele>419.5</ele>
        <time>2019-02-24T15:01:51Z</time>
      </trkpt>
      <trkpt lat="46.5344450" lon="6.5896570">
        <ele>419.3</ele>
        <time>2019-02-24T15:01:52Z</time>
      </trkpt>
      <trkpt lat="46.5344950" lon="6.5895830">
        <ele>419.1</ele>
        <time>2019-02-24T15:01:53Z</time>
      </trkpt>
      <trkpt lat="46.5345430" lon="6.5895100">
        <ele>418.9</ele>
        <time>2019-02-24T15:01:54Z</time>
      </trkpt>
      <trkpt lat="46.5345910" lon="6.5894390">
        <ele>418.7</ele>
        <time>2019-02-24T15:01:55Z</time>
      </trkpt>
      <trkpt lat="46.5346370" lon="6.5893710">
        <ele>418.5</ele>
        <time>2019-02-24T15:01:56Z</time>
      </trkpt>
      <trkpt lat="46.5346810" lon="6.5893060">
        <ele>418.4</ele>
        <time>2019-02-24T15:01:57Z</time>
      </trkpt>
      <trkpt lat="46.5347220" lon="6.5892460">
        <ele>418.3</ele>
        <time>2019-02-24T15:01:58Z</time>
      </trkpt>
      <trkpt lat="46.5347600" lon="6.5891910">
        <ele>418.2</ele>
        <time>2019-02-24T15:01:59Z</time>
      </trkpt>
      <trkpt lat="46.5347940" lon="6.5891420">
        <ele>418.1</ele>
        <time>2019-02-24T15:02:00Z</time>
      </trkpt>
      <trkpt lat="46.5348220" lon="6.5891010">
        <ele>418.0</ele>
        <time>2019-02-24T15:02:01Z</time>
      </trkpt>
      <trkpt lat="46.5348460" lon="6.5890680">
        <ele>417.9</ele>
        <time>2019-02-24T15:02:02Z</time>
      </trkpt>
      <trkpt lat="46.5348600" lon="6.5890500">
        <ele>417.9</ele>
        <time>2019-02-24T15:02:03Z</time>
      </trkpt>
      <trkpt lat="46.5348730" lon="6.5890310">
        <ele>417.9</ele>
        <time>2019-02-24T15:02:04Z</time>
      </trkpt>
      <trkpt lat="46.5348810" lon="6.5890210">
        <ele>417.9</ele>
        <time>2019-02-24T15:02:05Z</time>
      </trkpt>
      <trkpt lat="46.5348830" lon="6.5890170">
        <ele>417.9</ele>
        <time>2019-02-24T15:02:06Z</time>
      </trkpt>
      <trkpt lat="46.5348860" lon="6.5890130">
        <ele>417.8</ele>
        <time>2019-02-24T15:02:07Z</time>
      </trkpt>
      <trkpt lat="46.5348890" lon="6.5890080">
        <ele>417.8</ele>
        <time>2019-02-24T15:02:08Z</time>
      </trkpt>
      <trkpt lat="46.5348910" lon="6.5890040">
        <ele>417.8</ele>
        <time>2019-02-24T15:02:09Z</time>
      </trkpt>
      <trkpt lat="46.5348940" lon="6.5890000">
        <ele>417.8</ele>
        <time>2019-02-24T15:02:10Z</time>
      </trkpt>
      <trkpt lat="46.5349050" lon="6.5889820">
        <ele>417.8</ele>
        <time>2019-02-24T15:02:11Z</time>
      </trkpt>
      <trkpt lat="46.5349230" lon="6.5889540">
        <ele>417.7</ele>
        <time>2019-02-24T15:02:12Z</time>
      </trkpt>
      <trkpt lat="46.5349440" lon="6.5889220">
        <ele>417.7</ele>
        <time>2019-02-24T15:02:13Z</time>
      </trkpt>
      <trkpt lat="46.5349690" lon="6.5888850">
        <ele>417.6</ele>
        <time>2019-02-24T15:02:14Z</time>
      </trkpt>
      <trkpt lat="46.5350150" lon="6.5888140">
        <ele>417.5</ele>
        <time>2019-02-24T15:02:15Z</time>
      </trkpt>
      <trkpt lat="46.5350340" lon="6.5887850">
        <ele>417.5</ele>
        <time>2019-02-24T15:02:16Z</time>
      </trkpt>
      <trkpt lat="46.5350540" lon="6.5887550">
        <ele>417.4</ele>
        <time>2019-02-24T15:02:17Z</time>
      </trkpt>
      <trkpt lat="46.5350850" lon="6.5887080">
        <ele>417.5</ele>
        <time>2019-02-24T15:02:18Z</time>
      </trkpt>
      <trkpt lat="46.5351160" lon="6.5886600">
        <ele>417.6</ele>
        <time>2019-02-24T15:02:19Z</time>
      </trkpt>
      <trkpt lat="46.5351680" lon="6.5885800">
        <ele>417.8</ele>
        <time>2019-02-24T15:02:20Z</time>
      </trkpt>
      <trkpt lat="46.5351890" lon="6.5885480">
        <ele>417.8</ele>
        <time>2019-02-24T15:02:21Z</time>
      </trkpt>
      <trkpt lat="46.5352100" lon="6.5885160">
        <ele>417.9</ele>
        <time>2019-02-24T15:02:22Z</time>
      </trkpt>
      <trkpt lat="46.5352420" lon="6.5884670">
        <ele>418.0</ele>
        <time>2019-02-24T15:02:23Z</time>
      </trkpt>
      <trkpt lat="46.5352740" lon="6.5884180">
        <ele>418.0</ele>
        <time>2019-02-24T15:02:24Z</time>
      </trkpt>
      <trkpt lat="46.5353060" lon="6.5883690">
        <ele>418.0</ele>
        <time>2019-02-24T15:02:25Z</time>
      </trkpt>
      <trkpt lat="46.5353380" lon="6.5883190">
        <ele>418.1</ele>
        <time>2019-02-24T15:02:26Z</time>
      </trkpt>
      <trkpt lat="46.5353710" lon="6.5882690">
        <ele>418.1</ele>
        <time>2019-02-24T15:02:27Z</time>
      </trkpt>
      <trkpt lat="46.5354040" lon="6.5882180">
        <ele>418.1</ele>
        <time>2019-02-24T15:02:28Z</time>
      </trkpt>
      <trkpt lat="46.5354380" lon="6.5881680">
        <ele>418.1</ele>
        <time>2019-02-24T15:02:29Z</time>
      </trkpt>
      <trkpt lat="46.5354720" lon="6.5881160">
        <ele>418.1</ele>
        <time>2019-02-24T15:02:30Z</time>
      </trkpt>
      <trkpt lat="46.5355070" lon="6.5880650">
        <ele>418.1</ele>
        <time>2019-02-24T15:02:31Z</time>
      </trkpt>
      <trkpt lat="46.5355420" lon="6.5880130">
        <ele>418.1</ele>
        <time>2019-02-24T15:02:32Z</time>
      </trkpt>
      <trkpt lat="46.5355770" lon="6.5879610">
        <ele>418.1</ele>
        <time>2019-02-24T15:02:33Z</time>
      </trkpt>
      <trkpt lat="46.5356120" lon="6.5879090">
        <ele>418.2</ele>
        <time>2019-02-24T15:02:34Z</time>
      </trkpt>
      <trkpt lat="46.5356460" lon="6.5878580">
        <ele>418.3</ele>
        <time>2019-02-24T15:02:35Z</time>
      </trkpt>
      <trkpt lat="46.5356810" lon="6.5878070">
        <ele>418.3</ele>
        <time>2019-02-24T15:02:36Z</time>
      </trkpt>
      <trkpt lat="46.5357150" lon="6.5877560">
        <ele>418.4</ele>
        <time>2019-02-24T15:02:37Z</time>
      </trkpt>
      <trkpt lat="46.5357490" lon="6.5877050">
        <ele>418.4</ele>
        <time>2019-02-24T15:02:38Z</time>
      </trkpt>
      <trkpt lat="46.5357820" lon="6.5876560">
        <ele>418.5</ele>
        <time>2019-02-24T15:02:39Z</time>
      </trkpt>
      <trkpt lat="46.5358140" lon="6.5876080">
        <ele>418.6</ele>
        <time>2019-02-24T15:02:40Z</time>
      </trkpt>
      <trkpt lat="46.5358450" lon="6.5875610">
        <ele>418.8</ele>
        <time>2019-02-24T15:02:41Z</time>
      </trkpt>
      <trkpt lat="46.5358750" lon="6.5875160">
        <ele>418.9</ele>
        <time>2019-02-24T15:02:42Z</time>
      </trkpt>
      <trkpt lat="46.5359030" lon="6.5874740">
        <ele>419.0</ele>
        <time>2019-02-24T15:02:43Z</time>
      </trkpt>
      <trkpt lat="46.5359290" lon="6.5874330">
        <ele>419.2</ele>
        <time>2019-02-24T15:02:44Z</time>
      </trkpt>
      <trkpt lat="46.5359530" lon="6.5873950">
        <ele>419.3</ele>
        <time>2019-02-24T15:02:45Z</time>
      </trkpt>
      <trkpt lat="46.5359740" lon="6.5873620">
        <ele>419.4</ele>
        <time>2019-02-24T15:02:46Z</time>
      </trkpt>
      <trkpt lat="46.5359920" lon="6.5873340">
        <ele>419.4</ele>
        <time>2019-02-24T15:02:47Z</time>
      </trkpt>
      <trkpt lat="46.5360040" lon="6.5873130">
        <ele>419.5</ele>
        <time>2019-02-24T15:02:48Z</time>
      </trkpt>
      <trkpt lat="46.5360140" lon="6.5872970">
        <ele>419.5</ele>
        <time>2019-02-24T15:02:49Z</time>
      </trkpt>
      <trkpt lat="46.5360150" lon="6.5872930">
        <ele>419.5</ele>
        <time>2019-02-24T15:02:50Z</time>
      </trkpt>
      <trkpt lat="46.5360170" lon="6.5872880">
        <ele>419.5</ele>
        <time>2019-02-24T15:02:51Z</time>
      </trkpt>
      <trkpt lat="46.5360190" lon="6.5872870">
        <ele>419.5</ele>
        <time>2019-02-24T15:02:52Z</time>
      </trkpt>
      <trkpt lat="46.5360200" lon="6.5872850">
        <ele>419.5</ele>
        <time>2019-02-24T15:02:53Z</time>
      </trkpt>
      <trkpt lat="46.5360210" lon="6.5872830">
        <ele>419.5</ele>
        <time>2019-02-24T15:02:54Z</time>
      </trkpt>
      <trkpt lat="46.5360220" lon="6.5872820">
        <ele>419.5</ele>
        <time>2019-02-24T15:02:55Z</time>
      </trkpt>
      <trkpt lat="46.5360240" lon="6.5872800">
        <ele>419.5</ele>
        <time>2019-02-24T15:02:56Z</time>
      </trkpt>
      <trkpt lat="46.5360250" lon="6.5872790">
        <ele>419.5</ele>
        <time>2019-02-24T15:02:57Z</time>
      </trkpt>
      <trkpt lat="46.5360260" lon="6.5872770">
        <ele>419.5</ele>
        <time>2019-02-24T15:02:58Z</time>
      </trkpt>
      <trkpt lat="46.5360280" lon="6.5872750">
        <ele>419.6</ele>
        <time>2019-02-24T15:02:59Z</time>
      </trkpt>
      <trkpt lat="46.5360290" lon="6.5872740">
        <ele>419.6</ele>
        <time>2019-02-24T15:03:00Z</time>
      </trkpt>
      <trkpt lat="46.5360300" lon="6.5872720">
        <ele>419.6</ele>
        <time>2019-02-24T15:03:01Z</time>
      </trkpt>
      <trkpt lat="46.5360310" lon="6.5872700">
        <ele>419.6</ele>
        <time>2019-02-24T15:03:02Z</time>
      </trkpt>
      <trkpt lat="46.5360330" lon="6.5872690">
        <ele>419.6</ele>
        <time>2019-02-24T15:03:03Z</time>
      </trkpt>
      <trkpt lat="46.5360340" lon="6.5872670">
        <ele>419.6</ele>
        <time>2019-02-24T15:03:04Z</time>
      </trkpt>
      <trkpt lat="46.5360460" lon="6.5872510">
        <ele>419.6</ele>
        <time>2019-02-24T15:03:05Z</time>
      </trkpt>
      <trkpt lat="46.5360660" lon="6.5872250">
        <ele>419.7</ele>
        <time>2019-02-24T15:03:06Z</time>
      </trkpt>
      <trkpt lat="46.5360890" lon="6.5871930">
        <ele>419.7</ele>
        <time>2019-02-24T15:03:07Z</time>
      </trkpt>
      <trkpt lat="46.5361150" lon="6.5871590">
        <ele>419.8</ele>
        <time>2019-02-24T15:03:08Z</time>
      </trkpt>
      <trkpt lat="46.5361610" lon="6.5870960">
        <ele>420.0</ele>
        <time>2019-02-24T15:03:09Z</time>
      </trkpt>
      <trkpt lat="46.5361790" lon="6.5870700">
        <ele>420.1</ele>
        <time>2019-02-24T15:03:10Z</time>
      </trkpt>
      <trkpt lat="46.5361980" lon="6.5870440">
        <ele>420.1</ele>
        <time>2019-02-24T15:03:11Z</time>
      </trkpt>
      <trkpt lat="46.5362270" lon="6.5870020">
        <ele>420.2</ele>
        <time>2019-02-24T15:03:12Z</time>
      </trkpt>
      <trkpt lat="46.5362560" lon="6.5869600">
        <ele>420.3</ele>
        <time>2019-02-24T15:03:13Z</time>
      </trkpt>
      <trkpt lat="46.5363070" lon="6.5868880">
        <ele>420.4</ele>
        <time>2019-02-24T15:03:14Z</time>
      </trkpt>
      <trkpt lat="46.5363270" lon="6.5868580">
        <ele>420.5</ele>
        <time>2019-02-24T15:03:15Z</time>
      </trkpt>
      <trkpt lat="46.5363480" lon="6.5868290">
        <ele>420.5</ele>
        <time>2019-02-24T15:03:16Z</time>
      </trkpt>
      <trkpt lat="46.5363790" lon="6.5867850">
        <ele>420.5</ele>
        <time>2019-02-24T15:03:17Z</time>
      </trkpt>
      <trkpt lat="46.5364100" lon="6.5867410">
        <ele>420.5</ele>
        <time>2019-02-24T15:03:18Z</time>
      </trkpt>
      <trkpt lat="46.5364580" lon="6.5866740">
        <ele>420.5</ele>
        <time>2019-02-24T15:03:19Z</time>
      </trkpt>
      <trkpt lat="46.5364740" lon="6.5866520">
        <ele>420.5</ele>
        <time>2019-02-24T15:03:20Z</time>
      </trkpt>
      <trkpt lat="46.5365060" lon="6.5866070">
        <ele>420.5</ele>
        <time>2019-02-24T15:03:21Z</time>
      </trkpt>
      <trkpt lat="46.5365380" lon="6.5865630">
        <ele>420.4</ele>
        <time>2019-02-24T15:03:22Z</time>
      </trkpt>
      <trkpt lat="46.5365700" lon="6.5865180">
        <ele>420.4</ele>
        <time>2019-02-24T15:03:23Z</time>
      </trkpt>
      <trkpt lat="46.5366010" lon="6.5864730">
        <ele>420.3</ele>
        <time>2019-02-24T15:03:24Z</time>
      </trkpt>
      <trkpt lat="46.5366330" lon="6.5864280">
        <ele>420.3</ele>
        <time>2019-02-24T15:03:25Z</time>
      </trkpt>
      <trkpt lat="46.5366640" lon="6.5863830">
        <ele>420.2</ele>
        <time>2019-02-24T15:03:26Z</time>
      </trkpt>
      <trkpt lat="46.5367140" lon="6.5863040">
        <ele>420.2</ele>
        <time>2019-02-24T15:03:27Z</time>
      </trkpt>
      <trkpt lat="46.5367340" lon="6.5862710">
        <ele>420.1</ele>
        <time>2019-02-24T15:03:28Z</time>
      </trkpt>
      <trkpt lat="46.5367530" lon="6.5862390">
        <ele>420.1</ele>
        <time>2019-02-24T15:03:29Z</time>
      </trkpt>
      <trkpt lat="46.5367810" lon="6.5861890">
        <ele>420.2</ele>
        <time>2019-02-24T15:03:30Z</time>
      </trkpt>
      <trkpt lat="46.5368090" lon="6.5861390">
        <ele>420.2</ele>
        <time>2019-02-24T15:03:31Z</time>
      </trkpt>
      <trkpt lat="46.5368380" lon="6.5860890">
        <ele>420.3</ele>
        <time>2019-02-24T15:03:32Z</time>
      </trkpt>
      <trkpt lat="46.5368680" lon="6.5860400">
        <ele>420.3</ele>
        <time>2019-02-24T15:03:33Z</time>
      </trkpt>
      <trkpt lat="46.5368990" lon="6.5859920">
        <ele>420.4</ele>
        <time>2019-02-24T15:03:34Z</time>
      </trkpt>
      <trkpt lat="46.5369310" lon="6.5859450">
        <ele>420.4</ele>
        <time>2019-02-24T15:03:35Z</time>
      </trkpt>
      <trkpt lat="46.5369640" lon="6.5858980">
        <ele>420.5</ele>
        <time>2019-02-24T15:03:36Z</time>
      </trkpt>
      <trkpt lat="46.5369960" lon="6.5858520">
        <ele>420.5</ele>
        <time>2019-02-24T15:03:37Z</time>
      </trkpt>
      <trkpt lat="46.5370270" lon="6.5858070">
        <ele>420.5</ele>
        <time>2019-02-24T15:03:38Z</time>
      </trkpt>
      <trkpt lat="46.5370590" lon="6.5857620">
        <ele>420.5</ele>
        <time>2019-02-24T15:03:39Z</time>
      </trkpt>
      <trkpt lat="46.5370900" lon="6.5857160">
        <ele>420.5</ele>
        <time>2019-02-24T15:03:40Z</time>
      </trkpt>
      <trkpt lat="46.5371220" lon="6.5856700">
        <ele>420.5</ele>
        <time>2019-02-24T15:03:41Z</time>
      </trkpt>
      <trkpt lat="46.5371540" lon="6.5856230">
        <ele>420.6</ele>
        <time>2019-02-24T15:03:42Z</time>
      </trkpt>
      <trkpt lat="46.5371850" lon="6.5855760">
        <ele>420.6</ele>
        <time>2019-02-24T15:03:43Z</time>
      </trkpt>
      <trkpt lat="46.5372160" lon="6.5855280">
        <ele>420.6</ele>
        <time>2019-02-24T15:03:44Z</time>
      </trkpt>
      <trkpt lat="46.5372480" lon="6.5854810">
        <ele>420.7</ele>
        <time>2019-02-24T15:03:45Z</time>
      </trkpt>
      <trkpt lat="46.5372790" lon="6.5854330">
        <ele>420.7</ele>
        <time>2019-02-24T15:03:46Z</time>
      </trkpt>
      <trkpt lat="46.5373100" lon="6.5853850">
        <ele>420.7</ele>
        <time>2019-02-24T15:03:47Z</time>
      </trkpt>
      <trkpt lat="46.5373410" lon="6.5853380">
        <ele>420.8</ele>
        <time>2019-02-24T15:03:48Z</time>
      </trkpt>
      <trkpt lat="46.5373720" lon="6.5852900">
        <ele>420.8</ele>
        <time>2019-02-24T15:03:49Z</time>
      </trkpt>
      <trkpt lat="46.5374020" lon="6.5852430">
        <ele>420.9</ele>
        <time>2019-02-24T15:03:50Z</time>
      </trkpt>
      <trkpt lat="46.5374330" lon="6.5851950">
        <ele>421.0</ele>
        <time>2019-02-24T15:03:51Z</time>
      </trkpt>
      <trkpt lat="46.5374630" lon="6.5851480">
        <ele>421.1</ele>
        <time>2019-02-24T15:03:52Z</time>
      </trkpt>
      <trkpt lat="46.5374930" lon="6.5851010">
        <ele>421.1</ele>
        <time>2019-02-24T15:03:53Z</time>
      </trkpt>
      <trkpt lat="46.5375230" lon="6.5850530">
        <ele>421.2</ele>
        <time>2019-02-24T15:03:54Z</time>
      </trkpt>
      <trkpt lat="46.5375530" lon="6.5850060">
        <ele>421.2</ele>
        <time>2019-02-24T15:03:55Z</time>
      </trkpt>
      <trkpt lat="46.5375820" lon="6.5849580">
        <ele>421.3</ele>
        <time>2019-02-24T15:03:56Z</time>
      </trkpt>
      <trkpt lat="46.5376120" lon="6.5849100">
        <ele>421.3</ele>
        <time>2019-02-24T15:03:57Z</time>
      </trkpt>
      <trkpt lat="46.5376410" lon="6.5848620">
        <ele>421.4</ele>
        <time>2019-02-24T15:03:58Z</time>
      </trkpt>
      <trkpt lat="46.5376710" lon="6.5848120">
        <ele>421.5</ele>
        <time>2019-02-24T15:03:59Z</time>
      </trkpt>
      <trkpt lat="46.5377000" lon="6.5847610">
        <ele>421.5</ele>
        <time>2019-02-24T15:04:00Z</time>
      </trkpt>
      <trkpt lat="46.5377290" lon="6.5847080">
        <ele>421.6</ele>
        <time>2019-02-24T15:04:01Z</time>
      </trkpt>
      <trkpt lat="46.5377570" lon="6.5846550">
        <ele>421.6</ele>
        <time>2019-02-24T15:04:02Z</time>
      </trkpt>
      <trkpt lat="46.5377840" lon="6.5846030">
        <ele>421.7</ele>
        <time>2019-02-24T15:04:03Z</time>
      </trkpt>
      <trkpt lat="46.5378090" lon="6.5845540">
        <ele>421.7</ele>
        <time>2019-02-24T15:04:04Z</time>
      </trkpt>
      <trkpt lat="46.5378320" lon="6.5845090">
        <ele>421.8</ele>
        <time>2019-02-24T15:04:05Z</time>
      </trkpt>
      <trkpt lat="46.5378530" lon="6.5844680">
        <ele>421.8</ele>
        <time>2019-02-24T15:04:06Z</time>
      </trkpt>
      <trkpt lat="46.5378720" lon="6.5844310">
        <ele>421.9</ele>
        <time>2019-02-24T15:04:07Z</time>
      </trkpt>
      <trkpt lat="46.5378890" lon="6.5843990">
        <ele>421.9</ele>
        <time>2019-02-24T15:04:08Z</time>
      </trkpt>
      <trkpt lat="46.5379040" lon="6.5843700">
        <ele>422.0</ele>
        <time>2019-02-24T15:04:09Z</time>
      </trkpt>
      <trkpt lat="46.5379180" lon="6.5843450">
        <ele>422.0</ele>
        <time>2019-02-24T15:04:10Z</time>
      </trkpt>
      <trkpt lat="46.5379340" lon="6.5843170">
        <ele>422.1</ele>
        <time>2019-02-24T15:04:11Z</time>
      </trkpt>
      <trkpt lat="46.5379390" lon="6.5843080">
        <ele>422.1</ele>
        <time>2019-02-24T15:04:12Z</time>
      </trkpt>
      <trkpt lat="46.5379530" lon="6.5842820">
        <ele>422.1</ele>
        <time>2019-02-24T15:04:13Z</time>
      </trkpt>
      <trkpt lat="46.5379590" lon="6.5842700">
        <ele>422.1</ele>
        <time>2019-02-24T15:04:14Z</time>
      </trkpt>
      <trkpt lat="46.5379660" lon="6.5842590">
        <ele>422.2</ele>
        <time>2019-02-24T15:04:15Z</time>
      </trkpt>
      <trkpt lat="46.5379720" lon="6.5842470">
        <ele>422.2</ele>
        <time>2019-02-24T15:04:16Z</time>
      </trkpt>
      <trkpt lat="46.5379780" lon="6.5842350">
        <ele>422.2</ele>
        <time>2019-02-24T15:04:17Z</time>
      </trkpt>
      <trkpt lat="46.5379880" lon="6.5842110">
        <ele>422.2</ele>
        <time>2019-02-24T15:04:18Z</time>
      </trkpt>
      <trkpt lat="46.5380020" lon="6.5841830">
        <ele>422.3</ele>
        <time>2019-02-24T15:04:19Z</time>
      </trkpt>
      <trkpt lat="46.5380180" lon="6.5841510">
        <ele>422.3</ele>
        <time>2019-02-24T15:04:20Z</time>
      </trkpt>
      <trkpt lat="46.5380370" lon="6.5841150">
        <ele>422.4</ele>
        <time>2019-02-24T15:04:21Z</time>
      </trkpt>
      <trkpt lat="46.5380740" lon="6.5840460">
        <ele>422.5</ele>
        <time>2019-02-24T15:04:22Z</time>
      </trkpt>
      <trkpt lat="46.5380890" lon="6.5840180">
        <ele>422.6</ele>
        <time>2019-02-24T15:04:23Z</time>
      </trkpt>
      <trkpt lat="46.5381050" lon="6.5839890">
        <ele>422.6</ele>
        <time>2019-02-24T15:04:24Z</time>
      </trkpt>
      <trkpt lat="46.5381290" lon="6.5839430">
        <ele>422.7</ele>
        <time>2019-02-24T15:04:25Z</time>
      </trkpt>
      <trkpt lat="46.5381530" lon="6.5838970">
        <ele>422.8</ele>
        <time>2019-02-24T15:04:26Z</time>
      </trkpt>
      <trkpt lat="46.5381930" lon="6.5838160">
        <ele>423.0</ele>
        <time>2019-02-24T15:04:27Z</time>
      </trkpt>
      <trkpt lat="46.5382080" lon="6.5837830">
        <ele>423.0</ele>
        <time>2019-02-24T15:04:28Z</time>
      </trkpt>
      <trkpt lat="46.5382240" lon="6.5837500">
        <ele>423.1</ele>
        <time>2019-02-24T15:04:29Z</time>
      </trkpt>
      <trkpt lat="46.5382480" lon="6.5836990">
        <ele>423.1</ele>
        <time>2019-02-24T15:04:30Z</time>
      </trkpt>
      <trkpt lat="46.5382710" lon="6.5836480">
        <ele>423.1</ele>
        <time>2019-02-24T15:04:31Z</time>
      </trkpt>
      <trkpt lat="46.5382940" lon="6.5835950">
        <ele>423.2</ele>
        <time>2019-02-24T15:04:32Z</time>
      </trkpt>
      <trkpt lat="46.5383170" lon="6.5835420">
        <ele>423.2</ele>
        <time>2019-02-24T15:04:33Z</time>
      </trkpt>
      <trkpt lat="46.5383400" lon="6.5834890">
        <ele>423.2</ele>
        <time>2019-02-24T15:04:34Z</time>
      </trkpt>
      <trkpt lat="46.5383630" lon="6.5834350">
        <ele>423.3</ele>
        <time>2019-02-24T15:04:35Z</time>
      </trkpt>
      <trkpt lat="46.5383850" lon="6.5833800">
        <ele>423.3</ele>
        <time>2019-02-24T15:04:36Z</time>
      </trkpt>
      <trkpt lat="46.5384070" lon="6.5833250">
        <ele>423.3</ele>
        <time>2019-02-24T15:04:37Z</time>
      </trkpt>
      <trkpt lat="46.5384300" lon="6.5832700">
        <ele>423.3</ele>
        <time>2019-02-24T15:04:38Z</time>
      </trkpt>
      <trkpt lat="46.5384520" lon="6.5832150">
        <ele>423.4</ele>
        <time>2019-02-24T15:04:39Z</time>
      </trkpt>
      <trkpt lat="46.5384740" lon="6.5831590">
        <ele>423.4</ele>
        <time>2019-02-24T15:04:40Z</time>
      </trkpt>
      <trkpt lat="46.5384950" lon="6.5831040">
        <ele>423.4</ele>
        <time>2019-02-24T15:04:41Z</time>
      </trkpt>
      <trkpt lat="46.5385170" lon="6.5830480">
        <ele>423.4</ele>
        <time>2019-02-24T15:04:42Z</time>
      </trkpt>
      <trkpt lat="46.5385390" lon="6.5829930">
        <ele>423.5</ele>
        <time>2019-02-24T15:04:43Z</time>
      </trkpt>
      <trkpt lat="46.5385600" lon="6.5829380">
        <ele>423.5</ele>
        <time>2019-02-24T15:04:44Z</time>
      </trkpt>
      <trkpt lat="46.5385810" lon="6.5828830">
        <ele>423.5</ele>
        <time>2019-02-24T15:04:45Z</time>
      </trkpt>
      <trkpt lat="46.5386030" lon="6.5828280">
        <ele>423.6</ele>
        <time>2019-02-24T15:04:46Z</time>
      </trkpt>
      <trkpt lat="46.5386240" lon="6.5827740">
        <ele>423.6</ele>
        <time>2019-02-24T15:04:47Z</time>
      </trkpt>
      <trkpt lat="46.5386450" lon="6.5827200">
        <ele>423.7</ele>
        <time>2019-02-24T15:04:48Z</time>
      </trkpt>
      <trkpt lat="46.5386650" lon="6.5826660">
        <ele>423.7</ele>
        <time>2019-02-24T15:04:49Z</time>
      </trkpt>
      <trkpt lat="46.5386860" lon="6.5826130">
        <ele>423.7</ele>
        <time>2019-02-24T15:04:50Z</time>
      </trkpt>
      <trkpt lat="46.5387060" lon="6.5825590">
        <ele>423.7</ele>
        <time>2019-02-24T15:04:51Z</time>
      </trkpt>
      <trkpt lat="46.5387270" lon="6.5825060">
        <ele>423.8</ele>
        <time>2019-02-24T15:04:52Z</time>
      </trkpt>
      <trkpt lat="46.5387460" lon="6.5824530">
        <ele>423.8</ele>
        <time>2019-02-24T15:04:53Z</time>
      </trkpt>
      <trkpt lat="46.5387660" lon="6.5824000">
        <ele>423.8</ele>
        <time>2019-02-24T15:04:54Z</time>
      </trkpt>
      <trkpt lat="46.5387850" lon="6.5823460">
        <ele>423.8</ele>
        <time>2019-02-24T15:04:55Z</time>
      </trkpt>
      <trkpt lat="46.5388040" lon="6.5822930">
        <ele>423.8</ele>
        <time>2019-02-24T15:04:56Z</time>
      </trkpt>
      <trkpt lat="46.5388230" lon="6.5822390">
        <ele>423.9</ele>
        <time>2019-02-24T15:04:57Z</time>
      </trkpt>
      <trkpt lat="46.5388410" lon="6.5821860">
        <ele>423.9</ele>
        <time>2019-02-24T15:04:58Z</time>
      </trkpt>
      <trkpt lat="46.5388590" lon="6.5821320">
        <ele>424.0</ele>
        <time>2019-02-24T15:04:59Z</time>
      </trkpt>
      <trkpt lat="46.5388760" lon="6.5820770">
        <ele>424.0</ele>
        <time>2019-02-24T15:05:00Z</time>
      </trkpt>
      <trkpt lat="46.5388930" lon="6.5820230">
        <ele>424.0</ele>
        <time>2019-02-24T15:05:01Z</time>
      </trkpt>
      <trkpt lat="46.5389100" lon="6.5819680">
        <ele>424.1</ele>
        <time>2019-02-24T15:05:02Z</time>
      </trkpt>
      <trkpt lat="46.5389260" lon="6.5819130">
        <ele>424.1</ele>
        <time>2019-02-24T15:05:03Z</time>
      </trkpt>
      <trkpt lat="46.5389420" lon="6.5818570">
        <ele>424.1</ele>
        <time>2019-02-24T15:05:04Z</time>
      </trkpt>
      <trkpt lat="46.5389570" lon="6.5818020">
        <ele>424.2</ele>
        <time>2019-02-24T15:05:05Z</time>
      </trkpt>
      <trkpt lat="46.5389720" lon="6.5817450">
        <ele>424.2</ele>
        <time>2019-02-24T15:05:06Z</time>
      </trkpt>
      <trkpt lat="46.5389880" lon="6.5816890">
        <ele>424.2</ele>
        <time>2019-02-24T15:05:07Z</time>
      </trkpt>
      <trkpt lat="46.5390020" lon="6.5816330">
        <ele>424.3</ele>
        <time>2019-02-24T15:05:08Z</time>
      </trkpt>
      <trkpt lat="46.5390170" lon="6.5815760">
        <ele>424.3</ele>
        <time>2019-02-24T15:05:09Z</time>
      </trkpt>
      <trkpt lat="46.5390320" lon="6.5815190">
        <ele>424.3</ele>
        <time>2019-02-24T15:05:10Z</time>
      </trkpt>
      <trkpt lat="46.5390470" lon="6.5814620">
        <ele>424.2</ele>
        <time>2019-02-24T15:05:11Z</time>
      </trkpt>
      <trkpt lat="46.5390620" lon="6.5814050">
        <ele>424.2</ele>
        <time>2019-02-24T15:05:12Z</time>
      </trkpt>
      <trkpt lat="46.5390770" lon="6.5813480">
        <ele>424.2</ele>
        <time>2019-02-24T15:05:13Z</time>
      </trkpt>
      <trkpt lat="46.5390920" lon="6.5812900">
        <ele>424.2</ele>
        <time>2019-02-24T15:05:14Z</time>
      </trkpt>
      <trkpt lat="46.5391080" lon="6.5812330">
        <ele>424.2</ele>
        <time>2019-02-24T15:05:15Z</time>
      </trkpt>
      <trkpt lat="46.5391240" lon="6.5811760">
        <ele>424.2</ele>
        <time>2019-02-24T15:05:16Z</time>
      </trkpt>
      <trkpt lat="46.5391400" lon="6.5811180">
        <ele>424.2</ele>
        <time>2019-02-24T15:05:17Z</time>
      </trkpt>
      <trkpt lat="46.5391560" lon="6.5810610">
        <ele>424.2</ele>
        <time>2019-02-24T15:05:18Z</time>
      </trkpt>
      <trkpt lat="46.5391720" lon="6.5810030">
        <ele>424.1</ele>
        <time>2019-02-24T15:05:19Z</time>
      </trkpt>
      <trkpt lat="46.5391870" lon="6.5809440">
        <ele>424.0</ele>
        <time>2019-02-24T15:05:20Z</time>
      </trkpt>
      <trkpt lat="46.5392000" lon="6.5808840">
        <ele>424.0</ele>
        <time>2019-02-24T15:05:21Z</time>
      </trkpt>
      <trkpt lat="46.5392110" lon="6.5808220">
        <ele>423.9</ele>
        <time>2019-02-24T15:05:22Z</time>
      </trkpt>
      <trkpt lat="46.5392210" lon="6.5807590">
        <ele>423.9</ele>
        <time>2019-02-24T15:05:23Z</time>
      </trkpt>
      <trkpt lat="46.5392290" lon="6.5806960">
        <ele>423.8</ele>
        <time>2019-02-24T15:05:24Z</time>
      </trkpt>
      <trkpt lat="46.5392390" lon="6.5806330">
        <ele>423.8</ele>
        <time>2019-02-24T15:05:25Z</time>
      </trkpt>
      <trkpt lat="46.5392490" lon="6.5805720">
        <ele>423.8</ele>
        <time>2019-02-24T15:05:26Z</time>
      </trkpt>
      <trkpt lat="46.5392610" lon="6.5805110">
        <ele>423.8</ele>
        <time>2019-02-24T15:05:27Z</time>
      </trkpt>
      <trkpt lat="46.5392740" lon="6.5804520">
        <ele>423.7</ele>
        <time>2019-02-24T15:05:28Z</time>
      </trkpt>
      <trkpt lat="46.5392870" lon="6.5803940">
        <ele>423.7</ele>
        <time>2019-02-24T15:05:29Z</time>
      </trkpt>
      <trkpt lat="46.5393000" lon="6.5803360">
        <ele>423.7</ele>
        <time>2019-02-24T15:05:30Z</time>
      </trkpt>
      <trkpt lat="46.5393140" lon="6.5802780">
        <ele>423.7</ele>
        <time>2019-02-24T15:05:31Z</time>
      </trkpt>
      <trkpt lat="46.5393280" lon="6.5802210">
        <ele>423.7</ele>
        <time>2019-02-24T15:05:32Z</time>
      </trkpt>
      <trkpt lat="46.5393410" lon="6.5801650">
        <ele>423.7</ele>
        <time>2019-02-24T15:05:33Z</time>
      </trkpt>
      <trkpt lat="46.5393530" lon="6.5801080">
        <ele>423.7</ele>
        <time>2019-02-24T15:05:34Z</time>
      </trkpt>
      <trkpt lat="46.5393650" lon="6.5800510">
        <ele>423.8</ele>
        <time>2019-02-24T15:05:35Z</time>
      </trkpt>
      <trkpt lat="46.5393780" lon="6.5799940">
        <ele>423.8</ele>
        <time>2019-02-24T15:05:36Z</time>
      </trkpt>
      <trkpt lat="46.5393900" lon="6.5799360">
        <ele>423.9</ele>
        <time>2019-02-24T15:05:37Z</time>
      </trkpt>
      <trkpt lat="46.5394030" lon="6.5798780">
        <ele>424.0</ele>
        <time>2019-02-24T15:05:38Z</time>
      </trkpt>
      <trkpt lat="46.5394170" lon="6.5798190">
        <ele>424.1</ele>
        <time>2019-02-24T15:05:39Z</time>
      </trkpt>
      <trkpt lat="46.5394310" lon="6.5797610">
        <ele>424.2</ele>
        <time>2019-02-24T15:05:40Z</time>
      </trkpt>
      <trkpt lat="46.5394450" lon="6.5797030">
        <ele>424.3</ele>
        <time>2019-02-24T15:05:41Z</time>
      </trkpt>
      <trkpt lat="46.5394590" lon="6.5796450">
        <ele>424.4</ele>
        <time>2019-02-24T15:05:42Z</time>
      </trkpt>
      <trkpt lat="46.5394730" lon="6.5795880">
        <ele>424.5</ele>
        <time>2019-02-24T15:05:43Z</time>
      </trkpt>
      <trkpt lat="46.5394870" lon="6.5795320">
        <ele>424.5</ele>
        <time>2019-02-24T15:05:44Z</time>
      </trkpt>
      <trkpt lat="46.5395010" lon="6.5794760">
        <ele>424.6</ele>
        <time>2019-02-24T15:05:45Z</time>
      </trkpt>
      <trkpt lat="46.5395150" lon="6.5794200">
        <ele>424.7</ele>
        <time>2019-02-24T15:05:46Z</time>
      </trkpt>
      <trkpt lat="46.5395300" lon="6.5793650">
        <ele>424.8</ele>
        <time>2019-02-24T15:05:47Z</time>
      </trkpt>
      <trkpt lat="46.5395440" lon="6.5793100">
        <ele>424.9</ele>
        <time>2019-02-24T15:05:48Z</time>
      </trkpt>
      <trkpt lat="46.5395580" lon="6.5792540">
        <ele>425.1</ele>
        <time>2019-02-24T15:05:49Z</time>
      </trkpt>
      <trkpt lat="46.5395720" lon="6.5791990">
        <ele>425.2</ele>
        <time>2019-02-24T15:05:50Z</time>
      </trkpt>
      <trkpt lat="46.5395860" lon="6.5791430">
        <ele>425.3</ele>
        <time>2019-02-24T15:05:51Z</time>
      </trkpt>
      <trkpt lat="46.5396000" lon="6.5790880">
        <ele>425.5</ele>
        <time>2019-02-24T15:05:52Z</time>
      </trkpt>
      <trkpt lat="46.5396130" lon="6.5790330">
        <ele>425.6</ele>
        <time>2019-02-24T15:05:53Z</time>
      </trkpt>
      <trkpt lat="46.5396260" lon="6.5789780">
        <ele>425.7</ele>
        <time>2019-02-24T15:05:54Z</time>
      </trkpt>
      <trkpt lat="46.5396380" lon="6.5789240">
        <ele>425.9</ele>
        <time>2019-02-24T15:05:55Z</time>
      </trkpt>
      <trkpt lat="46.5396500" lon="6.5788710">
        <ele>426.1</ele>
        <time>2019-02-24T15:05:56Z</time>
      </trkpt>
      <trkpt lat="46.5396600" lon="6.5788180">
        <ele>426.3</ele>
        <time>2019-02-24T15:05:57Z</time>
      </trkpt>
      <trkpt lat="46.5396690" lon="6.5787670">
        <ele>426.5</ele>
        <time>2019-02-24T15:05:58Z</time>
      </trkpt>
      <trkpt lat="46.5396760" lon="6.5787160">
        <ele>426.7</ele>
        <time>2019-02-24T15:05:59Z</time>
      </trkpt>
      <trkpt lat="46.5396830" lon="6.5786660">
        <ele>426.9</ele>
        <time>2019-02-24T15:06:00Z</time>
      </trkpt>
      <trkpt lat="46.5396880" lon="6.5786170">
        <ele>427.2</ele>
        <time>2019-02-24T15:06:01Z</time>
      </trkpt>
      <trkpt lat="46.5396930" lon="6.5785700">
        <ele>427.5</ele>
        <time>2019-02-24T15:06:02Z</time>
      </trkpt>
      <trkpt lat="46.5396960" lon="6.5785230">
        <ele>427.8</ele>
        <time>2019-02-24T15:06:03Z</time>
      </trkpt>
      <trkpt lat="46.5396990" lon="6.5784780">
        <ele>427.9</ele>
        <time>2019-02-24T15:06:04Z</time>
      </trkpt>
      <trkpt lat="46.5397000" lon="6.5784340">
        <ele>427.9</ele>
        <time>2019-02-24T15:06:05Z</time>
      </trkpt>
      <trkpt lat="46.5397020" lon="6.5783900">
        <ele>427.9</ele>
        <time>2019-02-24T15:06:06Z</time>
      </trkpt>
      <trkpt lat="46.5397120" lon="6.5783380">
        <ele>428.0</ele>
        <time>2019-02-24T15:06:07Z</time>
      </trkpt>
      <trkpt lat="46.5397380" lon="6.5782730">
        <ele>428.0</ele>
        <time>2019-02-24T15:06:08Z</time>
      </trkpt>
      <trkpt lat="46.5397690" lon="6.5782050">
        <ele>428.0</ele>
        <time>2019-02-24T15:06:09Z</time>
      </trkpt>
      <trkpt lat="46.5397950" lon="6.5781430">
        <ele>428.1</ele>
        <time>2019-02-24T15:06:10Z</time>
      </trkpt>
      <trkpt lat="46.5398160" lon="6.5780870">
        <ele>428.1</ele>
        <time>2019-02-24T15:06:11Z</time>
      </trkpt>
      <trkpt lat="46.5398330" lon="6.5780340">
        <ele>428.1</ele>
        <time>2019-02-24T15:06:12Z</time>
      </trkpt>
      <trkpt lat="46.5398470" lon="6.5779820">
        <ele>428.2</ele>
        <time>2019-02-24T15:06:13Z</time>
      </trkpt>
      <trkpt lat="46.5398610" lon="6.5779280">
        <ele>428.2</ele>
        <time>2019-02-24T15:06:14Z</time>
      </trkpt>
      <trkpt lat="46.5398750" lon="6.5778730">
        <ele>428.3</ele>
        <time>2019-02-24T15:06:15Z</time>
      </trkpt>
      <trkpt lat="46.5398920" lon="6.5778200">
        <ele>428.3</ele>
        <time>2019-02-24T15:06:16Z</time>
      </trkpt>
      <trkpt lat="46.5399130" lon="6.5777690">
        <ele>428.4</ele>
        <time>2019-02-24T15:06:17Z</time>
      </trkpt>
      <trkpt lat="46.5399390" lon="6.5777220">
        <ele>428.4</ele>
        <time>2019-02-24T15:06:18Z</time>
      </trkpt>
      <trkpt lat="46.5399690" lon="6.5776810">
        <ele>428.5</ele>
        <time>2019-02-24T15:06:19Z</time>
      </trkpt>
      <trkpt lat="46.5400030" lon="6.5776490">
        <ele>428.5</ele>
        <time>2019-02-24T15:06:20Z</time>
      </trkpt>
      <trkpt lat="46.5400380" lon="6.5776270">
        <ele>428.6</ele>
        <time>2019-02-24T15:06:21Z</time>
      </trkpt>
      <trkpt lat="46.5400760" lon="6.5776180">
        <ele>428.6</ele>
        <time>2019-02-24T15:06:22Z</time>
      </trkpt>
      <trkpt lat="46.5401130" lon="6.5776170">
        <ele>428.7</ele>
        <time>2019-02-24T15:06:23Z</time>
      </trkpt>
      <trkpt lat="46.5401480" lon="6.5776230">
        <ele>428.7</ele>
        <time>2019-02-24T15:06:24Z</time>
      </trkpt>
      <trkpt lat="46.5401810" lon="6.5776320">
        <ele>428.8</ele>
        <time>2019-02-24T15:06:25Z</time>
      </trkpt>
      <trkpt lat="46.5402110" lon="6.5776400">
        <ele>428.8</ele>
        <time>2019-02-24T15:06:26Z</time>
      </trkpt>
      <trkpt lat="46.5402380" lon="6.5776480">
        <ele>428.8</ele>
        <time>2019-02-24T15:06:27Z</time>
      </trkpt>
      <trkpt lat="46.5402640" lon="6.5776550">
        <ele>428.8</ele>
        <time>2019-02-24T15:06:28Z</time>
      </trkpt>
      <trkpt lat="46.5402890" lon="6.5776610">
        <ele>428.9</ele>
        <time>2019-02-24T15:06:29Z</time>
      </trkpt>
      <trkpt lat="46.5403140" lon="6.5776660">
        <ele>428.9</ele>
        <time>2019-02-24T15:06:30Z</time>
      </trkpt>
      <trkpt lat="46.5403400" lon="6.5776690">
        <ele>428.9</ele>
        <time>2019-02-24T15:06:31Z</time>
      </trkpt>
      <trkpt lat="46.5403660" lon="6.5776710">
        <ele>429.0</ele>
        <time>2019-02-24T15:06:32Z</time>
      </trkpt>
      <trkpt lat="46.5403920" lon="6.5776720">
        <ele>429.0</ele>
        <time>2019-02-24T15:06:33Z</time>
      </trkpt>
      <trkpt lat="46.5404180" lon="6.5776720">
        <ele>429.0</ele>
        <time>2019-02-24T15:06:34Z</time>
      </trkpt>
      <trkpt lat="46.5404440" lon="6.5776710">
        <ele>429.1</ele>
        <time>2019-02-24T15:06:35Z</time>
      </trkpt>
      <trkpt lat="46.5404700" lon="6.5776690">
        <ele>429.1</ele>
        <time>2019-02-24T15:06:36Z</time>
      </trkpt>
      <trkpt lat="46.5404960" lon="6.5776660">
        <ele>429.1</ele>
        <time>2019-02-24T15:06:37Z</time>
      </trkpt>
      <trkpt lat="46.5405210" lon="6.5776620">
        <ele>429.1</ele>
        <time>2019-02-24T15:06:38Z</time>
      </trkpt>
      <trkpt lat="46.5405460" lon="6.5776580">
        <ele>429.2</ele>
        <time>2019-02-24T15:06:39Z</time>
      </trkpt>
      <trkpt lat="46.5405700" lon="6.5776530">
        <ele>429.2</ele>
        <time>2019-02-24T15:06:40Z</time>
      </trkpt>
      <trkpt lat="46.5405940" lon="6.5776480">
        <ele>429.2</ele>
        <time>2019-02-24T15:06:41Z</time>
      </trkpt>
      <trkpt lat="46.5406170" lon="6.5776420">
        <ele>429.3</ele>
        <time>2019-02-24T15:06:42Z</time>
      </trkpt>
      <trkpt lat="46.5406400" lon="6.5776350">
        <ele>429.3</ele>
        <time>2019-02-24T15:06:43Z</time>
      </trkpt>
      <trkpt lat="46.5406630" lon="6.5776270">
        <ele>429.3</ele>
        <time>2019-02-24T15:06:44Z</time>
      </trkpt>
      <trkpt lat="46.5406960" lon="6.5776140">
        <ele>429.4</ele>
        <time>2019-02-24T15:06:45Z</time>
      </trkpt>
      <trkpt lat="46.5407070" lon="6.5776090">
        <ele>429.4</ele>
        <time>2019-02-24T15:06:46Z</time>
      </trkpt>
      <trkpt lat="46.5407280" lon="6.5775990">
        <ele>429.4</ele>
        <time>2019-02-24T15:06:47Z</time>
      </trkpt>
      <trkpt lat="46.5407490" lon="6.5775870">
        <ele>429.5</ele>
        <time>2019-02-24T15:06:48Z</time>
      </trkpt>
      <trkpt lat="46.5407700" lon="6.5775750">
        <ele>429.5</ele>
        <time>2019-02-24T15:06:49Z</time>
      </trkpt>
      <trkpt lat="46.5407910" lon="6.5775620">
        <ele>429.6</ele>
        <time>2019-02-24T15:06:50Z</time>
      </trkpt>
      <trkpt lat="46.5408110" lon="6.5775480">
        <ele>429.6</ele>
        <time>2019-02-24T15:06:51Z</time>
      </trkpt>
      <trkpt lat="46.5408310" lon="6.5775330">
        <ele>429.7</ele>
        <time>2019-02-24T15:06:52Z</time>
      </trkpt>
      <trkpt lat="46.5408500" lon="6.5775170">
        <ele>429.8</ele>
        <time>2019-02-24T15:06:53Z</time>
      </trkpt>
      <trkpt lat="46.5408690" lon="6.5775000">
        <ele>429.8</ele>
        <time>2019-02-24T15:06:54Z</time>
      </trkpt>
      <trkpt lat="46.5408890" lon="6.5774820">
        <ele>429.9</ele>
        <time>2019-02-24T15:06:55Z</time>
      </trkpt>
      <trkpt lat="46.5409070" lon="6.5774630">
        <ele>430.0</ele>
        <time>2019-02-24T15:06:56Z</time>
      </trkpt>
      <trkpt lat="46.5409260" lon="6.5774430">
        <ele>430.1</ele>
        <time>2019-02-24T15:06:57Z</time>
      </trkpt>
      <trkpt lat="46.5409440" lon="6.5774220">
        <ele>430.1</ele>
        <time>2019-02-24T15:06:58Z</time>
      </trkpt>
      <trkpt lat="46.5409620" lon="6.5773990">
        <ele>430.2</ele>
        <time>2019-02-24T15:06:59Z</time>
      </trkpt>
      <trkpt lat="46.5409800" lon="6.5773760">
        <ele>430.3</ele>
        <time>2019-02-24T15:07:00Z</time>
      </trkpt>
      <trkpt lat="46.5409970" lon="6.5773510">
        <ele>430.4</ele>
        <time>2019-02-24T15:07:01Z</time>
      </trkpt>
      <trkpt lat="46.5410140" lon="6.5773240">
        <ele>430.5</ele>
        <time>2019-02-24T15:07:02Z</time>
      </trkpt>
      <trkpt lat="46.5410310" lon="6.5772970">
        <ele>430.6</ele>
        <time>2019-02-24T15:07:03Z</time>
      </trkpt>
      <trkpt lat="46.5410470" lon="6.5772680">
        <ele>430.7</ele>
        <time>2019-02-24T15:07:04Z</time>
      </trkpt>
      <trkpt lat="46.5410620" lon="6.5772380">
        <ele>430.8</ele>
        <time>2019-02-24T15:07:05Z</time>
      </trkpt>
      <trkpt lat="46.5410780" lon="6.5772060">
        <ele>430.9</ele>
        <time>2019-02-24T15:07:06Z</time>
      </trkpt>
      <trkpt lat="46.5410920" lon="6.5771730">
        <ele>430.9</ele>
        <time>2019-02-24T15:07:07Z</time>
      </trkpt>
      <trkpt lat="46.5411070" lon="6.5771390">
        <ele>431.1</ele>
        <time>2019-02-24T15:07:08Z</time>
      </trkpt>
      <trkpt lat="46.5411200" lon="6.5771030">
        <ele>431.2</ele>
        <time>2019-02-24T15:07:09Z</time>
      </trkpt>
      <trkpt lat="46.5411340" lon="6.5770650">
        <ele>431.0</ele>
        <time>2019-02-24T15:07:10Z</time>
      </trkpt>
      <trkpt lat="46.5411460" lon="6.5770260">
        <ele>430.8</ele>
        <time>2019-02-24T15:07:11Z</time>
      </trkpt>
      <trkpt lat="46.5411580" lon="6.5769870">
        <ele>430.6</ele>
        <time>2019-02-24T15:07:12Z</time>
      </trkpt>
      <trkpt lat="46.5411700" lon="6.5769480">
        <ele>430.4</ele>
        <time>2019-02-24T15:07:13Z</time>
      </trkpt>
      <trkpt lat="46.5411800" lon="6.5769110">
        <ele>430.2</ele>
        <time>2019-02-24T15:07:14Z</time>
      </trkpt>
      <trkpt lat="46.5411900" lon="6.5768770">
        <ele>430.1</ele>
        <time>2019-02-24T15:07:15Z</time>
      </trkpt>
      <trkpt lat="46.5411980" lon="6.5768430">
        <ele>429.9</ele>
        <time>2019-02-24T15:07:16Z</time>
      </trkpt>
      <trkpt lat="46.5412050" lon="6.5768060">
        <ele>429.8</ele>
        <time>2019-02-24T15:07:17Z</time>
      </trkpt>
      <trkpt lat="46.5412100" lon="6.5767660">
        <ele>429.7</ele>
        <time>2019-02-24T15:07:18Z</time>
      </trkpt>
      <trkpt lat="46.5412140" lon="6.5767210">
        <ele>429.5</ele>
        <time>2019-02-24T15:07:19Z</time>
      </trkpt>
      <trkpt lat="46.5412200" lon="6.5766790">
        <ele>429.3</ele>
        <time>2019-02-24T15:07:20Z</time>
      </trkpt>
      <trkpt lat="46.5412300" lon="6.5766500">
        <ele>429.2</ele>
        <time>2019-02-24T15:07:21Z</time>
      </trkpt>
      <trkpt lat="46.5412420" lon="6.5766380">
        <ele>429.1</ele>
        <time>2019-02-24T15:07:22Z</time>
      </trkpt>
      <trkpt lat="46.5412540" lon="6.5766450">
        <ele>429.0</ele>
        <time>2019-02-24T15:07:23Z</time>
      </trkpt>
      <trkpt lat="46.5412680" lon="6.5766580">
        <ele>429.1</ele>
        <time>2019-02-24T15:07:24Z</time>
      </trkpt>
      <trkpt lat="46.5412830" lon="6.5766640">
        <ele>429.1</ele>
        <time>2019-02-24T15:07:25Z</time>
      </trkpt>
      <trkpt lat="46.5412990" lon="6.5766640">
        <ele>429.1</ele>
        <time>2019-02-24T15:07:26Z</time>
      </trkpt>
      <trkpt lat="46.5413130" lon="6.5766660">
        <ele>429.1</ele>
        <time>2019-02-24T15:07:27Z</time>
      </trkpt>
      <trkpt lat="46.5413270" lon="6.5766700">
        <ele>429.1</ele>
        <time>2019-02-24T15:07:28Z</time>
      </trkpt>
      <trkpt lat="46.5413420" lon="6.5766750">
        <ele>429.1</ele>
        <time>2019-02-24T15:07:29Z</time>
      </trkpt>
      <trkpt lat="46.5413600" lon="6.5766810">
        <ele>429.1</ele>
        <time>2019-02-24T15:07:30Z</time>
      </trkpt>
      <trkpt lat="46.5413820" lon="6.5766870">
        <ele>429.1</ele>
        <time>2019-02-24T15:07:31Z</time>
      </trkpt>
      <trkpt lat="46.5414070" lon="6.5766930">
        <ele>429.1</ele>
        <time>2019-02-24T15:07:32Z</time>
      </trkpt>
      <trkpt lat="46.5414350" lon="6.5766990">
        <ele>429.1</ele>
        <time>2019-02-24T15:07:33Z</time>
      </trkpt>
      <trkpt lat="46.5414640" lon="6.5767060">
        <ele>429.1</ele>
        <time>2019-02-24T15:07:34Z</time>
      </trkpt>
      <trkpt lat="46.5414930" lon="6.5767120">
        <ele>429.1</ele>
        <time>2019-02-24T15:07:35Z</time>
      </trkpt>
      <trkpt lat="46.5415220" lon="6.5767180">
        <ele>429.1</ele>
        <time>2019-02-24T15:07:36Z</time>
      </trkpt>
      <trkpt lat="46.5415530" lon="6.5767250">
        <ele>429.1</ele>
        <time>2019-02-24T15:07:37Z</time>
      </trkpt>
      <trkpt lat="46.5415850" lon="6.5767310">
        <ele>429.1</ele>
        <time>2019-02-24T15:07:38Z</time>
      </trkpt>
      <trkpt lat="46.5416200" lon="6.5767370">
        <ele>429.1</ele>
        <time>2019-02-24T15:07:39Z</time>
      </trkpt>
      <trkpt lat="46.5416570" lon="6.5767430">
        <ele>429.1</ele>
        <time>2019-02-24T15:07:40Z</time>
      </trkpt>
      <trkpt lat="46.5416960" lon="6.5767500">
        <ele>429.2</ele>
        <time>2019-02-24T15:07:41Z</time>
      </trkpt>
      <trkpt lat="46.5417370" lon="6.5767570">
        <ele>429.2</ele>
        <time>2019-02-24T15:07:42Z</time>
      </trkpt>
      <trkpt lat="46.5417790" lon="6.5767640">
        <ele>429.2</ele>
        <time>2019-02-24T15:07:43Z</time>
      </trkpt>
      <trkpt lat="46.5418230" lon="6.5767720">
        <ele>429.2</ele>
        <time>2019-02-24T15:07:44Z</time>
      </trkpt>
      <trkpt lat="46.5418680" lon="6.5767800">
        <ele>429.2</ele>
        <time>2019-02-24T15:07:45Z</time>
      </trkpt>
      <trkpt lat="46.5419140" lon="6.5767870">
        <ele>429.2</ele>
        <time>2019-02-24T15:07:46Z</time>
      </trkpt>
      <trkpt lat="46.5419610" lon="6.5767950">
        <ele>429.2</ele>
        <time>2019-02-24T15:07:47Z</time>
      </trkpt>
      <trkpt lat="46.5420080" lon="6.5768010">
        <ele>429.2</ele>
        <time>2019-02-24T15:07:48Z</time>
      </trkpt>
      <trkpt lat="46.5420550" lon="6.5768060">
        <ele>429.1</ele>
        <time>2019-02-24T15:07:49Z</time>
      </trkpt>
      <trkpt lat="46.5421030" lon="6.5768110">
        <ele>429.1</ele>
        <time>2019-02-24T15:07:50Z</time>
      </trkpt>
      <trkpt lat="46.5421510" lon="6.5768140">
        <ele>429.1</ele>
        <time>2019-02-24T15:07:51Z</time>
      </trkpt>
      <trkpt lat="46.5421980" lon="6.5768160">
        <ele>429.1</ele>
        <time>2019-02-24T15:07:52Z</time>
      </trkpt>
      <trkpt lat="46.5422460" lon="6.5768180">
        <ele>429.1</ele>
        <time>2019-02-24T15:07:53Z</time>
      </trkpt>
      <trkpt lat="46.5422940" lon="6.5768190">
        <ele>429.0</ele>
        <time>2019-02-24T15:07:54Z</time>
      </trkpt>
      <trkpt lat="46.5423420" lon="6.5768200">
        <ele>429.0</ele>
        <time>2019-02-24T15:07:55Z</time>
      </trkpt>
      <trkpt lat="46.5423910" lon="6.5768220">
        <ele>428.9</ele>
        <time>2019-02-24T15:07:56Z</time>
      </trkpt>
      <trkpt lat="46.5424400" lon="6.5768250">
        <ele>428.9</ele>
        <time>2019-02-24T15:07:57Z</time>
      </trkpt>
      <trkpt lat="46.5424900" lon="6.5768300">
        <ele>428.8</ele>
        <time>2019-02-24T15:07:58Z</time>
      </trkpt>
      <trkpt lat="46.5425730" lon="6.5768360">
        <ele>428.8</ele>
        <time>2019-02-24T15:07:59Z</time>
      </trkpt>
      <trkpt lat="46.5426070" lon="6.5768360">
        <ele>428.7</ele>
        <time>2019-02-24T15:08:00Z</time>
      </trkpt>
      <trkpt lat="46.5426400" lon="6.5768370">
        <ele>428.7</ele>
        <time>2019-02-24T15:08:01Z</time>
      </trkpt>
      <trkpt lat="46.5426870" lon="6.5768260">
        <ele>428.6</ele>
        <time>2019-02-24T15:08:02Z</time>
      </trkpt>
      <trkpt lat="46.5427320" lon="6.5768050">
        <ele>428.5</ele>
        <time>2019-02-24T15:08:03Z</time>
      </trkpt>
      <trkpt lat="46.5427750" lon="6.5767760">
        <ele>428.6</ele>
        <time>2019-02-24T15:08:04Z</time>
      </trkpt>
      <trkpt lat="46.5428190" lon="6.5767420">
        <ele>428.6</ele>
        <time>2019-02-24T15:08:05Z</time>
      </trkpt>
      <trkpt lat="46.5428640" lon="6.5767080">
        <ele>428.7</ele>
        <time>2019-02-24T15:08:06Z</time>
      </trkpt>
      <trkpt lat="46.5429120" lon="6.5766760">
        <ele>428.7</ele>
        <time>2019-02-24T15:08:07Z</time>
      </trkpt>
      <trkpt lat="46.5429620" lon="6.5766480">
        <ele>428.8</ele>
        <time>2019-02-24T15:08:08Z</time>
      </trkpt>
      <trkpt lat="46.5430120" lon="6.5766240">
        <ele>428.9</ele>
        <time>2019-02-24T15:08:09Z</time>
      </trkpt>
      <trkpt lat="46.5430630" lon="6.5766020">
        <ele>429.0</ele>
        <time>2019-02-24T15:08:10Z</time>
      </trkpt>
      <trkpt lat="46.5431130" lon="6.5765830">
        <ele>429.0</ele>
        <time>2019-02-24T15:08:11Z</time>
      </trkpt>
      <trkpt lat="46.5431620" lon="6.5765660">
        <ele>429.1</ele>
        <time>2019-02-24T15:08:12Z</time>
      </trkpt>
      <trkpt lat="46.5432090" lon="6.5765500">
        <ele>429.2</ele>
        <time>2019-02-24T15:08:13Z</time>
      </trkpt>
      <trkpt lat="46.5432550" lon="6.5765350">
        <ele>429.2</ele>
        <time>2019-02-24T15:08:14Z</time>
      </trkpt>
      <trkpt lat="46.5432990" lon="6.5765190">
        <ele>429.3</ele>
        <time>2019-02-24T15:08:15Z</time>
      </trkpt>
      <trkpt lat="46.5433420" lon="6.5765050">
        <ele>429.3</ele>
        <time>2019-02-24T15:08:16Z</time>
      </trkpt>
      <trkpt lat="46.5433850" lon="6.5764920">
        <ele>429.4</ele>
        <time>2019-02-24T15:08:17Z</time>
      </trkpt>
      <trkpt lat="46.5434290" lon="6.5764810">
        <ele>429.5</ele>
        <time>2019-02-24T15:08:18Z</time>
      </trkpt>
      <trkpt lat="46.5434730" lon="6.5764740">
        <ele>429.5</ele>
        <time>2019-02-24T15:08:19Z</time>
      </trkpt>
      <trkpt lat="46.5435170" lon="6.5764690">
        <ele>429.4</ele>
        <time>2019-02-24T15:08:20Z</time>
      </trkpt>
      <trkpt lat="46.5435610" lon="6.5764650">
        <ele>429.4</ele>
        <time>2019-02-24T15:08:21Z</time>
      </trkpt>
      <trkpt lat="46.5436040" lon="6.5764590">
        <ele>429.3</ele>
        <time>2019-02-24T15:08:22Z</time>
      </trkpt>
      <trkpt lat="46.5436450" lon="6.5764520">
        <ele>429.2</ele>
        <time>2019-02-24T15:08:23Z</time>
      </trkpt>
      <trkpt lat="46.5436830" lon="6.5764440">
        <ele>429.2</ele>
        <time>2019-02-24T15:08:24Z</time>
      </trkpt>
      <trkpt lat="46.5437190" lon="6.5764370">
        <ele>429.1</ele>
        <time>2019-02-24T15:08:25Z</time>
      </trkpt>
      <trkpt lat="46.5437520" lon="6.5764310">
        <ele>429.1</ele>
        <time>2019-02-24T15:08:26Z</time>
      </trkpt>
      <trkpt lat="46.5437820" lon="6.5764290">
        <ele>429.1</ele>
        <time>2019-02-24T15:08:27Z</time>
      </trkpt>
      <trkpt lat="46.5438090" lon="6.5764300">
        <ele>429.0</ele>
        <time>2019-02-24T15:08:28Z</time>
      </trkpt>
      <trkpt lat="46.5438350" lon="6.5764300">
        <ele>429.0</ele>
        <time>2019-02-24T15:08:29Z</time>
      </trkpt>
      <trkpt lat="46.5438600" lon="6.5764290">
        <ele>429.0</ele>
        <time>2019-02-24T15:08:30Z</time>
      </trkpt>
      <trkpt lat="46.5438870" lon="6.5764260">
        <ele>429.0</ele>
        <time>2019-02-24T15:08:31Z</time>
      </trkpt>
      <trkpt lat="46.5439130" lon="6.5764190">
        <ele>429.0</ele>
        <time>2019-02-24T15:08:32Z</time>
      </trkpt>
      <trkpt lat="46.5439400" lon="6.5764110">
        <ele>429.0</ele>
        <time>2019-02-24T15:08:33Z</time>
      </trkpt>
      <trkpt lat="46.5439660" lon="6.5764020">
        <ele>429.0</ele>
        <time>2019-02-24T15:08:34Z</time>
      </trkpt>
      <trkpt lat="46.5439910" lon="6.5763930">
        <ele>429.0</ele>
        <time>2019-02-24T15:08:35Z</time>
      </trkpt>
      <trkpt lat="46.5440150" lon="6.5763840">
        <ele>429.0</ele>
        <time>2019-02-24T15:08:36Z</time>
      </trkpt>
      <trkpt lat="46.5440370" lon="6.5763760">
        <ele>429.0</ele>
        <time>2019-02-24T15:08:37Z</time>
      </trkpt>
      <trkpt lat="46.5440570" lon="6.5763690">
        <ele>429.0</ele>
        <time>2019-02-24T15:08:38Z</time>
      </trkpt>
      <trkpt lat="46.5440750" lon="6.5763650">
        <ele>429.0</ele>
        <time>2019-02-24T15:08:39Z</time>
      </trkpt>
      <trkpt lat="46.5440900" lon="6.5763630">
        <ele>429.0</ele>
        <time>2019-02-24T15:08:40Z</time>
      </trkpt>
      <trkpt lat="46.5441020" lon="6.5763620">
        <ele>429.0</ele>
        <time>2019-02-24T15:08:41Z</time>
      </trkpt>
      <trkpt lat="46.5441110" lon="6.5763620">
        <ele>429.0</ele>
        <time>2019-02-24T15:08:42Z</time>
      </trkpt>
      <trkpt lat="46.5441170" lon="6.5763630">
        <ele>429.0</ele>
        <time>2019-02-24T15:08:43Z</time>
      </trkpt>
      <trkpt lat="46.5441200" lon="6.5763640">
        <ele>429.0</ele>
        <time>2019-02-24T15:08:44Z</time>
      </trkpt>
      <trkpt lat="46.5441200" lon="6.5763640">
        <ele>429.0</ele>
        <time>2019-02-24T15:08:45Z</time>
      </trkpt>
      <trkpt lat="46.5441170" lon="6.5763630">
        <ele>429.0</ele>
        <time>2019-02-24T15:08:46Z</time>
      </trkpt>
    </trkseg>
  </trk>
</gpx>
